<?xml version="1.0" encoding="UTF-8" standalone="no" ?>
<gpx xmlns="http://www.topografix.com/GPX/1/1" xmlns:xsi="http://www.w3.org/2001/XMLSchema-instance" xsi:schemaLocation="http://www.topografix.com/GPX/1/1 http://www.topografix.com/GPX/1/1/gpx.xsd" version="1.1" creator="VisuGPX - https://www.visugpx.com">
  <metadata>
    <name>ski M PELLARD(2882m) POINTE DE PIERRE FENDUE(3037m)</name>
  </metadata>
  <trk>
    <name><![CDATA[ski M PELLARD(2882m) POINTE DE PIERRE FENDUE(3037m)]]></name>
    <trkseg>
      <trkpt lat="45.1845" lon="6.31758">
        <ele>1600</ele>
        <time>2015-03-23T07:47:27.000Z</time>
      </trkpt>
      <trkpt lat="45.1845" lon="6.31758">
        <ele>1600</ele>
        <time>2015-03-23T07:47:27.000Z</time>
      </trkpt>
      <trkpt lat="45.18444" lon="6.31758">
        <ele>1600.5999755859</ele>
        <time>2015-03-23T07:47:40.000Z</time>
      </trkpt>
      <trkpt lat="45.18442" lon="6.31759">
        <ele>1600.8000488281</ele>
        <time>2015-03-23T07:47:43.000Z</time>
      </trkpt>
      <trkpt lat="45.18441" lon="6.31758">
        <ele>1601</ele>
        <time>2015-03-23T07:47:44.000Z</time>
      </trkpt>
      <trkpt lat="45.1844" lon="6.31758">
        <ele>1601</ele>
        <time>2015-03-23T07:47:45.000Z</time>
      </trkpt>
      <trkpt lat="45.18433" lon="6.31759">
        <ele>1601.1999511719</ele>
        <time>2015-03-23T07:47:53.000Z</time>
      </trkpt>
      <trkpt lat="45.18426" lon="6.31758">
        <ele>1601.4000244141</ele>
        <time>2015-03-23T07:48:01.000Z</time>
      </trkpt>
      <trkpt lat="45.18421" lon="6.31755">
        <ele>1602</ele>
        <time>2015-03-23T07:48:09.000Z</time>
      </trkpt>
      <trkpt lat="45.1842" lon="6.31755">
        <ele>1602.1999511719</ele>
        <time>2015-03-23T07:48:10.000Z</time>
      </trkpt>
      <trkpt lat="45.18414" lon="6.31749">
        <ele>1603</ele>
        <time>2015-03-23T07:48:19.000Z</time>
      </trkpt>
      <trkpt lat="45.18413" lon="6.31748">
        <ele>1603.1999511719</ele>
        <time>2015-03-23T07:48:20.000Z</time>
      </trkpt>
      <trkpt lat="45.18406" lon="6.31742">
        <ele>1604.4000244141</ele>
        <time>2015-03-23T07:48:28.000Z</time>
      </trkpt>
      <trkpt lat="45.18398" lon="6.31735">
        <ele>1605.5999755859</ele>
        <time>2015-03-23T07:48:35.000Z</time>
      </trkpt>
      <trkpt lat="45.18397" lon="6.31734">
        <ele>1605.5999755859</ele>
        <time>2015-03-23T07:48:36.000Z</time>
      </trkpt>
      <trkpt lat="45.1839" lon="6.31727">
        <ele>1606.5999755859</ele>
        <time>2015-03-23T07:48:42.000Z</time>
      </trkpt>
      <trkpt lat="45.18389" lon="6.31727">
        <ele>1607</ele>
        <time>2015-03-23T07:48:43.000Z</time>
      </trkpt>
      <trkpt lat="45.18383" lon="6.31723">
        <ele>1607.8000488281</ele>
        <time>2015-03-23T07:48:48.000Z</time>
      </trkpt>
      <trkpt lat="45.18379" lon="6.3172">
        <ele>1608.5999755859</ele>
        <time>2015-03-23T07:48:52.000Z</time>
      </trkpt>
      <trkpt lat="45.18376" lon="6.31718">
        <ele>1608.8000488281</ele>
        <time>2015-03-23T07:48:54.000Z</time>
      </trkpt>
      <trkpt lat="45.1837" lon="6.31714">
        <ele>1609.8000488281</ele>
        <time>2015-03-23T07:48:59.000Z</time>
      </trkpt>
      <trkpt lat="45.18369" lon="6.31713">
        <ele>1610</ele>
        <time>2015-03-23T07:49:00.000Z</time>
      </trkpt>
      <trkpt lat="45.18362" lon="6.31708">
        <ele>1610.5999755859</ele>
        <time>2015-03-23T07:49:06.000Z</time>
      </trkpt>
      <trkpt lat="45.18358" lon="6.31706">
        <ele>1611</ele>
        <time>2015-03-23T07:49:09.000Z</time>
      </trkpt>
      <trkpt lat="45.18353" lon="6.31705">
        <ele>1611.5999755859</ele>
        <time>2015-03-23T07:49:12.000Z</time>
      </trkpt>
      <trkpt lat="45.1835" lon="6.31703">
        <ele>1612.1999511719</ele>
        <time>2015-03-23T07:49:15.000Z</time>
      </trkpt>
      <trkpt lat="45.18347" lon="6.31703">
        <ele>1612.4000244141</ele>
        <time>2015-03-23T07:49:17.000Z</time>
      </trkpt>
      <trkpt lat="45.18342" lon="6.31703">
        <ele>1612.8000488281</ele>
        <time>2015-03-23T07:49:22.000Z</time>
      </trkpt>
      <trkpt lat="45.18339" lon="6.31703">
        <ele>1613.4000244141</ele>
        <time>2015-03-23T07:49:25.000Z</time>
      </trkpt>
      <trkpt lat="45.18336" lon="6.31702">
        <ele>1613.8000488281</ele>
        <time>2015-03-23T07:49:28.000Z</time>
      </trkpt>
      <trkpt lat="45.18335" lon="6.31702">
        <ele>1614.4000244141</ele>
        <time>2015-03-23T07:49:33.000Z</time>
      </trkpt>
      <trkpt lat="45.18335" lon="6.31702">
        <ele>1614.4000244141</ele>
        <time>2015-03-23T07:49:36.000Z</time>
      </trkpt>
      <trkpt lat="45.18327" lon="6.317">
        <ele>1615</ele>
        <time>2015-03-23T07:49:43.000Z</time>
      </trkpt>
      <trkpt lat="45.18322" lon="6.31699">
        <ele>1615.4000244141</ele>
        <time>2015-03-23T07:49:47.000Z</time>
      </trkpt>
      <trkpt lat="45.18317" lon="6.31696">
        <ele>1615.8000488281</ele>
        <time>2015-03-23T07:49:51.000Z</time>
      </trkpt>
      <trkpt lat="45.18311" lon="6.31694">
        <ele>1616.1999511719</ele>
        <time>2015-03-23T07:49:56.000Z</time>
      </trkpt>
      <trkpt lat="45.18308" lon="6.31693">
        <ele>1616.4000244141</ele>
        <time>2015-03-23T07:49:59.000Z</time>
      </trkpt>
      <trkpt lat="45.18304" lon="6.3169">
        <ele>1617.4000244141</ele>
        <time>2015-03-23T07:50:03.000Z</time>
      </trkpt>
      <trkpt lat="45.18303" lon="6.3169">
        <ele>1617.8000488281</ele>
        <time>2015-03-23T07:50:04.000Z</time>
      </trkpt>
      <trkpt lat="45.18297" lon="6.31686">
        <ele>1618.8000488281</ele>
        <time>2015-03-23T07:50:10.000Z</time>
      </trkpt>
      <trkpt lat="45.18296" lon="6.31686">
        <ele>1618.8000488281</ele>
        <time>2015-03-23T07:50:11.000Z</time>
      </trkpt>
      <trkpt lat="45.18291" lon="6.31682">
        <ele>1619.8000488281</ele>
        <time>2015-03-23T07:50:16.000Z</time>
      </trkpt>
      <trkpt lat="45.1829" lon="6.31681">
        <ele>1620</ele>
        <time>2015-03-23T07:50:17.000Z</time>
      </trkpt>
      <trkpt lat="45.18283" lon="6.31676">
        <ele>1621</ele>
        <time>2015-03-23T07:50:24.000Z</time>
      </trkpt>
      <trkpt lat="45.18275" lon="6.3167">
        <ele>1622</ele>
        <time>2015-03-23T07:50:31.000Z</time>
      </trkpt>
      <trkpt lat="45.18273" lon="6.31669">
        <ele>1622.1999511719</ele>
        <time>2015-03-23T07:50:33.000Z</time>
      </trkpt>
      <trkpt lat="45.18267" lon="6.31667">
        <ele>1623</ele>
        <time>2015-03-23T07:50:38.000Z</time>
      </trkpt>
      <trkpt lat="45.18265" lon="6.31667">
        <ele>1623.1999511719</ele>
        <time>2015-03-23T07:50:39.000Z</time>
      </trkpt>
      <trkpt lat="45.18258" lon="6.31665">
        <ele>1624</ele>
        <time>2015-03-23T07:50:45.000Z</time>
      </trkpt>
      <trkpt lat="45.18255" lon="6.31664">
        <ele>1624.1999511719</ele>
        <time>2015-03-23T07:50:47.000Z</time>
      </trkpt>
      <trkpt lat="45.18249" lon="6.31663">
        <ele>1624.8000488281</ele>
        <time>2015-03-23T07:50:52.000Z</time>
      </trkpt>
      <trkpt lat="45.18245" lon="6.31662">
        <ele>1625</ele>
        <time>2015-03-23T07:50:55.000Z</time>
      </trkpt>
      <trkpt lat="45.1824" lon="6.31661">
        <ele>1625.5999755859</ele>
        <time>2015-03-23T07:50:59.000Z</time>
      </trkpt>
      <trkpt lat="45.18237" lon="6.31662">
        <ele>1625.5999755859</ele>
        <time>2015-03-23T07:51:01.000Z</time>
      </trkpt>
      <trkpt lat="45.18233" lon="6.31663">
        <ele>1626</ele>
        <time>2015-03-23T07:51:04.000Z</time>
      </trkpt>
      <trkpt lat="45.18231" lon="6.31663">
        <ele>1626.1999511719</ele>
        <time>2015-03-23T07:51:05.000Z</time>
      </trkpt>
      <trkpt lat="45.18227" lon="6.31666">
        <ele>1626.5999755859</ele>
        <time>2015-03-23T07:51:09.000Z</time>
      </trkpt>
      <trkpt lat="45.18221" lon="6.31668">
        <ele>1627.1999511719</ele>
        <time>2015-03-23T07:51:14.000Z</time>
      </trkpt>
      <trkpt lat="45.18217" lon="6.31673">
        <ele>1628.1999511719</ele>
        <time>2015-03-23T07:51:20.000Z</time>
      </trkpt>
      <trkpt lat="45.18216" lon="6.31674">
        <ele>1628.4000244141</ele>
        <time>2015-03-23T07:51:21.000Z</time>
      </trkpt>
      <trkpt lat="45.18212" lon="6.31678">
        <ele>1629</ele>
        <time>2015-03-23T07:51:25.000Z</time>
      </trkpt>
      <trkpt lat="45.18208" lon="6.31682">
        <ele>1629.4000244141</ele>
        <time>2015-03-23T07:51:30.000Z</time>
      </trkpt>
      <trkpt lat="45.18208" lon="6.31689">
        <ele>1630.1999511719</ele>
        <time>2015-03-23T07:51:34.000Z</time>
      </trkpt>
      <trkpt lat="45.18208" lon="6.31693">
        <ele>1630.5999755859</ele>
        <time>2015-03-23T07:51:36.000Z</time>
      </trkpt>
      <trkpt lat="45.18208" lon="6.31695">
        <ele>1630.5999755859</ele>
        <time>2015-03-23T07:51:37.000Z</time>
      </trkpt>
      <trkpt lat="45.18207" lon="6.31703">
        <ele>1631.4000244141</ele>
        <time>2015-03-23T07:51:42.000Z</time>
      </trkpt>
      <trkpt lat="45.18206" lon="6.31705">
        <ele>1631.5999755859</ele>
        <time>2015-03-23T07:51:43.000Z</time>
      </trkpt>
      <trkpt lat="45.18206" lon="6.31711">
        <ele>1632.4000244141</ele>
        <time>2015-03-23T07:51:47.000Z</time>
      </trkpt>
      <trkpt lat="45.18205" lon="6.31715">
        <ele>1632.5999755859</ele>
        <time>2015-03-23T07:51:49.000Z</time>
      </trkpt>
      <trkpt lat="45.18204" lon="6.31724">
        <ele>1633.4000244141</ele>
        <time>2015-03-23T07:51:54.000Z</time>
      </trkpt>
      <trkpt lat="45.18203" lon="6.31728">
        <ele>1633.8000488281</ele>
        <time>2015-03-23T07:51:57.000Z</time>
      </trkpt>
      <trkpt lat="45.18203" lon="6.3173">
        <ele>1634</ele>
        <time>2015-03-23T07:51:59.000Z</time>
      </trkpt>
      <trkpt lat="45.18202" lon="6.31736">
        <ele>1634.4000244141</ele>
        <time>2015-03-23T07:52:04.000Z</time>
      </trkpt>
      <trkpt lat="45.18199" lon="6.31742">
        <ele>1634.5999755859</ele>
        <time>2015-03-23T07:52:08.000Z</time>
      </trkpt>
      <trkpt lat="45.18197" lon="6.31742">
        <ele>1634.5999755859</ele>
        <time>2015-03-23T07:52:09.000Z</time>
      </trkpt>
      <trkpt lat="45.18192" lon="6.31744">
        <ele>1634.5999755859</ele>
        <time>2015-03-23T07:52:15.000Z</time>
      </trkpt>
      <trkpt lat="45.18192" lon="6.31744">
        <ele>1634</ele>
        <time>2015-03-23T07:52:24.000Z</time>
      </trkpt>
      <trkpt lat="45.18192" lon="6.31744">
        <ele>1633.5999755859</ele>
        <time>2015-03-23T07:52:32.000Z</time>
      </trkpt>
      <trkpt lat="45.18192" lon="6.31744">
        <ele>1633.1999511719</ele>
        <time>2015-03-23T07:52:43.000Z</time>
      </trkpt>
      <trkpt lat="45.18192" lon="6.31744">
        <ele>1633</ele>
        <time>2015-03-23T07:52:50.000Z</time>
      </trkpt>
      <trkpt lat="45.1819" lon="6.31749">
        <ele>1633.8000488281</ele>
        <time>2015-03-23T07:52:56.000Z</time>
      </trkpt>
      <trkpt lat="45.18189" lon="6.3175">
        <ele>1634.4000244141</ele>
        <time>2015-03-23T07:53:06.000Z</time>
      </trkpt>
      <trkpt lat="45.18189" lon="6.3175">
        <ele>1634.8000488281</ele>
        <time>2015-03-23T07:53:10.000Z</time>
      </trkpt>
      <trkpt lat="45.18189" lon="6.31753">
        <ele>1635</ele>
        <time>2015-03-23T07:53:11.000Z</time>
      </trkpt>
      <trkpt lat="45.18188" lon="6.31755">
        <ele>1635</ele>
        <time>2015-03-23T07:53:12.000Z</time>
      </trkpt>
      <trkpt lat="45.18188" lon="6.31763">
        <ele>1635.4000244141</ele>
        <time>2015-03-23T07:53:17.000Z</time>
      </trkpt>
      <trkpt lat="45.18186" lon="6.31769">
        <ele>1635.8000488281</ele>
        <time>2015-03-23T07:53:21.000Z</time>
      </trkpt>
      <trkpt lat="45.18186" lon="6.3177">
        <ele>1636</ele>
        <time>2015-03-23T07:53:22.000Z</time>
      </trkpt>
      <trkpt lat="45.18185" lon="6.31771">
        <ele>1636.1999511719</ele>
        <time>2015-03-23T07:53:23.000Z</time>
      </trkpt>
      <trkpt lat="45.18184" lon="6.31774">
        <ele>1636.4000244141</ele>
        <time>2015-03-23T07:53:27.000Z</time>
      </trkpt>
      <trkpt lat="45.18184" lon="6.31774">
        <ele>1636.8000488281</ele>
        <time>2015-03-23T07:53:35.000Z</time>
      </trkpt>
      <trkpt lat="45.18184" lon="6.31774">
        <ele>1637</ele>
        <time>2015-03-23T07:53:40.000Z</time>
      </trkpt>
      <trkpt lat="45.18184" lon="6.31774">
        <ele>1637</ele>
        <time>2015-03-23T07:53:52.000Z</time>
      </trkpt>
      <trkpt lat="45.18184" lon="6.31774">
        <ele>1637</ele>
        <time>2015-03-23T07:54:06.000Z</time>
      </trkpt>
      <trkpt lat="45.18184" lon="6.31774">
        <ele>1636.8000488281</ele>
        <time>2015-03-23T07:54:21.000Z</time>
      </trkpt>
      <trkpt lat="45.18184" lon="6.31774">
        <ele>1637</ele>
        <time>2015-03-23T07:54:33.000Z</time>
      </trkpt>
      <trkpt lat="45.18184" lon="6.31776">
        <ele>1637.4000244141</ele>
        <time>2015-03-23T07:54:36.000Z</time>
      </trkpt>
      <trkpt lat="45.18185" lon="6.31779">
        <ele>1637.4000244141</ele>
        <time>2015-03-23T07:54:39.000Z</time>
      </trkpt>
      <trkpt lat="45.18185" lon="6.31788">
        <ele>1638</ele>
        <time>2015-03-23T07:54:44.000Z</time>
      </trkpt>
      <trkpt lat="45.18185" lon="6.3179">
        <ele>1638.1999511719</ele>
        <time>2015-03-23T07:54:45.000Z</time>
      </trkpt>
      <trkpt lat="45.18184" lon="6.318">
        <ele>1638.5999755859</ele>
        <time>2015-03-23T07:54:51.000Z</time>
      </trkpt>
      <trkpt lat="45.18183" lon="6.31805">
        <ele>1639.1999511719</ele>
        <time>2015-03-23T07:54:54.000Z</time>
      </trkpt>
      <trkpt lat="45.18183" lon="6.3181">
        <ele>1640</ele>
        <time>2015-03-23T07:54:57.000Z</time>
      </trkpt>
      <trkpt lat="45.18182" lon="6.31815">
        <ele>1640.4000244141</ele>
        <time>2015-03-23T07:55:00.000Z</time>
      </trkpt>
      <trkpt lat="45.18182" lon="6.3182">
        <ele>1640.8000488281</ele>
        <time>2015-03-23T07:55:03.000Z</time>
      </trkpt>
      <trkpt lat="45.18182" lon="6.3182">
        <ele>1641.4000244141</ele>
        <time>2015-03-23T07:55:06.000Z</time>
      </trkpt>
      <trkpt lat="45.18182" lon="6.3182">
        <ele>1641.5999755859</ele>
        <time>2015-03-23T07:55:09.000Z</time>
      </trkpt>
      <trkpt lat="45.18182" lon="6.31822">
        <ele>1641.5999755859</ele>
        <time>2015-03-23T07:55:14.000Z</time>
      </trkpt>
      <trkpt lat="45.1818" lon="6.31831">
        <ele>1641.8000488281</ele>
        <time>2015-03-23T07:55:20.000Z</time>
      </trkpt>
      <trkpt lat="45.18179" lon="6.31835">
        <ele>1642</ele>
        <time>2015-03-23T07:55:25.000Z</time>
      </trkpt>
      <trkpt lat="45.18178" lon="6.31839">
        <ele>1642.4000244141</ele>
        <time>2015-03-23T07:55:27.000Z</time>
      </trkpt>
      <trkpt lat="45.18178" lon="6.3184">
        <ele>1642.5999755859</ele>
        <time>2015-03-23T07:55:28.000Z</time>
      </trkpt>
      <trkpt lat="45.18178" lon="6.31845">
        <ele>1643.1999511719</ele>
        <time>2015-03-23T07:55:31.000Z</time>
      </trkpt>
      <trkpt lat="45.18178" lon="6.3185">
        <ele>1643.8000488281</ele>
        <time>2015-03-23T07:55:34.000Z</time>
      </trkpt>
      <trkpt lat="45.18179" lon="6.31854">
        <ele>1644.1999511719</ele>
        <time>2015-03-23T07:55:36.000Z</time>
      </trkpt>
      <trkpt lat="45.18181" lon="6.31863">
        <ele>1644.8000488281</ele>
        <time>2015-03-23T07:55:42.000Z</time>
      </trkpt>
      <trkpt lat="45.1818" lon="6.31872">
        <ele>1645.8000488281</ele>
        <time>2015-03-23T07:55:47.000Z</time>
      </trkpt>
      <trkpt lat="45.1818" lon="6.31874">
        <ele>1646</ele>
        <time>2015-03-23T07:55:48.000Z</time>
      </trkpt>
      <trkpt lat="45.1818" lon="6.31884">
        <ele>1647</ele>
        <time>2015-03-23T07:55:53.000Z</time>
      </trkpt>
      <trkpt lat="45.1818" lon="6.31886">
        <ele>1647.1999511719</ele>
        <time>2015-03-23T07:55:54.000Z</time>
      </trkpt>
      <trkpt lat="45.18178" lon="6.31892">
        <ele>1647.8000488281</ele>
        <time>2015-03-23T07:55:58.000Z</time>
      </trkpt>
      <trkpt lat="45.18177" lon="6.31895">
        <ele>1648.1999511719</ele>
        <time>2015-03-23T07:56:00.000Z</time>
      </trkpt>
      <trkpt lat="45.18173" lon="6.31899">
        <ele>1648.8000488281</ele>
        <time>2015-03-23T07:56:04.000Z</time>
      </trkpt>
      <trkpt lat="45.18173" lon="6.31901">
        <ele>1649.4000244141</ele>
        <time>2015-03-23T07:56:05.000Z</time>
      </trkpt>
      <trkpt lat="45.18171" lon="6.31908">
        <ele>1650.4000244141</ele>
        <time>2015-03-23T07:56:09.000Z</time>
      </trkpt>
      <trkpt lat="45.18171" lon="6.31913">
        <ele>1651</ele>
        <time>2015-03-23T07:56:12.000Z</time>
      </trkpt>
      <trkpt lat="45.18172" lon="6.31916">
        <ele>1651.4000244141</ele>
        <time>2015-03-23T07:56:14.000Z</time>
      </trkpt>
      <trkpt lat="45.18173" lon="6.31917">
        <ele>1651.5999755859</ele>
        <time>2015-03-23T07:56:15.000Z</time>
      </trkpt>
      <trkpt lat="45.18175" lon="6.31923">
        <ele>1652.1999511719</ele>
        <time>2015-03-23T07:56:20.000Z</time>
      </trkpt>
      <trkpt lat="45.18176" lon="6.31926">
        <ele>1652.5999755859</ele>
        <time>2015-03-23T07:56:22.000Z</time>
      </trkpt>
      <trkpt lat="45.18178" lon="6.31929">
        <ele>1653.4000244141</ele>
        <time>2015-03-23T07:56:25.000Z</time>
      </trkpt>
      <trkpt lat="45.18178" lon="6.3193">
        <ele>1653.8000488281</ele>
        <time>2015-03-23T07:56:26.000Z</time>
      </trkpt>
      <trkpt lat="45.18179" lon="6.31933">
        <ele>1654.8000488281</ele>
        <time>2015-03-23T07:56:29.000Z</time>
      </trkpt>
      <trkpt lat="45.18179" lon="6.31936">
        <ele>1655.4000244141</ele>
        <time>2015-03-23T07:56:31.000Z</time>
      </trkpt>
      <trkpt lat="45.18179" lon="6.31939">
        <ele>1656</ele>
        <time>2015-03-23T07:56:34.000Z</time>
      </trkpt>
      <trkpt lat="45.1818" lon="6.31943">
        <ele>1657.1999511719</ele>
        <time>2015-03-23T07:56:37.000Z</time>
      </trkpt>
      <trkpt lat="45.1818" lon="6.31946">
        <ele>1658.1999511719</ele>
        <time>2015-03-23T07:56:41.000Z</time>
      </trkpt>
      <trkpt lat="45.1818" lon="6.3195">
        <ele>1659</ele>
        <time>2015-03-23T07:56:44.000Z</time>
      </trkpt>
      <trkpt lat="45.1818" lon="6.31951">
        <ele>1659.4000244141</ele>
        <time>2015-03-23T07:56:45.000Z</time>
      </trkpt>
      <trkpt lat="45.1818" lon="6.31956">
        <ele>1660.4000244141</ele>
        <time>2015-03-23T07:56:50.000Z</time>
      </trkpt>
      <trkpt lat="45.1818" lon="6.31961">
        <ele>1661.8000488281</ele>
        <time>2015-03-23T07:56:54.000Z</time>
      </trkpt>
      <trkpt lat="45.1818" lon="6.31964">
        <ele>1662.4000244141</ele>
        <time>2015-03-23T07:56:57.000Z</time>
      </trkpt>
      <trkpt lat="45.1818" lon="6.31967">
        <ele>1663</ele>
        <time>2015-03-23T07:57:00.000Z</time>
      </trkpt>
      <trkpt lat="45.18181" lon="6.31971">
        <ele>1663.5999755859</ele>
        <time>2015-03-23T07:57:03.000Z</time>
      </trkpt>
      <trkpt lat="45.18181" lon="6.31973">
        <ele>1664</ele>
        <time>2015-03-23T07:57:05.000Z</time>
      </trkpt>
      <trkpt lat="45.1818" lon="6.31977">
        <ele>1665.1999511719</ele>
        <time>2015-03-23T07:57:10.000Z</time>
      </trkpt>
      <trkpt lat="45.1818" lon="6.31978">
        <ele>1665.4000244141</ele>
        <time>2015-03-23T07:57:11.000Z</time>
      </trkpt>
      <trkpt lat="45.1818" lon="6.31984">
        <ele>1666.1999511719</ele>
        <time>2015-03-23T07:57:16.000Z</time>
      </trkpt>
      <trkpt lat="45.1818" lon="6.31986">
        <ele>1666.8000488281</ele>
        <time>2015-03-23T07:57:17.000Z</time>
      </trkpt>
      <trkpt lat="45.18181" lon="6.3199">
        <ele>1667.5999755859</ele>
        <time>2015-03-23T07:57:20.000Z</time>
      </trkpt>
      <trkpt lat="45.18181" lon="6.31993">
        <ele>1668.4000244141</ele>
        <time>2015-03-23T07:57:24.000Z</time>
      </trkpt>
      <trkpt lat="45.18181" lon="6.31994">
        <ele>1668.5999755859</ele>
        <time>2015-03-23T07:57:25.000Z</time>
      </trkpt>
      <trkpt lat="45.18182" lon="6.32001">
        <ele>1669.4000244141</ele>
        <time>2015-03-23T07:57:30.000Z</time>
      </trkpt>
      <trkpt lat="45.18182" lon="6.32003">
        <ele>1669.5999755859</ele>
        <time>2015-03-23T07:57:32.000Z</time>
      </trkpt>
      <trkpt lat="45.18182" lon="6.32009">
        <ele>1670.4000244141</ele>
        <time>2015-03-23T07:57:36.000Z</time>
      </trkpt>
      <trkpt lat="45.18182" lon="6.32011">
        <ele>1670.5999755859</ele>
        <time>2015-03-23T07:57:37.000Z</time>
      </trkpt>
      <trkpt lat="45.1818" lon="6.32016">
        <ele>1672</ele>
        <time>2015-03-23T07:57:42.000Z</time>
      </trkpt>
      <trkpt lat="45.18176" lon="6.3202">
        <ele>1673</ele>
        <time>2015-03-23T07:57:46.000Z</time>
      </trkpt>
      <trkpt lat="45.18175" lon="6.32021">
        <ele>1673.4000244141</ele>
        <time>2015-03-23T07:57:48.000Z</time>
      </trkpt>
      <trkpt lat="45.18171" lon="6.32024">
        <ele>1674.1999511719</ele>
        <time>2015-03-23T07:57:52.000Z</time>
      </trkpt>
      <trkpt lat="45.18171" lon="6.32025">
        <ele>1674.5999755859</ele>
        <time>2015-03-23T07:57:54.000Z</time>
      </trkpt>
      <trkpt lat="45.18171" lon="6.32025">
        <ele>1675.4000244141</ele>
        <time>2015-03-23T07:57:57.000Z</time>
      </trkpt>
      <trkpt lat="45.18171" lon="6.32025">
        <ele>1675.5999755859</ele>
        <time>2015-03-23T07:58:05.000Z</time>
      </trkpt>
      <trkpt lat="45.18171" lon="6.32025">
        <ele>1675.4000244141</ele>
        <time>2015-03-23T07:58:08.000Z</time>
      </trkpt>
      <trkpt lat="45.18169" lon="6.32026">
        <ele>1675.5999755859</ele>
        <time>2015-03-23T07:58:19.000Z</time>
      </trkpt>
      <trkpt lat="45.18166" lon="6.3203">
        <ele>1675.8000488281</ele>
        <time>2015-03-23T07:58:24.000Z</time>
      </trkpt>
      <trkpt lat="45.18165" lon="6.32031">
        <ele>1676</ele>
        <time>2015-03-23T07:58:25.000Z</time>
      </trkpt>
      <trkpt lat="45.18164" lon="6.32032">
        <ele>1676.4000244141</ele>
        <time>2015-03-23T07:58:28.000Z</time>
      </trkpt>
      <trkpt lat="45.18163" lon="6.32033">
        <ele>1676.8000488281</ele>
        <time>2015-03-23T07:58:29.000Z</time>
      </trkpt>
      <trkpt lat="45.18159" lon="6.32038">
        <ele>1677.4000244141</ele>
        <time>2015-03-23T07:58:34.000Z</time>
      </trkpt>
      <trkpt lat="45.18158" lon="6.32038">
        <ele>1677.4000244141</ele>
        <time>2015-03-23T07:58:35.000Z</time>
      </trkpt>
      <trkpt lat="45.18156" lon="6.32044">
        <ele>1678</ele>
        <time>2015-03-23T07:58:39.000Z</time>
      </trkpt>
      <trkpt lat="45.18153" lon="6.3205">
        <ele>1678.4000244141</ele>
        <time>2015-03-23T07:58:43.000Z</time>
      </trkpt>
      <trkpt lat="45.18152" lon="6.32052">
        <ele>1678.5999755859</ele>
        <time>2015-03-23T07:58:45.000Z</time>
      </trkpt>
      <trkpt lat="45.18149" lon="6.3206">
        <ele>1679.5999755859</ele>
        <time>2015-03-23T07:58:51.000Z</time>
      </trkpt>
      <trkpt lat="45.18145" lon="6.32065">
        <ele>1680.1999511719</ele>
        <time>2015-03-23T07:58:57.000Z</time>
      </trkpt>
      <trkpt lat="45.18141" lon="6.32068">
        <ele>1680.5999755859</ele>
        <time>2015-03-23T07:59:01.000Z</time>
      </trkpt>
      <trkpt lat="45.18141" lon="6.32069">
        <ele>1680.8000488281</ele>
        <time>2015-03-23T07:59:02.000Z</time>
      </trkpt>
      <trkpt lat="45.18139" lon="6.32071">
        <ele>1681.4000244141</ele>
        <time>2015-03-23T07:59:04.000Z</time>
      </trkpt>
      <trkpt lat="45.18137" lon="6.32072">
        <ele>1682</ele>
        <time>2015-03-23T07:59:06.000Z</time>
      </trkpt>
      <trkpt lat="45.18136" lon="6.32073">
        <ele>1682.5999755859</ele>
        <time>2015-03-23T07:59:08.000Z</time>
      </trkpt>
      <trkpt lat="45.18133" lon="6.32075">
        <ele>1683</ele>
        <time>2015-03-23T07:59:11.000Z</time>
      </trkpt>
      <trkpt lat="45.18131" lon="6.32079">
        <ele>1683.5999755859</ele>
        <time>2015-03-23T07:59:15.000Z</time>
      </trkpt>
      <trkpt lat="45.18129" lon="6.3208">
        <ele>1684.1999511719</ele>
        <time>2015-03-23T07:59:17.000Z</time>
      </trkpt>
      <trkpt lat="45.18127" lon="6.32085">
        <ele>1685.1999511719</ele>
        <time>2015-03-23T07:59:22.000Z</time>
      </trkpt>
      <trkpt lat="45.18127" lon="6.32086">
        <ele>1685.4000244141</ele>
        <time>2015-03-23T07:59:23.000Z</time>
      </trkpt>
      <trkpt lat="45.18126" lon="6.3209">
        <ele>1686.4000244141</ele>
        <time>2015-03-23T07:59:29.000Z</time>
      </trkpt>
      <trkpt lat="45.18126" lon="6.3209">
        <ele>1687.4000244141</ele>
        <time>2015-03-23T07:59:34.000Z</time>
      </trkpt>
      <trkpt lat="45.18126" lon="6.32092">
        <ele>1687.5999755859</ele>
        <time>2015-03-23T07:59:37.000Z</time>
      </trkpt>
      <trkpt lat="45.18125" lon="6.32097">
        <ele>1687.8000488281</ele>
        <time>2015-03-23T07:59:41.000Z</time>
      </trkpt>
      <trkpt lat="45.18125" lon="6.32103">
        <ele>1688.5999755859</ele>
        <time>2015-03-23T07:59:45.000Z</time>
      </trkpt>
      <trkpt lat="45.18124" lon="6.32105">
        <ele>1689</ele>
        <time>2015-03-23T07:59:46.000Z</time>
      </trkpt>
      <trkpt lat="45.18124" lon="6.32109">
        <ele>1689.8000488281</ele>
        <time>2015-03-23T07:59:49.000Z</time>
      </trkpt>
      <trkpt lat="45.18124" lon="6.3211">
        <ele>1690.1999511719</ele>
        <time>2015-03-23T07:59:51.000Z</time>
      </trkpt>
      <trkpt lat="45.18123" lon="6.32113">
        <ele>1690.8000488281</ele>
        <time>2015-03-23T07:59:54.000Z</time>
      </trkpt>
      <trkpt lat="45.1812" lon="6.32115">
        <ele>1691.5999755859</ele>
        <time>2015-03-23T07:59:57.000Z</time>
      </trkpt>
      <trkpt lat="45.18119" lon="6.32116">
        <ele>1691.8000488281</ele>
        <time>2015-03-23T07:59:58.000Z</time>
      </trkpt>
      <trkpt lat="45.18116" lon="6.32121">
        <ele>1693</ele>
        <time>2015-03-23T08:00:03.000Z</time>
      </trkpt>
      <trkpt lat="45.18116" lon="6.32123">
        <ele>1693.1999511719</ele>
        <time>2015-03-23T08:00:04.000Z</time>
      </trkpt>
      <trkpt lat="45.18115" lon="6.32128">
        <ele>1694.4000244141</ele>
        <time>2015-03-23T08:00:07.000Z</time>
      </trkpt>
      <trkpt lat="45.18114" lon="6.32131">
        <ele>1695.4000244141</ele>
        <time>2015-03-23T08:00:10.000Z</time>
      </trkpt>
      <trkpt lat="45.18114" lon="6.32133">
        <ele>1695.5999755859</ele>
        <time>2015-03-23T08:00:11.000Z</time>
      </trkpt>
      <trkpt lat="45.18114" lon="6.32139">
        <ele>1696.8000488281</ele>
        <time>2015-03-23T08:00:16.000Z</time>
      </trkpt>
      <trkpt lat="45.18116" lon="6.32144">
        <ele>1698</ele>
        <time>2015-03-23T08:00:20.000Z</time>
      </trkpt>
      <trkpt lat="45.18116" lon="6.32145">
        <ele>1698.1999511719</ele>
        <time>2015-03-23T08:00:21.000Z</time>
      </trkpt>
      <trkpt lat="45.18118" lon="6.32148">
        <ele>1699</ele>
        <time>2015-03-23T08:00:24.000Z</time>
      </trkpt>
      <trkpt lat="45.18119" lon="6.32151">
        <ele>1699.8000488281</ele>
        <time>2015-03-23T08:00:27.000Z</time>
      </trkpt>
      <trkpt lat="45.18119" lon="6.32152">
        <ele>1700.1999511719</ele>
        <time>2015-03-23T08:00:28.000Z</time>
      </trkpt>
      <trkpt lat="45.18119" lon="6.32155">
        <ele>1701.4000244141</ele>
        <time>2015-03-23T08:00:32.000Z</time>
      </trkpt>
      <trkpt lat="45.18119" lon="6.32157">
        <ele>1701.5999755859</ele>
        <time>2015-03-23T08:00:34.000Z</time>
      </trkpt>
      <trkpt lat="45.1812" lon="6.32161">
        <ele>1702.4000244141</ele>
        <time>2015-03-23T08:00:38.000Z</time>
      </trkpt>
      <trkpt lat="45.1812" lon="6.32163">
        <ele>1703</ele>
        <time>2015-03-23T08:00:41.000Z</time>
      </trkpt>
      <trkpt lat="45.18121" lon="6.32166">
        <ele>1703.4000244141</ele>
        <time>2015-03-23T08:00:43.000Z</time>
      </trkpt>
      <trkpt lat="45.18121" lon="6.3217">
        <ele>1704.1999511719</ele>
        <time>2015-03-23T08:00:47.000Z</time>
      </trkpt>
      <trkpt lat="45.18122" lon="6.32174">
        <ele>1704.4000244141</ele>
        <time>2015-03-23T08:00:50.000Z</time>
      </trkpt>
      <trkpt lat="45.18122" lon="6.32176">
        <ele>1704.5999755859</ele>
        <time>2015-03-23T08:00:52.000Z</time>
      </trkpt>
      <trkpt lat="45.18124" lon="6.32184">
        <ele>1705.4000244141</ele>
        <time>2015-03-23T08:00:59.000Z</time>
      </trkpt>
      <trkpt lat="45.18124" lon="6.32185">
        <ele>1705.5999755859</ele>
        <time>2015-03-23T08:01:00.000Z</time>
      </trkpt>
      <trkpt lat="45.18125" lon="6.3219">
        <ele>1706.8000488281</ele>
        <time>2015-03-23T08:01:05.000Z</time>
      </trkpt>
      <trkpt lat="45.18126" lon="6.32197">
        <ele>1707.8000488281</ele>
        <time>2015-03-23T08:01:09.000Z</time>
      </trkpt>
      <trkpt lat="45.18126" lon="6.32199">
        <ele>1708.1999511719</ele>
        <time>2015-03-23T08:01:11.000Z</time>
      </trkpt>
      <trkpt lat="45.18125" lon="6.32205">
        <ele>1709</ele>
        <time>2015-03-23T08:01:16.000Z</time>
      </trkpt>
      <trkpt lat="45.18125" lon="6.32206">
        <ele>1709.1999511719</ele>
        <time>2015-03-23T08:01:17.000Z</time>
      </trkpt>
      <trkpt lat="45.18124" lon="6.32207">
        <ele>1709.8000488281</ele>
        <time>2015-03-23T08:01:19.000Z</time>
      </trkpt>
      <trkpt lat="45.18124" lon="6.32208">
        <ele>1710</ele>
        <time>2015-03-23T08:01:20.000Z</time>
      </trkpt>
      <trkpt lat="45.1812" lon="6.32212">
        <ele>1710.5999755859</ele>
        <time>2015-03-23T08:01:24.000Z</time>
      </trkpt>
      <trkpt lat="45.18119" lon="6.32215">
        <ele>1711.1999511719</ele>
        <time>2015-03-23T08:01:27.000Z</time>
      </trkpt>
      <trkpt lat="45.18118" lon="6.32216">
        <ele>1711.5999755859</ele>
        <time>2015-03-23T08:01:29.000Z</time>
      </trkpt>
      <trkpt lat="45.18116" lon="6.32219">
        <ele>1712.4000244141</ele>
        <time>2015-03-23T08:01:33.000Z</time>
      </trkpt>
      <trkpt lat="45.18115" lon="6.32222">
        <ele>1713</ele>
        <time>2015-03-23T08:01:36.000Z</time>
      </trkpt>
      <trkpt lat="45.18115" lon="6.32224">
        <ele>1713.4000244141</ele>
        <time>2015-03-23T08:01:38.000Z</time>
      </trkpt>
      <trkpt lat="45.18115" lon="6.32229">
        <ele>1714.5999755859</ele>
        <time>2015-03-23T08:01:42.000Z</time>
      </trkpt>
      <trkpt lat="45.18116" lon="6.32233">
        <ele>1715.5999755859</ele>
        <time>2015-03-23T08:01:45.000Z</time>
      </trkpt>
      <trkpt lat="45.18116" lon="6.32239">
        <ele>1716.4000244141</ele>
        <time>2015-03-23T08:01:49.000Z</time>
      </trkpt>
      <trkpt lat="45.18116" lon="6.3224">
        <ele>1716.5999755859</ele>
        <time>2015-03-23T08:01:50.000Z</time>
      </trkpt>
      <trkpt lat="45.18118" lon="6.32246">
        <ele>1717.5999755859</ele>
        <time>2015-03-23T08:01:55.000Z</time>
      </trkpt>
      <trkpt lat="45.18121" lon="6.32249">
        <ele>1718.8000488281</ele>
        <time>2015-03-23T08:02:01.000Z</time>
      </trkpt>
      <trkpt lat="45.18124" lon="6.32253">
        <ele>1720</ele>
        <time>2015-03-23T08:02:06.000Z</time>
      </trkpt>
      <trkpt lat="45.18124" lon="6.32254">
        <ele>1720.1999511719</ele>
        <time>2015-03-23T08:02:07.000Z</time>
      </trkpt>
      <trkpt lat="45.18124" lon="6.32258">
        <ele>1721.1999511719</ele>
        <time>2015-03-23T08:02:11.000Z</time>
      </trkpt>
      <trkpt lat="45.18125" lon="6.32261">
        <ele>1721.4000244141</ele>
        <time>2015-03-23T08:02:13.000Z</time>
      </trkpt>
      <trkpt lat="45.18126" lon="6.32266">
        <ele>1722.1999511719</ele>
        <time>2015-03-23T08:02:18.000Z</time>
      </trkpt>
      <trkpt lat="45.18126" lon="6.32268">
        <ele>1722.5999755859</ele>
        <time>2015-03-23T08:02:20.000Z</time>
      </trkpt>
      <trkpt lat="45.18126" lon="6.32273">
        <ele>1723.4000244141</ele>
        <time>2015-03-23T08:02:24.000Z</time>
      </trkpt>
      <trkpt lat="45.18125" lon="6.32276">
        <ele>1723.8000488281</ele>
        <time>2015-03-23T08:02:26.000Z</time>
      </trkpt>
      <trkpt lat="45.18124" lon="6.32281">
        <ele>1724.4000244141</ele>
        <time>2015-03-23T08:02:30.000Z</time>
      </trkpt>
      <trkpt lat="45.18123" lon="6.32288">
        <ele>1725.1999511719</ele>
        <time>2015-03-23T08:02:35.000Z</time>
      </trkpt>
      <trkpt lat="45.18122" lon="6.32291">
        <ele>1725.5999755859</ele>
        <time>2015-03-23T08:02:37.000Z</time>
      </trkpt>
      <trkpt lat="45.18121" lon="6.32295">
        <ele>1725.8000488281</ele>
        <time>2015-03-23T08:02:41.000Z</time>
      </trkpt>
      <trkpt lat="45.18119" lon="6.32301">
        <ele>1726.5999755859</ele>
        <time>2015-03-23T08:02:47.000Z</time>
      </trkpt>
      <trkpt lat="45.18118" lon="6.32308">
        <ele>1727.8000488281</ele>
        <time>2015-03-23T08:02:53.000Z</time>
      </trkpt>
      <trkpt lat="45.18115" lon="6.32316">
        <ele>1728.5999755859</ele>
        <time>2015-03-23T08:03:00.000Z</time>
      </trkpt>
      <trkpt lat="45.18115" lon="6.32318">
        <ele>1728.8000488281</ele>
        <time>2015-03-23T08:03:01.000Z</time>
      </trkpt>
      <trkpt lat="45.18112" lon="6.32323">
        <ele>1729.8000488281</ele>
        <time>2015-03-23T08:03:05.000Z</time>
      </trkpt>
      <trkpt lat="45.18111" lon="6.32324">
        <ele>1730</ele>
        <time>2015-03-23T08:03:06.000Z</time>
      </trkpt>
      <trkpt lat="45.18108" lon="6.32327">
        <ele>1730.5999755859</ele>
        <time>2015-03-23T08:03:09.000Z</time>
      </trkpt>
      <trkpt lat="45.18106" lon="6.32329">
        <ele>1730.8000488281</ele>
        <time>2015-03-23T08:03:11.000Z</time>
      </trkpt>
      <trkpt lat="45.18105" lon="6.3233">
        <ele>1731</ele>
        <time>2015-03-23T08:03:12.000Z</time>
      </trkpt>
      <trkpt lat="45.181" lon="6.32335">
        <ele>1731.5999755859</ele>
        <time>2015-03-23T08:03:18.000Z</time>
      </trkpt>
      <trkpt lat="45.18096" lon="6.32339">
        <ele>1732</ele>
        <time>2015-03-23T08:03:22.000Z</time>
      </trkpt>
      <trkpt lat="45.18094" lon="6.32341">
        <ele>1732.1999511719</ele>
        <time>2015-03-23T08:03:24.000Z</time>
      </trkpt>
      <trkpt lat="45.1809" lon="6.32347">
        <ele>1733</ele>
        <time>2015-03-23T08:03:30.000Z</time>
      </trkpt>
      <trkpt lat="45.18089" lon="6.32348">
        <ele>1733.1999511719</ele>
        <time>2015-03-23T08:03:31.000Z</time>
      </trkpt>
      <trkpt lat="45.18085" lon="6.32356">
        <ele>1733.8000488281</ele>
        <time>2015-03-23T08:03:37.000Z</time>
      </trkpt>
      <trkpt lat="45.18083" lon="6.32358">
        <ele>1734.5999755859</ele>
        <time>2015-03-23T08:03:41.000Z</time>
      </trkpt>
      <trkpt lat="45.18082" lon="6.32359">
        <ele>1734.5999755859</ele>
        <time>2015-03-23T08:03:42.000Z</time>
      </trkpt>
      <trkpt lat="45.18077" lon="6.32364">
        <ele>1735.1999511719</ele>
        <time>2015-03-23T08:03:48.000Z</time>
      </trkpt>
      <trkpt lat="45.18076" lon="6.32366">
        <ele>1735.5999755859</ele>
        <time>2015-03-23T08:03:50.000Z</time>
      </trkpt>
      <trkpt lat="45.18073" lon="6.32368">
        <ele>1736.1999511719</ele>
        <time>2015-03-23T08:03:54.000Z</time>
      </trkpt>
      <trkpt lat="45.1807" lon="6.32371">
        <ele>1736.5999755859</ele>
        <time>2015-03-23T08:03:58.000Z</time>
      </trkpt>
      <trkpt lat="45.18069" lon="6.32372">
        <ele>1736.8000488281</ele>
        <time>2015-03-23T08:03:59.000Z</time>
      </trkpt>
      <trkpt lat="45.18067" lon="6.32377">
        <ele>1737.5999755859</ele>
        <time>2015-03-23T08:04:04.000Z</time>
      </trkpt>
      <trkpt lat="45.18066" lon="6.32379">
        <ele>1738</ele>
        <time>2015-03-23T08:04:06.000Z</time>
      </trkpt>
      <trkpt lat="45.18064" lon="6.32384">
        <ele>1738.8000488281</ele>
        <time>2015-03-23T08:04:10.000Z</time>
      </trkpt>
      <trkpt lat="45.18064" lon="6.32385">
        <ele>1739.1999511719</ele>
        <time>2015-03-23T08:04:12.000Z</time>
      </trkpt>
      <trkpt lat="45.18063" lon="6.32388">
        <ele>1739.8000488281</ele>
        <time>2015-03-23T08:04:15.000Z</time>
      </trkpt>
      <trkpt lat="45.18063" lon="6.32391">
        <ele>1740.4000244141</ele>
        <time>2015-03-23T08:04:18.000Z</time>
      </trkpt>
      <trkpt lat="45.18064" lon="6.32393">
        <ele>1740.8000488281</ele>
        <time>2015-03-23T08:04:20.000Z</time>
      </trkpt>
      <trkpt lat="45.18066" lon="6.32397">
        <ele>1741.8000488281</ele>
        <time>2015-03-23T08:04:25.000Z</time>
      </trkpt>
      <trkpt lat="45.18069" lon="6.32402">
        <ele>1742.8000488281</ele>
        <time>2015-03-23T08:04:30.000Z</time>
      </trkpt>
      <trkpt lat="45.1807" lon="6.32403">
        <ele>1743</ele>
        <time>2015-03-23T08:04:32.000Z</time>
      </trkpt>
      <trkpt lat="45.18072" lon="6.32407">
        <ele>1743.8000488281</ele>
        <time>2015-03-23T08:04:37.000Z</time>
      </trkpt>
      <trkpt lat="45.18073" lon="6.32409">
        <ele>1744.8000488281</ele>
        <time>2015-03-23T08:04:40.000Z</time>
      </trkpt>
      <trkpt lat="45.18077" lon="6.32416">
        <ele>1745.8000488281</ele>
        <time>2015-03-23T08:04:46.000Z</time>
      </trkpt>
      <trkpt lat="45.18078" lon="6.32417">
        <ele>1746</ele>
        <time>2015-03-23T08:04:48.000Z</time>
      </trkpt>
      <trkpt lat="45.1808" lon="6.32421">
        <ele>1746.8000488281</ele>
        <time>2015-03-23T08:04:52.000Z</time>
      </trkpt>
      <trkpt lat="45.1808" lon="6.32422">
        <ele>1747</ele>
        <time>2015-03-23T08:04:53.000Z</time>
      </trkpt>
      <trkpt lat="45.18082" lon="6.32427">
        <ele>1747.8000488281</ele>
        <time>2015-03-23T08:04:57.000Z</time>
      </trkpt>
      <trkpt lat="45.18083" lon="6.32431">
        <ele>1748.1999511719</ele>
        <time>2015-03-23T08:05:01.000Z</time>
      </trkpt>
      <trkpt lat="45.18084" lon="6.32433">
        <ele>1748.4000244141</ele>
        <time>2015-03-23T08:05:03.000Z</time>
      </trkpt>
      <trkpt lat="45.18083" lon="6.3244">
        <ele>1749.1999511719</ele>
        <time>2015-03-23T08:05:08.000Z</time>
      </trkpt>
      <trkpt lat="45.18083" lon="6.3244">
        <ele>1749.4000244141</ele>
        <time>2015-03-23T08:05:09.000Z</time>
      </trkpt>
      <trkpt lat="45.18083" lon="6.32443">
        <ele>1750.1999511719</ele>
        <time>2015-03-23T08:05:14.000Z</time>
      </trkpt>
      <trkpt lat="45.18083" lon="6.32445">
        <ele>1750.4000244141</ele>
        <time>2015-03-23T08:05:15.000Z</time>
      </trkpt>
      <trkpt lat="45.18085" lon="6.32449">
        <ele>1751.4000244141</ele>
        <time>2015-03-23T08:05:18.000Z</time>
      </trkpt>
      <trkpt lat="45.18085" lon="6.3245">
        <ele>1751.5999755859</ele>
        <time>2015-03-23T08:05:19.000Z</time>
      </trkpt>
      <trkpt lat="45.18086" lon="6.32454">
        <ele>1752.8000488281</ele>
        <time>2015-03-23T08:05:24.000Z</time>
      </trkpt>
      <trkpt lat="45.18087" lon="6.32455">
        <ele>1753</ele>
        <time>2015-03-23T08:05:25.000Z</time>
      </trkpt>
      <trkpt lat="45.18086" lon="6.32461">
        <ele>1753.8000488281</ele>
        <time>2015-03-23T08:05:30.000Z</time>
      </trkpt>
      <trkpt lat="45.18086" lon="6.32461">
        <ele>1754</ele>
        <time>2015-03-23T08:05:31.000Z</time>
      </trkpt>
      <trkpt lat="45.18083" lon="6.32463">
        <ele>1755</ele>
        <time>2015-03-23T08:05:35.000Z</time>
      </trkpt>
      <trkpt lat="45.18081" lon="6.32464">
        <ele>1755.5999755859</ele>
        <time>2015-03-23T08:05:37.000Z</time>
      </trkpt>
      <trkpt lat="45.18081" lon="6.32466">
        <ele>1756</ele>
        <time>2015-03-23T08:05:39.000Z</time>
      </trkpt>
      <trkpt lat="45.18079" lon="6.32469">
        <ele>1757</ele>
        <time>2015-03-23T08:05:43.000Z</time>
      </trkpt>
      <trkpt lat="45.18077" lon="6.32474">
        <ele>1758.1999511719</ele>
        <time>2015-03-23T08:05:49.000Z</time>
      </trkpt>
      <trkpt lat="45.18079" lon="6.32482">
        <ele>1759.4000244141</ele>
        <time>2015-03-23T08:05:55.000Z</time>
      </trkpt>
      <trkpt lat="45.18079" lon="6.32482">
        <ele>1759.5999755859</ele>
        <time>2015-03-23T08:05:56.000Z</time>
      </trkpt>
      <trkpt lat="45.18077" lon="6.32485">
        <ele>1760.5999755859</ele>
        <time>2015-03-23T08:06:00.000Z</time>
      </trkpt>
      <trkpt lat="45.18076" lon="6.32487">
        <ele>1761.1999511719</ele>
        <time>2015-03-23T08:06:02.000Z</time>
      </trkpt>
      <trkpt lat="45.18073" lon="6.3249">
        <ele>1762.1999511719</ele>
        <time>2015-03-23T08:06:05.000Z</time>
      </trkpt>
      <trkpt lat="45.1807" lon="6.32491">
        <ele>1762.8000488281</ele>
        <time>2015-03-23T08:06:09.000Z</time>
      </trkpt>
      <trkpt lat="45.18068" lon="6.32491">
        <ele>1763.1999511719</ele>
        <time>2015-03-23T08:06:11.000Z</time>
      </trkpt>
      <trkpt lat="45.18066" lon="6.32494">
        <ele>1763.8000488281</ele>
        <time>2015-03-23T08:06:15.000Z</time>
      </trkpt>
      <trkpt lat="45.18065" lon="6.32498">
        <ele>1764.4000244141</ele>
        <time>2015-03-23T08:06:19.000Z</time>
      </trkpt>
      <trkpt lat="45.18065" lon="6.325">
        <ele>1764.5999755859</ele>
        <time>2015-03-23T08:06:21.000Z</time>
      </trkpt>
      <trkpt lat="45.18064" lon="6.32502">
        <ele>1765.5999755859</ele>
        <time>2015-03-23T08:06:24.000Z</time>
      </trkpt>
      <trkpt lat="45.18064" lon="6.32502">
        <ele>1766.4000244141</ele>
        <time>2015-03-23T08:06:28.000Z</time>
      </trkpt>
      <trkpt lat="45.18064" lon="6.32502">
        <ele>1766.8000488281</ele>
        <time>2015-03-23T08:06:29.000Z</time>
      </trkpt>
      <trkpt lat="45.18062" lon="6.32505">
        <ele>1768</ele>
        <time>2015-03-23T08:06:33.000Z</time>
      </trkpt>
      <trkpt lat="45.18062" lon="6.32505">
        <ele>1768.1999511719</ele>
        <time>2015-03-23T08:06:34.000Z</time>
      </trkpt>
      <trkpt lat="45.18057" lon="6.32507">
        <ele>1768.8000488281</ele>
        <time>2015-03-23T08:06:39.000Z</time>
      </trkpt>
      <trkpt lat="45.18056" lon="6.32507">
        <ele>1769</ele>
        <time>2015-03-23T08:06:40.000Z</time>
      </trkpt>
      <trkpt lat="45.18053" lon="6.3251">
        <ele>1770</ele>
        <time>2015-03-23T08:06:45.000Z</time>
      </trkpt>
      <trkpt lat="45.18053" lon="6.3251">
        <ele>1770.1999511719</ele>
        <time>2015-03-23T08:06:46.000Z</time>
      </trkpt>
      <trkpt lat="45.18051" lon="6.32516">
        <ele>1770.8000488281</ele>
        <time>2015-03-23T08:06:51.000Z</time>
      </trkpt>
      <trkpt lat="45.18051" lon="6.32518">
        <ele>1771.5999755859</ele>
        <time>2015-03-23T08:06:53.000Z</time>
      </trkpt>
      <trkpt lat="45.18051" lon="6.32523">
        <ele>1772.4000244141</ele>
        <time>2015-03-23T08:06:57.000Z</time>
      </trkpt>
      <trkpt lat="45.1805" lon="6.32525">
        <ele>1772.8000488281</ele>
        <time>2015-03-23T08:06:59.000Z</time>
      </trkpt>
      <trkpt lat="45.1805" lon="6.32529">
        <ele>1773.5999755859</ele>
        <time>2015-03-23T08:07:03.000Z</time>
      </trkpt>
      <trkpt lat="45.18051" lon="6.32531">
        <ele>1774</ele>
        <time>2015-03-23T08:07:05.000Z</time>
      </trkpt>
      <trkpt lat="45.18052" lon="6.32536">
        <ele>1774.5999755859</ele>
        <time>2015-03-23T08:07:08.000Z</time>
      </trkpt>
      <trkpt lat="45.18053" lon="6.32539">
        <ele>1775</ele>
        <time>2015-03-23T08:07:11.000Z</time>
      </trkpt>
      <trkpt lat="45.18053" lon="6.32543">
        <ele>1775.5999755859</ele>
        <time>2015-03-23T08:07:14.000Z</time>
      </trkpt>
      <trkpt lat="45.18055" lon="6.32546">
        <ele>1776</ele>
        <time>2015-03-23T08:07:17.000Z</time>
      </trkpt>
      <trkpt lat="45.18055" lon="6.32549">
        <ele>1776.4000244141</ele>
        <time>2015-03-23T08:07:20.000Z</time>
      </trkpt>
      <trkpt lat="45.18056" lon="6.32553">
        <ele>1777.1999511719</ele>
        <time>2015-03-23T08:07:24.000Z</time>
      </trkpt>
      <trkpt lat="45.18056" lon="6.32555">
        <ele>1777.5999755859</ele>
        <time>2015-03-23T08:07:26.000Z</time>
      </trkpt>
      <trkpt lat="45.18056" lon="6.32556">
        <ele>1778.1999511719</ele>
        <time>2015-03-23T08:07:29.000Z</time>
      </trkpt>
      <trkpt lat="45.18057" lon="6.32559">
        <ele>1778.8000488281</ele>
        <time>2015-03-23T08:07:32.000Z</time>
      </trkpt>
      <trkpt lat="45.18057" lon="6.32561">
        <ele>1779.1999511719</ele>
        <time>2015-03-23T08:07:33.000Z</time>
      </trkpt>
      <trkpt lat="45.18059" lon="6.32565">
        <ele>1779.8000488281</ele>
        <time>2015-03-23T08:07:37.000Z</time>
      </trkpt>
      <trkpt lat="45.18062" lon="6.32571">
        <ele>1780.1999511719</ele>
        <time>2015-03-23T08:07:41.000Z</time>
      </trkpt>
      <trkpt lat="45.18063" lon="6.32574">
        <ele>1780.4000244141</ele>
        <time>2015-03-23T08:07:43.000Z</time>
      </trkpt>
      <trkpt lat="45.18063" lon="6.32579">
        <ele>1781.1999511719</ele>
        <time>2015-03-23T08:07:47.000Z</time>
      </trkpt>
      <trkpt lat="45.18064" lon="6.3258">
        <ele>1782</ele>
        <time>2015-03-23T08:07:49.000Z</time>
      </trkpt>
      <trkpt lat="45.18065" lon="6.32583">
        <ele>1782.4000244141</ele>
        <time>2015-03-23T08:07:51.000Z</time>
      </trkpt>
      <trkpt lat="45.18066" lon="6.32588">
        <ele>1783.4000244141</ele>
        <time>2015-03-23T08:07:55.000Z</time>
      </trkpt>
      <trkpt lat="45.18067" lon="6.32594">
        <ele>1784.4000244141</ele>
        <time>2015-03-23T08:08:01.000Z</time>
      </trkpt>
      <trkpt lat="45.18067" lon="6.32603">
        <ele>1785.5999755859</ele>
        <time>2015-03-23T08:08:08.000Z</time>
      </trkpt>
      <trkpt lat="45.18069" lon="6.32612">
        <ele>1786.4000244141</ele>
        <time>2015-03-23T08:08:15.000Z</time>
      </trkpt>
      <trkpt lat="45.1807" lon="6.32617">
        <ele>1786.5999755859</ele>
        <time>2015-03-23T08:08:19.000Z</time>
      </trkpt>
      <trkpt lat="45.1807" lon="6.32619">
        <ele>1786.5999755859</ele>
        <time>2015-03-23T08:08:21.000Z</time>
      </trkpt>
      <trkpt lat="45.1807" lon="6.32625">
        <ele>1787</ele>
        <time>2015-03-23T08:08:26.000Z</time>
      </trkpt>
      <trkpt lat="45.1807" lon="6.32629">
        <ele>1787.1999511719</ele>
        <time>2015-03-23T08:08:28.000Z</time>
      </trkpt>
      <trkpt lat="45.1807" lon="6.32634">
        <ele>1787.5999755859</ele>
        <time>2015-03-23T08:08:31.000Z</time>
      </trkpt>
      <trkpt lat="45.1807" lon="6.32635">
        <ele>1787.8000488281</ele>
        <time>2015-03-23T08:08:32.000Z</time>
      </trkpt>
      <trkpt lat="45.18069" lon="6.32642">
        <ele>1788.1999511719</ele>
        <time>2015-03-23T08:08:37.000Z</time>
      </trkpt>
      <trkpt lat="45.18068" lon="6.32645">
        <ele>1788.4000244141</ele>
        <time>2015-03-23T08:08:39.000Z</time>
      </trkpt>
      <trkpt lat="45.18067" lon="6.32648">
        <ele>1788.5999755859</ele>
        <time>2015-03-23T08:08:41.000Z</time>
      </trkpt>
      <trkpt lat="45.18066" lon="6.32654">
        <ele>1789.1999511719</ele>
        <time>2015-03-23T08:08:45.000Z</time>
      </trkpt>
      <trkpt lat="45.18063" lon="6.32661">
        <ele>1789.4000244141</ele>
        <time>2015-03-23T08:08:51.000Z</time>
      </trkpt>
      <trkpt lat="45.18063" lon="6.32665">
        <ele>1789.4000244141</ele>
        <time>2015-03-23T08:08:55.000Z</time>
      </trkpt>
      <trkpt lat="45.18062" lon="6.32669">
        <ele>1789.8000488281</ele>
        <time>2015-03-23T08:08:57.000Z</time>
      </trkpt>
      <trkpt lat="45.18061" lon="6.3267">
        <ele>1790</ele>
        <time>2015-03-23T08:08:58.000Z</time>
      </trkpt>
      <trkpt lat="45.1806" lon="6.32677">
        <ele>1790.8000488281</ele>
        <time>2015-03-23T08:09:04.000Z</time>
      </trkpt>
      <trkpt lat="45.18059" lon="6.32678">
        <ele>1791</ele>
        <time>2015-03-23T08:09:05.000Z</time>
      </trkpt>
      <trkpt lat="45.18056" lon="6.32684">
        <ele>1791.4000244141</ele>
        <time>2015-03-23T08:09:12.000Z</time>
      </trkpt>
      <trkpt lat="45.18054" lon="6.32688">
        <ele>1792</ele>
        <time>2015-03-23T08:09:17.000Z</time>
      </trkpt>
      <trkpt lat="45.18054" lon="6.32689">
        <ele>1792.1999511719</ele>
        <time>2015-03-23T08:09:18.000Z</time>
      </trkpt>
      <trkpt lat="45.18055" lon="6.32695">
        <ele>1793</ele>
        <time>2015-03-23T08:09:23.000Z</time>
      </trkpt>
      <trkpt lat="45.18055" lon="6.32696">
        <ele>1793.4000244141</ele>
        <time>2015-03-23T08:09:24.000Z</time>
      </trkpt>
      <trkpt lat="45.18055" lon="6.32699">
        <ele>1794</ele>
        <time>2015-03-23T08:09:27.000Z</time>
      </trkpt>
      <trkpt lat="45.18054" lon="6.327">
        <ele>1794.5999755859</ele>
        <time>2015-03-23T08:09:29.000Z</time>
      </trkpt>
      <trkpt lat="45.18054" lon="6.32703">
        <ele>1795.1999511719</ele>
        <time>2015-03-23T08:09:33.000Z</time>
      </trkpt>
      <trkpt lat="45.18053" lon="6.32706">
        <ele>1795.5999755859</ele>
        <time>2015-03-23T08:09:37.000Z</time>
      </trkpt>
      <trkpt lat="45.18053" lon="6.32713">
        <ele>1796.1999511719</ele>
        <time>2015-03-23T08:09:43.000Z</time>
      </trkpt>
      <trkpt lat="45.18053" lon="6.32714">
        <ele>1796.1999511719</ele>
        <time>2015-03-23T08:09:45.000Z</time>
      </trkpt>
      <trkpt lat="45.18054" lon="6.32719">
        <ele>1796.8000488281</ele>
        <time>2015-03-23T08:09:49.000Z</time>
      </trkpt>
      <trkpt lat="45.18055" lon="6.32727">
        <ele>1797.1999511719</ele>
        <time>2015-03-23T08:09:55.000Z</time>
      </trkpt>
      <trkpt lat="45.18055" lon="6.32728">
        <ele>1797.4000244141</ele>
        <time>2015-03-23T08:09:56.000Z</time>
      </trkpt>
      <trkpt lat="45.18057" lon="6.32735">
        <ele>1798</ele>
        <time>2015-03-23T08:10:01.000Z</time>
      </trkpt>
      <trkpt lat="45.18058" lon="6.32738">
        <ele>1798.4000244141</ele>
        <time>2015-03-23T08:10:04.000Z</time>
      </trkpt>
      <trkpt lat="45.18059" lon="6.32739">
        <ele>1798.8000488281</ele>
        <time>2015-03-23T08:10:07.000Z</time>
      </trkpt>
      <trkpt lat="45.18059" lon="6.3274">
        <ele>1799.1999511719</ele>
        <time>2015-03-23T08:10:13.000Z</time>
      </trkpt>
      <trkpt lat="45.18059" lon="6.3274">
        <ele>1799.4000244141</ele>
        <time>2015-03-23T08:10:14.000Z</time>
      </trkpt>
      <trkpt lat="45.1806" lon="6.32742">
        <ele>1799.5999755859</ele>
        <time>2015-03-23T08:10:15.000Z</time>
      </trkpt>
      <trkpt lat="45.18062" lon="6.32744">
        <ele>1800.1999511719</ele>
        <time>2015-03-23T08:10:19.000Z</time>
      </trkpt>
      <trkpt lat="45.18062" lon="6.32743">
        <ele>1800.8000488281</ele>
        <time>2015-03-23T08:10:21.000Z</time>
      </trkpt>
      <trkpt lat="45.18063" lon="6.32741">
        <ele>1801.4000244141</ele>
        <time>2015-03-23T08:10:25.000Z</time>
      </trkpt>
      <trkpt lat="45.18065" lon="6.32738">
        <ele>1801.8000488281</ele>
        <time>2015-03-23T08:10:29.000Z</time>
      </trkpt>
      <trkpt lat="45.18066" lon="6.32737">
        <ele>1802.5999755859</ele>
        <time>2015-03-23T08:10:31.000Z</time>
      </trkpt>
      <trkpt lat="45.18067" lon="6.32736">
        <ele>1802.4000244141</ele>
        <time>2015-03-23T08:10:38.000Z</time>
      </trkpt>
      <trkpt lat="45.18067" lon="6.32736">
        <ele>1802.8000488281</ele>
        <time>2015-03-23T08:10:42.000Z</time>
      </trkpt>
      <trkpt lat="45.18067" lon="6.32736">
        <ele>1803.8000488281</ele>
        <time>2015-03-23T08:10:46.000Z</time>
      </trkpt>
      <trkpt lat="45.18067" lon="6.32736">
        <ele>1804</ele>
        <time>2015-03-23T08:10:47.000Z</time>
      </trkpt>
      <trkpt lat="45.18067" lon="6.32737">
        <ele>1804.8000488281</ele>
        <time>2015-03-23T08:10:50.000Z</time>
      </trkpt>
      <trkpt lat="45.18069" lon="6.32744">
        <ele>1805.1999511719</ele>
        <time>2015-03-23T08:10:53.000Z</time>
      </trkpt>
      <trkpt lat="45.18072" lon="6.32752">
        <ele>1805.8000488281</ele>
        <time>2015-03-23T08:10:58.000Z</time>
      </trkpt>
      <trkpt lat="45.18072" lon="6.32753">
        <ele>1806.1999511719</ele>
        <time>2015-03-23T08:10:59.000Z</time>
      </trkpt>
      <trkpt lat="45.18075" lon="6.32761">
        <ele>1807.1999511719</ele>
        <time>2015-03-23T08:11:05.000Z</time>
      </trkpt>
      <trkpt lat="45.18078" lon="6.32768">
        <ele>1808.1999511719</ele>
        <time>2015-03-23T08:11:11.000Z</time>
      </trkpt>
      <trkpt lat="45.18078" lon="6.32769">
        <ele>1808.4000244141</ele>
        <time>2015-03-23T08:11:12.000Z</time>
      </trkpt>
      <trkpt lat="45.18079" lon="6.32771">
        <ele>1809.8000488281</ele>
        <time>2015-03-23T08:11:18.000Z</time>
      </trkpt>
      <trkpt lat="45.18079" lon="6.32771">
        <ele>1810.8000488281</ele>
        <time>2015-03-23T08:11:23.000Z</time>
      </trkpt>
      <trkpt lat="45.1808" lon="6.32773">
        <ele>1811</ele>
        <time>2015-03-23T08:11:24.000Z</time>
      </trkpt>
      <trkpt lat="45.18084" lon="6.32781">
        <ele>1812</ele>
        <time>2015-03-23T08:11:29.000Z</time>
      </trkpt>
      <trkpt lat="45.18087" lon="6.32787">
        <ele>1813</ele>
        <time>2015-03-23T08:11:34.000Z</time>
      </trkpt>
      <trkpt lat="45.18087" lon="6.32788">
        <ele>1813.1999511719</ele>
        <time>2015-03-23T08:11:35.000Z</time>
      </trkpt>
      <trkpt lat="45.18091" lon="6.32793">
        <ele>1814.1999511719</ele>
        <time>2015-03-23T08:11:40.000Z</time>
      </trkpt>
      <trkpt lat="45.18094" lon="6.32797">
        <ele>1815</ele>
        <time>2015-03-23T08:11:43.000Z</time>
      </trkpt>
      <trkpt lat="45.18094" lon="6.32798">
        <ele>1815.4000244141</ele>
        <time>2015-03-23T08:11:45.000Z</time>
      </trkpt>
      <trkpt lat="45.18095" lon="6.32801">
        <ele>1816</ele>
        <time>2015-03-23T08:11:49.000Z</time>
      </trkpt>
      <trkpt lat="45.18096" lon="6.32804">
        <ele>1816.4000244141</ele>
        <time>2015-03-23T08:11:51.000Z</time>
      </trkpt>
      <trkpt lat="45.18098" lon="6.32809">
        <ele>1817.4000244141</ele>
        <time>2015-03-23T08:11:55.000Z</time>
      </trkpt>
      <trkpt lat="45.18099" lon="6.32811">
        <ele>1817.5999755859</ele>
        <time>2015-03-23T08:11:56.000Z</time>
      </trkpt>
      <trkpt lat="45.18101" lon="6.32817">
        <ele>1818.4000244141</ele>
        <time>2015-03-23T08:12:00.000Z</time>
      </trkpt>
      <trkpt lat="45.18102" lon="6.3282">
        <ele>1818.8000488281</ele>
        <time>2015-03-23T08:12:02.000Z</time>
      </trkpt>
      <trkpt lat="45.18104" lon="6.32825">
        <ele>1820.1999511719</ele>
        <time>2015-03-23T08:12:06.000Z</time>
      </trkpt>
      <trkpt lat="45.18104" lon="6.32826">
        <ele>1820.4000244141</ele>
        <time>2015-03-23T08:12:07.000Z</time>
      </trkpt>
      <trkpt lat="45.18107" lon="6.32832">
        <ele>1821.1999511719</ele>
        <time>2015-03-23T08:12:12.000Z</time>
      </trkpt>
      <trkpt lat="45.18107" lon="6.32833">
        <ele>1821.4000244141</ele>
        <time>2015-03-23T08:12:13.000Z</time>
      </trkpt>
      <trkpt lat="45.18109" lon="6.32839">
        <ele>1822.4000244141</ele>
        <time>2015-03-23T08:12:19.000Z</time>
      </trkpt>
      <trkpt lat="45.18111" lon="6.32846">
        <ele>1823.4000244141</ele>
        <time>2015-03-23T08:12:25.000Z</time>
      </trkpt>
      <trkpt lat="45.18109" lon="6.3285">
        <ele>1824.5999755859</ele>
        <time>2015-03-23T08:12:30.000Z</time>
      </trkpt>
      <trkpt lat="45.18109" lon="6.3285">
        <ele>1825</ele>
        <time>2015-03-23T08:12:31.000Z</time>
      </trkpt>
      <trkpt lat="45.18104" lon="6.32852">
        <ele>1825.8000488281</ele>
        <time>2015-03-23T08:12:35.000Z</time>
      </trkpt>
      <trkpt lat="45.18102" lon="6.32853">
        <ele>1826.4000244141</ele>
        <time>2015-03-23T08:12:38.000Z</time>
      </trkpt>
      <trkpt lat="45.18101" lon="6.32852">
        <ele>1826.8000488281</ele>
        <time>2015-03-23T08:12:40.000Z</time>
      </trkpt>
      <trkpt lat="45.18101" lon="6.32852">
        <ele>1827.4000244141</ele>
        <time>2015-03-23T08:12:44.000Z</time>
      </trkpt>
      <trkpt lat="45.18101" lon="6.32852">
        <ele>1827.4000244141</ele>
        <time>2015-03-23T08:12:50.000Z</time>
      </trkpt>
      <trkpt lat="45.18101" lon="6.32852">
        <ele>1828</ele>
        <time>2015-03-23T08:12:52.000Z</time>
      </trkpt>
      <trkpt lat="45.18101" lon="6.32852">
        <ele>1828.4000244141</ele>
        <time>2015-03-23T08:13:01.000Z</time>
      </trkpt>
      <trkpt lat="45.181" lon="6.32853">
        <ele>1828.5999755859</ele>
        <time>2015-03-23T08:13:10.000Z</time>
      </trkpt>
      <trkpt lat="45.18095" lon="6.32855">
        <ele>1829.1999511719</ele>
        <time>2015-03-23T08:13:15.000Z</time>
      </trkpt>
      <trkpt lat="45.18093" lon="6.32856">
        <ele>1829.4000244141</ele>
        <time>2015-03-23T08:13:16.000Z</time>
      </trkpt>
      <trkpt lat="45.1809" lon="6.32858">
        <ele>1830.1999511719</ele>
        <time>2015-03-23T08:13:21.000Z</time>
      </trkpt>
      <trkpt lat="45.1809" lon="6.32859">
        <ele>1830.4000244141</ele>
        <time>2015-03-23T08:13:22.000Z</time>
      </trkpt>
      <trkpt lat="45.18086" lon="6.32864">
        <ele>1831.5999755859</ele>
        <time>2015-03-23T08:13:28.000Z</time>
      </trkpt>
      <trkpt lat="45.18084" lon="6.32866">
        <ele>1832.1999511719</ele>
        <time>2015-03-23T08:13:30.000Z</time>
      </trkpt>
      <trkpt lat="45.18082" lon="6.32869">
        <ele>1832.8000488281</ele>
        <time>2015-03-23T08:13:34.000Z</time>
      </trkpt>
      <trkpt lat="45.18079" lon="6.32871">
        <ele>1833.5999755859</ele>
        <time>2015-03-23T08:13:37.000Z</time>
      </trkpt>
      <trkpt lat="45.18078" lon="6.32871">
        <ele>1833.8000488281</ele>
        <time>2015-03-23T08:13:38.000Z</time>
      </trkpt>
      <trkpt lat="45.18074" lon="6.32873">
        <ele>1834.8000488281</ele>
        <time>2015-03-23T08:13:43.000Z</time>
      </trkpt>
      <trkpt lat="45.18073" lon="6.32874">
        <ele>1835</ele>
        <time>2015-03-23T08:13:44.000Z</time>
      </trkpt>
      <trkpt lat="45.1807" lon="6.32878">
        <ele>1836.1999511719</ele>
        <time>2015-03-23T08:13:49.000Z</time>
      </trkpt>
      <trkpt lat="45.18066" lon="6.32881">
        <ele>1837.1999511719</ele>
        <time>2015-03-23T08:13:55.000Z</time>
      </trkpt>
      <trkpt lat="45.18065" lon="6.32883">
        <ele>1837.8000488281</ele>
        <time>2015-03-23T08:13:58.000Z</time>
      </trkpt>
      <trkpt lat="45.18063" lon="6.32884">
        <ele>1838.5999755859</ele>
        <time>2015-03-23T08:14:00.000Z</time>
      </trkpt>
      <trkpt lat="45.1806" lon="6.32886">
        <ele>1839.5999755859</ele>
        <time>2015-03-23T08:14:04.000Z</time>
      </trkpt>
      <trkpt lat="45.1806" lon="6.32887">
        <ele>1839.8000488281</ele>
        <time>2015-03-23T08:14:05.000Z</time>
      </trkpt>
      <trkpt lat="45.18055" lon="6.32891">
        <ele>1840.8000488281</ele>
        <time>2015-03-23T08:14:10.000Z</time>
      </trkpt>
      <trkpt lat="45.18054" lon="6.32891">
        <ele>1841</ele>
        <time>2015-03-23T08:14:12.000Z</time>
      </trkpt>
      <trkpt lat="45.1805" lon="6.32892">
        <ele>1841.8000488281</ele>
        <time>2015-03-23T08:14:17.000Z</time>
      </trkpt>
      <trkpt lat="45.18049" lon="6.32893">
        <ele>1841.8000488281</ele>
        <time>2015-03-23T08:14:18.000Z</time>
      </trkpt>
      <trkpt lat="45.18045" lon="6.32895">
        <ele>1842.8000488281</ele>
        <time>2015-03-23T08:14:24.000Z</time>
      </trkpt>
      <trkpt lat="45.18043" lon="6.32896">
        <ele>1842.8000488281</ele>
        <time>2015-03-23T08:14:25.000Z</time>
      </trkpt>
      <trkpt lat="45.18039" lon="6.32897">
        <ele>1843.8000488281</ele>
        <time>2015-03-23T08:14:30.000Z</time>
      </trkpt>
      <trkpt lat="45.18039" lon="6.32897">
        <ele>1844</ele>
        <time>2015-03-23T08:14:31.000Z</time>
      </trkpt>
      <trkpt lat="45.18033" lon="6.329">
        <ele>1844.8000488281</ele>
        <time>2015-03-23T08:14:38.000Z</time>
      </trkpt>
      <trkpt lat="45.18031" lon="6.32901">
        <ele>1845</ele>
        <time>2015-03-23T08:14:41.000Z</time>
      </trkpt>
      <trkpt lat="45.18028" lon="6.32903">
        <ele>1845.5999755859</ele>
        <time>2015-03-23T08:14:46.000Z</time>
      </trkpt>
      <trkpt lat="45.18027" lon="6.32905">
        <ele>1846</ele>
        <time>2015-03-23T08:14:48.000Z</time>
      </trkpt>
      <trkpt lat="45.18024" lon="6.3291">
        <ele>1847.4000244141</ele>
        <time>2015-03-23T08:14:54.000Z</time>
      </trkpt>
      <trkpt lat="45.18024" lon="6.32911">
        <ele>1847.5999755859</ele>
        <time>2015-03-23T08:14:55.000Z</time>
      </trkpt>
      <trkpt lat="45.18022" lon="6.32913">
        <ele>1848.5999755859</ele>
        <time>2015-03-23T08:14:58.000Z</time>
      </trkpt>
      <trkpt lat="45.1802" lon="6.32916">
        <ele>1849.5999755859</ele>
        <time>2015-03-23T08:15:03.000Z</time>
      </trkpt>
      <trkpt lat="45.18019" lon="6.32917">
        <ele>1850</ele>
        <time>2015-03-23T08:15:04.000Z</time>
      </trkpt>
      <trkpt lat="45.18017" lon="6.3292">
        <ele>1851</ele>
        <time>2015-03-23T08:15:09.000Z</time>
      </trkpt>
      <trkpt lat="45.18015" lon="6.32924">
        <ele>1851.5999755859</ele>
        <time>2015-03-23T08:15:12.000Z</time>
      </trkpt>
      <trkpt lat="45.18014" lon="6.32927">
        <ele>1852</ele>
        <time>2015-03-23T08:15:15.000Z</time>
      </trkpt>
      <trkpt lat="45.18012" lon="6.32931">
        <ele>1852.5999755859</ele>
        <time>2015-03-23T08:15:19.000Z</time>
      </trkpt>
      <trkpt lat="45.1801" lon="6.32933">
        <ele>1853.1999511719</ele>
        <time>2015-03-23T08:15:22.000Z</time>
      </trkpt>
      <trkpt lat="45.18006" lon="6.32936">
        <ele>1854</ele>
        <time>2015-03-23T08:15:26.000Z</time>
      </trkpt>
      <trkpt lat="45.18004" lon="6.32938">
        <ele>1854.4000244141</ele>
        <time>2015-03-23T08:15:29.000Z</time>
      </trkpt>
      <trkpt lat="45.18002" lon="6.3294">
        <ele>1854.8000488281</ele>
        <time>2015-03-23T08:15:32.000Z</time>
      </trkpt>
      <trkpt lat="45.18" lon="6.32941">
        <ele>1855.4000244141</ele>
        <time>2015-03-23T08:15:34.000Z</time>
      </trkpt>
      <trkpt lat="45.17999" lon="6.32942">
        <ele>1856.4000244141</ele>
        <time>2015-03-23T08:15:38.000Z</time>
      </trkpt>
      <trkpt lat="45.17998" lon="6.32942">
        <ele>1856.5999755859</ele>
        <time>2015-03-23T08:15:39.000Z</time>
      </trkpt>
      <trkpt lat="45.17995" lon="6.32944">
        <ele>1857.5999755859</ele>
        <time>2015-03-23T08:15:44.000Z</time>
      </trkpt>
      <trkpt lat="45.1799" lon="6.32947">
        <ele>1858.4000244141</ele>
        <time>2015-03-23T08:15:50.000Z</time>
      </trkpt>
      <trkpt lat="45.17988" lon="6.32949">
        <ele>1858.8000488281</ele>
        <time>2015-03-23T08:15:52.000Z</time>
      </trkpt>
      <trkpt lat="45.17986" lon="6.32951">
        <ele>1859.4000244141</ele>
        <time>2015-03-23T08:15:56.000Z</time>
      </trkpt>
      <trkpt lat="45.17984" lon="6.32952">
        <ele>1859.8000488281</ele>
        <time>2015-03-23T08:15:58.000Z</time>
      </trkpt>
      <trkpt lat="45.17981" lon="6.32955">
        <ele>1860.4000244141</ele>
        <time>2015-03-23T08:16:02.000Z</time>
      </trkpt>
      <trkpt lat="45.17979" lon="6.32957">
        <ele>1860.8000488281</ele>
        <time>2015-03-23T08:16:05.000Z</time>
      </trkpt>
      <trkpt lat="45.17978" lon="6.32958">
        <ele>1861.4000244141</ele>
        <time>2015-03-23T08:16:08.000Z</time>
      </trkpt>
      <trkpt lat="45.17977" lon="6.3296">
        <ele>1862.1999511719</ele>
        <time>2015-03-23T08:16:10.000Z</time>
      </trkpt>
      <trkpt lat="45.17974" lon="6.32963">
        <ele>1863</ele>
        <time>2015-03-23T08:16:14.000Z</time>
      </trkpt>
      <trkpt lat="45.17974" lon="6.32964">
        <ele>1863.1999511719</ele>
        <time>2015-03-23T08:16:15.000Z</time>
      </trkpt>
      <trkpt lat="45.17969" lon="6.32968">
        <ele>1863.8000488281</ele>
        <time>2015-03-23T08:16:20.000Z</time>
      </trkpt>
      <trkpt lat="45.17966" lon="6.32971">
        <ele>1864.1999511719</ele>
        <time>2015-03-23T08:16:24.000Z</time>
      </trkpt>
      <trkpt lat="45.17965" lon="6.32972">
        <ele>1864.5999755859</ele>
        <time>2015-03-23T08:16:26.000Z</time>
      </trkpt>
      <trkpt lat="45.17965" lon="6.32972">
        <ele>1865</ele>
        <time>2015-03-23T08:16:31.000Z</time>
      </trkpt>
      <trkpt lat="45.1796" lon="6.32975">
        <ele>1865.4000244141</ele>
        <time>2015-03-23T08:16:35.000Z</time>
      </trkpt>
      <trkpt lat="45.17958" lon="6.32975">
        <ele>1865.4000244141</ele>
        <time>2015-03-23T08:16:37.000Z</time>
      </trkpt>
      <trkpt lat="45.17954" lon="6.32977">
        <ele>1865.8000488281</ele>
        <time>2015-03-23T08:16:42.000Z</time>
      </trkpt>
      <trkpt lat="45.17948" lon="6.32979">
        <ele>1866.1999511719</ele>
        <time>2015-03-23T08:16:47.000Z</time>
      </trkpt>
      <trkpt lat="45.17946" lon="6.32981">
        <ele>1866.4000244141</ele>
        <time>2015-03-23T08:16:50.000Z</time>
      </trkpt>
      <trkpt lat="45.17946" lon="6.32981">
        <ele>1866.8000488281</ele>
        <time>2015-03-23T08:16:52.000Z</time>
      </trkpt>
      <trkpt lat="45.17946" lon="6.32981">
        <ele>1867.1999511719</ele>
        <time>2015-03-23T08:17:03.000Z</time>
      </trkpt>
      <trkpt lat="45.17946" lon="6.32981">
        <ele>1867.4000244141</ele>
        <time>2015-03-23T08:17:14.000Z</time>
      </trkpt>
      <trkpt lat="45.17945" lon="6.32981">
        <ele>1867.4000244141</ele>
        <time>2015-03-23T08:17:15.000Z</time>
      </trkpt>
      <trkpt lat="45.17939" lon="6.3298">
        <ele>1867.4000244141</ele>
        <time>2015-03-23T08:17:19.000Z</time>
      </trkpt>
      <trkpt lat="45.17931" lon="6.32983">
        <ele>1867.8000488281</ele>
        <time>2015-03-23T08:17:26.000Z</time>
      </trkpt>
      <trkpt lat="45.17925" lon="6.32985">
        <ele>1868.4000244141</ele>
        <time>2015-03-23T08:17:32.000Z</time>
      </trkpt>
      <trkpt lat="45.17919" lon="6.32987">
        <ele>1869</ele>
        <time>2015-03-23T08:17:38.000Z</time>
      </trkpt>
      <trkpt lat="45.17913" lon="6.32989">
        <ele>1869.4000244141</ele>
        <time>2015-03-23T08:17:44.000Z</time>
      </trkpt>
      <trkpt lat="45.1791" lon="6.32991">
        <ele>1869.5999755859</ele>
        <time>2015-03-23T08:17:46.000Z</time>
      </trkpt>
      <trkpt lat="45.17907" lon="6.32991">
        <ele>1870.1999511719</ele>
        <time>2015-03-23T08:17:49.000Z</time>
      </trkpt>
      <trkpt lat="45.17904" lon="6.32991">
        <ele>1870.5999755859</ele>
        <time>2015-03-23T08:17:52.000Z</time>
      </trkpt>
      <trkpt lat="45.179" lon="6.32991">
        <ele>1871</ele>
        <time>2015-03-23T08:17:55.000Z</time>
      </trkpt>
      <trkpt lat="45.17895" lon="6.32991">
        <ele>1871.5999755859</ele>
        <time>2015-03-23T08:18:01.000Z</time>
      </trkpt>
      <trkpt lat="45.17889" lon="6.3299">
        <ele>1872.5999755859</ele>
        <time>2015-03-23T08:18:07.000Z</time>
      </trkpt>
      <trkpt lat="45.17888" lon="6.3299">
        <ele>1872.5999755859</ele>
        <time>2015-03-23T08:18:08.000Z</time>
      </trkpt>
      <trkpt lat="45.17884" lon="6.32991">
        <ele>1873.5999755859</ele>
        <time>2015-03-23T08:18:12.000Z</time>
      </trkpt>
      <trkpt lat="45.17882" lon="6.32991">
        <ele>1873.8000488281</ele>
        <time>2015-03-23T08:18:13.000Z</time>
      </trkpt>
      <trkpt lat="45.17876" lon="6.32992">
        <ele>1874.8000488281</ele>
        <time>2015-03-23T08:18:19.000Z</time>
      </trkpt>
      <trkpt lat="45.17873" lon="6.32993">
        <ele>1876</ele>
        <time>2015-03-23T08:18:24.000Z</time>
      </trkpt>
      <trkpt lat="45.17873" lon="6.32993">
        <ele>1876</ele>
        <time>2015-03-23T08:18:25.000Z</time>
      </trkpt>
      <trkpt lat="45.17868" lon="6.32995">
        <ele>1876.5999755859</ele>
        <time>2015-03-23T08:18:30.000Z</time>
      </trkpt>
      <trkpt lat="45.17864" lon="6.32996">
        <ele>1877</ele>
        <time>2015-03-23T08:18:35.000Z</time>
      </trkpt>
      <trkpt lat="45.17863" lon="6.32996">
        <ele>1877.4000244141</ele>
        <time>2015-03-23T08:18:37.000Z</time>
      </trkpt>
      <trkpt lat="45.17859" lon="6.32998">
        <ele>1878.1999511719</ele>
        <time>2015-03-23T08:18:41.000Z</time>
      </trkpt>
      <trkpt lat="45.17858" lon="6.32998">
        <ele>1878.5999755859</ele>
        <time>2015-03-23T08:18:43.000Z</time>
      </trkpt>
      <trkpt lat="45.17852" lon="6.32999">
        <ele>1879.1999511719</ele>
        <time>2015-03-23T08:18:48.000Z</time>
      </trkpt>
      <trkpt lat="45.17848" lon="6.32999">
        <ele>1880.1999511719</ele>
        <time>2015-03-23T08:18:53.000Z</time>
      </trkpt>
      <trkpt lat="45.17844" lon="6.32998">
        <ele>1881.1999511719</ele>
        <time>2015-03-23T08:18:57.000Z</time>
      </trkpt>
      <trkpt lat="45.17842" lon="6.32997">
        <ele>1881.8000488281</ele>
        <time>2015-03-23T08:19:00.000Z</time>
      </trkpt>
      <trkpt lat="45.17839" lon="6.32997">
        <ele>1882.4000244141</ele>
        <time>2015-03-23T08:19:04.000Z</time>
      </trkpt>
      <trkpt lat="45.17836" lon="6.32998">
        <ele>1882.8000488281</ele>
        <time>2015-03-23T08:19:07.000Z</time>
      </trkpt>
      <trkpt lat="45.17832" lon="6.32998">
        <ele>1883.5999755859</ele>
        <time>2015-03-23T08:19:11.000Z</time>
      </trkpt>
      <trkpt lat="45.17831" lon="6.32998">
        <ele>1884</ele>
        <time>2015-03-23T08:19:14.000Z</time>
      </trkpt>
      <trkpt lat="45.17827" lon="6.32998">
        <ele>1884.5999755859</ele>
        <time>2015-03-23T08:19:18.000Z</time>
      </trkpt>
      <trkpt lat="45.17825" lon="6.32998">
        <ele>1884.8000488281</ele>
        <time>2015-03-23T08:19:20.000Z</time>
      </trkpt>
      <trkpt lat="45.17821" lon="6.32999">
        <ele>1885.5999755859</ele>
        <time>2015-03-23T08:19:26.000Z</time>
      </trkpt>
      <trkpt lat="45.17819" lon="6.33">
        <ele>1885.8000488281</ele>
        <time>2015-03-23T08:19:27.000Z</time>
      </trkpt>
      <trkpt lat="45.17816" lon="6.33">
        <ele>1886.8000488281</ele>
        <time>2015-03-23T08:19:31.000Z</time>
      </trkpt>
      <trkpt lat="45.17813" lon="6.33001">
        <ele>1887.1999511719</ele>
        <time>2015-03-23T08:19:34.000Z</time>
      </trkpt>
      <trkpt lat="45.17812" lon="6.33002">
        <ele>1887.8000488281</ele>
        <time>2015-03-23T08:19:37.000Z</time>
      </trkpt>
      <trkpt lat="45.1781" lon="6.33002">
        <ele>1888.4000244141</ele>
        <time>2015-03-23T08:19:40.000Z</time>
      </trkpt>
      <trkpt lat="45.17808" lon="6.33002">
        <ele>1889</ele>
        <time>2015-03-23T08:19:42.000Z</time>
      </trkpt>
      <trkpt lat="45.17805" lon="6.33003">
        <ele>1889.4000244141</ele>
        <time>2015-03-23T08:19:46.000Z</time>
      </trkpt>
      <trkpt lat="45.178" lon="6.33005">
        <ele>1890.1999511719</ele>
        <time>2015-03-23T08:19:51.000Z</time>
      </trkpt>
      <trkpt lat="45.17798" lon="6.33005">
        <ele>1890.5999755859</ele>
        <time>2015-03-23T08:19:53.000Z</time>
      </trkpt>
      <trkpt lat="45.17796" lon="6.33007">
        <ele>1891.1999511719</ele>
        <time>2015-03-23T08:19:57.000Z</time>
      </trkpt>
      <trkpt lat="45.17794" lon="6.33008">
        <ele>1891.5999755859</ele>
        <time>2015-03-23T08:19:59.000Z</time>
      </trkpt>
      <trkpt lat="45.17788" lon="6.33011">
        <ele>1892.4000244141</ele>
        <time>2015-03-23T08:20:05.000Z</time>
      </trkpt>
      <trkpt lat="45.17784" lon="6.33013">
        <ele>1893.4000244141</ele>
        <time>2015-03-23T08:20:10.000Z</time>
      </trkpt>
      <trkpt lat="45.17784" lon="6.33013">
        <ele>1893.5999755859</ele>
        <time>2015-03-23T08:20:11.000Z</time>
      </trkpt>
      <trkpt lat="45.1778" lon="6.33016">
        <ele>1894.5999755859</ele>
        <time>2015-03-23T08:20:16.000Z</time>
      </trkpt>
      <trkpt lat="45.1778" lon="6.33016">
        <ele>1894.8000488281</ele>
        <time>2015-03-23T08:20:17.000Z</time>
      </trkpt>
      <trkpt lat="45.17777" lon="6.33018">
        <ele>1895.5999755859</ele>
        <time>2015-03-23T08:20:21.000Z</time>
      </trkpt>
      <trkpt lat="45.17775" lon="6.33019">
        <ele>1896</ele>
        <time>2015-03-23T08:20:23.000Z</time>
      </trkpt>
      <trkpt lat="45.17771" lon="6.3302">
        <ele>1896.5999755859</ele>
        <time>2015-03-23T08:20:27.000Z</time>
      </trkpt>
      <trkpt lat="45.17768" lon="6.33022">
        <ele>1897.4000244141</ele>
        <time>2015-03-23T08:20:31.000Z</time>
      </trkpt>
      <trkpt lat="45.17768" lon="6.33022">
        <ele>1897.5999755859</ele>
        <time>2015-03-23T08:20:32.000Z</time>
      </trkpt>
      <trkpt lat="45.17764" lon="6.33025">
        <ele>1898.5999755859</ele>
        <time>2015-03-23T08:20:36.000Z</time>
      </trkpt>
      <trkpt lat="45.17764" lon="6.33025">
        <ele>1898.8000488281</ele>
        <time>2015-03-23T08:20:37.000Z</time>
      </trkpt>
      <trkpt lat="45.1776" lon="6.33027">
        <ele>1899.8000488281</ele>
        <time>2015-03-23T08:20:43.000Z</time>
      </trkpt>
      <trkpt lat="45.1776" lon="6.33027">
        <ele>1900</ele>
        <time>2015-03-23T08:20:44.000Z</time>
      </trkpt>
      <trkpt lat="45.17756" lon="6.33029">
        <ele>1901</ele>
        <time>2015-03-23T08:20:48.000Z</time>
      </trkpt>
      <trkpt lat="45.17755" lon="6.33031">
        <ele>1901.4000244141</ele>
        <time>2015-03-23T08:20:50.000Z</time>
      </trkpt>
      <trkpt lat="45.17753" lon="6.33033">
        <ele>1902.1999511719</ele>
        <time>2015-03-23T08:20:54.000Z</time>
      </trkpt>
      <trkpt lat="45.17752" lon="6.33036">
        <ele>1903</ele>
        <time>2015-03-23T08:20:57.000Z</time>
      </trkpt>
      <trkpt lat="45.17752" lon="6.33038">
        <ele>1903.1999511719</ele>
        <time>2015-03-23T08:20:58.000Z</time>
      </trkpt>
      <trkpt lat="45.1775" lon="6.33044">
        <ele>1904</ele>
        <time>2015-03-23T08:21:02.000Z</time>
      </trkpt>
      <trkpt lat="45.1775" lon="6.33047">
        <ele>1904.4000244141</ele>
        <time>2015-03-23T08:21:05.000Z</time>
      </trkpt>
      <trkpt lat="45.17749" lon="6.33051">
        <ele>1904.4000244141</ele>
        <time>2015-03-23T08:21:08.000Z</time>
      </trkpt>
      <trkpt lat="45.17747" lon="6.33057">
        <ele>1905.4000244141</ele>
        <time>2015-03-23T08:21:14.000Z</time>
      </trkpt>
      <trkpt lat="45.17746" lon="6.3306">
        <ele>1906.4000244141</ele>
        <time>2015-03-23T08:21:19.000Z</time>
      </trkpt>
      <trkpt lat="45.17745" lon="6.33067">
        <ele>1907.1999511719</ele>
        <time>2015-03-23T08:21:23.000Z</time>
      </trkpt>
      <trkpt lat="45.17745" lon="6.33067">
        <ele>1907.4000244141</ele>
        <time>2015-03-23T08:21:24.000Z</time>
      </trkpt>
      <trkpt lat="45.17745" lon="6.33069">
        <ele>1907.5999755859</ele>
        <time>2015-03-23T08:21:25.000Z</time>
      </trkpt>
      <trkpt lat="45.17745" lon="6.33075">
        <ele>1908.8000488281</ele>
        <time>2015-03-23T08:21:30.000Z</time>
      </trkpt>
      <trkpt lat="45.17743" lon="6.33082">
        <ele>1909</ele>
        <time>2015-03-23T08:21:35.000Z</time>
      </trkpt>
      <trkpt lat="45.1774" lon="6.33087">
        <ele>1909.5999755859</ele>
        <time>2015-03-23T08:21:41.000Z</time>
      </trkpt>
      <trkpt lat="45.1774" lon="6.33087">
        <ele>1910.1999511719</ele>
        <time>2015-03-23T08:21:42.000Z</time>
      </trkpt>
      <trkpt lat="45.17737" lon="6.33091">
        <ele>1911</ele>
        <time>2015-03-23T08:21:47.000Z</time>
      </trkpt>
      <trkpt lat="45.17735" lon="6.33093">
        <ele>1911.1999511719</ele>
        <time>2015-03-23T08:21:49.000Z</time>
      </trkpt>
      <trkpt lat="45.17732" lon="6.33096">
        <ele>1911.5999755859</ele>
        <time>2015-03-23T08:21:53.000Z</time>
      </trkpt>
      <trkpt lat="45.17729" lon="6.33101">
        <ele>1912.4000244141</ele>
        <time>2015-03-23T08:21:58.000Z</time>
      </trkpt>
      <trkpt lat="45.17729" lon="6.33103">
        <ele>1912.5999755859</ele>
        <time>2015-03-23T08:21:59.000Z</time>
      </trkpt>
      <trkpt lat="45.17728" lon="6.33103">
        <ele>1913.5999755859</ele>
        <time>2015-03-23T08:22:04.000Z</time>
      </trkpt>
      <trkpt lat="45.17728" lon="6.33103">
        <ele>1913.5999755859</ele>
        <time>2015-03-23T08:22:05.000Z</time>
      </trkpt>
      <trkpt lat="45.17728" lon="6.33103">
        <ele>1913.5999755859</ele>
        <time>2015-03-23T08:22:28.000Z</time>
      </trkpt>
      <trkpt lat="45.17728" lon="6.33103">
        <ele>1913.4000244141</ele>
        <time>2015-03-23T08:22:52.000Z</time>
      </trkpt>
      <trkpt lat="45.17728" lon="6.33103">
        <ele>1913.5999755859</ele>
        <time>2015-03-23T08:23:15.000Z</time>
      </trkpt>
      <trkpt lat="45.17727" lon="6.33105">
        <ele>1913.4000244141</ele>
        <time>2015-03-23T08:23:25.000Z</time>
      </trkpt>
      <trkpt lat="45.17726" lon="6.33108">
        <ele>1913.4000244141</ele>
        <time>2015-03-23T08:23:26.000Z</time>
      </trkpt>
      <trkpt lat="45.17721" lon="6.33113">
        <ele>1913.8000488281</ele>
        <time>2015-03-23T08:23:31.000Z</time>
      </trkpt>
      <trkpt lat="45.17717" lon="6.33117">
        <ele>1914.5999755859</ele>
        <time>2015-03-23T08:23:35.000Z</time>
      </trkpt>
      <trkpt lat="45.17713" lon="6.33122">
        <ele>1915.1999511719</ele>
        <time>2015-03-23T08:23:39.000Z</time>
      </trkpt>
      <trkpt lat="45.17711" lon="6.33124">
        <ele>1915.5999755859</ele>
        <time>2015-03-23T08:23:41.000Z</time>
      </trkpt>
      <trkpt lat="45.17706" lon="6.33129">
        <ele>1916.4000244141</ele>
        <time>2015-03-23T08:23:46.000Z</time>
      </trkpt>
      <trkpt lat="45.17704" lon="6.33131">
        <ele>1916.8000488281</ele>
        <time>2015-03-23T08:23:48.000Z</time>
      </trkpt>
      <trkpt lat="45.17701" lon="6.33136">
        <ele>1917.4000244141</ele>
        <time>2015-03-23T08:23:52.000Z</time>
      </trkpt>
      <trkpt lat="45.17697" lon="6.33138">
        <ele>1918</ele>
        <time>2015-03-23T08:23:55.000Z</time>
      </trkpt>
      <trkpt lat="45.17694" lon="6.33141">
        <ele>1918.4000244141</ele>
        <time>2015-03-23T08:23:59.000Z</time>
      </trkpt>
      <trkpt lat="45.17689" lon="6.33146">
        <ele>1919</ele>
        <time>2015-03-23T08:24:04.000Z</time>
      </trkpt>
      <trkpt lat="45.17688" lon="6.33146">
        <ele>1919.1999511719</ele>
        <time>2015-03-23T08:24:05.000Z</time>
      </trkpt>
      <trkpt lat="45.17683" lon="6.33152">
        <ele>1919.5999755859</ele>
        <time>2015-03-23T08:24:11.000Z</time>
      </trkpt>
      <trkpt lat="45.1768" lon="6.33156">
        <ele>1920</ele>
        <time>2015-03-23T08:24:15.000Z</time>
      </trkpt>
      <trkpt lat="45.17677" lon="6.33159">
        <ele>1920.5999755859</ele>
        <time>2015-03-23T08:24:18.000Z</time>
      </trkpt>
      <trkpt lat="45.17671" lon="6.33164">
        <ele>1921.1999511719</ele>
        <time>2015-03-23T08:24:25.000Z</time>
      </trkpt>
      <trkpt lat="45.17667" lon="6.33165">
        <ele>1922.4000244141</ele>
        <time>2015-03-23T08:24:30.000Z</time>
      </trkpt>
      <trkpt lat="45.17665" lon="6.33165">
        <ele>1923</ele>
        <time>2015-03-23T08:24:31.000Z</time>
      </trkpt>
      <trkpt lat="45.17664" lon="6.33165">
        <ele>1923.4000244141</ele>
        <time>2015-03-23T08:24:33.000Z</time>
      </trkpt>
      <trkpt lat="45.17659" lon="6.33163">
        <ele>1924.5999755859</ele>
        <time>2015-03-23T08:24:38.000Z</time>
      </trkpt>
      <trkpt lat="45.17652" lon="6.33164">
        <ele>1925.8000488281</ele>
        <time>2015-03-23T08:24:44.000Z</time>
      </trkpt>
      <trkpt lat="45.17646" lon="6.33165">
        <ele>1927</ele>
        <time>2015-03-23T08:24:50.000Z</time>
      </trkpt>
      <trkpt lat="45.1764" lon="6.33166">
        <ele>1927.5999755859</ele>
        <time>2015-03-23T08:24:56.000Z</time>
      </trkpt>
      <trkpt lat="45.17637" lon="6.33168">
        <ele>1928</ele>
        <time>2015-03-23T08:25:00.000Z</time>
      </trkpt>
      <trkpt lat="45.17636" lon="6.33169">
        <ele>1928.5999755859</ele>
        <time>2015-03-23T08:25:02.000Z</time>
      </trkpt>
      <trkpt lat="45.17632" lon="6.33171">
        <ele>1928.8000488281</ele>
        <time>2015-03-23T08:25:07.000Z</time>
      </trkpt>
      <trkpt lat="45.17629" lon="6.33176">
        <ele>1929.1999511719</ele>
        <time>2015-03-23T08:25:11.000Z</time>
      </trkpt>
      <trkpt lat="45.17627" lon="6.33179">
        <ele>1929.4000244141</ele>
        <time>2015-03-23T08:25:13.000Z</time>
      </trkpt>
      <trkpt lat="45.17627" lon="6.3318">
        <ele>1930</ele>
        <time>2015-03-23T08:25:18.000Z</time>
      </trkpt>
      <trkpt lat="45.17627" lon="6.3318">
        <ele>1930.1999511719</ele>
        <time>2015-03-23T08:25:19.000Z</time>
      </trkpt>
      <trkpt lat="45.17626" lon="6.33185">
        <ele>1930.8000488281</ele>
        <time>2015-03-23T08:25:26.000Z</time>
      </trkpt>
      <trkpt lat="45.17625" lon="6.33186">
        <ele>1930.5999755859</ele>
        <time>2015-03-23T08:25:27.000Z</time>
      </trkpt>
      <trkpt lat="45.17623" lon="6.33198">
        <ele>1930.8000488281</ele>
        <time>2015-03-23T08:25:34.000Z</time>
      </trkpt>
      <trkpt lat="45.17621" lon="6.33208">
        <ele>1930.8000488281</ele>
        <time>2015-03-23T08:25:40.000Z</time>
      </trkpt>
      <trkpt lat="45.1762" lon="6.33219">
        <ele>1931.1999511719</ele>
        <time>2015-03-23T08:25:46.000Z</time>
      </trkpt>
      <trkpt lat="45.1762" lon="6.3322">
        <ele>1931.4000244141</ele>
        <time>2015-03-23T08:25:47.000Z</time>
      </trkpt>
      <trkpt lat="45.17618" lon="6.33231">
        <ele>1931.4000244141</ele>
        <time>2015-03-23T08:25:53.000Z</time>
      </trkpt>
      <trkpt lat="45.17617" lon="6.33237">
        <ele>1932.1999511719</ele>
        <time>2015-03-23T08:25:58.000Z</time>
      </trkpt>
      <trkpt lat="45.17617" lon="6.33239">
        <ele>1932.1999511719</ele>
        <time>2015-03-23T08:26:00.000Z</time>
      </trkpt>
      <trkpt lat="45.17617" lon="6.33239">
        <ele>1932.5999755859</ele>
        <time>2015-03-23T08:26:05.000Z</time>
      </trkpt>
      <trkpt lat="45.17617" lon="6.33239">
        <ele>1932.5999755859</ele>
        <time>2015-03-23T08:26:27.000Z</time>
      </trkpt>
      <trkpt lat="45.17615" lon="6.33245">
        <ele>1932.1999511719</ele>
        <time>2015-03-23T08:26:39.000Z</time>
      </trkpt>
      <trkpt lat="45.1761" lon="6.33257">
        <ele>1932</ele>
        <time>2015-03-23T08:26:45.000Z</time>
      </trkpt>
      <trkpt lat="45.17605" lon="6.33269">
        <ele>1931.8000488281</ele>
        <time>2015-03-23T08:26:52.000Z</time>
      </trkpt>
      <trkpt lat="45.176" lon="6.33281">
        <ele>1931.5999755859</ele>
        <time>2015-03-23T08:27:00.000Z</time>
      </trkpt>
      <trkpt lat="45.17596" lon="6.3329">
        <ele>1932</ele>
        <time>2015-03-23T08:27:06.000Z</time>
      </trkpt>
      <trkpt lat="45.17592" lon="6.33298">
        <ele>1932.4000244141</ele>
        <time>2015-03-23T08:27:12.000Z</time>
      </trkpt>
      <trkpt lat="45.17589" lon="6.33309">
        <ele>1932</ele>
        <time>2015-03-23T08:27:18.000Z</time>
      </trkpt>
      <trkpt lat="45.17585" lon="6.33321">
        <ele>1931.5999755859</ele>
        <time>2015-03-23T08:27:24.000Z</time>
      </trkpt>
      <trkpt lat="45.17581" lon="6.3333">
        <ele>1931.4000244141</ele>
        <time>2015-03-23T08:27:29.000Z</time>
      </trkpt>
      <trkpt lat="45.17577" lon="6.3334">
        <ele>1931.5999755859</ele>
        <time>2015-03-23T08:27:36.000Z</time>
      </trkpt>
      <trkpt lat="45.17572" lon="6.33348">
        <ele>1931.5999755859</ele>
        <time>2015-03-23T08:27:42.000Z</time>
      </trkpt>
      <trkpt lat="45.17568" lon="6.33357">
        <ele>1931.8000488281</ele>
        <time>2015-03-23T08:27:48.000Z</time>
      </trkpt>
      <trkpt lat="45.17564" lon="6.33366">
        <ele>1931.8000488281</ele>
        <time>2015-03-23T08:27:55.000Z</time>
      </trkpt>
      <trkpt lat="45.17558" lon="6.33373">
        <ele>1932.1999511719</ele>
        <time>2015-03-23T08:28:02.000Z</time>
      </trkpt>
      <trkpt lat="45.17554" lon="6.3338">
        <ele>1932.8000488281</ele>
        <time>2015-03-23T08:28:08.000Z</time>
      </trkpt>
      <trkpt lat="45.1755" lon="6.33387">
        <ele>1933.4000244141</ele>
        <time>2015-03-23T08:28:13.000Z</time>
      </trkpt>
      <trkpt lat="45.17546" lon="6.33396">
        <ele>1934.1999511719</ele>
        <time>2015-03-23T08:28:21.000Z</time>
      </trkpt>
      <trkpt lat="45.17546" lon="6.33396">
        <ele>1934.4000244141</ele>
        <time>2015-03-23T08:28:22.000Z</time>
      </trkpt>
      <trkpt lat="45.17541" lon="6.33403">
        <ele>1935.4000244141</ele>
        <time>2015-03-23T08:28:27.000Z</time>
      </trkpt>
      <trkpt lat="45.17541" lon="6.33403">
        <ele>1935.5999755859</ele>
        <time>2015-03-23T08:28:28.000Z</time>
      </trkpt>
      <trkpt lat="45.17538" lon="6.33409">
        <ele>1936.5999755859</ele>
        <time>2015-03-23T08:28:33.000Z</time>
      </trkpt>
      <trkpt lat="45.17536" lon="6.33412">
        <ele>1937.5999755859</ele>
        <time>2015-03-23T08:28:38.000Z</time>
      </trkpt>
      <trkpt lat="45.17535" lon="6.33414">
        <ele>1937.8000488281</ele>
        <time>2015-03-23T08:28:39.000Z</time>
      </trkpt>
      <trkpt lat="45.17533" lon="6.33423">
        <ele>1938.5999755859</ele>
        <time>2015-03-23T08:28:45.000Z</time>
      </trkpt>
      <trkpt lat="45.17529" lon="6.33429">
        <ele>1939.8000488281</ele>
        <time>2015-03-23T08:28:51.000Z</time>
      </trkpt>
      <trkpt lat="45.17529" lon="6.33428">
        <ele>1940</ele>
        <time>2015-03-23T08:28:52.000Z</time>
      </trkpt>
      <trkpt lat="45.17524" lon="6.33433">
        <ele>1940.8000488281</ele>
        <time>2015-03-23T08:28:56.000Z</time>
      </trkpt>
      <trkpt lat="45.17523" lon="6.33434">
        <ele>1941</ele>
        <time>2015-03-23T08:28:57.000Z</time>
      </trkpt>
      <trkpt lat="45.1752" lon="6.33437">
        <ele>1941.8000488281</ele>
        <time>2015-03-23T08:29:01.000Z</time>
      </trkpt>
      <trkpt lat="45.17518" lon="6.3344">
        <ele>1942.1999511719</ele>
        <time>2015-03-23T08:29:03.000Z</time>
      </trkpt>
      <trkpt lat="45.17514" lon="6.33444">
        <ele>1942.8000488281</ele>
        <time>2015-03-23T08:29:09.000Z</time>
      </trkpt>
      <trkpt lat="45.17512" lon="6.33445">
        <ele>1943.1999511719</ele>
        <time>2015-03-23T08:29:10.000Z</time>
      </trkpt>
      <trkpt lat="45.17509" lon="6.33449">
        <ele>1944</ele>
        <time>2015-03-23T08:29:15.000Z</time>
      </trkpt>
      <trkpt lat="45.17509" lon="6.33449">
        <ele>1944.1999511719</ele>
        <time>2015-03-23T08:29:17.000Z</time>
      </trkpt>
      <trkpt lat="45.17504" lon="6.33454">
        <ele>1945</ele>
        <time>2015-03-23T08:29:22.000Z</time>
      </trkpt>
      <trkpt lat="45.17499" lon="6.33459">
        <ele>1946</ele>
        <time>2015-03-23T08:29:28.000Z</time>
      </trkpt>
      <trkpt lat="45.17498" lon="6.33461">
        <ele>1946.1999511719</ele>
        <time>2015-03-23T08:29:30.000Z</time>
      </trkpt>
      <trkpt lat="45.17494" lon="6.33465">
        <ele>1946.5999755859</ele>
        <time>2015-03-23T08:29:34.000Z</time>
      </trkpt>
      <trkpt lat="45.17491" lon="6.33469">
        <ele>1947.1999511719</ele>
        <time>2015-03-23T08:29:38.000Z</time>
      </trkpt>
      <trkpt lat="45.17489" lon="6.33471">
        <ele>1947.5999755859</ele>
        <time>2015-03-23T08:29:41.000Z</time>
      </trkpt>
      <trkpt lat="45.17485" lon="6.33475">
        <ele>1948.4000244141</ele>
        <time>2015-03-23T08:29:46.000Z</time>
      </trkpt>
      <trkpt lat="45.17485" lon="6.33475">
        <ele>1948.5999755859</ele>
        <time>2015-03-23T08:29:47.000Z</time>
      </trkpt>
      <trkpt lat="45.17483" lon="6.33478">
        <ele>1949.4000244141</ele>
        <time>2015-03-23T08:29:53.000Z</time>
      </trkpt>
      <trkpt lat="45.17483" lon="6.33478">
        <ele>1949.4000244141</ele>
        <time>2015-03-23T08:29:55.000Z</time>
      </trkpt>
      <trkpt lat="45.17482" lon="6.33478">
        <ele>1949.5999755859</ele>
        <time>2015-03-23T08:30:02.000Z</time>
      </trkpt>
      <trkpt lat="45.17482" lon="6.33478">
        <ele>1949.5999755859</ele>
        <time>2015-03-23T08:30:11.000Z</time>
      </trkpt>
      <trkpt lat="45.17479" lon="6.3348">
        <ele>1949.5999755859</ele>
        <time>2015-03-23T08:30:15.000Z</time>
      </trkpt>
      <trkpt lat="45.17475" lon="6.33483">
        <ele>1950</ele>
        <time>2015-03-23T08:30:21.000Z</time>
      </trkpt>
      <trkpt lat="45.17473" lon="6.33487">
        <ele>1950.4000244141</ele>
        <time>2015-03-23T08:30:26.000Z</time>
      </trkpt>
      <trkpt lat="45.1747" lon="6.33491">
        <ele>1950.5999755859</ele>
        <time>2015-03-23T08:30:30.000Z</time>
      </trkpt>
      <trkpt lat="45.17464" lon="6.33494">
        <ele>1951.4000244141</ele>
        <time>2015-03-23T08:30:38.000Z</time>
      </trkpt>
      <trkpt lat="45.17464" lon="6.33494">
        <ele>1951.4000244141</ele>
        <time>2015-03-23T08:30:39.000Z</time>
      </trkpt>
      <trkpt lat="45.17461" lon="6.33499">
        <ele>1951.4000244141</ele>
        <time>2015-03-23T08:30:49.000Z</time>
      </trkpt>
      <trkpt lat="45.17454" lon="6.33506">
        <ele>1952</ele>
        <time>2015-03-23T08:30:57.000Z</time>
      </trkpt>
      <trkpt lat="45.17451" lon="6.33508">
        <ele>1952.5999755859</ele>
        <time>2015-03-23T08:31:00.000Z</time>
      </trkpt>
      <trkpt lat="45.17447" lon="6.33512">
        <ele>1953</ele>
        <time>2015-03-23T08:31:05.000Z</time>
      </trkpt>
      <trkpt lat="45.1744" lon="6.33519">
        <ele>1953.5999755859</ele>
        <time>2015-03-23T08:31:12.000Z</time>
      </trkpt>
      <trkpt lat="45.1744" lon="6.33521">
        <ele>1953.8000488281</ele>
        <time>2015-03-23T08:31:13.000Z</time>
      </trkpt>
      <trkpt lat="45.17434" lon="6.33527">
        <ele>1954.5999755859</ele>
        <time>2015-03-23T08:31:20.000Z</time>
      </trkpt>
      <trkpt lat="45.17432" lon="6.33529">
        <ele>1954.8000488281</ele>
        <time>2015-03-23T08:31:22.000Z</time>
      </trkpt>
      <trkpt lat="45.17428" lon="6.33534">
        <ele>1955.1999511719</ele>
        <time>2015-03-23T08:31:27.000Z</time>
      </trkpt>
      <trkpt lat="45.17422" lon="6.33546">
        <ele>1955.8000488281</ele>
        <time>2015-03-23T08:31:36.000Z</time>
      </trkpt>
      <trkpt lat="45.17416" lon="6.33559">
        <ele>1956.5999755859</ele>
        <time>2015-03-23T08:31:45.000Z</time>
      </trkpt>
      <trkpt lat="45.17409" lon="6.3357">
        <ele>1956.5999755859</ele>
        <time>2015-03-23T08:31:54.000Z</time>
      </trkpt>
      <trkpt lat="45.17404" lon="6.33581">
        <ele>1957</ele>
        <time>2015-03-23T08:32:01.000Z</time>
      </trkpt>
      <trkpt lat="45.17404" lon="6.33583">
        <ele>1957</ele>
        <time>2015-03-23T08:32:02.000Z</time>
      </trkpt>
      <trkpt lat="45.17398" lon="6.33595">
        <ele>1957.1999511719</ele>
        <time>2015-03-23T08:32:10.000Z</time>
      </trkpt>
      <trkpt lat="45.17395" lon="6.33604">
        <ele>1957.8000488281</ele>
        <time>2015-03-23T08:32:18.000Z</time>
      </trkpt>
      <trkpt lat="45.17392" lon="6.33611">
        <ele>1958</ele>
        <time>2015-03-23T08:32:23.000Z</time>
      </trkpt>
      <trkpt lat="45.17391" lon="6.33614">
        <ele>1958</ele>
        <time>2015-03-23T08:32:25.000Z</time>
      </trkpt>
      <trkpt lat="45.17386" lon="6.33624">
        <ele>1958.4000244141</ele>
        <time>2015-03-23T08:32:32.000Z</time>
      </trkpt>
      <trkpt lat="45.17384" lon="6.33628">
        <ele>1959</ele>
        <time>2015-03-23T08:32:36.000Z</time>
      </trkpt>
      <trkpt lat="45.1738" lon="6.33633">
        <ele>1959.5999755859</ele>
        <time>2015-03-23T08:32:41.000Z</time>
      </trkpt>
      <trkpt lat="45.17378" lon="6.33636">
        <ele>1960</ele>
        <time>2015-03-23T08:32:44.000Z</time>
      </trkpt>
      <trkpt lat="45.17375" lon="6.33641">
        <ele>1960.8000488281</ele>
        <time>2015-03-23T08:32:49.000Z</time>
      </trkpt>
      <trkpt lat="45.17374" lon="6.33642">
        <ele>1961.1999511719</ele>
        <time>2015-03-23T08:32:51.000Z</time>
      </trkpt>
      <trkpt lat="45.1737" lon="6.33647">
        <ele>1962.1999511719</ele>
        <time>2015-03-23T08:32:55.000Z</time>
      </trkpt>
      <trkpt lat="45.17369" lon="6.33648">
        <ele>1962.4000244141</ele>
        <time>2015-03-23T08:32:57.000Z</time>
      </trkpt>
      <trkpt lat="45.17364" lon="6.33652">
        <ele>1963.1999511719</ele>
        <time>2015-03-23T08:33:01.000Z</time>
      </trkpt>
      <trkpt lat="45.17361" lon="6.33653">
        <ele>1963.8000488281</ele>
        <time>2015-03-23T08:33:04.000Z</time>
      </trkpt>
      <trkpt lat="45.17358" lon="6.33657">
        <ele>1964.4000244141</ele>
        <time>2015-03-23T08:33:09.000Z</time>
      </trkpt>
      <trkpt lat="45.17357" lon="6.33658">
        <ele>1964.8000488281</ele>
        <time>2015-03-23T08:33:11.000Z</time>
      </trkpt>
      <trkpt lat="45.17351" lon="6.33663">
        <ele>1965.4000244141</ele>
        <time>2015-03-23T08:33:16.000Z</time>
      </trkpt>
      <trkpt lat="45.1735" lon="6.33664">
        <ele>1965.5999755859</ele>
        <time>2015-03-23T08:33:18.000Z</time>
      </trkpt>
      <trkpt lat="45.17348" lon="6.33665">
        <ele>1965.8000488281</ele>
        <time>2015-03-23T08:33:19.000Z</time>
      </trkpt>
      <trkpt lat="45.17344" lon="6.33669">
        <ele>1966.4000244141</ele>
        <time>2015-03-23T08:33:24.000Z</time>
      </trkpt>
      <trkpt lat="45.17343" lon="6.3367">
        <ele>1966.4000244141</ele>
        <time>2015-03-23T08:33:25.000Z</time>
      </trkpt>
      <trkpt lat="45.17336" lon="6.33677">
        <ele>1967</ele>
        <time>2015-03-23T08:33:33.000Z</time>
      </trkpt>
      <trkpt lat="45.17328" lon="6.33687">
        <ele>1967.1999511719</ele>
        <time>2015-03-23T08:33:42.000Z</time>
      </trkpt>
      <trkpt lat="45.1732" lon="6.33699">
        <ele>1967</ele>
        <time>2015-03-23T08:33:51.000Z</time>
      </trkpt>
      <trkpt lat="45.17311" lon="6.3371">
        <ele>1967</ele>
        <time>2015-03-23T08:33:59.000Z</time>
      </trkpt>
      <trkpt lat="45.173" lon="6.33716">
        <ele>1966.5999755859</ele>
        <time>2015-03-23T08:34:07.000Z</time>
      </trkpt>
      <trkpt lat="45.17293" lon="6.33718">
        <ele>1966.4000244141</ele>
        <time>2015-03-23T08:34:13.000Z</time>
      </trkpt>
      <trkpt lat="45.17283" lon="6.33721">
        <ele>1965.8000488281</ele>
        <time>2015-03-23T08:34:20.000Z</time>
      </trkpt>
      <trkpt lat="45.17272" lon="6.33725">
        <ele>1965.5999755859</ele>
        <time>2015-03-23T08:34:28.000Z</time>
      </trkpt>
      <trkpt lat="45.17271" lon="6.33725">
        <ele>1965.4000244141</ele>
        <time>2015-03-23T08:34:29.000Z</time>
      </trkpt>
      <trkpt lat="45.17261" lon="6.33728">
        <ele>1964.8000488281</ele>
        <time>2015-03-23T08:34:35.000Z</time>
      </trkpt>
      <trkpt lat="45.17254" lon="6.33734">
        <ele>1965.1999511719</ele>
        <time>2015-03-23T08:34:42.000Z</time>
      </trkpt>
      <trkpt lat="45.17246" lon="6.33738">
        <ele>1964.8000488281</ele>
        <time>2015-03-23T08:34:49.000Z</time>
      </trkpt>
      <trkpt lat="45.17238" lon="6.33744">
        <ele>1965</ele>
        <time>2015-03-23T08:34:57.000Z</time>
      </trkpt>
      <trkpt lat="45.17229" lon="6.33745">
        <ele>1965</ele>
        <time>2015-03-23T08:35:04.000Z</time>
      </trkpt>
      <trkpt lat="45.17223" lon="6.33744">
        <ele>1965.1999511719</ele>
        <time>2015-03-23T08:35:10.000Z</time>
      </trkpt>
      <trkpt lat="45.17214" lon="6.33742">
        <ele>1966</ele>
        <time>2015-03-23T08:35:18.000Z</time>
      </trkpt>
      <trkpt lat="45.17209" lon="6.33741">
        <ele>1966.5999755859</ele>
        <time>2015-03-23T08:35:22.000Z</time>
      </trkpt>
      <trkpt lat="45.17208" lon="6.33741">
        <ele>1966.8000488281</ele>
        <time>2015-03-23T08:35:23.000Z</time>
      </trkpt>
      <trkpt lat="45.17201" lon="6.33741">
        <ele>1967.4000244141</ele>
        <time>2015-03-23T08:35:30.000Z</time>
      </trkpt>
      <trkpt lat="45.17199" lon="6.33742">
        <ele>1967.5999755859</ele>
        <time>2015-03-23T08:35:32.000Z</time>
      </trkpt>
      <trkpt lat="45.17194" lon="6.33743">
        <ele>1968.5999755859</ele>
        <time>2015-03-23T08:35:37.000Z</time>
      </trkpt>
      <trkpt lat="45.17187" lon="6.33743">
        <ele>1969.1999511719</ele>
        <time>2015-03-23T08:35:43.000Z</time>
      </trkpt>
      <trkpt lat="45.17184" lon="6.33744">
        <ele>1969.5999755859</ele>
        <time>2015-03-23T08:35:46.000Z</time>
      </trkpt>
      <trkpt lat="45.17177" lon="6.33747">
        <ele>1970</ele>
        <time>2015-03-23T08:35:52.000Z</time>
      </trkpt>
      <trkpt lat="45.17168" lon="6.33751">
        <ele>1970.4000244141</ele>
        <time>2015-03-23T08:35:59.000Z</time>
      </trkpt>
      <trkpt lat="45.17162" lon="6.33754">
        <ele>1970.5999755859</ele>
        <time>2015-03-23T08:36:04.000Z</time>
      </trkpt>
      <trkpt lat="45.17158" lon="6.33757">
        <ele>1971.4000244141</ele>
        <time>2015-03-23T08:36:08.000Z</time>
      </trkpt>
      <trkpt lat="45.17156" lon="6.33759">
        <ele>1971.8000488281</ele>
        <time>2015-03-23T08:36:10.000Z</time>
      </trkpt>
      <trkpt lat="45.17152" lon="6.33763">
        <ele>1972.1999511719</ele>
        <time>2015-03-23T08:36:15.000Z</time>
      </trkpt>
      <trkpt lat="45.17143" lon="6.33769">
        <ele>1972</ele>
        <time>2015-03-23T08:36:22.000Z</time>
      </trkpt>
      <trkpt lat="45.17135" lon="6.33775">
        <ele>1971.8000488281</ele>
        <time>2015-03-23T08:36:29.000Z</time>
      </trkpt>
      <trkpt lat="45.17126" lon="6.33781">
        <ele>1972</ele>
        <time>2015-03-23T08:36:36.000Z</time>
      </trkpt>
      <trkpt lat="45.17117" lon="6.33783">
        <ele>1972.1999511719</ele>
        <time>2015-03-23T08:36:43.000Z</time>
      </trkpt>
      <trkpt lat="45.17107" lon="6.33782">
        <ele>1972.8000488281</ele>
        <time>2015-03-23T08:36:50.000Z</time>
      </trkpt>
      <trkpt lat="45.17099" lon="6.33781">
        <ele>1973.1999511719</ele>
        <time>2015-03-23T08:36:56.000Z</time>
      </trkpt>
      <trkpt lat="45.17093" lon="6.3378">
        <ele>1973.4000244141</ele>
        <time>2015-03-23T08:37:02.000Z</time>
      </trkpt>
      <trkpt lat="45.17088" lon="6.3378">
        <ele>1973.5999755859</ele>
        <time>2015-03-23T08:37:09.000Z</time>
      </trkpt>
      <trkpt lat="45.17087" lon="6.3378">
        <ele>1973.8000488281</ele>
        <time>2015-03-23T08:37:10.000Z</time>
      </trkpt>
      <trkpt lat="45.17082" lon="6.33783">
        <ele>1974</ele>
        <time>2015-03-23T08:37:17.000Z</time>
      </trkpt>
      <trkpt lat="45.17077" lon="6.33787">
        <ele>1973.5999755859</ele>
        <time>2015-03-23T08:37:24.000Z</time>
      </trkpt>
      <trkpt lat="45.1707" lon="6.33797">
        <ele>1972.8000488281</ele>
        <time>2015-03-23T08:37:31.000Z</time>
      </trkpt>
      <trkpt lat="45.17066" lon="6.33799">
        <ele>1972.1999511719</ele>
        <time>2015-03-23T08:37:33.000Z</time>
      </trkpt>
      <trkpt lat="45.17063" lon="6.33802">
        <ele>1971.5999755859</ele>
        <time>2015-03-23T08:37:36.000Z</time>
      </trkpt>
      <trkpt lat="45.17059" lon="6.33805">
        <ele>1971.4000244141</ele>
        <time>2015-03-23T08:37:39.000Z</time>
      </trkpt>
      <trkpt lat="45.1705" lon="6.3381">
        <ele>1971.1999511719</ele>
        <time>2015-03-23T08:37:46.000Z</time>
      </trkpt>
      <trkpt lat="45.17042" lon="6.33812">
        <ele>1971.1999511719</ele>
        <time>2015-03-23T08:37:52.000Z</time>
      </trkpt>
      <trkpt lat="45.17034" lon="6.33814">
        <ele>1970.8000488281</ele>
        <time>2015-03-23T08:37:58.000Z</time>
      </trkpt>
      <trkpt lat="45.17031" lon="6.33815">
        <ele>1970.8000488281</ele>
        <time>2015-03-23T08:38:00.000Z</time>
      </trkpt>
      <trkpt lat="45.17027" lon="6.33815">
        <ele>1970.5999755859</ele>
        <time>2015-03-23T08:38:04.000Z</time>
      </trkpt>
      <trkpt lat="45.17026" lon="6.33816">
        <ele>1970.5999755859</ele>
        <time>2015-03-23T08:38:07.000Z</time>
      </trkpt>
      <trkpt lat="45.17019" lon="6.33815">
        <ele>1970</ele>
        <time>2015-03-23T08:38:15.000Z</time>
      </trkpt>
      <trkpt lat="45.17019" lon="6.33815">
        <ele>1969.5999755859</ele>
        <time>2015-03-23T08:38:18.000Z</time>
      </trkpt>
      <trkpt lat="45.17019" lon="6.33815">
        <ele>1969.4000244141</ele>
        <time>2015-03-23T08:38:28.000Z</time>
      </trkpt>
      <trkpt lat="45.17019" lon="6.33815">
        <ele>1969.1999511719</ele>
        <time>2015-03-23T08:38:48.000Z</time>
      </trkpt>
      <trkpt lat="45.17019" lon="6.33815">
        <ele>1969.1999511719</ele>
        <time>2015-03-23T08:39:03.000Z</time>
      </trkpt>
      <trkpt lat="45.17019" lon="6.33815">
        <ele>1969.1999511719</ele>
        <time>2015-03-23T08:39:21.000Z</time>
      </trkpt>
      <trkpt lat="45.17019" lon="6.33815">
        <ele>1969.1999511719</ele>
        <time>2015-03-23T08:39:37.000Z</time>
      </trkpt>
      <trkpt lat="45.17019" lon="6.33815">
        <ele>1969.1999511719</ele>
        <time>2015-03-23T08:39:52.000Z</time>
      </trkpt>
      <trkpt lat="45.17019" lon="6.33815">
        <ele>1969.1999511719</ele>
        <time>2015-03-23T08:40:06.000Z</time>
      </trkpt>
      <trkpt lat="45.17019" lon="6.33815">
        <ele>1969.1999511719</ele>
        <time>2015-03-23T08:40:23.000Z</time>
      </trkpt>
      <trkpt lat="45.17019" lon="6.33815">
        <ele>1969.1999511719</ele>
        <time>2015-03-23T08:40:35.000Z</time>
      </trkpt>
      <trkpt lat="45.17018" lon="6.33815">
        <ele>1969.1999511719</ele>
        <time>2015-03-23T08:40:58.000Z</time>
      </trkpt>
      <trkpt lat="45.17018" lon="6.33815">
        <ele>1969.1999511719</ele>
        <time>2015-03-23T08:41:18.000Z</time>
      </trkpt>
      <trkpt lat="45.17019" lon="6.33815">
        <ele>1969</ele>
        <time>2015-03-23T08:41:38.000Z</time>
      </trkpt>
      <trkpt lat="45.17019" lon="6.33815">
        <ele>1969.1999511719</ele>
        <time>2015-03-23T08:41:55.000Z</time>
      </trkpt>
      <trkpt lat="45.17019" lon="6.33815">
        <ele>1969</ele>
        <time>2015-03-23T08:42:14.000Z</time>
      </trkpt>
      <trkpt lat="45.17019" lon="6.33814">
        <ele>1969</ele>
        <time>2015-03-23T08:42:29.000Z</time>
      </trkpt>
      <trkpt lat="45.17019" lon="6.33814">
        <ele>1969</ele>
        <time>2015-03-23T08:42:45.000Z</time>
      </trkpt>
      <trkpt lat="45.17019" lon="6.33814">
        <ele>1969</ele>
        <time>2015-03-23T08:43:01.000Z</time>
      </trkpt>
      <trkpt lat="45.17017" lon="6.33817">
        <ele>1969</ele>
        <time>2015-03-23T08:43:14.000Z</time>
      </trkpt>
      <trkpt lat="45.1701" lon="6.33821">
        <ele>1969</ele>
        <time>2015-03-23T08:43:20.000Z</time>
      </trkpt>
      <trkpt lat="45.17009" lon="6.33822">
        <ele>1969</ele>
        <time>2015-03-23T08:43:21.000Z</time>
      </trkpt>
      <trkpt lat="45.17" lon="6.33822">
        <ele>1969</ele>
        <time>2015-03-23T08:43:28.000Z</time>
      </trkpt>
      <trkpt lat="45.16993" lon="6.33821">
        <ele>1968.8000488281</ele>
        <time>2015-03-23T08:43:33.000Z</time>
      </trkpt>
      <trkpt lat="45.16985" lon="6.33818">
        <ele>1969</ele>
        <time>2015-03-23T08:43:39.000Z</time>
      </trkpt>
      <trkpt lat="45.16978" lon="6.33815">
        <ele>1969.4000244141</ele>
        <time>2015-03-23T08:43:46.000Z</time>
      </trkpt>
      <trkpt lat="45.16972" lon="6.33813">
        <ele>1969.4000244141</ele>
        <time>2015-03-23T08:43:53.000Z</time>
      </trkpt>
      <trkpt lat="45.16967" lon="6.33814">
        <ele>1970</ele>
        <time>2015-03-23T08:43:59.000Z</time>
      </trkpt>
      <trkpt lat="45.1696" lon="6.3381">
        <ele>1970.5999755859</ele>
        <time>2015-03-23T08:44:06.000Z</time>
      </trkpt>
      <trkpt lat="45.16959" lon="6.3381">
        <ele>1970.5999755859</ele>
        <time>2015-03-23T08:44:07.000Z</time>
      </trkpt>
      <trkpt lat="45.16952" lon="6.33807">
        <ele>1971.4000244141</ele>
        <time>2015-03-23T08:44:12.000Z</time>
      </trkpt>
      <trkpt lat="45.1695" lon="6.33807">
        <ele>1971.8000488281</ele>
        <time>2015-03-23T08:44:15.000Z</time>
      </trkpt>
      <trkpt lat="45.16948" lon="6.33806">
        <ele>1971.8000488281</ele>
        <time>2015-03-23T08:44:17.000Z</time>
      </trkpt>
      <trkpt lat="45.16941" lon="6.33805">
        <ele>1972.5999755859</ele>
        <time>2015-03-23T08:44:23.000Z</time>
      </trkpt>
      <trkpt lat="45.1694" lon="6.33805">
        <ele>1972.8000488281</ele>
        <time>2015-03-23T08:44:24.000Z</time>
      </trkpt>
      <trkpt lat="45.16934" lon="6.33805">
        <ele>1973.8000488281</ele>
        <time>2015-03-23T08:44:30.000Z</time>
      </trkpt>
      <trkpt lat="45.16933" lon="6.33805">
        <ele>1973.8000488281</ele>
        <time>2015-03-23T08:44:31.000Z</time>
      </trkpt>
      <trkpt lat="45.16927" lon="6.33804">
        <ele>1974.5999755859</ele>
        <time>2015-03-23T08:44:37.000Z</time>
      </trkpt>
      <trkpt lat="45.16925" lon="6.33804">
        <ele>1975</ele>
        <time>2015-03-23T08:44:39.000Z</time>
      </trkpt>
      <trkpt lat="45.16921" lon="6.33804">
        <ele>1975.5999755859</ele>
        <time>2015-03-23T08:44:43.000Z</time>
      </trkpt>
      <trkpt lat="45.16915" lon="6.33803">
        <ele>1975.8000488281</ele>
        <time>2015-03-23T08:44:48.000Z</time>
      </trkpt>
      <trkpt lat="45.16913" lon="6.33803">
        <ele>1976</ele>
        <time>2015-03-23T08:44:50.000Z</time>
      </trkpt>
      <trkpt lat="45.16908" lon="6.33802">
        <ele>1976.8000488281</ele>
        <time>2015-03-23T08:44:55.000Z</time>
      </trkpt>
      <trkpt lat="45.16907" lon="6.33802">
        <ele>1977.1999511719</ele>
        <time>2015-03-23T08:44:56.000Z</time>
      </trkpt>
      <trkpt lat="45.16902" lon="6.33802">
        <ele>1978.1999511719</ele>
        <time>2015-03-23T08:45:01.000Z</time>
      </trkpt>
      <trkpt lat="45.16901" lon="6.33802">
        <ele>1978.4000244141</ele>
        <time>2015-03-23T08:45:02.000Z</time>
      </trkpt>
      <trkpt lat="45.16901" lon="6.33802">
        <ele>1979.1999511719</ele>
        <time>2015-03-23T08:45:08.000Z</time>
      </trkpt>
      <trkpt lat="45.16898" lon="6.33803">
        <ele>1979</ele>
        <time>2015-03-23T08:45:15.000Z</time>
      </trkpt>
      <trkpt lat="45.16896" lon="6.33802">
        <ele>1979.4000244141</ele>
        <time>2015-03-23T08:45:23.000Z</time>
      </trkpt>
      <trkpt lat="45.16889" lon="6.33803">
        <ele>1979.4000244141</ele>
        <time>2015-03-23T08:45:29.000Z</time>
      </trkpt>
      <trkpt lat="45.16884" lon="6.33803">
        <ele>1979.8000488281</ele>
        <time>2015-03-23T08:45:34.000Z</time>
      </trkpt>
      <trkpt lat="45.1688" lon="6.33804">
        <ele>1980.1999511719</ele>
        <time>2015-03-23T08:45:40.000Z</time>
      </trkpt>
      <trkpt lat="45.1687" lon="6.33802">
        <ele>1980.8000488281</ele>
        <time>2015-03-23T08:45:47.000Z</time>
      </trkpt>
      <trkpt lat="45.16862" lon="6.33804">
        <ele>1981.1999511719</ele>
        <time>2015-03-23T08:45:53.000Z</time>
      </trkpt>
      <trkpt lat="45.16861" lon="6.33804">
        <ele>1981.4000244141</ele>
        <time>2015-03-23T08:45:54.000Z</time>
      </trkpt>
      <trkpt lat="45.16856" lon="6.33806">
        <ele>1982.1999511719</ele>
        <time>2015-03-23T08:45:59.000Z</time>
      </trkpt>
      <trkpt lat="45.16854" lon="6.33807">
        <ele>1982.4000244141</ele>
        <time>2015-03-23T08:46:01.000Z</time>
      </trkpt>
      <trkpt lat="45.1685" lon="6.33808">
        <ele>1982.8000488281</ele>
        <time>2015-03-23T08:46:05.000Z</time>
      </trkpt>
      <trkpt lat="45.16846" lon="6.3381">
        <ele>1983.5999755859</ele>
        <time>2015-03-23T08:46:09.000Z</time>
      </trkpt>
      <trkpt lat="45.16843" lon="6.33812">
        <ele>1983.8000488281</ele>
        <time>2015-03-23T08:46:12.000Z</time>
      </trkpt>
      <trkpt lat="45.16839" lon="6.33813">
        <ele>1984.5999755859</ele>
        <time>2015-03-23T08:46:16.000Z</time>
      </trkpt>
      <trkpt lat="45.16837" lon="6.33814">
        <ele>1984.5999755859</ele>
        <time>2015-03-23T08:46:18.000Z</time>
      </trkpt>
      <trkpt lat="45.16831" lon="6.33817">
        <ele>1985.1999511719</ele>
        <time>2015-03-23T08:46:24.000Z</time>
      </trkpt>
      <trkpt lat="45.16823" lon="6.33818">
        <ele>1985.5999755859</ele>
        <time>2015-03-23T08:46:30.000Z</time>
      </trkpt>
      <trkpt lat="45.16818" lon="6.33819">
        <ele>1986.5999755859</ele>
        <time>2015-03-23T08:46:36.000Z</time>
      </trkpt>
      <trkpt lat="45.16816" lon="6.3382">
        <ele>1986.5999755859</ele>
        <time>2015-03-23T08:46:37.000Z</time>
      </trkpt>
      <trkpt lat="45.16809" lon="6.3382">
        <ele>1987.1999511719</ele>
        <time>2015-03-23T08:46:42.000Z</time>
      </trkpt>
      <trkpt lat="45.16805" lon="6.33822">
        <ele>1987.5999755859</ele>
        <time>2015-03-23T08:46:47.000Z</time>
      </trkpt>
      <trkpt lat="45.16804" lon="6.33822">
        <ele>1987.8000488281</ele>
        <time>2015-03-23T08:46:48.000Z</time>
      </trkpt>
      <trkpt lat="45.16801" lon="6.33825">
        <ele>1988.1999511719</ele>
        <time>2015-03-23T08:46:54.000Z</time>
      </trkpt>
      <trkpt lat="45.16801" lon="6.33825">
        <ele>1989</ele>
        <time>2015-03-23T08:46:57.000Z</time>
      </trkpt>
      <trkpt lat="45.16799" lon="6.33827">
        <ele>1989.4000244141</ele>
        <time>2015-03-23T08:47:02.000Z</time>
      </trkpt>
      <trkpt lat="45.16793" lon="6.3383">
        <ele>1990.1999511719</ele>
        <time>2015-03-23T08:47:07.000Z</time>
      </trkpt>
      <trkpt lat="45.16793" lon="6.3383">
        <ele>1990.4000244141</ele>
        <time>2015-03-23T08:47:08.000Z</time>
      </trkpt>
      <trkpt lat="45.16789" lon="6.33831">
        <ele>1991.1999511719</ele>
        <time>2015-03-23T08:47:12.000Z</time>
      </trkpt>
      <trkpt lat="45.16786" lon="6.33832">
        <ele>1992.1999511719</ele>
        <time>2015-03-23T08:47:15.000Z</time>
      </trkpt>
      <trkpt lat="45.16785" lon="6.33833">
        <ele>1992.4000244141</ele>
        <time>2015-03-23T08:47:16.000Z</time>
      </trkpt>
      <trkpt lat="45.16782" lon="6.33834">
        <ele>1993.5999755859</ele>
        <time>2015-03-23T08:47:21.000Z</time>
      </trkpt>
      <trkpt lat="45.16781" lon="6.33834">
        <ele>1993.8000488281</ele>
        <time>2015-03-23T08:47:22.000Z</time>
      </trkpt>
      <trkpt lat="45.16776" lon="6.33836">
        <ele>1994.8000488281</ele>
        <time>2015-03-23T08:47:27.000Z</time>
      </trkpt>
      <trkpt lat="45.16775" lon="6.33836">
        <ele>1995</ele>
        <time>2015-03-23T08:47:28.000Z</time>
      </trkpt>
      <trkpt lat="45.1677" lon="6.33841">
        <ele>1995.8000488281</ele>
        <time>2015-03-23T08:47:34.000Z</time>
      </trkpt>
      <trkpt lat="45.16769" lon="6.33841">
        <ele>1996</ele>
        <time>2015-03-23T08:47:35.000Z</time>
      </trkpt>
      <trkpt lat="45.16765" lon="6.33844">
        <ele>1997.1999511719</ele>
        <time>2015-03-23T08:47:41.000Z</time>
      </trkpt>
      <trkpt lat="45.16765" lon="6.33844">
        <ele>1997.1999511719</ele>
        <time>2015-03-23T08:47:42.000Z</time>
      </trkpt>
      <trkpt lat="45.16762" lon="6.33847">
        <ele>1998.1999511719</ele>
        <time>2015-03-23T08:47:46.000Z</time>
      </trkpt>
      <trkpt lat="45.16759" lon="6.3385">
        <ele>1998.8000488281</ele>
        <time>2015-03-23T08:47:50.000Z</time>
      </trkpt>
      <trkpt lat="45.16756" lon="6.33851">
        <ele>1999.4000244141</ele>
        <time>2015-03-23T08:47:54.000Z</time>
      </trkpt>
      <trkpt lat="45.16752" lon="6.33854">
        <ele>2000.1999511719</ele>
        <time>2015-03-23T08:47:59.000Z</time>
      </trkpt>
      <trkpt lat="45.1675" lon="6.33856">
        <ele>2000.4000244141</ele>
        <time>2015-03-23T08:48:01.000Z</time>
      </trkpt>
      <trkpt lat="45.16745" lon="6.3386">
        <ele>2001.4000244141</ele>
        <time>2015-03-23T08:48:06.000Z</time>
      </trkpt>
      <trkpt lat="45.16744" lon="6.3386">
        <ele>2001.5999755859</ele>
        <time>2015-03-23T08:48:07.000Z</time>
      </trkpt>
      <trkpt lat="45.1674" lon="6.33863">
        <ele>2002.5999755859</ele>
        <time>2015-03-23T08:48:13.000Z</time>
      </trkpt>
      <trkpt lat="45.1674" lon="6.33863">
        <ele>2002.5999755859</ele>
        <time>2015-03-23T08:48:14.000Z</time>
      </trkpt>
      <trkpt lat="45.16734" lon="6.33866">
        <ele>2003.8000488281</ele>
        <time>2015-03-23T08:48:22.000Z</time>
      </trkpt>
      <trkpt lat="45.1673" lon="6.33868">
        <ele>2004.5999755859</ele>
        <time>2015-03-23T08:48:28.000Z</time>
      </trkpt>
      <trkpt lat="45.16729" lon="6.33869">
        <ele>2004.8000488281</ele>
        <time>2015-03-23T08:48:29.000Z</time>
      </trkpt>
      <trkpt lat="45.16726" lon="6.33872">
        <ele>2006</ele>
        <time>2015-03-23T08:48:34.000Z</time>
      </trkpt>
      <trkpt lat="45.16722" lon="6.33872">
        <ele>2007.1999511719</ele>
        <time>2015-03-23T08:48:38.000Z</time>
      </trkpt>
      <trkpt lat="45.1672" lon="6.33873">
        <ele>2007.5999755859</ele>
        <time>2015-03-23T08:48:40.000Z</time>
      </trkpt>
      <trkpt lat="45.16719" lon="6.33874">
        <ele>2008.1999511719</ele>
        <time>2015-03-23T08:48:42.000Z</time>
      </trkpt>
      <trkpt lat="45.16715" lon="6.33874">
        <ele>2009.1999511719</ele>
        <time>2015-03-23T08:48:47.000Z</time>
      </trkpt>
      <trkpt lat="45.16715" lon="6.33874">
        <ele>2009.4000244141</ele>
        <time>2015-03-23T08:48:48.000Z</time>
      </trkpt>
      <trkpt lat="45.16711" lon="6.33875">
        <ele>2010</ele>
        <time>2015-03-23T08:48:53.000Z</time>
      </trkpt>
      <trkpt lat="45.16707" lon="6.33876">
        <ele>2010.8000488281</ele>
        <time>2015-03-23T08:48:57.000Z</time>
      </trkpt>
      <trkpt lat="45.16705" lon="6.33876">
        <ele>2011.4000244141</ele>
        <time>2015-03-23T08:48:59.000Z</time>
      </trkpt>
      <trkpt lat="45.16704" lon="6.33877">
        <ele>2011.8000488281</ele>
        <time>2015-03-23T08:49:01.000Z</time>
      </trkpt>
      <trkpt lat="45.16701" lon="6.33878">
        <ele>2012.4000244141</ele>
        <time>2015-03-23T08:49:04.000Z</time>
      </trkpt>
      <trkpt lat="45.16697" lon="6.33878">
        <ele>2013</ele>
        <time>2015-03-23T08:49:09.000Z</time>
      </trkpt>
      <trkpt lat="45.16691" lon="6.33879">
        <ele>2014</ele>
        <time>2015-03-23T08:49:15.000Z</time>
      </trkpt>
      <trkpt lat="45.16687" lon="6.3388">
        <ele>2015</ele>
        <time>2015-03-23T08:49:20.000Z</time>
      </trkpt>
      <trkpt lat="45.16686" lon="6.3388">
        <ele>2015.4000244141</ele>
        <time>2015-03-23T08:49:21.000Z</time>
      </trkpt>
      <trkpt lat="45.16682" lon="6.33881">
        <ele>2016.1999511719</ele>
        <time>2015-03-23T08:49:26.000Z</time>
      </trkpt>
      <trkpt lat="45.1668" lon="6.33879">
        <ele>2016.5999755859</ele>
        <time>2015-03-23T08:49:29.000Z</time>
      </trkpt>
      <trkpt lat="45.16677" lon="6.33879">
        <ele>2017.4000244141</ele>
        <time>2015-03-23T08:49:33.000Z</time>
      </trkpt>
      <trkpt lat="45.16674" lon="6.33878">
        <ele>2018.1999511719</ele>
        <time>2015-03-23T08:49:36.000Z</time>
      </trkpt>
      <trkpt lat="45.16673" lon="6.33878">
        <ele>2018.4000244141</ele>
        <time>2015-03-23T08:49:38.000Z</time>
      </trkpt>
      <trkpt lat="45.16669" lon="6.33876">
        <ele>2019.4000244141</ele>
        <time>2015-03-23T08:49:42.000Z</time>
      </trkpt>
      <trkpt lat="45.16668" lon="6.33876">
        <ele>2019.5999755859</ele>
        <time>2015-03-23T08:49:43.000Z</time>
      </trkpt>
      <trkpt lat="45.16665" lon="6.33876">
        <ele>2020.5999755859</ele>
        <time>2015-03-23T08:49:47.000Z</time>
      </trkpt>
      <trkpt lat="45.16664" lon="6.33876">
        <ele>2020.8000488281</ele>
        <time>2015-03-23T08:49:49.000Z</time>
      </trkpt>
      <trkpt lat="45.1666" lon="6.33874">
        <ele>2021.5999755859</ele>
        <time>2015-03-23T08:49:53.000Z</time>
      </trkpt>
      <trkpt lat="45.16658" lon="6.33874">
        <ele>2022.1999511719</ele>
        <time>2015-03-23T08:49:56.000Z</time>
      </trkpt>
      <trkpt lat="45.16655" lon="6.33872">
        <ele>2022.5999755859</ele>
        <time>2015-03-23T08:49:59.000Z</time>
      </trkpt>
      <trkpt lat="45.16651" lon="6.3387">
        <ele>2023.4000244141</ele>
        <time>2015-03-23T08:50:04.000Z</time>
      </trkpt>
      <trkpt lat="45.1665" lon="6.33869">
        <ele>2023.5999755859</ele>
        <time>2015-03-23T08:50:05.000Z</time>
      </trkpt>
      <trkpt lat="45.16646" lon="6.33867">
        <ele>2024.5999755859</ele>
        <time>2015-03-23T08:50:10.000Z</time>
      </trkpt>
      <trkpt lat="45.16644" lon="6.33867">
        <ele>2025</ele>
        <time>2015-03-23T08:50:12.000Z</time>
      </trkpt>
      <trkpt lat="45.16641" lon="6.33865">
        <ele>2025.8000488281</ele>
        <time>2015-03-23T08:50:16.000Z</time>
      </trkpt>
      <trkpt lat="45.16637" lon="6.33865">
        <ele>2026.4000244141</ele>
        <time>2015-03-23T08:50:20.000Z</time>
      </trkpt>
      <trkpt lat="45.16635" lon="6.33865">
        <ele>2026.8000488281</ele>
        <time>2015-03-23T08:50:23.000Z</time>
      </trkpt>
      <trkpt lat="45.16631" lon="6.33864">
        <ele>2027.5999755859</ele>
        <time>2015-03-23T08:50:27.000Z</time>
      </trkpt>
      <trkpt lat="45.16629" lon="6.33863">
        <ele>2028</ele>
        <time>2015-03-23T08:50:30.000Z</time>
      </trkpt>
      <trkpt lat="45.16623" lon="6.33863">
        <ele>2029.1999511719</ele>
        <time>2015-03-23T08:50:35.000Z</time>
      </trkpt>
      <trkpt lat="45.16622" lon="6.33863">
        <ele>2029.1999511719</ele>
        <time>2015-03-23T08:50:36.000Z</time>
      </trkpt>
      <trkpt lat="45.16618" lon="6.33862">
        <ele>2030.1999511719</ele>
        <time>2015-03-23T08:50:41.000Z</time>
      </trkpt>
      <trkpt lat="45.16617" lon="6.33862">
        <ele>2030.4000244141</ele>
        <time>2015-03-23T08:50:43.000Z</time>
      </trkpt>
      <trkpt lat="45.16612" lon="6.33862">
        <ele>2031.1999511719</ele>
        <time>2015-03-23T08:50:48.000Z</time>
      </trkpt>
      <trkpt lat="45.16611" lon="6.33861">
        <ele>2031.4000244141</ele>
        <time>2015-03-23T08:50:49.000Z</time>
      </trkpt>
      <trkpt lat="45.16607" lon="6.3386">
        <ele>2032.1999511719</ele>
        <time>2015-03-23T08:50:55.000Z</time>
      </trkpt>
      <trkpt lat="45.16602" lon="6.3386">
        <ele>2033</ele>
        <time>2015-03-23T08:51:00.000Z</time>
      </trkpt>
      <trkpt lat="45.166" lon="6.3386">
        <ele>2033.4000244141</ele>
        <time>2015-03-23T08:51:02.000Z</time>
      </trkpt>
      <trkpt lat="45.16597" lon="6.33861">
        <ele>2033.8000488281</ele>
        <time>2015-03-23T08:51:06.000Z</time>
      </trkpt>
      <trkpt lat="45.16596" lon="6.33862">
        <ele>2034.4000244141</ele>
        <time>2015-03-23T08:51:09.000Z</time>
      </trkpt>
      <trkpt lat="45.16593" lon="6.33863">
        <ele>2035</ele>
        <time>2015-03-23T08:51:13.000Z</time>
      </trkpt>
      <trkpt lat="45.16587" lon="6.33864">
        <ele>2035.5999755859</ele>
        <time>2015-03-23T08:51:18.000Z</time>
      </trkpt>
      <trkpt lat="45.16586" lon="6.33864">
        <ele>2035.8000488281</ele>
        <time>2015-03-23T08:51:19.000Z</time>
      </trkpt>
      <trkpt lat="45.16583" lon="6.33863">
        <ele>2036.5999755859</ele>
        <time>2015-03-23T08:51:23.000Z</time>
      </trkpt>
      <trkpt lat="45.16581" lon="6.33863">
        <ele>2036.8000488281</ele>
        <time>2015-03-23T08:51:25.000Z</time>
      </trkpt>
      <trkpt lat="45.16573" lon="6.33865">
        <ele>2037.4000244141</ele>
        <time>2015-03-23T08:51:32.000Z</time>
      </trkpt>
      <trkpt lat="45.16571" lon="6.33866">
        <ele>2037.5999755859</ele>
        <time>2015-03-23T08:51:34.000Z</time>
      </trkpt>
      <trkpt lat="45.16567" lon="6.33867">
        <ele>2038</ele>
        <time>2015-03-23T08:51:38.000Z</time>
      </trkpt>
      <trkpt lat="45.16561" lon="6.33867">
        <ele>2038.5999755859</ele>
        <time>2015-03-23T08:51:44.000Z</time>
      </trkpt>
      <trkpt lat="45.16559" lon="6.33867">
        <ele>2038.8000488281</ele>
        <time>2015-03-23T08:51:45.000Z</time>
      </trkpt>
      <trkpt lat="45.16554" lon="6.33868">
        <ele>2039.8000488281</ele>
        <time>2015-03-23T08:51:51.000Z</time>
      </trkpt>
      <trkpt lat="45.16553" lon="6.33868">
        <ele>2040</ele>
        <time>2015-03-23T08:51:52.000Z</time>
      </trkpt>
      <trkpt lat="45.16548" lon="6.33868">
        <ele>2040.4000244141</ele>
        <time>2015-03-23T08:51:58.000Z</time>
      </trkpt>
      <trkpt lat="45.16543" lon="6.3387">
        <ele>2041</ele>
        <time>2015-03-23T08:52:03.000Z</time>
      </trkpt>
      <trkpt lat="45.16541" lon="6.33871">
        <ele>2041.1999511719</ele>
        <time>2015-03-23T08:52:05.000Z</time>
      </trkpt>
      <trkpt lat="45.16536" lon="6.33872">
        <ele>2042</ele>
        <time>2015-03-23T08:52:10.000Z</time>
      </trkpt>
      <trkpt lat="45.16534" lon="6.33872">
        <ele>2042.1999511719</ele>
        <time>2015-03-23T08:52:12.000Z</time>
      </trkpt>
      <trkpt lat="45.1653" lon="6.33873">
        <ele>2043</ele>
        <time>2015-03-23T08:52:17.000Z</time>
      </trkpt>
      <trkpt lat="45.16528" lon="6.33873">
        <ele>2043.4000244141</ele>
        <time>2015-03-23T08:52:19.000Z</time>
      </trkpt>
      <trkpt lat="45.16522" lon="6.33873">
        <ele>2044</ele>
        <time>2015-03-23T08:52:25.000Z</time>
      </trkpt>
      <trkpt lat="45.16521" lon="6.33873">
        <ele>2044.1999511719</ele>
        <time>2015-03-23T08:52:26.000Z</time>
      </trkpt>
      <trkpt lat="45.16516" lon="6.33873">
        <ele>2045.1999511719</ele>
        <time>2015-03-23T08:52:32.000Z</time>
      </trkpt>
      <trkpt lat="45.16514" lon="6.33873">
        <ele>2045.5999755859</ele>
        <time>2015-03-23T08:52:33.000Z</time>
      </trkpt>
      <trkpt lat="45.1651" lon="6.33873">
        <ele>2046.1999511719</ele>
        <time>2015-03-23T08:52:38.000Z</time>
      </trkpt>
      <trkpt lat="45.16508" lon="6.33872">
        <ele>2046.5999755859</ele>
        <time>2015-03-23T08:52:40.000Z</time>
      </trkpt>
      <trkpt lat="45.16504" lon="6.3387">
        <ele>2047.4000244141</ele>
        <time>2015-03-23T08:52:45.000Z</time>
      </trkpt>
      <trkpt lat="45.16502" lon="6.33869">
        <ele>2048</ele>
        <time>2015-03-23T08:52:48.000Z</time>
      </trkpt>
      <trkpt lat="45.165" lon="6.33868">
        <ele>2048.3999023438</ele>
        <time>2015-03-23T08:52:50.000Z</time>
      </trkpt>
      <trkpt lat="45.16497" lon="6.33868">
        <ele>2049.3999023438</ele>
        <time>2015-03-23T08:52:55.000Z</time>
      </trkpt>
      <trkpt lat="45.16496" lon="6.33867">
        <ele>2049.6000976562</ele>
        <time>2015-03-23T08:52:56.000Z</time>
      </trkpt>
      <trkpt lat="45.16493" lon="6.33865">
        <ele>2050.8000488281</ele>
        <time>2015-03-23T08:53:01.000Z</time>
      </trkpt>
      <trkpt lat="45.16491" lon="6.33865">
        <ele>2051</ele>
        <time>2015-03-23T08:53:03.000Z</time>
      </trkpt>
      <trkpt lat="45.16487" lon="6.33864">
        <ele>2051.8000488281</ele>
        <time>2015-03-23T08:53:07.000Z</time>
      </trkpt>
      <trkpt lat="45.16484" lon="6.33864">
        <ele>2052.6000976562</ele>
        <time>2015-03-23T08:53:11.000Z</time>
      </trkpt>
      <trkpt lat="45.16483" lon="6.33864">
        <ele>2052.8000488281</ele>
        <time>2015-03-23T08:53:12.000Z</time>
      </trkpt>
      <trkpt lat="45.16478" lon="6.33861">
        <ele>2053.6000976562</ele>
        <time>2015-03-23T08:53:18.000Z</time>
      </trkpt>
      <trkpt lat="45.16477" lon="6.33861">
        <ele>2053.8000488281</ele>
        <time>2015-03-23T08:53:19.000Z</time>
      </trkpt>
      <trkpt lat="45.16472" lon="6.33858">
        <ele>2055</ele>
        <time>2015-03-23T08:53:25.000Z</time>
      </trkpt>
      <trkpt lat="45.16466" lon="6.33858">
        <ele>2055.8000488281</ele>
        <time>2015-03-23T08:53:32.000Z</time>
      </trkpt>
      <trkpt lat="45.16462" lon="6.33857">
        <ele>2056.1999511719</ele>
        <time>2015-03-23T08:53:35.000Z</time>
      </trkpt>
      <trkpt lat="45.16459" lon="6.33855">
        <ele>2056.8000488281</ele>
        <time>2015-03-23T08:53:38.000Z</time>
      </trkpt>
      <trkpt lat="45.16458" lon="6.33854">
        <ele>2057.1999511719</ele>
        <time>2015-03-23T08:53:40.000Z</time>
      </trkpt>
      <trkpt lat="45.16455" lon="6.33852">
        <ele>2057.8000488281</ele>
        <time>2015-03-23T08:53:44.000Z</time>
      </trkpt>
      <trkpt lat="45.16453" lon="6.33849">
        <ele>2058.1999511719</ele>
        <time>2015-03-23T08:53:48.000Z</time>
      </trkpt>
      <trkpt lat="45.16452" lon="6.33848">
        <ele>2058.8000488281</ele>
        <time>2015-03-23T08:53:51.000Z</time>
      </trkpt>
      <trkpt lat="45.1645" lon="6.33846">
        <ele>2059.3999023438</ele>
        <time>2015-03-23T08:53:54.000Z</time>
      </trkpt>
      <trkpt lat="45.16448" lon="6.33845">
        <ele>2060.1999511719</ele>
        <time>2015-03-23T08:53:57.000Z</time>
      </trkpt>
      <trkpt lat="45.16446" lon="6.33843">
        <ele>2060.6000976562</ele>
        <time>2015-03-23T08:53:59.000Z</time>
      </trkpt>
      <trkpt lat="45.16443" lon="6.33841">
        <ele>2061.1999511719</ele>
        <time>2015-03-23T08:54:04.000Z</time>
      </trkpt>
      <trkpt lat="45.1644" lon="6.3384">
        <ele>2061.8000488281</ele>
        <time>2015-03-23T08:54:07.000Z</time>
      </trkpt>
      <trkpt lat="45.16438" lon="6.33839">
        <ele>2062.6000976562</ele>
        <time>2015-03-23T08:54:10.000Z</time>
      </trkpt>
      <trkpt lat="45.16436" lon="6.33839">
        <ele>2062.8000488281</ele>
        <time>2015-03-23T08:54:11.000Z</time>
      </trkpt>
      <trkpt lat="45.16434" lon="6.33838">
        <ele>2063.3999023438</ele>
        <time>2015-03-23T08:54:15.000Z</time>
      </trkpt>
      <trkpt lat="45.16432" lon="6.33837">
        <ele>2063.8000488281</ele>
        <time>2015-03-23T08:54:18.000Z</time>
      </trkpt>
      <trkpt lat="45.16429" lon="6.33835">
        <ele>2064.1999511719</ele>
        <time>2015-03-23T08:54:21.000Z</time>
      </trkpt>
      <trkpt lat="45.16423" lon="6.33834">
        <ele>2065</ele>
        <time>2015-03-23T08:54:26.000Z</time>
      </trkpt>
      <trkpt lat="45.16416" lon="6.33834">
        <ele>2066</ele>
        <time>2015-03-23T08:54:33.000Z</time>
      </trkpt>
      <trkpt lat="45.16413" lon="6.33831">
        <ele>2066.6000976562</ele>
        <time>2015-03-23T08:54:39.000Z</time>
      </trkpt>
      <trkpt lat="45.16407" lon="6.33828">
        <ele>2067</ele>
        <time>2015-03-23T08:54:45.000Z</time>
      </trkpt>
      <trkpt lat="45.16404" lon="6.3383">
        <ele>2067.1999511719</ele>
        <time>2015-03-23T08:54:49.000Z</time>
      </trkpt>
      <trkpt lat="45.16404" lon="6.3383">
        <ele>2067.3999023438</ele>
        <time>2015-03-23T08:54:51.000Z</time>
      </trkpt>
      <trkpt lat="45.16403" lon="6.33834">
        <ele>2068.1999511719</ele>
        <time>2015-03-23T08:54:56.000Z</time>
      </trkpt>
      <trkpt lat="45.16403" lon="6.33835">
        <ele>2068.6000976562</ele>
        <time>2015-03-23T08:54:57.000Z</time>
      </trkpt>
      <trkpt lat="45.16403" lon="6.33835">
        <ele>2069.1999511719</ele>
        <time>2015-03-23T08:55:02.000Z</time>
      </trkpt>
      <trkpt lat="45.16403" lon="6.33835">
        <ele>2069.1999511719</ele>
        <time>2015-03-23T08:55:05.000Z</time>
      </trkpt>
      <trkpt lat="45.16403" lon="6.33835">
        <ele>2069.1999511719</ele>
        <time>2015-03-23T08:55:15.000Z</time>
      </trkpt>
      <trkpt lat="45.16403" lon="6.33835">
        <ele>2069.1999511719</ele>
        <time>2015-03-23T08:55:29.000Z</time>
      </trkpt>
      <trkpt lat="45.16403" lon="6.33835">
        <ele>2069.1999511719</ele>
        <time>2015-03-23T08:55:48.000Z</time>
      </trkpt>
      <trkpt lat="45.16403" lon="6.33835">
        <ele>2069.3999023438</ele>
        <time>2015-03-23T08:55:55.000Z</time>
      </trkpt>
      <trkpt lat="45.16403" lon="6.33836">
        <ele>2069.8000488281</ele>
        <time>2015-03-23T08:56:03.000Z</time>
      </trkpt>
      <trkpt lat="45.16403" lon="6.33839">
        <ele>2070.3999023438</ele>
        <time>2015-03-23T08:56:07.000Z</time>
      </trkpt>
      <trkpt lat="45.16403" lon="6.3384">
        <ele>2070.6000976562</ele>
        <time>2015-03-23T08:56:08.000Z</time>
      </trkpt>
      <trkpt lat="45.16403" lon="6.3384">
        <ele>2071.6000976562</ele>
        <time>2015-03-23T08:56:10.000Z</time>
      </trkpt>
      <trkpt lat="45.16403" lon="6.33844">
        <ele>2072.1999511719</ele>
        <time>2015-03-23T08:56:14.000Z</time>
      </trkpt>
      <trkpt lat="45.16403" lon="6.33845">
        <ele>2072.8000488281</ele>
        <time>2015-03-23T08:56:16.000Z</time>
      </trkpt>
      <trkpt lat="45.16402" lon="6.33849">
        <ele>2073.8000488281</ele>
        <time>2015-03-23T08:56:20.000Z</time>
      </trkpt>
      <trkpt lat="45.16401" lon="6.3385">
        <ele>2074</ele>
        <time>2015-03-23T08:56:21.000Z</time>
      </trkpt>
      <trkpt lat="45.16397" lon="6.33858">
        <ele>2075</ele>
        <time>2015-03-23T08:56:26.000Z</time>
      </trkpt>
      <trkpt lat="45.16396" lon="6.33859">
        <ele>2075.1999511719</ele>
        <time>2015-03-23T08:56:27.000Z</time>
      </trkpt>
      <trkpt lat="45.16393" lon="6.33864">
        <ele>2076.3999023438</ele>
        <time>2015-03-23T08:56:32.000Z</time>
      </trkpt>
      <trkpt lat="45.1639" lon="6.33869">
        <ele>2077.3999023438</ele>
        <time>2015-03-23T08:56:35.000Z</time>
      </trkpt>
      <trkpt lat="45.16389" lon="6.33871">
        <ele>2077.3999023438</ele>
        <time>2015-03-23T08:56:36.000Z</time>
      </trkpt>
      <trkpt lat="45.1638" lon="6.33881">
        <ele>2076.8000488281</ele>
        <time>2015-03-23T08:56:43.000Z</time>
      </trkpt>
      <trkpt lat="45.16375" lon="6.33886">
        <ele>2077.3999023438</ele>
        <time>2015-03-23T08:56:50.000Z</time>
      </trkpt>
      <trkpt lat="45.16369" lon="6.33889">
        <ele>2078</ele>
        <time>2015-03-23T08:56:56.000Z</time>
      </trkpt>
      <trkpt lat="45.16368" lon="6.33891">
        <ele>2078.3999023438</ele>
        <time>2015-03-23T08:56:58.000Z</time>
      </trkpt>
      <trkpt lat="45.16367" lon="6.33892">
        <ele>2078.6000976562</ele>
        <time>2015-03-23T08:56:59.000Z</time>
      </trkpt>
      <trkpt lat="45.16363" lon="6.33895">
        <ele>2079.3999023438</ele>
        <time>2015-03-23T08:57:05.000Z</time>
      </trkpt>
      <trkpt lat="45.16362" lon="6.33896">
        <ele>2079.8000488281</ele>
        <time>2015-03-23T08:57:07.000Z</time>
      </trkpt>
      <trkpt lat="45.16359" lon="6.33897">
        <ele>2080</ele>
        <time>2015-03-23T08:57:10.000Z</time>
      </trkpt>
      <trkpt lat="45.16352" lon="6.33899">
        <ele>2080.6000976562</ele>
        <time>2015-03-23T08:57:17.000Z</time>
      </trkpt>
      <trkpt lat="45.16352" lon="6.339">
        <ele>2080.8000488281</ele>
        <time>2015-03-23T08:57:18.000Z</time>
      </trkpt>
      <trkpt lat="45.16351" lon="6.33901">
        <ele>2081.6000976562</ele>
        <time>2015-03-23T08:57:25.000Z</time>
      </trkpt>
      <trkpt lat="45.16348" lon="6.33903">
        <ele>2081.8000488281</ele>
        <time>2015-03-23T08:57:29.000Z</time>
      </trkpt>
      <trkpt lat="45.16347" lon="6.33905">
        <ele>2082</ele>
        <time>2015-03-23T08:57:31.000Z</time>
      </trkpt>
      <trkpt lat="45.16343" lon="6.33909">
        <ele>2082.8000488281</ele>
        <time>2015-03-23T08:57:37.000Z</time>
      </trkpt>
      <trkpt lat="45.1634" lon="6.3391">
        <ele>2083</ele>
        <time>2015-03-23T08:57:39.000Z</time>
      </trkpt>
      <trkpt lat="45.16335" lon="6.33914">
        <ele>2083.3999023438</ele>
        <time>2015-03-23T08:57:47.000Z</time>
      </trkpt>
      <trkpt lat="45.16329" lon="6.33918">
        <ele>2083.8000488281</ele>
        <time>2015-03-23T08:57:53.000Z</time>
      </trkpt>
      <trkpt lat="45.16328" lon="6.33919">
        <ele>2084</ele>
        <time>2015-03-23T08:57:55.000Z</time>
      </trkpt>
      <trkpt lat="45.16322" lon="6.3392">
        <ele>2084.6000976562</ele>
        <time>2015-03-23T08:58:02.000Z</time>
      </trkpt>
      <trkpt lat="45.1632" lon="6.3392">
        <ele>2085</ele>
        <time>2015-03-23T08:58:05.000Z</time>
      </trkpt>
      <trkpt lat="45.16318" lon="6.33921">
        <ele>2085.6000976562</ele>
        <time>2015-03-23T08:58:08.000Z</time>
      </trkpt>
      <trkpt lat="45.16315" lon="6.33922">
        <ele>2086.1999511719</ele>
        <time>2015-03-23T08:58:10.000Z</time>
      </trkpt>
      <trkpt lat="45.16312" lon="6.33924">
        <ele>2086.8000488281</ele>
        <time>2015-03-23T08:58:14.000Z</time>
      </trkpt>
      <trkpt lat="45.1631" lon="6.33926">
        <ele>2087.3999023438</ele>
        <time>2015-03-23T08:58:16.000Z</time>
      </trkpt>
      <trkpt lat="45.16306" lon="6.33929">
        <ele>2088.3999023438</ele>
        <time>2015-03-23T08:58:21.000Z</time>
      </trkpt>
      <trkpt lat="45.16303" lon="6.33931">
        <ele>2089.1999511719</ele>
        <time>2015-03-23T08:58:27.000Z</time>
      </trkpt>
      <trkpt lat="45.16301" lon="6.33932">
        <ele>2089.3999023438</ele>
        <time>2015-03-23T08:58:30.000Z</time>
      </trkpt>
      <trkpt lat="45.16299" lon="6.33934">
        <ele>2089.6000976562</ele>
        <time>2015-03-23T08:58:33.000Z</time>
      </trkpt>
      <trkpt lat="45.16293" lon="6.33937">
        <ele>2090.3999023438</ele>
        <time>2015-03-23T08:58:40.000Z</time>
      </trkpt>
      <trkpt lat="45.16292" lon="6.33937">
        <ele>2090.3999023438</ele>
        <time>2015-03-23T08:58:41.000Z</time>
      </trkpt>
      <trkpt lat="45.16285" lon="6.33941">
        <ele>2091</ele>
        <time>2015-03-23T08:58:47.000Z</time>
      </trkpt>
      <trkpt lat="45.16278" lon="6.33945">
        <ele>2091.6000976562</ele>
        <time>2015-03-23T08:58:54.000Z</time>
      </trkpt>
      <trkpt lat="45.16277" lon="6.33946">
        <ele>2091.6000976562</ele>
        <time>2015-03-23T08:58:55.000Z</time>
      </trkpt>
      <trkpt lat="45.1627" lon="6.33952">
        <ele>2092</ele>
        <time>2015-03-23T08:59:02.000Z</time>
      </trkpt>
      <trkpt lat="45.16264" lon="6.33956">
        <ele>2092.3999023438</ele>
        <time>2015-03-23T08:59:09.000Z</time>
      </trkpt>
      <trkpt lat="45.16259" lon="6.33959">
        <ele>2092.6000976562</ele>
        <time>2015-03-23T08:59:14.000Z</time>
      </trkpt>
      <trkpt lat="45.16257" lon="6.33961">
        <ele>2092.8000488281</ele>
        <time>2015-03-23T08:59:16.000Z</time>
      </trkpt>
      <trkpt lat="45.16253" lon="6.33965">
        <ele>2093.3999023438</ele>
        <time>2015-03-23T08:59:22.000Z</time>
      </trkpt>
      <trkpt lat="45.16252" lon="6.33966">
        <ele>2093.6000976562</ele>
        <time>2015-03-23T08:59:23.000Z</time>
      </trkpt>
      <trkpt lat="45.16247" lon="6.33969">
        <ele>2094.3999023438</ele>
        <time>2015-03-23T08:59:28.000Z</time>
      </trkpt>
      <trkpt lat="45.16245" lon="6.33971">
        <ele>2094.6000976562</ele>
        <time>2015-03-23T08:59:31.000Z</time>
      </trkpt>
      <trkpt lat="45.1624" lon="6.33973">
        <ele>2095</ele>
        <time>2015-03-23T08:59:35.000Z</time>
      </trkpt>
      <trkpt lat="45.16234" lon="6.33975">
        <ele>2095.8000488281</ele>
        <time>2015-03-23T08:59:40.000Z</time>
      </trkpt>
      <trkpt lat="45.16234" lon="6.33976">
        <ele>2096.1999511719</ele>
        <time>2015-03-23T08:59:42.000Z</time>
      </trkpt>
      <trkpt lat="45.16227" lon="6.33979">
        <ele>2096.6000976562</ele>
        <time>2015-03-23T08:59:49.000Z</time>
      </trkpt>
      <trkpt lat="45.16226" lon="6.3398">
        <ele>2096.8000488281</ele>
        <time>2015-03-23T08:59:50.000Z</time>
      </trkpt>
      <trkpt lat="45.16221" lon="6.33983">
        <ele>2097.3999023438</ele>
        <time>2015-03-23T08:59:56.000Z</time>
      </trkpt>
      <trkpt lat="45.16216" lon="6.33986">
        <ele>2097.8000488281</ele>
        <time>2015-03-23T09:00:00.000Z</time>
      </trkpt>
      <trkpt lat="45.16215" lon="6.33986">
        <ele>2098</ele>
        <time>2015-03-23T09:00:02.000Z</time>
      </trkpt>
      <trkpt lat="45.16206" lon="6.33989">
        <ele>2099</ele>
        <time>2015-03-23T09:00:09.000Z</time>
      </trkpt>
      <trkpt lat="45.162" lon="6.33992">
        <ele>2100</ele>
        <time>2015-03-23T09:00:17.000Z</time>
      </trkpt>
      <trkpt lat="45.16198" lon="6.33994">
        <ele>2101</ele>
        <time>2015-03-23T09:00:22.000Z</time>
      </trkpt>
      <trkpt lat="45.16196" lon="6.33996">
        <ele>2101.3999023438</ele>
        <time>2015-03-23T09:00:25.000Z</time>
      </trkpt>
      <trkpt lat="45.16191" lon="6.33999">
        <ele>2102.1999511719</ele>
        <time>2015-03-23T09:00:30.000Z</time>
      </trkpt>
      <trkpt lat="45.16191" lon="6.34">
        <ele>2102.1999511719</ele>
        <time>2015-03-23T09:00:31.000Z</time>
      </trkpt>
      <trkpt lat="45.16186" lon="6.34006">
        <ele>2103.1999511719</ele>
        <time>2015-03-23T09:00:37.000Z</time>
      </trkpt>
      <trkpt lat="45.16186" lon="6.34007">
        <ele>2103.1999511719</ele>
        <time>2015-03-23T09:00:38.000Z</time>
      </trkpt>
      <trkpt lat="45.16182" lon="6.34011">
        <ele>2104.1999511719</ele>
        <time>2015-03-23T09:00:44.000Z</time>
      </trkpt>
      <trkpt lat="45.16181" lon="6.34012">
        <ele>2104.3999023438</ele>
        <time>2015-03-23T09:00:45.000Z</time>
      </trkpt>
      <trkpt lat="45.16175" lon="6.34018">
        <ele>2105.1999511719</ele>
        <time>2015-03-23T09:00:51.000Z</time>
      </trkpt>
      <trkpt lat="45.16171" lon="6.34025">
        <ele>2106.3999023438</ele>
        <time>2015-03-23T09:00:57.000Z</time>
      </trkpt>
      <trkpt lat="45.1617" lon="6.34026">
        <ele>2106.6000976562</ele>
        <time>2015-03-23T09:00:58.000Z</time>
      </trkpt>
      <trkpt lat="45.16165" lon="6.3403">
        <ele>2107.3999023438</ele>
        <time>2015-03-23T09:01:04.000Z</time>
      </trkpt>
      <trkpt lat="45.16165" lon="6.34031">
        <ele>2107.8000488281</ele>
        <time>2015-03-23T09:01:06.000Z</time>
      </trkpt>
      <trkpt lat="45.16161" lon="6.34036">
        <ele>2108.3999023438</ele>
        <time>2015-03-23T09:01:12.000Z</time>
      </trkpt>
      <trkpt lat="45.16161" lon="6.34036">
        <ele>2108.6000976562</ele>
        <time>2015-03-23T09:01:13.000Z</time>
      </trkpt>
      <trkpt lat="45.16159" lon="6.34038">
        <ele>2109.3999023438</ele>
        <time>2015-03-23T09:01:17.000Z</time>
      </trkpt>
      <trkpt lat="45.16156" lon="6.34042">
        <ele>2110.1999511719</ele>
        <time>2015-03-23T09:01:21.000Z</time>
      </trkpt>
      <trkpt lat="45.16154" lon="6.34044">
        <ele>2110.6000976562</ele>
        <time>2015-03-23T09:01:23.000Z</time>
      </trkpt>
      <trkpt lat="45.16151" lon="6.34049">
        <ele>2111.6000976562</ele>
        <time>2015-03-23T09:01:28.000Z</time>
      </trkpt>
      <trkpt lat="45.16151" lon="6.34051">
        <ele>2111.8000488281</ele>
        <time>2015-03-23T09:01:30.000Z</time>
      </trkpt>
      <trkpt lat="45.16149" lon="6.34057">
        <ele>2112.8000488281</ele>
        <time>2015-03-23T09:01:35.000Z</time>
      </trkpt>
      <trkpt lat="45.16146" lon="6.34063">
        <ele>2114</ele>
        <time>2015-03-23T09:01:40.000Z</time>
      </trkpt>
      <trkpt lat="45.16146" lon="6.34065">
        <ele>2114.3999023438</ele>
        <time>2015-03-23T09:01:41.000Z</time>
      </trkpt>
      <trkpt lat="45.16145" lon="6.34072">
        <ele>2115.1999511719</ele>
        <time>2015-03-23T09:01:46.000Z</time>
      </trkpt>
      <trkpt lat="45.16145" lon="6.34074">
        <ele>2115.6000976562</ele>
        <time>2015-03-23T09:01:48.000Z</time>
      </trkpt>
      <trkpt lat="45.16145" lon="6.34075">
        <ele>2116.3999023438</ele>
        <time>2015-03-23T09:01:53.000Z</time>
      </trkpt>
      <trkpt lat="45.16145" lon="6.34076">
        <ele>2116.3999023438</ele>
        <time>2015-03-23T09:01:54.000Z</time>
      </trkpt>
      <trkpt lat="45.16143" lon="6.3408">
        <ele>2117</ele>
        <time>2015-03-23T09:02:00.000Z</time>
      </trkpt>
      <trkpt lat="45.16142" lon="6.34083">
        <ele>2117.3999023438</ele>
        <time>2015-03-23T09:02:03.000Z</time>
      </trkpt>
      <trkpt lat="45.16142" lon="6.34085">
        <ele>2118.1999511719</ele>
        <time>2015-03-23T09:02:07.000Z</time>
      </trkpt>
      <trkpt lat="45.16142" lon="6.34085">
        <ele>2118.6000976562</ele>
        <time>2015-03-23T09:02:09.000Z</time>
      </trkpt>
      <trkpt lat="45.16142" lon="6.34085">
        <ele>2119.3999023438</ele>
        <time>2015-03-23T09:02:17.000Z</time>
      </trkpt>
      <trkpt lat="45.16142" lon="6.34085">
        <ele>2119.8000488281</ele>
        <time>2015-03-23T09:02:20.000Z</time>
      </trkpt>
      <trkpt lat="45.16142" lon="6.34085">
        <ele>2120.3999023438</ele>
        <time>2015-03-23T09:02:24.000Z</time>
      </trkpt>
      <trkpt lat="45.16141" lon="6.34088">
        <ele>2121</ele>
        <time>2015-03-23T09:02:29.000Z</time>
      </trkpt>
      <trkpt lat="45.1614" lon="6.34089">
        <ele>2121.1999511719</ele>
        <time>2015-03-23T09:02:30.000Z</time>
      </trkpt>
      <trkpt lat="45.16138" lon="6.34096">
        <ele>2122</ele>
        <time>2015-03-23T09:02:34.000Z</time>
      </trkpt>
      <trkpt lat="45.16138" lon="6.34097">
        <ele>2122.3999023438</ele>
        <time>2015-03-23T09:02:35.000Z</time>
      </trkpt>
      <trkpt lat="45.16135" lon="6.34102">
        <ele>2123.3999023438</ele>
        <time>2015-03-23T09:02:40.000Z</time>
      </trkpt>
      <trkpt lat="45.16131" lon="6.34107">
        <ele>2124.3999023438</ele>
        <time>2015-03-23T09:02:44.000Z</time>
      </trkpt>
      <trkpt lat="45.16127" lon="6.34112">
        <ele>2125.3999023438</ele>
        <time>2015-03-23T09:02:49.000Z</time>
      </trkpt>
      <trkpt lat="45.16127" lon="6.34112">
        <ele>2125.6000976562</ele>
        <time>2015-03-23T09:02:50.000Z</time>
      </trkpt>
      <trkpt lat="45.16124" lon="6.34117">
        <ele>2126.3999023438</ele>
        <time>2015-03-23T09:02:56.000Z</time>
      </trkpt>
      <trkpt lat="45.16124" lon="6.34117">
        <ele>2126.6000976562</ele>
        <time>2015-03-23T09:02:57.000Z</time>
      </trkpt>
      <trkpt lat="45.16121" lon="6.34123">
        <ele>2127.6000976562</ele>
        <time>2015-03-23T09:03:03.000Z</time>
      </trkpt>
      <trkpt lat="45.1612" lon="6.34125">
        <ele>2128</ele>
        <time>2015-03-23T09:03:05.000Z</time>
      </trkpt>
      <trkpt lat="45.16119" lon="6.34125">
        <ele>2128</ele>
        <time>2015-03-23T09:03:06.000Z</time>
      </trkpt>
      <trkpt lat="45.16115" lon="6.3413">
        <ele>2128.6000976562</ele>
        <time>2015-03-23T09:03:12.000Z</time>
      </trkpt>
      <trkpt lat="45.16114" lon="6.34132">
        <ele>2128.8000488281</ele>
        <time>2015-03-23T09:03:14.000Z</time>
      </trkpt>
      <trkpt lat="45.1611" lon="6.34137">
        <ele>2129.1999511719</ele>
        <time>2015-03-23T09:03:20.000Z</time>
      </trkpt>
      <trkpt lat="45.16108" lon="6.3414">
        <ele>2129.8000488281</ele>
        <time>2015-03-23T09:03:23.000Z</time>
      </trkpt>
      <trkpt lat="45.16105" lon="6.34143">
        <ele>2130</ele>
        <time>2015-03-23T09:03:27.000Z</time>
      </trkpt>
      <trkpt lat="45.16098" lon="6.3415">
        <ele>2130.8000488281</ele>
        <time>2015-03-23T09:03:34.000Z</time>
      </trkpt>
      <trkpt lat="45.16093" lon="6.34157">
        <ele>2131.1999511719</ele>
        <time>2015-03-23T09:03:41.000Z</time>
      </trkpt>
      <trkpt lat="45.16088" lon="6.34162">
        <ele>2131.8000488281</ele>
        <time>2015-03-23T09:03:49.000Z</time>
      </trkpt>
      <trkpt lat="45.16087" lon="6.34163">
        <ele>2132</ele>
        <time>2015-03-23T09:03:50.000Z</time>
      </trkpt>
      <trkpt lat="45.16082" lon="6.34168">
        <ele>2132.1999511719</ele>
        <time>2015-03-23T09:03:58.000Z</time>
      </trkpt>
      <trkpt lat="45.16076" lon="6.34173">
        <ele>2132.3999023438</ele>
        <time>2015-03-23T09:04:05.000Z</time>
      </trkpt>
      <trkpt lat="45.1607" lon="6.34181">
        <ele>2132.1999511719</ele>
        <time>2015-03-23T09:04:12.000Z</time>
      </trkpt>
      <trkpt lat="45.16069" lon="6.34183">
        <ele>2132.1999511719</ele>
        <time>2015-03-23T09:04:13.000Z</time>
      </trkpt>
      <trkpt lat="45.16064" lon="6.34187">
        <ele>2131.3999023438</ele>
        <time>2015-03-23T09:04:17.000Z</time>
      </trkpt>
      <trkpt lat="45.16063" lon="6.34186">
        <ele>2131</ele>
        <time>2015-03-23T09:04:19.000Z</time>
      </trkpt>
      <trkpt lat="45.16063" lon="6.34185">
        <ele>2131</ele>
        <time>2015-03-23T09:04:23.000Z</time>
      </trkpt>
      <trkpt lat="45.1606" lon="6.3418">
        <ele>2131.3999023438</ele>
        <time>2015-03-23T09:04:28.000Z</time>
      </trkpt>
      <trkpt lat="45.16058" lon="6.34174">
        <ele>2131.8000488281</ele>
        <time>2015-03-23T09:04:35.000Z</time>
      </trkpt>
      <trkpt lat="45.16057" lon="6.34173">
        <ele>2132.1999511719</ele>
        <time>2015-03-23T09:04:36.000Z</time>
      </trkpt>
      <trkpt lat="45.16056" lon="6.34174">
        <ele>2133</ele>
        <time>2015-03-23T09:04:41.000Z</time>
      </trkpt>
      <trkpt lat="45.16054" lon="6.34179">
        <ele>2133.1999511719</ele>
        <time>2015-03-23T09:04:45.000Z</time>
      </trkpt>
      <trkpt lat="45.16052" lon="6.34182">
        <ele>2134</ele>
        <time>2015-03-23T09:04:48.000Z</time>
      </trkpt>
      <trkpt lat="45.1605" lon="6.34185">
        <ele>2134.3999023438</ele>
        <time>2015-03-23T09:04:50.000Z</time>
      </trkpt>
      <trkpt lat="45.16045" lon="6.34189">
        <ele>2135.1999511719</ele>
        <time>2015-03-23T09:04:56.000Z</time>
      </trkpt>
      <trkpt lat="45.16041" lon="6.34191">
        <ele>2135</ele>
        <time>2015-03-23T09:05:00.000Z</time>
      </trkpt>
      <trkpt lat="45.16035" lon="6.34191">
        <ele>2134.6000976562</ele>
        <time>2015-03-23T09:05:02.000Z</time>
      </trkpt>
      <trkpt lat="45.16031" lon="6.34188">
        <ele>2133.1999511719</ele>
        <time>2015-03-23T09:05:06.000Z</time>
      </trkpt>
      <trkpt lat="45.1603" lon="6.34179">
        <ele>2133.6000976562</ele>
        <time>2015-03-23T09:05:13.000Z</time>
      </trkpt>
      <trkpt lat="45.16029" lon="6.34171">
        <ele>2134.1999511719</ele>
        <time>2015-03-23T09:05:20.000Z</time>
      </trkpt>
      <trkpt lat="45.16029" lon="6.34169">
        <ele>2134.3999023438</ele>
        <time>2015-03-23T09:05:21.000Z</time>
      </trkpt>
      <trkpt lat="45.16028" lon="6.34163">
        <ele>2135.3999023438</ele>
        <time>2015-03-23T09:05:26.000Z</time>
      </trkpt>
      <trkpt lat="45.16028" lon="6.34162">
        <ele>2135.3999023438</ele>
        <time>2015-03-23T09:05:27.000Z</time>
      </trkpt>
      <trkpt lat="45.16027" lon="6.34155">
        <ele>2136.1999511719</ele>
        <time>2015-03-23T09:05:33.000Z</time>
      </trkpt>
      <trkpt lat="45.16027" lon="6.34153">
        <ele>2136.3999023438</ele>
        <time>2015-03-23T09:05:35.000Z</time>
      </trkpt>
      <trkpt lat="45.16024" lon="6.34148">
        <ele>2137.6000976562</ele>
        <time>2015-03-23T09:05:41.000Z</time>
      </trkpt>
      <trkpt lat="45.16021" lon="6.34142">
        <ele>2138.3999023438</ele>
        <time>2015-03-23T09:05:47.000Z</time>
      </trkpt>
      <trkpt lat="45.1602" lon="6.34141">
        <ele>2138.6000976562</ele>
        <time>2015-03-23T09:05:48.000Z</time>
      </trkpt>
      <trkpt lat="45.16018" lon="6.34135">
        <ele>2139.6000976562</ele>
        <time>2015-03-23T09:05:54.000Z</time>
      </trkpt>
      <trkpt lat="45.16017" lon="6.34133">
        <ele>2139.8000488281</ele>
        <time>2015-03-23T09:05:55.000Z</time>
      </trkpt>
      <trkpt lat="45.16017" lon="6.34127">
        <ele>2140.3999023438</ele>
        <time>2015-03-23T09:06:01.000Z</time>
      </trkpt>
      <trkpt lat="45.16017" lon="6.34124">
        <ele>2140.8000488281</ele>
        <time>2015-03-23T09:06:03.000Z</time>
      </trkpt>
      <trkpt lat="45.16016" lon="6.34119">
        <ele>2141.3999023438</ele>
        <time>2015-03-23T09:06:08.000Z</time>
      </trkpt>
      <trkpt lat="45.16016" lon="6.34116">
        <ele>2142.1999511719</ele>
        <time>2015-03-23T09:06:11.000Z</time>
      </trkpt>
      <trkpt lat="45.16016" lon="6.34112">
        <ele>2142.8000488281</ele>
        <time>2015-03-23T09:06:15.000Z</time>
      </trkpt>
      <trkpt lat="45.16016" lon="6.34109">
        <ele>2143.1999511719</ele>
        <time>2015-03-23T09:06:17.000Z</time>
      </trkpt>
      <trkpt lat="45.16017" lon="6.34104">
        <ele>2143.6000976562</ele>
        <time>2015-03-23T09:06:22.000Z</time>
      </trkpt>
      <trkpt lat="45.16017" lon="6.34098">
        <ele>2144.3999023438</ele>
        <time>2015-03-23T09:06:27.000Z</time>
      </trkpt>
      <trkpt lat="45.16017" lon="6.34097">
        <ele>2144.6000976562</ele>
        <time>2015-03-23T09:06:29.000Z</time>
      </trkpt>
      <trkpt lat="45.16014" lon="6.3409">
        <ele>2145.3999023438</ele>
        <time>2015-03-23T09:06:34.000Z</time>
      </trkpt>
      <trkpt lat="45.16014" lon="6.34089">
        <ele>2145.8000488281</ele>
        <time>2015-03-23T09:06:35.000Z</time>
      </trkpt>
      <trkpt lat="45.16013" lon="6.34087">
        <ele>2146.3999023438</ele>
        <time>2015-03-23T09:06:39.000Z</time>
      </trkpt>
      <trkpt lat="45.16013" lon="6.34087">
        <ele>2146.6000976562</ele>
        <time>2015-03-23T09:06:41.000Z</time>
      </trkpt>
      <trkpt lat="45.16013" lon="6.34087">
        <ele>2146.8000488281</ele>
        <time>2015-03-23T09:06:57.000Z</time>
      </trkpt>
      <trkpt lat="45.16013" lon="6.34087">
        <ele>2146.6000976562</ele>
        <time>2015-03-23T09:07:04.000Z</time>
      </trkpt>
      <trkpt lat="45.16008" lon="6.34084">
        <ele>2147.3999023438</ele>
        <time>2015-03-23T09:07:09.000Z</time>
      </trkpt>
      <trkpt lat="45.16008" lon="6.34084">
        <ele>2147.6000976562</ele>
        <time>2015-03-23T09:07:10.000Z</time>
      </trkpt>
      <trkpt lat="45.16003" lon="6.3408">
        <ele>2148.6000976562</ele>
        <time>2015-03-23T09:07:14.000Z</time>
      </trkpt>
      <trkpt lat="45.16003" lon="6.3408">
        <ele>2148.6000976562</ele>
        <time>2015-03-23T09:07:15.000Z</time>
      </trkpt>
      <trkpt lat="45.16003" lon="6.3408">
        <ele>2149.8000488281</ele>
        <time>2015-03-23T09:07:19.000Z</time>
      </trkpt>
      <trkpt lat="45.16003" lon="6.3408">
        <ele>2149.8000488281</ele>
        <time>2015-03-23T09:07:24.000Z</time>
      </trkpt>
      <trkpt lat="45.16" lon="6.34077">
        <ele>2149.8000488281</ele>
        <time>2015-03-23T09:07:37.000Z</time>
      </trkpt>
      <trkpt lat="45.15996" lon="6.34074">
        <ele>2150.6000976562</ele>
        <time>2015-03-23T09:07:42.000Z</time>
      </trkpt>
      <trkpt lat="45.15994" lon="6.34073">
        <ele>2151</ele>
        <time>2015-03-23T09:07:44.000Z</time>
      </trkpt>
      <trkpt lat="45.15992" lon="6.34072">
        <ele>2151.6000976562</ele>
        <time>2015-03-23T09:07:47.000Z</time>
      </trkpt>
      <trkpt lat="45.1599" lon="6.34071">
        <ele>2152</ele>
        <time>2015-03-23T09:07:48.000Z</time>
      </trkpt>
      <trkpt lat="45.15988" lon="6.3407">
        <ele>2152.8000488281</ele>
        <time>2015-03-23T09:07:52.000Z</time>
      </trkpt>
      <trkpt lat="45.15987" lon="6.3407">
        <ele>2153</ele>
        <time>2015-03-23T09:07:53.000Z</time>
      </trkpt>
      <trkpt lat="45.15982" lon="6.34072">
        <ele>2154.1999511719</ele>
        <time>2015-03-23T09:07:59.000Z</time>
      </trkpt>
      <trkpt lat="45.15978" lon="6.34074">
        <ele>2155.1999511719</ele>
        <time>2015-03-23T09:08:05.000Z</time>
      </trkpt>
      <trkpt lat="45.15977" lon="6.34074">
        <ele>2155.3999023438</ele>
        <time>2015-03-23T09:08:06.000Z</time>
      </trkpt>
      <trkpt lat="45.15975" lon="6.34076">
        <ele>2156.1999511719</ele>
        <time>2015-03-23T09:08:10.000Z</time>
      </trkpt>
      <trkpt lat="45.15974" lon="6.34077">
        <ele>2157</ele>
        <time>2015-03-23T09:08:12.000Z</time>
      </trkpt>
      <trkpt lat="45.15972" lon="6.34078">
        <ele>2157.3999023438</ele>
        <time>2015-03-23T09:08:14.000Z</time>
      </trkpt>
      <trkpt lat="45.15969" lon="6.34079">
        <ele>2158.3999023438</ele>
        <time>2015-03-23T09:08:19.000Z</time>
      </trkpt>
      <trkpt lat="45.15966" lon="6.34082">
        <ele>2159.3999023438</ele>
        <time>2015-03-23T09:08:25.000Z</time>
      </trkpt>
      <trkpt lat="45.15966" lon="6.34082">
        <ele>2159.6000976562</ele>
        <time>2015-03-23T09:08:26.000Z</time>
      </trkpt>
      <trkpt lat="45.1596" lon="6.34085">
        <ele>2160.1999511719</ele>
        <time>2015-03-23T09:08:32.000Z</time>
      </trkpt>
      <trkpt lat="45.15959" lon="6.34086">
        <ele>2161</ele>
        <time>2015-03-23T09:08:35.000Z</time>
      </trkpt>
      <trkpt lat="45.15957" lon="6.34089">
        <ele>2161.3999023438</ele>
        <time>2015-03-23T09:08:38.000Z</time>
      </trkpt>
      <trkpt lat="45.15956" lon="6.34092">
        <ele>2162.1999511719</ele>
        <time>2015-03-23T09:08:41.000Z</time>
      </trkpt>
      <trkpt lat="45.15955" lon="6.34097">
        <ele>2163</ele>
        <time>2015-03-23T09:08:44.000Z</time>
      </trkpt>
      <trkpt lat="45.15954" lon="6.34098">
        <ele>2163.3999023438</ele>
        <time>2015-03-23T09:08:46.000Z</time>
      </trkpt>
      <trkpt lat="45.15954" lon="6.34104">
        <ele>2164.3999023438</ele>
        <time>2015-03-23T09:08:49.000Z</time>
      </trkpt>
      <trkpt lat="45.15953" lon="6.34104">
        <ele>2164.6000976562</ele>
        <time>2015-03-23T09:08:50.000Z</time>
      </trkpt>
      <trkpt lat="45.15953" lon="6.34109">
        <ele>2165.1999511719</ele>
        <time>2015-03-23T09:08:54.000Z</time>
      </trkpt>
      <trkpt lat="45.15953" lon="6.34109">
        <ele>2165.6000976562</ele>
        <time>2015-03-23T09:08:55.000Z</time>
      </trkpt>
      <trkpt lat="45.15954" lon="6.34114">
        <ele>2166.8000488281</ele>
        <time>2015-03-23T09:08:59.000Z</time>
      </trkpt>
      <trkpt lat="45.15954" lon="6.34115">
        <ele>2167.3999023438</ele>
        <time>2015-03-23T09:09:01.000Z</time>
      </trkpt>
      <trkpt lat="45.15954" lon="6.34115">
        <ele>2167.8000488281</ele>
        <time>2015-03-23T09:09:02.000Z</time>
      </trkpt>
      <trkpt lat="45.15954" lon="6.34118">
        <ele>2168.6000976562</ele>
        <time>2015-03-23T09:09:07.000Z</time>
      </trkpt>
      <trkpt lat="45.15954" lon="6.34118">
        <ele>2168.8000488281</ele>
        <time>2015-03-23T09:09:08.000Z</time>
      </trkpt>
      <trkpt lat="45.15953" lon="6.34124">
        <ele>2170</ele>
        <time>2015-03-23T09:09:12.000Z</time>
      </trkpt>
      <trkpt lat="45.15953" lon="6.34126">
        <ele>2170.1999511719</ele>
        <time>2015-03-23T09:09:13.000Z</time>
      </trkpt>
      <trkpt lat="45.15952" lon="6.34129">
        <ele>2171.1999511719</ele>
        <time>2015-03-23T09:09:18.000Z</time>
      </trkpt>
      <trkpt lat="45.15952" lon="6.3413">
        <ele>2171.3999023438</ele>
        <time>2015-03-23T09:09:19.000Z</time>
      </trkpt>
      <trkpt lat="45.15951" lon="6.34133">
        <ele>2172.1999511719</ele>
        <time>2015-03-23T09:09:22.000Z</time>
      </trkpt>
      <trkpt lat="45.1595" lon="6.34136">
        <ele>2172.8000488281</ele>
        <time>2015-03-23T09:09:25.000Z</time>
      </trkpt>
      <trkpt lat="45.15949" lon="6.34137">
        <ele>2173.3999023438</ele>
        <time>2015-03-23T09:09:27.000Z</time>
      </trkpt>
      <trkpt lat="45.15947" lon="6.34142">
        <ele>2174.1999511719</ele>
        <time>2015-03-23T09:09:31.000Z</time>
      </trkpt>
      <trkpt lat="45.15946" lon="6.34145">
        <ele>2174.8000488281</ele>
        <time>2015-03-23T09:09:34.000Z</time>
      </trkpt>
      <trkpt lat="45.15945" lon="6.34143">
        <ele>2175.8000488281</ele>
        <time>2015-03-23T09:09:37.000Z</time>
      </trkpt>
      <trkpt lat="45.15945" lon="6.34143">
        <ele>2176</ele>
        <time>2015-03-23T09:09:38.000Z</time>
      </trkpt>
      <trkpt lat="45.15941" lon="6.34142">
        <ele>2177.1999511719</ele>
        <time>2015-03-23T09:09:43.000Z</time>
      </trkpt>
      <trkpt lat="45.15939" lon="6.34141">
        <ele>2177.3999023438</ele>
        <time>2015-03-23T09:09:44.000Z</time>
      </trkpt>
      <trkpt lat="45.15938" lon="6.3414">
        <ele>2178.1999511719</ele>
        <time>2015-03-23T09:09:48.000Z</time>
      </trkpt>
      <trkpt lat="45.15936" lon="6.34139">
        <ele>2179</ele>
        <time>2015-03-23T09:09:51.000Z</time>
      </trkpt>
      <trkpt lat="45.15934" lon="6.34139">
        <ele>2179.1999511719</ele>
        <time>2015-03-23T09:09:53.000Z</time>
      </trkpt>
      <trkpt lat="45.15932" lon="6.34139">
        <ele>2179.6000976562</ele>
        <time>2015-03-23T09:09:56.000Z</time>
      </trkpt>
      <trkpt lat="45.1593" lon="6.34138">
        <ele>2180.3999023438</ele>
        <time>2015-03-23T09:09:59.000Z</time>
      </trkpt>
      <trkpt lat="45.15929" lon="6.34138">
        <ele>2181</ele>
        <time>2015-03-23T09:10:02.000Z</time>
      </trkpt>
      <trkpt lat="45.15927" lon="6.34138">
        <ele>2181.6000976562</ele>
        <time>2015-03-23T09:10:05.000Z</time>
      </trkpt>
      <trkpt lat="45.15925" lon="6.34138">
        <ele>2182.1999511719</ele>
        <time>2015-03-23T09:10:08.000Z</time>
      </trkpt>
      <trkpt lat="45.15922" lon="6.34139">
        <ele>2183</ele>
        <time>2015-03-23T09:10:11.000Z</time>
      </trkpt>
      <trkpt lat="45.1592" lon="6.3414">
        <ele>2183.8000488281</ele>
        <time>2015-03-23T09:10:15.000Z</time>
      </trkpt>
      <trkpt lat="45.15918" lon="6.3414">
        <ele>2184</ele>
        <time>2015-03-23T09:10:16.000Z</time>
      </trkpt>
      <trkpt lat="45.15914" lon="6.34141">
        <ele>2185</ele>
        <time>2015-03-23T09:10:21.000Z</time>
      </trkpt>
      <trkpt lat="45.15912" lon="6.34141">
        <ele>2186</ele>
        <time>2015-03-23T09:10:27.000Z</time>
      </trkpt>
      <trkpt lat="45.1591" lon="6.34141">
        <ele>2186</ele>
        <time>2015-03-23T09:10:28.000Z</time>
      </trkpt>
      <trkpt lat="45.15907" lon="6.3414">
        <ele>2187</ele>
        <time>2015-03-23T09:10:33.000Z</time>
      </trkpt>
      <trkpt lat="45.15907" lon="6.34139">
        <ele>2187.1999511719</ele>
        <time>2015-03-23T09:10:34.000Z</time>
      </trkpt>
      <trkpt lat="45.15905" lon="6.3414">
        <ele>2188.3999023438</ele>
        <time>2015-03-23T09:10:38.000Z</time>
      </trkpt>
      <trkpt lat="45.15904" lon="6.3414">
        <ele>2188.6000976562</ele>
        <time>2015-03-23T09:10:39.000Z</time>
      </trkpt>
      <trkpt lat="45.15901" lon="6.3414">
        <ele>2189.6000976562</ele>
        <time>2015-03-23T09:10:44.000Z</time>
      </trkpt>
      <trkpt lat="45.15899" lon="6.34141">
        <ele>2189.8000488281</ele>
        <time>2015-03-23T09:10:45.000Z</time>
      </trkpt>
      <trkpt lat="45.15894" lon="6.34142">
        <ele>2190.8000488281</ele>
        <time>2015-03-23T09:10:51.000Z</time>
      </trkpt>
      <trkpt lat="45.1589" lon="6.34142">
        <ele>2191.8000488281</ele>
        <time>2015-03-23T09:10:56.000Z</time>
      </trkpt>
      <trkpt lat="45.15887" lon="6.34144">
        <ele>2192.8000488281</ele>
        <time>2015-03-23T09:11:00.000Z</time>
      </trkpt>
      <trkpt lat="45.15885" lon="6.34144">
        <ele>2193.3999023438</ele>
        <time>2015-03-23T09:11:02.000Z</time>
      </trkpt>
      <trkpt lat="45.15882" lon="6.34144">
        <ele>2194.1999511719</ele>
        <time>2015-03-23T09:11:06.000Z</time>
      </trkpt>
      <trkpt lat="45.15881" lon="6.34145">
        <ele>2194.6000976562</ele>
        <time>2015-03-23T09:11:08.000Z</time>
      </trkpt>
      <trkpt lat="45.15878" lon="6.34147">
        <ele>2195.1999511719</ele>
        <time>2015-03-23T09:11:13.000Z</time>
      </trkpt>
      <trkpt lat="45.15877" lon="6.34149">
        <ele>2195.6000976562</ele>
        <time>2015-03-23T09:11:15.000Z</time>
      </trkpt>
      <trkpt lat="45.15875" lon="6.3415">
        <ele>2196.3999023438</ele>
        <time>2015-03-23T09:11:18.000Z</time>
      </trkpt>
      <trkpt lat="45.15872" lon="6.34154">
        <ele>2197.1999511719</ele>
        <time>2015-03-23T09:11:22.000Z</time>
      </trkpt>
      <trkpt lat="45.15872" lon="6.34154">
        <ele>2197.3999023438</ele>
        <time>2015-03-23T09:11:23.000Z</time>
      </trkpt>
      <trkpt lat="45.15868" lon="6.34157">
        <ele>2198.3999023438</ele>
        <time>2015-03-23T09:11:27.000Z</time>
      </trkpt>
      <trkpt lat="45.15868" lon="6.34158">
        <ele>2198.8000488281</ele>
        <time>2015-03-23T09:11:29.000Z</time>
      </trkpt>
      <trkpt lat="45.15862" lon="6.34164">
        <ele>2199.3999023438</ele>
        <time>2015-03-23T09:11:36.000Z</time>
      </trkpt>
      <trkpt lat="45.15861" lon="6.34166">
        <ele>2199.6000976562</ele>
        <time>2015-03-23T09:11:39.000Z</time>
      </trkpt>
      <trkpt lat="45.15858" lon="6.34169">
        <ele>2200</ele>
        <time>2015-03-23T09:11:43.000Z</time>
      </trkpt>
      <trkpt lat="45.15855" lon="6.34172">
        <ele>2200.6000976562</ele>
        <time>2015-03-23T09:11:47.000Z</time>
      </trkpt>
      <trkpt lat="45.15853" lon="6.34175">
        <ele>2201.1999511719</ele>
        <time>2015-03-23T09:11:50.000Z</time>
      </trkpt>
      <trkpt lat="45.15852" lon="6.34176">
        <ele>2201.6000976562</ele>
        <time>2015-03-23T09:11:52.000Z</time>
      </trkpt>
      <trkpt lat="45.15846" lon="6.34182">
        <ele>2202.8000488281</ele>
        <time>2015-03-23T09:11:58.000Z</time>
      </trkpt>
      <trkpt lat="45.15846" lon="6.34182">
        <ele>2202.8000488281</ele>
        <time>2015-03-23T09:11:59.000Z</time>
      </trkpt>
      <trkpt lat="45.15839" lon="6.34192">
        <ele>2204</ele>
        <time>2015-03-23T09:12:05.000Z</time>
      </trkpt>
      <trkpt lat="45.15838" lon="6.34193">
        <ele>2204</ele>
        <time>2015-03-23T09:12:06.000Z</time>
      </trkpt>
      <trkpt lat="45.15834" lon="6.34198">
        <ele>2205</ele>
        <time>2015-03-23T09:12:11.000Z</time>
      </trkpt>
      <trkpt lat="45.15835" lon="6.34198">
        <ele>2205.3999023438</ele>
        <time>2015-03-23T09:12:12.000Z</time>
      </trkpt>
      <trkpt lat="45.15833" lon="6.34199">
        <ele>2206.1999511719</ele>
        <time>2015-03-23T09:12:15.000Z</time>
      </trkpt>
      <trkpt lat="45.1583" lon="6.34201">
        <ele>2206.6000976562</ele>
        <time>2015-03-23T09:12:18.000Z</time>
      </trkpt>
      <trkpt lat="45.15829" lon="6.34203">
        <ele>2207.1999511719</ele>
        <time>2015-03-23T09:12:22.000Z</time>
      </trkpt>
      <trkpt lat="45.15827" lon="6.34204">
        <ele>2207.3999023438</ele>
        <time>2015-03-23T09:12:25.000Z</time>
      </trkpt>
      <trkpt lat="45.15822" lon="6.34207">
        <ele>2208.3999023438</ele>
        <time>2015-03-23T09:12:30.000Z</time>
      </trkpt>
      <trkpt lat="45.15821" lon="6.34209">
        <ele>2208.8000488281</ele>
        <time>2015-03-23T09:12:32.000Z</time>
      </trkpt>
      <trkpt lat="45.15819" lon="6.34211">
        <ele>2209.8000488281</ele>
        <time>2015-03-23T09:12:36.000Z</time>
      </trkpt>
      <trkpt lat="45.15817" lon="6.34213">
        <ele>2210</ele>
        <time>2015-03-23T09:12:39.000Z</time>
      </trkpt>
      <trkpt lat="45.15811" lon="6.34218">
        <ele>2210.8000488281</ele>
        <time>2015-03-23T09:12:45.000Z</time>
      </trkpt>
      <trkpt lat="45.1581" lon="6.34218">
        <ele>2211</ele>
        <time>2015-03-23T09:12:47.000Z</time>
      </trkpt>
      <trkpt lat="45.15806" lon="6.34221">
        <ele>2211.8000488281</ele>
        <time>2015-03-23T09:12:52.000Z</time>
      </trkpt>
      <trkpt lat="45.15803" lon="6.34223">
        <ele>2212</ele>
        <time>2015-03-23T09:12:54.000Z</time>
      </trkpt>
      <trkpt lat="45.15801" lon="6.34226">
        <ele>2212.6000976562</ele>
        <time>2015-03-23T09:12:57.000Z</time>
      </trkpt>
      <trkpt lat="45.15799" lon="6.34226">
        <ele>2212.8000488281</ele>
        <time>2015-03-23T09:12:59.000Z</time>
      </trkpt>
      <trkpt lat="45.15798" lon="6.34227">
        <ele>2213</ele>
        <time>2015-03-23T09:13:00.000Z</time>
      </trkpt>
      <trkpt lat="45.15794" lon="6.34229">
        <ele>2213.1999511719</ele>
        <time>2015-03-23T09:13:05.000Z</time>
      </trkpt>
      <trkpt lat="45.15793" lon="6.34229">
        <ele>2213.8000488281</ele>
        <time>2015-03-23T09:13:09.000Z</time>
      </trkpt>
      <trkpt lat="45.15793" lon="6.34229">
        <ele>2214</ele>
        <time>2015-03-23T09:13:12.000Z</time>
      </trkpt>
      <trkpt lat="45.15793" lon="6.34229">
        <ele>2214</ele>
        <time>2015-03-23T09:13:31.000Z</time>
      </trkpt>
      <trkpt lat="45.15793" lon="6.34229">
        <ele>2214</ele>
        <time>2015-03-23T09:13:43.000Z</time>
      </trkpt>
      <trkpt lat="45.15793" lon="6.34229">
        <ele>2214</ele>
        <time>2015-03-23T09:13:56.000Z</time>
      </trkpt>
      <trkpt lat="45.15793" lon="6.34229">
        <ele>2214</ele>
        <time>2015-03-23T09:14:21.000Z</time>
      </trkpt>
      <trkpt lat="45.15793" lon="6.34229">
        <ele>2213.8000488281</ele>
        <time>2015-03-23T09:14:36.000Z</time>
      </trkpt>
      <trkpt lat="45.15793" lon="6.34229">
        <ele>2214</ele>
        <time>2015-03-23T09:14:55.000Z</time>
      </trkpt>
      <trkpt lat="45.15793" lon="6.34229">
        <ele>2214</ele>
        <time>2015-03-23T09:15:11.000Z</time>
      </trkpt>
      <trkpt lat="45.15793" lon="6.34229">
        <ele>2214</ele>
        <time>2015-03-23T09:15:23.000Z</time>
      </trkpt>
      <trkpt lat="45.15793" lon="6.34229">
        <ele>2214.1999511719</ele>
        <time>2015-03-23T09:15:36.000Z</time>
      </trkpt>
      <trkpt lat="45.15794" lon="6.3423">
        <ele>2214.1999511719</ele>
        <time>2015-03-23T09:15:50.000Z</time>
      </trkpt>
      <trkpt lat="45.15794" lon="6.3423">
        <ele>2214.1999511719</ele>
        <time>2015-03-23T09:16:13.000Z</time>
      </trkpt>
      <trkpt lat="45.15794" lon="6.3423">
        <ele>2214</ele>
        <time>2015-03-23T09:16:32.000Z</time>
      </trkpt>
      <trkpt lat="45.15794" lon="6.3423">
        <ele>2214</ele>
        <time>2015-03-23T09:16:51.000Z</time>
      </trkpt>
      <trkpt lat="45.15794" lon="6.3423">
        <ele>2214.1999511719</ele>
        <time>2015-03-23T09:17:07.000Z</time>
      </trkpt>
      <trkpt lat="45.15794" lon="6.3423">
        <ele>2214.1999511719</ele>
        <time>2015-03-23T09:17:24.000Z</time>
      </trkpt>
      <trkpt lat="45.15794" lon="6.3423">
        <ele>2214.1999511719</ele>
        <time>2015-03-23T09:17:41.000Z</time>
      </trkpt>
      <trkpt lat="45.15793" lon="6.3423">
        <ele>2214.1999511719</ele>
        <time>2015-03-23T09:17:56.000Z</time>
      </trkpt>
      <trkpt lat="45.15793" lon="6.3423">
        <ele>2214.3999023438</ele>
        <time>2015-03-23T09:18:10.000Z</time>
      </trkpt>
      <trkpt lat="45.15793" lon="6.34229">
        <ele>2214.1999511719</ele>
        <time>2015-03-23T09:18:30.000Z</time>
      </trkpt>
      <trkpt lat="45.15793" lon="6.34229">
        <ele>2214.1999511719</ele>
        <time>2015-03-23T09:18:48.000Z</time>
      </trkpt>
      <trkpt lat="45.15793" lon="6.34229">
        <ele>2214.1999511719</ele>
        <time>2015-03-23T09:19:08.000Z</time>
      </trkpt>
      <trkpt lat="45.15793" lon="6.34229">
        <ele>2214.1999511719</ele>
        <time>2015-03-23T09:19:27.000Z</time>
      </trkpt>
      <trkpt lat="45.15793" lon="6.34229">
        <ele>2214.1999511719</ele>
        <time>2015-03-23T09:19:44.000Z</time>
      </trkpt>
      <trkpt lat="45.15793" lon="6.34229">
        <ele>2214.3999023438</ele>
        <time>2015-03-23T09:19:56.000Z</time>
      </trkpt>
      <trkpt lat="45.15793" lon="6.34229">
        <ele>2214.1999511719</ele>
        <time>2015-03-23T09:20:13.000Z</time>
      </trkpt>
      <trkpt lat="45.15793" lon="6.3423">
        <ele>2214.1999511719</ele>
        <time>2015-03-23T09:20:29.000Z</time>
      </trkpt>
      <trkpt lat="45.15793" lon="6.3423">
        <ele>2214.1999511719</ele>
        <time>2015-03-23T09:20:45.000Z</time>
      </trkpt>
      <trkpt lat="45.15793" lon="6.3423">
        <ele>2214.1999511719</ele>
        <time>2015-03-23T09:21:04.000Z</time>
      </trkpt>
      <trkpt lat="45.15793" lon="6.3423">
        <ele>2214.1999511719</ele>
        <time>2015-03-23T09:21:11.000Z</time>
      </trkpt>
      <trkpt lat="45.15793" lon="6.3423">
        <ele>2214.1999511719</ele>
        <time>2015-03-23T09:21:16.000Z</time>
      </trkpt>
      <trkpt lat="45.15793" lon="6.3423">
        <ele>2214.1999511719</ele>
        <time>2015-03-23T09:21:34.000Z</time>
      </trkpt>
      <trkpt lat="45.15793" lon="6.3423">
        <ele>2214.1999511719</ele>
        <time>2015-03-23T09:21:50.000Z</time>
      </trkpt>
      <trkpt lat="45.15787" lon="6.34236">
        <ele>2214.3999023438</ele>
        <time>2015-03-23T09:21:56.000Z</time>
      </trkpt>
      <trkpt lat="45.15777" lon="6.34247">
        <ele>2214.3999023438</ele>
        <time>2015-03-23T09:22:05.000Z</time>
      </trkpt>
      <trkpt lat="45.15768" lon="6.34253">
        <ele>2214.1999511719</ele>
        <time>2015-03-23T09:22:12.000Z</time>
      </trkpt>
      <trkpt lat="45.15758" lon="6.3426">
        <ele>2214</ele>
        <time>2015-03-23T09:22:21.000Z</time>
      </trkpt>
      <trkpt lat="45.15751" lon="6.34268">
        <ele>2214.3999023438</ele>
        <time>2015-03-23T09:22:29.000Z</time>
      </trkpt>
      <trkpt lat="45.15747" lon="6.34273">
        <ele>2214.8000488281</ele>
        <time>2015-03-23T09:22:35.000Z</time>
      </trkpt>
      <trkpt lat="45.15744" lon="6.34274">
        <ele>2215</ele>
        <time>2015-03-23T09:22:37.000Z</time>
      </trkpt>
      <trkpt lat="45.15737" lon="6.34279">
        <ele>2216</ele>
        <time>2015-03-23T09:22:45.000Z</time>
      </trkpt>
      <trkpt lat="45.15736" lon="6.3428">
        <ele>2216.1999511719</ele>
        <time>2015-03-23T09:22:47.000Z</time>
      </trkpt>
      <trkpt lat="45.15731" lon="6.34284">
        <ele>2217</ele>
        <time>2015-03-23T09:22:53.000Z</time>
      </trkpt>
      <trkpt lat="45.15729" lon="6.34284">
        <ele>2217.1999511719</ele>
        <time>2015-03-23T09:22:56.000Z</time>
      </trkpt>
      <trkpt lat="45.15725" lon="6.34288">
        <ele>2218.1999511719</ele>
        <time>2015-03-23T09:23:01.000Z</time>
      </trkpt>
      <trkpt lat="45.15723" lon="6.34289">
        <ele>2218.6000976562</ele>
        <time>2015-03-23T09:23:03.000Z</time>
      </trkpt>
      <trkpt lat="45.15717" lon="6.34292">
        <ele>2219.1999511719</ele>
        <time>2015-03-23T09:23:10.000Z</time>
      </trkpt>
      <trkpt lat="45.1571" lon="6.34298">
        <ele>2220</ele>
        <time>2015-03-23T09:23:19.000Z</time>
      </trkpt>
      <trkpt lat="45.15709" lon="6.34299">
        <ele>2220.3999023438</ele>
        <time>2015-03-23T09:23:21.000Z</time>
      </trkpt>
      <trkpt lat="45.15704" lon="6.34304">
        <ele>2221.1999511719</ele>
        <time>2015-03-23T09:23:29.000Z</time>
      </trkpt>
      <trkpt lat="45.15703" lon="6.34304">
        <ele>2221.3999023438</ele>
        <time>2015-03-23T09:23:31.000Z</time>
      </trkpt>
      <trkpt lat="45.15704" lon="6.34305">
        <ele>2221.1999511719</ele>
        <time>2015-03-23T09:23:37.000Z</time>
      </trkpt>
      <trkpt lat="45.15703" lon="6.34305">
        <ele>2221</ele>
        <time>2015-03-23T09:23:50.000Z</time>
      </trkpt>
      <trkpt lat="45.15702" lon="6.34305">
        <ele>2221</ele>
        <time>2015-03-23T09:24:00.000Z</time>
      </trkpt>
      <trkpt lat="45.15697" lon="6.34306">
        <ele>2221</ele>
        <time>2015-03-23T09:24:07.000Z</time>
      </trkpt>
      <trkpt lat="45.15692" lon="6.34308">
        <ele>2221</ele>
        <time>2015-03-23T09:24:13.000Z</time>
      </trkpt>
      <trkpt lat="45.1569" lon="6.34308">
        <ele>2220.8000488281</ele>
        <time>2015-03-23T09:24:15.000Z</time>
      </trkpt>
      <trkpt lat="45.15681" lon="6.34309">
        <ele>2220.1999511719</ele>
        <time>2015-03-23T09:24:21.000Z</time>
      </trkpt>
      <trkpt lat="45.1567" lon="6.34309">
        <ele>2219.6000976562</ele>
        <time>2015-03-23T09:24:28.000Z</time>
      </trkpt>
      <trkpt lat="45.15662" lon="6.34308">
        <ele>2219.3999023438</ele>
        <time>2015-03-23T09:24:34.000Z</time>
      </trkpt>
      <trkpt lat="45.15659" lon="6.34306">
        <ele>2219.1999511719</ele>
        <time>2015-03-23T09:24:36.000Z</time>
      </trkpt>
      <trkpt lat="45.15655" lon="6.34306">
        <ele>2218.6000976562</ele>
        <time>2015-03-23T09:24:40.000Z</time>
      </trkpt>
      <trkpt lat="45.1565" lon="6.34307">
        <ele>2218.3999023438</ele>
        <time>2015-03-23T09:24:49.000Z</time>
      </trkpt>
      <trkpt lat="45.15647" lon="6.3431">
        <ele>2218.1999511719</ele>
        <time>2015-03-23T09:24:53.000Z</time>
      </trkpt>
      <trkpt lat="45.15644" lon="6.34311">
        <ele>2218</ele>
        <time>2015-03-23T09:24:56.000Z</time>
      </trkpt>
      <trkpt lat="45.15633" lon="6.34311">
        <ele>2217.8000488281</ele>
        <time>2015-03-23T09:25:04.000Z</time>
      </trkpt>
      <trkpt lat="45.15627" lon="6.34309">
        <ele>2216.6000976562</ele>
        <time>2015-03-23T09:25:06.000Z</time>
      </trkpt>
      <trkpt lat="45.15623" lon="6.34306">
        <ele>2214.8000488281</ele>
        <time>2015-03-23T09:25:08.000Z</time>
      </trkpt>
      <trkpt lat="45.15621" lon="6.34304">
        <ele>2214</ele>
        <time>2015-03-23T09:25:09.000Z</time>
      </trkpt>
      <trkpt lat="45.1562" lon="6.34302">
        <ele>2213.3999023438</ele>
        <time>2015-03-23T09:25:10.000Z</time>
      </trkpt>
      <trkpt lat="45.15615" lon="6.34299">
        <ele>2212</ele>
        <time>2015-03-23T09:25:13.000Z</time>
      </trkpt>
      <trkpt lat="45.15612" lon="6.34298">
        <ele>2210.8000488281</ele>
        <time>2015-03-23T09:25:15.000Z</time>
      </trkpt>
      <trkpt lat="45.15611" lon="6.34297">
        <ele>2210.3999023438</ele>
        <time>2015-03-23T09:25:16.000Z</time>
      </trkpt>
      <trkpt lat="45.15609" lon="6.34297">
        <ele>2209.6000976562</ele>
        <time>2015-03-23T09:25:18.000Z</time>
      </trkpt>
      <trkpt lat="45.15604" lon="6.34297">
        <ele>2208.3999023438</ele>
        <time>2015-03-23T09:25:22.000Z</time>
      </trkpt>
      <trkpt lat="45.15603" lon="6.343">
        <ele>2207.8000488281</ele>
        <time>2015-03-23T09:25:24.000Z</time>
      </trkpt>
      <trkpt lat="45.15603" lon="6.343">
        <ele>2207.3999023438</ele>
        <time>2015-03-23T09:25:27.000Z</time>
      </trkpt>
      <trkpt lat="45.15603" lon="6.343">
        <ele>2207</ele>
        <time>2015-03-23T09:25:36.000Z</time>
      </trkpt>
      <trkpt lat="45.15604" lon="6.34297">
        <ele>2206.8000488281</ele>
        <time>2015-03-23T09:25:41.000Z</time>
      </trkpt>
      <trkpt lat="45.15606" lon="6.34294">
        <ele>2206.6000976562</ele>
        <time>2015-03-23T09:25:42.000Z</time>
      </trkpt>
      <trkpt lat="45.15612" lon="6.34284">
        <ele>2206.1999511719</ele>
        <time>2015-03-23T09:25:45.000Z</time>
      </trkpt>
      <trkpt lat="45.15614" lon="6.34277">
        <ele>2204.8000488281</ele>
        <time>2015-03-23T09:25:47.000Z</time>
      </trkpt>
      <trkpt lat="45.15615" lon="6.34275">
        <ele>2204</ele>
        <time>2015-03-23T09:25:48.000Z</time>
      </trkpt>
      <trkpt lat="45.15615" lon="6.34273">
        <ele>2203.1999511719</ele>
        <time>2015-03-23T09:25:49.000Z</time>
      </trkpt>
      <trkpt lat="45.15611" lon="6.34271">
        <ele>2202.6000976562</ele>
        <time>2015-03-23T09:25:51.000Z</time>
      </trkpt>
      <trkpt lat="45.15608" lon="6.34271">
        <ele>2201.6000976562</ele>
        <time>2015-03-23T09:25:52.000Z</time>
      </trkpt>
      <trkpt lat="45.15604" lon="6.34271">
        <ele>2200.1999511719</ele>
        <time>2015-03-23T09:25:53.000Z</time>
      </trkpt>
      <trkpt lat="45.156" lon="6.34271">
        <ele>2198.3999023438</ele>
        <time>2015-03-23T09:25:54.000Z</time>
      </trkpt>
      <trkpt lat="45.15597" lon="6.34271">
        <ele>2197</ele>
        <time>2015-03-23T09:25:55.000Z</time>
      </trkpt>
      <trkpt lat="45.15594" lon="6.34271">
        <ele>2196</ele>
        <time>2015-03-23T09:25:56.000Z</time>
      </trkpt>
      <trkpt lat="45.15589" lon="6.34271">
        <ele>2194.8000488281</ele>
        <time>2015-03-23T09:25:58.000Z</time>
      </trkpt>
      <trkpt lat="45.15584" lon="6.3427">
        <ele>2194.3999023438</ele>
        <time>2015-03-23T09:26:01.000Z</time>
      </trkpt>
      <trkpt lat="45.15577" lon="6.3427">
        <ele>2194.3999023438</ele>
        <time>2015-03-23T09:26:06.000Z</time>
      </trkpt>
      <trkpt lat="45.15565" lon="6.34269">
        <ele>2194.3999023438</ele>
        <time>2015-03-23T09:26:11.000Z</time>
      </trkpt>
      <trkpt lat="45.15559" lon="6.34267">
        <ele>2193.3999023438</ele>
        <time>2015-03-23T09:26:13.000Z</time>
      </trkpt>
      <trkpt lat="45.15555" lon="6.34265">
        <ele>2192.1999511719</ele>
        <time>2015-03-23T09:26:15.000Z</time>
      </trkpt>
      <trkpt lat="45.15554" lon="6.34265">
        <ele>2191.8000488281</ele>
        <time>2015-03-23T09:26:16.000Z</time>
      </trkpt>
      <trkpt lat="45.15549" lon="6.34263">
        <ele>2191.1999511719</ele>
        <time>2015-03-23T09:26:21.000Z</time>
      </trkpt>
      <trkpt lat="45.15549" lon="6.34263">
        <ele>2191.1999511719</ele>
        <time>2015-03-23T09:26:22.000Z</time>
      </trkpt>
      <trkpt lat="45.15545" lon="6.34261">
        <ele>2191</ele>
        <time>2015-03-23T09:26:28.000Z</time>
      </trkpt>
      <trkpt lat="45.15537" lon="6.3426">
        <ele>2191.8000488281</ele>
        <time>2015-03-23T09:26:35.000Z</time>
      </trkpt>
      <trkpt lat="45.15532" lon="6.34257">
        <ele>2191.6000976562</ele>
        <time>2015-03-23T09:26:41.000Z</time>
      </trkpt>
      <trkpt lat="45.15527" lon="6.34258">
        <ele>2192.1999511719</ele>
        <time>2015-03-23T09:26:46.000Z</time>
      </trkpt>
      <trkpt lat="45.15525" lon="6.34259">
        <ele>2192.8000488281</ele>
        <time>2015-03-23T09:26:48.000Z</time>
      </trkpt>
      <trkpt lat="45.15523" lon="6.3426">
        <ele>2193.3999023438</ele>
        <time>2015-03-23T09:26:52.000Z</time>
      </trkpt>
      <trkpt lat="45.15521" lon="6.3426">
        <ele>2193.8000488281</ele>
        <time>2015-03-23T09:26:54.000Z</time>
      </trkpt>
      <trkpt lat="45.15519" lon="6.3426">
        <ele>2194.3999023438</ele>
        <time>2015-03-23T09:26:56.000Z</time>
      </trkpt>
      <trkpt lat="45.15517" lon="6.34259">
        <ele>2195.1999511719</ele>
        <time>2015-03-23T09:26:59.000Z</time>
      </trkpt>
      <trkpt lat="45.15517" lon="6.34259">
        <ele>2195.6000976562</ele>
        <time>2015-03-23T09:27:00.000Z</time>
      </trkpt>
      <trkpt lat="45.15515" lon="6.34254">
        <ele>2196.6000976562</ele>
        <time>2015-03-23T09:27:04.000Z</time>
      </trkpt>
      <trkpt lat="45.15515" lon="6.34253">
        <ele>2197</ele>
        <time>2015-03-23T09:27:05.000Z</time>
      </trkpt>
      <trkpt lat="45.15516" lon="6.34248">
        <ele>2197.6000976562</ele>
        <time>2015-03-23T09:27:08.000Z</time>
      </trkpt>
      <trkpt lat="45.15518" lon="6.34245">
        <ele>2198.1999511719</ele>
        <time>2015-03-23T09:27:11.000Z</time>
      </trkpt>
      <trkpt lat="45.1552" lon="6.34242">
        <ele>2198.8000488281</ele>
        <time>2015-03-23T09:27:15.000Z</time>
      </trkpt>
      <trkpt lat="45.1552" lon="6.3424">
        <ele>2199.1999511719</ele>
        <time>2015-03-23T09:27:17.000Z</time>
      </trkpt>
      <trkpt lat="45.15519" lon="6.34239">
        <ele>2199.8000488281</ele>
        <time>2015-03-23T09:27:19.000Z</time>
      </trkpt>
      <trkpt lat="45.15517" lon="6.34238">
        <ele>2200.3999023438</ele>
        <time>2015-03-23T09:27:24.000Z</time>
      </trkpt>
      <trkpt lat="45.15514" lon="6.34237">
        <ele>2200.6000976562</ele>
        <time>2015-03-23T09:27:31.000Z</time>
      </trkpt>
      <trkpt lat="45.1551" lon="6.34236">
        <ele>2200.8000488281</ele>
        <time>2015-03-23T09:27:36.000Z</time>
      </trkpt>
      <trkpt lat="45.1551" lon="6.34236">
        <ele>2201</ele>
        <time>2015-03-23T09:27:37.000Z</time>
      </trkpt>
      <trkpt lat="45.15506" lon="6.34234">
        <ele>2201.6000976562</ele>
        <time>2015-03-23T09:27:42.000Z</time>
      </trkpt>
      <trkpt lat="45.15506" lon="6.34234">
        <ele>2202</ele>
        <time>2015-03-23T09:27:44.000Z</time>
      </trkpt>
      <trkpt lat="45.15504" lon="6.34234">
        <ele>2202.3999023438</ele>
        <time>2015-03-23T09:27:47.000Z</time>
      </trkpt>
      <trkpt lat="45.15502" lon="6.34232">
        <ele>2203.1999511719</ele>
        <time>2015-03-23T09:27:50.000Z</time>
      </trkpt>
      <trkpt lat="45.155" lon="6.3423">
        <ele>2203.8000488281</ele>
        <time>2015-03-23T09:27:53.000Z</time>
      </trkpt>
      <trkpt lat="45.15496" lon="6.34227">
        <ele>2204.1999511719</ele>
        <time>2015-03-23T09:27:57.000Z</time>
      </trkpt>
      <trkpt lat="45.15494" lon="6.34225">
        <ele>2204.6000976562</ele>
        <time>2015-03-23T09:27:59.000Z</time>
      </trkpt>
      <trkpt lat="45.15492" lon="6.34222">
        <ele>2205.1999511719</ele>
        <time>2015-03-23T09:28:02.000Z</time>
      </trkpt>
      <trkpt lat="45.1549" lon="6.3422">
        <ele>2205.6000976562</ele>
        <time>2015-03-23T09:28:05.000Z</time>
      </trkpt>
      <trkpt lat="45.15487" lon="6.34219">
        <ele>2206.3999023438</ele>
        <time>2015-03-23T09:28:09.000Z</time>
      </trkpt>
      <trkpt lat="45.15485" lon="6.34217">
        <ele>2207</ele>
        <time>2015-03-23T09:28:11.000Z</time>
      </trkpt>
      <trkpt lat="45.15483" lon="6.34215">
        <ele>2207.6000976562</ele>
        <time>2015-03-23T09:28:13.000Z</time>
      </trkpt>
      <trkpt lat="45.1548" lon="6.34213">
        <ele>2208.1999511719</ele>
        <time>2015-03-23T09:28:17.000Z</time>
      </trkpt>
      <trkpt lat="45.15478" lon="6.34211">
        <ele>2208.6000976562</ele>
        <time>2015-03-23T09:28:20.000Z</time>
      </trkpt>
      <trkpt lat="45.15477" lon="6.34211">
        <ele>2209</ele>
        <time>2015-03-23T09:28:23.000Z</time>
      </trkpt>
      <trkpt lat="45.15473" lon="6.34211">
        <ele>2209.6000976562</ele>
        <time>2015-03-23T09:28:27.000Z</time>
      </trkpt>
      <trkpt lat="45.15472" lon="6.34212">
        <ele>2210.1999511719</ele>
        <time>2015-03-23T09:28:30.000Z</time>
      </trkpt>
      <trkpt lat="45.1547" lon="6.34211">
        <ele>2210.8000488281</ele>
        <time>2015-03-23T09:28:33.000Z</time>
      </trkpt>
      <trkpt lat="45.15467" lon="6.3421">
        <ele>2211</ele>
        <time>2015-03-23T09:28:35.000Z</time>
      </trkpt>
      <trkpt lat="45.15464" lon="6.34208">
        <ele>2211.8000488281</ele>
        <time>2015-03-23T09:28:39.000Z</time>
      </trkpt>
      <trkpt lat="45.15462" lon="6.34207">
        <ele>2212</ele>
        <time>2015-03-23T09:28:41.000Z</time>
      </trkpt>
      <trkpt lat="45.15458" lon="6.34207">
        <ele>2212.8000488281</ele>
        <time>2015-03-23T09:28:46.000Z</time>
      </trkpt>
      <trkpt lat="45.15457" lon="6.34206">
        <ele>2213.3999023438</ele>
        <time>2015-03-23T09:28:48.000Z</time>
      </trkpt>
      <trkpt lat="45.15453" lon="6.34203">
        <ele>2214</ele>
        <time>2015-03-23T09:28:52.000Z</time>
      </trkpt>
      <trkpt lat="45.15452" lon="6.34203">
        <ele>2214.1999511719</ele>
        <time>2015-03-23T09:28:53.000Z</time>
      </trkpt>
      <trkpt lat="45.15447" lon="6.34203">
        <ele>2215.1999511719</ele>
        <time>2015-03-23T09:28:58.000Z</time>
      </trkpt>
      <trkpt lat="45.15446" lon="6.34203">
        <ele>2215.3999023438</ele>
        <time>2015-03-23T09:28:59.000Z</time>
      </trkpt>
      <trkpt lat="45.15442" lon="6.34202">
        <ele>2216.3999023438</ele>
        <time>2015-03-23T09:29:04.000Z</time>
      </trkpt>
      <trkpt lat="45.15438" lon="6.34204">
        <ele>2217.3999023438</ele>
        <time>2015-03-23T09:29:10.000Z</time>
      </trkpt>
      <trkpt lat="45.15437" lon="6.34204">
        <ele>2217.3999023438</ele>
        <time>2015-03-23T09:29:11.000Z</time>
      </trkpt>
      <trkpt lat="45.15435" lon="6.34205">
        <ele>2218</ele>
        <time>2015-03-23T09:29:16.000Z</time>
      </trkpt>
      <trkpt lat="45.15432" lon="6.34206">
        <ele>2218.6000976562</ele>
        <time>2015-03-23T09:29:20.000Z</time>
      </trkpt>
      <trkpt lat="45.15429" lon="6.34209">
        <ele>2219</ele>
        <time>2015-03-23T09:29:23.000Z</time>
      </trkpt>
      <trkpt lat="45.15424" lon="6.34208">
        <ele>2219.8000488281</ele>
        <time>2015-03-23T09:29:28.000Z</time>
      </trkpt>
      <trkpt lat="45.15422" lon="6.34207">
        <ele>2220</ele>
        <time>2015-03-23T09:29:30.000Z</time>
      </trkpt>
      <trkpt lat="45.15422" lon="6.34207">
        <ele>2220.1999511719</ele>
        <time>2015-03-23T09:29:39.000Z</time>
      </trkpt>
      <trkpt lat="45.15416" lon="6.34206">
        <ele>2220.3999023438</ele>
        <time>2015-03-23T09:29:45.000Z</time>
      </trkpt>
      <trkpt lat="45.15413" lon="6.34208">
        <ele>2220.8000488281</ele>
        <time>2015-03-23T09:29:48.000Z</time>
      </trkpt>
      <trkpt lat="45.15409" lon="6.34211">
        <ele>2221.3999023438</ele>
        <time>2015-03-23T09:29:54.000Z</time>
      </trkpt>
      <trkpt lat="45.15407" lon="6.34211">
        <ele>2221.8000488281</ele>
        <time>2015-03-23T09:29:56.000Z</time>
      </trkpt>
      <trkpt lat="45.15402" lon="6.34211">
        <ele>2222.3999023438</ele>
        <time>2015-03-23T09:30:00.000Z</time>
      </trkpt>
      <trkpt lat="45.15394" lon="6.34213">
        <ele>2222.6000976562</ele>
        <time>2015-03-23T09:30:07.000Z</time>
      </trkpt>
      <trkpt lat="45.15394" lon="6.34213">
        <ele>2222.8000488281</ele>
        <time>2015-03-23T09:30:08.000Z</time>
      </trkpt>
      <trkpt lat="45.1539" lon="6.34213">
        <ele>2223.6000976562</ele>
        <time>2015-03-23T09:30:14.000Z</time>
      </trkpt>
      <trkpt lat="45.15385" lon="6.34214">
        <ele>2223.6000976562</ele>
        <time>2015-03-23T09:30:19.000Z</time>
      </trkpt>
      <trkpt lat="45.15376" lon="6.34214">
        <ele>2224</ele>
        <time>2015-03-23T09:30:27.000Z</time>
      </trkpt>
      <trkpt lat="45.15369" lon="6.34211">
        <ele>2224.6000976562</ele>
        <time>2015-03-23T09:30:33.000Z</time>
      </trkpt>
      <trkpt lat="45.15367" lon="6.3421">
        <ele>2225.1999511719</ele>
        <time>2015-03-23T09:30:35.000Z</time>
      </trkpt>
      <trkpt lat="45.15363" lon="6.34208">
        <ele>2226.1999511719</ele>
        <time>2015-03-23T09:30:40.000Z</time>
      </trkpt>
      <trkpt lat="45.15362" lon="6.34208">
        <ele>2226.3999023438</ele>
        <time>2015-03-23T09:30:41.000Z</time>
      </trkpt>
      <trkpt lat="45.15358" lon="6.34208">
        <ele>2227.3999023438</ele>
        <time>2015-03-23T09:30:46.000Z</time>
      </trkpt>
      <trkpt lat="45.15357" lon="6.34208">
        <ele>2227.6000976562</ele>
        <time>2015-03-23T09:30:47.000Z</time>
      </trkpt>
      <trkpt lat="45.15353" lon="6.34207">
        <ele>2228.6000976562</ele>
        <time>2015-03-23T09:30:52.000Z</time>
      </trkpt>
      <trkpt lat="45.15348" lon="6.34209">
        <ele>2229.6000976562</ele>
        <time>2015-03-23T09:30:58.000Z</time>
      </trkpt>
      <trkpt lat="45.15343" lon="6.34211">
        <ele>2230.8000488281</ele>
        <time>2015-03-23T09:31:04.000Z</time>
      </trkpt>
      <trkpt lat="45.15342" lon="6.34211">
        <ele>2231</ele>
        <time>2015-03-23T09:31:05.000Z</time>
      </trkpt>
      <trkpt lat="45.15338" lon="6.34213">
        <ele>2232</ele>
        <time>2015-03-23T09:31:10.000Z</time>
      </trkpt>
      <trkpt lat="45.15338" lon="6.34213">
        <ele>2232</ele>
        <time>2015-03-23T09:31:11.000Z</time>
      </trkpt>
      <trkpt lat="45.15333" lon="6.34215">
        <ele>2233</ele>
        <time>2015-03-23T09:31:18.000Z</time>
      </trkpt>
      <trkpt lat="45.15328" lon="6.34218">
        <ele>2234.1999511719</ele>
        <time>2015-03-23T09:31:25.000Z</time>
      </trkpt>
      <trkpt lat="45.15327" lon="6.34218">
        <ele>2234.3999023438</ele>
        <time>2015-03-23T09:31:26.000Z</time>
      </trkpt>
      <trkpt lat="45.1532" lon="6.34217">
        <ele>2235</ele>
        <time>2015-03-23T09:31:33.000Z</time>
      </trkpt>
      <trkpt lat="45.15314" lon="6.34216">
        <ele>2235.3999023438</ele>
        <time>2015-03-23T09:31:39.000Z</time>
      </trkpt>
      <trkpt lat="45.1531" lon="6.3421">
        <ele>2236.1999511719</ele>
        <time>2015-03-23T09:31:46.000Z</time>
      </trkpt>
      <trkpt lat="45.15309" lon="6.34209">
        <ele>2236.6000976562</ele>
        <time>2015-03-23T09:31:47.000Z</time>
      </trkpt>
      <trkpt lat="45.15307" lon="6.34206">
        <ele>2237.6000976562</ele>
        <time>2015-03-23T09:31:51.000Z</time>
      </trkpt>
      <trkpt lat="45.15305" lon="6.34207">
        <ele>2238.3999023438</ele>
        <time>2015-03-23T09:31:56.000Z</time>
      </trkpt>
      <trkpt lat="45.15305" lon="6.3421">
        <ele>2238.8000488281</ele>
        <time>2015-03-23T09:31:58.000Z</time>
      </trkpt>
      <trkpt lat="45.15304" lon="6.34215">
        <ele>2239.6000976562</ele>
        <time>2015-03-23T09:32:03.000Z</time>
      </trkpt>
      <trkpt lat="45.15304" lon="6.34216">
        <ele>2240</ele>
        <time>2015-03-23T09:32:04.000Z</time>
      </trkpt>
      <trkpt lat="45.153" lon="6.3422">
        <ele>2241.1999511719</ele>
        <time>2015-03-23T09:32:11.000Z</time>
      </trkpt>
      <trkpt lat="45.15298" lon="6.34222">
        <ele>2242.1999511719</ele>
        <time>2015-03-23T09:32:14.000Z</time>
      </trkpt>
      <trkpt lat="45.15294" lon="6.34222">
        <ele>2243</ele>
        <time>2015-03-23T09:32:19.000Z</time>
      </trkpt>
      <trkpt lat="45.15294" lon="6.34223">
        <ele>2243.3999023438</ele>
        <time>2015-03-23T09:32:21.000Z</time>
      </trkpt>
      <trkpt lat="45.15291" lon="6.34225">
        <ele>2244</ele>
        <time>2015-03-23T09:32:25.000Z</time>
      </trkpt>
      <trkpt lat="45.15289" lon="6.34226">
        <ele>2244.6000976562</ele>
        <time>2015-03-23T09:32:28.000Z</time>
      </trkpt>
      <trkpt lat="45.15287" lon="6.34227">
        <ele>2245.6000976562</ele>
        <time>2015-03-23T09:32:33.000Z</time>
      </trkpt>
      <trkpt lat="45.15285" lon="6.34231">
        <ele>2246.8000488281</ele>
        <time>2015-03-23T09:32:38.000Z</time>
      </trkpt>
      <trkpt lat="45.15284" lon="6.34232">
        <ele>2247.3999023438</ele>
        <time>2015-03-23T09:32:40.000Z</time>
      </trkpt>
      <trkpt lat="45.15282" lon="6.34233">
        <ele>2248</ele>
        <time>2015-03-23T09:32:42.000Z</time>
      </trkpt>
      <trkpt lat="45.15279" lon="6.34234">
        <ele>2248.8000488281</ele>
        <time>2015-03-23T09:32:46.000Z</time>
      </trkpt>
      <trkpt lat="45.15278" lon="6.34234">
        <ele>2249</ele>
        <time>2015-03-23T09:32:47.000Z</time>
      </trkpt>
      <trkpt lat="45.15275" lon="6.34233">
        <ele>2250.1999511719</ele>
        <time>2015-03-23T09:32:52.000Z</time>
      </trkpt>
      <trkpt lat="45.15275" lon="6.34233">
        <ele>2250.3999023438</ele>
        <time>2015-03-23T09:32:53.000Z</time>
      </trkpt>
      <trkpt lat="45.15273" lon="6.34234">
        <ele>2251.1999511719</ele>
        <time>2015-03-23T09:32:58.000Z</time>
      </trkpt>
      <trkpt lat="45.15269" lon="6.34237">
        <ele>2252.3999023438</ele>
        <time>2015-03-23T09:33:03.000Z</time>
      </trkpt>
      <trkpt lat="45.15268" lon="6.34239">
        <ele>2252.8000488281</ele>
        <time>2015-03-23T09:33:05.000Z</time>
      </trkpt>
      <trkpt lat="45.15266" lon="6.3424">
        <ele>2253.3999023438</ele>
        <time>2015-03-23T09:33:09.000Z</time>
      </trkpt>
      <trkpt lat="45.15263" lon="6.34241">
        <ele>2254</ele>
        <time>2015-03-23T09:33:12.000Z</time>
      </trkpt>
      <trkpt lat="45.15261" lon="6.34242">
        <ele>2254.6000976562</ele>
        <time>2015-03-23T09:33:15.000Z</time>
      </trkpt>
      <trkpt lat="45.1526" lon="6.34242">
        <ele>2255.1999511719</ele>
        <time>2015-03-23T09:33:18.000Z</time>
      </trkpt>
      <trkpt lat="45.15259" lon="6.34242">
        <ele>2255.3999023438</ele>
        <time>2015-03-23T09:33:24.000Z</time>
      </trkpt>
      <trkpt lat="45.15255" lon="6.34243">
        <ele>2255.8000488281</ele>
        <time>2015-03-23T09:33:28.000Z</time>
      </trkpt>
      <trkpt lat="45.15254" lon="6.34244">
        <ele>2256.1999511719</ele>
        <time>2015-03-23T09:33:30.000Z</time>
      </trkpt>
      <trkpt lat="45.1525" lon="6.34248">
        <ele>2256.8000488281</ele>
        <time>2015-03-23T09:33:36.000Z</time>
      </trkpt>
      <trkpt lat="45.15246" lon="6.3425">
        <ele>2257.6000976562</ele>
        <time>2015-03-23T09:33:42.000Z</time>
      </trkpt>
      <trkpt lat="45.15244" lon="6.34252">
        <ele>2257.8000488281</ele>
        <time>2015-03-23T09:33:48.000Z</time>
      </trkpt>
      <trkpt lat="45.15244" lon="6.34252">
        <ele>2258</ele>
        <time>2015-03-23T09:33:49.000Z</time>
      </trkpt>
      <trkpt lat="45.15243" lon="6.34252">
        <ele>2258.3999023438</ele>
        <time>2015-03-23T09:33:59.000Z</time>
      </trkpt>
      <trkpt lat="45.15239" lon="6.34252">
        <ele>2258.6000976562</ele>
        <time>2015-03-23T09:34:06.000Z</time>
      </trkpt>
      <trkpt lat="45.15233" lon="6.34253">
        <ele>2259</ele>
        <time>2015-03-23T09:34:11.000Z</time>
      </trkpt>
      <trkpt lat="45.15231" lon="6.34254">
        <ele>2259.3999023438</ele>
        <time>2015-03-23T09:34:13.000Z</time>
      </trkpt>
      <trkpt lat="45.15228" lon="6.34255">
        <ele>2260</ele>
        <time>2015-03-23T09:34:16.000Z</time>
      </trkpt>
      <trkpt lat="45.15224" lon="6.34257">
        <ele>2260.8000488281</ele>
        <time>2015-03-23T09:34:20.000Z</time>
      </trkpt>
      <trkpt lat="45.15224" lon="6.34258">
        <ele>2261</ele>
        <time>2015-03-23T09:34:21.000Z</time>
      </trkpt>
      <trkpt lat="45.15219" lon="6.3426">
        <ele>2262.1999511719</ele>
        <time>2015-03-23T09:34:26.000Z</time>
      </trkpt>
      <trkpt lat="45.15215" lon="6.34263">
        <ele>2263.3999023438</ele>
        <time>2015-03-23T09:34:31.000Z</time>
      </trkpt>
      <trkpt lat="45.15213" lon="6.34266">
        <ele>2264.1999511719</ele>
        <time>2015-03-23T09:34:34.000Z</time>
      </trkpt>
      <trkpt lat="45.15212" lon="6.34267">
        <ele>2264.6000976562</ele>
        <time>2015-03-23T09:34:35.000Z</time>
      </trkpt>
      <trkpt lat="45.1521" lon="6.34269">
        <ele>2265.8000488281</ele>
        <time>2015-03-23T09:34:39.000Z</time>
      </trkpt>
      <trkpt lat="45.15209" lon="6.34269">
        <ele>2266</ele>
        <time>2015-03-23T09:34:40.000Z</time>
      </trkpt>
      <trkpt lat="45.15205" lon="6.34273">
        <ele>2266.8000488281</ele>
        <time>2015-03-23T09:34:45.000Z</time>
      </trkpt>
      <trkpt lat="45.15204" lon="6.34273">
        <ele>2267.1999511719</ele>
        <time>2015-03-23T09:34:47.000Z</time>
      </trkpt>
      <trkpt lat="45.15203" lon="6.34274">
        <ele>2267.3999023438</ele>
        <time>2015-03-23T09:34:48.000Z</time>
      </trkpt>
      <trkpt lat="45.15201" lon="6.34275">
        <ele>2267.8000488281</ele>
        <time>2015-03-23T09:34:50.000Z</time>
      </trkpt>
      <trkpt lat="45.15199" lon="6.34277">
        <ele>2268.3999023438</ele>
        <time>2015-03-23T09:34:53.000Z</time>
      </trkpt>
      <trkpt lat="45.15199" lon="6.34278">
        <ele>2268.8000488281</ele>
        <time>2015-03-23T09:34:55.000Z</time>
      </trkpt>
      <trkpt lat="45.15197" lon="6.34281">
        <ele>2269.1999511719</ele>
        <time>2015-03-23T09:34:59.000Z</time>
      </trkpt>
      <trkpt lat="45.15195" lon="6.34284">
        <ele>2269.8000488281</ele>
        <time>2015-03-23T09:35:02.000Z</time>
      </trkpt>
      <trkpt lat="45.15191" lon="6.34288">
        <ele>2270.3999023438</ele>
        <time>2015-03-23T09:35:06.000Z</time>
      </trkpt>
      <trkpt lat="45.1519" lon="6.34289">
        <ele>2270.8000488281</ele>
        <time>2015-03-23T09:35:08.000Z</time>
      </trkpt>
      <trkpt lat="45.15187" lon="6.34293">
        <ele>2271.3999023438</ele>
        <time>2015-03-23T09:35:12.000Z</time>
      </trkpt>
      <trkpt lat="45.15184" lon="6.34297">
        <ele>2272</ele>
        <time>2015-03-23T09:35:18.000Z</time>
      </trkpt>
      <trkpt lat="45.15183" lon="6.34298">
        <ele>2272</ele>
        <time>2015-03-23T09:35:19.000Z</time>
      </trkpt>
      <trkpt lat="45.15181" lon="6.34302">
        <ele>2273</ele>
        <time>2015-03-23T09:35:25.000Z</time>
      </trkpt>
      <trkpt lat="45.1518" lon="6.34303">
        <ele>2273.1999511719</ele>
        <time>2015-03-23T09:35:26.000Z</time>
      </trkpt>
      <trkpt lat="45.15175" lon="6.34307">
        <ele>2274</ele>
        <time>2015-03-23T09:35:33.000Z</time>
      </trkpt>
      <trkpt lat="45.15174" lon="6.34307">
        <ele>2274.1999511719</ele>
        <time>2015-03-23T09:35:34.000Z</time>
      </trkpt>
      <trkpt lat="45.15169" lon="6.3431">
        <ele>2275.3999023438</ele>
        <time>2015-03-23T09:35:40.000Z</time>
      </trkpt>
      <trkpt lat="45.15166" lon="6.34312">
        <ele>2276.3999023438</ele>
        <time>2015-03-23T09:35:45.000Z</time>
      </trkpt>
      <trkpt lat="45.15165" lon="6.34312">
        <ele>2276.6000976562</ele>
        <time>2015-03-23T09:35:46.000Z</time>
      </trkpt>
      <trkpt lat="45.15163" lon="6.34314">
        <ele>2277.6000976562</ele>
        <time>2015-03-23T09:35:50.000Z</time>
      </trkpt>
      <trkpt lat="45.15162" lon="6.34315">
        <ele>2277.8000488281</ele>
        <time>2015-03-23T09:35:52.000Z</time>
      </trkpt>
      <trkpt lat="45.15156" lon="6.34318">
        <ele>2278.3999023438</ele>
        <time>2015-03-23T09:36:00.000Z</time>
      </trkpt>
      <trkpt lat="45.15155" lon="6.34319">
        <ele>2278.8000488281</ele>
        <time>2015-03-23T09:36:01.000Z</time>
      </trkpt>
      <trkpt lat="45.15152" lon="6.34321">
        <ele>2279.6000976562</ele>
        <time>2015-03-23T09:36:06.000Z</time>
      </trkpt>
      <trkpt lat="45.15151" lon="6.34322">
        <ele>2279.8000488281</ele>
        <time>2015-03-23T09:36:07.000Z</time>
      </trkpt>
      <trkpt lat="45.15147" lon="6.34326">
        <ele>2281</ele>
        <time>2015-03-23T09:36:13.000Z</time>
      </trkpt>
      <trkpt lat="45.15144" lon="6.34332">
        <ele>2282</ele>
        <time>2015-03-23T09:36:19.000Z</time>
      </trkpt>
      <trkpt lat="45.15142" lon="6.34333">
        <ele>2282.1999511719</ele>
        <time>2015-03-23T09:36:20.000Z</time>
      </trkpt>
      <trkpt lat="45.15138" lon="6.34338">
        <ele>2283.1999511719</ele>
        <time>2015-03-23T09:36:26.000Z</time>
      </trkpt>
      <trkpt lat="45.15133" lon="6.34344">
        <ele>2283.8000488281</ele>
        <time>2015-03-23T09:36:34.000Z</time>
      </trkpt>
      <trkpt lat="45.1513" lon="6.34347">
        <ele>2284.3999023438</ele>
        <time>2015-03-23T09:36:38.000Z</time>
      </trkpt>
      <trkpt lat="45.1513" lon="6.34349">
        <ele>2284.6000976562</ele>
        <time>2015-03-23T09:36:40.000Z</time>
      </trkpt>
      <trkpt lat="45.15126" lon="6.34356">
        <ele>2285.3999023438</ele>
        <time>2015-03-23T09:36:46.000Z</time>
      </trkpt>
      <trkpt lat="45.15122" lon="6.34361">
        <ele>2286.3999023438</ele>
        <time>2015-03-23T09:36:51.000Z</time>
      </trkpt>
      <trkpt lat="45.15121" lon="6.34362">
        <ele>2287</ele>
        <time>2015-03-23T09:36:53.000Z</time>
      </trkpt>
      <trkpt lat="45.15118" lon="6.34364">
        <ele>2287.8000488281</ele>
        <time>2015-03-23T09:36:56.000Z</time>
      </trkpt>
      <trkpt lat="45.15117" lon="6.34364">
        <ele>2288.3999023438</ele>
        <time>2015-03-23T09:36:58.000Z</time>
      </trkpt>
      <trkpt lat="45.15115" lon="6.34365">
        <ele>2288.8000488281</ele>
        <time>2015-03-23T09:37:00.000Z</time>
      </trkpt>
      <trkpt lat="45.15111" lon="6.34368">
        <ele>2290</ele>
        <time>2015-03-23T09:37:05.000Z</time>
      </trkpt>
      <trkpt lat="45.15108" lon="6.34372">
        <ele>2291</ele>
        <time>2015-03-23T09:37:10.000Z</time>
      </trkpt>
      <trkpt lat="45.15107" lon="6.34374">
        <ele>2291.1999511719</ele>
        <time>2015-03-23T09:37:13.000Z</time>
      </trkpt>
      <trkpt lat="45.15105" lon="6.34376">
        <ele>2292</ele>
        <time>2015-03-23T09:37:16.000Z</time>
      </trkpt>
      <trkpt lat="45.15102" lon="6.3438">
        <ele>2293</ele>
        <time>2015-03-23T09:37:21.000Z</time>
      </trkpt>
      <trkpt lat="45.15101" lon="6.34381">
        <ele>2293.3999023438</ele>
        <time>2015-03-23T09:37:22.000Z</time>
      </trkpt>
      <trkpt lat="45.15099" lon="6.34387">
        <ele>2294.3999023438</ele>
        <time>2015-03-23T09:37:28.000Z</time>
      </trkpt>
      <trkpt lat="45.15096" lon="6.34393">
        <ele>2295.6000976562</ele>
        <time>2015-03-23T09:37:34.000Z</time>
      </trkpt>
      <trkpt lat="45.15095" lon="6.34396">
        <ele>2295.8000488281</ele>
        <time>2015-03-23T09:37:36.000Z</time>
      </trkpt>
      <trkpt lat="45.15092" lon="6.34405">
        <ele>2296.6000976562</ele>
        <time>2015-03-23T09:37:43.000Z</time>
      </trkpt>
      <trkpt lat="45.15091" lon="6.34406">
        <ele>2296.6000976562</ele>
        <time>2015-03-23T09:37:44.000Z</time>
      </trkpt>
      <trkpt lat="45.15088" lon="6.34413">
        <ele>2297.3999023438</ele>
        <time>2015-03-23T09:37:50.000Z</time>
      </trkpt>
      <trkpt lat="45.15086" lon="6.34415">
        <ele>2297.6000976562</ele>
        <time>2015-03-23T09:37:52.000Z</time>
      </trkpt>
      <trkpt lat="45.15086" lon="6.34416">
        <ele>2297.8000488281</ele>
        <time>2015-03-23T09:37:53.000Z</time>
      </trkpt>
      <trkpt lat="45.15084" lon="6.34421">
        <ele>2298</ele>
        <time>2015-03-23T09:37:56.000Z</time>
      </trkpt>
      <trkpt lat="45.1508" lon="6.34428">
        <ele>2298.6000976562</ele>
        <time>2015-03-23T09:38:03.000Z</time>
      </trkpt>
      <trkpt lat="45.15079" lon="6.34429">
        <ele>2298.8000488281</ele>
        <time>2015-03-23T09:38:04.000Z</time>
      </trkpt>
      <trkpt lat="45.15076" lon="6.34437">
        <ele>2300</ele>
        <time>2015-03-23T09:38:12.000Z</time>
      </trkpt>
      <trkpt lat="45.15073" lon="6.34442">
        <ele>2301.1999511719</ele>
        <time>2015-03-23T09:38:18.000Z</time>
      </trkpt>
      <trkpt lat="45.15072" lon="6.34443">
        <ele>2301.1999511719</ele>
        <time>2015-03-23T09:38:19.000Z</time>
      </trkpt>
      <trkpt lat="45.15068" lon="6.34449">
        <ele>2302.1999511719</ele>
        <time>2015-03-23T09:38:25.000Z</time>
      </trkpt>
      <trkpt lat="45.15068" lon="6.3445">
        <ele>2302.3999023438</ele>
        <time>2015-03-23T09:38:26.000Z</time>
      </trkpt>
      <trkpt lat="45.15063" lon="6.34459">
        <ele>2303</ele>
        <time>2015-03-23T09:38:33.000Z</time>
      </trkpt>
      <trkpt lat="45.15062" lon="6.34461">
        <ele>2303.1999511719</ele>
        <time>2015-03-23T09:38:35.000Z</time>
      </trkpt>
      <trkpt lat="45.15058" lon="6.34464">
        <ele>2304.1999511719</ele>
        <time>2015-03-23T09:38:39.000Z</time>
      </trkpt>
      <trkpt lat="45.15057" lon="6.34466">
        <ele>2304.3999023438</ele>
        <time>2015-03-23T09:38:42.000Z</time>
      </trkpt>
      <trkpt lat="45.15051" lon="6.34474">
        <ele>2304.8000488281</ele>
        <time>2015-03-23T09:38:49.000Z</time>
      </trkpt>
      <trkpt lat="45.15048" lon="6.34477">
        <ele>2305.3999023438</ele>
        <time>2015-03-23T09:38:53.000Z</time>
      </trkpt>
      <trkpt lat="45.15045" lon="6.34482">
        <ele>2305.8000488281</ele>
        <time>2015-03-23T09:38:58.000Z</time>
      </trkpt>
      <trkpt lat="45.15041" lon="6.34487">
        <ele>2306</ele>
        <time>2015-03-23T09:39:04.000Z</time>
      </trkpt>
      <trkpt lat="45.15038" lon="6.34491">
        <ele>2306.3999023438</ele>
        <time>2015-03-23T09:39:08.000Z</time>
      </trkpt>
      <trkpt lat="45.15034" lon="6.34493">
        <ele>2306.8000488281</ele>
        <time>2015-03-23T09:39:12.000Z</time>
      </trkpt>
      <trkpt lat="45.15028" lon="6.34497">
        <ele>2307.3999023438</ele>
        <time>2015-03-23T09:39:18.000Z</time>
      </trkpt>
      <trkpt lat="45.15023" lon="6.34502">
        <ele>2307.8000488281</ele>
        <time>2015-03-23T09:39:24.000Z</time>
      </trkpt>
      <trkpt lat="45.15017" lon="6.34507">
        <ele>2308.3999023438</ele>
        <time>2015-03-23T09:39:31.000Z</time>
      </trkpt>
      <trkpt lat="45.1501" lon="6.34512">
        <ele>2309.1999511719</ele>
        <time>2015-03-23T09:39:39.000Z</time>
      </trkpt>
      <trkpt lat="45.15006" lon="6.34514">
        <ele>2309.6000976562</ele>
        <time>2015-03-23T09:39:43.000Z</time>
      </trkpt>
      <trkpt lat="45.15003" lon="6.34517">
        <ele>2309.8000488281</ele>
        <time>2015-03-23T09:39:46.000Z</time>
      </trkpt>
      <trkpt lat="45.14998" lon="6.3452">
        <ele>2310.6000976562</ele>
        <time>2015-03-23T09:39:52.000Z</time>
      </trkpt>
      <trkpt lat="45.14993" lon="6.34525">
        <ele>2311.3999023438</ele>
        <time>2015-03-23T09:39:59.000Z</time>
      </trkpt>
      <trkpt lat="45.14991" lon="6.34527">
        <ele>2311.6000976562</ele>
        <time>2015-03-23T09:40:01.000Z</time>
      </trkpt>
      <trkpt lat="45.14987" lon="6.34531">
        <ele>2312.3999023438</ele>
        <time>2015-03-23T09:40:07.000Z</time>
      </trkpt>
      <trkpt lat="45.14986" lon="6.34533">
        <ele>2312.8000488281</ele>
        <time>2015-03-23T09:40:09.000Z</time>
      </trkpt>
      <trkpt lat="45.14981" lon="6.34536">
        <ele>2313.3999023438</ele>
        <time>2015-03-23T09:40:14.000Z</time>
      </trkpt>
      <trkpt lat="45.14979" lon="6.34537">
        <ele>2313.8000488281</ele>
        <time>2015-03-23T09:40:16.000Z</time>
      </trkpt>
      <trkpt lat="45.14975" lon="6.3454">
        <ele>2314.6000976562</ele>
        <time>2015-03-23T09:40:21.000Z</time>
      </trkpt>
      <trkpt lat="45.14973" lon="6.34542">
        <ele>2314.8000488281</ele>
        <time>2015-03-23T09:40:23.000Z</time>
      </trkpt>
      <trkpt lat="45.1497" lon="6.34546">
        <ele>2315.3999023438</ele>
        <time>2015-03-23T09:40:28.000Z</time>
      </trkpt>
      <trkpt lat="45.14968" lon="6.3455">
        <ele>2316</ele>
        <time>2015-03-23T09:40:32.000Z</time>
      </trkpt>
      <trkpt lat="45.14966" lon="6.34552">
        <ele>2316.1999511719</ele>
        <time>2015-03-23T09:40:35.000Z</time>
      </trkpt>
      <trkpt lat="45.1496" lon="6.34559">
        <ele>2316.8000488281</ele>
        <time>2015-03-23T09:40:42.000Z</time>
      </trkpt>
      <trkpt lat="45.14958" lon="6.3456">
        <ele>2317</ele>
        <time>2015-03-23T09:40:44.000Z</time>
      </trkpt>
      <trkpt lat="45.14955" lon="6.34563">
        <ele>2317.6000976562</ele>
        <time>2015-03-23T09:40:48.000Z</time>
      </trkpt>
      <trkpt lat="45.14953" lon="6.34566">
        <ele>2318</ele>
        <time>2015-03-23T09:40:51.000Z</time>
      </trkpt>
      <trkpt lat="45.1495" lon="6.34572">
        <ele>2318.6000976562</ele>
        <time>2015-03-23T09:40:56.000Z</time>
      </trkpt>
      <trkpt lat="45.14949" lon="6.34574">
        <ele>2319</ele>
        <time>2015-03-23T09:40:58.000Z</time>
      </trkpt>
      <trkpt lat="45.14947" lon="6.34578">
        <ele>2319.8000488281</ele>
        <time>2015-03-23T09:41:02.000Z</time>
      </trkpt>
      <trkpt lat="45.14946" lon="6.3458">
        <ele>2320</ele>
        <time>2015-03-23T09:41:03.000Z</time>
      </trkpt>
      <trkpt lat="45.14943" lon="6.34586">
        <ele>2321.1999511719</ele>
        <time>2015-03-23T09:41:09.000Z</time>
      </trkpt>
      <trkpt lat="45.14941" lon="6.34589">
        <ele>2322.3999023438</ele>
        <time>2015-03-23T09:41:13.000Z</time>
      </trkpt>
      <trkpt lat="45.14939" lon="6.3459">
        <ele>2323.1999511719</ele>
        <time>2015-03-23T09:41:16.000Z</time>
      </trkpt>
      <trkpt lat="45.14938" lon="6.34591">
        <ele>2323.6000976562</ele>
        <time>2015-03-23T09:41:17.000Z</time>
      </trkpt>
      <trkpt lat="45.14934" lon="6.34592">
        <ele>2324.6000976562</ele>
        <time>2015-03-23T09:41:22.000Z</time>
      </trkpt>
      <trkpt lat="45.14934" lon="6.34592">
        <ele>2324.8000488281</ele>
        <time>2015-03-23T09:41:23.000Z</time>
      </trkpt>
      <trkpt lat="45.14931" lon="6.34593">
        <ele>2325.6000976562</ele>
        <time>2015-03-23T09:41:26.000Z</time>
      </trkpt>
      <trkpt lat="45.14928" lon="6.34595">
        <ele>2326.3999023438</ele>
        <time>2015-03-23T09:41:30.000Z</time>
      </trkpt>
      <trkpt lat="45.14926" lon="6.34596">
        <ele>2326.8000488281</ele>
        <time>2015-03-23T09:41:32.000Z</time>
      </trkpt>
      <trkpt lat="45.14924" lon="6.34599">
        <ele>2327.8000488281</ele>
        <time>2015-03-23T09:41:37.000Z</time>
      </trkpt>
      <trkpt lat="45.14923" lon="6.34599">
        <ele>2327.8000488281</ele>
        <time>2015-03-23T09:41:38.000Z</time>
      </trkpt>
      <trkpt lat="45.14919" lon="6.34603">
        <ele>2329</ele>
        <time>2015-03-23T09:41:45.000Z</time>
      </trkpt>
      <trkpt lat="45.14914" lon="6.34608">
        <ele>2330</ele>
        <time>2015-03-23T09:41:51.000Z</time>
      </trkpt>
      <trkpt lat="45.14914" lon="6.34608">
        <ele>2330.1999511719</ele>
        <time>2015-03-23T09:41:52.000Z</time>
      </trkpt>
      <trkpt lat="45.14911" lon="6.34611">
        <ele>2331.1999511719</ele>
        <time>2015-03-23T09:41:56.000Z</time>
      </trkpt>
      <trkpt lat="45.1491" lon="6.34614">
        <ele>2331.6000976562</ele>
        <time>2015-03-23T09:42:00.000Z</time>
      </trkpt>
      <trkpt lat="45.14908" lon="6.34615">
        <ele>2332.1999511719</ele>
        <time>2015-03-23T09:42:02.000Z</time>
      </trkpt>
      <trkpt lat="45.14905" lon="6.34618">
        <ele>2333.1999511719</ele>
        <time>2015-03-23T09:42:08.000Z</time>
      </trkpt>
      <trkpt lat="45.14904" lon="6.34619">
        <ele>2333.3999023438</ele>
        <time>2015-03-23T09:42:09.000Z</time>
      </trkpt>
      <trkpt lat="45.149" lon="6.34622">
        <ele>2334.6000976562</ele>
        <time>2015-03-23T09:42:14.000Z</time>
      </trkpt>
      <trkpt lat="45.149" lon="6.34622">
        <ele>2334.8000488281</ele>
        <time>2015-03-23T09:42:15.000Z</time>
      </trkpt>
      <trkpt lat="45.14895" lon="6.34627">
        <ele>2335.8000488281</ele>
        <time>2015-03-23T09:42:21.000Z</time>
      </trkpt>
      <trkpt lat="45.14895" lon="6.34627">
        <ele>2335.8000488281</ele>
        <time>2015-03-23T09:42:22.000Z</time>
      </trkpt>
      <trkpt lat="45.1489" lon="6.3463">
        <ele>2336.8000488281</ele>
        <time>2015-03-23T09:42:28.000Z</time>
      </trkpt>
      <trkpt lat="45.14889" lon="6.34631">
        <ele>2337</ele>
        <time>2015-03-23T09:42:29.000Z</time>
      </trkpt>
      <trkpt lat="45.14886" lon="6.34634">
        <ele>2337.8000488281</ele>
        <time>2015-03-23T09:42:35.000Z</time>
      </trkpt>
      <trkpt lat="45.14885" lon="6.34636">
        <ele>2338.3999023438</ele>
        <time>2015-03-23T09:42:37.000Z</time>
      </trkpt>
      <trkpt lat="45.14884" lon="6.34636">
        <ele>2339</ele>
        <time>2015-03-23T09:42:39.000Z</time>
      </trkpt>
      <trkpt lat="45.1488" lon="6.34638">
        <ele>2339.6000976562</ele>
        <time>2015-03-23T09:42:44.000Z</time>
      </trkpt>
      <trkpt lat="45.14879" lon="6.34639">
        <ele>2340</ele>
        <time>2015-03-23T09:42:46.000Z</time>
      </trkpt>
      <trkpt lat="45.14877" lon="6.34642">
        <ele>2340.3999023438</ele>
        <time>2015-03-23T09:42:50.000Z</time>
      </trkpt>
      <trkpt lat="45.14876" lon="6.34643">
        <ele>2341</ele>
        <time>2015-03-23T09:42:52.000Z</time>
      </trkpt>
      <trkpt lat="45.14872" lon="6.34646">
        <ele>2341.6000976562</ele>
        <time>2015-03-23T09:42:57.000Z</time>
      </trkpt>
      <trkpt lat="45.14871" lon="6.34647">
        <ele>2342</ele>
        <time>2015-03-23T09:42:59.000Z</time>
      </trkpt>
      <trkpt lat="45.14869" lon="6.3465">
        <ele>2343.1999511719</ele>
        <time>2015-03-23T09:43:04.000Z</time>
      </trkpt>
      <trkpt lat="45.14866" lon="6.34654">
        <ele>2344.1999511719</ele>
        <time>2015-03-23T09:43:11.000Z</time>
      </trkpt>
      <trkpt lat="45.14865" lon="6.34655">
        <ele>2344.3999023438</ele>
        <time>2015-03-23T09:43:12.000Z</time>
      </trkpt>
      <trkpt lat="45.14862" lon="6.34658">
        <ele>2345.3999023438</ele>
        <time>2015-03-23T09:43:16.000Z</time>
      </trkpt>
      <trkpt lat="45.14858" lon="6.34662">
        <ele>2346.3999023438</ele>
        <time>2015-03-23T09:43:22.000Z</time>
      </trkpt>
      <trkpt lat="45.14857" lon="6.34662">
        <ele>2346.6000976562</ele>
        <time>2015-03-23T09:43:23.000Z</time>
      </trkpt>
      <trkpt lat="45.14853" lon="6.34664">
        <ele>2347.6000976562</ele>
        <time>2015-03-23T09:43:28.000Z</time>
      </trkpt>
      <trkpt lat="45.14852" lon="6.34664">
        <ele>2347.8000488281</ele>
        <time>2015-03-23T09:43:29.000Z</time>
      </trkpt>
      <trkpt lat="45.14848" lon="6.34666">
        <ele>2348.6000976562</ele>
        <time>2015-03-23T09:43:34.000Z</time>
      </trkpt>
      <trkpt lat="45.14847" lon="6.34667">
        <ele>2349</ele>
        <time>2015-03-23T09:43:36.000Z</time>
      </trkpt>
      <trkpt lat="45.14843" lon="6.34669">
        <ele>2349.8000488281</ele>
        <time>2015-03-23T09:43:41.000Z</time>
      </trkpt>
      <trkpt lat="45.14841" lon="6.3467">
        <ele>2350.1999511719</ele>
        <time>2015-03-23T09:43:44.000Z</time>
      </trkpt>
      <trkpt lat="45.14838" lon="6.34671">
        <ele>2350.8000488281</ele>
        <time>2015-03-23T09:43:48.000Z</time>
      </trkpt>
      <trkpt lat="45.14835" lon="6.34673">
        <ele>2351.6000976562</ele>
        <time>2015-03-23T09:43:52.000Z</time>
      </trkpt>
      <trkpt lat="45.14833" lon="6.34673">
        <ele>2351.8000488281</ele>
        <time>2015-03-23T09:43:54.000Z</time>
      </trkpt>
      <trkpt lat="45.14829" lon="6.34675">
        <ele>2352.3999023438</ele>
        <time>2015-03-23T09:43:59.000Z</time>
      </trkpt>
      <trkpt lat="45.14827" lon="6.34676">
        <ele>2353</ele>
        <time>2015-03-23T09:44:03.000Z</time>
      </trkpt>
      <trkpt lat="45.14824" lon="6.34678">
        <ele>2353.3999023438</ele>
        <time>2015-03-23T09:44:07.000Z</time>
      </trkpt>
      <trkpt lat="45.14818" lon="6.34682">
        <ele>2354</ele>
        <time>2015-03-23T09:44:13.000Z</time>
      </trkpt>
      <trkpt lat="45.14817" lon="6.34683">
        <ele>2354.6000976562</ele>
        <time>2015-03-23T09:44:15.000Z</time>
      </trkpt>
      <trkpt lat="45.14813" lon="6.34684">
        <ele>2355.1999511719</ele>
        <time>2015-03-23T09:44:20.000Z</time>
      </trkpt>
      <trkpt lat="45.14811" lon="6.34684">
        <ele>2355.3999023438</ele>
        <time>2015-03-23T09:44:22.000Z</time>
      </trkpt>
      <trkpt lat="45.14804" lon="6.34685">
        <ele>2356</ele>
        <time>2015-03-23T09:44:30.000Z</time>
      </trkpt>
      <trkpt lat="45.14803" lon="6.34685">
        <ele>2356.1999511719</ele>
        <time>2015-03-23T09:44:32.000Z</time>
      </trkpt>
      <trkpt lat="45.14798" lon="6.34688">
        <ele>2356.8000488281</ele>
        <time>2015-03-23T09:44:37.000Z</time>
      </trkpt>
      <trkpt lat="45.14796" lon="6.3469">
        <ele>2357.3999023438</ele>
        <time>2015-03-23T09:44:40.000Z</time>
      </trkpt>
      <trkpt lat="45.14793" lon="6.34692">
        <ele>2357.6000976562</ele>
        <time>2015-03-23T09:44:44.000Z</time>
      </trkpt>
      <trkpt lat="45.14791" lon="6.34693">
        <ele>2357.8000488281</ele>
        <time>2015-03-23T09:44:46.000Z</time>
      </trkpt>
      <trkpt lat="45.14784" lon="6.34696">
        <ele>2358.3999023438</ele>
        <time>2015-03-23T09:44:54.000Z</time>
      </trkpt>
      <trkpt lat="45.14783" lon="6.34696">
        <ele>2358.3999023438</ele>
        <time>2015-03-23T09:44:55.000Z</time>
      </trkpt>
      <trkpt lat="45.14776" lon="6.34698">
        <ele>2358.8000488281</ele>
        <time>2015-03-23T09:45:02.000Z</time>
      </trkpt>
      <trkpt lat="45.14769" lon="6.34701">
        <ele>2359.3999023438</ele>
        <time>2015-03-23T09:45:09.000Z</time>
      </trkpt>
      <trkpt lat="45.14766" lon="6.34701">
        <ele>2359.6000976562</ele>
        <time>2015-03-23T09:45:12.000Z</time>
      </trkpt>
      <trkpt lat="45.14762" lon="6.34701">
        <ele>2360.1999511719</ele>
        <time>2015-03-23T09:45:16.000Z</time>
      </trkpt>
      <trkpt lat="45.14759" lon="6.34703">
        <ele>2360.6000976562</ele>
        <time>2015-03-23T09:45:20.000Z</time>
      </trkpt>
      <trkpt lat="45.14756" lon="6.34705">
        <ele>2360.8000488281</ele>
        <time>2015-03-23T09:45:23.000Z</time>
      </trkpt>
      <trkpt lat="45.14751" lon="6.34706">
        <ele>2361.8000488281</ele>
        <time>2015-03-23T09:45:28.000Z</time>
      </trkpt>
      <trkpt lat="45.1475" lon="6.34706">
        <ele>2362.1999511719</ele>
        <time>2015-03-23T09:45:29.000Z</time>
      </trkpt>
      <trkpt lat="45.14745" lon="6.3471">
        <ele>2363</ele>
        <time>2015-03-23T09:45:36.000Z</time>
      </trkpt>
      <trkpt lat="45.14745" lon="6.3471">
        <ele>2363.1999511719</ele>
        <time>2015-03-23T09:45:37.000Z</time>
      </trkpt>
      <trkpt lat="45.1474" lon="6.34713">
        <ele>2364.1999511719</ele>
        <time>2015-03-23T09:45:43.000Z</time>
      </trkpt>
      <trkpt lat="45.14738" lon="6.34713">
        <ele>2364.3999023438</ele>
        <time>2015-03-23T09:45:45.000Z</time>
      </trkpt>
      <trkpt lat="45.14736" lon="6.34715">
        <ele>2365.1999511719</ele>
        <time>2015-03-23T09:45:49.000Z</time>
      </trkpt>
      <trkpt lat="45.14733" lon="6.34717">
        <ele>2366.3999023438</ele>
        <time>2015-03-23T09:45:53.000Z</time>
      </trkpt>
      <trkpt lat="45.14731" lon="6.3472">
        <ele>2367.3999023438</ele>
        <time>2015-03-23T09:45:58.000Z</time>
      </trkpt>
      <trkpt lat="45.14731" lon="6.34722">
        <ele>2367.8000488281</ele>
        <time>2015-03-23T09:46:00.000Z</time>
      </trkpt>
      <trkpt lat="45.14729" lon="6.34726">
        <ele>2368.6000976562</ele>
        <time>2015-03-23T09:46:04.000Z</time>
      </trkpt>
      <trkpt lat="45.14727" lon="6.34729">
        <ele>2369</ele>
        <time>2015-03-23T09:46:07.000Z</time>
      </trkpt>
      <trkpt lat="45.14726" lon="6.34732">
        <ele>2369.8000488281</ele>
        <time>2015-03-23T09:46:10.000Z</time>
      </trkpt>
      <trkpt lat="45.14725" lon="6.34734">
        <ele>2370.3999023438</ele>
        <time>2015-03-23T09:46:13.000Z</time>
      </trkpt>
      <trkpt lat="45.14724" lon="6.34736">
        <ele>2371.1999511719</ele>
        <time>2015-03-23T09:46:16.000Z</time>
      </trkpt>
      <trkpt lat="45.14723" lon="6.3474">
        <ele>2371.8000488281</ele>
        <time>2015-03-23T09:46:19.000Z</time>
      </trkpt>
      <trkpt lat="45.14722" lon="6.34744">
        <ele>2372.3999023438</ele>
        <time>2015-03-23T09:46:23.000Z</time>
      </trkpt>
      <trkpt lat="45.14721" lon="6.34746">
        <ele>2372.8000488281</ele>
        <time>2015-03-23T09:46:25.000Z</time>
      </trkpt>
      <trkpt lat="45.14719" lon="6.34749">
        <ele>2373.6000976562</ele>
        <time>2015-03-23T09:46:29.000Z</time>
      </trkpt>
      <trkpt lat="45.14719" lon="6.34749">
        <ele>2374.1999511719</ele>
        <time>2015-03-23T09:46:31.000Z</time>
      </trkpt>
      <trkpt lat="45.14719" lon="6.34749">
        <ele>2374.3999023438</ele>
        <time>2015-03-23T09:46:48.000Z</time>
      </trkpt>
      <trkpt lat="45.14718" lon="6.34754">
        <ele>2374.3999023438</ele>
        <time>2015-03-23T09:46:54.000Z</time>
      </trkpt>
      <trkpt lat="45.14717" lon="6.34756">
        <ele>2374.8000488281</ele>
        <time>2015-03-23T09:46:56.000Z</time>
      </trkpt>
      <trkpt lat="45.14715" lon="6.3476">
        <ele>2375.8000488281</ele>
        <time>2015-03-23T09:46:59.000Z</time>
      </trkpt>
      <trkpt lat="45.14714" lon="6.34761">
        <ele>2376</ele>
        <time>2015-03-23T09:47:00.000Z</time>
      </trkpt>
      <trkpt lat="45.14713" lon="6.34764">
        <ele>2377.3999023438</ele>
        <time>2015-03-23T09:47:04.000Z</time>
      </trkpt>
      <trkpt lat="45.14712" lon="6.34765">
        <ele>2377.6000976562</ele>
        <time>2015-03-23T09:47:05.000Z</time>
      </trkpt>
      <trkpt lat="45.1471" lon="6.34767">
        <ele>2378.3999023438</ele>
        <time>2015-03-23T09:47:08.000Z</time>
      </trkpt>
      <trkpt lat="45.14708" lon="6.34769">
        <ele>2379</ele>
        <time>2015-03-23T09:47:11.000Z</time>
      </trkpt>
      <trkpt lat="45.14705" lon="6.34771">
        <ele>2379.6000976562</ele>
        <time>2015-03-23T09:47:14.000Z</time>
      </trkpt>
      <trkpt lat="45.14702" lon="6.34773">
        <ele>2380.3999023438</ele>
        <time>2015-03-23T09:47:19.000Z</time>
      </trkpt>
      <trkpt lat="45.14701" lon="6.34773">
        <ele>2380.8000488281</ele>
        <time>2015-03-23T09:47:21.000Z</time>
      </trkpt>
      <trkpt lat="45.147" lon="6.34775">
        <ele>2381.1999511719</ele>
        <time>2015-03-23T09:47:25.000Z</time>
      </trkpt>
      <trkpt lat="45.14699" lon="6.34775">
        <ele>2381.8000488281</ele>
        <time>2015-03-23T09:47:28.000Z</time>
      </trkpt>
      <trkpt lat="45.14699" lon="6.34775">
        <ele>2382</ele>
        <time>2015-03-23T09:47:34.000Z</time>
      </trkpt>
      <trkpt lat="45.14699" lon="6.34775">
        <ele>2382</ele>
        <time>2015-03-23T09:47:48.000Z</time>
      </trkpt>
      <trkpt lat="45.14699" lon="6.34775">
        <ele>2381.8000488281</ele>
        <time>2015-03-23T09:48:00.000Z</time>
      </trkpt>
      <trkpt lat="45.14699" lon="6.34775">
        <ele>2381.8000488281</ele>
        <time>2015-03-23T09:48:16.000Z</time>
      </trkpt>
      <trkpt lat="45.14699" lon="6.34775">
        <ele>2382</ele>
        <time>2015-03-23T09:48:34.000Z</time>
      </trkpt>
      <trkpt lat="45.147" lon="6.34775">
        <ele>2382</ele>
        <time>2015-03-23T09:48:47.000Z</time>
      </trkpt>
      <trkpt lat="45.14699" lon="6.34774">
        <ele>2381.8000488281</ele>
        <time>2015-03-23T09:49:04.000Z</time>
      </trkpt>
      <trkpt lat="45.14698" lon="6.34774">
        <ele>2382.1999511719</ele>
        <time>2015-03-23T09:49:16.000Z</time>
      </trkpt>
      <trkpt lat="45.14698" lon="6.34774">
        <ele>2382.1999511719</ele>
        <time>2015-03-23T09:49:34.000Z</time>
      </trkpt>
      <trkpt lat="45.14699" lon="6.34774">
        <ele>2382.1999511719</ele>
        <time>2015-03-23T09:49:50.000Z</time>
      </trkpt>
      <trkpt lat="45.14699" lon="6.34774">
        <ele>2382.1999511719</ele>
        <time>2015-03-23T09:50:04.000Z</time>
      </trkpt>
      <trkpt lat="45.14699" lon="6.34774">
        <ele>2382.1999511719</ele>
        <time>2015-03-23T09:50:06.000Z</time>
      </trkpt>
      <trkpt lat="45.14697" lon="6.34778">
        <ele>2382.6000976562</ele>
        <time>2015-03-23T09:50:13.000Z</time>
      </trkpt>
      <trkpt lat="45.14694" lon="6.34781">
        <ele>2382.8000488281</ele>
        <time>2015-03-23T09:50:16.000Z</time>
      </trkpt>
      <trkpt lat="45.1469" lon="6.34787">
        <ele>2383.3999023438</ele>
        <time>2015-03-23T09:50:21.000Z</time>
      </trkpt>
      <trkpt lat="45.14687" lon="6.34789">
        <ele>2384</ele>
        <time>2015-03-23T09:50:25.000Z</time>
      </trkpt>
      <trkpt lat="45.14685" lon="6.34792">
        <ele>2384.3999023438</ele>
        <time>2015-03-23T09:50:27.000Z</time>
      </trkpt>
      <trkpt lat="45.14682" lon="6.34794">
        <ele>2385.1999511719</ele>
        <time>2015-03-23T09:50:31.000Z</time>
      </trkpt>
      <trkpt lat="45.1468" lon="6.34797">
        <ele>2385.3999023438</ele>
        <time>2015-03-23T09:50:33.000Z</time>
      </trkpt>
      <trkpt lat="45.14676" lon="6.34798">
        <ele>2386.1999511719</ele>
        <time>2015-03-23T09:50:38.000Z</time>
      </trkpt>
      <trkpt lat="45.14673" lon="6.34798">
        <ele>2386.8000488281</ele>
        <time>2015-03-23T09:50:41.000Z</time>
      </trkpt>
      <trkpt lat="45.14665" lon="6.34799">
        <ele>2386.3999023438</ele>
        <time>2015-03-23T09:50:49.000Z</time>
      </trkpt>
      <trkpt lat="45.14662" lon="6.34799">
        <ele>2386.3999023438</ele>
        <time>2015-03-23T09:50:51.000Z</time>
      </trkpt>
      <trkpt lat="45.14652" lon="6.34799">
        <ele>2385</ele>
        <time>2015-03-23T09:50:56.000Z</time>
      </trkpt>
      <trkpt lat="45.1465" lon="6.34799">
        <ele>2384.6000976562</ele>
        <time>2015-03-23T09:50:57.000Z</time>
      </trkpt>
      <trkpt lat="45.14645" lon="6.34801">
        <ele>2383.6000976562</ele>
        <time>2015-03-23T09:50:59.000Z</time>
      </trkpt>
      <trkpt lat="45.14638" lon="6.34803">
        <ele>2382.1999511719</ele>
        <time>2015-03-23T09:51:02.000Z</time>
      </trkpt>
      <trkpt lat="45.14636" lon="6.34804">
        <ele>2380.6000976562</ele>
        <time>2015-03-23T09:51:04.000Z</time>
      </trkpt>
      <trkpt lat="45.14634" lon="6.34809">
        <ele>2379.6000976562</ele>
        <time>2015-03-23T09:51:08.000Z</time>
      </trkpt>
      <trkpt lat="45.14635" lon="6.34809">
        <ele>2379.6000976562</ele>
        <time>2015-03-23T09:51:10.000Z</time>
      </trkpt>
      <trkpt lat="45.14635" lon="6.34809">
        <ele>2379.6000976562</ele>
        <time>2015-03-23T09:51:26.000Z</time>
      </trkpt>
      <trkpt lat="45.1463" lon="6.3481">
        <ele>2379.6000976562</ele>
        <time>2015-03-23T09:51:35.000Z</time>
      </trkpt>
      <trkpt lat="45.14622" lon="6.34816">
        <ele>2379.6000976562</ele>
        <time>2015-03-23T09:51:42.000Z</time>
      </trkpt>
      <trkpt lat="45.14617" lon="6.34819">
        <ele>2380.6000976562</ele>
        <time>2015-03-23T09:51:48.000Z</time>
      </trkpt>
      <trkpt lat="45.14616" lon="6.3482">
        <ele>2380.8000488281</ele>
        <time>2015-03-23T09:51:49.000Z</time>
      </trkpt>
      <trkpt lat="45.14614" lon="6.34824">
        <ele>2381.8000488281</ele>
        <time>2015-03-23T09:51:53.000Z</time>
      </trkpt>
      <trkpt lat="45.14613" lon="6.34827">
        <ele>2381.8000488281</ele>
        <time>2015-03-23T09:51:56.000Z</time>
      </trkpt>
      <trkpt lat="45.14609" lon="6.3483">
        <ele>2382.8000488281</ele>
        <time>2015-03-23T09:52:04.000Z</time>
      </trkpt>
      <trkpt lat="45.14609" lon="6.3483">
        <ele>2382.8000488281</ele>
        <time>2015-03-23T09:52:05.000Z</time>
      </trkpt>
      <trkpt lat="45.14608" lon="6.34832">
        <ele>2382.8000488281</ele>
        <time>2015-03-23T09:52:17.000Z</time>
      </trkpt>
      <trkpt lat="45.14604" lon="6.3484">
        <ele>2383.6000976562</ele>
        <time>2015-03-23T09:52:24.000Z</time>
      </trkpt>
      <trkpt lat="45.14604" lon="6.3484">
        <ele>2383.8000488281</ele>
        <time>2015-03-23T09:52:25.000Z</time>
      </trkpt>
      <trkpt lat="45.14601" lon="6.34847">
        <ele>2384.8000488281</ele>
        <time>2015-03-23T09:52:32.000Z</time>
      </trkpt>
      <trkpt lat="45.14594" lon="6.34853">
        <ele>2385.3999023438</ele>
        <time>2015-03-23T09:52:41.000Z</time>
      </trkpt>
      <trkpt lat="45.1459" lon="6.34856">
        <ele>2386</ele>
        <time>2015-03-23T09:52:47.000Z</time>
      </trkpt>
      <trkpt lat="45.1459" lon="6.34856">
        <ele>2386</ele>
        <time>2015-03-23T09:52:48.000Z</time>
      </trkpt>
      <trkpt lat="45.14585" lon="6.34862">
        <ele>2387</ele>
        <time>2015-03-23T09:52:55.000Z</time>
      </trkpt>
      <trkpt lat="45.14584" lon="6.34862">
        <ele>2387</ele>
        <time>2015-03-23T09:52:56.000Z</time>
      </trkpt>
      <trkpt lat="45.1458" lon="6.34867">
        <ele>2388</ele>
        <time>2015-03-23T09:53:03.000Z</time>
      </trkpt>
      <trkpt lat="45.14579" lon="6.34869">
        <ele>2388.1999511719</ele>
        <time>2015-03-23T09:53:05.000Z</time>
      </trkpt>
      <trkpt lat="45.14575" lon="6.34872">
        <ele>2389.3999023438</ele>
        <time>2015-03-23T09:53:10.000Z</time>
      </trkpt>
      <trkpt lat="45.1457" lon="6.34875">
        <ele>2390.6000976562</ele>
        <time>2015-03-23T09:53:16.000Z</time>
      </trkpt>
      <trkpt lat="45.1457" lon="6.34876">
        <ele>2390.8000488281</ele>
        <time>2015-03-23T09:53:17.000Z</time>
      </trkpt>
      <trkpt lat="45.14566" lon="6.3488">
        <ele>2391.6000976562</ele>
        <time>2015-03-23T09:53:24.000Z</time>
      </trkpt>
      <trkpt lat="45.14563" lon="6.34883">
        <ele>2392</ele>
        <time>2015-03-23T09:53:27.000Z</time>
      </trkpt>
      <trkpt lat="45.14562" lon="6.34886">
        <ele>2393</ele>
        <time>2015-03-23T09:53:29.000Z</time>
      </trkpt>
      <trkpt lat="45.1456" lon="6.3489">
        <ele>2394.1999511719</ele>
        <time>2015-03-23T09:53:34.000Z</time>
      </trkpt>
      <trkpt lat="45.14559" lon="6.34891">
        <ele>2394.3999023438</ele>
        <time>2015-03-23T09:53:35.000Z</time>
      </trkpt>
      <trkpt lat="45.14558" lon="6.34894">
        <ele>2395.1999511719</ele>
        <time>2015-03-23T09:53:38.000Z</time>
      </trkpt>
      <trkpt lat="45.14558" lon="6.34894">
        <ele>2395.8000488281</ele>
        <time>2015-03-23T09:53:43.000Z</time>
      </trkpt>
      <trkpt lat="45.14555" lon="6.34896">
        <ele>2395.8000488281</ele>
        <time>2015-03-23T09:53:50.000Z</time>
      </trkpt>
      <trkpt lat="45.14553" lon="6.34898">
        <ele>2396.1999511719</ele>
        <time>2015-03-23T09:53:53.000Z</time>
      </trkpt>
      <trkpt lat="45.14551" lon="6.34899">
        <ele>2397</ele>
        <time>2015-03-23T09:53:57.000Z</time>
      </trkpt>
      <trkpt lat="45.1455" lon="6.34899">
        <ele>2397.3999023438</ele>
        <time>2015-03-23T09:53:59.000Z</time>
      </trkpt>
      <trkpt lat="45.1455" lon="6.349">
        <ele>2398</ele>
        <time>2015-03-23T09:54:04.000Z</time>
      </trkpt>
      <trkpt lat="45.1455" lon="6.349">
        <ele>2398.1999511719</ele>
        <time>2015-03-23T09:54:19.000Z</time>
      </trkpt>
      <trkpt lat="45.14549" lon="6.349">
        <ele>2398</ele>
        <time>2015-03-23T09:54:28.000Z</time>
      </trkpt>
      <trkpt lat="45.14549" lon="6.349">
        <ele>2398.3999023438</ele>
        <time>2015-03-23T09:54:34.000Z</time>
      </trkpt>
      <trkpt lat="45.14549" lon="6.349">
        <ele>2398.1999511719</ele>
        <time>2015-03-23T09:54:43.000Z</time>
      </trkpt>
      <trkpt lat="45.14549" lon="6.349">
        <ele>2398.3999023438</ele>
        <time>2015-03-23T09:54:57.000Z</time>
      </trkpt>
      <trkpt lat="45.14549" lon="6.349">
        <ele>2398.3999023438</ele>
        <time>2015-03-23T09:55:16.000Z</time>
      </trkpt>
      <trkpt lat="45.14549" lon="6.349">
        <ele>2398.1999511719</ele>
        <time>2015-03-23T09:55:34.000Z</time>
      </trkpt>
      <trkpt lat="45.14549" lon="6.349">
        <ele>2398.3999023438</ele>
        <time>2015-03-23T09:55:51.000Z</time>
      </trkpt>
      <trkpt lat="45.14549" lon="6.349">
        <ele>2398.3999023438</ele>
        <time>2015-03-23T09:56:10.000Z</time>
      </trkpt>
      <trkpt lat="45.14549" lon="6.349">
        <ele>2398.3999023438</ele>
        <time>2015-03-23T09:56:26.000Z</time>
      </trkpt>
      <trkpt lat="45.14549" lon="6.349">
        <ele>2398.1999511719</ele>
        <time>2015-03-23T09:56:34.000Z</time>
      </trkpt>
      <trkpt lat="45.14549" lon="6.349">
        <ele>2398.1999511719</ele>
        <time>2015-03-23T09:56:55.000Z</time>
      </trkpt>
      <trkpt lat="45.14548" lon="6.34901">
        <ele>2398.3999023438</ele>
        <time>2015-03-23T09:57:06.000Z</time>
      </trkpt>
      <trkpt lat="45.14548" lon="6.34901">
        <ele>2398.6000976562</ele>
        <time>2015-03-23T09:57:22.000Z</time>
      </trkpt>
      <trkpt lat="45.14548" lon="6.34901">
        <ele>2398.3999023438</ele>
        <time>2015-03-23T09:57:35.000Z</time>
      </trkpt>
      <trkpt lat="45.14548" lon="6.34901">
        <ele>2398.6000976562</ele>
        <time>2015-03-23T09:57:51.000Z</time>
      </trkpt>
      <trkpt lat="45.14548" lon="6.34901">
        <ele>2398.6000976562</ele>
        <time>2015-03-23T09:58:04.000Z</time>
      </trkpt>
      <trkpt lat="45.14548" lon="6.34901">
        <ele>2398.8000488281</ele>
        <time>2015-03-23T09:58:15.000Z</time>
      </trkpt>
      <trkpt lat="45.14548" lon="6.34902">
        <ele>2399</ele>
        <time>2015-03-23T09:58:28.000Z</time>
      </trkpt>
      <trkpt lat="45.14548" lon="6.34902">
        <ele>2398.8000488281</ele>
        <time>2015-03-23T09:58:40.000Z</time>
      </trkpt>
      <trkpt lat="45.14548" lon="6.34902">
        <ele>2398.8000488281</ele>
        <time>2015-03-23T09:58:52.000Z</time>
      </trkpt>
      <trkpt lat="45.14548" lon="6.34902">
        <ele>2398.6000976562</ele>
        <time>2015-03-23T09:59:07.000Z</time>
      </trkpt>
      <trkpt lat="45.14548" lon="6.34902">
        <ele>2398.6000976562</ele>
        <time>2015-03-23T09:59:25.000Z</time>
      </trkpt>
      <trkpt lat="45.14547" lon="6.34902">
        <ele>2398.6000976562</ele>
        <time>2015-03-23T09:59:40.000Z</time>
      </trkpt>
      <trkpt lat="45.14547" lon="6.34902">
        <ele>2398.3999023438</ele>
        <time>2015-03-23T09:59:54.000Z</time>
      </trkpt>
      <trkpt lat="45.14547" lon="6.34904">
        <ele>2398.6000976562</ele>
        <time>2015-03-23T10:00:07.000Z</time>
      </trkpt>
      <trkpt lat="45.14547" lon="6.34908">
        <ele>2399</ele>
        <time>2015-03-23T10:00:12.000Z</time>
      </trkpt>
      <trkpt lat="45.14545" lon="6.34911">
        <ele>2399.6000976562</ele>
        <time>2015-03-23T10:00:15.000Z</time>
      </trkpt>
      <trkpt lat="45.14544" lon="6.34913">
        <ele>2400.6000976562</ele>
        <time>2015-03-23T10:00:17.000Z</time>
      </trkpt>
      <trkpt lat="45.14543" lon="6.34914">
        <ele>2400.8000488281</ele>
        <time>2015-03-23T10:00:18.000Z</time>
      </trkpt>
      <trkpt lat="45.1454" lon="6.34918">
        <ele>2401.8000488281</ele>
        <time>2015-03-23T10:00:23.000Z</time>
      </trkpt>
      <trkpt lat="45.1454" lon="6.34918">
        <ele>2402.1999511719</ele>
        <time>2015-03-23T10:00:24.000Z</time>
      </trkpt>
      <trkpt lat="45.14538" lon="6.34921">
        <ele>2403</ele>
        <time>2015-03-23T10:00:30.000Z</time>
      </trkpt>
      <trkpt lat="45.14537" lon="6.34924">
        <ele>2404.1999511719</ele>
        <time>2015-03-23T10:00:34.000Z</time>
      </trkpt>
      <trkpt lat="45.14536" lon="6.34924">
        <ele>2404.6000976562</ele>
        <time>2015-03-23T10:00:35.000Z</time>
      </trkpt>
      <trkpt lat="45.14536" lon="6.34925">
        <ele>2405</ele>
        <time>2015-03-23T10:00:37.000Z</time>
      </trkpt>
      <trkpt lat="45.14535" lon="6.34926">
        <ele>2405.3999023438</ele>
        <time>2015-03-23T10:00:40.000Z</time>
      </trkpt>
      <trkpt lat="45.14534" lon="6.34926">
        <ele>2406.3999023438</ele>
        <time>2015-03-23T10:00:42.000Z</time>
      </trkpt>
      <trkpt lat="45.14531" lon="6.34928">
        <ele>2407</ele>
        <time>2015-03-23T10:00:48.000Z</time>
      </trkpt>
      <trkpt lat="45.14531" lon="6.34932">
        <ele>2407.8000488281</ele>
        <time>2015-03-23T10:00:51.000Z</time>
      </trkpt>
      <trkpt lat="45.14532" lon="6.34936">
        <ele>2408.8000488281</ele>
        <time>2015-03-23T10:00:55.000Z</time>
      </trkpt>
      <trkpt lat="45.14532" lon="6.34936">
        <ele>2409</ele>
        <time>2015-03-23T10:00:56.000Z</time>
      </trkpt>
      <trkpt lat="45.14533" lon="6.34941">
        <ele>2409.8000488281</ele>
        <time>2015-03-23T10:01:02.000Z</time>
      </trkpt>
      <trkpt lat="45.14534" lon="6.34943">
        <ele>2410.1999511719</ele>
        <time>2015-03-23T10:01:03.000Z</time>
      </trkpt>
      <trkpt lat="45.14534" lon="6.34946">
        <ele>2411</ele>
        <time>2015-03-23T10:01:07.000Z</time>
      </trkpt>
      <trkpt lat="45.14534" lon="6.34946">
        <ele>2411.3999023438</ele>
        <time>2015-03-23T10:01:08.000Z</time>
      </trkpt>
      <trkpt lat="45.14536" lon="6.34948">
        <ele>2412.3999023438</ele>
        <time>2015-03-23T10:01:12.000Z</time>
      </trkpt>
      <trkpt lat="45.14536" lon="6.34948">
        <ele>2412.3999023438</ele>
        <time>2015-03-23T10:01:13.000Z</time>
      </trkpt>
      <trkpt lat="45.14536" lon="6.34948">
        <ele>2413</ele>
        <time>2015-03-23T10:01:23.000Z</time>
      </trkpt>
      <trkpt lat="45.14538" lon="6.34949">
        <ele>2413.3999023438</ele>
        <time>2015-03-23T10:01:31.000Z</time>
      </trkpt>
      <trkpt lat="45.14538" lon="6.3495">
        <ele>2413.6000976562</ele>
        <time>2015-03-23T10:01:32.000Z</time>
      </trkpt>
      <trkpt lat="45.1454" lon="6.34954">
        <ele>2414.3999023438</ele>
        <time>2015-03-23T10:01:37.000Z</time>
      </trkpt>
      <trkpt lat="45.1454" lon="6.34955">
        <ele>2414.6000976562</ele>
        <time>2015-03-23T10:01:38.000Z</time>
      </trkpt>
      <trkpt lat="45.14542" lon="6.34958">
        <ele>2415.6000976562</ele>
        <time>2015-03-23T10:01:41.000Z</time>
      </trkpt>
      <trkpt lat="45.14543" lon="6.34959">
        <ele>2416</ele>
        <time>2015-03-23T10:01:42.000Z</time>
      </trkpt>
      <trkpt lat="45.14546" lon="6.34963">
        <ele>2416.3999023438</ele>
        <time>2015-03-23T10:01:47.000Z</time>
      </trkpt>
      <trkpt lat="45.14548" lon="6.34964">
        <ele>2416.8000488281</ele>
        <time>2015-03-23T10:01:49.000Z</time>
      </trkpt>
      <trkpt lat="45.14549" lon="6.34967">
        <ele>2417.3999023438</ele>
        <time>2015-03-23T10:01:53.000Z</time>
      </trkpt>
      <trkpt lat="45.14549" lon="6.34968">
        <ele>2417.8000488281</ele>
        <time>2015-03-23T10:01:55.000Z</time>
      </trkpt>
      <trkpt lat="45.1455" lon="6.34971">
        <ele>2418.6000976562</ele>
        <time>2015-03-23T10:01:59.000Z</time>
      </trkpt>
      <trkpt lat="45.14553" lon="6.34975">
        <ele>2419</ele>
        <time>2015-03-23T10:02:03.000Z</time>
      </trkpt>
      <trkpt lat="45.14553" lon="6.34975">
        <ele>2419</ele>
        <time>2015-03-23T10:02:04.000Z</time>
      </trkpt>
      <trkpt lat="45.14554" lon="6.34977">
        <ele>2420.3999023438</ele>
        <time>2015-03-23T10:02:09.000Z</time>
      </trkpt>
      <trkpt lat="45.14555" lon="6.34977">
        <ele>2420.3999023438</ele>
        <time>2015-03-23T10:02:10.000Z</time>
      </trkpt>
      <trkpt lat="45.14556" lon="6.34981">
        <ele>2421.3999023438</ele>
        <time>2015-03-23T10:02:14.000Z</time>
      </trkpt>
      <trkpt lat="45.14557" lon="6.34983">
        <ele>2421.6000976562</ele>
        <time>2015-03-23T10:02:16.000Z</time>
      </trkpt>
      <trkpt lat="45.14561" lon="6.34987">
        <ele>2422.6000976562</ele>
        <time>2015-03-23T10:02:21.000Z</time>
      </trkpt>
      <trkpt lat="45.14562" lon="6.34988">
        <ele>2423.1999511719</ele>
        <time>2015-03-23T10:02:25.000Z</time>
      </trkpt>
      <trkpt lat="45.14565" lon="6.3499">
        <ele>2423.8000488281</ele>
        <time>2015-03-23T10:02:28.000Z</time>
      </trkpt>
      <trkpt lat="45.14569" lon="6.34992">
        <ele>2424.1999511719</ele>
        <time>2015-03-23T10:02:33.000Z</time>
      </trkpt>
      <trkpt lat="45.14571" lon="6.34993">
        <ele>2425</ele>
        <time>2015-03-23T10:02:36.000Z</time>
      </trkpt>
      <trkpt lat="45.14574" lon="6.34994">
        <ele>2425.6000976562</ele>
        <time>2015-03-23T10:02:39.000Z</time>
      </trkpt>
      <trkpt lat="45.14576" lon="6.34996">
        <ele>2426.1999511719</ele>
        <time>2015-03-23T10:02:41.000Z</time>
      </trkpt>
      <trkpt lat="45.14582" lon="6.35001">
        <ele>2426.6000976562</ele>
        <time>2015-03-23T10:02:47.000Z</time>
      </trkpt>
      <trkpt lat="45.14584" lon="6.35001">
        <ele>2427.3999023438</ele>
        <time>2015-03-23T10:02:50.000Z</time>
      </trkpt>
      <trkpt lat="45.14586" lon="6.35003">
        <ele>2428.3999023438</ele>
        <time>2015-03-23T10:02:54.000Z</time>
      </trkpt>
      <trkpt lat="45.14587" lon="6.35003">
        <ele>2428.6000976562</ele>
        <time>2015-03-23T10:02:55.000Z</time>
      </trkpt>
      <trkpt lat="45.14593" lon="6.35007">
        <ele>2429.3999023438</ele>
        <time>2015-03-23T10:03:02.000Z</time>
      </trkpt>
      <trkpt lat="45.14593" lon="6.35007">
        <ele>2429.8000488281</ele>
        <time>2015-03-23T10:03:03.000Z</time>
      </trkpt>
      <trkpt lat="45.14595" lon="6.35008">
        <ele>2430.8000488281</ele>
        <time>2015-03-23T10:03:06.000Z</time>
      </trkpt>
      <trkpt lat="45.14598" lon="6.35009">
        <ele>2431.6000976562</ele>
        <time>2015-03-23T10:03:10.000Z</time>
      </trkpt>
      <trkpt lat="45.14601" lon="6.3501">
        <ele>2431.8000488281</ele>
        <time>2015-03-23T10:03:12.000Z</time>
      </trkpt>
      <trkpt lat="45.14603" lon="6.35012">
        <ele>2432.6000976562</ele>
        <time>2015-03-23T10:03:17.000Z</time>
      </trkpt>
      <trkpt lat="45.14604" lon="6.35013">
        <ele>2433</ele>
        <time>2015-03-23T10:03:19.000Z</time>
      </trkpt>
      <trkpt lat="45.14606" lon="6.35015">
        <ele>2434</ele>
        <time>2015-03-23T10:03:24.000Z</time>
      </trkpt>
      <trkpt lat="45.14606" lon="6.35017">
        <ele>2434.1999511719</ele>
        <time>2015-03-23T10:03:25.000Z</time>
      </trkpt>
      <trkpt lat="45.14604" lon="6.35022">
        <ele>2435.1999511719</ele>
        <time>2015-03-23T10:03:30.000Z</time>
      </trkpt>
      <trkpt lat="45.14603" lon="6.35025">
        <ele>2435.3999023438</ele>
        <time>2015-03-23T10:03:31.000Z</time>
      </trkpt>
      <trkpt lat="45.14601" lon="6.35025">
        <ele>2436.1999511719</ele>
        <time>2015-03-23T10:03:35.000Z</time>
      </trkpt>
      <trkpt lat="45.146" lon="6.35029">
        <ele>2437</ele>
        <time>2015-03-23T10:03:38.000Z</time>
      </trkpt>
      <trkpt lat="45.146" lon="6.35029">
        <ele>2437.3999023438</ele>
        <time>2015-03-23T10:03:39.000Z</time>
      </trkpt>
      <trkpt lat="45.146" lon="6.35033">
        <ele>2438.1999511719</ele>
        <time>2015-03-23T10:03:44.000Z</time>
      </trkpt>
      <trkpt lat="45.146" lon="6.35034">
        <ele>2438.6000976562</ele>
        <time>2015-03-23T10:03:45.000Z</time>
      </trkpt>
      <trkpt lat="45.14599" lon="6.35037">
        <ele>2439.8000488281</ele>
        <time>2015-03-23T10:03:51.000Z</time>
      </trkpt>
      <trkpt lat="45.146" lon="6.3504">
        <ele>2441</ele>
        <time>2015-03-23T10:03:56.000Z</time>
      </trkpt>
      <trkpt lat="45.14599" lon="6.35041">
        <ele>2441.3999023438</ele>
        <time>2015-03-23T10:03:58.000Z</time>
      </trkpt>
      <trkpt lat="45.14599" lon="6.35045">
        <ele>2442</ele>
        <time>2015-03-23T10:04:01.000Z</time>
      </trkpt>
      <trkpt lat="45.14599" lon="6.35046">
        <ele>2442.8000488281</ele>
        <time>2015-03-23T10:04:05.000Z</time>
      </trkpt>
      <trkpt lat="45.14598" lon="6.35046">
        <ele>2443.1999511719</ele>
        <time>2015-03-23T10:04:07.000Z</time>
      </trkpt>
      <trkpt lat="45.14597" lon="6.35049">
        <ele>2444.1999511719</ele>
        <time>2015-03-23T10:04:11.000Z</time>
      </trkpt>
      <trkpt lat="45.14597" lon="6.3505">
        <ele>2444.3999023438</ele>
        <time>2015-03-23T10:04:12.000Z</time>
      </trkpt>
      <trkpt lat="45.14596" lon="6.35053">
        <ele>2445.6000976562</ele>
        <time>2015-03-23T10:04:17.000Z</time>
      </trkpt>
      <trkpt lat="45.14594" lon="6.35056">
        <ele>2446.6000976562</ele>
        <time>2015-03-23T10:04:22.000Z</time>
      </trkpt>
      <trkpt lat="45.14595" lon="6.3506">
        <ele>2447.3999023438</ele>
        <time>2015-03-23T10:04:26.000Z</time>
      </trkpt>
      <trkpt lat="45.14594" lon="6.35061">
        <ele>2448</ele>
        <time>2015-03-23T10:04:28.000Z</time>
      </trkpt>
      <trkpt lat="45.14592" lon="6.35062">
        <ele>2448.6000976562</ele>
        <time>2015-03-23T10:04:32.000Z</time>
      </trkpt>
      <trkpt lat="45.14591" lon="6.35063">
        <ele>2449</ele>
        <time>2015-03-23T10:04:34.000Z</time>
      </trkpt>
      <trkpt lat="45.1459" lon="6.35063">
        <ele>2450</ele>
        <time>2015-03-23T10:04:40.000Z</time>
      </trkpt>
      <trkpt lat="45.1459" lon="6.35064">
        <ele>2450.3999023438</ele>
        <time>2015-03-23T10:04:41.000Z</time>
      </trkpt>
      <trkpt lat="45.14588" lon="6.35067">
        <ele>2451.1999511719</ele>
        <time>2015-03-23T10:04:45.000Z</time>
      </trkpt>
      <trkpt lat="45.14587" lon="6.35071">
        <ele>2451.8000488281</ele>
        <time>2015-03-23T10:04:48.000Z</time>
      </trkpt>
      <trkpt lat="45.14587" lon="6.35073">
        <ele>2452.1999511719</ele>
        <time>2015-03-23T10:04:50.000Z</time>
      </trkpt>
      <trkpt lat="45.14586" lon="6.35076">
        <ele>2453.3999023438</ele>
        <time>2015-03-23T10:04:55.000Z</time>
      </trkpt>
      <trkpt lat="45.14588" lon="6.35081">
        <ele>2454.3999023438</ele>
        <time>2015-03-23T10:04:59.000Z</time>
      </trkpt>
      <trkpt lat="45.14588" lon="6.35082">
        <ele>2455</ele>
        <time>2015-03-23T10:05:02.000Z</time>
      </trkpt>
      <trkpt lat="45.14588" lon="6.35084">
        <ele>2455.3999023438</ele>
        <time>2015-03-23T10:05:04.000Z</time>
      </trkpt>
      <trkpt lat="45.14588" lon="6.35085">
        <ele>2456.3999023438</ele>
        <time>2015-03-23T10:05:08.000Z</time>
      </trkpt>
      <trkpt lat="45.14588" lon="6.35085">
        <ele>2457</ele>
        <time>2015-03-23T10:05:10.000Z</time>
      </trkpt>
      <trkpt lat="45.14586" lon="6.35086">
        <ele>2457.6000976562</ele>
        <time>2015-03-23T10:05:12.000Z</time>
      </trkpt>
      <trkpt lat="45.14583" lon="6.3509">
        <ele>2458.6000976562</ele>
        <time>2015-03-23T10:05:16.000Z</time>
      </trkpt>
      <trkpt lat="45.14581" lon="6.35096">
        <ele>2459.6000976562</ele>
        <time>2015-03-23T10:05:22.000Z</time>
      </trkpt>
      <trkpt lat="45.1458" lon="6.35097">
        <ele>2459.8000488281</ele>
        <time>2015-03-23T10:05:24.000Z</time>
      </trkpt>
      <trkpt lat="45.14577" lon="6.35101">
        <ele>2460.8000488281</ele>
        <time>2015-03-23T10:05:28.000Z</time>
      </trkpt>
      <trkpt lat="45.14575" lon="6.35104">
        <ele>2461.6000976562</ele>
        <time>2015-03-23T10:05:30.000Z</time>
      </trkpt>
      <trkpt lat="45.14575" lon="6.35104">
        <ele>2461.8000488281</ele>
        <time>2015-03-23T10:05:31.000Z</time>
      </trkpt>
      <trkpt lat="45.14576" lon="6.35105">
        <ele>2463</ele>
        <time>2015-03-23T10:05:36.000Z</time>
      </trkpt>
      <trkpt lat="45.14581" lon="6.3511">
        <ele>2464.1999511719</ele>
        <time>2015-03-23T10:05:42.000Z</time>
      </trkpt>
      <trkpt lat="45.14582" lon="6.35111">
        <ele>2464.6000976562</ele>
        <time>2015-03-23T10:05:44.000Z</time>
      </trkpt>
      <trkpt lat="45.14584" lon="6.35112">
        <ele>2465.1999511719</ele>
        <time>2015-03-23T10:05:48.000Z</time>
      </trkpt>
      <trkpt lat="45.14588" lon="6.35115">
        <ele>2466.3999023438</ele>
        <time>2015-03-23T10:05:54.000Z</time>
      </trkpt>
      <trkpt lat="45.14593" lon="6.35117">
        <ele>2467.3999023438</ele>
        <time>2015-03-23T10:06:02.000Z</time>
      </trkpt>
      <trkpt lat="45.14593" lon="6.35117">
        <ele>2468.3999023438</ele>
        <time>2015-03-23T10:06:09.000Z</time>
      </trkpt>
      <trkpt lat="45.14593" lon="6.35117">
        <ele>2468.6000976562</ele>
        <time>2015-03-23T10:06:10.000Z</time>
      </trkpt>
      <trkpt lat="45.14609" lon="6.35118">
        <ele>2469.3999023438</ele>
        <time>2015-03-23T10:06:18.000Z</time>
      </trkpt>
      <trkpt lat="45.1461" lon="6.35119">
        <ele>2470</ele>
        <time>2015-03-23T10:06:20.000Z</time>
      </trkpt>
      <trkpt lat="45.14614" lon="6.35122">
        <ele>2471</ele>
        <time>2015-03-23T10:06:26.000Z</time>
      </trkpt>
      <trkpt lat="45.14614" lon="6.35122">
        <ele>2471.1999511719</ele>
        <time>2015-03-23T10:06:27.000Z</time>
      </trkpt>
      <trkpt lat="45.14614" lon="6.35125">
        <ele>2472.1999511719</ele>
        <time>2015-03-23T10:06:32.000Z</time>
      </trkpt>
      <trkpt lat="45.14613" lon="6.35126">
        <ele>2472.3999023438</ele>
        <time>2015-03-23T10:06:34.000Z</time>
      </trkpt>
      <trkpt lat="45.1461" lon="6.35129">
        <ele>2473.3999023438</ele>
        <time>2015-03-23T10:06:40.000Z</time>
      </trkpt>
      <trkpt lat="45.1461" lon="6.3513">
        <ele>2473.6000976562</ele>
        <time>2015-03-23T10:06:41.000Z</time>
      </trkpt>
      <trkpt lat="45.14608" lon="6.3513">
        <ele>2474.3999023438</ele>
        <time>2015-03-23T10:06:44.000Z</time>
      </trkpt>
      <trkpt lat="45.14605" lon="6.35133">
        <ele>2475.1999511719</ele>
        <time>2015-03-23T10:06:48.000Z</time>
      </trkpt>
      <trkpt lat="45.14605" lon="6.35134">
        <ele>2475.3999023438</ele>
        <time>2015-03-23T10:06:49.000Z</time>
      </trkpt>
      <trkpt lat="45.14604" lon="6.35135">
        <ele>2476.1999511719</ele>
        <time>2015-03-23T10:06:56.000Z</time>
      </trkpt>
      <trkpt lat="45.14607" lon="6.35136">
        <ele>2476.6000976562</ele>
        <time>2015-03-23T10:06:58.000Z</time>
      </trkpt>
      <trkpt lat="45.1461" lon="6.35138">
        <ele>2477.6000976562</ele>
        <time>2015-03-23T10:07:03.000Z</time>
      </trkpt>
      <trkpt lat="45.14612" lon="6.35138">
        <ele>2478</ele>
        <time>2015-03-23T10:07:05.000Z</time>
      </trkpt>
      <trkpt lat="45.14615" lon="6.3514">
        <ele>2478.8000488281</ele>
        <time>2015-03-23T10:07:09.000Z</time>
      </trkpt>
      <trkpt lat="45.14621" lon="6.3514">
        <ele>2479.6000976562</ele>
        <time>2015-03-23T10:07:15.000Z</time>
      </trkpt>
      <trkpt lat="45.14624" lon="6.3514">
        <ele>2479.8000488281</ele>
        <time>2015-03-23T10:07:17.000Z</time>
      </trkpt>
      <trkpt lat="45.14626" lon="6.35142">
        <ele>2480.8000488281</ele>
        <time>2015-03-23T10:07:24.000Z</time>
      </trkpt>
      <trkpt lat="45.14626" lon="6.35142">
        <ele>2481</ele>
        <time>2015-03-23T10:07:25.000Z</time>
      </trkpt>
      <trkpt lat="45.14626" lon="6.35144">
        <ele>2482</ele>
        <time>2015-03-23T10:07:28.000Z</time>
      </trkpt>
      <trkpt lat="45.14624" lon="6.35146">
        <ele>2483</ele>
        <time>2015-03-23T10:07:31.000Z</time>
      </trkpt>
      <trkpt lat="45.14623" lon="6.35147">
        <ele>2483.1999511719</ele>
        <time>2015-03-23T10:07:32.000Z</time>
      </trkpt>
      <trkpt lat="45.14618" lon="6.35149">
        <ele>2484</ele>
        <time>2015-03-23T10:07:38.000Z</time>
      </trkpt>
      <trkpt lat="45.14617" lon="6.3515">
        <ele>2484.3999023438</ele>
        <time>2015-03-23T10:07:40.000Z</time>
      </trkpt>
      <trkpt lat="45.14613" lon="6.35151">
        <ele>2485.1999511719</ele>
        <time>2015-03-23T10:07:45.000Z</time>
      </trkpt>
      <trkpt lat="45.14613" lon="6.35151">
        <ele>2485.3999023438</ele>
        <time>2015-03-23T10:07:46.000Z</time>
      </trkpt>
      <trkpt lat="45.1461" lon="6.35154">
        <ele>2486.3999023438</ele>
        <time>2015-03-23T10:07:52.000Z</time>
      </trkpt>
      <trkpt lat="45.14609" lon="6.35155">
        <ele>2486.6000976562</ele>
        <time>2015-03-23T10:07:53.000Z</time>
      </trkpt>
      <trkpt lat="45.14608" lon="6.35156">
        <ele>2487.3999023438</ele>
        <time>2015-03-23T10:07:55.000Z</time>
      </trkpt>
      <trkpt lat="45.1461" lon="6.35157">
        <ele>2487.8000488281</ele>
        <time>2015-03-23T10:08:00.000Z</time>
      </trkpt>
      <trkpt lat="45.14619" lon="6.35161">
        <ele>2488.6000976562</ele>
        <time>2015-03-23T10:08:05.000Z</time>
      </trkpt>
      <trkpt lat="45.1462" lon="6.35162">
        <ele>2489</ele>
        <time>2015-03-23T10:08:08.000Z</time>
      </trkpt>
      <trkpt lat="45.1462" lon="6.35162">
        <ele>2489.6000976562</ele>
        <time>2015-03-23T10:08:13.000Z</time>
      </trkpt>
      <trkpt lat="45.1462" lon="6.35162">
        <ele>2489.8000488281</ele>
        <time>2015-03-23T10:08:15.000Z</time>
      </trkpt>
      <trkpt lat="45.14624" lon="6.35165">
        <ele>2490.8000488281</ele>
        <time>2015-03-23T10:08:19.000Z</time>
      </trkpt>
      <trkpt lat="45.14628" lon="6.35166">
        <ele>2491.6000976562</ele>
        <time>2015-03-23T10:08:24.000Z</time>
      </trkpt>
      <trkpt lat="45.14629" lon="6.35166">
        <ele>2491.8000488281</ele>
        <time>2015-03-23T10:08:29.000Z</time>
      </trkpt>
      <trkpt lat="45.14631" lon="6.35169">
        <ele>2492.6000976562</ele>
        <time>2015-03-23T10:08:32.000Z</time>
      </trkpt>
      <trkpt lat="45.14631" lon="6.35171">
        <ele>2493.1999511719</ele>
        <time>2015-03-23T10:08:34.000Z</time>
      </trkpt>
      <trkpt lat="45.14631" lon="6.35175">
        <ele>2494.1999511719</ele>
        <time>2015-03-23T10:08:38.000Z</time>
      </trkpt>
      <trkpt lat="45.14631" lon="6.35176">
        <ele>2494.1999511719</ele>
        <time>2015-03-23T10:08:39.000Z</time>
      </trkpt>
      <trkpt lat="45.1463" lon="6.35181">
        <ele>2495.3999023438</ele>
        <time>2015-03-23T10:08:44.000Z</time>
      </trkpt>
      <trkpt lat="45.1463" lon="6.35182">
        <ele>2495.6000976562</ele>
        <time>2015-03-23T10:08:45.000Z</time>
      </trkpt>
      <trkpt lat="45.14629" lon="6.35187">
        <ele>2496.3999023438</ele>
        <time>2015-03-23T10:08:50.000Z</time>
      </trkpt>
      <trkpt lat="45.14629" lon="6.35187">
        <ele>2496.8000488281</ele>
        <time>2015-03-23T10:08:52.000Z</time>
      </trkpt>
      <trkpt lat="45.14628" lon="6.35189">
        <ele>2497.6000976562</ele>
        <time>2015-03-23T10:08:56.000Z</time>
      </trkpt>
      <trkpt lat="45.14628" lon="6.35189">
        <ele>2498.6000976562</ele>
        <time>2015-03-23T10:08:59.000Z</time>
      </trkpt>
      <trkpt lat="45.14628" lon="6.35189">
        <ele>2498.6000976562</ele>
        <time>2015-03-23T10:09:02.000Z</time>
      </trkpt>
      <trkpt lat="45.14628" lon="6.35189">
        <ele>2498.3999023438</ele>
        <time>2015-03-23T10:09:06.000Z</time>
      </trkpt>
      <trkpt lat="45.14628" lon="6.35189">
        <ele>2499.8000488281</ele>
        <time>2015-03-23T10:09:11.000Z</time>
      </trkpt>
      <trkpt lat="45.14628" lon="6.35189">
        <ele>2500.3999023438</ele>
        <time>2015-03-23T10:09:14.000Z</time>
      </trkpt>
      <trkpt lat="45.14628" lon="6.35189">
        <ele>2501</ele>
        <time>2015-03-23T10:09:17.000Z</time>
      </trkpt>
      <trkpt lat="45.14628" lon="6.35192">
        <ele>2501.6000976562</ele>
        <time>2015-03-23T10:09:20.000Z</time>
      </trkpt>
      <trkpt lat="45.14629" lon="6.35195">
        <ele>2502</ele>
        <time>2015-03-23T10:09:23.000Z</time>
      </trkpt>
      <trkpt lat="45.14629" lon="6.35195">
        <ele>2502.6000976562</ele>
        <time>2015-03-23T10:09:28.000Z</time>
      </trkpt>
      <trkpt lat="45.14629" lon="6.35195">
        <ele>2503</ele>
        <time>2015-03-23T10:09:30.000Z</time>
      </trkpt>
      <trkpt lat="45.14635" lon="6.35196">
        <ele>2504</ele>
        <time>2015-03-23T10:09:36.000Z</time>
      </trkpt>
      <trkpt lat="45.14637" lon="6.35196">
        <ele>2504.3999023438</ele>
        <time>2015-03-23T10:09:38.000Z</time>
      </trkpt>
      <trkpt lat="45.14639" lon="6.35197">
        <ele>2505.1999511719</ele>
        <time>2015-03-23T10:09:41.000Z</time>
      </trkpt>
      <trkpt lat="45.14639" lon="6.35197">
        <ele>2506.1999511719</ele>
        <time>2015-03-23T10:09:45.000Z</time>
      </trkpt>
      <trkpt lat="45.14639" lon="6.35197">
        <ele>2506.3999023438</ele>
        <time>2015-03-23T10:09:46.000Z</time>
      </trkpt>
      <trkpt lat="45.14633" lon="6.35207">
        <ele>2507.3999023438</ele>
        <time>2015-03-23T10:09:54.000Z</time>
      </trkpt>
      <trkpt lat="45.1463" lon="6.35212">
        <ele>2508.3999023438</ele>
        <time>2015-03-23T10:10:00.000Z</time>
      </trkpt>
      <trkpt lat="45.1463" lon="6.35213">
        <ele>2508.8000488281</ele>
        <time>2015-03-23T10:10:02.000Z</time>
      </trkpt>
      <trkpt lat="45.1463" lon="6.35213">
        <ele>2509.3999023438</ele>
        <time>2015-03-23T10:10:08.000Z</time>
      </trkpt>
      <trkpt lat="45.14632" lon="6.35214">
        <ele>2509.6000976562</ele>
        <time>2015-03-23T10:10:10.000Z</time>
      </trkpt>
      <trkpt lat="45.14637" lon="6.35215">
        <ele>2510.1999511719</ele>
        <time>2015-03-23T10:10:16.000Z</time>
      </trkpt>
      <trkpt lat="45.1464" lon="6.35216">
        <ele>2510.6000976562</ele>
        <time>2015-03-23T10:10:18.000Z</time>
      </trkpt>
      <trkpt lat="45.14643" lon="6.35216">
        <ele>2511.6000976562</ele>
        <time>2015-03-23T10:10:23.000Z</time>
      </trkpt>
      <trkpt lat="45.14644" lon="6.35216">
        <ele>2512</ele>
        <time>2015-03-23T10:10:25.000Z</time>
      </trkpt>
      <trkpt lat="45.14647" lon="6.35216">
        <ele>2512.8000488281</ele>
        <time>2015-03-23T10:10:30.000Z</time>
      </trkpt>
      <trkpt lat="45.14648" lon="6.35216">
        <ele>2513</ele>
        <time>2015-03-23T10:10:32.000Z</time>
      </trkpt>
      <trkpt lat="45.14649" lon="6.35216">
        <ele>2513.6000976562</ele>
        <time>2015-03-23T10:10:38.000Z</time>
      </trkpt>
      <trkpt lat="45.14649" lon="6.35216">
        <ele>2513.8000488281</ele>
        <time>2015-03-23T10:10:40.000Z</time>
      </trkpt>
      <trkpt lat="45.14649" lon="6.35218">
        <ele>2515</ele>
        <time>2015-03-23T10:10:45.000Z</time>
      </trkpt>
      <trkpt lat="45.14648" lon="6.35223">
        <ele>2515.8000488281</ele>
        <time>2015-03-23T10:10:51.000Z</time>
      </trkpt>
      <trkpt lat="45.14647" lon="6.35223">
        <ele>2516</ele>
        <time>2015-03-23T10:10:52.000Z</time>
      </trkpt>
      <trkpt lat="45.14646" lon="6.35228">
        <ele>2516.6000976562</ele>
        <time>2015-03-23T10:10:57.000Z</time>
      </trkpt>
      <trkpt lat="45.14645" lon="6.35229">
        <ele>2517</ele>
        <time>2015-03-23T10:11:00.000Z</time>
      </trkpt>
      <trkpt lat="45.14645" lon="6.35229">
        <ele>2517.8000488281</ele>
        <time>2015-03-23T10:11:08.000Z</time>
      </trkpt>
      <trkpt lat="45.14645" lon="6.35229">
        <ele>2518.1999511719</ele>
        <time>2015-03-23T10:11:15.000Z</time>
      </trkpt>
      <trkpt lat="45.14648" lon="6.35228">
        <ele>2518.1999511719</ele>
        <time>2015-03-23T10:11:17.000Z</time>
      </trkpt>
      <trkpt lat="45.14651" lon="6.35225">
        <ele>2518.6000976562</ele>
        <time>2015-03-23T10:11:22.000Z</time>
      </trkpt>
      <trkpt lat="45.14653" lon="6.35226">
        <ele>2519</ele>
        <time>2015-03-23T10:11:28.000Z</time>
      </trkpt>
      <trkpt lat="45.14655" lon="6.35225">
        <ele>2519.1999511719</ele>
        <time>2015-03-23T10:11:29.000Z</time>
      </trkpt>
      <trkpt lat="45.14656" lon="6.35226">
        <ele>2520</ele>
        <time>2015-03-23T10:11:33.000Z</time>
      </trkpt>
      <trkpt lat="45.14656" lon="6.35226">
        <ele>2520.1999511719</ele>
        <time>2015-03-23T10:11:34.000Z</time>
      </trkpt>
      <trkpt lat="45.14656" lon="6.35225">
        <ele>2520.8000488281</ele>
        <time>2015-03-23T10:11:46.000Z</time>
      </trkpt>
      <trkpt lat="45.14657" lon="6.35223">
        <ele>2520.8000488281</ele>
        <time>2015-03-23T10:11:57.000Z</time>
      </trkpt>
      <trkpt lat="45.14657" lon="6.35223">
        <ele>2521</ele>
        <time>2015-03-23T10:12:11.000Z</time>
      </trkpt>
      <trkpt lat="45.14657" lon="6.35223">
        <ele>2521</ele>
        <time>2015-03-23T10:12:25.000Z</time>
      </trkpt>
      <trkpt lat="45.14657" lon="6.35224">
        <ele>2520.8000488281</ele>
        <time>2015-03-23T10:12:40.000Z</time>
      </trkpt>
      <trkpt lat="45.14657" lon="6.35224">
        <ele>2520.3999023438</ele>
        <time>2015-03-23T10:12:56.000Z</time>
      </trkpt>
      <trkpt lat="45.14657" lon="6.35224">
        <ele>2520.8000488281</ele>
        <time>2015-03-23T10:13:07.000Z</time>
      </trkpt>
      <trkpt lat="45.14658" lon="6.35223">
        <ele>2520.8000488281</ele>
        <time>2015-03-23T10:13:25.000Z</time>
      </trkpt>
      <trkpt lat="45.14657" lon="6.3522">
        <ele>2521</ele>
        <time>2015-03-23T10:13:33.000Z</time>
      </trkpt>
      <trkpt lat="45.1466" lon="6.35217">
        <ele>2521.6000976562</ele>
        <time>2015-03-23T10:13:38.000Z</time>
      </trkpt>
      <trkpt lat="45.1466" lon="6.35217">
        <ele>2521.3999023438</ele>
        <time>2015-03-23T10:13:39.000Z</time>
      </trkpt>
      <trkpt lat="45.14662" lon="6.35213">
        <ele>2522.1999511719</ele>
        <time>2015-03-23T10:13:44.000Z</time>
      </trkpt>
      <trkpt lat="45.14664" lon="6.35211">
        <ele>2522.6000976562</ele>
        <time>2015-03-23T10:13:47.000Z</time>
      </trkpt>
      <trkpt lat="45.14665" lon="6.35211">
        <ele>2523</ele>
        <time>2015-03-23T10:13:49.000Z</time>
      </trkpt>
      <trkpt lat="45.14667" lon="6.35209">
        <ele>2523.8000488281</ele>
        <time>2015-03-23T10:13:52.000Z</time>
      </trkpt>
      <trkpt lat="45.14667" lon="6.35209">
        <ele>2523.8000488281</ele>
        <time>2015-03-23T10:13:53.000Z</time>
      </trkpt>
      <trkpt lat="45.14669" lon="6.35208">
        <ele>2525</ele>
        <time>2015-03-23T10:13:58.000Z</time>
      </trkpt>
      <trkpt lat="45.14671" lon="6.35207">
        <ele>2525.1999511719</ele>
        <time>2015-03-23T10:13:59.000Z</time>
      </trkpt>
      <trkpt lat="45.14673" lon="6.35206">
        <ele>2526</ele>
        <time>2015-03-23T10:14:02.000Z</time>
      </trkpt>
      <trkpt lat="45.14674" lon="6.35205">
        <ele>2526.3999023438</ele>
        <time>2015-03-23T10:14:04.000Z</time>
      </trkpt>
      <trkpt lat="45.14678" lon="6.35203">
        <ele>2527.1999511719</ele>
        <time>2015-03-23T10:14:08.000Z</time>
      </trkpt>
      <trkpt lat="45.14679" lon="6.35203">
        <ele>2527.8000488281</ele>
        <time>2015-03-23T10:14:10.000Z</time>
      </trkpt>
      <trkpt lat="45.14681" lon="6.35203">
        <ele>2528.1999511719</ele>
        <time>2015-03-23T10:14:12.000Z</time>
      </trkpt>
      <trkpt lat="45.14686" lon="6.35203">
        <ele>2528.8000488281</ele>
        <time>2015-03-23T10:14:17.000Z</time>
      </trkpt>
      <trkpt lat="45.14687" lon="6.35204">
        <ele>2529.1999511719</ele>
        <time>2015-03-23T10:14:18.000Z</time>
      </trkpt>
      <trkpt lat="45.14688" lon="6.35204">
        <ele>2530.3999023438</ele>
        <time>2015-03-23T10:14:23.000Z</time>
      </trkpt>
      <trkpt lat="45.14689" lon="6.35204">
        <ele>2530.6000976562</ele>
        <time>2015-03-23T10:14:24.000Z</time>
      </trkpt>
      <trkpt lat="45.14691" lon="6.35205">
        <ele>2531.6000976562</ele>
        <time>2015-03-23T10:14:32.000Z</time>
      </trkpt>
      <trkpt lat="45.14693" lon="6.35205">
        <ele>2532.3999023438</ele>
        <time>2015-03-23T10:14:36.000Z</time>
      </trkpt>
      <trkpt lat="45.14693" lon="6.35205">
        <ele>2532.8000488281</ele>
        <time>2015-03-23T10:14:37.000Z</time>
      </trkpt>
      <trkpt lat="45.14693" lon="6.35207">
        <ele>2533.8000488281</ele>
        <time>2015-03-23T10:14:44.000Z</time>
      </trkpt>
      <trkpt lat="45.1469" lon="6.35214">
        <ele>2534.8000488281</ele>
        <time>2015-03-23T10:14:51.000Z</time>
      </trkpt>
      <trkpt lat="45.14685" lon="6.3522">
        <ele>2536</ele>
        <time>2015-03-23T10:14:57.000Z</time>
      </trkpt>
      <trkpt lat="45.14685" lon="6.35221">
        <ele>2536.3999023438</ele>
        <time>2015-03-23T10:14:58.000Z</time>
      </trkpt>
      <trkpt lat="45.14685" lon="6.35223">
        <ele>2537.1999511719</ele>
        <time>2015-03-23T10:15:01.000Z</time>
      </trkpt>
      <trkpt lat="45.14685" lon="6.35223">
        <ele>2538.3999023438</ele>
        <time>2015-03-23T10:15:06.000Z</time>
      </trkpt>
      <trkpt lat="45.14688" lon="6.35223">
        <ele>2538.6000976562</ele>
        <time>2015-03-23T10:15:15.000Z</time>
      </trkpt>
      <trkpt lat="45.14689" lon="6.35223">
        <ele>2539.3999023438</ele>
        <time>2015-03-23T10:15:19.000Z</time>
      </trkpt>
      <trkpt lat="45.14689" lon="6.35223">
        <ele>2540</ele>
        <time>2015-03-23T10:15:21.000Z</time>
      </trkpt>
      <trkpt lat="45.1469" lon="6.35222">
        <ele>2540.6000976562</ele>
        <time>2015-03-23T10:15:26.000Z</time>
      </trkpt>
      <trkpt lat="45.1469" lon="6.35222">
        <ele>2541.1999511719</ele>
        <time>2015-03-23T10:15:29.000Z</time>
      </trkpt>
      <trkpt lat="45.1469" lon="6.35222">
        <ele>2541.6000976562</ele>
        <time>2015-03-23T10:15:30.000Z</time>
      </trkpt>
      <trkpt lat="45.14695" lon="6.35221">
        <ele>2542.8000488281</ele>
        <time>2015-03-23T10:15:35.000Z</time>
      </trkpt>
      <trkpt lat="45.14695" lon="6.35221">
        <ele>2544</ele>
        <time>2015-03-23T10:15:42.000Z</time>
      </trkpt>
      <trkpt lat="45.14695" lon="6.35221">
        <ele>2544.3999023438</ele>
        <time>2015-03-23T10:15:44.000Z</time>
      </trkpt>
      <trkpt lat="45.14694" lon="6.35229">
        <ele>2544.8000488281</ele>
        <time>2015-03-23T10:15:51.000Z</time>
      </trkpt>
      <trkpt lat="45.14694" lon="6.3523">
        <ele>2545</ele>
        <time>2015-03-23T10:15:52.000Z</time>
      </trkpt>
      <trkpt lat="45.14693" lon="6.35231">
        <ele>2546.1999511719</ele>
        <time>2015-03-23T10:15:57.000Z</time>
      </trkpt>
      <trkpt lat="45.14693" lon="6.35233">
        <ele>2546.3999023438</ele>
        <time>2015-03-23T10:15:58.000Z</time>
      </trkpt>
      <trkpt lat="45.14693" lon="6.35233">
        <ele>2547.3999023438</ele>
        <time>2015-03-23T10:16:02.000Z</time>
      </trkpt>
      <trkpt lat="45.14695" lon="6.35232">
        <ele>2547.6000976562</ele>
        <time>2015-03-23T10:16:07.000Z</time>
      </trkpt>
      <trkpt lat="45.14697" lon="6.3523">
        <ele>2547.6000976562</ele>
        <time>2015-03-23T10:16:12.000Z</time>
      </trkpt>
      <trkpt lat="45.147" lon="6.3523">
        <ele>2548.8000488281</ele>
        <time>2015-03-23T10:16:16.000Z</time>
      </trkpt>
      <trkpt lat="45.14702" lon="6.3523">
        <ele>2549.1999511719</ele>
        <time>2015-03-23T10:16:18.000Z</time>
      </trkpt>
      <trkpt lat="45.14702" lon="6.3523">
        <ele>2549.8000488281</ele>
        <time>2015-03-23T10:16:21.000Z</time>
      </trkpt>
      <trkpt lat="45.14704" lon="6.3523">
        <ele>2550.6000976562</ele>
        <time>2015-03-23T10:16:25.000Z</time>
      </trkpt>
      <trkpt lat="45.14705" lon="6.3523">
        <ele>2550.8000488281</ele>
        <time>2015-03-23T10:16:27.000Z</time>
      </trkpt>
      <trkpt lat="45.14705" lon="6.3523">
        <ele>2551.3999023438</ele>
        <time>2015-03-23T10:16:33.000Z</time>
      </trkpt>
      <trkpt lat="45.14704" lon="6.35231">
        <ele>2552</ele>
        <time>2015-03-23T10:16:37.000Z</time>
      </trkpt>
      <trkpt lat="45.14703" lon="6.35232">
        <ele>2552.1999511719</ele>
        <time>2015-03-23T10:16:40.000Z</time>
      </trkpt>
      <trkpt lat="45.14703" lon="6.35233">
        <ele>2553.1999511719</ele>
        <time>2015-03-23T10:16:46.000Z</time>
      </trkpt>
      <trkpt lat="45.14703" lon="6.35233">
        <ele>2553.3999023438</ele>
        <time>2015-03-23T10:16:47.000Z</time>
      </trkpt>
      <trkpt lat="45.14703" lon="6.35233">
        <ele>2554.1999511719</ele>
        <time>2015-03-23T10:16:51.000Z</time>
      </trkpt>
      <trkpt lat="45.14703" lon="6.35233">
        <ele>2554.8000488281</ele>
        <time>2015-03-23T10:16:58.000Z</time>
      </trkpt>
      <trkpt lat="45.14703" lon="6.35233">
        <ele>2555.1999511719</ele>
        <time>2015-03-23T10:17:01.000Z</time>
      </trkpt>
      <trkpt lat="45.14703" lon="6.35233">
        <ele>2555.8000488281</ele>
        <time>2015-03-23T10:17:12.000Z</time>
      </trkpt>
      <trkpt lat="45.14705" lon="6.35233">
        <ele>2556.1999511719</ele>
        <time>2015-03-23T10:17:16.000Z</time>
      </trkpt>
      <trkpt lat="45.14708" lon="6.35233">
        <ele>2556.3999023438</ele>
        <time>2015-03-23T10:17:18.000Z</time>
      </trkpt>
      <trkpt lat="45.14712" lon="6.35235">
        <ele>2556.6000976562</ele>
        <time>2015-03-23T10:17:23.000Z</time>
      </trkpt>
      <trkpt lat="45.14712" lon="6.35236">
        <ele>2556.8000488281</ele>
        <time>2015-03-23T10:17:24.000Z</time>
      </trkpt>
      <trkpt lat="45.14712" lon="6.35236">
        <ele>2557.3999023438</ele>
        <time>2015-03-23T10:17:28.000Z</time>
      </trkpt>
      <trkpt lat="45.14712" lon="6.35236">
        <ele>2557.8000488281</ele>
        <time>2015-03-23T10:17:36.000Z</time>
      </trkpt>
      <trkpt lat="45.14712" lon="6.35236">
        <ele>2558.6000976562</ele>
        <time>2015-03-23T10:17:49.000Z</time>
      </trkpt>
      <trkpt lat="45.14712" lon="6.35236">
        <ele>2558.6000976562</ele>
        <time>2015-03-23T10:17:50.000Z</time>
      </trkpt>
      <trkpt lat="45.14712" lon="6.35236">
        <ele>2557.3999023438</ele>
        <time>2015-03-23T10:18:00.000Z</time>
      </trkpt>
      <trkpt lat="45.14712" lon="6.35236">
        <ele>2557.1999511719</ele>
        <time>2015-03-23T10:18:05.000Z</time>
      </trkpt>
      <trkpt lat="45.14712" lon="6.35236">
        <ele>2558.1999511719</ele>
        <time>2015-03-23T10:18:15.000Z</time>
      </trkpt>
      <trkpt lat="45.14709" lon="6.35238">
        <ele>2558.3999023438</ele>
        <time>2015-03-23T10:18:18.000Z</time>
      </trkpt>
      <trkpt lat="45.14707" lon="6.35243">
        <ele>2559.1999511719</ele>
        <time>2015-03-23T10:18:23.000Z</time>
      </trkpt>
      <trkpt lat="45.14706" lon="6.35245">
        <ele>2559.8000488281</ele>
        <time>2015-03-23T10:18:25.000Z</time>
      </trkpt>
      <trkpt lat="45.14706" lon="6.35245">
        <ele>2560.8000488281</ele>
        <time>2015-03-23T10:18:28.000Z</time>
      </trkpt>
      <trkpt lat="45.14709" lon="6.35248">
        <ele>2561</ele>
        <time>2015-03-23T10:18:36.000Z</time>
      </trkpt>
      <trkpt lat="45.14714" lon="6.35252">
        <ele>2561.1999511719</ele>
        <time>2015-03-23T10:18:42.000Z</time>
      </trkpt>
      <trkpt lat="45.14715" lon="6.35253">
        <ele>2561.8000488281</ele>
        <time>2015-03-23T10:18:43.000Z</time>
      </trkpt>
      <trkpt lat="45.14719" lon="6.35254">
        <ele>2563</ele>
        <time>2015-03-23T10:18:47.000Z</time>
      </trkpt>
      <trkpt lat="45.1472" lon="6.35253">
        <ele>2563.1999511719</ele>
        <time>2015-03-23T10:18:49.000Z</time>
      </trkpt>
      <trkpt lat="45.14723" lon="6.35253">
        <ele>2564</ele>
        <time>2015-03-23T10:18:56.000Z</time>
      </trkpt>
      <trkpt lat="45.14723" lon="6.35253">
        <ele>2564.1999511719</ele>
        <time>2015-03-23T10:18:57.000Z</time>
      </trkpt>
      <trkpt lat="45.14723" lon="6.35253">
        <ele>2565.1999511719</ele>
        <time>2015-03-23T10:19:00.000Z</time>
      </trkpt>
      <trkpt lat="45.14726" lon="6.35252">
        <ele>2565.8000488281</ele>
        <time>2015-03-23T10:19:04.000Z</time>
      </trkpt>
      <trkpt lat="45.14726" lon="6.35252">
        <ele>2566.1999511719</ele>
        <time>2015-03-23T10:19:07.000Z</time>
      </trkpt>
      <trkpt lat="45.14726" lon="6.35252">
        <ele>2566.8000488281</ele>
        <time>2015-03-23T10:19:13.000Z</time>
      </trkpt>
      <trkpt lat="45.14727" lon="6.35253">
        <ele>2567.1999511719</ele>
        <time>2015-03-23T10:19:17.000Z</time>
      </trkpt>
      <trkpt lat="45.14727" lon="6.35253">
        <ele>2567.6000976562</ele>
        <time>2015-03-23T10:19:22.000Z</time>
      </trkpt>
      <trkpt lat="45.14727" lon="6.35253">
        <ele>2568.3999023438</ele>
        <time>2015-03-23T10:19:26.000Z</time>
      </trkpt>
      <trkpt lat="45.14723" lon="6.35258">
        <ele>2568.6000976562</ele>
        <time>2015-03-23T10:19:30.000Z</time>
      </trkpt>
      <trkpt lat="45.14721" lon="6.35261">
        <ele>2569.1999511719</ele>
        <time>2015-03-23T10:19:36.000Z</time>
      </trkpt>
      <trkpt lat="45.1472" lon="6.35262">
        <ele>2569.1999511719</ele>
        <time>2015-03-23T10:19:37.000Z</time>
      </trkpt>
      <trkpt lat="45.1472" lon="6.35262">
        <ele>2569.3999023438</ele>
        <time>2015-03-23T10:19:38.000Z</time>
      </trkpt>
      <trkpt lat="45.14718" lon="6.35264">
        <ele>2570.1999511719</ele>
        <time>2015-03-23T10:19:44.000Z</time>
      </trkpt>
      <trkpt lat="45.14718" lon="6.35264">
        <ele>2570.3999023438</ele>
        <time>2015-03-23T10:19:46.000Z</time>
      </trkpt>
      <trkpt lat="45.14717" lon="6.35266">
        <ele>2571.3999023438</ele>
        <time>2015-03-23T10:19:53.000Z</time>
      </trkpt>
      <trkpt lat="45.14717" lon="6.35266">
        <ele>2572.3999023438</ele>
        <time>2015-03-23T10:20:04.000Z</time>
      </trkpt>
      <trkpt lat="45.1472" lon="6.35265">
        <ele>2572.6000976562</ele>
        <time>2015-03-23T10:20:09.000Z</time>
      </trkpt>
      <trkpt lat="45.14725" lon="6.35265">
        <ele>2573.1999511719</ele>
        <time>2015-03-23T10:20:15.000Z</time>
      </trkpt>
      <trkpt lat="45.14729" lon="6.35265">
        <ele>2574</ele>
        <time>2015-03-23T10:20:19.000Z</time>
      </trkpt>
      <trkpt lat="45.14729" lon="6.35265">
        <ele>2574.3999023438</ele>
        <time>2015-03-23T10:20:22.000Z</time>
      </trkpt>
      <trkpt lat="45.14731" lon="6.35263">
        <ele>2575</ele>
        <time>2015-03-23T10:20:26.000Z</time>
      </trkpt>
      <trkpt lat="45.14733" lon="6.35263">
        <ele>2575.1999511719</ele>
        <time>2015-03-23T10:20:28.000Z</time>
      </trkpt>
      <trkpt lat="45.14737" lon="6.35263">
        <ele>2575.3999023438</ele>
        <time>2015-03-23T10:20:33.000Z</time>
      </trkpt>
      <trkpt lat="45.14737" lon="6.35263">
        <ele>2575.3999023438</ele>
        <time>2015-03-23T10:20:46.000Z</time>
      </trkpt>
      <trkpt lat="45.14738" lon="6.35263">
        <ele>2575.1999511719</ele>
        <time>2015-03-23T10:20:54.000Z</time>
      </trkpt>
      <trkpt lat="45.1474" lon="6.35262">
        <ele>2576</ele>
        <time>2015-03-23T10:21:01.000Z</time>
      </trkpt>
      <trkpt lat="45.1474" lon="6.35262">
        <ele>2577</ele>
        <time>2015-03-23T10:21:07.000Z</time>
      </trkpt>
      <trkpt lat="45.14741" lon="6.35263">
        <ele>2577.3999023438</ele>
        <time>2015-03-23T10:21:09.000Z</time>
      </trkpt>
      <trkpt lat="45.14741" lon="6.35263">
        <ele>2578.1999511719</ele>
        <time>2015-03-23T10:21:14.000Z</time>
      </trkpt>
      <trkpt lat="45.14741" lon="6.35263">
        <ele>2578.6000976562</ele>
        <time>2015-03-23T10:21:15.000Z</time>
      </trkpt>
      <trkpt lat="45.14741" lon="6.35263">
        <ele>2579.1999511719</ele>
        <time>2015-03-23T10:21:18.000Z</time>
      </trkpt>
      <trkpt lat="45.14741" lon="6.35263">
        <ele>2579.6000976562</ele>
        <time>2015-03-23T10:21:19.000Z</time>
      </trkpt>
      <trkpt lat="45.14741" lon="6.35263">
        <ele>2580.6000976562</ele>
        <time>2015-03-23T10:21:23.000Z</time>
      </trkpt>
      <trkpt lat="45.14745" lon="6.35267">
        <ele>2581.6000976562</ele>
        <time>2015-03-23T10:21:30.000Z</time>
      </trkpt>
      <trkpt lat="45.14746" lon="6.35268">
        <ele>2582.1999511719</ele>
        <time>2015-03-23T10:21:41.000Z</time>
      </trkpt>
      <trkpt lat="45.14744" lon="6.35268">
        <ele>2581.6000976562</ele>
        <time>2015-03-23T10:21:52.000Z</time>
      </trkpt>
      <trkpt lat="45.14736" lon="6.35272">
        <ele>2581.8000488281</ele>
        <time>2015-03-23T10:22:03.000Z</time>
      </trkpt>
      <trkpt lat="45.1472" lon="6.35277">
        <ele>2582.1999511719</ele>
        <time>2015-03-23T10:22:14.000Z</time>
      </trkpt>
      <trkpt lat="45.14707" lon="6.35276">
        <ele>2581.6000976562</ele>
        <time>2015-03-23T10:22:25.000Z</time>
      </trkpt>
      <trkpt lat="45.14707" lon="6.35276">
        <ele>2581.6000976562</ele>
        <time>2015-03-23T10:22:36.000Z</time>
      </trkpt>
      <trkpt lat="45.14707" lon="6.35276">
        <ele>2581.8000488281</ele>
        <time>2015-03-23T10:22:54.000Z</time>
      </trkpt>
      <trkpt lat="45.14707" lon="6.35276">
        <ele>2582</ele>
        <time>2015-03-23T10:23:10.000Z</time>
      </trkpt>
      <trkpt lat="45.14707" lon="6.35276">
        <ele>2581.8000488281</ele>
        <time>2015-03-23T10:23:22.000Z</time>
      </trkpt>
      <trkpt lat="45.14711" lon="6.35271">
        <ele>2581.8000488281</ele>
        <time>2015-03-23T10:23:35.000Z</time>
      </trkpt>
      <trkpt lat="45.14711" lon="6.35271">
        <ele>2581.8000488281</ele>
        <time>2015-03-23T10:23:46.000Z</time>
      </trkpt>
      <trkpt lat="45.14711" lon="6.35271">
        <ele>2581.8000488281</ele>
        <time>2015-03-23T10:23:57.000Z</time>
      </trkpt>
      <trkpt lat="45.14711" lon="6.35271">
        <ele>2581.8000488281</ele>
        <time>2015-03-23T10:24:10.000Z</time>
      </trkpt>
      <trkpt lat="45.14711" lon="6.35271">
        <ele>2581.8000488281</ele>
        <time>2015-03-23T10:24:24.000Z</time>
      </trkpt>
      <trkpt lat="45.14711" lon="6.35271">
        <ele>2581.8000488281</ele>
        <time>2015-03-23T10:24:40.000Z</time>
      </trkpt>
      <trkpt lat="45.14711" lon="6.35271">
        <ele>2581.8000488281</ele>
        <time>2015-03-23T10:24:53.000Z</time>
      </trkpt>
      <trkpt lat="45.14713" lon="6.35272">
        <ele>2581.3999023438</ele>
        <time>2015-03-23T10:25:08.000Z</time>
      </trkpt>
      <trkpt lat="45.14713" lon="6.35272">
        <ele>2581.8000488281</ele>
        <time>2015-03-23T10:25:22.000Z</time>
      </trkpt>
      <trkpt lat="45.14713" lon="6.35272">
        <ele>2581.6000976562</ele>
        <time>2015-03-23T10:25:36.000Z</time>
      </trkpt>
      <trkpt lat="45.14713" lon="6.35272">
        <ele>2582</ele>
        <time>2015-03-23T10:25:49.000Z</time>
      </trkpt>
      <trkpt lat="45.14713" lon="6.35272">
        <ele>2581.8000488281</ele>
        <time>2015-03-23T10:25:58.000Z</time>
      </trkpt>
      <trkpt lat="45.14713" lon="6.35272">
        <ele>2581.8000488281</ele>
        <time>2015-03-23T10:26:11.000Z</time>
      </trkpt>
      <trkpt lat="45.14713" lon="6.35272">
        <ele>2582</ele>
        <time>2015-03-23T10:26:23.000Z</time>
      </trkpt>
      <trkpt lat="45.14713" lon="6.35272">
        <ele>2580.8000488281</ele>
        <time>2015-03-23T10:26:35.000Z</time>
      </trkpt>
      <trkpt lat="45.14713" lon="6.35272">
        <ele>2581.6000976562</ele>
        <time>2015-03-23T10:26:49.000Z</time>
      </trkpt>
      <trkpt lat="45.14713" lon="6.35272">
        <ele>2582</ele>
        <time>2015-03-23T10:27:01.000Z</time>
      </trkpt>
      <trkpt lat="45.14713" lon="6.35267">
        <ele>2582.6000976562</ele>
        <time>2015-03-23T10:27:10.000Z</time>
      </trkpt>
      <trkpt lat="45.14713" lon="6.35267">
        <ele>2581.8000488281</ele>
        <time>2015-03-23T10:27:24.000Z</time>
      </trkpt>
      <trkpt lat="45.14713" lon="6.35267">
        <ele>2582.1999511719</ele>
        <time>2015-03-23T10:27:39.000Z</time>
      </trkpt>
      <trkpt lat="45.14713" lon="6.35267">
        <ele>2581.8000488281</ele>
        <time>2015-03-23T10:27:50.000Z</time>
      </trkpt>
      <trkpt lat="45.14713" lon="6.35267">
        <ele>2581.8000488281</ele>
        <time>2015-03-23T10:27:52.000Z</time>
      </trkpt>
      <trkpt lat="45.14713" lon="6.35267">
        <ele>2581.6000976562</ele>
        <time>2015-03-23T10:28:07.000Z</time>
      </trkpt>
      <trkpt lat="45.14713" lon="6.35267">
        <ele>2582.1999511719</ele>
        <time>2015-03-23T10:28:20.000Z</time>
      </trkpt>
      <trkpt lat="45.14713" lon="6.35268">
        <ele>2582.1999511719</ele>
        <time>2015-03-23T10:28:32.000Z</time>
      </trkpt>
      <trkpt lat="45.14713" lon="6.35268">
        <ele>2582.6000976562</ele>
        <time>2015-03-23T10:28:43.000Z</time>
      </trkpt>
      <trkpt lat="45.14713" lon="6.35268">
        <ele>2582.1999511719</ele>
        <time>2015-03-23T10:28:56.000Z</time>
      </trkpt>
      <trkpt lat="45.14713" lon="6.35268">
        <ele>2582.1999511719</ele>
        <time>2015-03-23T10:29:11.000Z</time>
      </trkpt>
      <trkpt lat="45.14713" lon="6.35268">
        <ele>2581.8000488281</ele>
        <time>2015-03-23T10:29:24.000Z</time>
      </trkpt>
      <trkpt lat="45.14713" lon="6.35268">
        <ele>2582.3999023438</ele>
        <time>2015-03-23T10:29:34.000Z</time>
      </trkpt>
      <trkpt lat="45.14714" lon="6.35268">
        <ele>2582.3999023438</ele>
        <time>2015-03-23T10:29:48.000Z</time>
      </trkpt>
      <trkpt lat="45.14714" lon="6.35268">
        <ele>2582.3999023438</ele>
        <time>2015-03-23T10:29:59.000Z</time>
      </trkpt>
      <trkpt lat="45.14714" lon="6.35268">
        <ele>2582.1999511719</ele>
        <time>2015-03-23T10:30:14.000Z</time>
      </trkpt>
      <trkpt lat="45.14714" lon="6.35269">
        <ele>2582.3999023438</ele>
        <time>2015-03-23T10:30:28.000Z</time>
      </trkpt>
      <trkpt lat="45.14714" lon="6.35269">
        <ele>2582.1999511719</ele>
        <time>2015-03-23T10:30:39.000Z</time>
      </trkpt>
      <trkpt lat="45.1472" lon="6.35266">
        <ele>2582.1999511719</ele>
        <time>2015-03-23T10:30:49.000Z</time>
      </trkpt>
      <trkpt lat="45.14735" lon="6.35262">
        <ele>2582.1999511719</ele>
        <time>2015-03-23T10:31:02.000Z</time>
      </trkpt>
      <trkpt lat="45.14737" lon="6.35261">
        <ele>2582.1999511719</ele>
        <time>2015-03-23T10:31:15.000Z</time>
      </trkpt>
      <trkpt lat="45.14737" lon="6.35261">
        <ele>2582.1999511719</ele>
        <time>2015-03-23T10:31:24.000Z</time>
      </trkpt>
      <trkpt lat="45.14737" lon="6.35261">
        <ele>2582.1999511719</ele>
        <time>2015-03-23T10:31:36.000Z</time>
      </trkpt>
      <trkpt lat="45.14737" lon="6.35262">
        <ele>2582</ele>
        <time>2015-03-23T10:31:49.000Z</time>
      </trkpt>
      <trkpt lat="45.14737" lon="6.35262">
        <ele>2582.3999023438</ele>
        <time>2015-03-23T10:31:54.000Z</time>
      </trkpt>
      <trkpt lat="45.14737" lon="6.35262">
        <ele>2583.6000976562</ele>
        <time>2015-03-23T10:32:01.000Z</time>
      </trkpt>
      <trkpt lat="45.14737" lon="6.35262">
        <ele>2583.8000488281</ele>
        <time>2015-03-23T10:32:04.000Z</time>
      </trkpt>
      <trkpt lat="45.14737" lon="6.35262">
        <ele>2584.6000976562</ele>
        <time>2015-03-23T10:32:08.000Z</time>
      </trkpt>
      <trkpt lat="45.14737" lon="6.35262">
        <ele>2585.6000976562</ele>
        <time>2015-03-23T10:32:12.000Z</time>
      </trkpt>
      <trkpt lat="45.14737" lon="6.35262">
        <ele>2585.8000488281</ele>
        <time>2015-03-23T10:32:14.000Z</time>
      </trkpt>
      <trkpt lat="45.14737" lon="6.35266">
        <ele>2586.6000976562</ele>
        <time>2015-03-23T10:32:23.000Z</time>
      </trkpt>
      <trkpt lat="45.14737" lon="6.35266">
        <ele>2586.6000976562</ele>
        <time>2015-03-23T10:32:24.000Z</time>
      </trkpt>
      <trkpt lat="45.14737" lon="6.35276">
        <ele>2587.8000488281</ele>
        <time>2015-03-23T10:32:29.000Z</time>
      </trkpt>
      <trkpt lat="45.14737" lon="6.35278">
        <ele>2588.1999511719</ele>
        <time>2015-03-23T10:32:31.000Z</time>
      </trkpt>
      <trkpt lat="45.14737" lon="6.35278">
        <ele>2588.8000488281</ele>
        <time>2015-03-23T10:32:35.000Z</time>
      </trkpt>
      <trkpt lat="45.14737" lon="6.35278">
        <ele>2589.6000976562</ele>
        <time>2015-03-23T10:32:39.000Z</time>
      </trkpt>
      <trkpt lat="45.14737" lon="6.35278">
        <ele>2589.8000488281</ele>
        <time>2015-03-23T10:32:41.000Z</time>
      </trkpt>
      <trkpt lat="45.14737" lon="6.35278">
        <ele>2590</ele>
        <time>2015-03-23T10:32:42.000Z</time>
      </trkpt>
      <trkpt lat="45.14737" lon="6.35278">
        <ele>2591.1999511719</ele>
        <time>2015-03-23T10:32:45.000Z</time>
      </trkpt>
      <trkpt lat="45.14737" lon="6.35278">
        <ele>2591.1999511719</ele>
        <time>2015-03-23T10:32:46.000Z</time>
      </trkpt>
      <trkpt lat="45.14737" lon="6.35278">
        <ele>2592.1999511719</ele>
        <time>2015-03-23T10:32:54.000Z</time>
      </trkpt>
      <trkpt lat="45.14737" lon="6.35278">
        <ele>2592</ele>
        <time>2015-03-23T10:32:58.000Z</time>
      </trkpt>
      <trkpt lat="45.14739" lon="6.35281">
        <ele>2592.6000976562</ele>
        <time>2015-03-23T10:33:09.000Z</time>
      </trkpt>
      <trkpt lat="45.14739" lon="6.35281">
        <ele>2593.3999023438</ele>
        <time>2015-03-23T10:33:11.000Z</time>
      </trkpt>
      <trkpt lat="45.14739" lon="6.35281">
        <ele>2592.6000976562</ele>
        <time>2015-03-23T10:33:21.000Z</time>
      </trkpt>
      <trkpt lat="45.14739" lon="6.35281">
        <ele>2592.8000488281</ele>
        <time>2015-03-23T10:33:30.000Z</time>
      </trkpt>
      <trkpt lat="45.14739" lon="6.35281">
        <ele>2594.6000976562</ele>
        <time>2015-03-23T10:33:35.000Z</time>
      </trkpt>
      <trkpt lat="45.1474" lon="6.35286">
        <ele>2594.8000488281</ele>
        <time>2015-03-23T10:33:37.000Z</time>
      </trkpt>
      <trkpt lat="45.14744" lon="6.35295">
        <ele>2595.6000976562</ele>
        <time>2015-03-23T10:33:41.000Z</time>
      </trkpt>
      <trkpt lat="45.14744" lon="6.35295">
        <ele>2596.1999511719</ele>
        <time>2015-03-23T10:33:43.000Z</time>
      </trkpt>
      <trkpt lat="45.14744" lon="6.35295">
        <ele>2596.8000488281</ele>
        <time>2015-03-23T10:33:45.000Z</time>
      </trkpt>
      <trkpt lat="45.14745" lon="6.35298">
        <ele>2597.8000488281</ele>
        <time>2015-03-23T10:33:48.000Z</time>
      </trkpt>
      <trkpt lat="45.14745" lon="6.35298">
        <ele>2598</ele>
        <time>2015-03-23T10:33:49.000Z</time>
      </trkpt>
      <trkpt lat="45.14747" lon="6.35301">
        <ele>2599.6000976562</ele>
        <time>2015-03-23T10:33:57.000Z</time>
      </trkpt>
      <trkpt lat="45.14747" lon="6.35301">
        <ele>2600</ele>
        <time>2015-03-23T10:33:59.000Z</time>
      </trkpt>
      <trkpt lat="45.14749" lon="6.35304">
        <ele>2600.8000488281</ele>
        <time>2015-03-23T10:34:04.000Z</time>
      </trkpt>
      <trkpt lat="45.14749" lon="6.35304">
        <ele>2601.3999023438</ele>
        <time>2015-03-23T10:34:06.000Z</time>
      </trkpt>
      <trkpt lat="45.14749" lon="6.35304">
        <ele>2601.8000488281</ele>
        <time>2015-03-23T10:34:09.000Z</time>
      </trkpt>
      <trkpt lat="45.14749" lon="6.35304">
        <ele>2602.1999511719</ele>
        <time>2015-03-23T10:34:11.000Z</time>
      </trkpt>
      <trkpt lat="45.14749" lon="6.35304">
        <ele>2603</ele>
        <time>2015-03-23T10:34:18.000Z</time>
      </trkpt>
      <trkpt lat="45.14749" lon="6.35304">
        <ele>2603.1999511719</ele>
        <time>2015-03-23T10:34:19.000Z</time>
      </trkpt>
      <trkpt lat="45.14749" lon="6.35304">
        <ele>2604</ele>
        <time>2015-03-23T10:34:21.000Z</time>
      </trkpt>
      <trkpt lat="45.14749" lon="6.35304">
        <ele>2605</ele>
        <time>2015-03-23T10:34:27.000Z</time>
      </trkpt>
      <trkpt lat="45.14749" lon="6.35304">
        <ele>2605.8000488281</ele>
        <time>2015-03-23T10:34:34.000Z</time>
      </trkpt>
      <trkpt lat="45.14749" lon="6.35304">
        <ele>2606</ele>
        <time>2015-03-23T10:34:37.000Z</time>
      </trkpt>
      <trkpt lat="45.14749" lon="6.35304">
        <ele>2607.1999511719</ele>
        <time>2015-03-23T10:34:41.000Z</time>
      </trkpt>
      <trkpt lat="45.14749" lon="6.35304">
        <ele>2607.6000976562</ele>
        <time>2015-03-23T10:34:42.000Z</time>
      </trkpt>
      <trkpt lat="45.14748" lon="6.35306">
        <ele>2608.1999511719</ele>
        <time>2015-03-23T10:34:45.000Z</time>
      </trkpt>
      <trkpt lat="45.14748" lon="6.35306">
        <ele>2608.6000976562</ele>
        <time>2015-03-23T10:34:49.000Z</time>
      </trkpt>
      <trkpt lat="45.14748" lon="6.35306">
        <ele>2609.3999023438</ele>
        <time>2015-03-23T10:34:52.000Z</time>
      </trkpt>
      <trkpt lat="45.14748" lon="6.35306">
        <ele>2610.1999511719</ele>
        <time>2015-03-23T10:34:56.000Z</time>
      </trkpt>
      <trkpt lat="45.14748" lon="6.35306">
        <ele>2610.3999023438</ele>
        <time>2015-03-23T10:34:57.000Z</time>
      </trkpt>
      <trkpt lat="45.14748" lon="6.35306">
        <ele>2611.3999023438</ele>
        <time>2015-03-23T10:35:04.000Z</time>
      </trkpt>
      <trkpt lat="45.14754" lon="6.35316">
        <ele>2611.8000488281</ele>
        <time>2015-03-23T10:35:06.000Z</time>
      </trkpt>
      <trkpt lat="45.14756" lon="6.3532">
        <ele>2612.3999023438</ele>
        <time>2015-03-23T10:35:12.000Z</time>
      </trkpt>
      <trkpt lat="45.14756" lon="6.3532">
        <ele>2612.6000976562</ele>
        <time>2015-03-23T10:35:13.000Z</time>
      </trkpt>
      <trkpt lat="45.14756" lon="6.3532">
        <ele>2613.6000976562</ele>
        <time>2015-03-23T10:35:19.000Z</time>
      </trkpt>
      <trkpt lat="45.14756" lon="6.3532">
        <ele>2613.8000488281</ele>
        <time>2015-03-23T10:35:20.000Z</time>
      </trkpt>
      <trkpt lat="45.14755" lon="6.35322">
        <ele>2614.8000488281</ele>
        <time>2015-03-23T10:35:25.000Z</time>
      </trkpt>
      <trkpt lat="45.14755" lon="6.35322">
        <ele>2614.8000488281</ele>
        <time>2015-03-23T10:35:26.000Z</time>
      </trkpt>
      <trkpt lat="45.14757" lon="6.35329">
        <ele>2615.8000488281</ele>
        <time>2015-03-23T10:35:31.000Z</time>
      </trkpt>
      <trkpt lat="45.14757" lon="6.35331">
        <ele>2616.8000488281</ele>
        <time>2015-03-23T10:35:37.000Z</time>
      </trkpt>
      <trkpt lat="45.14759" lon="6.35333">
        <ele>2618</ele>
        <time>2015-03-23T10:35:42.000Z</time>
      </trkpt>
      <trkpt lat="45.14759" lon="6.35334">
        <ele>2618.3999023438</ele>
        <time>2015-03-23T10:35:45.000Z</time>
      </trkpt>
      <trkpt lat="45.14759" lon="6.35334">
        <ele>2619</ele>
        <time>2015-03-23T10:35:47.000Z</time>
      </trkpt>
      <trkpt lat="45.14759" lon="6.35335">
        <ele>2620</ele>
        <time>2015-03-23T10:35:53.000Z</time>
      </trkpt>
      <trkpt lat="45.14758" lon="6.35336">
        <ele>2620.3999023438</ele>
        <time>2015-03-23T10:35:55.000Z</time>
      </trkpt>
      <trkpt lat="45.14756" lon="6.35339">
        <ele>2621</ele>
        <time>2015-03-23T10:35:58.000Z</time>
      </trkpt>
      <trkpt lat="45.14756" lon="6.35339">
        <ele>2621.3999023438</ele>
        <time>2015-03-23T10:36:02.000Z</time>
      </trkpt>
      <trkpt lat="45.14756" lon="6.35339">
        <ele>2622.1999511719</ele>
        <time>2015-03-23T10:36:06.000Z</time>
      </trkpt>
      <trkpt lat="45.14756" lon="6.3534">
        <ele>2623.1999511719</ele>
        <time>2015-03-23T10:36:10.000Z</time>
      </trkpt>
      <trkpt lat="45.14757" lon="6.35342">
        <ele>2623.3999023438</ele>
        <time>2015-03-23T10:36:11.000Z</time>
      </trkpt>
      <trkpt lat="45.14758" lon="6.35346">
        <ele>2624.3999023438</ele>
        <time>2015-03-23T10:36:17.000Z</time>
      </trkpt>
      <trkpt lat="45.14758" lon="6.35347">
        <ele>2624.3999023438</ele>
        <time>2015-03-23T10:36:18.000Z</time>
      </trkpt>
      <trkpt lat="45.14757" lon="6.35349">
        <ele>2625.1999511719</ele>
        <time>2015-03-23T10:36:21.000Z</time>
      </trkpt>
      <trkpt lat="45.14757" lon="6.35349">
        <ele>2625.6000976562</ele>
        <time>2015-03-23T10:36:22.000Z</time>
      </trkpt>
      <trkpt lat="45.14758" lon="6.35354">
        <ele>2626.6000976562</ele>
        <time>2015-03-23T10:36:29.000Z</time>
      </trkpt>
      <trkpt lat="45.14758" lon="6.35354">
        <ele>2626.8000488281</ele>
        <time>2015-03-23T10:36:30.000Z</time>
      </trkpt>
      <trkpt lat="45.14758" lon="6.35354">
        <ele>2628</ele>
        <time>2015-03-23T10:36:34.000Z</time>
      </trkpt>
      <trkpt lat="45.14758" lon="6.35354">
        <ele>2628.1999511719</ele>
        <time>2015-03-23T10:36:40.000Z</time>
      </trkpt>
      <trkpt lat="45.14757" lon="6.35354">
        <ele>2628.3999023438</ele>
        <time>2015-03-23T10:36:52.000Z</time>
      </trkpt>
      <trkpt lat="45.14757" lon="6.35354">
        <ele>2628.6000976562</ele>
        <time>2015-03-23T10:37:07.000Z</time>
      </trkpt>
      <trkpt lat="45.14757" lon="6.35354">
        <ele>2628.1999511719</ele>
        <time>2015-03-23T10:37:24.000Z</time>
      </trkpt>
      <trkpt lat="45.14757" lon="6.35354">
        <ele>2629.3999023438</ele>
        <time>2015-03-23T10:37:40.000Z</time>
      </trkpt>
      <trkpt lat="45.14757" lon="6.35354">
        <ele>2630</ele>
        <time>2015-03-23T10:37:42.000Z</time>
      </trkpt>
      <trkpt lat="45.14757" lon="6.35354">
        <ele>2629.1999511719</ele>
        <time>2015-03-23T10:37:53.000Z</time>
      </trkpt>
      <trkpt lat="45.14757" lon="6.35354">
        <ele>2628.3999023438</ele>
        <time>2015-03-23T10:37:58.000Z</time>
      </trkpt>
      <trkpt lat="45.14757" lon="6.35354">
        <ele>2629.6000976562</ele>
        <time>2015-03-23T10:38:02.000Z</time>
      </trkpt>
      <trkpt lat="45.14757" lon="6.35354">
        <ele>2630</ele>
        <time>2015-03-23T10:38:03.000Z</time>
      </trkpt>
      <trkpt lat="45.14757" lon="6.35355">
        <ele>2630.1999511719</ele>
        <time>2015-03-23T10:38:17.000Z</time>
      </trkpt>
      <trkpt lat="45.14757" lon="6.35354">
        <ele>2630.6000976562</ele>
        <time>2015-03-23T10:38:31.000Z</time>
      </trkpt>
      <trkpt lat="45.14757" lon="6.35354">
        <ele>2630.8000488281</ele>
        <time>2015-03-23T10:38:32.000Z</time>
      </trkpt>
      <trkpt lat="45.14757" lon="6.35352">
        <ele>2630.6000976562</ele>
        <time>2015-03-23T10:38:43.000Z</time>
      </trkpt>
      <trkpt lat="45.14758" lon="6.35349">
        <ele>2630.8000488281</ele>
        <time>2015-03-23T10:38:54.000Z</time>
      </trkpt>
      <trkpt lat="45.14758" lon="6.35349">
        <ele>2630.8000488281</ele>
        <time>2015-03-23T10:39:11.000Z</time>
      </trkpt>
      <trkpt lat="45.14758" lon="6.35349">
        <ele>2630.3999023438</ele>
        <time>2015-03-23T10:39:20.000Z</time>
      </trkpt>
      <trkpt lat="45.14758" lon="6.35349">
        <ele>2630.3999023438</ele>
        <time>2015-03-23T10:39:32.000Z</time>
      </trkpt>
      <trkpt lat="45.14759" lon="6.35349">
        <ele>2630.3999023438</ele>
        <time>2015-03-23T10:39:43.000Z</time>
      </trkpt>
      <trkpt lat="45.14759" lon="6.35349">
        <ele>2630.1999511719</ele>
        <time>2015-03-23T10:39:54.000Z</time>
      </trkpt>
      <trkpt lat="45.14762" lon="6.35363">
        <ele>2631</ele>
        <time>2015-03-23T10:40:05.000Z</time>
      </trkpt>
      <trkpt lat="45.14764" lon="6.35366">
        <ele>2631.1999511719</ele>
        <time>2015-03-23T10:40:12.000Z</time>
      </trkpt>
      <trkpt lat="45.14766" lon="6.35367">
        <ele>2631.8000488281</ele>
        <time>2015-03-23T10:40:16.000Z</time>
      </trkpt>
      <trkpt lat="45.14766" lon="6.35369">
        <ele>2632.1999511719</ele>
        <time>2015-03-23T10:40:20.000Z</time>
      </trkpt>
      <trkpt lat="45.14766" lon="6.35369">
        <ele>2632.3999023438</ele>
        <time>2015-03-23T10:40:21.000Z</time>
      </trkpt>
      <trkpt lat="45.14766" lon="6.35371">
        <ele>2633</ele>
        <time>2015-03-23T10:40:26.000Z</time>
      </trkpt>
      <trkpt lat="45.14766" lon="6.35371">
        <ele>2633.6000976562</ele>
        <time>2015-03-23T10:40:28.000Z</time>
      </trkpt>
      <trkpt lat="45.14762" lon="6.35377">
        <ele>2634</ele>
        <time>2015-03-23T10:40:37.000Z</time>
      </trkpt>
      <trkpt lat="45.14761" lon="6.35377">
        <ele>2634.1999511719</ele>
        <time>2015-03-23T10:40:38.000Z</time>
      </trkpt>
      <trkpt lat="45.14762" lon="6.35377">
        <ele>2635.3999023438</ele>
        <time>2015-03-23T10:40:42.000Z</time>
      </trkpt>
      <trkpt lat="45.14762" lon="6.35377">
        <ele>2635.6000976562</ele>
        <time>2015-03-23T10:40:44.000Z</time>
      </trkpt>
      <trkpt lat="45.14762" lon="6.35377">
        <ele>2635.3999023438</ele>
        <time>2015-03-23T10:40:54.000Z</time>
      </trkpt>
      <trkpt lat="45.14763" lon="6.35375">
        <ele>2635.1999511719</ele>
        <time>2015-03-23T10:41:05.000Z</time>
      </trkpt>
      <trkpt lat="45.14774" lon="6.35362">
        <ele>2635.3999023438</ele>
        <time>2015-03-23T10:41:38.000Z</time>
      </trkpt>
      <trkpt lat="45.14771" lon="6.35365">
        <ele>2635.8000488281</ele>
        <time>2015-03-23T10:41:53.000Z</time>
      </trkpt>
      <trkpt lat="45.14766" lon="6.35373">
        <ele>2635.6000976562</ele>
        <time>2015-03-23T10:42:03.000Z</time>
      </trkpt>
      <trkpt lat="45.14767" lon="6.35372">
        <ele>2635.6000976562</ele>
        <time>2015-03-23T10:42:11.000Z</time>
      </trkpt>
      <trkpt lat="45.14772" lon="6.35368">
        <ele>2636</ele>
        <time>2015-03-23T10:42:23.000Z</time>
      </trkpt>
      <trkpt lat="45.14768" lon="6.35373">
        <ele>2637</ele>
        <time>2015-03-23T10:42:27.000Z</time>
      </trkpt>
      <trkpt lat="45.14768" lon="6.35376">
        <ele>2638</ele>
        <time>2015-03-23T10:42:32.000Z</time>
      </trkpt>
      <trkpt lat="45.14769" lon="6.35377">
        <ele>2638.3999023438</ele>
        <time>2015-03-23T10:42:33.000Z</time>
      </trkpt>
      <trkpt lat="45.14769" lon="6.35379">
        <ele>2639.1999511719</ele>
        <time>2015-03-23T10:42:36.000Z</time>
      </trkpt>
      <trkpt lat="45.14768" lon="6.35381">
        <ele>2640.3999023438</ele>
        <time>2015-03-23T10:42:41.000Z</time>
      </trkpt>
      <trkpt lat="45.14766" lon="6.35384">
        <ele>2640.6000976562</ele>
        <time>2015-03-23T10:42:43.000Z</time>
      </trkpt>
      <trkpt lat="45.14765" lon="6.35389">
        <ele>2641.6000976562</ele>
        <time>2015-03-23T10:42:46.000Z</time>
      </trkpt>
      <trkpt lat="45.14766" lon="6.35391">
        <ele>2642.3999023438</ele>
        <time>2015-03-23T10:42:49.000Z</time>
      </trkpt>
      <trkpt lat="45.14767" lon="6.35391">
        <ele>2643</ele>
        <time>2015-03-23T10:42:51.000Z</time>
      </trkpt>
      <trkpt lat="45.14769" lon="6.35391">
        <ele>2644</ele>
        <time>2015-03-23T10:42:56.000Z</time>
      </trkpt>
      <trkpt lat="45.1477" lon="6.3539">
        <ele>2645</ele>
        <time>2015-03-23T10:43:02.000Z</time>
      </trkpt>
      <trkpt lat="45.1477" lon="6.3539">
        <ele>2645.1999511719</ele>
        <time>2015-03-23T10:43:03.000Z</time>
      </trkpt>
      <trkpt lat="45.1477" lon="6.35391">
        <ele>2645.8000488281</ele>
        <time>2015-03-23T10:43:05.000Z</time>
      </trkpt>
      <trkpt lat="45.14771" lon="6.3539">
        <ele>2646</ele>
        <time>2015-03-23T10:43:06.000Z</time>
      </trkpt>
      <trkpt lat="45.14772" lon="6.35388">
        <ele>2647.1999511719</ele>
        <time>2015-03-23T10:43:12.000Z</time>
      </trkpt>
      <trkpt lat="45.14773" lon="6.35388">
        <ele>2647.8000488281</ele>
        <time>2015-03-23T10:43:15.000Z</time>
      </trkpt>
      <trkpt lat="45.1478" lon="6.35387">
        <ele>2648.1999511719</ele>
        <time>2015-03-23T10:43:18.000Z</time>
      </trkpt>
      <trkpt lat="45.1478" lon="6.35388">
        <ele>2648.3999023438</ele>
        <time>2015-03-23T10:43:21.000Z</time>
      </trkpt>
      <trkpt lat="45.14779" lon="6.35392">
        <ele>2649.1999511719</ele>
        <time>2015-03-23T10:43:26.000Z</time>
      </trkpt>
      <trkpt lat="45.14778" lon="6.35393">
        <ele>2649.6000976562</ele>
        <time>2015-03-23T10:43:28.000Z</time>
      </trkpt>
      <trkpt lat="45.14777" lon="6.35395">
        <ele>2650.6000976562</ele>
        <time>2015-03-23T10:43:34.000Z</time>
      </trkpt>
      <trkpt lat="45.14776" lon="6.35396">
        <ele>2650.3999023438</ele>
        <time>2015-03-23T10:43:38.000Z</time>
      </trkpt>
      <trkpt lat="45.14776" lon="6.35396">
        <ele>2651.8000488281</ele>
        <time>2015-03-23T10:43:49.000Z</time>
      </trkpt>
      <trkpt lat="45.14776" lon="6.35396">
        <ele>2651.8000488281</ele>
        <time>2015-03-23T10:43:50.000Z</time>
      </trkpt>
      <trkpt lat="45.14776" lon="6.35396">
        <ele>2652.8000488281</ele>
        <time>2015-03-23T10:43:56.000Z</time>
      </trkpt>
      <trkpt lat="45.14776" lon="6.35396">
        <ele>2653.6000976562</ele>
        <time>2015-03-23T10:43:58.000Z</time>
      </trkpt>
      <trkpt lat="45.14776" lon="6.35396">
        <ele>2653.8000488281</ele>
        <time>2015-03-23T10:44:00.000Z</time>
      </trkpt>
      <trkpt lat="45.14776" lon="6.35396">
        <ele>2654.8000488281</ele>
        <time>2015-03-23T10:44:07.000Z</time>
      </trkpt>
      <trkpt lat="45.14776" lon="6.35396">
        <ele>2655.8000488281</ele>
        <time>2015-03-23T10:44:13.000Z</time>
      </trkpt>
      <trkpt lat="45.14777" lon="6.35398">
        <ele>2656</ele>
        <time>2015-03-23T10:44:14.000Z</time>
      </trkpt>
      <trkpt lat="45.14778" lon="6.35404">
        <ele>2656.8000488281</ele>
        <time>2015-03-23T10:44:18.000Z</time>
      </trkpt>
      <trkpt lat="45.14778" lon="6.35405">
        <ele>2657.1999511719</ele>
        <time>2015-03-23T10:44:19.000Z</time>
      </trkpt>
      <trkpt lat="45.14777" lon="6.35411">
        <ele>2657.8000488281</ele>
        <time>2015-03-23T10:44:21.000Z</time>
      </trkpt>
      <trkpt lat="45.14775" lon="6.35415">
        <ele>2658</ele>
        <time>2015-03-23T10:44:24.000Z</time>
      </trkpt>
      <trkpt lat="45.14773" lon="6.35418">
        <ele>2658.3999023438</ele>
        <time>2015-03-23T10:44:28.000Z</time>
      </trkpt>
      <trkpt lat="45.14772" lon="6.35421">
        <ele>2659.6000976562</ele>
        <time>2015-03-23T10:44:34.000Z</time>
      </trkpt>
      <trkpt lat="45.14771" lon="6.35424">
        <ele>2660.6000976562</ele>
        <time>2015-03-23T10:44:40.000Z</time>
      </trkpt>
      <trkpt lat="45.14771" lon="6.35424">
        <ele>2660.8000488281</ele>
        <time>2015-03-23T10:44:42.000Z</time>
      </trkpt>
      <trkpt lat="45.14772" lon="6.35425">
        <ele>2662.1999511719</ele>
        <time>2015-03-23T10:44:46.000Z</time>
      </trkpt>
      <trkpt lat="45.14772" lon="6.35425">
        <ele>2662.3999023438</ele>
        <time>2015-03-23T10:44:47.000Z</time>
      </trkpt>
      <trkpt lat="45.14772" lon="6.35425">
        <ele>2663.3999023438</ele>
        <time>2015-03-23T10:44:52.000Z</time>
      </trkpt>
      <trkpt lat="45.14772" lon="6.35425">
        <ele>2663.8000488281</ele>
        <time>2015-03-23T10:44:55.000Z</time>
      </trkpt>
      <trkpt lat="45.14772" lon="6.35425">
        <ele>2664.3999023438</ele>
        <time>2015-03-23T10:44:57.000Z</time>
      </trkpt>
      <trkpt lat="45.14772" lon="6.35429">
        <ele>2665</ele>
        <time>2015-03-23T10:45:02.000Z</time>
      </trkpt>
      <trkpt lat="45.14774" lon="6.35428">
        <ele>2665.6000976562</ele>
        <time>2015-03-23T10:45:05.000Z</time>
      </trkpt>
      <trkpt lat="45.14774" lon="6.35428">
        <ele>2666.6000976562</ele>
        <time>2015-03-23T10:45:08.000Z</time>
      </trkpt>
      <trkpt lat="45.14774" lon="6.35428">
        <ele>2666.6000976562</ele>
        <time>2015-03-23T10:45:09.000Z</time>
      </trkpt>
      <trkpt lat="45.14784" lon="6.35425">
        <ele>2668</ele>
        <time>2015-03-23T10:45:14.000Z</time>
      </trkpt>
      <trkpt lat="45.14786" lon="6.35424">
        <ele>2668.6000976562</ele>
        <time>2015-03-23T10:45:16.000Z</time>
      </trkpt>
      <trkpt lat="45.14788" lon="6.35423">
        <ele>2669</ele>
        <time>2015-03-23T10:45:20.000Z</time>
      </trkpt>
      <trkpt lat="45.14788" lon="6.35423">
        <ele>2670.1999511719</ele>
        <time>2015-03-23T10:45:24.000Z</time>
      </trkpt>
      <trkpt lat="45.14788" lon="6.35423">
        <ele>2671.1999511719</ele>
        <time>2015-03-23T10:45:30.000Z</time>
      </trkpt>
      <trkpt lat="45.14788" lon="6.35423">
        <ele>2672</ele>
        <time>2015-03-23T10:45:34.000Z</time>
      </trkpt>
      <trkpt lat="45.14788" lon="6.35423">
        <ele>2672.3999023438</ele>
        <time>2015-03-23T10:45:35.000Z</time>
      </trkpt>
      <trkpt lat="45.14788" lon="6.35423">
        <ele>2672.8000488281</ele>
        <time>2015-03-23T10:45:36.000Z</time>
      </trkpt>
      <trkpt lat="45.14788" lon="6.35423">
        <ele>2673.6000976562</ele>
        <time>2015-03-23T10:45:38.000Z</time>
      </trkpt>
      <trkpt lat="45.14788" lon="6.35423">
        <ele>2674.1999511719</ele>
        <time>2015-03-23T10:45:45.000Z</time>
      </trkpt>
      <trkpt lat="45.14788" lon="6.35423">
        <ele>2674.8000488281</ele>
        <time>2015-03-23T10:45:48.000Z</time>
      </trkpt>
      <trkpt lat="45.14788" lon="6.35423">
        <ele>2675.6000976562</ele>
        <time>2015-03-23T10:45:57.000Z</time>
      </trkpt>
      <trkpt lat="45.14788" lon="6.35423">
        <ele>2675.8000488281</ele>
        <time>2015-03-23T10:45:59.000Z</time>
      </trkpt>
      <trkpt lat="45.14787" lon="6.35423">
        <ele>2676.1999511719</ele>
        <time>2015-03-23T10:46:05.000Z</time>
      </trkpt>
      <trkpt lat="45.14787" lon="6.35423">
        <ele>2677</ele>
        <time>2015-03-23T10:46:10.000Z</time>
      </trkpt>
      <trkpt lat="45.14787" lon="6.35423">
        <ele>2677.8000488281</ele>
        <time>2015-03-23T10:46:13.000Z</time>
      </trkpt>
      <trkpt lat="45.14787" lon="6.35424">
        <ele>2678</ele>
        <time>2015-03-23T10:46:16.000Z</time>
      </trkpt>
      <trkpt lat="45.14787" lon="6.3543">
        <ele>2677.8000488281</ele>
        <time>2015-03-23T10:46:24.000Z</time>
      </trkpt>
      <trkpt lat="45.14792" lon="6.35427">
        <ele>2678.8000488281</ele>
        <time>2015-03-23T10:46:35.000Z</time>
      </trkpt>
      <trkpt lat="45.14793" lon="6.35426">
        <ele>2679</ele>
        <time>2015-03-23T10:46:37.000Z</time>
      </trkpt>
      <trkpt lat="45.14795" lon="6.35427">
        <ele>2680</ele>
        <time>2015-03-23T10:46:43.000Z</time>
      </trkpt>
      <trkpt lat="45.14795" lon="6.35427">
        <ele>2680.1999511719</ele>
        <time>2015-03-23T10:46:44.000Z</time>
      </trkpt>
      <trkpt lat="45.14795" lon="6.35427">
        <ele>2681.1999511719</ele>
        <time>2015-03-23T10:46:50.000Z</time>
      </trkpt>
      <trkpt lat="45.14795" lon="6.35427">
        <ele>2681.3999023438</ele>
        <time>2015-03-23T10:46:51.000Z</time>
      </trkpt>
      <trkpt lat="45.14795" lon="6.35427">
        <ele>2682.1999511719</ele>
        <time>2015-03-23T10:46:56.000Z</time>
      </trkpt>
      <trkpt lat="45.14795" lon="6.35427">
        <ele>2682.3999023438</ele>
        <time>2015-03-23T10:46:58.000Z</time>
      </trkpt>
      <trkpt lat="45.14796" lon="6.35428">
        <ele>2683.1999511719</ele>
        <time>2015-03-23T10:47:01.000Z</time>
      </trkpt>
      <trkpt lat="45.14796" lon="6.35428">
        <ele>2683.3999023438</ele>
        <time>2015-03-23T10:47:02.000Z</time>
      </trkpt>
      <trkpt lat="45.14797" lon="6.35431">
        <ele>2683.6000976562</ele>
        <time>2015-03-23T10:47:06.000Z</time>
      </trkpt>
      <trkpt lat="45.14797" lon="6.35435">
        <ele>2684.3999023438</ele>
        <time>2015-03-23T10:47:09.000Z</time>
      </trkpt>
      <trkpt lat="45.14797" lon="6.35435">
        <ele>2685.3999023438</ele>
        <time>2015-03-23T10:47:13.000Z</time>
      </trkpt>
      <trkpt lat="45.14798" lon="6.35436">
        <ele>2685.6000976562</ele>
        <time>2015-03-23T10:47:16.000Z</time>
      </trkpt>
      <trkpt lat="45.14797" lon="6.35438">
        <ele>2686.6000976562</ele>
        <time>2015-03-23T10:47:21.000Z</time>
      </trkpt>
      <trkpt lat="45.14798" lon="6.3544">
        <ele>2687.3999023438</ele>
        <time>2015-03-23T10:47:25.000Z</time>
      </trkpt>
      <trkpt lat="45.14798" lon="6.3544">
        <ele>2687.8000488281</ele>
        <time>2015-03-23T10:47:29.000Z</time>
      </trkpt>
      <trkpt lat="45.14798" lon="6.35441">
        <ele>2688.3999023438</ele>
        <time>2015-03-23T10:47:31.000Z</time>
      </trkpt>
      <trkpt lat="45.14797" lon="6.35443">
        <ele>2689</ele>
        <time>2015-03-23T10:47:33.000Z</time>
      </trkpt>
      <trkpt lat="45.14798" lon="6.35443">
        <ele>2690</ele>
        <time>2015-03-23T10:47:38.000Z</time>
      </trkpt>
      <trkpt lat="45.14798" lon="6.35443">
        <ele>2691</ele>
        <time>2015-03-23T10:47:43.000Z</time>
      </trkpt>
      <trkpt lat="45.14798" lon="6.35443">
        <ele>2691.8000488281</ele>
        <time>2015-03-23T10:47:47.000Z</time>
      </trkpt>
      <trkpt lat="45.14802" lon="6.35442">
        <ele>2692.1999511719</ele>
        <time>2015-03-23T10:47:51.000Z</time>
      </trkpt>
      <trkpt lat="45.14803" lon="6.35442">
        <ele>2693</ele>
        <time>2015-03-23T10:47:56.000Z</time>
      </trkpt>
      <trkpt lat="45.14803" lon="6.35442">
        <ele>2693.3999023438</ele>
        <time>2015-03-23T10:47:58.000Z</time>
      </trkpt>
      <trkpt lat="45.14803" lon="6.35444">
        <ele>2693.6000976562</ele>
        <time>2015-03-23T10:48:07.000Z</time>
      </trkpt>
      <trkpt lat="45.14802" lon="6.3545">
        <ele>2694</ele>
        <time>2015-03-23T10:48:12.000Z</time>
      </trkpt>
      <trkpt lat="45.14801" lon="6.3545">
        <ele>2694.6000976562</ele>
        <time>2015-03-23T10:48:14.000Z</time>
      </trkpt>
      <trkpt lat="45.148" lon="6.35452">
        <ele>2695.1999511719</ele>
        <time>2015-03-23T10:48:18.000Z</time>
      </trkpt>
      <trkpt lat="45.14801" lon="6.35453">
        <ele>2695.6000976562</ele>
        <time>2015-03-23T10:48:20.000Z</time>
      </trkpt>
      <trkpt lat="45.14802" lon="6.35453">
        <ele>2696.3999023438</ele>
        <time>2015-03-23T10:48:24.000Z</time>
      </trkpt>
      <trkpt lat="45.14802" lon="6.35453">
        <ele>2696.6000976562</ele>
        <time>2015-03-23T10:48:25.000Z</time>
      </trkpt>
      <trkpt lat="45.14804" lon="6.35451">
        <ele>2697.1999511719</ele>
        <time>2015-03-23T10:48:34.000Z</time>
      </trkpt>
      <trkpt lat="45.14806" lon="6.35449">
        <ele>2697.8000488281</ele>
        <time>2015-03-23T10:48:36.000Z</time>
      </trkpt>
      <trkpt lat="45.14807" lon="6.35448">
        <ele>2698.6000976562</ele>
        <time>2015-03-23T10:48:41.000Z</time>
      </trkpt>
      <trkpt lat="45.14808" lon="6.35449">
        <ele>2699.1999511719</ele>
        <time>2015-03-23T10:48:47.000Z</time>
      </trkpt>
      <trkpt lat="45.14808" lon="6.35451">
        <ele>2699.8000488281</ele>
        <time>2015-03-23T10:48:49.000Z</time>
      </trkpt>
      <trkpt lat="45.14808" lon="6.35451">
        <ele>2700.3999023438</ele>
        <time>2015-03-23T10:48:51.000Z</time>
      </trkpt>
      <trkpt lat="45.14808" lon="6.35452">
        <ele>2700.8000488281</ele>
        <time>2015-03-23T10:48:59.000Z</time>
      </trkpt>
      <trkpt lat="45.14809" lon="6.35452">
        <ele>2701.6000976562</ele>
        <time>2015-03-23T10:49:01.000Z</time>
      </trkpt>
      <trkpt lat="45.14809" lon="6.35452">
        <ele>2702.6000976562</ele>
        <time>2015-03-23T10:49:04.000Z</time>
      </trkpt>
      <trkpt lat="45.1481" lon="6.35455">
        <ele>2703.3999023438</ele>
        <time>2015-03-23T10:49:07.000Z</time>
      </trkpt>
      <trkpt lat="45.1481" lon="6.35456">
        <ele>2703.8000488281</ele>
        <time>2015-03-23T10:49:09.000Z</time>
      </trkpt>
      <trkpt lat="45.14811" lon="6.35457">
        <ele>2704.3999023438</ele>
        <time>2015-03-23T10:49:11.000Z</time>
      </trkpt>
      <trkpt lat="45.14811" lon="6.35457">
        <ele>2704.8000488281</ele>
        <time>2015-03-23T10:49:13.000Z</time>
      </trkpt>
      <trkpt lat="45.14812" lon="6.35458">
        <ele>2705.8000488281</ele>
        <time>2015-03-23T10:49:19.000Z</time>
      </trkpt>
      <trkpt lat="45.14811" lon="6.35461">
        <ele>2706</ele>
        <time>2015-03-23T10:49:20.000Z</time>
      </trkpt>
      <trkpt lat="45.14811" lon="6.35463">
        <ele>2706.8000488281</ele>
        <time>2015-03-23T10:49:25.000Z</time>
      </trkpt>
      <trkpt lat="45.14811" lon="6.35463">
        <ele>2707</ele>
        <time>2015-03-23T10:49:26.000Z</time>
      </trkpt>
      <trkpt lat="45.14811" lon="6.35464">
        <ele>2707.8000488281</ele>
        <time>2015-03-23T10:49:33.000Z</time>
      </trkpt>
      <trkpt lat="45.14812" lon="6.35464">
        <ele>2708.1999511719</ele>
        <time>2015-03-23T10:49:39.000Z</time>
      </trkpt>
      <trkpt lat="45.14812" lon="6.35465">
        <ele>2708.8000488281</ele>
        <time>2015-03-23T10:49:42.000Z</time>
      </trkpt>
      <trkpt lat="45.14812" lon="6.35466">
        <ele>2709.3999023438</ele>
        <time>2015-03-23T10:49:46.000Z</time>
      </trkpt>
      <trkpt lat="45.14813" lon="6.35466">
        <ele>2709.6000976562</ele>
        <time>2015-03-23T10:49:48.000Z</time>
      </trkpt>
      <trkpt lat="45.14813" lon="6.35468">
        <ele>2710.3999023438</ele>
        <time>2015-03-23T10:49:52.000Z</time>
      </trkpt>
      <trkpt lat="45.14813" lon="6.35468">
        <ele>2711.1999511719</ele>
        <time>2015-03-23T10:49:55.000Z</time>
      </trkpt>
      <trkpt lat="45.14813" lon="6.35469">
        <ele>2711.3999023438</ele>
        <time>2015-03-23T10:49:58.000Z</time>
      </trkpt>
      <trkpt lat="45.14812" lon="6.3547">
        <ele>2712.1999511719</ele>
        <time>2015-03-23T10:50:01.000Z</time>
      </trkpt>
      <trkpt lat="45.14812" lon="6.35473">
        <ele>2712.6000976562</ele>
        <time>2015-03-23T10:50:06.000Z</time>
      </trkpt>
      <trkpt lat="45.14813" lon="6.35474">
        <ele>2712.8000488281</ele>
        <time>2015-03-23T10:50:10.000Z</time>
      </trkpt>
      <trkpt lat="45.14813" lon="6.35476">
        <ele>2713.6000976562</ele>
        <time>2015-03-23T10:50:12.000Z</time>
      </trkpt>
      <trkpt lat="45.14814" lon="6.35476">
        <ele>2714.1999511719</ele>
        <time>2015-03-23T10:50:15.000Z</time>
      </trkpt>
      <trkpt lat="45.14814" lon="6.35476">
        <ele>2714.8000488281</ele>
        <time>2015-03-23T10:50:18.000Z</time>
      </trkpt>
      <trkpt lat="45.14815" lon="6.35479">
        <ele>2716.1999511719</ele>
        <time>2015-03-23T10:50:23.000Z</time>
      </trkpt>
      <trkpt lat="45.14815" lon="6.3548">
        <ele>2716.8000488281</ele>
        <time>2015-03-23T10:50:29.000Z</time>
      </trkpt>
      <trkpt lat="45.14815" lon="6.3548">
        <ele>2717.3999023438</ele>
        <time>2015-03-23T10:50:32.000Z</time>
      </trkpt>
      <trkpt lat="45.14816" lon="6.35481">
        <ele>2718.3999023438</ele>
        <time>2015-03-23T10:50:42.000Z</time>
      </trkpt>
      <trkpt lat="45.14816" lon="6.35481">
        <ele>2719.6000976562</ele>
        <time>2015-03-23T10:50:48.000Z</time>
      </trkpt>
      <trkpt lat="45.14816" lon="6.35481">
        <ele>2720</ele>
        <time>2015-03-23T10:50:50.000Z</time>
      </trkpt>
      <trkpt lat="45.14816" lon="6.35483">
        <ele>2721</ele>
        <time>2015-03-23T10:50:54.000Z</time>
      </trkpt>
      <trkpt lat="45.14816" lon="6.35485">
        <ele>2721.6000976562</ele>
        <time>2015-03-23T10:50:56.000Z</time>
      </trkpt>
      <trkpt lat="45.14817" lon="6.35486">
        <ele>2722</ele>
        <time>2015-03-23T10:50:58.000Z</time>
      </trkpt>
      <trkpt lat="45.14817" lon="6.35487">
        <ele>2723.1999511719</ele>
        <time>2015-03-23T10:51:02.000Z</time>
      </trkpt>
      <trkpt lat="45.14817" lon="6.35487">
        <ele>2723.3999023438</ele>
        <time>2015-03-23T10:51:03.000Z</time>
      </trkpt>
      <trkpt lat="45.14818" lon="6.3549">
        <ele>2724.1999511719</ele>
        <time>2015-03-23T10:51:07.000Z</time>
      </trkpt>
      <trkpt lat="45.14819" lon="6.35491">
        <ele>2724.6000976562</ele>
        <time>2015-03-23T10:51:08.000Z</time>
      </trkpt>
      <trkpt lat="45.1482" lon="6.35491">
        <ele>2725.6000976562</ele>
        <time>2015-03-23T10:51:11.000Z</time>
      </trkpt>
      <trkpt lat="45.1482" lon="6.35492">
        <ele>2726.1999511719</ele>
        <time>2015-03-23T10:51:14.000Z</time>
      </trkpt>
      <trkpt lat="45.1482" lon="6.35492">
        <ele>2726.6000976562</ele>
        <time>2015-03-23T10:51:19.000Z</time>
      </trkpt>
      <trkpt lat="45.1482" lon="6.35492">
        <ele>2727.3999023438</ele>
        <time>2015-03-23T10:51:24.000Z</time>
      </trkpt>
      <trkpt lat="45.1482" lon="6.35492">
        <ele>2727.8000488281</ele>
        <time>2015-03-23T10:51:36.000Z</time>
      </trkpt>
      <trkpt lat="45.1482" lon="6.35494">
        <ele>2728.6000976562</ele>
        <time>2015-03-23T10:51:43.000Z</time>
      </trkpt>
      <trkpt lat="45.1482" lon="6.35494">
        <ele>2728.8000488281</ele>
        <time>2015-03-23T10:51:44.000Z</time>
      </trkpt>
      <trkpt lat="45.14821" lon="6.35496">
        <ele>2729.1999511719</ele>
        <time>2015-03-23T10:51:48.000Z</time>
      </trkpt>
      <trkpt lat="45.14821" lon="6.35496">
        <ele>2729.8000488281</ele>
        <time>2015-03-23T10:51:51.000Z</time>
      </trkpt>
      <trkpt lat="45.14821" lon="6.35498">
        <ele>2730.6000976562</ele>
        <time>2015-03-23T10:51:56.000Z</time>
      </trkpt>
      <trkpt lat="45.14821" lon="6.35498">
        <ele>2730.8000488281</ele>
        <time>2015-03-23T10:51:57.000Z</time>
      </trkpt>
      <trkpt lat="45.14821" lon="6.35498">
        <ele>2731.8000488281</ele>
        <time>2015-03-23T10:52:04.000Z</time>
      </trkpt>
      <trkpt lat="45.14821" lon="6.35498">
        <ele>2732</ele>
        <time>2015-03-23T10:52:05.000Z</time>
      </trkpt>
      <trkpt lat="45.14821" lon="6.35498">
        <ele>2733</ele>
        <time>2015-03-23T10:52:10.000Z</time>
      </trkpt>
      <trkpt lat="45.14821" lon="6.35498">
        <ele>2733.3999023438</ele>
        <time>2015-03-23T10:52:13.000Z</time>
      </trkpt>
      <trkpt lat="45.14821" lon="6.355">
        <ele>2734</ele>
        <time>2015-03-23T10:52:16.000Z</time>
      </trkpt>
      <trkpt lat="45.14821" lon="6.35501">
        <ele>2734.6000976562</ele>
        <time>2015-03-23T10:52:20.000Z</time>
      </trkpt>
      <trkpt lat="45.14822" lon="6.35503">
        <ele>2735.1999511719</ele>
        <time>2015-03-23T10:52:22.000Z</time>
      </trkpt>
      <trkpt lat="45.14822" lon="6.35503">
        <ele>2736.1999511719</ele>
        <time>2015-03-23T10:52:26.000Z</time>
      </trkpt>
      <trkpt lat="45.14822" lon="6.35505">
        <ele>2736.3999023438</ele>
        <time>2015-03-23T10:52:27.000Z</time>
      </trkpt>
      <trkpt lat="45.14823" lon="6.35506">
        <ele>2737.3999023438</ele>
        <time>2015-03-23T10:52:32.000Z</time>
      </trkpt>
      <trkpt lat="45.14823" lon="6.35508">
        <ele>2737.6000976562</ele>
        <time>2015-03-23T10:52:33.000Z</time>
      </trkpt>
      <trkpt lat="45.14823" lon="6.35508">
        <ele>2738.6000976562</ele>
        <time>2015-03-23T10:52:38.000Z</time>
      </trkpt>
      <trkpt lat="45.14823" lon="6.35508">
        <ele>2739.1999511719</ele>
        <time>2015-03-23T10:52:40.000Z</time>
      </trkpt>
      <trkpt lat="45.14823" lon="6.35508">
        <ele>2739.6000976562</ele>
        <time>2015-03-23T10:52:42.000Z</time>
      </trkpt>
      <trkpt lat="45.14823" lon="6.35508">
        <ele>2740.3999023438</ele>
        <time>2015-03-23T10:52:47.000Z</time>
      </trkpt>
      <trkpt lat="45.14823" lon="6.35508">
        <ele>2740.6000976562</ele>
        <time>2015-03-23T10:52:49.000Z</time>
      </trkpt>
      <trkpt lat="45.14823" lon="6.35508">
        <ele>2741.1999511719</ele>
        <time>2015-03-23T10:52:58.000Z</time>
      </trkpt>
      <trkpt lat="45.14823" lon="6.35508">
        <ele>2741.6000976562</ele>
        <time>2015-03-23T10:53:00.000Z</time>
      </trkpt>
      <trkpt lat="45.14823" lon="6.35508">
        <ele>2741.6000976562</ele>
        <time>2015-03-23T10:53:12.000Z</time>
      </trkpt>
      <trkpt lat="45.14823" lon="6.35508">
        <ele>2742.6000976562</ele>
        <time>2015-03-23T10:53:21.000Z</time>
      </trkpt>
      <trkpt lat="45.14823" lon="6.35508">
        <ele>2742.6000976562</ele>
        <time>2015-03-23T10:53:27.000Z</time>
      </trkpt>
      <trkpt lat="45.14823" lon="6.35508">
        <ele>2742.1999511719</ele>
        <time>2015-03-23T10:53:41.000Z</time>
      </trkpt>
      <trkpt lat="45.14826" lon="6.35511">
        <ele>2743.3999023438</ele>
        <time>2015-03-23T10:53:51.000Z</time>
      </trkpt>
      <trkpt lat="45.14826" lon="6.35511">
        <ele>2743.6000976562</ele>
        <time>2015-03-23T10:53:54.000Z</time>
      </trkpt>
      <trkpt lat="45.14826" lon="6.35514">
        <ele>2744.8000488281</ele>
        <time>2015-03-23T10:53:59.000Z</time>
      </trkpt>
      <trkpt lat="45.14827" lon="6.35519">
        <ele>2745.8000488281</ele>
        <time>2015-03-23T10:54:05.000Z</time>
      </trkpt>
      <trkpt lat="45.14829" lon="6.35522">
        <ele>2747</ele>
        <time>2015-03-23T10:54:12.000Z</time>
      </trkpt>
      <trkpt lat="45.14831" lon="6.35523">
        <ele>2747.6000976562</ele>
        <time>2015-03-23T10:54:16.000Z</time>
      </trkpt>
      <trkpt lat="45.14833" lon="6.35523">
        <ele>2748.1999511719</ele>
        <time>2015-03-23T10:54:18.000Z</time>
      </trkpt>
      <trkpt lat="45.14836" lon="6.35524">
        <ele>2749.1999511719</ele>
        <time>2015-03-23T10:54:22.000Z</time>
      </trkpt>
      <trkpt lat="45.14837" lon="6.35525">
        <ele>2749.8000488281</ele>
        <time>2015-03-23T10:54:29.000Z</time>
      </trkpt>
      <trkpt lat="45.14837" lon="6.35525">
        <ele>2750.3999023438</ele>
        <time>2015-03-23T10:54:32.000Z</time>
      </trkpt>
      <trkpt lat="45.14837" lon="6.35525">
        <ele>2751.3999023438</ele>
        <time>2015-03-23T10:54:36.000Z</time>
      </trkpt>
      <trkpt lat="45.14837" lon="6.35525">
        <ele>2752</ele>
        <time>2015-03-23T10:54:39.000Z</time>
      </trkpt>
      <trkpt lat="45.14839" lon="6.35526">
        <ele>2752.3999023438</ele>
        <time>2015-03-23T10:54:45.000Z</time>
      </trkpt>
      <trkpt lat="45.14841" lon="6.35527">
        <ele>2753.6000976562</ele>
        <time>2015-03-23T10:54:48.000Z</time>
      </trkpt>
      <trkpt lat="45.14841" lon="6.35527">
        <ele>2753.8000488281</ele>
        <time>2015-03-23T10:54:50.000Z</time>
      </trkpt>
      <trkpt lat="45.14844" lon="6.35529">
        <ele>2754.1999511719</ele>
        <time>2015-03-23T10:54:56.000Z</time>
      </trkpt>
      <trkpt lat="45.14844" lon="6.35529">
        <ele>2754.6000976562</ele>
        <time>2015-03-23T10:54:58.000Z</time>
      </trkpt>
      <trkpt lat="45.14844" lon="6.35529">
        <ele>2755.8000488281</ele>
        <time>2015-03-23T10:55:05.000Z</time>
      </trkpt>
      <trkpt lat="45.14844" lon="6.35529">
        <ele>2756.8000488281</ele>
        <time>2015-03-23T10:55:14.000Z</time>
      </trkpt>
      <trkpt lat="45.14845" lon="6.35529">
        <ele>2757</ele>
        <time>2015-03-23T10:55:15.000Z</time>
      </trkpt>
      <trkpt lat="45.14846" lon="6.35531">
        <ele>2758</ele>
        <time>2015-03-23T10:55:20.000Z</time>
      </trkpt>
      <trkpt lat="45.14846" lon="6.35533">
        <ele>2758.6000976562</ele>
        <time>2015-03-23T10:55:22.000Z</time>
      </trkpt>
      <trkpt lat="45.14847" lon="6.35535">
        <ele>2759</ele>
        <time>2015-03-23T10:55:27.000Z</time>
      </trkpt>
      <trkpt lat="45.14847" lon="6.35535">
        <ele>2759.1999511719</ele>
        <time>2015-03-23T10:55:28.000Z</time>
      </trkpt>
      <trkpt lat="45.14848" lon="6.35535">
        <ele>2760</ele>
        <time>2015-03-23T10:55:34.000Z</time>
      </trkpt>
      <trkpt lat="45.14848" lon="6.35535">
        <ele>2760.3999023438</ele>
        <time>2015-03-23T10:55:35.000Z</time>
      </trkpt>
      <trkpt lat="45.14848" lon="6.35535">
        <ele>2761.1999511719</ele>
        <time>2015-03-23T10:55:40.000Z</time>
      </trkpt>
      <trkpt lat="45.14849" lon="6.35537">
        <ele>2761.8000488281</ele>
        <time>2015-03-23T10:55:43.000Z</time>
      </trkpt>
      <trkpt lat="45.14849" lon="6.35537">
        <ele>2762.1999511719</ele>
        <time>2015-03-23T10:55:45.000Z</time>
      </trkpt>
      <trkpt lat="45.14849" lon="6.35537">
        <ele>2762.8000488281</ele>
        <time>2015-03-23T10:55:53.000Z</time>
      </trkpt>
      <trkpt lat="45.14849" lon="6.35537">
        <ele>2763.1999511719</ele>
        <time>2015-03-23T10:55:56.000Z</time>
      </trkpt>
      <trkpt lat="45.1485" lon="6.35538">
        <ele>2763.8000488281</ele>
        <time>2015-03-23T10:56:05.000Z</time>
      </trkpt>
      <trkpt lat="45.1485" lon="6.35538">
        <ele>2764.3999023438</ele>
        <time>2015-03-23T10:56:08.000Z</time>
      </trkpt>
      <trkpt lat="45.1485" lon="6.35538">
        <ele>2765.3999023438</ele>
        <time>2015-03-23T10:56:14.000Z</time>
      </trkpt>
      <trkpt lat="45.14848" lon="6.35544">
        <ele>2766.6000976562</ele>
        <time>2015-03-23T10:56:20.000Z</time>
      </trkpt>
      <trkpt lat="45.14848" lon="6.35548">
        <ele>2767.8000488281</ele>
        <time>2015-03-23T10:56:27.000Z</time>
      </trkpt>
      <trkpt lat="45.1485" lon="6.35551">
        <ele>2768.1999511719</ele>
        <time>2015-03-23T10:56:32.000Z</time>
      </trkpt>
      <trkpt lat="45.14852" lon="6.35552">
        <ele>2768.6000976562</ele>
        <time>2015-03-23T10:56:38.000Z</time>
      </trkpt>
      <trkpt lat="45.14854" lon="6.35552">
        <ele>2768.8000488281</ele>
        <time>2015-03-23T10:56:40.000Z</time>
      </trkpt>
      <trkpt lat="45.14856" lon="6.35554">
        <ele>2769.8000488281</ele>
        <time>2015-03-23T10:56:44.000Z</time>
      </trkpt>
      <trkpt lat="45.14856" lon="6.35554">
        <ele>2770</ele>
        <time>2015-03-23T10:56:45.000Z</time>
      </trkpt>
      <trkpt lat="45.14857" lon="6.35554">
        <ele>2771</ele>
        <time>2015-03-23T10:56:50.000Z</time>
      </trkpt>
      <trkpt lat="45.14858" lon="6.35554">
        <ele>2772</ele>
        <time>2015-03-23T10:56:54.000Z</time>
      </trkpt>
      <trkpt lat="45.14858" lon="6.35554">
        <ele>2772.1999511719</ele>
        <time>2015-03-23T10:56:55.000Z</time>
      </trkpt>
      <trkpt lat="45.1486" lon="6.35552">
        <ele>2773</ele>
        <time>2015-03-23T10:57:02.000Z</time>
      </trkpt>
      <trkpt lat="45.1486" lon="6.35552">
        <ele>2773.1999511719</ele>
        <time>2015-03-23T10:57:03.000Z</time>
      </trkpt>
      <trkpt lat="45.1486" lon="6.35552">
        <ele>2774.3999023438</ele>
        <time>2015-03-23T10:57:07.000Z</time>
      </trkpt>
      <trkpt lat="45.14861" lon="6.35552">
        <ele>2775.3999023438</ele>
        <time>2015-03-23T10:57:12.000Z</time>
      </trkpt>
      <trkpt lat="45.14864" lon="6.35553">
        <ele>2775.8000488281</ele>
        <time>2015-03-23T10:57:14.000Z</time>
      </trkpt>
      <trkpt lat="45.14868" lon="6.35552">
        <ele>2776.1999511719</ele>
        <time>2015-03-23T10:57:21.000Z</time>
      </trkpt>
      <trkpt lat="45.14868" lon="6.35552">
        <ele>2776.6000976562</ele>
        <time>2015-03-23T10:57:23.000Z</time>
      </trkpt>
      <trkpt lat="45.14868" lon="6.35552">
        <ele>2777.6000976562</ele>
        <time>2015-03-23T10:57:28.000Z</time>
      </trkpt>
      <trkpt lat="45.14868" lon="6.35552">
        <ele>2778.1999511719</ele>
        <time>2015-03-23T10:57:32.000Z</time>
      </trkpt>
      <trkpt lat="45.14868" lon="6.35552">
        <ele>2778.8000488281</ele>
        <time>2015-03-23T10:57:38.000Z</time>
      </trkpt>
      <trkpt lat="45.14868" lon="6.35552">
        <ele>2779</ele>
        <time>2015-03-23T10:57:43.000Z</time>
      </trkpt>
      <trkpt lat="45.14867" lon="6.35558">
        <ele>2779.8000488281</ele>
        <time>2015-03-23T10:57:49.000Z</time>
      </trkpt>
      <trkpt lat="45.14867" lon="6.35558">
        <ele>2779.8000488281</ele>
        <time>2015-03-23T10:57:50.000Z</time>
      </trkpt>
      <trkpt lat="45.14867" lon="6.35563">
        <ele>2780.8000488281</ele>
        <time>2015-03-23T10:57:56.000Z</time>
      </trkpt>
      <trkpt lat="45.14867" lon="6.35565">
        <ele>2781</ele>
        <time>2015-03-23T10:57:57.000Z</time>
      </trkpt>
      <trkpt lat="45.14867" lon="6.35566">
        <ele>2782</ele>
        <time>2015-03-23T10:58:01.000Z</time>
      </trkpt>
      <trkpt lat="45.14867" lon="6.35566">
        <ele>2782.1999511719</ele>
        <time>2015-03-23T10:58:02.000Z</time>
      </trkpt>
      <trkpt lat="45.14866" lon="6.35569">
        <ele>2783.1999511719</ele>
        <time>2015-03-23T10:58:09.000Z</time>
      </trkpt>
      <trkpt lat="45.14863" lon="6.35575">
        <ele>2784.3999023438</ele>
        <time>2015-03-23T10:58:15.000Z</time>
      </trkpt>
      <trkpt lat="45.14862" lon="6.35575">
        <ele>2784.6000976562</ele>
        <time>2015-03-23T10:58:17.000Z</time>
      </trkpt>
      <trkpt lat="45.14861" lon="6.35578">
        <ele>2785.3999023438</ele>
        <time>2015-03-23T10:58:20.000Z</time>
      </trkpt>
      <trkpt lat="45.1486" lon="6.35582">
        <ele>2786.3999023438</ele>
        <time>2015-03-23T10:58:24.000Z</time>
      </trkpt>
      <trkpt lat="45.1486" lon="6.35583">
        <ele>2786.6000976562</ele>
        <time>2015-03-23T10:58:25.000Z</time>
      </trkpt>
      <trkpt lat="45.1486" lon="6.35585">
        <ele>2787.1999511719</ele>
        <time>2015-03-23T10:58:28.000Z</time>
      </trkpt>
      <trkpt lat="45.14864" lon="6.35583">
        <ele>2787.3999023438</ele>
        <time>2015-03-23T10:58:33.000Z</time>
      </trkpt>
      <trkpt lat="45.14864" lon="6.35583">
        <ele>2787.6000976562</ele>
        <time>2015-03-23T10:58:34.000Z</time>
      </trkpt>
      <trkpt lat="45.14865" lon="6.35583">
        <ele>2788.3999023438</ele>
        <time>2015-03-23T10:58:38.000Z</time>
      </trkpt>
      <trkpt lat="45.14865" lon="6.35583">
        <ele>2788.6000976562</ele>
        <time>2015-03-23T10:58:40.000Z</time>
      </trkpt>
      <trkpt lat="45.14865" lon="6.35583">
        <ele>2788.8000488281</ele>
        <time>2015-03-23T10:58:42.000Z</time>
      </trkpt>
      <trkpt lat="45.14865" lon="6.35583">
        <ele>2789.8000488281</ele>
        <time>2015-03-23T10:58:46.000Z</time>
      </trkpt>
      <trkpt lat="45.14867" lon="6.35583">
        <ele>2790.8000488281</ele>
        <time>2015-03-23T10:58:54.000Z</time>
      </trkpt>
      <trkpt lat="45.14867" lon="6.35583">
        <ele>2791</ele>
        <time>2015-03-23T10:58:55.000Z</time>
      </trkpt>
      <trkpt lat="45.14869" lon="6.35582">
        <ele>2792</ele>
        <time>2015-03-23T10:59:00.000Z</time>
      </trkpt>
      <trkpt lat="45.1487" lon="6.35582">
        <ele>2792.3999023438</ele>
        <time>2015-03-23T10:59:03.000Z</time>
      </trkpt>
      <trkpt lat="45.14872" lon="6.35581">
        <ele>2793.1999511719</ele>
        <time>2015-03-23T10:59:06.000Z</time>
      </trkpt>
      <trkpt lat="45.14872" lon="6.35581">
        <ele>2794</ele>
        <time>2015-03-23T10:59:13.000Z</time>
      </trkpt>
      <trkpt lat="45.14872" lon="6.35581">
        <ele>2794.1999511719</ele>
        <time>2015-03-23T10:59:14.000Z</time>
      </trkpt>
      <trkpt lat="45.14875" lon="6.35581">
        <ele>2795.1999511719</ele>
        <time>2015-03-23T10:59:19.000Z</time>
      </trkpt>
      <trkpt lat="45.14876" lon="6.35581">
        <ele>2795.8000488281</ele>
        <time>2015-03-23T10:59:21.000Z</time>
      </trkpt>
      <trkpt lat="45.14878" lon="6.3558">
        <ele>2796.3999023438</ele>
        <time>2015-03-23T10:59:25.000Z</time>
      </trkpt>
      <trkpt lat="45.14879" lon="6.3558">
        <ele>2796.8000488281</ele>
        <time>2015-03-23T10:59:28.000Z</time>
      </trkpt>
      <trkpt lat="45.14879" lon="6.3558">
        <ele>2797.3999023438</ele>
        <time>2015-03-23T10:59:31.000Z</time>
      </trkpt>
      <trkpt lat="45.1488" lon="6.35581">
        <ele>2798.1999511719</ele>
        <time>2015-03-23T10:59:36.000Z</time>
      </trkpt>
      <trkpt lat="45.1488" lon="6.35582">
        <ele>2798.6000976562</ele>
        <time>2015-03-23T10:59:38.000Z</time>
      </trkpt>
      <trkpt lat="45.1488" lon="6.35585">
        <ele>2799.3999023438</ele>
        <time>2015-03-23T10:59:43.000Z</time>
      </trkpt>
      <trkpt lat="45.1488" lon="6.35587">
        <ele>2799.8000488281</ele>
        <time>2015-03-23T10:59:45.000Z</time>
      </trkpt>
      <trkpt lat="45.14879" lon="6.3559">
        <ele>2800.1999511719</ele>
        <time>2015-03-23T10:59:49.000Z</time>
      </trkpt>
      <trkpt lat="45.14879" lon="6.3559">
        <ele>2800.8000488281</ele>
        <time>2015-03-23T10:59:51.000Z</time>
      </trkpt>
      <trkpt lat="45.14879" lon="6.3559">
        <ele>2801.8000488281</ele>
        <time>2015-03-23T10:59:55.000Z</time>
      </trkpt>
      <trkpt lat="45.14879" lon="6.35592">
        <ele>2802.6000976562</ele>
        <time>2015-03-23T10:59:59.000Z</time>
      </trkpt>
      <trkpt lat="45.14879" lon="6.35592">
        <ele>2802.8000488281</ele>
        <time>2015-03-23T11:00:00.000Z</time>
      </trkpt>
      <trkpt lat="45.14878" lon="6.35593">
        <ele>2803.3999023438</ele>
        <time>2015-03-23T11:00:05.000Z</time>
      </trkpt>
      <trkpt lat="45.14878" lon="6.35593">
        <ele>2804</ele>
        <time>2015-03-23T11:00:09.000Z</time>
      </trkpt>
      <trkpt lat="45.14878" lon="6.35596">
        <ele>2805</ele>
        <time>2015-03-23T11:00:13.000Z</time>
      </trkpt>
      <trkpt lat="45.14878" lon="6.35598">
        <ele>2805</ele>
        <time>2015-03-23T11:00:14.000Z</time>
      </trkpt>
      <trkpt lat="45.14877" lon="6.35602">
        <ele>2806.1999511719</ele>
        <time>2015-03-23T11:00:20.000Z</time>
      </trkpt>
      <trkpt lat="45.14877" lon="6.35602">
        <ele>2806.1999511719</ele>
        <time>2015-03-23T11:00:21.000Z</time>
      </trkpt>
      <trkpt lat="45.14878" lon="6.35601">
        <ele>2807.1999511719</ele>
        <time>2015-03-23T11:00:33.000Z</time>
      </trkpt>
      <trkpt lat="45.14883" lon="6.35599">
        <ele>2808.3999023438</ele>
        <time>2015-03-23T11:00:39.000Z</time>
      </trkpt>
      <trkpt lat="45.14884" lon="6.35599">
        <ele>2808.6000976562</ele>
        <time>2015-03-23T11:00:41.000Z</time>
      </trkpt>
      <trkpt lat="45.14884" lon="6.356">
        <ele>2809.3999023438</ele>
        <time>2015-03-23T11:00:44.000Z</time>
      </trkpt>
      <trkpt lat="45.14886" lon="6.35599">
        <ele>2810.3999023438</ele>
        <time>2015-03-23T11:00:48.000Z</time>
      </trkpt>
      <trkpt lat="45.14888" lon="6.35599">
        <ele>2810.8000488281</ele>
        <time>2015-03-23T11:00:50.000Z</time>
      </trkpt>
      <trkpt lat="45.14891" lon="6.35599">
        <ele>2811.6000976562</ele>
        <time>2015-03-23T11:00:55.000Z</time>
      </trkpt>
      <trkpt lat="45.14892" lon="6.35599">
        <ele>2812.3999023438</ele>
        <time>2015-03-23T11:00:59.000Z</time>
      </trkpt>
      <trkpt lat="45.14893" lon="6.35598">
        <ele>2812.8000488281</ele>
        <time>2015-03-23T11:01:01.000Z</time>
      </trkpt>
      <trkpt lat="45.14897" lon="6.35599">
        <ele>2814</ele>
        <time>2015-03-23T11:01:08.000Z</time>
      </trkpt>
      <trkpt lat="45.14899" lon="6.35598">
        <ele>2815</ele>
        <time>2015-03-23T11:01:13.000Z</time>
      </trkpt>
      <trkpt lat="45.14899" lon="6.35598">
        <ele>2815.8000488281</ele>
        <time>2015-03-23T11:01:16.000Z</time>
      </trkpt>
      <trkpt lat="45.14899" lon="6.35598">
        <ele>2816.1999511719</ele>
        <time>2015-03-23T11:01:18.000Z</time>
      </trkpt>
      <trkpt lat="45.14899" lon="6.35598">
        <ele>2816.8000488281</ele>
        <time>2015-03-23T11:01:23.000Z</time>
      </trkpt>
      <trkpt lat="45.149" lon="6.35598">
        <ele>2817.3999023438</ele>
        <time>2015-03-23T11:01:26.000Z</time>
      </trkpt>
      <trkpt lat="45.149" lon="6.35598">
        <ele>2818.3999023438</ele>
        <time>2015-03-23T11:01:31.000Z</time>
      </trkpt>
      <trkpt lat="45.149" lon="6.35598">
        <ele>2818.3999023438</ele>
        <time>2015-03-23T11:01:33.000Z</time>
      </trkpt>
      <trkpt lat="45.149" lon="6.35598">
        <ele>2818.6000976562</ele>
        <time>2015-03-23T11:01:41.000Z</time>
      </trkpt>
      <trkpt lat="45.149" lon="6.35599">
        <ele>2819.6000976562</ele>
        <time>2015-03-23T11:01:46.000Z</time>
      </trkpt>
      <trkpt lat="45.14901" lon="6.356">
        <ele>2820</ele>
        <time>2015-03-23T11:01:49.000Z</time>
      </trkpt>
      <trkpt lat="45.14901" lon="6.35604">
        <ele>2820.6000976562</ele>
        <time>2015-03-23T11:01:55.000Z</time>
      </trkpt>
      <trkpt lat="45.14901" lon="6.35604">
        <ele>2820.8000488281</ele>
        <time>2015-03-23T11:01:56.000Z</time>
      </trkpt>
      <trkpt lat="45.14901" lon="6.35606">
        <ele>2822</ele>
        <time>2015-03-23T11:02:00.000Z</time>
      </trkpt>
      <trkpt lat="45.149" lon="6.3561">
        <ele>2822.8000488281</ele>
        <time>2015-03-23T11:02:03.000Z</time>
      </trkpt>
      <trkpt lat="45.14899" lon="6.35612">
        <ele>2823.3999023438</ele>
        <time>2015-03-23T11:02:05.000Z</time>
      </trkpt>
      <trkpt lat="45.14898" lon="6.35616">
        <ele>2824.1999511719</ele>
        <time>2015-03-23T11:02:11.000Z</time>
      </trkpt>
      <trkpt lat="45.149" lon="6.35616">
        <ele>2824.3999023438</ele>
        <time>2015-03-23T11:02:13.000Z</time>
      </trkpt>
      <trkpt lat="45.149" lon="6.35615">
        <ele>2825.3999023438</ele>
        <time>2015-03-23T11:02:17.000Z</time>
      </trkpt>
      <trkpt lat="45.149" lon="6.35615">
        <ele>2826</ele>
        <time>2015-03-23T11:02:19.000Z</time>
      </trkpt>
      <trkpt lat="45.149" lon="6.35615">
        <ele>2826.8000488281</ele>
        <time>2015-03-23T11:02:24.000Z</time>
      </trkpt>
      <trkpt lat="45.149" lon="6.35615">
        <ele>2827.1999511719</ele>
        <time>2015-03-23T11:02:31.000Z</time>
      </trkpt>
      <trkpt lat="45.149" lon="6.35615">
        <ele>2827.3999023438</ele>
        <time>2015-03-23T11:02:46.000Z</time>
      </trkpt>
      <trkpt lat="45.14901" lon="6.35615">
        <ele>2827.3999023438</ele>
        <time>2015-03-23T11:03:04.000Z</time>
      </trkpt>
      <trkpt lat="45.14901" lon="6.35615">
        <ele>2827.3999023438</ele>
        <time>2015-03-23T11:03:21.000Z</time>
      </trkpt>
      <trkpt lat="45.14901" lon="6.35615">
        <ele>2827.3999023438</ele>
        <time>2015-03-23T11:03:32.000Z</time>
      </trkpt>
      <trkpt lat="45.14901" lon="6.35615">
        <ele>2828</ele>
        <time>2015-03-23T11:03:34.000Z</time>
      </trkpt>
      <trkpt lat="45.14901" lon="6.35613">
        <ele>2829</ele>
        <time>2015-03-23T11:03:42.000Z</time>
      </trkpt>
      <trkpt lat="45.14901" lon="6.35613">
        <ele>2829.1999511719</ele>
        <time>2015-03-23T11:03:43.000Z</time>
      </trkpt>
      <trkpt lat="45.14901" lon="6.35613">
        <ele>2830.1999511719</ele>
        <time>2015-03-23T11:03:47.000Z</time>
      </trkpt>
      <trkpt lat="45.14901" lon="6.35613">
        <ele>2831.1999511719</ele>
        <time>2015-03-23T11:03:50.000Z</time>
      </trkpt>
      <trkpt lat="45.14901" lon="6.35613">
        <ele>2831.3999023438</ele>
        <time>2015-03-23T11:03:51.000Z</time>
      </trkpt>
      <trkpt lat="45.14901" lon="6.35613">
        <ele>2832.3999023438</ele>
        <time>2015-03-23T11:03:57.000Z</time>
      </trkpt>
      <trkpt lat="45.14901" lon="6.35613">
        <ele>2832.6000976562</ele>
        <time>2015-03-23T11:03:58.000Z</time>
      </trkpt>
      <trkpt lat="45.14906" lon="6.35613">
        <ele>2833.8000488281</ele>
        <time>2015-03-23T11:04:02.000Z</time>
      </trkpt>
      <trkpt lat="45.14906" lon="6.35613">
        <ele>2834.6000976562</ele>
        <time>2015-03-23T11:04:05.000Z</time>
      </trkpt>
      <trkpt lat="45.14906" lon="6.35613">
        <ele>2835</ele>
        <time>2015-03-23T11:04:07.000Z</time>
      </trkpt>
      <trkpt lat="45.14906" lon="6.35613">
        <ele>2836.1999511719</ele>
        <time>2015-03-23T11:04:14.000Z</time>
      </trkpt>
      <trkpt lat="45.14909" lon="6.35614">
        <ele>2836.3999023438</ele>
        <time>2015-03-23T11:04:15.000Z</time>
      </trkpt>
      <trkpt lat="45.14909" lon="6.35614">
        <ele>2837.3999023438</ele>
        <time>2015-03-23T11:04:21.000Z</time>
      </trkpt>
      <trkpt lat="45.14909" lon="6.35614">
        <ele>2837.8000488281</ele>
        <time>2015-03-23T11:04:26.000Z</time>
      </trkpt>
      <trkpt lat="45.1491" lon="6.35616">
        <ele>2838.3999023438</ele>
        <time>2015-03-23T11:04:31.000Z</time>
      </trkpt>
      <trkpt lat="45.1491" lon="6.35616">
        <ele>2839.1999511719</ele>
        <time>2015-03-23T11:04:35.000Z</time>
      </trkpt>
      <trkpt lat="45.1491" lon="6.35616">
        <ele>2839.3999023438</ele>
        <time>2015-03-23T11:04:36.000Z</time>
      </trkpt>
      <trkpt lat="45.14913" lon="6.35616">
        <ele>2840.6000976562</ele>
        <time>2015-03-23T11:04:42.000Z</time>
      </trkpt>
      <trkpt lat="45.14913" lon="6.35616">
        <ele>2841</ele>
        <time>2015-03-23T11:04:44.000Z</time>
      </trkpt>
      <trkpt lat="45.14913" lon="6.35616">
        <ele>2842</ele>
        <time>2015-03-23T11:04:48.000Z</time>
      </trkpt>
      <trkpt lat="45.14913" lon="6.35616">
        <ele>2842.8000488281</ele>
        <time>2015-03-23T11:04:52.000Z</time>
      </trkpt>
      <trkpt lat="45.14913" lon="6.35616">
        <ele>2843</ele>
        <time>2015-03-23T11:04:54.000Z</time>
      </trkpt>
      <trkpt lat="45.14913" lon="6.35616">
        <ele>2843.6000976562</ele>
        <time>2015-03-23T11:05:01.000Z</time>
      </trkpt>
      <trkpt lat="45.14918" lon="6.35616">
        <ele>2844.1999511719</ele>
        <time>2015-03-23T11:05:04.000Z</time>
      </trkpt>
      <trkpt lat="45.1492" lon="6.35616">
        <ele>2845</ele>
        <time>2015-03-23T11:05:07.000Z</time>
      </trkpt>
      <trkpt lat="45.14921" lon="6.35617">
        <ele>2845.1999511719</ele>
        <time>2015-03-23T11:05:09.000Z</time>
      </trkpt>
      <trkpt lat="45.14923" lon="6.35617">
        <ele>2846.1999511719</ele>
        <time>2015-03-23T11:05:13.000Z</time>
      </trkpt>
      <trkpt lat="45.14924" lon="6.35617">
        <ele>2846.6000976562</ele>
        <time>2015-03-23T11:05:14.000Z</time>
      </trkpt>
      <trkpt lat="45.14926" lon="6.35616">
        <ele>2847.6000976562</ele>
        <time>2015-03-23T11:05:19.000Z</time>
      </trkpt>
      <trkpt lat="45.1493" lon="6.35617">
        <ele>2848.1999511719</ele>
        <time>2015-03-23T11:05:27.000Z</time>
      </trkpt>
      <trkpt lat="45.1493" lon="6.35617">
        <ele>2848.8000488281</ele>
        <time>2015-03-23T11:05:29.000Z</time>
      </trkpt>
      <trkpt lat="45.1493" lon="6.35617">
        <ele>2849.3999023438</ele>
        <time>2015-03-23T11:05:34.000Z</time>
      </trkpt>
      <trkpt lat="45.1493" lon="6.35617">
        <ele>2849.8000488281</ele>
        <time>2015-03-23T11:05:37.000Z</time>
      </trkpt>
      <trkpt lat="45.1493" lon="6.35617">
        <ele>2850.8000488281</ele>
        <time>2015-03-23T11:05:43.000Z</time>
      </trkpt>
      <trkpt lat="45.1493" lon="6.35616">
        <ele>2851</ele>
        <time>2015-03-23T11:05:48.000Z</time>
      </trkpt>
      <trkpt lat="45.14931" lon="6.35615">
        <ele>2851.1999511719</ele>
        <time>2015-03-23T11:05:49.000Z</time>
      </trkpt>
      <trkpt lat="45.14931" lon="6.35615">
        <ele>2852</ele>
        <time>2015-03-23T11:05:53.000Z</time>
      </trkpt>
      <trkpt lat="45.14932" lon="6.35612">
        <ele>2852.1999511719</ele>
        <time>2015-03-23T11:05:56.000Z</time>
      </trkpt>
      <trkpt lat="45.14932" lon="6.35611">
        <ele>2853.1999511719</ele>
        <time>2015-03-23T11:05:59.000Z</time>
      </trkpt>
      <trkpt lat="45.14933" lon="6.35609">
        <ele>2853.8000488281</ele>
        <time>2015-03-23T11:06:01.000Z</time>
      </trkpt>
      <trkpt lat="45.14933" lon="6.35609">
        <ele>2854.3999023438</ele>
        <time>2015-03-23T11:06:05.000Z</time>
      </trkpt>
      <trkpt lat="45.14933" lon="6.35609">
        <ele>2854.3999023438</ele>
        <time>2015-03-23T11:06:12.000Z</time>
      </trkpt>
      <trkpt lat="45.14935" lon="6.35608">
        <ele>2855.1999511719</ele>
        <time>2015-03-23T11:06:21.000Z</time>
      </trkpt>
      <trkpt lat="45.14936" lon="6.35608">
        <ele>2855.6000976562</ele>
        <time>2015-03-23T11:06:24.000Z</time>
      </trkpt>
      <trkpt lat="45.14936" lon="6.35608">
        <ele>2856.6000976562</ele>
        <time>2015-03-23T11:06:28.000Z</time>
      </trkpt>
      <trkpt lat="45.14936" lon="6.35608">
        <ele>2856.8000488281</ele>
        <time>2015-03-23T11:06:29.000Z</time>
      </trkpt>
      <trkpt lat="45.14936" lon="6.35608">
        <ele>2858</ele>
        <time>2015-03-23T11:06:38.000Z</time>
      </trkpt>
      <trkpt lat="45.14936" lon="6.35608">
        <ele>2858.1999511719</ele>
        <time>2015-03-23T11:06:39.000Z</time>
      </trkpt>
      <trkpt lat="45.1494" lon="6.35608">
        <ele>2859.1999511719</ele>
        <time>2015-03-23T11:06:43.000Z</time>
      </trkpt>
      <trkpt lat="45.14941" lon="6.35608">
        <ele>2859.6000976562</ele>
        <time>2015-03-23T11:06:45.000Z</time>
      </trkpt>
      <trkpt lat="45.14941" lon="6.35608">
        <ele>2860.1999511719</ele>
        <time>2015-03-23T11:06:48.000Z</time>
      </trkpt>
      <trkpt lat="45.14942" lon="6.35607">
        <ele>2860</ele>
        <time>2015-03-23T11:06:59.000Z</time>
      </trkpt>
      <trkpt lat="45.14942" lon="6.35607">
        <ele>2861.3999023438</ele>
        <time>2015-03-23T11:07:05.000Z</time>
      </trkpt>
      <trkpt lat="45.14943" lon="6.35608">
        <ele>2862.3999023438</ele>
        <time>2015-03-23T11:07:11.000Z</time>
      </trkpt>
      <trkpt lat="45.14943" lon="6.35608">
        <ele>2863.6000976562</ele>
        <time>2015-03-23T11:07:17.000Z</time>
      </trkpt>
      <trkpt lat="45.14943" lon="6.35608">
        <ele>2864.1999511719</ele>
        <time>2015-03-23T11:07:21.000Z</time>
      </trkpt>
      <trkpt lat="45.14943" lon="6.35608">
        <ele>2864.8000488281</ele>
        <time>2015-03-23T11:07:23.000Z</time>
      </trkpt>
      <trkpt lat="45.14943" lon="6.35608">
        <ele>2866</ele>
        <time>2015-03-23T11:07:28.000Z</time>
      </trkpt>
      <trkpt lat="45.14943" lon="6.35608">
        <ele>2866.1999511719</ele>
        <time>2015-03-23T11:07:31.000Z</time>
      </trkpt>
      <trkpt lat="45.14943" lon="6.35608">
        <ele>2867</ele>
        <time>2015-03-23T11:07:40.000Z</time>
      </trkpt>
      <trkpt lat="45.14943" lon="6.35608">
        <ele>2867.1999511719</ele>
        <time>2015-03-23T11:07:46.000Z</time>
      </trkpt>
      <trkpt lat="45.14943" lon="6.35608">
        <ele>2866.8000488281</ele>
        <time>2015-03-23T11:07:57.000Z</time>
      </trkpt>
      <trkpt lat="45.14943" lon="6.35608">
        <ele>2867.3999023438</ele>
        <time>2015-03-23T11:08:06.000Z</time>
      </trkpt>
      <trkpt lat="45.14946" lon="6.35617">
        <ele>2868</ele>
        <time>2015-03-23T11:08:13.000Z</time>
      </trkpt>
      <trkpt lat="45.14946" lon="6.35618">
        <ele>2868</ele>
        <time>2015-03-23T11:08:14.000Z</time>
      </trkpt>
      <trkpt lat="45.14946" lon="6.35623">
        <ele>2869</ele>
        <time>2015-03-23T11:08:21.000Z</time>
      </trkpt>
      <trkpt lat="45.14945" lon="6.35624">
        <ele>2869.1999511719</ele>
        <time>2015-03-23T11:08:22.000Z</time>
      </trkpt>
      <trkpt lat="45.14945" lon="6.35625">
        <ele>2870.1999511719</ele>
        <time>2015-03-23T11:08:29.000Z</time>
      </trkpt>
      <trkpt lat="45.14945" lon="6.35625">
        <ele>2870.1999511719</ele>
        <time>2015-03-23T11:08:31.000Z</time>
      </trkpt>
      <trkpt lat="45.14946" lon="6.35625">
        <ele>2870.8000488281</ele>
        <time>2015-03-23T11:08:38.000Z</time>
      </trkpt>
      <trkpt lat="45.14946" lon="6.35626">
        <ele>2871</ele>
        <time>2015-03-23T11:08:49.000Z</time>
      </trkpt>
      <trkpt lat="45.14946" lon="6.35627">
        <ele>2871.1999511719</ele>
        <time>2015-03-23T11:08:50.000Z</time>
      </trkpt>
      <trkpt lat="45.14946" lon="6.35632">
        <ele>2872.3999023438</ele>
        <time>2015-03-23T11:08:54.000Z</time>
      </trkpt>
      <trkpt lat="45.14946" lon="6.35633">
        <ele>2873.3999023438</ele>
        <time>2015-03-23T11:08:59.000Z</time>
      </trkpt>
      <trkpt lat="45.14946" lon="6.35634">
        <ele>2874.6000976562</ele>
        <time>2015-03-23T11:09:05.000Z</time>
      </trkpt>
      <trkpt lat="45.14946" lon="6.35634">
        <ele>2874.8000488281</ele>
        <time>2015-03-23T11:09:06.000Z</time>
      </trkpt>
      <trkpt lat="45.14946" lon="6.35635">
        <ele>2875.6000976562</ele>
        <time>2015-03-23T11:09:10.000Z</time>
      </trkpt>
      <trkpt lat="45.14946" lon="6.35637">
        <ele>2876</ele>
        <time>2015-03-23T11:09:12.000Z</time>
      </trkpt>
      <trkpt lat="45.14946" lon="6.35639">
        <ele>2876.1999511719</ele>
        <time>2015-03-23T11:09:17.000Z</time>
      </trkpt>
      <trkpt lat="45.14946" lon="6.35639">
        <ele>2876.6000976562</ele>
        <time>2015-03-23T11:09:21.000Z</time>
      </trkpt>
      <trkpt lat="45.14947" lon="6.3564">
        <ele>2877.3999023438</ele>
        <time>2015-03-23T11:09:25.000Z</time>
      </trkpt>
      <trkpt lat="45.14947" lon="6.3564">
        <ele>2877.6000976562</ele>
        <time>2015-03-23T11:09:26.000Z</time>
      </trkpt>
      <trkpt lat="45.14947" lon="6.35641">
        <ele>2878.8000488281</ele>
        <time>2015-03-23T11:09:31.000Z</time>
      </trkpt>
      <trkpt lat="45.14948" lon="6.35641">
        <ele>2878.8000488281</ele>
        <time>2015-03-23T11:09:32.000Z</time>
      </trkpt>
      <trkpt lat="45.1495" lon="6.3564">
        <ele>2880</ele>
        <time>2015-03-23T11:09:37.000Z</time>
      </trkpt>
      <trkpt lat="45.14951" lon="6.3564">
        <ele>2880.3999023438</ele>
        <time>2015-03-23T11:09:41.000Z</time>
      </trkpt>
      <trkpt lat="45.14951" lon="6.3564">
        <ele>2881</ele>
        <time>2015-03-23T11:09:47.000Z</time>
      </trkpt>
      <trkpt lat="45.14951" lon="6.3564">
        <ele>2881.1999511719</ele>
        <time>2015-03-23T11:09:51.000Z</time>
      </trkpt>
      <trkpt lat="45.14953" lon="6.35643">
        <ele>2881.8000488281</ele>
        <time>2015-03-23T11:09:57.000Z</time>
      </trkpt>
      <trkpt lat="45.14954" lon="6.35643">
        <ele>2881</ele>
        <time>2015-03-23T11:10:05.000Z</time>
      </trkpt>
      <trkpt lat="45.14954" lon="6.35643">
        <ele>2880.8000488281</ele>
        <time>2015-03-23T11:10:24.000Z</time>
      </trkpt>
      <trkpt lat="45.14953" lon="6.35643">
        <ele>2880.6000976562</ele>
        <time>2015-03-23T11:10:34.000Z</time>
      </trkpt>
      <trkpt lat="45.14953" lon="6.35643">
        <ele>2881.1999511719</ele>
        <time>2015-03-23T11:10:44.000Z</time>
      </trkpt>
      <trkpt lat="45.14953" lon="6.35643">
        <ele>2881.6000976562</ele>
        <time>2015-03-23T11:10:53.000Z</time>
      </trkpt>
      <trkpt lat="45.14953" lon="6.35643">
        <ele>2881.3999023438</ele>
        <time>2015-03-23T11:11:04.000Z</time>
      </trkpt>
      <trkpt lat="45.14953" lon="6.35643">
        <ele>2881.1999511719</ele>
        <time>2015-03-23T11:11:15.000Z</time>
      </trkpt>
      <trkpt lat="45.14953" lon="6.35643">
        <ele>2881</ele>
        <time>2015-03-23T11:11:23.000Z</time>
      </trkpt>
      <trkpt lat="45.14952" lon="6.35643">
        <ele>2880.8000488281</ele>
        <time>2015-03-23T11:11:30.000Z</time>
      </trkpt>
      <trkpt lat="45.14952" lon="6.35643">
        <ele>2881.3999023438</ele>
        <time>2015-03-23T11:11:38.000Z</time>
      </trkpt>
      <trkpt lat="45.1495" lon="6.35642">
        <ele>2881.3999023438</ele>
        <time>2015-03-23T11:11:44.000Z</time>
      </trkpt>
      <trkpt lat="45.1495" lon="6.35642">
        <ele>2881</ele>
        <time>2015-03-23T11:11:53.000Z</time>
      </trkpt>
      <trkpt lat="45.1495" lon="6.35642">
        <ele>2880.6000976562</ele>
        <time>2015-03-23T11:12:06.000Z</time>
      </trkpt>
      <trkpt lat="45.1495" lon="6.35642">
        <ele>2880.6000976562</ele>
        <time>2015-03-23T11:12:25.000Z</time>
      </trkpt>
      <trkpt lat="45.1495" lon="6.35642">
        <ele>2880.8000488281</ele>
        <time>2015-03-23T11:12:38.000Z</time>
      </trkpt>
      <trkpt lat="45.1495" lon="6.35642">
        <ele>2881.3999023438</ele>
        <time>2015-03-23T11:12:46.000Z</time>
      </trkpt>
      <trkpt lat="45.14951" lon="6.35644">
        <ele>2881.3999023438</ele>
        <time>2015-03-23T11:12:56.000Z</time>
      </trkpt>
      <trkpt lat="45.14952" lon="6.35645">
        <ele>2881</ele>
        <time>2015-03-23T11:13:06.000Z</time>
      </trkpt>
      <trkpt lat="45.14952" lon="6.35645">
        <ele>2881.1999511719</ele>
        <time>2015-03-23T11:13:24.000Z</time>
      </trkpt>
      <trkpt lat="45.14953" lon="6.35644">
        <ele>2881.1999511719</ele>
        <time>2015-03-23T11:13:32.000Z</time>
      </trkpt>
      <trkpt lat="45.14953" lon="6.35644">
        <ele>2881.1999511719</ele>
        <time>2015-03-23T11:13:41.000Z</time>
      </trkpt>
      <trkpt lat="45.14953" lon="6.35644">
        <ele>2881.3999023438</ele>
        <time>2015-03-23T11:13:49.000Z</time>
      </trkpt>
      <trkpt lat="45.14953" lon="6.35644">
        <ele>2881.6000976562</ele>
        <time>2015-03-23T11:13:59.000Z</time>
      </trkpt>
      <trkpt lat="45.14953" lon="6.35644">
        <ele>2881.6000976562</ele>
        <time>2015-03-23T11:14:08.000Z</time>
      </trkpt>
      <trkpt lat="45.14953" lon="6.35643">
        <ele>2881.3999023438</ele>
        <time>2015-03-23T11:14:23.000Z</time>
      </trkpt>
      <trkpt lat="45.14955" lon="6.35644">
        <ele>2881.1999511719</ele>
        <time>2015-03-23T11:14:30.000Z</time>
      </trkpt>
      <trkpt lat="45.14955" lon="6.35644">
        <ele>2880.8000488281</ele>
        <time>2015-03-23T11:14:42.000Z</time>
      </trkpt>
      <trkpt lat="45.14955" lon="6.35644">
        <ele>2880.8000488281</ele>
        <time>2015-03-23T11:15:01.000Z</time>
      </trkpt>
      <trkpt lat="45.14954" lon="6.35644">
        <ele>2880.8000488281</ele>
        <time>2015-03-23T11:15:12.000Z</time>
      </trkpt>
      <trkpt lat="45.14951" lon="6.35642">
        <ele>2881.6000976562</ele>
        <time>2015-03-23T11:15:18.000Z</time>
      </trkpt>
      <trkpt lat="45.14951" lon="6.35642">
        <ele>2880.8000488281</ele>
        <time>2015-03-23T11:15:30.000Z</time>
      </trkpt>
      <trkpt lat="45.14952" lon="6.35642">
        <ele>2881</ele>
        <time>2015-03-23T11:15:42.000Z</time>
      </trkpt>
      <trkpt lat="45.14952" lon="6.35642">
        <ele>2881.8000488281</ele>
        <time>2015-03-23T11:15:51.000Z</time>
      </trkpt>
      <trkpt lat="45.1495" lon="6.35641">
        <ele>2881.1999511719</ele>
        <time>2015-03-23T11:16:04.000Z</time>
      </trkpt>
      <trkpt lat="45.14951" lon="6.35637">
        <ele>2880.6000976562</ele>
        <time>2015-03-23T11:16:11.000Z</time>
      </trkpt>
      <trkpt lat="45.14951" lon="6.35631">
        <ele>2880</ele>
        <time>2015-03-23T11:16:18.000Z</time>
      </trkpt>
      <trkpt lat="45.1495" lon="6.35631">
        <ele>2879</ele>
        <time>2015-03-23T11:16:23.000Z</time>
      </trkpt>
      <trkpt lat="45.1495" lon="6.35631">
        <ele>2878.3999023438</ele>
        <time>2015-03-23T11:16:30.000Z</time>
      </trkpt>
      <trkpt lat="45.1495" lon="6.35631">
        <ele>2878</ele>
        <time>2015-03-23T11:16:44.000Z</time>
      </trkpt>
      <trkpt lat="45.1495" lon="6.35631">
        <ele>2878.1999511719</ele>
        <time>2015-03-23T11:16:52.000Z</time>
      </trkpt>
      <trkpt lat="45.14951" lon="6.35631">
        <ele>2878.6000976562</ele>
        <time>2015-03-23T11:17:03.000Z</time>
      </trkpt>
      <trkpt lat="45.14951" lon="6.35631">
        <ele>2878.8000488281</ele>
        <time>2015-03-23T11:17:17.000Z</time>
      </trkpt>
      <trkpt lat="45.14951" lon="6.35631">
        <ele>2878.3999023438</ele>
        <time>2015-03-23T11:17:36.000Z</time>
      </trkpt>
      <trkpt lat="45.14951" lon="6.35631">
        <ele>2878.3999023438</ele>
        <time>2015-03-23T11:18:02.000Z</time>
      </trkpt>
      <trkpt lat="45.14951" lon="6.35631">
        <ele>2878.3999023438</ele>
        <time>2015-03-23T11:18:21.000Z</time>
      </trkpt>
      <trkpt lat="45.14951" lon="6.35631">
        <ele>2878.3999023438</ele>
        <time>2015-03-23T11:18:43.000Z</time>
      </trkpt>
      <trkpt lat="45.14951" lon="6.35631">
        <ele>2878.3999023438</ele>
        <time>2015-03-23T11:19:04.000Z</time>
      </trkpt>
      <trkpt lat="45.14951" lon="6.35631">
        <ele>2878.3999023438</ele>
        <time>2015-03-23T11:19:18.000Z</time>
      </trkpt>
      <trkpt lat="45.14951" lon="6.35631">
        <ele>2878</ele>
        <time>2015-03-23T11:19:36.000Z</time>
      </trkpt>
      <trkpt lat="45.14951" lon="6.35631">
        <ele>2878.1999511719</ele>
        <time>2015-03-23T11:19:54.000Z</time>
      </trkpt>
      <trkpt lat="45.14951" lon="6.35631">
        <ele>2878.1999511719</ele>
        <time>2015-03-23T11:20:16.000Z</time>
      </trkpt>
      <trkpt lat="45.14952" lon="6.35632">
        <ele>2878.8000488281</ele>
        <time>2015-03-23T11:20:30.000Z</time>
      </trkpt>
      <trkpt lat="45.14952" lon="6.35632">
        <ele>2879</ele>
        <time>2015-03-23T11:20:31.000Z</time>
      </trkpt>
      <trkpt lat="45.14952" lon="6.35634">
        <ele>2879</ele>
        <time>2015-03-23T11:20:46.000Z</time>
      </trkpt>
      <trkpt lat="45.14952" lon="6.35634">
        <ele>2879.8000488281</ele>
        <time>2015-03-23T11:20:58.000Z</time>
      </trkpt>
      <trkpt lat="45.14952" lon="6.35637">
        <ele>2879.6000976562</ele>
        <time>2015-03-23T11:21:08.000Z</time>
      </trkpt>
      <trkpt lat="45.14952" lon="6.35639">
        <ele>2880</ele>
        <time>2015-03-23T11:21:10.000Z</time>
      </trkpt>
      <trkpt lat="45.14952" lon="6.35641">
        <ele>2880.6000976562</ele>
        <time>2015-03-23T11:21:14.000Z</time>
      </trkpt>
      <trkpt lat="45.14952" lon="6.35641">
        <ele>2881.1999511719</ele>
        <time>2015-03-23T11:21:18.000Z</time>
      </trkpt>
      <trkpt lat="45.14952" lon="6.35641">
        <ele>2881</ele>
        <time>2015-03-23T11:21:29.000Z</time>
      </trkpt>
      <trkpt lat="45.14952" lon="6.35642">
        <ele>2881.1999511719</ele>
        <time>2015-03-23T11:21:40.000Z</time>
      </trkpt>
      <trkpt lat="45.14952" lon="6.35642">
        <ele>2881.1999511719</ele>
        <time>2015-03-23T11:21:53.000Z</time>
      </trkpt>
      <trkpt lat="45.14952" lon="6.35642">
        <ele>2881</ele>
        <time>2015-03-23T11:22:11.000Z</time>
      </trkpt>
      <trkpt lat="45.14952" lon="6.35642">
        <ele>2881.1999511719</ele>
        <time>2015-03-23T11:22:22.000Z</time>
      </trkpt>
      <trkpt lat="45.14952" lon="6.35642">
        <ele>2881.1999511719</ele>
        <time>2015-03-23T11:22:37.000Z</time>
      </trkpt>
      <trkpt lat="45.14952" lon="6.35642">
        <ele>2881.1999511719</ele>
        <time>2015-03-23T11:22:49.000Z</time>
      </trkpt>
      <trkpt lat="45.14952" lon="6.35642">
        <ele>2881</ele>
        <time>2015-03-23T11:23:05.000Z</time>
      </trkpt>
      <trkpt lat="45.14952" lon="6.35642">
        <ele>2881</ele>
        <time>2015-03-23T11:23:24.000Z</time>
      </trkpt>
      <trkpt lat="45.14952" lon="6.35642">
        <ele>2880.6000976562</ele>
        <time>2015-03-23T11:23:34.000Z</time>
      </trkpt>
      <trkpt lat="45.14951" lon="6.35643">
        <ele>2880.8000488281</ele>
        <time>2015-03-23T11:23:45.000Z</time>
      </trkpt>
      <trkpt lat="45.14951" lon="6.35643">
        <ele>2880.8000488281</ele>
        <time>2015-03-23T11:23:55.000Z</time>
      </trkpt>
      <trkpt lat="45.14951" lon="6.35643">
        <ele>2881.1999511719</ele>
        <time>2015-03-23T11:24:05.000Z</time>
      </trkpt>
      <trkpt lat="45.14951" lon="6.35643">
        <ele>2881</ele>
        <time>2015-03-23T11:24:19.000Z</time>
      </trkpt>
      <trkpt lat="45.14951" lon="6.35643">
        <ele>2880.8000488281</ele>
        <time>2015-03-23T11:24:37.000Z</time>
      </trkpt>
      <trkpt lat="45.14951" lon="6.35643">
        <ele>2880.1999511719</ele>
        <time>2015-03-23T11:24:47.000Z</time>
      </trkpt>
      <trkpt lat="45.14951" lon="6.35643">
        <ele>2880.1999511719</ele>
        <time>2015-03-23T11:24:59.000Z</time>
      </trkpt>
      <trkpt lat="45.14951" lon="6.35643">
        <ele>2880</ele>
        <time>2015-03-23T11:25:00.000Z</time>
      </trkpt>
      <trkpt lat="45.14951" lon="6.35643">
        <ele>2880.8000488281</ele>
        <time>2015-03-23T11:25:10.000Z</time>
      </trkpt>
      <trkpt lat="45.14951" lon="6.35643">
        <ele>2879</ele>
        <time>2015-03-23T11:25:13.000Z</time>
      </trkpt>
      <trkpt lat="45.14951" lon="6.35643">
        <ele>2880</ele>
        <time>2015-03-23T11:25:15.000Z</time>
      </trkpt>
      <trkpt lat="45.14951" lon="6.35643">
        <ele>2881</ele>
        <time>2015-03-23T11:25:22.000Z</time>
      </trkpt>
      <trkpt lat="45.14951" lon="6.35642">
        <ele>2881.8000488281</ele>
        <time>2015-03-23T11:25:33.000Z</time>
      </trkpt>
      <trkpt lat="45.14951" lon="6.35642">
        <ele>2882.1999511719</ele>
        <time>2015-03-23T11:25:34.000Z</time>
      </trkpt>
      <trkpt lat="45.14951" lon="6.35642">
        <ele>2881</ele>
        <time>2015-03-23T11:25:40.000Z</time>
      </trkpt>
      <trkpt lat="45.14951" lon="6.35642">
        <ele>2881</ele>
        <time>2015-03-23T11:25:44.000Z</time>
      </trkpt>
      <trkpt lat="45.14951" lon="6.35642">
        <ele>2880</ele>
        <time>2015-03-23T11:25:53.000Z</time>
      </trkpt>
      <trkpt lat="45.14951" lon="6.35642">
        <ele>2880</ele>
        <time>2015-03-23T11:25:55.000Z</time>
      </trkpt>
      <trkpt lat="45.14951" lon="6.35642">
        <ele>2880.3999023438</ele>
        <time>2015-03-23T11:26:10.000Z</time>
      </trkpt>
      <trkpt lat="45.14951" lon="6.35642">
        <ele>2880.1999511719</ele>
        <time>2015-03-23T11:26:24.000Z</time>
      </trkpt>
      <trkpt lat="45.14951" lon="6.35642">
        <ele>2880.3999023438</ele>
        <time>2015-03-23T11:26:40.000Z</time>
      </trkpt>
      <trkpt lat="45.14951" lon="6.35642">
        <ele>2880.1999511719</ele>
        <time>2015-03-23T11:26:50.000Z</time>
      </trkpt>
      <trkpt lat="45.14952" lon="6.35642">
        <ele>2880.1999511719</ele>
        <time>2015-03-23T11:27:05.000Z</time>
      </trkpt>
      <trkpt lat="45.14952" lon="6.35642">
        <ele>2880.1999511719</ele>
        <time>2015-03-23T11:27:23.000Z</time>
      </trkpt>
      <trkpt lat="45.14953" lon="6.35642">
        <ele>2880.1999511719</ele>
        <time>2015-03-23T11:27:39.000Z</time>
      </trkpt>
      <trkpt lat="45.14953" lon="6.35642">
        <ele>2880</ele>
        <time>2015-03-23T11:27:55.000Z</time>
      </trkpt>
      <trkpt lat="45.14953" lon="6.35642">
        <ele>2880.1999511719</ele>
        <time>2015-03-23T11:28:10.000Z</time>
      </trkpt>
      <trkpt lat="45.14953" lon="6.35642">
        <ele>2880.3999023438</ele>
        <time>2015-03-23T11:28:28.000Z</time>
      </trkpt>
      <trkpt lat="45.14953" lon="6.35642">
        <ele>2880</ele>
        <time>2015-03-23T11:28:43.000Z</time>
      </trkpt>
      <trkpt lat="45.14953" lon="6.35642">
        <ele>2880.1999511719</ele>
        <time>2015-03-23T11:28:59.000Z</time>
      </trkpt>
      <trkpt lat="45.14953" lon="6.35642">
        <ele>2880</ele>
        <time>2015-03-23T11:29:16.000Z</time>
      </trkpt>
      <trkpt lat="45.14953" lon="6.35642">
        <ele>2880</ele>
        <time>2015-03-23T11:29:33.000Z</time>
      </trkpt>
      <trkpt lat="45.14953" lon="6.35642">
        <ele>2880</ele>
        <time>2015-03-23T11:29:49.000Z</time>
      </trkpt>
      <trkpt lat="45.14953" lon="6.35642">
        <ele>2880</ele>
        <time>2015-03-23T11:30:03.000Z</time>
      </trkpt>
      <trkpt lat="45.14953" lon="6.35642">
        <ele>2880</ele>
        <time>2015-03-23T11:30:19.000Z</time>
      </trkpt>
      <trkpt lat="45.14953" lon="6.35642">
        <ele>2880</ele>
        <time>2015-03-23T11:30:20.000Z</time>
      </trkpt>
      <trkpt lat="45.14953" lon="6.35642">
        <ele>2880</ele>
        <time>2015-03-23T11:30:35.000Z</time>
      </trkpt>
      <trkpt lat="45.14953" lon="6.35642">
        <ele>2879.8000488281</ele>
        <time>2015-03-23T11:30:52.000Z</time>
      </trkpt>
      <trkpt lat="45.14953" lon="6.35642">
        <ele>2880.8000488281</ele>
        <time>2015-03-23T11:31:03.000Z</time>
      </trkpt>
      <trkpt lat="45.14953" lon="6.35642">
        <ele>2880.1999511719</ele>
        <time>2015-03-23T11:31:15.000Z</time>
      </trkpt>
      <trkpt lat="45.14953" lon="6.35642">
        <ele>2880.1999511719</ele>
        <time>2015-03-23T11:31:26.000Z</time>
      </trkpt>
      <trkpt lat="45.14953" lon="6.35642">
        <ele>2880.1999511719</ele>
        <time>2015-03-23T11:31:37.000Z</time>
      </trkpt>
      <trkpt lat="45.14953" lon="6.35643">
        <ele>2880.1999511719</ele>
        <time>2015-03-23T11:31:46.000Z</time>
      </trkpt>
      <trkpt lat="45.14953" lon="6.35643">
        <ele>2880.3999023438</ele>
        <time>2015-03-23T11:31:58.000Z</time>
      </trkpt>
      <trkpt lat="45.14953" lon="6.35643">
        <ele>2880.3999023438</ele>
        <time>2015-03-23T11:32:10.000Z</time>
      </trkpt>
      <trkpt lat="45.14953" lon="6.35643">
        <ele>2880.3999023438</ele>
        <time>2015-03-23T11:32:14.000Z</time>
      </trkpt>
      <trkpt lat="45.14953" lon="6.35643">
        <ele>2880.3999023438</ele>
        <time>2015-03-23T11:32:35.000Z</time>
      </trkpt>
      <trkpt lat="45.14953" lon="6.35643">
        <ele>2880.1999511719</ele>
        <time>2015-03-23T11:32:49.000Z</time>
      </trkpt>
      <trkpt lat="45.14954" lon="6.35643">
        <ele>2880.3999023438</ele>
        <time>2015-03-23T11:33:02.000Z</time>
      </trkpt>
      <trkpt lat="45.14954" lon="6.35643">
        <ele>2880.3999023438</ele>
        <time>2015-03-23T11:33:19.000Z</time>
      </trkpt>
      <trkpt lat="45.14954" lon="6.35643">
        <ele>2880.3999023438</ele>
        <time>2015-03-23T11:33:30.000Z</time>
      </trkpt>
      <trkpt lat="45.14953" lon="6.35643">
        <ele>2880.1999511719</ele>
        <time>2015-03-23T11:33:39.000Z</time>
      </trkpt>
      <trkpt lat="45.14953" lon="6.35643">
        <ele>2880.1999511719</ele>
        <time>2015-03-23T11:33:54.000Z</time>
      </trkpt>
      <trkpt lat="45.14953" lon="6.35643">
        <ele>2880.1999511719</ele>
        <time>2015-03-23T11:34:01.000Z</time>
      </trkpt>
      <trkpt lat="45.14953" lon="6.35643">
        <ele>2880.8000488281</ele>
        <time>2015-03-23T11:34:14.000Z</time>
      </trkpt>
      <trkpt lat="45.14953" lon="6.35643">
        <ele>2881</ele>
        <time>2015-03-23T11:34:28.000Z</time>
      </trkpt>
      <trkpt lat="45.14953" lon="6.35643">
        <ele>2881</ele>
        <time>2015-03-23T11:34:40.000Z</time>
      </trkpt>
      <trkpt lat="45.14953" lon="6.35643">
        <ele>2881</ele>
        <time>2015-03-23T11:34:50.000Z</time>
      </trkpt>
      <trkpt lat="45.14954" lon="6.35643">
        <ele>2880.8000488281</ele>
        <time>2015-03-23T11:35:03.000Z</time>
      </trkpt>
      <trkpt lat="45.14954" lon="6.35643">
        <ele>2880.6000976562</ele>
        <time>2015-03-23T11:35:18.000Z</time>
      </trkpt>
      <trkpt lat="45.14954" lon="6.35643">
        <ele>2880.8000488281</ele>
        <time>2015-03-23T11:35:40.000Z</time>
      </trkpt>
      <trkpt lat="45.14954" lon="6.35643">
        <ele>2880.8000488281</ele>
        <time>2015-03-23T11:35:57.000Z</time>
      </trkpt>
      <trkpt lat="45.14954" lon="6.35643">
        <ele>2880.8000488281</ele>
        <time>2015-03-23T11:36:18.000Z</time>
      </trkpt>
      <trkpt lat="45.14954" lon="6.35643">
        <ele>2881</ele>
        <time>2015-03-23T11:36:37.000Z</time>
      </trkpt>
      <trkpt lat="45.14954" lon="6.35644">
        <ele>2880.8000488281</ele>
        <time>2015-03-23T11:36:57.000Z</time>
      </trkpt>
      <trkpt lat="45.14954" lon="6.35644">
        <ele>2881</ele>
        <time>2015-03-23T11:37:17.000Z</time>
      </trkpt>
      <trkpt lat="45.14954" lon="6.35644">
        <ele>2881</ele>
        <time>2015-03-23T11:37:33.000Z</time>
      </trkpt>
      <trkpt lat="45.14954" lon="6.35644">
        <ele>2880.8000488281</ele>
        <time>2015-03-23T11:37:39.000Z</time>
      </trkpt>
      <trkpt lat="45.14954" lon="6.35644">
        <ele>2881.1999511719</ele>
        <time>2015-03-23T11:37:54.000Z</time>
      </trkpt>
      <trkpt lat="45.14954" lon="6.35644">
        <ele>2881.1999511719</ele>
        <time>2015-03-23T11:38:13.000Z</time>
      </trkpt>
      <trkpt lat="45.14954" lon="6.35644">
        <ele>2881.1999511719</ele>
        <time>2015-03-23T11:38:30.000Z</time>
      </trkpt>
      <trkpt lat="45.14954" lon="6.35644">
        <ele>2880.1999511719</ele>
        <time>2015-03-23T11:38:37.000Z</time>
      </trkpt>
      <trkpt lat="45.14954" lon="6.35644">
        <ele>2881.3999023438</ele>
        <time>2015-03-23T11:38:55.000Z</time>
      </trkpt>
      <trkpt lat="45.14954" lon="6.35644">
        <ele>2881</ele>
        <time>2015-03-23T11:39:09.000Z</time>
      </trkpt>
      <trkpt lat="45.14954" lon="6.35644">
        <ele>2880.8000488281</ele>
        <time>2015-03-23T11:39:25.000Z</time>
      </trkpt>
      <trkpt lat="45.14954" lon="6.35644">
        <ele>2881.3999023438</ele>
        <time>2015-03-23T11:39:35.000Z</time>
      </trkpt>
      <trkpt lat="45.14954" lon="6.35644">
        <ele>2881.1999511719</ele>
        <time>2015-03-23T11:39:51.000Z</time>
      </trkpt>
      <trkpt lat="45.14954" lon="6.35644">
        <ele>2881.1999511719</ele>
        <time>2015-03-23T11:40:07.000Z</time>
      </trkpt>
      <trkpt lat="45.14954" lon="6.35644">
        <ele>2881.3999023438</ele>
        <time>2015-03-23T11:40:23.000Z</time>
      </trkpt>
      <trkpt lat="45.14954" lon="6.35644">
        <ele>2881.3999023438</ele>
        <time>2015-03-23T11:40:36.000Z</time>
      </trkpt>
      <trkpt lat="45.14954" lon="6.35644">
        <ele>2881.3999023438</ele>
        <time>2015-03-23T11:40:47.000Z</time>
      </trkpt>
      <trkpt lat="45.14953" lon="6.35644">
        <ele>2881.3999023438</ele>
        <time>2015-03-23T11:41:05.000Z</time>
      </trkpt>
      <trkpt lat="45.14953" lon="6.35644">
        <ele>2881.3999023438</ele>
        <time>2015-03-23T11:41:21.000Z</time>
      </trkpt>
      <trkpt lat="45.14953" lon="6.35644">
        <ele>2881.3999023438</ele>
        <time>2015-03-23T11:41:33.000Z</time>
      </trkpt>
      <trkpt lat="45.14953" lon="6.35644">
        <ele>2881.3999023438</ele>
        <time>2015-03-23T11:41:36.000Z</time>
      </trkpt>
      <trkpt lat="45.14953" lon="6.35644">
        <ele>2881.3999023438</ele>
        <time>2015-03-23T11:41:57.000Z</time>
      </trkpt>
      <trkpt lat="45.14953" lon="6.35643">
        <ele>2881.3999023438</ele>
        <time>2015-03-23T11:42:15.000Z</time>
      </trkpt>
      <trkpt lat="45.14953" lon="6.35643">
        <ele>2881.3999023438</ele>
        <time>2015-03-23T11:42:30.000Z</time>
      </trkpt>
      <trkpt lat="45.14953" lon="6.35643">
        <ele>2881</ele>
        <time>2015-03-23T11:42:44.000Z</time>
      </trkpt>
      <trkpt lat="45.14953" lon="6.35643">
        <ele>2881</ele>
        <time>2015-03-23T11:43:06.000Z</time>
      </trkpt>
      <trkpt lat="45.14953" lon="6.35643">
        <ele>2881.1999511719</ele>
        <time>2015-03-23T11:43:26.000Z</time>
      </trkpt>
      <trkpt lat="45.14953" lon="6.35643">
        <ele>2881.3999023438</ele>
        <time>2015-03-23T11:43:34.000Z</time>
      </trkpt>
      <trkpt lat="45.14953" lon="6.35643">
        <ele>2881.3999023438</ele>
        <time>2015-03-23T11:43:48.000Z</time>
      </trkpt>
      <trkpt lat="45.14953" lon="6.35643">
        <ele>2881.3999023438</ele>
        <time>2015-03-23T11:44:05.000Z</time>
      </trkpt>
      <trkpt lat="45.14953" lon="6.35643">
        <ele>2881.1999511719</ele>
        <time>2015-03-23T11:44:21.000Z</time>
      </trkpt>
      <trkpt lat="45.14953" lon="6.35643">
        <ele>2881.1999511719</ele>
        <time>2015-03-23T11:44:22.000Z</time>
      </trkpt>
      <trkpt lat="45.14953" lon="6.35643">
        <ele>2881.3999023438</ele>
        <time>2015-03-23T11:44:32.000Z</time>
      </trkpt>
      <trkpt lat="45.14953" lon="6.35643">
        <ele>2881.3999023438</ele>
        <time>2015-03-23T11:44:46.000Z</time>
      </trkpt>
      <trkpt lat="45.14953" lon="6.35643">
        <ele>2881.3999023438</ele>
        <time>2015-03-23T11:45:00.000Z</time>
      </trkpt>
      <trkpt lat="45.14953" lon="6.35643">
        <ele>2881.3999023438</ele>
        <time>2015-03-23T11:45:15.000Z</time>
      </trkpt>
      <trkpt lat="45.14953" lon="6.35643">
        <ele>2881.3999023438</ele>
        <time>2015-03-23T11:45:33.000Z</time>
      </trkpt>
      <trkpt lat="45.14953" lon="6.35643">
        <ele>2881.3999023438</ele>
        <time>2015-03-23T11:45:51.000Z</time>
      </trkpt>
      <trkpt lat="45.14953" lon="6.35643">
        <ele>2881.1999511719</ele>
        <time>2015-03-23T11:46:04.000Z</time>
      </trkpt>
      <trkpt lat="45.14953" lon="6.35643">
        <ele>2881.3999023438</ele>
        <time>2015-03-23T11:46:19.000Z</time>
      </trkpt>
      <trkpt lat="45.14953" lon="6.35643">
        <ele>2881.3999023438</ele>
        <time>2015-03-23T11:46:32.000Z</time>
      </trkpt>
      <trkpt lat="45.14953" lon="6.35643">
        <ele>2881.1999511719</ele>
        <time>2015-03-23T11:46:43.000Z</time>
      </trkpt>
      <trkpt lat="45.14953" lon="6.35643">
        <ele>2881.3999023438</ele>
        <time>2015-03-23T11:47:00.000Z</time>
      </trkpt>
      <trkpt lat="45.14953" lon="6.35643">
        <ele>2881.6000976562</ele>
        <time>2015-03-23T11:47:13.000Z</time>
      </trkpt>
      <trkpt lat="45.14953" lon="6.35643">
        <ele>2881.3999023438</ele>
        <time>2015-03-23T11:47:26.000Z</time>
      </trkpt>
      <trkpt lat="45.14953" lon="6.35643">
        <ele>2881.1999511719</ele>
        <time>2015-03-23T11:47:40.000Z</time>
      </trkpt>
      <trkpt lat="45.14953" lon="6.35643">
        <ele>2881.1999511719</ele>
        <time>2015-03-23T11:47:57.000Z</time>
      </trkpt>
      <trkpt lat="45.14953" lon="6.35642">
        <ele>2881.1999511719</ele>
        <time>2015-03-23T11:48:12.000Z</time>
      </trkpt>
      <trkpt lat="45.14953" lon="6.35642">
        <ele>2881.1999511719</ele>
        <time>2015-03-23T11:48:30.000Z</time>
      </trkpt>
      <trkpt lat="45.14953" lon="6.35642">
        <ele>2881.1999511719</ele>
        <time>2015-03-23T11:48:43.000Z</time>
      </trkpt>
      <trkpt lat="45.14952" lon="6.35642">
        <ele>2881.6000976562</ele>
        <time>2015-03-23T11:48:53.000Z</time>
      </trkpt>
      <trkpt lat="45.14952" lon="6.35642">
        <ele>2881.8000488281</ele>
        <time>2015-03-23T11:49:10.000Z</time>
      </trkpt>
      <trkpt lat="45.14952" lon="6.35642">
        <ele>2881.3999023438</ele>
        <time>2015-03-23T11:49:18.000Z</time>
      </trkpt>
      <trkpt lat="45.14952" lon="6.35642">
        <ele>2881.6000976562</ele>
        <time>2015-03-23T11:49:32.000Z</time>
      </trkpt>
      <trkpt lat="45.14952" lon="6.35641">
        <ele>2880.8000488281</ele>
        <time>2015-03-23T11:49:38.000Z</time>
      </trkpt>
      <trkpt lat="45.14952" lon="6.35641">
        <ele>2881.6000976562</ele>
        <time>2015-03-23T11:49:52.000Z</time>
      </trkpt>
      <trkpt lat="45.14952" lon="6.35641">
        <ele>2881.8000488281</ele>
        <time>2015-03-23T11:50:07.000Z</time>
      </trkpt>
      <trkpt lat="45.14952" lon="6.35641">
        <ele>2881.6000976562</ele>
        <time>2015-03-23T11:50:25.000Z</time>
      </trkpt>
      <trkpt lat="45.14952" lon="6.35641">
        <ele>2881.6000976562</ele>
        <time>2015-03-23T11:50:45.000Z</time>
      </trkpt>
      <trkpt lat="45.14952" lon="6.35641">
        <ele>2881.6000976562</ele>
        <time>2015-03-23T11:50:52.000Z</time>
      </trkpt>
      <trkpt lat="45.14952" lon="6.35641">
        <ele>2881.6000976562</ele>
        <time>2015-03-23T11:51:04.000Z</time>
      </trkpt>
      <trkpt lat="45.14952" lon="6.35641">
        <ele>2881.6000976562</ele>
        <time>2015-03-23T11:51:18.000Z</time>
      </trkpt>
      <trkpt lat="45.14952" lon="6.35641">
        <ele>2881.3999023438</ele>
        <time>2015-03-23T11:51:34.000Z</time>
      </trkpt>
      <trkpt lat="45.14952" lon="6.35641">
        <ele>2882</ele>
        <time>2015-03-23T11:51:44.000Z</time>
      </trkpt>
      <trkpt lat="45.14952" lon="6.35641">
        <ele>2881.8000488281</ele>
        <time>2015-03-23T11:51:48.000Z</time>
      </trkpt>
      <trkpt lat="45.14952" lon="6.35641">
        <ele>2881.6000976562</ele>
        <time>2015-03-23T11:52:02.000Z</time>
      </trkpt>
      <trkpt lat="45.14952" lon="6.35641">
        <ele>2881.6000976562</ele>
        <time>2015-03-23T11:52:21.000Z</time>
      </trkpt>
      <trkpt lat="45.14952" lon="6.35641">
        <ele>2881.6000976562</ele>
        <time>2015-03-23T11:52:32.000Z</time>
      </trkpt>
      <trkpt lat="45.14952" lon="6.35641">
        <ele>2881.6000976562</ele>
        <time>2015-03-23T11:52:47.000Z</time>
      </trkpt>
      <trkpt lat="45.14952" lon="6.35641">
        <ele>2881.6000976562</ele>
        <time>2015-03-23T11:53:03.000Z</time>
      </trkpt>
      <trkpt lat="45.14952" lon="6.35641">
        <ele>2881.8000488281</ele>
        <time>2015-03-23T11:53:17.000Z</time>
      </trkpt>
      <trkpt lat="45.14952" lon="6.35641">
        <ele>2881.6000976562</ele>
        <time>2015-03-23T11:53:28.000Z</time>
      </trkpt>
      <trkpt lat="45.14952" lon="6.35641">
        <ele>2881.8000488281</ele>
        <time>2015-03-23T11:53:38.000Z</time>
      </trkpt>
      <trkpt lat="45.14952" lon="6.35641">
        <ele>2881.6000976562</ele>
        <time>2015-03-23T11:53:50.000Z</time>
      </trkpt>
      <trkpt lat="45.14952" lon="6.35641">
        <ele>2881.6000976562</ele>
        <time>2015-03-23T11:54:10.000Z</time>
      </trkpt>
      <trkpt lat="45.14952" lon="6.35641">
        <ele>2881.8000488281</ele>
        <time>2015-03-23T11:54:22.000Z</time>
      </trkpt>
      <trkpt lat="45.14952" lon="6.35641">
        <ele>2881.6000976562</ele>
        <time>2015-03-23T11:54:30.000Z</time>
      </trkpt>
      <trkpt lat="45.14952" lon="6.35641">
        <ele>2881.6000976562</ele>
        <time>2015-03-23T11:54:46.000Z</time>
      </trkpt>
      <trkpt lat="45.14952" lon="6.35641">
        <ele>2881.6000976562</ele>
        <time>2015-03-23T11:55:01.000Z</time>
      </trkpt>
      <trkpt lat="45.14952" lon="6.35641">
        <ele>2881.8000488281</ele>
        <time>2015-03-23T11:55:17.000Z</time>
      </trkpt>
      <trkpt lat="45.14952" lon="6.35641">
        <ele>2881.8000488281</ele>
        <time>2015-03-23T11:55:31.000Z</time>
      </trkpt>
      <trkpt lat="45.14952" lon="6.35641">
        <ele>2881.3999023438</ele>
        <time>2015-03-23T11:55:41.000Z</time>
      </trkpt>
      <trkpt lat="45.14952" lon="6.35641">
        <ele>2882</ele>
        <time>2015-03-23T11:55:54.000Z</time>
      </trkpt>
      <trkpt lat="45.14952" lon="6.35641">
        <ele>2882.1999511719</ele>
        <time>2015-03-23T11:56:04.000Z</time>
      </trkpt>
      <trkpt lat="45.14952" lon="6.35641">
        <ele>2882.6000976562</ele>
        <time>2015-03-23T11:56:14.000Z</time>
      </trkpt>
      <trkpt lat="45.14952" lon="6.35641">
        <ele>2881.6000976562</ele>
        <time>2015-03-23T11:56:22.000Z</time>
      </trkpt>
      <trkpt lat="45.14952" lon="6.35641">
        <ele>2882.1999511719</ele>
        <time>2015-03-23T11:56:32.000Z</time>
      </trkpt>
      <trkpt lat="45.14952" lon="6.35641">
        <ele>2881.6000976562</ele>
        <time>2015-03-23T11:56:48.000Z</time>
      </trkpt>
      <trkpt lat="45.14952" lon="6.35641">
        <ele>2881.8000488281</ele>
        <time>2015-03-23T11:57:04.000Z</time>
      </trkpt>
      <trkpt lat="45.14952" lon="6.35641">
        <ele>2881.8000488281</ele>
        <time>2015-03-23T11:57:10.000Z</time>
      </trkpt>
      <trkpt lat="45.14952" lon="6.35641">
        <ele>2882.1999511719</ele>
        <time>2015-03-23T11:57:20.000Z</time>
      </trkpt>
      <trkpt lat="45.14952" lon="6.35641">
        <ele>2882.1999511719</ele>
        <time>2015-03-23T11:57:38.000Z</time>
      </trkpt>
      <trkpt lat="45.14952" lon="6.35641">
        <ele>2882</ele>
        <time>2015-03-23T11:57:55.000Z</time>
      </trkpt>
      <trkpt lat="45.14952" lon="6.35641">
        <ele>2882.1999511719</ele>
        <time>2015-03-23T11:58:10.000Z</time>
      </trkpt>
      <trkpt lat="45.14952" lon="6.35641">
        <ele>2882</ele>
        <time>2015-03-23T11:58:24.000Z</time>
      </trkpt>
      <trkpt lat="45.14952" lon="6.35641">
        <ele>2881.3999023438</ele>
        <time>2015-03-23T11:58:36.000Z</time>
      </trkpt>
      <trkpt lat="45.14952" lon="6.35641">
        <ele>2881.3999023438</ele>
        <time>2015-03-23T11:58:53.000Z</time>
      </trkpt>
      <trkpt lat="45.14952" lon="6.35641">
        <ele>2881.3999023438</ele>
        <time>2015-03-23T11:59:05.000Z</time>
      </trkpt>
      <trkpt lat="45.14952" lon="6.35641">
        <ele>2881.6000976562</ele>
        <time>2015-03-23T11:59:20.000Z</time>
      </trkpt>
      <trkpt lat="45.14951" lon="6.35642">
        <ele>2881</ele>
        <time>2015-03-23T11:59:26.000Z</time>
      </trkpt>
      <trkpt lat="45.14951" lon="6.35642">
        <ele>2882</ele>
        <time>2015-03-23T11:59:32.000Z</time>
      </trkpt>
      <trkpt lat="45.14954" lon="6.35643">
        <ele>2882.6000976562</ele>
        <time>2015-03-23T11:59:36.000Z</time>
      </trkpt>
      <trkpt lat="45.14954" lon="6.35644">
        <ele>2882.3999023438</ele>
        <time>2015-03-23T11:59:42.000Z</time>
      </trkpt>
      <trkpt lat="45.14955" lon="6.35642">
        <ele>2881</ele>
        <time>2015-03-23T11:59:47.000Z</time>
      </trkpt>
      <trkpt lat="45.14955" lon="6.35642">
        <ele>2880.3999023438</ele>
        <time>2015-03-23T11:59:53.000Z</time>
      </trkpt>
      <trkpt lat="45.14956" lon="6.35643">
        <ele>2879.8000488281</ele>
        <time>2015-03-23T11:59:56.000Z</time>
      </trkpt>
      <trkpt lat="45.14957" lon="6.35647">
        <ele>2879.1999511719</ele>
        <time>2015-03-23T12:00:01.000Z</time>
      </trkpt>
      <trkpt lat="45.14957" lon="6.35649">
        <ele>2878.6000976562</ele>
        <time>2015-03-23T12:00:03.000Z</time>
      </trkpt>
      <trkpt lat="45.14957" lon="6.35653">
        <ele>2877.6000976562</ele>
        <time>2015-03-23T12:00:07.000Z</time>
      </trkpt>
      <trkpt lat="45.14957" lon="6.35653">
        <ele>2876.3999023438</ele>
        <time>2015-03-23T12:00:12.000Z</time>
      </trkpt>
      <trkpt lat="45.14956" lon="6.35655">
        <ele>2876.1999511719</ele>
        <time>2015-03-23T12:00:15.000Z</time>
      </trkpt>
      <trkpt lat="45.14956" lon="6.35655">
        <ele>2875.1999511719</ele>
        <time>2015-03-23T12:00:18.000Z</time>
      </trkpt>
      <trkpt lat="45.14956" lon="6.35655">
        <ele>2874.1999511719</ele>
        <time>2015-03-23T12:00:21.000Z</time>
      </trkpt>
      <trkpt lat="45.14956" lon="6.35655">
        <ele>2875.1999511719</ele>
        <time>2015-03-23T12:00:25.000Z</time>
      </trkpt>
      <trkpt lat="45.14955" lon="6.35655">
        <ele>2875.3999023438</ele>
        <time>2015-03-23T12:00:32.000Z</time>
      </trkpt>
      <trkpt lat="45.14955" lon="6.35655">
        <ele>2875.3999023438</ele>
        <time>2015-03-23T12:00:43.000Z</time>
      </trkpt>
      <trkpt lat="45.14958" lon="6.35657">
        <ele>2875.6000976562</ele>
        <time>2015-03-23T12:00:56.000Z</time>
      </trkpt>
      <trkpt lat="45.14958" lon="6.35657">
        <ele>2876.1999511719</ele>
        <time>2015-03-23T12:01:00.000Z</time>
      </trkpt>
      <trkpt lat="45.14957" lon="6.35658">
        <ele>2875.8000488281</ele>
        <time>2015-03-23T12:01:05.000Z</time>
      </trkpt>
      <trkpt lat="45.14956" lon="6.35658">
        <ele>2875</ele>
        <time>2015-03-23T12:01:13.000Z</time>
      </trkpt>
      <trkpt lat="45.14956" lon="6.35658">
        <ele>2874.8000488281</ele>
        <time>2015-03-23T12:01:15.000Z</time>
      </trkpt>
      <trkpt lat="45.14956" lon="6.35658">
        <ele>2876</ele>
        <time>2015-03-23T12:01:20.000Z</time>
      </trkpt>
      <trkpt lat="45.14956" lon="6.35658">
        <ele>2875.6000976562</ele>
        <time>2015-03-23T12:01:28.000Z</time>
      </trkpt>
      <trkpt lat="45.14956" lon="6.35658">
        <ele>2875</ele>
        <time>2015-03-23T12:01:38.000Z</time>
      </trkpt>
      <trkpt lat="45.14956" lon="6.35658">
        <ele>2875</ele>
        <time>2015-03-23T12:01:40.000Z</time>
      </trkpt>
      <trkpt lat="45.14956" lon="6.35658">
        <ele>2876.1999511719</ele>
        <time>2015-03-23T12:01:43.000Z</time>
      </trkpt>
      <trkpt lat="45.14955" lon="6.35658">
        <ele>2875.3999023438</ele>
        <time>2015-03-23T12:01:52.000Z</time>
      </trkpt>
      <trkpt lat="45.14955" lon="6.35662">
        <ele>2875.3999023438</ele>
        <time>2015-03-23T12:01:55.000Z</time>
      </trkpt>
      <trkpt lat="45.14958" lon="6.35665">
        <ele>2875.3999023438</ele>
        <time>2015-03-23T12:01:56.000Z</time>
      </trkpt>
      <trkpt lat="45.1497" lon="6.35675">
        <ele>2874.3999023438</ele>
        <time>2015-03-23T12:01:59.000Z</time>
      </trkpt>
      <trkpt lat="45.14975" lon="6.35679">
        <ele>2873</ele>
        <time>2015-03-23T12:02:00.000Z</time>
      </trkpt>
      <trkpt lat="45.14981" lon="6.35682">
        <ele>2871.1999511719</ele>
        <time>2015-03-23T12:02:01.000Z</time>
      </trkpt>
      <trkpt lat="45.14987" lon="6.35686">
        <ele>2869.6000976562</ele>
        <time>2015-03-23T12:02:02.000Z</time>
      </trkpt>
      <trkpt lat="45.14993" lon="6.3569">
        <ele>2868.3999023438</ele>
        <time>2015-03-23T12:02:03.000Z</time>
      </trkpt>
      <trkpt lat="45.15" lon="6.35695">
        <ele>2867</ele>
        <time>2015-03-23T12:02:04.000Z</time>
      </trkpt>
      <trkpt lat="45.15006" lon="6.357">
        <ele>2865.6000976562</ele>
        <time>2015-03-23T12:02:05.000Z</time>
      </trkpt>
      <trkpt lat="45.15012" lon="6.35706">
        <ele>2864.3999023438</ele>
        <time>2015-03-23T12:02:06.000Z</time>
      </trkpt>
      <trkpt lat="45.15018" lon="6.35712">
        <ele>2862.6000976562</ele>
        <time>2015-03-23T12:02:07.000Z</time>
      </trkpt>
      <trkpt lat="45.15023" lon="6.35717">
        <ele>2861.8000488281</ele>
        <time>2015-03-23T12:02:08.000Z</time>
      </trkpt>
      <trkpt lat="45.15028" lon="6.3572">
        <ele>2861</ele>
        <time>2015-03-23T12:02:09.000Z</time>
      </trkpt>
      <trkpt lat="45.15038" lon="6.35724">
        <ele>2860.1999511719</ele>
        <time>2015-03-23T12:02:11.000Z</time>
      </trkpt>
      <trkpt lat="45.1504" lon="6.35722">
        <ele>2860</ele>
        <time>2015-03-23T12:02:12.000Z</time>
      </trkpt>
      <trkpt lat="45.1504" lon="6.35721">
        <ele>2859.8000488281</ele>
        <time>2015-03-23T12:02:13.000Z</time>
      </trkpt>
      <trkpt lat="45.1504" lon="6.35719">
        <ele>2858.8000488281</ele>
        <time>2015-03-23T12:02:16.000Z</time>
      </trkpt>
      <trkpt lat="45.15039" lon="6.35718">
        <ele>2858.6000976562</ele>
        <time>2015-03-23T12:02:17.000Z</time>
      </trkpt>
      <trkpt lat="45.15024" lon="6.35714">
        <ele>2858.1999511719</ele>
        <time>2015-03-23T12:02:30.000Z</time>
      </trkpt>
      <trkpt lat="45.15021" lon="6.35713">
        <ele>2858.3999023438</ele>
        <time>2015-03-23T12:02:38.000Z</time>
      </trkpt>
      <trkpt lat="45.15021" lon="6.35713">
        <ele>2858.1999511719</ele>
        <time>2015-03-23T12:02:47.000Z</time>
      </trkpt>
      <trkpt lat="45.15021" lon="6.35713">
        <ele>2857.8000488281</ele>
        <time>2015-03-23T12:02:59.000Z</time>
      </trkpt>
      <trkpt lat="45.15021" lon="6.35713">
        <ele>2857.8000488281</ele>
        <time>2015-03-23T12:03:00.000Z</time>
      </trkpt>
      <trkpt lat="45.15021" lon="6.35713">
        <ele>2857.6000976562</ele>
        <time>2015-03-23T12:03:13.000Z</time>
      </trkpt>
      <trkpt lat="45.15021" lon="6.35712">
        <ele>2857.8000488281</ele>
        <time>2015-03-23T12:03:26.000Z</time>
      </trkpt>
      <trkpt lat="45.15021" lon="6.35707">
        <ele>2857.6000976562</ele>
        <time>2015-03-23T12:03:34.000Z</time>
      </trkpt>
      <trkpt lat="45.15021" lon="6.35706">
        <ele>2856.8000488281</ele>
        <time>2015-03-23T12:03:39.000Z</time>
      </trkpt>
      <trkpt lat="45.15022" lon="6.35706">
        <ele>2856</ele>
        <time>2015-03-23T12:03:43.000Z</time>
      </trkpt>
      <trkpt lat="45.15022" lon="6.35706">
        <ele>2855.6000976562</ele>
        <time>2015-03-23T12:03:45.000Z</time>
      </trkpt>
      <trkpt lat="45.15022" lon="6.35705">
        <ele>2854.8000488281</ele>
        <time>2015-03-23T12:03:53.000Z</time>
      </trkpt>
      <trkpt lat="45.15022" lon="6.35705">
        <ele>2855</ele>
        <time>2015-03-23T12:04:11.000Z</time>
      </trkpt>
      <trkpt lat="45.15022" lon="6.35705">
        <ele>2854.6000976562</ele>
        <time>2015-03-23T12:04:20.000Z</time>
      </trkpt>
      <trkpt lat="45.15022" lon="6.35705">
        <ele>2854.3999023438</ele>
        <time>2015-03-23T12:04:21.000Z</time>
      </trkpt>
      <trkpt lat="45.15022" lon="6.35705">
        <ele>2854.1999511719</ele>
        <time>2015-03-23T12:04:33.000Z</time>
      </trkpt>
      <trkpt lat="45.15022" lon="6.35705">
        <ele>2854.1999511719</ele>
        <time>2015-03-23T12:04:34.000Z</time>
      </trkpt>
      <trkpt lat="45.15024" lon="6.35705">
        <ele>2853.3999023438</ele>
        <time>2015-03-23T12:04:39.000Z</time>
      </trkpt>
      <trkpt lat="45.15025" lon="6.35705">
        <ele>2852.8000488281</ele>
        <time>2015-03-23T12:04:44.000Z</time>
      </trkpt>
      <trkpt lat="45.15026" lon="6.35705">
        <ele>2852.3999023438</ele>
        <time>2015-03-23T12:04:56.000Z</time>
      </trkpt>
      <trkpt lat="45.15027" lon="6.35706">
        <ele>2852</ele>
        <time>2015-03-23T12:04:58.000Z</time>
      </trkpt>
      <trkpt lat="45.15029" lon="6.35705">
        <ele>2851.1999511719</ele>
        <time>2015-03-23T12:05:01.000Z</time>
      </trkpt>
      <trkpt lat="45.15031" lon="6.35706">
        <ele>2850</ele>
        <time>2015-03-23T12:05:05.000Z</time>
      </trkpt>
      <trkpt lat="45.15031" lon="6.35706">
        <ele>2849.8000488281</ele>
        <time>2015-03-23T12:05:06.000Z</time>
      </trkpt>
      <trkpt lat="45.15031" lon="6.35706">
        <ele>2849</ele>
        <time>2015-03-23T12:05:11.000Z</time>
      </trkpt>
      <trkpt lat="45.15031" lon="6.35706">
        <ele>2848.8000488281</ele>
        <time>2015-03-23T12:05:20.000Z</time>
      </trkpt>
      <trkpt lat="45.15032" lon="6.35707">
        <ele>2848</ele>
        <time>2015-03-23T12:05:24.000Z</time>
      </trkpt>
      <trkpt lat="45.15033" lon="6.35707">
        <ele>2846.8000488281</ele>
        <time>2015-03-23T12:05:29.000Z</time>
      </trkpt>
      <trkpt lat="45.15036" lon="6.35709">
        <ele>2845.8000488281</ele>
        <time>2015-03-23T12:05:39.000Z</time>
      </trkpt>
      <trkpt lat="45.15038" lon="6.3571">
        <ele>2845.6000976562</ele>
        <time>2015-03-23T12:05:40.000Z</time>
      </trkpt>
      <trkpt lat="45.15042" lon="6.3571">
        <ele>2844.6000976562</ele>
        <time>2015-03-23T12:05:43.000Z</time>
      </trkpt>
      <trkpt lat="45.15042" lon="6.3571">
        <ele>2844.3999023438</ele>
        <time>2015-03-23T12:05:51.000Z</time>
      </trkpt>
      <trkpt lat="45.1504" lon="6.35711">
        <ele>2844</ele>
        <time>2015-03-23T12:06:04.000Z</time>
      </trkpt>
      <trkpt lat="45.1504" lon="6.35711">
        <ele>2843.3999023438</ele>
        <time>2015-03-23T12:06:07.000Z</time>
      </trkpt>
      <trkpt lat="45.1504" lon="6.35711">
        <ele>2843</ele>
        <time>2015-03-23T12:06:18.000Z</time>
      </trkpt>
      <trkpt lat="45.1504" lon="6.35711">
        <ele>2842.8000488281</ele>
        <time>2015-03-23T12:06:29.000Z</time>
      </trkpt>
      <trkpt lat="45.1504" lon="6.35711">
        <ele>2843</ele>
        <time>2015-03-23T12:06:47.000Z</time>
      </trkpt>
      <trkpt lat="45.1504" lon="6.35711">
        <ele>2842.8000488281</ele>
        <time>2015-03-23T12:06:51.000Z</time>
      </trkpt>
      <trkpt lat="45.15041" lon="6.35711">
        <ele>2842.6000976562</ele>
        <time>2015-03-23T12:07:02.000Z</time>
      </trkpt>
      <trkpt lat="45.15041" lon="6.35711">
        <ele>2842.3999023438</ele>
        <time>2015-03-23T12:07:05.000Z</time>
      </trkpt>
      <trkpt lat="45.15043" lon="6.35713">
        <ele>2841.1999511719</ele>
        <time>2015-03-23T12:07:08.000Z</time>
      </trkpt>
      <trkpt lat="45.15043" lon="6.35713">
        <ele>2840.8000488281</ele>
        <time>2015-03-23T12:07:09.000Z</time>
      </trkpt>
      <trkpt lat="45.15044" lon="6.35714">
        <ele>2840</ele>
        <time>2015-03-23T12:07:12.000Z</time>
      </trkpt>
      <trkpt lat="45.15044" lon="6.35714">
        <ele>2838.8000488281</ele>
        <time>2015-03-23T12:07:18.000Z</time>
      </trkpt>
      <trkpt lat="45.15044" lon="6.35713">
        <ele>2838.8000488281</ele>
        <time>2015-03-23T12:07:19.000Z</time>
      </trkpt>
      <trkpt lat="45.15046" lon="6.35712">
        <ele>2838.8000488281</ele>
        <time>2015-03-23T12:07:20.000Z</time>
      </trkpt>
      <trkpt lat="45.15046" lon="6.35705">
        <ele>2837.1999511719</ele>
        <time>2015-03-23T12:07:25.000Z</time>
      </trkpt>
      <trkpt lat="45.15046" lon="6.35706">
        <ele>2835.6000976562</ele>
        <time>2015-03-23T12:07:27.000Z</time>
      </trkpt>
      <trkpt lat="45.15047" lon="6.35707">
        <ele>2834.1999511719</ele>
        <time>2015-03-23T12:07:29.000Z</time>
      </trkpt>
      <trkpt lat="45.15049" lon="6.35701">
        <ele>2833</ele>
        <time>2015-03-23T12:07:33.000Z</time>
      </trkpt>
      <trkpt lat="45.1505" lon="6.357">
        <ele>2832</ele>
        <time>2015-03-23T12:07:35.000Z</time>
      </trkpt>
      <trkpt lat="45.1505" lon="6.357">
        <ele>2830.8000488281</ele>
        <time>2015-03-23T12:07:37.000Z</time>
      </trkpt>
      <trkpt lat="45.1505" lon="6.35698">
        <ele>2830</ele>
        <time>2015-03-23T12:07:41.000Z</time>
      </trkpt>
      <trkpt lat="45.1505" lon="6.35698">
        <ele>2829.8000488281</ele>
        <time>2015-03-23T12:07:42.000Z</time>
      </trkpt>
      <trkpt lat="45.1505" lon="6.35698">
        <ele>2828.6000976562</ele>
        <time>2015-03-23T12:07:44.000Z</time>
      </trkpt>
      <trkpt lat="45.15051" lon="6.35697">
        <ele>2827.3999023438</ele>
        <time>2015-03-23T12:07:48.000Z</time>
      </trkpt>
      <trkpt lat="45.15051" lon="6.35697">
        <ele>2827</ele>
        <time>2015-03-23T12:07:49.000Z</time>
      </trkpt>
      <trkpt lat="45.15051" lon="6.35696">
        <ele>2826.1999511719</ele>
        <time>2015-03-23T12:07:51.000Z</time>
      </trkpt>
      <trkpt lat="45.15051" lon="6.35696">
        <ele>2824.6000976562</ele>
        <time>2015-03-23T12:07:54.000Z</time>
      </trkpt>
      <trkpt lat="45.15051" lon="6.35696">
        <ele>2823.6000976562</ele>
        <time>2015-03-23T12:07:56.000Z</time>
      </trkpt>
      <trkpt lat="45.15051" lon="6.35696">
        <ele>2823</ele>
        <time>2015-03-23T12:07:59.000Z</time>
      </trkpt>
      <trkpt lat="45.15051" lon="6.35696">
        <ele>2822.8000488281</ele>
        <time>2015-03-23T12:08:15.000Z</time>
      </trkpt>
      <trkpt lat="45.15051" lon="6.35694">
        <ele>2822.6000976562</ele>
        <time>2015-03-23T12:08:23.000Z</time>
      </trkpt>
      <trkpt lat="45.15052" lon="6.35694">
        <ele>2822.3999023438</ele>
        <time>2015-03-23T12:08:24.000Z</time>
      </trkpt>
      <trkpt lat="45.15055" lon="6.35694">
        <ele>2821.3999023438</ele>
        <time>2015-03-23T12:08:27.000Z</time>
      </trkpt>
      <trkpt lat="45.15056" lon="6.35695">
        <ele>2821</ele>
        <time>2015-03-23T12:08:30.000Z</time>
      </trkpt>
      <trkpt lat="45.15056" lon="6.35695">
        <ele>2820.3999023438</ele>
        <time>2015-03-23T12:08:36.000Z</time>
      </trkpt>
      <trkpt lat="45.15056" lon="6.35695">
        <ele>2820.3999023438</ele>
        <time>2015-03-23T12:08:46.000Z</time>
      </trkpt>
      <trkpt lat="45.15061" lon="6.35696">
        <ele>2820</ele>
        <time>2015-03-23T12:08:51.000Z</time>
      </trkpt>
      <trkpt lat="45.15061" lon="6.35696">
        <ele>2819.3999023438</ele>
        <time>2015-03-23T12:08:54.000Z</time>
      </trkpt>
      <trkpt lat="45.15061" lon="6.35696">
        <ele>2818.3999023438</ele>
        <time>2015-03-23T12:09:03.000Z</time>
      </trkpt>
      <trkpt lat="45.15064" lon="6.35692">
        <ele>2818.3999023438</ele>
        <time>2015-03-23T12:09:06.000Z</time>
      </trkpt>
      <trkpt lat="45.15065" lon="6.3569">
        <ele>2818.1999511719</ele>
        <time>2015-03-23T12:09:07.000Z</time>
      </trkpt>
      <trkpt lat="45.15069" lon="6.35687">
        <ele>2816.1999511719</ele>
        <time>2015-03-23T12:09:10.000Z</time>
      </trkpt>
      <trkpt lat="45.15071" lon="6.35686">
        <ele>2815</ele>
        <time>2015-03-23T12:09:11.000Z</time>
      </trkpt>
      <trkpt lat="45.15074" lon="6.35683">
        <ele>2813.6000976562</ele>
        <time>2015-03-23T12:09:13.000Z</time>
      </trkpt>
      <trkpt lat="45.15076" lon="6.35684">
        <ele>2812.1999511719</ele>
        <time>2015-03-23T12:09:15.000Z</time>
      </trkpt>
      <trkpt lat="45.15077" lon="6.35685">
        <ele>2810.6000976562</ele>
        <time>2015-03-23T12:09:16.000Z</time>
      </trkpt>
      <trkpt lat="45.15077" lon="6.35686">
        <ele>2809.3999023438</ele>
        <time>2015-03-23T12:09:17.000Z</time>
      </trkpt>
      <trkpt lat="45.15077" lon="6.35686">
        <ele>2807.8000488281</ele>
        <time>2015-03-23T12:09:19.000Z</time>
      </trkpt>
      <trkpt lat="45.15077" lon="6.35686">
        <ele>2806.6000976562</ele>
        <time>2015-03-23T12:09:21.000Z</time>
      </trkpt>
      <trkpt lat="45.15075" lon="6.35686">
        <ele>2806.1999511719</ele>
        <time>2015-03-23T12:09:35.000Z</time>
      </trkpt>
      <trkpt lat="45.15075" lon="6.35686">
        <ele>2806.1999511719</ele>
        <time>2015-03-23T12:09:53.000Z</time>
      </trkpt>
      <trkpt lat="45.15076" lon="6.35685">
        <ele>2806.1999511719</ele>
        <time>2015-03-23T12:09:55.000Z</time>
      </trkpt>
      <trkpt lat="45.15076" lon="6.35681">
        <ele>2806.1999511719</ele>
        <time>2015-03-23T12:09:57.000Z</time>
      </trkpt>
      <trkpt lat="45.15077" lon="6.35679">
        <ele>2806.1999511719</ele>
        <time>2015-03-23T12:09:58.000Z</time>
      </trkpt>
      <trkpt lat="45.15079" lon="6.35678">
        <ele>2805.3999023438</ele>
        <time>2015-03-23T12:10:00.000Z</time>
      </trkpt>
      <trkpt lat="45.15079" lon="6.35677">
        <ele>2804.1999511719</ele>
        <time>2015-03-23T12:10:01.000Z</time>
      </trkpt>
      <trkpt lat="45.15079" lon="6.35677">
        <ele>2803.1999511719</ele>
        <time>2015-03-23T12:10:02.000Z</time>
      </trkpt>
      <trkpt lat="45.15079" lon="6.35677">
        <ele>2802</ele>
        <time>2015-03-23T12:10:04.000Z</time>
      </trkpt>
      <trkpt lat="45.15079" lon="6.35677">
        <ele>2801.3999023438</ele>
        <time>2015-03-23T12:10:06.000Z</time>
      </trkpt>
      <trkpt lat="45.15079" lon="6.35677">
        <ele>2801.1999511719</ele>
        <time>2015-03-23T12:10:24.000Z</time>
      </trkpt>
      <trkpt lat="45.15079" lon="6.35677">
        <ele>2801.1999511719</ele>
        <time>2015-03-23T12:10:44.000Z</time>
      </trkpt>
      <trkpt lat="45.15079" lon="6.35677">
        <ele>2801.1999511719</ele>
        <time>2015-03-23T12:11:02.000Z</time>
      </trkpt>
      <trkpt lat="45.15079" lon="6.35677">
        <ele>2801</ele>
        <time>2015-03-23T12:11:20.000Z</time>
      </trkpt>
      <trkpt lat="45.15079" lon="6.35676">
        <ele>2801</ele>
        <time>2015-03-23T12:11:39.000Z</time>
      </trkpt>
      <trkpt lat="45.15079" lon="6.35674">
        <ele>2801</ele>
        <time>2015-03-23T12:11:40.000Z</time>
      </trkpt>
      <trkpt lat="45.15078" lon="6.3567">
        <ele>2800.8000488281</ele>
        <time>2015-03-23T12:11:42.000Z</time>
      </trkpt>
      <trkpt lat="45.15077" lon="6.35667">
        <ele>2800.6000976562</ele>
        <time>2015-03-23T12:11:44.000Z</time>
      </trkpt>
      <trkpt lat="45.15076" lon="6.35665">
        <ele>2799.1999511719</ele>
        <time>2015-03-23T12:11:45.000Z</time>
      </trkpt>
      <trkpt lat="45.15077" lon="6.35664">
        <ele>2797.3999023438</ele>
        <time>2015-03-23T12:11:47.000Z</time>
      </trkpt>
      <trkpt lat="45.15078" lon="6.35665">
        <ele>2796</ele>
        <time>2015-03-23T12:11:49.000Z</time>
      </trkpt>
      <trkpt lat="45.15078" lon="6.35667">
        <ele>2795.1999511719</ele>
        <time>2015-03-23T12:11:55.000Z</time>
      </trkpt>
      <trkpt lat="45.15078" lon="6.35666">
        <ele>2795</ele>
        <time>2015-03-23T12:11:57.000Z</time>
      </trkpt>
      <trkpt lat="45.15079" lon="6.35662">
        <ele>2795</ele>
        <time>2015-03-23T12:11:59.000Z</time>
      </trkpt>
      <trkpt lat="45.15081" lon="6.35661">
        <ele>2793.1999511719</ele>
        <time>2015-03-23T12:12:03.000Z</time>
      </trkpt>
      <trkpt lat="45.15081" lon="6.35661">
        <ele>2792</ele>
        <time>2015-03-23T12:12:04.000Z</time>
      </trkpt>
      <trkpt lat="45.15081" lon="6.3566">
        <ele>2791.1999511719</ele>
        <time>2015-03-23T12:12:05.000Z</time>
      </trkpt>
      <trkpt lat="45.15081" lon="6.35658">
        <ele>2790.6000976562</ele>
        <time>2015-03-23T12:12:06.000Z</time>
      </trkpt>
      <trkpt lat="45.15081" lon="6.35656">
        <ele>2790.3999023438</ele>
        <time>2015-03-23T12:12:07.000Z</time>
      </trkpt>
      <trkpt lat="45.15081" lon="6.35652">
        <ele>2789.1999511719</ele>
        <time>2015-03-23T12:12:10.000Z</time>
      </trkpt>
      <trkpt lat="45.1508" lon="6.3565">
        <ele>2788</ele>
        <time>2015-03-23T12:12:12.000Z</time>
      </trkpt>
      <trkpt lat="45.1508" lon="6.35649">
        <ele>2787.6000976562</ele>
        <time>2015-03-23T12:12:14.000Z</time>
      </trkpt>
      <trkpt lat="45.1508" lon="6.35649">
        <ele>2787.3999023438</ele>
        <time>2015-03-23T12:12:29.000Z</time>
      </trkpt>
      <trkpt lat="45.1508" lon="6.35649">
        <ele>2787.3999023438</ele>
        <time>2015-03-23T12:12:30.000Z</time>
      </trkpt>
      <trkpt lat="45.1508" lon="6.35649">
        <ele>2787.6000976562</ele>
        <time>2015-03-23T12:12:40.000Z</time>
      </trkpt>
      <trkpt lat="45.1508" lon="6.35648">
        <ele>2786.6000976562</ele>
        <time>2015-03-23T12:12:48.000Z</time>
      </trkpt>
      <trkpt lat="45.1508" lon="6.35648">
        <ele>2785.3999023438</ele>
        <time>2015-03-23T12:12:51.000Z</time>
      </trkpt>
      <trkpt lat="45.15081" lon="6.35646">
        <ele>2785</ele>
        <time>2015-03-23T12:12:54.000Z</time>
      </trkpt>
      <trkpt lat="45.15081" lon="6.35646">
        <ele>2784</ele>
        <time>2015-03-23T12:12:57.000Z</time>
      </trkpt>
      <trkpt lat="45.15081" lon="6.35646">
        <ele>2782.1999511719</ele>
        <time>2015-03-23T12:12:59.000Z</time>
      </trkpt>
      <trkpt lat="45.15081" lon="6.35645">
        <ele>2781.1999511719</ele>
        <time>2015-03-23T12:13:01.000Z</time>
      </trkpt>
      <trkpt lat="45.15083" lon="6.35641">
        <ele>2780.3999023438</ele>
        <time>2015-03-23T12:13:04.000Z</time>
      </trkpt>
      <trkpt lat="45.15084" lon="6.3564">
        <ele>2780</ele>
        <time>2015-03-23T12:13:05.000Z</time>
      </trkpt>
      <trkpt lat="45.15084" lon="6.3564">
        <ele>2778.1999511719</ele>
        <time>2015-03-23T12:13:07.000Z</time>
      </trkpt>
      <trkpt lat="45.15084" lon="6.3564">
        <ele>2776.6000976562</ele>
        <time>2015-03-23T12:13:09.000Z</time>
      </trkpt>
      <trkpt lat="45.15084" lon="6.3564">
        <ele>2776.1999511719</ele>
        <time>2015-03-23T12:13:10.000Z</time>
      </trkpt>
      <trkpt lat="45.15084" lon="6.3564">
        <ele>2775.6000976562</ele>
        <time>2015-03-23T12:13:16.000Z</time>
      </trkpt>
      <trkpt lat="45.15084" lon="6.3564">
        <ele>2775.1999511719</ele>
        <time>2015-03-23T12:13:24.000Z</time>
      </trkpt>
      <trkpt lat="45.15084" lon="6.3564">
        <ele>2775.1999511719</ele>
        <time>2015-03-23T12:13:44.000Z</time>
      </trkpt>
      <trkpt lat="45.15088" lon="6.35637">
        <ele>2775</ele>
        <time>2015-03-23T12:13:57.000Z</time>
      </trkpt>
      <trkpt lat="45.15088" lon="6.35633">
        <ele>2774.6000976562</ele>
        <time>2015-03-23T12:14:00.000Z</time>
      </trkpt>
      <trkpt lat="45.15087" lon="6.35633">
        <ele>2773.1999511719</ele>
        <time>2015-03-23T12:14:02.000Z</time>
      </trkpt>
      <trkpt lat="45.15086" lon="6.35632">
        <ele>2772.8000488281</ele>
        <time>2015-03-23T12:14:03.000Z</time>
      </trkpt>
      <trkpt lat="45.15086" lon="6.35632">
        <ele>2772.1999511719</ele>
        <time>2015-03-23T12:14:06.000Z</time>
      </trkpt>
      <trkpt lat="45.15086" lon="6.35632">
        <ele>2770.8000488281</ele>
        <time>2015-03-23T12:14:11.000Z</time>
      </trkpt>
      <trkpt lat="45.15086" lon="6.3563">
        <ele>2770.1999511719</ele>
        <time>2015-03-23T12:14:13.000Z</time>
      </trkpt>
      <trkpt lat="45.15087" lon="6.35627">
        <ele>2769.6000976562</ele>
        <time>2015-03-23T12:14:15.000Z</time>
      </trkpt>
      <trkpt lat="45.15086" lon="6.35621">
        <ele>2768.6000976562</ele>
        <time>2015-03-23T12:14:18.000Z</time>
      </trkpt>
      <trkpt lat="45.15086" lon="6.35621">
        <ele>2767.6000976562</ele>
        <time>2015-03-23T12:14:20.000Z</time>
      </trkpt>
      <trkpt lat="45.15086" lon="6.35621">
        <ele>2767.1999511719</ele>
        <time>2015-03-23T12:14:38.000Z</time>
      </trkpt>
      <trkpt lat="45.15086" lon="6.35621">
        <ele>2767</ele>
        <time>2015-03-23T12:14:47.000Z</time>
      </trkpt>
      <trkpt lat="45.15088" lon="6.35621">
        <ele>2766.8000488281</ele>
        <time>2015-03-23T12:14:49.000Z</time>
      </trkpt>
      <trkpt lat="45.15089" lon="6.35622">
        <ele>2766.1999511719</ele>
        <time>2015-03-23T12:14:50.000Z</time>
      </trkpt>
      <trkpt lat="45.1509" lon="6.35622">
        <ele>2765.3999023438</ele>
        <time>2015-03-23T12:14:52.000Z</time>
      </trkpt>
      <trkpt lat="45.15092" lon="6.35621">
        <ele>2765</ele>
        <time>2015-03-23T12:14:53.000Z</time>
      </trkpt>
      <trkpt lat="45.15094" lon="6.3562">
        <ele>2762.8000488281</ele>
        <time>2015-03-23T12:14:57.000Z</time>
      </trkpt>
      <trkpt lat="45.15093" lon="6.35616">
        <ele>2761.8000488281</ele>
        <time>2015-03-23T12:15:00.000Z</time>
      </trkpt>
      <trkpt lat="45.15093" lon="6.35616">
        <ele>2761.6000976562</ele>
        <time>2015-03-23T12:15:01.000Z</time>
      </trkpt>
      <trkpt lat="45.15094" lon="6.35617">
        <ele>2761.1999511719</ele>
        <time>2015-03-23T12:15:11.000Z</time>
      </trkpt>
      <trkpt lat="45.15095" lon="6.35618">
        <ele>2760.3999023438</ele>
        <time>2015-03-23T12:15:13.000Z</time>
      </trkpt>
      <trkpt lat="45.15096" lon="6.35615">
        <ele>2759.6000976562</ele>
        <time>2015-03-23T12:15:16.000Z</time>
      </trkpt>
      <trkpt lat="45.15096" lon="6.35614">
        <ele>2759.3999023438</ele>
        <time>2015-03-23T12:15:17.000Z</time>
      </trkpt>
      <trkpt lat="45.15095" lon="6.35612">
        <ele>2758.1999511719</ele>
        <time>2015-03-23T12:15:19.000Z</time>
      </trkpt>
      <trkpt lat="45.15094" lon="6.35609">
        <ele>2756.1999511719</ele>
        <time>2015-03-23T12:15:21.000Z</time>
      </trkpt>
      <trkpt lat="45.15092" lon="6.35606">
        <ele>2756</ele>
        <time>2015-03-23T12:15:23.000Z</time>
      </trkpt>
      <trkpt lat="45.15093" lon="6.35603">
        <ele>2755.6000976562</ele>
        <time>2015-03-23T12:15:30.000Z</time>
      </trkpt>
      <trkpt lat="45.15093" lon="6.35603">
        <ele>2755.1999511719</ele>
        <time>2015-03-23T12:15:33.000Z</time>
      </trkpt>
      <trkpt lat="45.15092" lon="6.35603">
        <ele>2754.8000488281</ele>
        <time>2015-03-23T12:15:43.000Z</time>
      </trkpt>
      <trkpt lat="45.15097" lon="6.35604">
        <ele>2753.8000488281</ele>
        <time>2015-03-23T12:15:49.000Z</time>
      </trkpt>
      <trkpt lat="45.151" lon="6.35602">
        <ele>2752.8000488281</ele>
        <time>2015-03-23T12:15:51.000Z</time>
      </trkpt>
      <trkpt lat="45.151" lon="6.35602">
        <ele>2752.3999023438</ele>
        <time>2015-03-23T12:15:52.000Z</time>
      </trkpt>
      <trkpt lat="45.15101" lon="6.35601">
        <ele>2751.8000488281</ele>
        <time>2015-03-23T12:15:53.000Z</time>
      </trkpt>
      <trkpt lat="45.15101" lon="6.356">
        <ele>2750.8000488281</ele>
        <time>2015-03-23T12:15:55.000Z</time>
      </trkpt>
      <trkpt lat="45.15101" lon="6.356">
        <ele>2749.1999511719</ele>
        <time>2015-03-23T12:15:57.000Z</time>
      </trkpt>
      <trkpt lat="45.15098" lon="6.35598">
        <ele>2748.3999023438</ele>
        <time>2015-03-23T12:16:01.000Z</time>
      </trkpt>
      <trkpt lat="45.15099" lon="6.35603">
        <ele>2748.1999511719</ele>
        <time>2015-03-23T12:16:12.000Z</time>
      </trkpt>
      <trkpt lat="45.15101" lon="6.35604">
        <ele>2748</ele>
        <time>2015-03-23T12:16:13.000Z</time>
      </trkpt>
      <trkpt lat="45.15105" lon="6.35603">
        <ele>2747</ele>
        <time>2015-03-23T12:16:16.000Z</time>
      </trkpt>
      <trkpt lat="45.15106" lon="6.35602">
        <ele>2746.6000976562</ele>
        <time>2015-03-23T12:16:17.000Z</time>
      </trkpt>
      <trkpt lat="45.15107" lon="6.35599">
        <ele>2745.6000976562</ele>
        <time>2015-03-23T12:16:19.000Z</time>
      </trkpt>
      <trkpt lat="45.15107" lon="6.35597">
        <ele>2744.1999511719</ele>
        <time>2015-03-23T12:16:21.000Z</time>
      </trkpt>
      <trkpt lat="45.15107" lon="6.35597">
        <ele>2743.6000976562</ele>
        <time>2015-03-23T12:16:22.000Z</time>
      </trkpt>
      <trkpt lat="45.15107" lon="6.35597">
        <ele>2743.1999511719</ele>
        <time>2015-03-23T12:16:23.000Z</time>
      </trkpt>
      <trkpt lat="45.15106" lon="6.35597">
        <ele>2741.8000488281</ele>
        <time>2015-03-23T12:16:26.000Z</time>
      </trkpt>
      <trkpt lat="45.15106" lon="6.35596">
        <ele>2741.6000976562</ele>
        <time>2015-03-23T12:16:32.000Z</time>
      </trkpt>
      <trkpt lat="45.15105" lon="6.35597">
        <ele>2741.6000976562</ele>
        <time>2015-03-23T12:16:46.000Z</time>
      </trkpt>
      <trkpt lat="45.15105" lon="6.35597">
        <ele>2741.6000976562</ele>
        <time>2015-03-23T12:16:50.000Z</time>
      </trkpt>
      <trkpt lat="45.15105" lon="6.35595">
        <ele>2741.6000976562</ele>
        <time>2015-03-23T12:17:01.000Z</time>
      </trkpt>
      <trkpt lat="45.15105" lon="6.35595">
        <ele>2741.6000976562</ele>
        <time>2015-03-23T12:17:16.000Z</time>
      </trkpt>
      <trkpt lat="45.15105" lon="6.35595">
        <ele>2741.6000976562</ele>
        <time>2015-03-23T12:17:30.000Z</time>
      </trkpt>
      <trkpt lat="45.15105" lon="6.35593">
        <ele>2741.6000976562</ele>
        <time>2015-03-23T12:17:45.000Z</time>
      </trkpt>
      <trkpt lat="45.15109" lon="6.35589">
        <ele>2741.1999511719</ele>
        <time>2015-03-23T12:17:57.000Z</time>
      </trkpt>
      <trkpt lat="45.15114" lon="6.3559">
        <ele>2740.3999023438</ele>
        <time>2015-03-23T12:18:01.000Z</time>
      </trkpt>
      <trkpt lat="45.15116" lon="6.35591">
        <ele>2739.8000488281</ele>
        <time>2015-03-23T12:18:02.000Z</time>
      </trkpt>
      <trkpt lat="45.15117" lon="6.35592">
        <ele>2739.1999511719</ele>
        <time>2015-03-23T12:18:03.000Z</time>
      </trkpt>
      <trkpt lat="45.15118" lon="6.35593">
        <ele>2737.6000976562</ele>
        <time>2015-03-23T12:18:05.000Z</time>
      </trkpt>
      <trkpt lat="45.15119" lon="6.35594">
        <ele>2737</ele>
        <time>2015-03-23T12:18:07.000Z</time>
      </trkpt>
      <trkpt lat="45.15119" lon="6.35593">
        <ele>2736.3999023438</ele>
        <time>2015-03-23T12:18:09.000Z</time>
      </trkpt>
      <trkpt lat="45.15119" lon="6.35593">
        <ele>2735.1999511719</ele>
        <time>2015-03-23T12:18:11.000Z</time>
      </trkpt>
      <trkpt lat="45.15119" lon="6.35593">
        <ele>2734</ele>
        <time>2015-03-23T12:18:13.000Z</time>
      </trkpt>
      <trkpt lat="45.1512" lon="6.35595">
        <ele>2733.6000976562</ele>
        <time>2015-03-23T12:18:14.000Z</time>
      </trkpt>
      <trkpt lat="45.15122" lon="6.35599">
        <ele>2732.8000488281</ele>
        <time>2015-03-23T12:18:16.000Z</time>
      </trkpt>
      <trkpt lat="45.15126" lon="6.35608">
        <ele>2731.6000976562</ele>
        <time>2015-03-23T12:18:19.000Z</time>
      </trkpt>
      <trkpt lat="45.15128" lon="6.35612">
        <ele>2731.1999511719</ele>
        <time>2015-03-23T12:18:20.000Z</time>
      </trkpt>
      <trkpt lat="45.15129" lon="6.35614">
        <ele>2730.3999023438</ele>
        <time>2015-03-23T12:18:21.000Z</time>
      </trkpt>
      <trkpt lat="45.15131" lon="6.35614">
        <ele>2729</ele>
        <time>2015-03-23T12:18:23.000Z</time>
      </trkpt>
      <trkpt lat="45.15133" lon="6.35614">
        <ele>2728.6000976562</ele>
        <time>2015-03-23T12:18:24.000Z</time>
      </trkpt>
      <trkpt lat="45.15133" lon="6.35612">
        <ele>2727.8000488281</ele>
        <time>2015-03-23T12:18:26.000Z</time>
      </trkpt>
      <trkpt lat="45.15134" lon="6.35609">
        <ele>2726</ele>
        <time>2015-03-23T12:18:29.000Z</time>
      </trkpt>
      <trkpt lat="45.15134" lon="6.35609">
        <ele>2725.1999511719</ele>
        <time>2015-03-23T12:18:30.000Z</time>
      </trkpt>
      <trkpt lat="45.15134" lon="6.35609">
        <ele>2724.6000976562</ele>
        <time>2015-03-23T12:18:31.000Z</time>
      </trkpt>
      <trkpt lat="45.15134" lon="6.35609">
        <ele>2723.6000976562</ele>
        <time>2015-03-23T12:18:42.000Z</time>
      </trkpt>
      <trkpt lat="45.15134" lon="6.35609">
        <ele>2723.6000976562</ele>
        <time>2015-03-23T12:19:00.000Z</time>
      </trkpt>
      <trkpt lat="45.15135" lon="6.35608">
        <ele>2723.3999023438</ele>
        <time>2015-03-23T12:19:03.000Z</time>
      </trkpt>
      <trkpt lat="45.15137" lon="6.35609">
        <ele>2723.1999511719</ele>
        <time>2015-03-23T12:19:04.000Z</time>
      </trkpt>
      <trkpt lat="45.15138" lon="6.35609">
        <ele>2722.1999511719</ele>
        <time>2015-03-23T12:19:06.000Z</time>
      </trkpt>
      <trkpt lat="45.15138" lon="6.35609">
        <ele>2721.3999023438</ele>
        <time>2015-03-23T12:19:07.000Z</time>
      </trkpt>
      <trkpt lat="45.15139" lon="6.35608">
        <ele>2721</ele>
        <time>2015-03-23T12:19:08.000Z</time>
      </trkpt>
      <trkpt lat="45.1514" lon="6.35604">
        <ele>2720.8000488281</ele>
        <time>2015-03-23T12:19:09.000Z</time>
      </trkpt>
      <trkpt lat="45.15139" lon="6.356">
        <ele>2720.3999023438</ele>
        <time>2015-03-23T12:19:11.000Z</time>
      </trkpt>
      <trkpt lat="45.15139" lon="6.35598">
        <ele>2719.8000488281</ele>
        <time>2015-03-23T12:19:13.000Z</time>
      </trkpt>
      <trkpt lat="45.15139" lon="6.35598">
        <ele>2718.8000488281</ele>
        <time>2015-03-23T12:19:14.000Z</time>
      </trkpt>
      <trkpt lat="45.15139" lon="6.35598">
        <ele>2717.6000976562</ele>
        <time>2015-03-23T12:19:15.000Z</time>
      </trkpt>
      <trkpt lat="45.15139" lon="6.35598">
        <ele>2716</ele>
        <time>2015-03-23T12:19:17.000Z</time>
      </trkpt>
      <trkpt lat="45.15139" lon="6.35598">
        <ele>2715</ele>
        <time>2015-03-23T12:19:21.000Z</time>
      </trkpt>
      <trkpt lat="45.15142" lon="6.35594">
        <ele>2714.6000976562</ele>
        <time>2015-03-23T12:19:27.000Z</time>
      </trkpt>
      <trkpt lat="45.15145" lon="6.35594">
        <ele>2713.8000488281</ele>
        <time>2015-03-23T12:19:29.000Z</time>
      </trkpt>
      <trkpt lat="45.15147" lon="6.35592">
        <ele>2712.6000976562</ele>
        <time>2015-03-23T12:19:30.000Z</time>
      </trkpt>
      <trkpt lat="45.15148" lon="6.35589">
        <ele>2711.6000976562</ele>
        <time>2015-03-23T12:19:31.000Z</time>
      </trkpt>
      <trkpt lat="45.15148" lon="6.35584">
        <ele>2710.1999511719</ele>
        <time>2015-03-23T12:19:33.000Z</time>
      </trkpt>
      <trkpt lat="45.1515" lon="6.35585">
        <ele>2709.1999511719</ele>
        <time>2015-03-23T12:19:34.000Z</time>
      </trkpt>
      <trkpt lat="45.15151" lon="6.35586">
        <ele>2707.8000488281</ele>
        <time>2015-03-23T12:19:35.000Z</time>
      </trkpt>
      <trkpt lat="45.15151" lon="6.35586">
        <ele>2706.1999511719</ele>
        <time>2015-03-23T12:19:36.000Z</time>
      </trkpt>
      <trkpt lat="45.15152" lon="6.35587">
        <ele>2704.8000488281</ele>
        <time>2015-03-23T12:19:37.000Z</time>
      </trkpt>
      <trkpt lat="45.15152" lon="6.35587">
        <ele>2703.1999511719</ele>
        <time>2015-03-23T12:19:39.000Z</time>
      </trkpt>
      <trkpt lat="45.15152" lon="6.35587">
        <ele>2702.1999511719</ele>
        <time>2015-03-23T12:19:52.000Z</time>
      </trkpt>
      <trkpt lat="45.15152" lon="6.35587">
        <ele>2702.1999511719</ele>
        <time>2015-03-23T12:19:53.000Z</time>
      </trkpt>
      <trkpt lat="45.15154" lon="6.35589">
        <ele>2702</ele>
        <time>2015-03-23T12:20:00.000Z</time>
      </trkpt>
      <trkpt lat="45.15156" lon="6.35589">
        <ele>2701</ele>
        <time>2015-03-23T12:20:04.000Z</time>
      </trkpt>
      <trkpt lat="45.15156" lon="6.35589">
        <ele>2700</ele>
        <time>2015-03-23T12:20:05.000Z</time>
      </trkpt>
      <trkpt lat="45.15157" lon="6.35588">
        <ele>2698.3999023438</ele>
        <time>2015-03-23T12:20:07.000Z</time>
      </trkpt>
      <trkpt lat="45.1516" lon="6.35585">
        <ele>2697</ele>
        <time>2015-03-23T12:20:09.000Z</time>
      </trkpt>
      <trkpt lat="45.15161" lon="6.35583">
        <ele>2695.8000488281</ele>
        <time>2015-03-23T12:20:10.000Z</time>
      </trkpt>
      <trkpt lat="45.15163" lon="6.3558">
        <ele>2694.6000976562</ele>
        <time>2015-03-23T12:20:12.000Z</time>
      </trkpt>
      <trkpt lat="45.15165" lon="6.35581">
        <ele>2693.6000976562</ele>
        <time>2015-03-23T12:20:13.000Z</time>
      </trkpt>
      <trkpt lat="45.15167" lon="6.35583">
        <ele>2692.1999511719</ele>
        <time>2015-03-23T12:20:14.000Z</time>
      </trkpt>
      <trkpt lat="45.1517" lon="6.35582">
        <ele>2691.1999511719</ele>
        <time>2015-03-23T12:20:15.000Z</time>
      </trkpt>
      <trkpt lat="45.15175" lon="6.35581">
        <ele>2689.3999023438</ele>
        <time>2015-03-23T12:20:17.000Z</time>
      </trkpt>
      <trkpt lat="45.15179" lon="6.35579">
        <ele>2687.1999511719</ele>
        <time>2015-03-23T12:20:19.000Z</time>
      </trkpt>
      <trkpt lat="45.15181" lon="6.3558">
        <ele>2685</ele>
        <time>2015-03-23T12:20:20.000Z</time>
      </trkpt>
      <trkpt lat="45.15184" lon="6.35581">
        <ele>2682.8000488281</ele>
        <time>2015-03-23T12:20:21.000Z</time>
      </trkpt>
      <trkpt lat="45.15185" lon="6.35581">
        <ele>2681.1999511719</ele>
        <time>2015-03-23T12:20:22.000Z</time>
      </trkpt>
      <trkpt lat="45.15185" lon="6.3558">
        <ele>2679.6000976562</ele>
        <time>2015-03-23T12:20:24.000Z</time>
      </trkpt>
      <trkpt lat="45.15184" lon="6.35578">
        <ele>2678.3999023438</ele>
        <time>2015-03-23T12:20:25.000Z</time>
      </trkpt>
      <trkpt lat="45.15184" lon="6.35578">
        <ele>2677</ele>
        <time>2015-03-23T12:20:26.000Z</time>
      </trkpt>
      <trkpt lat="45.15183" lon="6.35576">
        <ele>2675.6000976562</ele>
        <time>2015-03-23T12:20:28.000Z</time>
      </trkpt>
      <trkpt lat="45.1518" lon="6.35574">
        <ele>2675</ele>
        <time>2015-03-23T12:20:32.000Z</time>
      </trkpt>
      <trkpt lat="45.15173" lon="6.35569">
        <ele>2674.6000976562</ele>
        <time>2015-03-23T12:20:46.000Z</time>
      </trkpt>
      <trkpt lat="45.15172" lon="6.35569">
        <ele>2674.6000976562</ele>
        <time>2015-03-23T12:20:47.000Z</time>
      </trkpt>
      <trkpt lat="45.15173" lon="6.3557">
        <ele>2674.3999023438</ele>
        <time>2015-03-23T12:20:56.000Z</time>
      </trkpt>
      <trkpt lat="45.15167" lon="6.35565">
        <ele>2674.3999023438</ele>
        <time>2015-03-23T12:21:11.000Z</time>
      </trkpt>
      <trkpt lat="45.15165" lon="6.35565">
        <ele>2674.3999023438</ele>
        <time>2015-03-23T12:21:26.000Z</time>
      </trkpt>
      <trkpt lat="45.15165" lon="6.35565">
        <ele>2674.3999023438</ele>
        <time>2015-03-23T12:21:28.000Z</time>
      </trkpt>
      <trkpt lat="45.15164" lon="6.35565">
        <ele>2674.1999511719</ele>
        <time>2015-03-23T12:21:44.000Z</time>
      </trkpt>
      <trkpt lat="45.15165" lon="6.35564">
        <ele>2673.3999023438</ele>
        <time>2015-03-23T12:21:52.000Z</time>
      </trkpt>
      <trkpt lat="45.15172" lon="6.35564">
        <ele>2672</ele>
        <time>2015-03-23T12:21:55.000Z</time>
      </trkpt>
      <trkpt lat="45.15174" lon="6.35562">
        <ele>2670.3999023438</ele>
        <time>2015-03-23T12:21:57.000Z</time>
      </trkpt>
      <trkpt lat="45.15175" lon="6.35561">
        <ele>2669.3999023438</ele>
        <time>2015-03-23T12:21:58.000Z</time>
      </trkpt>
      <trkpt lat="45.15175" lon="6.35561">
        <ele>2669</ele>
        <time>2015-03-23T12:21:59.000Z</time>
      </trkpt>
      <trkpt lat="45.15175" lon="6.35558">
        <ele>2667.8000488281</ele>
        <time>2015-03-23T12:22:02.000Z</time>
      </trkpt>
      <trkpt lat="45.15176" lon="6.35557">
        <ele>2666.3999023438</ele>
        <time>2015-03-23T12:22:05.000Z</time>
      </trkpt>
      <trkpt lat="45.1518" lon="6.35555">
        <ele>2665.1999511719</ele>
        <time>2015-03-23T12:22:07.000Z</time>
      </trkpt>
      <trkpt lat="45.15185" lon="6.35555">
        <ele>2662</ele>
        <time>2015-03-23T12:22:10.000Z</time>
      </trkpt>
      <trkpt lat="45.15185" lon="6.35555">
        <ele>2661.3999023438</ele>
        <time>2015-03-23T12:22:11.000Z</time>
      </trkpt>
      <trkpt lat="45.15185" lon="6.35555">
        <ele>2660.8000488281</ele>
        <time>2015-03-23T12:22:13.000Z</time>
      </trkpt>
      <trkpt lat="45.15188" lon="6.35558">
        <ele>2660.3999023438</ele>
        <time>2015-03-23T12:22:20.000Z</time>
      </trkpt>
      <trkpt lat="45.15189" lon="6.35558">
        <ele>2660.1999511719</ele>
        <time>2015-03-23T12:22:29.000Z</time>
      </trkpt>
      <trkpt lat="45.1519" lon="6.35559">
        <ele>2659.6000976562</ele>
        <time>2015-03-23T12:22:30.000Z</time>
      </trkpt>
      <trkpt lat="45.15191" lon="6.3556">
        <ele>2658.3999023438</ele>
        <time>2015-03-23T12:22:33.000Z</time>
      </trkpt>
      <trkpt lat="45.15191" lon="6.3556">
        <ele>2658</ele>
        <time>2015-03-23T12:22:34.000Z</time>
      </trkpt>
      <trkpt lat="45.15192" lon="6.35562">
        <ele>2657.3999023438</ele>
        <time>2015-03-23T12:22:36.000Z</time>
      </trkpt>
      <trkpt lat="45.15196" lon="6.35567">
        <ele>2657.1999511719</ele>
        <time>2015-03-23T12:22:38.000Z</time>
      </trkpt>
      <trkpt lat="45.15201" lon="6.3557">
        <ele>2656.3999023438</ele>
        <time>2015-03-23T12:22:40.000Z</time>
      </trkpt>
      <trkpt lat="45.15202" lon="6.35568">
        <ele>2655.6000976562</ele>
        <time>2015-03-23T12:22:41.000Z</time>
      </trkpt>
      <trkpt lat="45.15204" lon="6.35565">
        <ele>2655.1999511719</ele>
        <time>2015-03-23T12:22:42.000Z</time>
      </trkpt>
      <trkpt lat="45.15207" lon="6.35559">
        <ele>2653.3999023438</ele>
        <time>2015-03-23T12:22:45.000Z</time>
      </trkpt>
      <trkpt lat="45.15208" lon="6.35558">
        <ele>2652</ele>
        <time>2015-03-23T12:22:46.000Z</time>
      </trkpt>
      <trkpt lat="45.1521" lon="6.35554">
        <ele>2650.1999511719</ele>
        <time>2015-03-23T12:22:47.000Z</time>
      </trkpt>
      <trkpt lat="45.15211" lon="6.35553">
        <ele>2648.8000488281</ele>
        <time>2015-03-23T12:22:48.000Z</time>
      </trkpt>
      <trkpt lat="45.15214" lon="6.35549">
        <ele>2647.6000976562</ele>
        <time>2015-03-23T12:22:49.000Z</time>
      </trkpt>
      <trkpt lat="45.15218" lon="6.35545">
        <ele>2646.3999023438</ele>
        <time>2015-03-23T12:22:50.000Z</time>
      </trkpt>
      <trkpt lat="45.15222" lon="6.35542">
        <ele>2644.8000488281</ele>
        <time>2015-03-23T12:22:51.000Z</time>
      </trkpt>
      <trkpt lat="45.15225" lon="6.35539">
        <ele>2642.8000488281</ele>
        <time>2015-03-23T12:22:52.000Z</time>
      </trkpt>
      <trkpt lat="45.15228" lon="6.35536">
        <ele>2640.8000488281</ele>
        <time>2015-03-23T12:22:53.000Z</time>
      </trkpt>
      <trkpt lat="45.1523" lon="6.35534">
        <ele>2638.6000976562</ele>
        <time>2015-03-23T12:22:54.000Z</time>
      </trkpt>
      <trkpt lat="45.15231" lon="6.35532">
        <ele>2636.3999023438</ele>
        <time>2015-03-23T12:22:55.000Z</time>
      </trkpt>
      <trkpt lat="45.15232" lon="6.35531">
        <ele>2634.6000976562</ele>
        <time>2015-03-23T12:22:56.000Z</time>
      </trkpt>
      <trkpt lat="45.15232" lon="6.3553">
        <ele>2632.3999023438</ele>
        <time>2015-03-23T12:22:57.000Z</time>
      </trkpt>
      <trkpt lat="45.15231" lon="6.3553">
        <ele>2629.1999511719</ele>
        <time>2015-03-23T12:22:58.000Z</time>
      </trkpt>
      <trkpt lat="45.1523" lon="6.35529">
        <ele>2628</ele>
        <time>2015-03-23T12:23:00.000Z</time>
      </trkpt>
      <trkpt lat="45.15229" lon="6.35529">
        <ele>2627.8000488281</ele>
        <time>2015-03-23T12:23:01.000Z</time>
      </trkpt>
      <trkpt lat="45.15227" lon="6.35526">
        <ele>2627.1999511719</ele>
        <time>2015-03-23T12:23:08.000Z</time>
      </trkpt>
      <trkpt lat="45.15226" lon="6.35525">
        <ele>2627.1999511719</ele>
        <time>2015-03-23T12:23:09.000Z</time>
      </trkpt>
      <trkpt lat="45.15225" lon="6.35524">
        <ele>2627</ele>
        <time>2015-03-23T12:23:10.000Z</time>
      </trkpt>
      <trkpt lat="45.15221" lon="6.35518">
        <ele>2625.8000488281</ele>
        <time>2015-03-23T12:23:14.000Z</time>
      </trkpt>
      <trkpt lat="45.15224" lon="6.35516">
        <ele>2625.1999511719</ele>
        <time>2015-03-23T12:23:16.000Z</time>
      </trkpt>
      <trkpt lat="45.15225" lon="6.35516">
        <ele>2624.3999023438</ele>
        <time>2015-03-23T12:23:17.000Z</time>
      </trkpt>
      <trkpt lat="45.15229" lon="6.35515">
        <ele>2622.6000976562</ele>
        <time>2015-03-23T12:23:19.000Z</time>
      </trkpt>
      <trkpt lat="45.15232" lon="6.35514">
        <ele>2621.3999023438</ele>
        <time>2015-03-23T12:23:21.000Z</time>
      </trkpt>
      <trkpt lat="45.15232" lon="6.35511">
        <ele>2620</ele>
        <time>2015-03-23T12:23:22.000Z</time>
      </trkpt>
      <trkpt lat="45.15231" lon="6.35504">
        <ele>2618.6000976562</ele>
        <time>2015-03-23T12:23:23.000Z</time>
      </trkpt>
      <trkpt lat="45.15232" lon="6.355">
        <ele>2616.8000488281</ele>
        <time>2015-03-23T12:23:24.000Z</time>
      </trkpt>
      <trkpt lat="45.15234" lon="6.35498">
        <ele>2615</ele>
        <time>2015-03-23T12:23:25.000Z</time>
      </trkpt>
      <trkpt lat="45.15235" lon="6.35496">
        <ele>2613.3999023438</ele>
        <time>2015-03-23T12:23:26.000Z</time>
      </trkpt>
      <trkpt lat="45.15238" lon="6.35493">
        <ele>2612</ele>
        <time>2015-03-23T12:23:27.000Z</time>
      </trkpt>
      <trkpt lat="45.15239" lon="6.35491">
        <ele>2610.8000488281</ele>
        <time>2015-03-23T12:23:28.000Z</time>
      </trkpt>
      <trkpt lat="45.15241" lon="6.35489">
        <ele>2609.3999023438</ele>
        <time>2015-03-23T12:23:29.000Z</time>
      </trkpt>
      <trkpt lat="45.15242" lon="6.35486">
        <ele>2607.6000976562</ele>
        <time>2015-03-23T12:23:30.000Z</time>
      </trkpt>
      <trkpt lat="45.1524" lon="6.35479">
        <ele>2605.3999023438</ele>
        <time>2015-03-23T12:23:31.000Z</time>
      </trkpt>
      <trkpt lat="45.15241" lon="6.35475">
        <ele>2603</ele>
        <time>2015-03-23T12:23:32.000Z</time>
      </trkpt>
      <trkpt lat="45.15241" lon="6.35473">
        <ele>2600.6000976562</ele>
        <time>2015-03-23T12:23:33.000Z</time>
      </trkpt>
      <trkpt lat="45.15242" lon="6.35469">
        <ele>2598.8000488281</ele>
        <time>2015-03-23T12:23:34.000Z</time>
      </trkpt>
      <trkpt lat="45.15245" lon="6.35466">
        <ele>2597.3999023438</ele>
        <time>2015-03-23T12:23:35.000Z</time>
      </trkpt>
      <trkpt lat="45.15247" lon="6.35464">
        <ele>2596</ele>
        <time>2015-03-23T12:23:36.000Z</time>
      </trkpt>
      <trkpt lat="45.15247" lon="6.3546">
        <ele>2594.6000976562</ele>
        <time>2015-03-23T12:23:37.000Z</time>
      </trkpt>
      <trkpt lat="45.15247" lon="6.35455">
        <ele>2592.8000488281</ele>
        <time>2015-03-23T12:23:38.000Z</time>
      </trkpt>
      <trkpt lat="45.15245" lon="6.35451">
        <ele>2590.3999023438</ele>
        <time>2015-03-23T12:23:39.000Z</time>
      </trkpt>
      <trkpt lat="45.15243" lon="6.35448">
        <ele>2588</ele>
        <time>2015-03-23T12:23:40.000Z</time>
      </trkpt>
      <trkpt lat="45.15243" lon="6.35446">
        <ele>2586</ele>
        <time>2015-03-23T12:23:41.000Z</time>
      </trkpt>
      <trkpt lat="45.15242" lon="6.35444">
        <ele>2584.3999023438</ele>
        <time>2015-03-23T12:23:42.000Z</time>
      </trkpt>
      <trkpt lat="45.15241" lon="6.35443">
        <ele>2583.1999511719</ele>
        <time>2015-03-23T12:23:43.000Z</time>
      </trkpt>
      <trkpt lat="45.1524" lon="6.35441">
        <ele>2582</ele>
        <time>2015-03-23T12:23:45.000Z</time>
      </trkpt>
      <trkpt lat="45.15232" lon="6.35442">
        <ele>2581.6000976562</ele>
        <time>2015-03-23T12:23:55.000Z</time>
      </trkpt>
      <trkpt lat="45.15229" lon="6.35447">
        <ele>2581.3999023438</ele>
        <time>2015-03-23T12:24:06.000Z</time>
      </trkpt>
      <trkpt lat="45.15233" lon="6.35446">
        <ele>2581.3999023438</ele>
        <time>2015-03-23T12:24:09.000Z</time>
      </trkpt>
      <trkpt lat="45.15236" lon="6.3544">
        <ele>2580.6000976562</ele>
        <time>2015-03-23T12:24:10.000Z</time>
      </trkpt>
      <trkpt lat="45.15236" lon="6.35432">
        <ele>2579.8000488281</ele>
        <time>2015-03-23T12:24:12.000Z</time>
      </trkpt>
      <trkpt lat="45.15235" lon="6.35429">
        <ele>2579</ele>
        <time>2015-03-23T12:24:13.000Z</time>
      </trkpt>
      <trkpt lat="45.15234" lon="6.35426">
        <ele>2577.3999023438</ele>
        <time>2015-03-23T12:24:14.000Z</time>
      </trkpt>
      <trkpt lat="45.15232" lon="6.35424">
        <ele>2575.1999511719</ele>
        <time>2015-03-23T12:24:15.000Z</time>
      </trkpt>
      <trkpt lat="45.15231" lon="6.35422">
        <ele>2573.3999023438</ele>
        <time>2015-03-23T12:24:16.000Z</time>
      </trkpt>
      <trkpt lat="45.1523" lon="6.3542">
        <ele>2572.1999511719</ele>
        <time>2015-03-23T12:24:17.000Z</time>
      </trkpt>
      <trkpt lat="45.15228" lon="6.35417">
        <ele>2570.8000488281</ele>
        <time>2015-03-23T12:24:19.000Z</time>
      </trkpt>
      <trkpt lat="45.15226" lon="6.35414">
        <ele>2570</ele>
        <time>2015-03-23T12:24:22.000Z</time>
      </trkpt>
      <trkpt lat="45.15227" lon="6.35409">
        <ele>2569.6000976562</ele>
        <time>2015-03-23T12:24:25.000Z</time>
      </trkpt>
      <trkpt lat="45.15229" lon="6.35406">
        <ele>2569.1999511719</ele>
        <time>2015-03-23T12:24:26.000Z</time>
      </trkpt>
      <trkpt lat="45.15231" lon="6.35403">
        <ele>2568.6000976562</ele>
        <time>2015-03-23T12:24:27.000Z</time>
      </trkpt>
      <trkpt lat="45.15237" lon="6.35399">
        <ele>2566.8000488281</ele>
        <time>2015-03-23T12:24:29.000Z</time>
      </trkpt>
      <trkpt lat="45.15238" lon="6.35397">
        <ele>2566.1999511719</ele>
        <time>2015-03-23T12:24:30.000Z</time>
      </trkpt>
      <trkpt lat="45.15238" lon="6.35395">
        <ele>2565.3999023438</ele>
        <time>2015-03-23T12:24:31.000Z</time>
      </trkpt>
      <trkpt lat="45.15238" lon="6.35393">
        <ele>2564.3999023438</ele>
        <time>2015-03-23T12:24:32.000Z</time>
      </trkpt>
      <trkpt lat="45.15237" lon="6.35385">
        <ele>2563</ele>
        <time>2015-03-23T12:24:33.000Z</time>
      </trkpt>
      <trkpt lat="45.15237" lon="6.35381">
        <ele>2559</ele>
        <time>2015-03-23T12:24:34.000Z</time>
      </trkpt>
      <trkpt lat="45.15237" lon="6.35376">
        <ele>2557</ele>
        <time>2015-03-23T12:24:35.000Z</time>
      </trkpt>
      <trkpt lat="45.15237" lon="6.3537">
        <ele>2555.1999511719</ele>
        <time>2015-03-23T12:24:36.000Z</time>
      </trkpt>
      <trkpt lat="45.15239" lon="6.35365">
        <ele>2554</ele>
        <time>2015-03-23T12:24:37.000Z</time>
      </trkpt>
      <trkpt lat="45.15239" lon="6.35363">
        <ele>2553</ele>
        <time>2015-03-23T12:24:38.000Z</time>
      </trkpt>
      <trkpt lat="45.15238" lon="6.3536">
        <ele>2551.3999023438</ele>
        <time>2015-03-23T12:24:39.000Z</time>
      </trkpt>
      <trkpt lat="45.15238" lon="6.35358">
        <ele>2549.6000976562</ele>
        <time>2015-03-23T12:24:40.000Z</time>
      </trkpt>
      <trkpt lat="45.15236" lon="6.35352">
        <ele>2547.8000488281</ele>
        <time>2015-03-23T12:24:41.000Z</time>
      </trkpt>
      <trkpt lat="45.15235" lon="6.35348">
        <ele>2546</ele>
        <time>2015-03-23T12:24:42.000Z</time>
      </trkpt>
      <trkpt lat="45.15234" lon="6.35344">
        <ele>2544.1999511719</ele>
        <time>2015-03-23T12:24:43.000Z</time>
      </trkpt>
      <trkpt lat="45.15237" lon="6.35337">
        <ele>2542.8000488281</ele>
        <time>2015-03-23T12:24:44.000Z</time>
      </trkpt>
      <trkpt lat="45.15242" lon="6.35328">
        <ele>2540.8000488281</ele>
        <time>2015-03-23T12:24:46.000Z</time>
      </trkpt>
      <trkpt lat="45.15245" lon="6.35324">
        <ele>2538.6000976562</ele>
        <time>2015-03-23T12:24:47.000Z</time>
      </trkpt>
      <trkpt lat="45.15246" lon="6.35321">
        <ele>2536.1999511719</ele>
        <time>2015-03-23T12:24:48.000Z</time>
      </trkpt>
      <trkpt lat="45.15246" lon="6.35317">
        <ele>2534.1999511719</ele>
        <time>2015-03-23T12:24:49.000Z</time>
      </trkpt>
      <trkpt lat="45.15245" lon="6.35314">
        <ele>2532.6000976562</ele>
        <time>2015-03-23T12:24:50.000Z</time>
      </trkpt>
      <trkpt lat="45.15245" lon="6.35311">
        <ele>2530.3999023438</ele>
        <time>2015-03-23T12:24:51.000Z</time>
      </trkpt>
      <trkpt lat="45.15243" lon="6.35308">
        <ele>2528.1999511719</ele>
        <time>2015-03-23T12:24:52.000Z</time>
      </trkpt>
      <trkpt lat="45.15241" lon="6.35306">
        <ele>2526.6000976562</ele>
        <time>2015-03-23T12:24:53.000Z</time>
      </trkpt>
      <trkpt lat="45.1524" lon="6.35305">
        <ele>2525.1999511719</ele>
        <time>2015-03-23T12:24:54.000Z</time>
      </trkpt>
      <trkpt lat="45.15239" lon="6.35303">
        <ele>2524</ele>
        <time>2015-03-23T12:24:55.000Z</time>
      </trkpt>
      <trkpt lat="45.15238" lon="6.35302">
        <ele>2522.6000976562</ele>
        <time>2015-03-23T12:24:57.000Z</time>
      </trkpt>
      <trkpt lat="45.15239" lon="6.35306">
        <ele>2521.8000488281</ele>
        <time>2015-03-23T12:25:02.000Z</time>
      </trkpt>
      <trkpt lat="45.15239" lon="6.35306">
        <ele>2521.8000488281</ele>
        <time>2015-03-23T12:25:12.000Z</time>
      </trkpt>
      <trkpt lat="45.15237" lon="6.35308">
        <ele>2521.6000976562</ele>
        <time>2015-03-23T12:25:15.000Z</time>
      </trkpt>
      <trkpt lat="45.15237" lon="6.35308">
        <ele>2521.3999023438</ele>
        <time>2015-03-23T12:25:20.000Z</time>
      </trkpt>
      <trkpt lat="45.15237" lon="6.35308">
        <ele>2521.1999511719</ele>
        <time>2015-03-23T12:25:33.000Z</time>
      </trkpt>
      <trkpt lat="45.15237" lon="6.35305">
        <ele>2520.8000488281</ele>
        <time>2015-03-23T12:25:38.000Z</time>
      </trkpt>
      <trkpt lat="45.1524" lon="6.35305">
        <ele>2520.3999023438</ele>
        <time>2015-03-23T12:25:39.000Z</time>
      </trkpt>
      <trkpt lat="45.15243" lon="6.35297">
        <ele>2518.3999023438</ele>
        <time>2015-03-23T12:25:41.000Z</time>
      </trkpt>
      <trkpt lat="45.15242" lon="6.35291">
        <ele>2517</ele>
        <time>2015-03-23T12:25:43.000Z</time>
      </trkpt>
      <trkpt lat="45.15233" lon="6.35285">
        <ele>2515.3999023438</ele>
        <time>2015-03-23T12:25:45.000Z</time>
      </trkpt>
      <trkpt lat="45.15228" lon="6.35284">
        <ele>2511.8000488281</ele>
        <time>2015-03-23T12:25:46.000Z</time>
      </trkpt>
      <trkpt lat="45.15224" lon="6.35282">
        <ele>2510.3999023438</ele>
        <time>2015-03-23T12:25:47.000Z</time>
      </trkpt>
      <trkpt lat="45.15222" lon="6.35279">
        <ele>2509.1999511719</ele>
        <time>2015-03-23T12:25:48.000Z</time>
      </trkpt>
      <trkpt lat="45.15219" lon="6.35274">
        <ele>2507.1999511719</ele>
        <time>2015-03-23T12:25:50.000Z</time>
      </trkpt>
      <trkpt lat="45.15222" lon="6.35268">
        <ele>2506.1999511719</ele>
        <time>2015-03-23T12:25:51.000Z</time>
      </trkpt>
      <trkpt lat="45.15223" lon="6.35258">
        <ele>2504.3999023438</ele>
        <time>2015-03-23T12:25:53.000Z</time>
      </trkpt>
      <trkpt lat="45.15221" lon="6.35255">
        <ele>2503.3999023438</ele>
        <time>2015-03-23T12:25:54.000Z</time>
      </trkpt>
      <trkpt lat="45.1522" lon="6.35251">
        <ele>2501.6000976562</ele>
        <time>2015-03-23T12:25:55.000Z</time>
      </trkpt>
      <trkpt lat="45.15223" lon="6.35245">
        <ele>2499</ele>
        <time>2015-03-23T12:25:56.000Z</time>
      </trkpt>
      <trkpt lat="45.15225" lon="6.35242">
        <ele>2496.1999511719</ele>
        <time>2015-03-23T12:25:57.000Z</time>
      </trkpt>
      <trkpt lat="45.15226" lon="6.3524">
        <ele>2493.8000488281</ele>
        <time>2015-03-23T12:25:58.000Z</time>
      </trkpt>
      <trkpt lat="45.15228" lon="6.35239">
        <ele>2492</ele>
        <time>2015-03-23T12:25:59.000Z</time>
      </trkpt>
      <trkpt lat="45.1523" lon="6.35238">
        <ele>2490.8000488281</ele>
        <time>2015-03-23T12:26:00.000Z</time>
      </trkpt>
      <trkpt lat="45.15231" lon="6.35236">
        <ele>2489.6000976562</ele>
        <time>2015-03-23T12:26:01.000Z</time>
      </trkpt>
      <trkpt lat="45.15234" lon="6.35233">
        <ele>2488.1999511719</ele>
        <time>2015-03-23T12:26:03.000Z</time>
      </trkpt>
      <trkpt lat="45.15234" lon="6.35234">
        <ele>2486.8000488281</ele>
        <time>2015-03-23T12:26:05.000Z</time>
      </trkpt>
      <trkpt lat="45.15234" lon="6.35235">
        <ele>2486</ele>
        <time>2015-03-23T12:26:06.000Z</time>
      </trkpt>
      <trkpt lat="45.15234" lon="6.35235">
        <ele>2485.6000976562</ele>
        <time>2015-03-23T12:26:07.000Z</time>
      </trkpt>
      <trkpt lat="45.15235" lon="6.35231">
        <ele>2484.8000488281</ele>
        <time>2015-03-23T12:26:13.000Z</time>
      </trkpt>
      <trkpt lat="45.15236" lon="6.35226">
        <ele>2484.3999023438</ele>
        <time>2015-03-23T12:26:14.000Z</time>
      </trkpt>
      <trkpt lat="45.15237" lon="6.35216">
        <ele>2482.6000976562</ele>
        <time>2015-03-23T12:26:16.000Z</time>
      </trkpt>
      <trkpt lat="45.1524" lon="6.35204">
        <ele>2480.6000976562</ele>
        <time>2015-03-23T12:26:18.000Z</time>
      </trkpt>
      <trkpt lat="45.15242" lon="6.352">
        <ele>2479.1999511719</ele>
        <time>2015-03-23T12:26:19.000Z</time>
      </trkpt>
      <trkpt lat="45.15245" lon="6.35194">
        <ele>2477.3999023438</ele>
        <time>2015-03-23T12:26:20.000Z</time>
      </trkpt>
      <trkpt lat="45.15246" lon="6.3519">
        <ele>2475.8000488281</ele>
        <time>2015-03-23T12:26:21.000Z</time>
      </trkpt>
      <trkpt lat="45.15245" lon="6.35188">
        <ele>2474.3999023438</ele>
        <time>2015-03-23T12:26:22.000Z</time>
      </trkpt>
      <trkpt lat="45.15242" lon="6.35186">
        <ele>2472.8000488281</ele>
        <time>2015-03-23T12:26:23.000Z</time>
      </trkpt>
      <trkpt lat="45.1524" lon="6.35185">
        <ele>2471.6000976562</ele>
        <time>2015-03-23T12:26:24.000Z</time>
      </trkpt>
      <trkpt lat="45.15238" lon="6.35183">
        <ele>2470.1999511719</ele>
        <time>2015-03-23T12:26:25.000Z</time>
      </trkpt>
      <trkpt lat="45.15235" lon="6.35182">
        <ele>2468.8000488281</ele>
        <time>2015-03-23T12:26:26.000Z</time>
      </trkpt>
      <trkpt lat="45.15233" lon="6.3518">
        <ele>2467.3999023438</ele>
        <time>2015-03-23T12:26:27.000Z</time>
      </trkpt>
      <trkpt lat="45.1523" lon="6.35178">
        <ele>2466.1999511719</ele>
        <time>2015-03-23T12:26:28.000Z</time>
      </trkpt>
      <trkpt lat="45.1521" lon="6.35168">
        <ele>2464.6000976562</ele>
        <time>2015-03-23T12:26:30.000Z</time>
      </trkpt>
      <trkpt lat="45.152" lon="6.35161">
        <ele>2463.8000488281</ele>
        <time>2015-03-23T12:26:31.000Z</time>
      </trkpt>
      <trkpt lat="45.15194" lon="6.35156">
        <ele>2463.1999511719</ele>
        <time>2015-03-23T12:26:32.000Z</time>
      </trkpt>
      <trkpt lat="45.15187" lon="6.35146">
        <ele>2461.8000488281</ele>
        <time>2015-03-23T12:26:34.000Z</time>
      </trkpt>
      <trkpt lat="45.1518" lon="6.35137">
        <ele>2461.3999023438</ele>
        <time>2015-03-23T12:26:36.000Z</time>
      </trkpt>
      <trkpt lat="45.1517" lon="6.35118">
        <ele>2460.6000976562</ele>
        <time>2015-03-23T12:26:40.000Z</time>
      </trkpt>
      <trkpt lat="45.15164" lon="6.35105">
        <ele>2459.6000976562</ele>
        <time>2015-03-23T12:26:43.000Z</time>
      </trkpt>
      <trkpt lat="45.15162" lon="6.351">
        <ele>2459.1999511719</ele>
        <time>2015-03-23T12:26:44.000Z</time>
      </trkpt>
      <trkpt lat="45.15158" lon="6.35091">
        <ele>2458.1999511719</ele>
        <time>2015-03-23T12:26:46.000Z</time>
      </trkpt>
      <trkpt lat="45.1515" lon="6.35074">
        <ele>2457</ele>
        <time>2015-03-23T12:26:50.000Z</time>
      </trkpt>
      <trkpt lat="45.15148" lon="6.35071">
        <ele>2456.8000488281</ele>
        <time>2015-03-23T12:26:51.000Z</time>
      </trkpt>
      <trkpt lat="45.15141" lon="6.35062">
        <ele>2455.8000488281</ele>
        <time>2015-03-23T12:26:55.000Z</time>
      </trkpt>
      <trkpt lat="45.15134" lon="6.35058">
        <ele>2455.1999511719</ele>
        <time>2015-03-23T12:26:58.000Z</time>
      </trkpt>
      <trkpt lat="45.15129" lon="6.35055">
        <ele>2454.6000976562</ele>
        <time>2015-03-23T12:27:00.000Z</time>
      </trkpt>
      <trkpt lat="45.15117" lon="6.3505">
        <ele>2453.6000976562</ele>
        <time>2015-03-23T12:27:05.000Z</time>
      </trkpt>
      <trkpt lat="45.15098" lon="6.35043">
        <ele>2453</ele>
        <time>2015-03-23T12:27:14.000Z</time>
      </trkpt>
      <trkpt lat="45.15093" lon="6.3504">
        <ele>2452.3999023438</ele>
        <time>2015-03-23T12:27:16.000Z</time>
      </trkpt>
      <trkpt lat="45.15078" lon="6.35032">
        <ele>2451.1999511719</ele>
        <time>2015-03-23T12:27:21.000Z</time>
      </trkpt>
      <trkpt lat="45.15068" lon="6.35029">
        <ele>2450.1999511719</ele>
        <time>2015-03-23T12:27:24.000Z</time>
      </trkpt>
      <trkpt lat="45.1506" lon="6.35026">
        <ele>2449</ele>
        <time>2015-03-23T12:27:27.000Z</time>
      </trkpt>
      <trkpt lat="45.15046" lon="6.35018">
        <ele>2447.8000488281</ele>
        <time>2015-03-23T12:27:31.000Z</time>
      </trkpt>
      <trkpt lat="45.15039" lon="6.35014">
        <ele>2447</ele>
        <time>2015-03-23T12:27:34.000Z</time>
      </trkpt>
      <trkpt lat="45.15036" lon="6.35013">
        <ele>2446.8000488281</ele>
        <time>2015-03-23T12:27:35.000Z</time>
      </trkpt>
      <trkpt lat="45.15022" lon="6.35008">
        <ele>2446.6000976562</ele>
        <time>2015-03-23T12:27:42.000Z</time>
      </trkpt>
      <trkpt lat="45.1502" lon="6.35006">
        <ele>2445.3999023438</ele>
        <time>2015-03-23T12:27:46.000Z</time>
      </trkpt>
      <trkpt lat="45.1502" lon="6.35006">
        <ele>2445.3999023438</ele>
        <time>2015-03-23T12:27:47.000Z</time>
      </trkpt>
      <trkpt lat="45.1502" lon="6.35006">
        <ele>2445</ele>
        <time>2015-03-23T12:27:59.000Z</time>
      </trkpt>
      <trkpt lat="45.15013" lon="6.35004">
        <ele>2444.8000488281</ele>
        <time>2015-03-23T12:28:05.000Z</time>
      </trkpt>
      <trkpt lat="45.15005" lon="6.35004">
        <ele>2444.1999511719</ele>
        <time>2015-03-23T12:28:08.000Z</time>
      </trkpt>
      <trkpt lat="45.14994" lon="6.35003">
        <ele>2443</ele>
        <time>2015-03-23T12:28:11.000Z</time>
      </trkpt>
      <trkpt lat="45.1499" lon="6.35003">
        <ele>2442.8000488281</ele>
        <time>2015-03-23T12:28:12.000Z</time>
      </trkpt>
      <trkpt lat="45.14976" lon="6.35">
        <ele>2441.6000976562</ele>
        <time>2015-03-23T12:28:15.000Z</time>
      </trkpt>
      <trkpt lat="45.14967" lon="6.34997">
        <ele>2440.6000976562</ele>
        <time>2015-03-23T12:28:17.000Z</time>
      </trkpt>
      <trkpt lat="45.14959" lon="6.34991">
        <ele>2440</ele>
        <time>2015-03-23T12:28:19.000Z</time>
      </trkpt>
      <trkpt lat="45.14945" lon="6.34977">
        <ele>2439.6000976562</ele>
        <time>2015-03-23T12:28:25.000Z</time>
      </trkpt>
      <trkpt lat="45.14943" lon="6.34975">
        <ele>2439.3999023438</ele>
        <time>2015-03-23T12:28:26.000Z</time>
      </trkpt>
      <trkpt lat="45.14934" lon="6.34968">
        <ele>2438.8000488281</ele>
        <time>2015-03-23T12:28:31.000Z</time>
      </trkpt>
      <trkpt lat="45.14928" lon="6.34964">
        <ele>2438.3999023438</ele>
        <time>2015-03-23T12:28:34.000Z</time>
      </trkpt>
      <trkpt lat="45.14921" lon="6.34962">
        <ele>2438</ele>
        <time>2015-03-23T12:28:37.000Z</time>
      </trkpt>
      <trkpt lat="45.1491" lon="6.34959">
        <ele>2437.3999023438</ele>
        <time>2015-03-23T12:28:42.000Z</time>
      </trkpt>
      <trkpt lat="45.14898" lon="6.34956">
        <ele>2436.8000488281</ele>
        <time>2015-03-23T12:28:46.000Z</time>
      </trkpt>
      <trkpt lat="45.14887" lon="6.34955">
        <ele>2436</ele>
        <time>2015-03-23T12:28:49.000Z</time>
      </trkpt>
      <trkpt lat="45.14876" lon="6.34952">
        <ele>2435</ele>
        <time>2015-03-23T12:28:52.000Z</time>
      </trkpt>
      <trkpt lat="45.14871" lon="6.34951">
        <ele>2434.3999023438</ele>
        <time>2015-03-23T12:28:54.000Z</time>
      </trkpt>
      <trkpt lat="45.14862" lon="6.3495">
        <ele>2433.8000488281</ele>
        <time>2015-03-23T12:28:58.000Z</time>
      </trkpt>
      <trkpt lat="45.14847" lon="6.34951">
        <ele>2433</ele>
        <time>2015-03-23T12:29:04.000Z</time>
      </trkpt>
      <trkpt lat="45.14845" lon="6.3495">
        <ele>2432.6000976562</ele>
        <time>2015-03-23T12:29:06.000Z</time>
      </trkpt>
      <trkpt lat="45.14839" lon="6.34952">
        <ele>2432.3999023438</ele>
        <time>2015-03-23T12:29:11.000Z</time>
      </trkpt>
      <trkpt lat="45.14834" lon="6.34951">
        <ele>2433.1999511719</ele>
        <time>2015-03-23T12:29:20.000Z</time>
      </trkpt>
      <trkpt lat="45.14834" lon="6.34951">
        <ele>2433.8000488281</ele>
        <time>2015-03-23T12:29:22.000Z</time>
      </trkpt>
      <trkpt lat="45.14833" lon="6.34951">
        <ele>2434.3999023438</ele>
        <time>2015-03-23T12:29:28.000Z</time>
      </trkpt>
      <trkpt lat="45.1482" lon="6.34952">
        <ele>2434</ele>
        <time>2015-03-23T12:29:31.000Z</time>
      </trkpt>
      <trkpt lat="45.14808" lon="6.34952">
        <ele>2432.1999511719</ele>
        <time>2015-03-23T12:29:33.000Z</time>
      </trkpt>
      <trkpt lat="45.14802" lon="6.34952">
        <ele>2431.1999511719</ele>
        <time>2015-03-23T12:29:34.000Z</time>
      </trkpt>
      <trkpt lat="45.14796" lon="6.34952">
        <ele>2430.1999511719</ele>
        <time>2015-03-23T12:29:35.000Z</time>
      </trkpt>
      <trkpt lat="45.14785" lon="6.3495">
        <ele>2428.3999023438</ele>
        <time>2015-03-23T12:29:37.000Z</time>
      </trkpt>
      <trkpt lat="45.14771" lon="6.34947">
        <ele>2427.3999023438</ele>
        <time>2015-03-23T12:29:40.000Z</time>
      </trkpt>
      <trkpt lat="45.14759" lon="6.34943">
        <ele>2427</ele>
        <time>2015-03-23T12:29:43.000Z</time>
      </trkpt>
      <trkpt lat="45.14743" lon="6.34935">
        <ele>2426.3999023438</ele>
        <time>2015-03-23T12:29:49.000Z</time>
      </trkpt>
      <trkpt lat="45.14733" lon="6.34931">
        <ele>2426.6000976562</ele>
        <time>2015-03-23T12:29:56.000Z</time>
      </trkpt>
      <trkpt lat="45.1473" lon="6.34929">
        <ele>2426.1999511719</ele>
        <time>2015-03-23T12:29:58.000Z</time>
      </trkpt>
      <trkpt lat="45.1472" lon="6.34926">
        <ele>2425</ele>
        <time>2015-03-23T12:30:03.000Z</time>
      </trkpt>
      <trkpt lat="45.14711" lon="6.34923">
        <ele>2424</ele>
        <time>2015-03-23T12:30:08.000Z</time>
      </trkpt>
      <trkpt lat="45.14705" lon="6.34922">
        <ele>2423.6000976562</ele>
        <time>2015-03-23T12:30:11.000Z</time>
      </trkpt>
      <trkpt lat="45.14693" lon="6.34919">
        <ele>2423</ele>
        <time>2015-03-23T12:30:18.000Z</time>
      </trkpt>
      <trkpt lat="45.14691" lon="6.34919">
        <ele>2422.6000976562</ele>
        <time>2015-03-23T12:30:19.000Z</time>
      </trkpt>
      <trkpt lat="45.14684" lon="6.34917">
        <ele>2421.8000488281</ele>
        <time>2015-03-23T12:30:22.000Z</time>
      </trkpt>
      <trkpt lat="45.14676" lon="6.34916">
        <ele>2420.3999023438</ele>
        <time>2015-03-23T12:30:25.000Z</time>
      </trkpt>
      <trkpt lat="45.14673" lon="6.34915">
        <ele>2420.1999511719</ele>
        <time>2015-03-23T12:30:26.000Z</time>
      </trkpt>
      <trkpt lat="45.14664" lon="6.34914">
        <ele>2419.1999511719</ele>
        <time>2015-03-23T12:30:31.000Z</time>
      </trkpt>
      <trkpt lat="45.14662" lon="6.34914">
        <ele>2419</ele>
        <time>2015-03-23T12:30:32.000Z</time>
      </trkpt>
      <trkpt lat="45.14655" lon="6.34912">
        <ele>2418.3999023438</ele>
        <time>2015-03-23T12:30:38.000Z</time>
      </trkpt>
      <trkpt lat="45.14654" lon="6.34911">
        <ele>2418</ele>
        <time>2015-03-23T12:30:39.000Z</time>
      </trkpt>
      <trkpt lat="45.14645" lon="6.34907">
        <ele>2417</ele>
        <time>2015-03-23T12:30:45.000Z</time>
      </trkpt>
      <trkpt lat="45.1464" lon="6.34903">
        <ele>2415.8000488281</ele>
        <time>2015-03-23T12:30:52.000Z</time>
      </trkpt>
      <trkpt lat="45.14639" lon="6.34902">
        <ele>2415.1999511719</ele>
        <time>2015-03-23T12:30:53.000Z</time>
      </trkpt>
      <trkpt lat="45.14639" lon="6.34902">
        <ele>2414.8000488281</ele>
        <time>2015-03-23T12:30:54.000Z</time>
      </trkpt>
      <trkpt lat="45.14639" lon="6.34902">
        <ele>2415.1999511719</ele>
        <time>2015-03-23T12:31:03.000Z</time>
      </trkpt>
      <trkpt lat="45.14639" lon="6.34902">
        <ele>2415</ele>
        <time>2015-03-23T12:31:11.000Z</time>
      </trkpt>
      <trkpt lat="45.14638" lon="6.34902">
        <ele>2415.6000976562</ele>
        <time>2015-03-23T12:31:21.000Z</time>
      </trkpt>
      <trkpt lat="45.14638" lon="6.34903">
        <ele>2415.3999023438</ele>
        <time>2015-03-23T12:31:32.000Z</time>
      </trkpt>
      <trkpt lat="45.14636" lon="6.34904">
        <ele>2415.1999511719</ele>
        <time>2015-03-23T12:31:42.000Z</time>
      </trkpt>
      <trkpt lat="45.14636" lon="6.34904">
        <ele>2415.1999511719</ele>
        <time>2015-03-23T12:31:54.000Z</time>
      </trkpt>
      <trkpt lat="45.14636" lon="6.34904">
        <ele>2415.1999511719</ele>
        <time>2015-03-23T12:31:56.000Z</time>
      </trkpt>
      <trkpt lat="45.14636" lon="6.34903">
        <ele>2414.8000488281</ele>
        <time>2015-03-23T12:32:07.000Z</time>
      </trkpt>
      <trkpt lat="45.14636" lon="6.34903">
        <ele>2414.6000976562</ele>
        <time>2015-03-23T12:32:18.000Z</time>
      </trkpt>
      <trkpt lat="45.14633" lon="6.34904">
        <ele>2415.3999023438</ele>
        <time>2015-03-23T12:32:25.000Z</time>
      </trkpt>
      <trkpt lat="45.14628" lon="6.34907">
        <ele>2415.3999023438</ele>
        <time>2015-03-23T12:32:32.000Z</time>
      </trkpt>
      <trkpt lat="45.14621" lon="6.34907">
        <ele>2414.1999511719</ele>
        <time>2015-03-23T12:32:41.000Z</time>
      </trkpt>
      <trkpt lat="45.14619" lon="6.34906">
        <ele>2413.6000976562</ele>
        <time>2015-03-23T12:32:43.000Z</time>
      </trkpt>
      <trkpt lat="45.14618" lon="6.34906">
        <ele>2412.8000488281</ele>
        <time>2015-03-23T12:32:48.000Z</time>
      </trkpt>
      <trkpt lat="45.14617" lon="6.34905">
        <ele>2412.6000976562</ele>
        <time>2015-03-23T12:32:49.000Z</time>
      </trkpt>
      <trkpt lat="45.14612" lon="6.34904">
        <ele>2411.8000488281</ele>
        <time>2015-03-23T12:32:56.000Z</time>
      </trkpt>
      <trkpt lat="45.14611" lon="6.34904">
        <ele>2411.3999023438</ele>
        <time>2015-03-23T12:32:58.000Z</time>
      </trkpt>
      <trkpt lat="45.14608" lon="6.34905">
        <ele>2410.6000976562</ele>
        <time>2015-03-23T12:33:03.000Z</time>
      </trkpt>
      <trkpt lat="45.14606" lon="6.34906">
        <ele>2410.3999023438</ele>
        <time>2015-03-23T12:33:06.000Z</time>
      </trkpt>
      <trkpt lat="45.14605" lon="6.34907">
        <ele>2409.8000488281</ele>
        <time>2015-03-23T12:33:09.000Z</time>
      </trkpt>
      <trkpt lat="45.14605" lon="6.34907">
        <ele>2409.1999511719</ele>
        <time>2015-03-23T12:33:15.000Z</time>
      </trkpt>
      <trkpt lat="45.14605" lon="6.34907">
        <ele>2409.1999511719</ele>
        <time>2015-03-23T12:33:16.000Z</time>
      </trkpt>
      <trkpt lat="45.14605" lon="6.34907">
        <ele>2409.3999023438</ele>
        <time>2015-03-23T12:33:20.000Z</time>
      </trkpt>
      <trkpt lat="45.14605" lon="6.34907">
        <ele>2410.1999511719</ele>
        <time>2015-03-23T12:33:33.000Z</time>
      </trkpt>
      <trkpt lat="45.14605" lon="6.34907">
        <ele>2410</ele>
        <time>2015-03-23T12:33:43.000Z</time>
      </trkpt>
      <trkpt lat="45.14602" lon="6.34908">
        <ele>2409.8000488281</ele>
        <time>2015-03-23T12:33:53.000Z</time>
      </trkpt>
      <trkpt lat="45.14582" lon="6.34912">
        <ele>2408.1999511719</ele>
        <time>2015-03-23T12:34:01.000Z</time>
      </trkpt>
      <trkpt lat="45.14557" lon="6.34912">
        <ele>2407.6000976562</ele>
        <time>2015-03-23T12:34:10.000Z</time>
      </trkpt>
      <trkpt lat="45.14552" lon="6.34913">
        <ele>2407</ele>
        <time>2015-03-23T12:34:12.000Z</time>
      </trkpt>
      <trkpt lat="45.14547" lon="6.34912">
        <ele>2406.6000976562</ele>
        <time>2015-03-23T12:34:15.000Z</time>
      </trkpt>
      <trkpt lat="45.14536" lon="6.34905">
        <ele>2407</ele>
        <time>2015-03-23T12:34:24.000Z</time>
      </trkpt>
      <trkpt lat="45.14527" lon="6.349">
        <ele>2407.1999511719</ele>
        <time>2015-03-23T12:34:31.000Z</time>
      </trkpt>
      <trkpt lat="45.14519" lon="6.34896">
        <ele>2406.3999023438</ele>
        <time>2015-03-23T12:34:37.000Z</time>
      </trkpt>
      <trkpt lat="45.14518" lon="6.34895">
        <ele>2406.1999511719</ele>
        <time>2015-03-23T12:34:49.000Z</time>
      </trkpt>
      <trkpt lat="45.14518" lon="6.34895">
        <ele>2406.6000976562</ele>
        <time>2015-03-23T12:35:01.000Z</time>
      </trkpt>
      <trkpt lat="45.14518" lon="6.34895">
        <ele>2406.6000976562</ele>
        <time>2015-03-23T12:35:13.000Z</time>
      </trkpt>
      <trkpt lat="45.14518" lon="6.34895">
        <ele>2406.6000976562</ele>
        <time>2015-03-23T12:35:16.000Z</time>
      </trkpt>
      <trkpt lat="45.14518" lon="6.34895">
        <ele>2406.3999023438</ele>
        <time>2015-03-23T12:35:28.000Z</time>
      </trkpt>
      <trkpt lat="45.14518" lon="6.34895">
        <ele>2406.3999023438</ele>
        <time>2015-03-23T12:35:47.000Z</time>
      </trkpt>
      <trkpt lat="45.14518" lon="6.34896">
        <ele>2406.3999023438</ele>
        <time>2015-03-23T12:36:08.000Z</time>
      </trkpt>
      <trkpt lat="45.14518" lon="6.34896">
        <ele>2406.6000976562</ele>
        <time>2015-03-23T12:36:19.000Z</time>
      </trkpt>
      <trkpt lat="45.14518" lon="6.34896">
        <ele>2406.6000976562</ele>
        <time>2015-03-23T12:36:35.000Z</time>
      </trkpt>
      <trkpt lat="45.14518" lon="6.34896">
        <ele>2406.8000488281</ele>
        <time>2015-03-23T12:36:52.000Z</time>
      </trkpt>
      <trkpt lat="45.14518" lon="6.34896">
        <ele>2406.8000488281</ele>
        <time>2015-03-23T12:37:06.000Z</time>
      </trkpt>
      <trkpt lat="45.14517" lon="6.34896">
        <ele>2406.8000488281</ele>
        <time>2015-03-23T12:37:22.000Z</time>
      </trkpt>
      <trkpt lat="45.14517" lon="6.34896">
        <ele>2407</ele>
        <time>2015-03-23T12:37:34.000Z</time>
      </trkpt>
      <trkpt lat="45.14517" lon="6.34896">
        <ele>2407</ele>
        <time>2015-03-23T12:37:50.000Z</time>
      </trkpt>
      <trkpt lat="45.14517" lon="6.34896">
        <ele>2407.1999511719</ele>
        <time>2015-03-23T12:38:01.000Z</time>
      </trkpt>
      <trkpt lat="45.14517" lon="6.34896">
        <ele>2407</ele>
        <time>2015-03-23T12:38:14.000Z</time>
      </trkpt>
      <trkpt lat="45.14517" lon="6.34896">
        <ele>2407</ele>
        <time>2015-03-23T12:38:16.000Z</time>
      </trkpt>
      <trkpt lat="45.14517" lon="6.34896">
        <ele>2407</ele>
        <time>2015-03-23T12:38:31.000Z</time>
      </trkpt>
      <trkpt lat="45.14517" lon="6.34895">
        <ele>2407</ele>
        <time>2015-03-23T12:38:45.000Z</time>
      </trkpt>
      <trkpt lat="45.14517" lon="6.34895">
        <ele>2407.1999511719</ele>
        <time>2015-03-23T12:38:56.000Z</time>
      </trkpt>
      <trkpt lat="45.14517" lon="6.34895">
        <ele>2407.1999511719</ele>
        <time>2015-03-23T12:39:07.000Z</time>
      </trkpt>
      <trkpt lat="45.14517" lon="6.34895">
        <ele>2407.3999023438</ele>
        <time>2015-03-23T12:39:21.000Z</time>
      </trkpt>
      <trkpt lat="45.14517" lon="6.34895">
        <ele>2407.3999023438</ele>
        <time>2015-03-23T12:39:33.000Z</time>
      </trkpt>
      <trkpt lat="45.14514" lon="6.34896">
        <ele>2407.3999023438</ele>
        <time>2015-03-23T12:39:42.000Z</time>
      </trkpt>
      <trkpt lat="45.14513" lon="6.349">
        <ele>2408.1999511719</ele>
        <time>2015-03-23T12:39:47.000Z</time>
      </trkpt>
      <trkpt lat="45.14512" lon="6.34902">
        <ele>2408.6000976562</ele>
        <time>2015-03-23T12:39:49.000Z</time>
      </trkpt>
      <trkpt lat="45.14511" lon="6.34905">
        <ele>2409.1999511719</ele>
        <time>2015-03-23T12:39:53.000Z</time>
      </trkpt>
      <trkpt lat="45.1451" lon="6.34909">
        <ele>2410</ele>
        <time>2015-03-23T12:39:56.000Z</time>
      </trkpt>
      <trkpt lat="45.1451" lon="6.34909">
        <ele>2410.1999511719</ele>
        <time>2015-03-23T12:39:58.000Z</time>
      </trkpt>
      <trkpt lat="45.1451" lon="6.34909">
        <ele>2411.3999023438</ele>
        <time>2015-03-23T12:40:05.000Z</time>
      </trkpt>
      <trkpt lat="45.1451" lon="6.34909">
        <ele>2411.6000976562</ele>
        <time>2015-03-23T12:40:06.000Z</time>
      </trkpt>
      <trkpt lat="45.1451" lon="6.3491">
        <ele>2411.3999023438</ele>
        <time>2015-03-23T12:40:17.000Z</time>
      </trkpt>
      <trkpt lat="45.14505" lon="6.34915">
        <ele>2412.3999023438</ele>
        <time>2015-03-23T12:40:23.000Z</time>
      </trkpt>
      <trkpt lat="45.14501" lon="6.3492">
        <ele>2413.6000976562</ele>
        <time>2015-03-23T12:40:29.000Z</time>
      </trkpt>
      <trkpt lat="45.14499" lon="6.34921">
        <ele>2414.8000488281</ele>
        <time>2015-03-23T12:40:34.000Z</time>
      </trkpt>
      <trkpt lat="45.14499" lon="6.34921">
        <ele>2415.3999023438</ele>
        <time>2015-03-23T12:40:38.000Z</time>
      </trkpt>
      <trkpt lat="45.14499" lon="6.34921">
        <ele>2415.3999023438</ele>
        <time>2015-03-23T12:41:00.000Z</time>
      </trkpt>
      <trkpt lat="45.14499" lon="6.34922">
        <ele>2415.3999023438</ele>
        <time>2015-03-23T12:41:14.000Z</time>
      </trkpt>
      <trkpt lat="45.14499" lon="6.34923">
        <ele>2415.3999023438</ele>
        <time>2015-03-23T12:41:20.000Z</time>
      </trkpt>
      <trkpt lat="45.14499" lon="6.34923">
        <ele>2415.8000488281</ele>
        <time>2015-03-23T12:41:23.000Z</time>
      </trkpt>
      <trkpt lat="45.14499" lon="6.34923">
        <ele>2415.8000488281</ele>
        <time>2015-03-23T12:41:39.000Z</time>
      </trkpt>
      <trkpt lat="45.14499" lon="6.34923">
        <ele>2415.8000488281</ele>
        <time>2015-03-23T12:41:57.000Z</time>
      </trkpt>
      <trkpt lat="45.14499" lon="6.34926">
        <ele>2415.6000976562</ele>
        <time>2015-03-23T12:42:06.000Z</time>
      </trkpt>
      <trkpt lat="45.14497" lon="6.34931">
        <ele>2416.8000488281</ele>
        <time>2015-03-23T12:42:12.000Z</time>
      </trkpt>
      <trkpt lat="45.14497" lon="6.34931">
        <ele>2417</ele>
        <time>2015-03-23T12:42:13.000Z</time>
      </trkpt>
      <trkpt lat="45.14497" lon="6.34932">
        <ele>2417.6000976562</ele>
        <time>2015-03-23T12:42:24.000Z</time>
      </trkpt>
      <trkpt lat="45.14497" lon="6.34932">
        <ele>2417.8000488281</ele>
        <time>2015-03-23T12:42:25.000Z</time>
      </trkpt>
      <trkpt lat="45.14497" lon="6.34932">
        <ele>2419</ele>
        <time>2015-03-23T12:42:30.000Z</time>
      </trkpt>
      <trkpt lat="45.14497" lon="6.34932">
        <ele>2418.8000488281</ele>
        <time>2015-03-23T12:42:36.000Z</time>
      </trkpt>
      <trkpt lat="45.14495" lon="6.34934">
        <ele>2419.1999511719</ele>
        <time>2015-03-23T12:42:42.000Z</time>
      </trkpt>
      <trkpt lat="45.14493" lon="6.34933">
        <ele>2419.8000488281</ele>
        <time>2015-03-23T12:42:56.000Z</time>
      </trkpt>
      <trkpt lat="45.14498" lon="6.34936">
        <ele>2420.1999511719</ele>
        <time>2015-03-23T12:43:01.000Z</time>
      </trkpt>
      <trkpt lat="45.14498" lon="6.34936">
        <ele>2420.3999023438</ele>
        <time>2015-03-23T12:43:02.000Z</time>
      </trkpt>
      <trkpt lat="45.14496" lon="6.34936">
        <ele>2420.8000488281</ele>
        <time>2015-03-23T12:43:13.000Z</time>
      </trkpt>
      <trkpt lat="45.14494" lon="6.34936">
        <ele>2421.1999511719</ele>
        <time>2015-03-23T12:43:19.000Z</time>
      </trkpt>
      <trkpt lat="45.14494" lon="6.34936">
        <ele>2421.3999023438</ele>
        <time>2015-03-23T12:43:20.000Z</time>
      </trkpt>
      <trkpt lat="45.14492" lon="6.34938">
        <ele>2422.3999023438</ele>
        <time>2015-03-23T12:43:25.000Z</time>
      </trkpt>
      <trkpt lat="45.14491" lon="6.34938">
        <ele>2422.6000976562</ele>
        <time>2015-03-23T12:43:26.000Z</time>
      </trkpt>
      <trkpt lat="45.14487" lon="6.34939">
        <ele>2423.6000976562</ele>
        <time>2015-03-23T12:43:32.000Z</time>
      </trkpt>
      <trkpt lat="45.14483" lon="6.34939">
        <ele>2425</ele>
        <time>2015-03-23T12:43:36.000Z</time>
      </trkpt>
      <trkpt lat="45.14482" lon="6.34939">
        <ele>2425.3999023438</ele>
        <time>2015-03-23T12:43:38.000Z</time>
      </trkpt>
      <trkpt lat="45.14478" lon="6.34938">
        <ele>2426.1999511719</ele>
        <time>2015-03-23T12:43:42.000Z</time>
      </trkpt>
      <trkpt lat="45.14473" lon="6.34938">
        <ele>2427</ele>
        <time>2015-03-23T12:43:45.000Z</time>
      </trkpt>
      <trkpt lat="45.1447" lon="6.3494">
        <ele>2427.3999023438</ele>
        <time>2015-03-23T12:43:48.000Z</time>
      </trkpt>
      <trkpt lat="45.14471" lon="6.34943">
        <ele>2428.1999511719</ele>
        <time>2015-03-23T12:43:51.000Z</time>
      </trkpt>
      <trkpt lat="45.14471" lon="6.34944">
        <ele>2428.3999023438</ele>
        <time>2015-03-23T12:43:52.000Z</time>
      </trkpt>
      <trkpt lat="45.14466" lon="6.34944">
        <ele>2429.6000976562</ele>
        <time>2015-03-23T12:43:58.000Z</time>
      </trkpt>
      <trkpt lat="45.14458" lon="6.34942">
        <ele>2430.6000976562</ele>
        <time>2015-03-23T12:44:05.000Z</time>
      </trkpt>
      <trkpt lat="45.14456" lon="6.34942">
        <ele>2431</ele>
        <time>2015-03-23T12:44:07.000Z</time>
      </trkpt>
      <trkpt lat="45.14453" lon="6.34942">
        <ele>2431.8000488281</ele>
        <time>2015-03-23T12:44:10.000Z</time>
      </trkpt>
      <trkpt lat="45.1445" lon="6.34943">
        <ele>2432.6000976562</ele>
        <time>2015-03-23T12:44:14.000Z</time>
      </trkpt>
      <trkpt lat="45.14447" lon="6.34943">
        <ele>2433</ele>
        <time>2015-03-23T12:44:17.000Z</time>
      </trkpt>
      <trkpt lat="45.14445" lon="6.34942">
        <ele>2434</ele>
        <time>2015-03-23T12:44:21.000Z</time>
      </trkpt>
      <trkpt lat="45.14443" lon="6.34942">
        <ele>2434.1999511719</ele>
        <time>2015-03-23T12:44:22.000Z</time>
      </trkpt>
      <trkpt lat="45.14439" lon="6.34943">
        <ele>2435.3999023438</ele>
        <time>2015-03-23T12:44:28.000Z</time>
      </trkpt>
      <trkpt lat="45.14439" lon="6.34944">
        <ele>2435.8000488281</ele>
        <time>2015-03-23T12:44:30.000Z</time>
      </trkpt>
      <trkpt lat="45.14437" lon="6.34948">
        <ele>2436.3999023438</ele>
        <time>2015-03-23T12:44:35.000Z</time>
      </trkpt>
      <trkpt lat="45.14433" lon="6.34949">
        <ele>2437.1999511719</ele>
        <time>2015-03-23T12:44:39.000Z</time>
      </trkpt>
      <trkpt lat="45.14431" lon="6.34948">
        <ele>2437.6000976562</ele>
        <time>2015-03-23T12:44:41.000Z</time>
      </trkpt>
      <trkpt lat="45.14425" lon="6.34949">
        <ele>2438.8000488281</ele>
        <time>2015-03-23T12:44:46.000Z</time>
      </trkpt>
      <trkpt lat="45.14424" lon="6.34949">
        <ele>2439</ele>
        <time>2015-03-23T12:44:47.000Z</time>
      </trkpt>
      <trkpt lat="45.14419" lon="6.34948">
        <ele>2439.8000488281</ele>
        <time>2015-03-23T12:44:53.000Z</time>
      </trkpt>
      <trkpt lat="45.14417" lon="6.34948">
        <ele>2440.3999023438</ele>
        <time>2015-03-23T12:44:56.000Z</time>
      </trkpt>
      <trkpt lat="45.14415" lon="6.3495">
        <ele>2441</ele>
        <time>2015-03-23T12:45:01.000Z</time>
      </trkpt>
      <trkpt lat="45.14413" lon="6.34952">
        <ele>2441.8000488281</ele>
        <time>2015-03-23T12:45:04.000Z</time>
      </trkpt>
      <trkpt lat="45.14412" lon="6.34952">
        <ele>2442</ele>
        <time>2015-03-23T12:45:06.000Z</time>
      </trkpt>
      <trkpt lat="45.14407" lon="6.34952">
        <ele>2443.3999023438</ele>
        <time>2015-03-23T12:45:12.000Z</time>
      </trkpt>
      <trkpt lat="45.14401" lon="6.34953">
        <ele>2444.6000976562</ele>
        <time>2015-03-23T12:45:19.000Z</time>
      </trkpt>
      <trkpt lat="45.144" lon="6.34953">
        <ele>2444.8000488281</ele>
        <time>2015-03-23T12:45:20.000Z</time>
      </trkpt>
      <trkpt lat="45.14399" lon="6.34953">
        <ele>2445.6000976562</ele>
        <time>2015-03-23T12:45:23.000Z</time>
      </trkpt>
      <trkpt lat="45.14397" lon="6.34955">
        <ele>2446.3999023438</ele>
        <time>2015-03-23T12:45:27.000Z</time>
      </trkpt>
      <trkpt lat="45.14397" lon="6.34955">
        <ele>2446.8000488281</ele>
        <time>2015-03-23T12:45:28.000Z</time>
      </trkpt>
      <trkpt lat="45.14394" lon="6.34958">
        <ele>2447.6000976562</ele>
        <time>2015-03-23T12:45:34.000Z</time>
      </trkpt>
      <trkpt lat="45.14394" lon="6.34958">
        <ele>2447.8000488281</ele>
        <time>2015-03-23T12:45:35.000Z</time>
      </trkpt>
      <trkpt lat="45.1439" lon="6.34959">
        <ele>2449</ele>
        <time>2015-03-23T12:45:39.000Z</time>
      </trkpt>
      <trkpt lat="45.14386" lon="6.34959">
        <ele>2449.3999023438</ele>
        <time>2015-03-23T12:45:43.000Z</time>
      </trkpt>
      <trkpt lat="45.14383" lon="6.3496">
        <ele>2450</ele>
        <time>2015-03-23T12:45:46.000Z</time>
      </trkpt>
      <trkpt lat="45.14383" lon="6.34963">
        <ele>2450.8000488281</ele>
        <time>2015-03-23T12:45:51.000Z</time>
      </trkpt>
      <trkpt lat="45.14383" lon="6.34964">
        <ele>2451.1999511719</ele>
        <time>2015-03-23T12:45:52.000Z</time>
      </trkpt>
      <trkpt lat="45.14379" lon="6.34967">
        <ele>2452.1999511719</ele>
        <time>2015-03-23T12:45:58.000Z</time>
      </trkpt>
      <trkpt lat="45.14379" lon="6.34967">
        <ele>2452.3999023438</ele>
        <time>2015-03-23T12:45:59.000Z</time>
      </trkpt>
      <trkpt lat="45.14377" lon="6.34969">
        <ele>2453.1999511719</ele>
        <time>2015-03-23T12:46:04.000Z</time>
      </trkpt>
      <trkpt lat="45.14375" lon="6.3497">
        <ele>2453.6000976562</ele>
        <time>2015-03-23T12:46:06.000Z</time>
      </trkpt>
      <trkpt lat="45.14369" lon="6.34972">
        <ele>2454.8000488281</ele>
        <time>2015-03-23T12:46:12.000Z</time>
      </trkpt>
      <trkpt lat="45.14367" lon="6.34975">
        <ele>2455.8000488281</ele>
        <time>2015-03-23T12:46:18.000Z</time>
      </trkpt>
      <trkpt lat="45.14367" lon="6.34975">
        <ele>2456</ele>
        <time>2015-03-23T12:46:20.000Z</time>
      </trkpt>
      <trkpt lat="45.14363" lon="6.34977">
        <ele>2457.1999511719</ele>
        <time>2015-03-23T12:46:25.000Z</time>
      </trkpt>
      <trkpt lat="45.14363" lon="6.34977">
        <ele>2457.3999023438</ele>
        <time>2015-03-23T12:46:26.000Z</time>
      </trkpt>
      <trkpt lat="45.14358" lon="6.34979">
        <ele>2458.3999023438</ele>
        <time>2015-03-23T12:46:33.000Z</time>
      </trkpt>
      <trkpt lat="45.14357" lon="6.34984">
        <ele>2459.6000976562</ele>
        <time>2015-03-23T12:46:38.000Z</time>
      </trkpt>
      <trkpt lat="45.14356" lon="6.34986">
        <ele>2460.6000976562</ele>
        <time>2015-03-23T12:46:41.000Z</time>
      </trkpt>
      <trkpt lat="45.14355" lon="6.34986">
        <ele>2460.8000488281</ele>
        <time>2015-03-23T12:46:42.000Z</time>
      </trkpt>
      <trkpt lat="45.14352" lon="6.34989">
        <ele>2461.6000976562</ele>
        <time>2015-03-23T12:46:47.000Z</time>
      </trkpt>
      <trkpt lat="45.14351" lon="6.3499">
        <ele>2461.8000488281</ele>
        <time>2015-03-23T12:46:48.000Z</time>
      </trkpt>
      <trkpt lat="45.14349" lon="6.34993">
        <ele>2463</ele>
        <time>2015-03-23T12:46:54.000Z</time>
      </trkpt>
      <trkpt lat="45.14343" lon="6.34993">
        <ele>2464.1999511719</ele>
        <time>2015-03-23T12:46:59.000Z</time>
      </trkpt>
      <trkpt lat="45.14341" lon="6.34992">
        <ele>2464.8000488281</ele>
        <time>2015-03-23T12:47:01.000Z</time>
      </trkpt>
      <trkpt lat="45.14338" lon="6.34991">
        <ele>2465.6000976562</ele>
        <time>2015-03-23T12:47:05.000Z</time>
      </trkpt>
      <trkpt lat="45.14332" lon="6.34992">
        <ele>2466.6000976562</ele>
        <time>2015-03-23T12:47:09.000Z</time>
      </trkpt>
      <trkpt lat="45.14326" lon="6.34992">
        <ele>2467.6000976562</ele>
        <time>2015-03-23T12:47:16.000Z</time>
      </trkpt>
      <trkpt lat="45.14324" lon="6.3499">
        <ele>2468.6000976562</ele>
        <time>2015-03-23T12:47:21.000Z</time>
      </trkpt>
      <trkpt lat="45.14323" lon="6.3499">
        <ele>2468.8000488281</ele>
        <time>2015-03-23T12:47:22.000Z</time>
      </trkpt>
      <trkpt lat="45.1432" lon="6.34988">
        <ele>2469.8000488281</ele>
        <time>2015-03-23T12:47:27.000Z</time>
      </trkpt>
      <trkpt lat="45.1432" lon="6.34986">
        <ele>2470.6000976562</ele>
        <time>2015-03-23T12:47:30.000Z</time>
      </trkpt>
      <trkpt lat="45.14318" lon="6.34982">
        <ele>2471</ele>
        <time>2015-03-23T12:47:34.000Z</time>
      </trkpt>
      <trkpt lat="45.14316" lon="6.34981">
        <ele>2471.6000976562</ele>
        <time>2015-03-23T12:47:37.000Z</time>
      </trkpt>
      <trkpt lat="45.14315" lon="6.3498">
        <ele>2472</ele>
        <time>2015-03-23T12:47:39.000Z</time>
      </trkpt>
      <trkpt lat="45.14312" lon="6.34979">
        <ele>2472.6000976562</ele>
        <time>2015-03-23T12:47:44.000Z</time>
      </trkpt>
      <trkpt lat="45.1431" lon="6.34981">
        <ele>2473.1999511719</ele>
        <time>2015-03-23T12:47:46.000Z</time>
      </trkpt>
      <trkpt lat="45.14306" lon="6.34986">
        <ele>2474.1999511719</ele>
        <time>2015-03-23T12:47:52.000Z</time>
      </trkpt>
      <trkpt lat="45.14303" lon="6.34986">
        <ele>2475.1999511719</ele>
        <time>2015-03-23T12:47:56.000Z</time>
      </trkpt>
      <trkpt lat="45.143" lon="6.34985">
        <ele>2475.8000488281</ele>
        <time>2015-03-23T12:48:00.000Z</time>
      </trkpt>
      <trkpt lat="45.14298" lon="6.34985">
        <ele>2476.1999511719</ele>
        <time>2015-03-23T12:48:02.000Z</time>
      </trkpt>
      <trkpt lat="45.14295" lon="6.34985">
        <ele>2477.1999511719</ele>
        <time>2015-03-23T12:48:07.000Z</time>
      </trkpt>
      <trkpt lat="45.14294" lon="6.34984">
        <ele>2477.3999023438</ele>
        <time>2015-03-23T12:48:08.000Z</time>
      </trkpt>
      <trkpt lat="45.14292" lon="6.34983">
        <ele>2478.6000976562</ele>
        <time>2015-03-23T12:48:11.000Z</time>
      </trkpt>
      <trkpt lat="45.1429" lon="6.34983">
        <ele>2479.1999511719</ele>
        <time>2015-03-23T12:48:14.000Z</time>
      </trkpt>
      <trkpt lat="45.14288" lon="6.34983">
        <ele>2479.6000976562</ele>
        <time>2015-03-23T12:48:17.000Z</time>
      </trkpt>
      <trkpt lat="45.14285" lon="6.34981">
        <ele>2480.1999511719</ele>
        <time>2015-03-23T12:48:21.000Z</time>
      </trkpt>
      <trkpt lat="45.14282" lon="6.34981">
        <ele>2480.6000976562</ele>
        <time>2015-03-23T12:48:23.000Z</time>
      </trkpt>
      <trkpt lat="45.1428" lon="6.34981">
        <ele>2481.3999023438</ele>
        <time>2015-03-23T12:48:26.000Z</time>
      </trkpt>
      <trkpt lat="45.14279" lon="6.3498">
        <ele>2481.6000976562</ele>
        <time>2015-03-23T12:48:27.000Z</time>
      </trkpt>
      <trkpt lat="45.14278" lon="6.3498">
        <ele>2481.8000488281</ele>
        <time>2015-03-23T12:48:28.000Z</time>
      </trkpt>
      <trkpt lat="45.14275" lon="6.34977">
        <ele>2482.8000488281</ele>
        <time>2015-03-23T12:48:33.000Z</time>
      </trkpt>
      <trkpt lat="45.14272" lon="6.34975">
        <ele>2483.1999511719</ele>
        <time>2015-03-23T12:48:36.000Z</time>
      </trkpt>
      <trkpt lat="45.14272" lon="6.34974">
        <ele>2484</ele>
        <time>2015-03-23T12:48:39.000Z</time>
      </trkpt>
      <trkpt lat="45.14271" lon="6.34974">
        <ele>2484.6000976562</ele>
        <time>2015-03-23T12:48:44.000Z</time>
      </trkpt>
      <trkpt lat="45.14269" lon="6.34975">
        <ele>2485</ele>
        <time>2015-03-23T12:48:47.000Z</time>
      </trkpt>
      <trkpt lat="45.14267" lon="6.34974">
        <ele>2485.6000976562</ele>
        <time>2015-03-23T12:48:49.000Z</time>
      </trkpt>
      <trkpt lat="45.14265" lon="6.34973">
        <ele>2486.1999511719</ele>
        <time>2015-03-23T12:48:52.000Z</time>
      </trkpt>
      <trkpt lat="45.14264" lon="6.34972">
        <ele>2486.3999023438</ele>
        <time>2015-03-23T12:48:54.000Z</time>
      </trkpt>
      <trkpt lat="45.1426" lon="6.34971">
        <ele>2487.6000976562</ele>
        <time>2015-03-23T12:48:59.000Z</time>
      </trkpt>
      <trkpt lat="45.14259" lon="6.34971">
        <ele>2487.8000488281</ele>
        <time>2015-03-23T12:49:00.000Z</time>
      </trkpt>
      <trkpt lat="45.14257" lon="6.34969">
        <ele>2488.6000976562</ele>
        <time>2015-03-23T12:49:05.000Z</time>
      </trkpt>
      <trkpt lat="45.14256" lon="6.34969">
        <ele>2488.6000976562</ele>
        <time>2015-03-23T12:49:06.000Z</time>
      </trkpt>
      <trkpt lat="45.14253" lon="6.34967">
        <ele>2489.8000488281</ele>
        <time>2015-03-23T12:49:11.000Z</time>
      </trkpt>
      <trkpt lat="45.14252" lon="6.34966">
        <ele>2490</ele>
        <time>2015-03-23T12:49:12.000Z</time>
      </trkpt>
      <trkpt lat="45.1425" lon="6.34965">
        <ele>2490.8000488281</ele>
        <time>2015-03-23T12:49:16.000Z</time>
      </trkpt>
      <trkpt lat="45.14248" lon="6.34964">
        <ele>2491.1999511719</ele>
        <time>2015-03-23T12:49:18.000Z</time>
      </trkpt>
      <trkpt lat="45.14246" lon="6.34963">
        <ele>2492.1999511719</ele>
        <time>2015-03-23T12:49:23.000Z</time>
      </trkpt>
      <trkpt lat="45.14244" lon="6.34963">
        <ele>2493</ele>
        <time>2015-03-23T12:49:26.000Z</time>
      </trkpt>
      <trkpt lat="45.14243" lon="6.34963">
        <ele>2493.1999511719</ele>
        <time>2015-03-23T12:49:28.000Z</time>
      </trkpt>
      <trkpt lat="45.1424" lon="6.34963">
        <ele>2493.8000488281</ele>
        <time>2015-03-23T12:49:33.000Z</time>
      </trkpt>
      <trkpt lat="45.14237" lon="6.34962">
        <ele>2494.3999023438</ele>
        <time>2015-03-23T12:49:36.000Z</time>
      </trkpt>
      <trkpt lat="45.14235" lon="6.3496">
        <ele>2495.1999511719</ele>
        <time>2015-03-23T12:49:40.000Z</time>
      </trkpt>
      <trkpt lat="45.14234" lon="6.34959">
        <ele>2495.3999023438</ele>
        <time>2015-03-23T12:49:41.000Z</time>
      </trkpt>
      <trkpt lat="45.14232" lon="6.34958">
        <ele>2496.3999023438</ele>
        <time>2015-03-23T12:49:46.000Z</time>
      </trkpt>
      <trkpt lat="45.14232" lon="6.34958">
        <ele>2497</ele>
        <time>2015-03-23T12:49:47.000Z</time>
      </trkpt>
      <trkpt lat="45.14229" lon="6.34957">
        <ele>2498.1999511719</ele>
        <time>2015-03-23T12:49:52.000Z</time>
      </trkpt>
      <trkpt lat="45.14227" lon="6.34957">
        <ele>2498.3999023438</ele>
        <time>2015-03-23T12:49:54.000Z</time>
      </trkpt>
      <trkpt lat="45.14224" lon="6.34955">
        <ele>2499.1999511719</ele>
        <time>2015-03-23T12:49:58.000Z</time>
      </trkpt>
      <trkpt lat="45.14221" lon="6.34954">
        <ele>2500</ele>
        <time>2015-03-23T12:50:01.000Z</time>
      </trkpt>
      <trkpt lat="45.14221" lon="6.34954">
        <ele>2500.1999511719</ele>
        <time>2015-03-23T12:50:03.000Z</time>
      </trkpt>
      <trkpt lat="45.14218" lon="6.34956">
        <ele>2501.1999511719</ele>
        <time>2015-03-23T12:50:08.000Z</time>
      </trkpt>
      <trkpt lat="45.14216" lon="6.34955">
        <ele>2501.6000976562</ele>
        <time>2015-03-23T12:50:10.000Z</time>
      </trkpt>
      <trkpt lat="45.14214" lon="6.34953">
        <ele>2502.8000488281</ele>
        <time>2015-03-23T12:50:15.000Z</time>
      </trkpt>
      <trkpt lat="45.14214" lon="6.34953">
        <ele>2503.1999511719</ele>
        <time>2015-03-23T12:50:16.000Z</time>
      </trkpt>
      <trkpt lat="45.14213" lon="6.34956">
        <ele>2503.8000488281</ele>
        <time>2015-03-23T12:50:22.000Z</time>
      </trkpt>
      <trkpt lat="45.14213" lon="6.34958">
        <ele>2504.1999511719</ele>
        <time>2015-03-23T12:50:24.000Z</time>
      </trkpt>
      <trkpt lat="45.14212" lon="6.34961">
        <ele>2505.1999511719</ele>
        <time>2015-03-23T12:50:27.000Z</time>
      </trkpt>
      <trkpt lat="45.14211" lon="6.34964">
        <ele>2506</ele>
        <time>2015-03-23T12:50:30.000Z</time>
      </trkpt>
      <trkpt lat="45.14211" lon="6.34965">
        <ele>2506.1999511719</ele>
        <time>2015-03-23T12:50:31.000Z</time>
      </trkpt>
      <trkpt lat="45.14211" lon="6.34967">
        <ele>2507</ele>
        <time>2015-03-23T12:50:36.000Z</time>
      </trkpt>
      <trkpt lat="45.1421" lon="6.34969">
        <ele>2507.6000976562</ele>
        <time>2015-03-23T12:50:38.000Z</time>
      </trkpt>
      <trkpt lat="45.14209" lon="6.34971">
        <ele>2508.3999023438</ele>
        <time>2015-03-23T12:50:42.000Z</time>
      </trkpt>
      <trkpt lat="45.14209" lon="6.34973">
        <ele>2508.8000488281</ele>
        <time>2015-03-23T12:50:44.000Z</time>
      </trkpt>
      <trkpt lat="45.14208" lon="6.34976">
        <ele>2509.1999511719</ele>
        <time>2015-03-23T12:50:47.000Z</time>
      </trkpt>
      <trkpt lat="45.14206" lon="6.34982">
        <ele>2510</ele>
        <time>2015-03-23T12:50:53.000Z</time>
      </trkpt>
      <trkpt lat="45.14205" lon="6.34986">
        <ele>2511</ele>
        <time>2015-03-23T12:50:59.000Z</time>
      </trkpt>
      <trkpt lat="45.14205" lon="6.34986">
        <ele>2512</ele>
        <time>2015-03-23T12:51:03.000Z</time>
      </trkpt>
      <trkpt lat="45.14204" lon="6.34989">
        <ele>2512.6000976562</ele>
        <time>2015-03-23T12:51:06.000Z</time>
      </trkpt>
      <trkpt lat="45.14204" lon="6.34992">
        <ele>2513.1999511719</ele>
        <time>2015-03-23T12:51:10.000Z</time>
      </trkpt>
      <trkpt lat="45.14203" lon="6.34996">
        <ele>2513.6000976562</ele>
        <time>2015-03-23T12:51:13.000Z</time>
      </trkpt>
      <trkpt lat="45.14202" lon="6.34999">
        <ele>2514.1999511719</ele>
        <time>2015-03-23T12:51:16.000Z</time>
      </trkpt>
      <trkpt lat="45.14202" lon="6.34999">
        <ele>2514.6000976562</ele>
        <time>2015-03-23T12:51:18.000Z</time>
      </trkpt>
      <trkpt lat="45.142" lon="6.35006">
        <ele>2515</ele>
        <time>2015-03-23T12:51:23.000Z</time>
      </trkpt>
      <trkpt lat="45.14199" lon="6.35007">
        <ele>2515.6000976562</ele>
        <time>2015-03-23T12:51:24.000Z</time>
      </trkpt>
      <trkpt lat="45.14199" lon="6.35011">
        <ele>2516.8000488281</ele>
        <time>2015-03-23T12:51:29.000Z</time>
      </trkpt>
      <trkpt lat="45.14199" lon="6.35013">
        <ele>2517.1999511719</ele>
        <time>2015-03-23T12:51:30.000Z</time>
      </trkpt>
      <trkpt lat="45.14197" lon="6.35017">
        <ele>2517.8000488281</ele>
        <time>2015-03-23T12:51:34.000Z</time>
      </trkpt>
      <trkpt lat="45.14196" lon="6.35017">
        <ele>2518</ele>
        <time>2015-03-23T12:51:35.000Z</time>
      </trkpt>
      <trkpt lat="45.14196" lon="6.35017">
        <ele>2519</ele>
        <time>2015-03-23T12:51:39.000Z</time>
      </trkpt>
      <trkpt lat="45.14196" lon="6.35014">
        <ele>2519.3999023438</ele>
        <time>2015-03-23T12:51:42.000Z</time>
      </trkpt>
      <trkpt lat="45.14193" lon="6.35008">
        <ele>2520</ele>
        <time>2015-03-23T12:51:46.000Z</time>
      </trkpt>
      <trkpt lat="45.14192" lon="6.35006">
        <ele>2520.3999023438</ele>
        <time>2015-03-23T12:51:48.000Z</time>
      </trkpt>
      <trkpt lat="45.1419" lon="6.35004">
        <ele>2521</ele>
        <time>2015-03-23T12:51:52.000Z</time>
      </trkpt>
      <trkpt lat="45.1419" lon="6.35003">
        <ele>2521.3999023438</ele>
        <time>2015-03-23T12:51:54.000Z</time>
      </trkpt>
      <trkpt lat="45.14188" lon="6.34999">
        <ele>2522.1999511719</ele>
        <time>2015-03-23T12:51:58.000Z</time>
      </trkpt>
      <trkpt lat="45.14187" lon="6.34996">
        <ele>2522.3999023438</ele>
        <time>2015-03-23T12:52:01.000Z</time>
      </trkpt>
      <trkpt lat="45.14184" lon="6.34991">
        <ele>2523.3999023438</ele>
        <time>2015-03-23T12:52:08.000Z</time>
      </trkpt>
      <trkpt lat="45.14182" lon="6.34988">
        <ele>2524.3999023438</ele>
        <time>2015-03-23T12:52:13.000Z</time>
      </trkpt>
      <trkpt lat="45.14182" lon="6.34991">
        <ele>2524.6000976562</ele>
        <time>2015-03-23T12:52:15.000Z</time>
      </trkpt>
      <trkpt lat="45.14183" lon="6.34998">
        <ele>2524.6000976562</ele>
        <time>2015-03-23T12:52:21.000Z</time>
      </trkpt>
      <trkpt lat="45.14181" lon="6.35005">
        <ele>2525</ele>
        <time>2015-03-23T12:52:27.000Z</time>
      </trkpt>
      <trkpt lat="45.14182" lon="6.35007">
        <ele>2525.6000976562</ele>
        <time>2015-03-23T12:52:29.000Z</time>
      </trkpt>
      <trkpt lat="45.14182" lon="6.35012">
        <ele>2526.1999511719</ele>
        <time>2015-03-23T12:52:33.000Z</time>
      </trkpt>
      <trkpt lat="45.14182" lon="6.35016">
        <ele>2526.6000976562</ele>
        <time>2015-03-23T12:52:36.000Z</time>
      </trkpt>
      <trkpt lat="45.14182" lon="6.35019">
        <ele>2527</ele>
        <time>2015-03-23T12:52:40.000Z</time>
      </trkpt>
      <trkpt lat="45.14181" lon="6.35022">
        <ele>2527.8000488281</ele>
        <time>2015-03-23T12:52:44.000Z</time>
      </trkpt>
      <trkpt lat="45.14181" lon="6.35024">
        <ele>2528.1999511719</ele>
        <time>2015-03-23T12:52:46.000Z</time>
      </trkpt>
      <trkpt lat="45.14182" lon="6.35028">
        <ele>2528.6000976562</ele>
        <time>2015-03-23T12:52:53.000Z</time>
      </trkpt>
      <trkpt lat="45.14182" lon="6.35029">
        <ele>2529</ele>
        <time>2015-03-23T12:52:54.000Z</time>
      </trkpt>
      <trkpt lat="45.14181" lon="6.35035">
        <ele>2529.8000488281</ele>
        <time>2015-03-23T12:52:59.000Z</time>
      </trkpt>
      <trkpt lat="45.14181" lon="6.35036">
        <ele>2530.1999511719</ele>
        <time>2015-03-23T12:53:00.000Z</time>
      </trkpt>
      <trkpt lat="45.14179" lon="6.35041">
        <ele>2530.6000976562</ele>
        <time>2015-03-23T12:53:05.000Z</time>
      </trkpt>
      <trkpt lat="45.14178" lon="6.35046">
        <ele>2531.1999511719</ele>
        <time>2015-03-23T12:53:08.000Z</time>
      </trkpt>
      <trkpt lat="45.14178" lon="6.35049">
        <ele>2532</ele>
        <time>2015-03-23T12:53:11.000Z</time>
      </trkpt>
      <trkpt lat="45.14177" lon="6.35053">
        <ele>2532.3999023438</ele>
        <time>2015-03-23T12:53:16.000Z</time>
      </trkpt>
      <trkpt lat="45.14176" lon="6.35055">
        <ele>2533</ele>
        <time>2015-03-23T12:53:18.000Z</time>
      </trkpt>
      <trkpt lat="45.14176" lon="6.35057">
        <ele>2533.3999023438</ele>
        <time>2015-03-23T12:53:20.000Z</time>
      </trkpt>
      <trkpt lat="45.14176" lon="6.3506">
        <ele>2534</ele>
        <time>2015-03-23T12:53:24.000Z</time>
      </trkpt>
      <trkpt lat="45.14176" lon="6.35061">
        <ele>2534.8000488281</ele>
        <time>2015-03-23T12:53:27.000Z</time>
      </trkpt>
      <trkpt lat="45.14176" lon="6.35061">
        <ele>2535</ele>
        <time>2015-03-23T12:53:30.000Z</time>
      </trkpt>
      <trkpt lat="45.14176" lon="6.3506">
        <ele>2535.8000488281</ele>
        <time>2015-03-23T12:53:33.000Z</time>
      </trkpt>
      <trkpt lat="45.14175" lon="6.3506">
        <ele>2536</ele>
        <time>2015-03-23T12:53:34.000Z</time>
      </trkpt>
      <trkpt lat="45.14172" lon="6.35055">
        <ele>2536.8000488281</ele>
        <time>2015-03-23T12:53:40.000Z</time>
      </trkpt>
      <trkpt lat="45.14172" lon="6.35054">
        <ele>2537</ele>
        <time>2015-03-23T12:53:41.000Z</time>
      </trkpt>
      <trkpt lat="45.14169" lon="6.35048">
        <ele>2537.8000488281</ele>
        <time>2015-03-23T12:53:47.000Z</time>
      </trkpt>
      <trkpt lat="45.14168" lon="6.35046">
        <ele>2538</ele>
        <time>2015-03-23T12:53:48.000Z</time>
      </trkpt>
      <trkpt lat="45.14165" lon="6.35042">
        <ele>2539</ele>
        <time>2015-03-23T12:53:53.000Z</time>
      </trkpt>
      <trkpt lat="45.14163" lon="6.35037">
        <ele>2539.8000488281</ele>
        <time>2015-03-23T12:53:59.000Z</time>
      </trkpt>
      <trkpt lat="45.14162" lon="6.35036">
        <ele>2540</ele>
        <time>2015-03-23T12:54:00.000Z</time>
      </trkpt>
      <trkpt lat="45.14161" lon="6.35034">
        <ele>2540.8000488281</ele>
        <time>2015-03-23T12:54:05.000Z</time>
      </trkpt>
      <trkpt lat="45.14161" lon="6.35033">
        <ele>2541.1999511719</ele>
        <time>2015-03-23T12:54:07.000Z</time>
      </trkpt>
      <trkpt lat="45.14159" lon="6.35029">
        <ele>2541.6000976562</ele>
        <time>2015-03-23T12:54:11.000Z</time>
      </trkpt>
      <trkpt lat="45.14158" lon="6.35026">
        <ele>2542.1999511719</ele>
        <time>2015-03-23T12:54:15.000Z</time>
      </trkpt>
      <trkpt lat="45.14156" lon="6.35023">
        <ele>2542.3999023438</ele>
        <time>2015-03-23T12:54:18.000Z</time>
      </trkpt>
      <trkpt lat="45.14154" lon="6.35017">
        <ele>2542.8000488281</ele>
        <time>2015-03-23T12:54:24.000Z</time>
      </trkpt>
      <trkpt lat="45.14154" lon="6.35013">
        <ele>2543.1999511719</ele>
        <time>2015-03-23T12:54:28.000Z</time>
      </trkpt>
      <trkpt lat="45.14154" lon="6.35012">
        <ele>2543.3999023438</ele>
        <time>2015-03-23T12:54:30.000Z</time>
      </trkpt>
      <trkpt lat="45.14152" lon="6.35008">
        <ele>2544.1999511719</ele>
        <time>2015-03-23T12:54:37.000Z</time>
      </trkpt>
      <trkpt lat="45.14152" lon="6.35008">
        <ele>2544.1999511719</ele>
        <time>2015-03-23T12:54:38.000Z</time>
      </trkpt>
      <trkpt lat="45.14153" lon="6.35011">
        <ele>2544.3999023438</ele>
        <time>2015-03-23T12:54:46.000Z</time>
      </trkpt>
      <trkpt lat="45.14151" lon="6.35017">
        <ele>2544.8000488281</ele>
        <time>2015-03-23T12:54:52.000Z</time>
      </trkpt>
      <trkpt lat="45.14151" lon="6.35019">
        <ele>2545.1999511719</ele>
        <time>2015-03-23T12:54:53.000Z</time>
      </trkpt>
      <trkpt lat="45.14149" lon="6.35022">
        <ele>2546</ele>
        <time>2015-03-23T12:54:57.000Z</time>
      </trkpt>
      <trkpt lat="45.14149" lon="6.35027">
        <ele>2546.3999023438</ele>
        <time>2015-03-23T12:55:00.000Z</time>
      </trkpt>
      <trkpt lat="45.14149" lon="6.35029">
        <ele>2547</ele>
        <time>2015-03-23T12:55:03.000Z</time>
      </trkpt>
      <trkpt lat="45.14149" lon="6.35031">
        <ele>2547.3999023438</ele>
        <time>2015-03-23T12:55:07.000Z</time>
      </trkpt>
      <trkpt lat="45.14149" lon="6.35032">
        <ele>2547.8000488281</ele>
        <time>2015-03-23T12:55:10.000Z</time>
      </trkpt>
      <trkpt lat="45.14149" lon="6.35034">
        <ele>2548.6000976562</ele>
        <time>2015-03-23T12:55:13.000Z</time>
      </trkpt>
      <trkpt lat="45.14148" lon="6.35037">
        <ele>2548.8000488281</ele>
        <time>2015-03-23T12:55:15.000Z</time>
      </trkpt>
      <trkpt lat="45.14146" lon="6.35042">
        <ele>2549.8000488281</ele>
        <time>2015-03-23T12:55:21.000Z</time>
      </trkpt>
      <trkpt lat="45.14146" lon="6.35042">
        <ele>2550.1999511719</ele>
        <time>2015-03-23T12:55:23.000Z</time>
      </trkpt>
      <trkpt lat="45.14146" lon="6.35041">
        <ele>2551.1999511719</ele>
        <time>2015-03-23T12:55:25.000Z</time>
      </trkpt>
      <trkpt lat="45.14144" lon="6.35039">
        <ele>2551.8000488281</ele>
        <time>2015-03-23T12:55:28.000Z</time>
      </trkpt>
      <trkpt lat="45.14142" lon="6.35034">
        <ele>2551.6000976562</ele>
        <time>2015-03-23T12:55:33.000Z</time>
      </trkpt>
      <trkpt lat="45.14141" lon="6.3503">
        <ele>2552.1999511719</ele>
        <time>2015-03-23T12:55:37.000Z</time>
      </trkpt>
      <trkpt lat="45.14141" lon="6.3503">
        <ele>2552.3999023438</ele>
        <time>2015-03-23T12:55:38.000Z</time>
      </trkpt>
      <trkpt lat="45.14142" lon="6.35034">
        <ele>2552.8000488281</ele>
        <time>2015-03-23T12:55:45.000Z</time>
      </trkpt>
      <trkpt lat="45.14142" lon="6.35039">
        <ele>2553.3999023438</ele>
        <time>2015-03-23T12:55:50.000Z</time>
      </trkpt>
      <trkpt lat="45.14142" lon="6.3504">
        <ele>2553.3999023438</ele>
        <time>2015-03-23T12:55:51.000Z</time>
      </trkpt>
      <trkpt lat="45.14143" lon="6.35048">
        <ele>2554.3999023438</ele>
        <time>2015-03-23T12:55:56.000Z</time>
      </trkpt>
      <trkpt lat="45.14143" lon="6.35051">
        <ele>2554.8000488281</ele>
        <time>2015-03-23T12:55:58.000Z</time>
      </trkpt>
      <trkpt lat="45.14142" lon="6.35053">
        <ele>2555.3999023438</ele>
        <time>2015-03-23T12:56:01.000Z</time>
      </trkpt>
      <trkpt lat="45.14143" lon="6.35057">
        <ele>2555.6000976562</ele>
        <time>2015-03-23T12:56:04.000Z</time>
      </trkpt>
      <trkpt lat="45.14142" lon="6.35062">
        <ele>2556.6000976562</ele>
        <time>2015-03-23T12:56:09.000Z</time>
      </trkpt>
      <trkpt lat="45.14142" lon="6.35063">
        <ele>2556.6000976562</ele>
        <time>2015-03-23T12:56:10.000Z</time>
      </trkpt>
      <trkpt lat="45.1414" lon="6.35069">
        <ele>2557.6000976562</ele>
        <time>2015-03-23T12:56:17.000Z</time>
      </trkpt>
      <trkpt lat="45.1414" lon="6.35069">
        <ele>2557.8000488281</ele>
        <time>2015-03-23T12:56:18.000Z</time>
      </trkpt>
      <trkpt lat="45.1414" lon="6.35074">
        <ele>2558.6000976562</ele>
        <time>2015-03-23T12:56:24.000Z</time>
      </trkpt>
      <trkpt lat="45.1414" lon="6.35077">
        <ele>2559</ele>
        <time>2015-03-23T12:56:27.000Z</time>
      </trkpt>
      <trkpt lat="45.14138" lon="6.35078">
        <ele>2559.8000488281</ele>
        <time>2015-03-23T12:56:32.000Z</time>
      </trkpt>
      <trkpt lat="45.14138" lon="6.35079">
        <ele>2560.1999511719</ele>
        <time>2015-03-23T12:56:33.000Z</time>
      </trkpt>
      <trkpt lat="45.14139" lon="6.35085">
        <ele>2561</ele>
        <time>2015-03-23T12:56:38.000Z</time>
      </trkpt>
      <trkpt lat="45.14139" lon="6.35087">
        <ele>2561.1999511719</ele>
        <time>2015-03-23T12:56:40.000Z</time>
      </trkpt>
      <trkpt lat="45.14138" lon="6.3509">
        <ele>2561.3999023438</ele>
        <time>2015-03-23T12:56:42.000Z</time>
      </trkpt>
      <trkpt lat="45.14138" lon="6.35092">
        <ele>2561.6000976562</ele>
        <time>2015-03-23T12:56:44.000Z</time>
      </trkpt>
      <trkpt lat="45.14138" lon="6.35096">
        <ele>2562.1999511719</ele>
        <time>2015-03-23T12:56:49.000Z</time>
      </trkpt>
      <trkpt lat="45.14138" lon="6.35097">
        <ele>2562.3999023438</ele>
        <time>2015-03-23T12:56:50.000Z</time>
      </trkpt>
      <trkpt lat="45.14138" lon="6.35101">
        <ele>2563.1999511719</ele>
        <time>2015-03-23T12:56:54.000Z</time>
      </trkpt>
      <trkpt lat="45.14139" lon="6.35101">
        <ele>2563.3999023438</ele>
        <time>2015-03-23T12:56:55.000Z</time>
      </trkpt>
      <trkpt lat="45.14142" lon="6.35106">
        <ele>2564.3999023438</ele>
        <time>2015-03-23T12:57:01.000Z</time>
      </trkpt>
      <trkpt lat="45.14143" lon="6.3511">
        <ele>2565.3999023438</ele>
        <time>2015-03-23T12:57:08.000Z</time>
      </trkpt>
      <trkpt lat="45.14143" lon="6.3511">
        <ele>2565.6000976562</ele>
        <time>2015-03-23T12:57:09.000Z</time>
      </trkpt>
      <trkpt lat="45.14143" lon="6.35116">
        <ele>2566.3999023438</ele>
        <time>2015-03-23T12:57:13.000Z</time>
      </trkpt>
      <trkpt lat="45.14143" lon="6.35118">
        <ele>2566.6000976562</ele>
        <time>2015-03-23T12:57:15.000Z</time>
      </trkpt>
      <trkpt lat="45.14143" lon="6.35125">
        <ele>2567.1999511719</ele>
        <time>2015-03-23T12:57:19.000Z</time>
      </trkpt>
      <trkpt lat="45.14144" lon="6.35126">
        <ele>2567.8000488281</ele>
        <time>2015-03-23T12:57:25.000Z</time>
      </trkpt>
      <trkpt lat="45.14144" lon="6.35126">
        <ele>2568.8000488281</ele>
        <time>2015-03-23T12:57:28.000Z</time>
      </trkpt>
      <trkpt lat="45.14144" lon="6.35126">
        <ele>2569.3999023438</ele>
        <time>2015-03-23T12:57:33.000Z</time>
      </trkpt>
      <trkpt lat="45.14144" lon="6.35127">
        <ele>2568.8000488281</ele>
        <time>2015-03-23T12:57:41.000Z</time>
      </trkpt>
      <trkpt lat="45.14145" lon="6.3513">
        <ele>2569.1999511719</ele>
        <time>2015-03-23T12:57:45.000Z</time>
      </trkpt>
      <trkpt lat="45.14146" lon="6.35133">
        <ele>2570</ele>
        <time>2015-03-23T12:57:50.000Z</time>
      </trkpt>
      <trkpt lat="45.14146" lon="6.35134">
        <ele>2570.1999511719</ele>
        <time>2015-03-23T12:57:51.000Z</time>
      </trkpt>
      <trkpt lat="45.14145" lon="6.35141">
        <ele>2571</ele>
        <time>2015-03-23T12:57:56.000Z</time>
      </trkpt>
      <trkpt lat="45.14145" lon="6.35142">
        <ele>2571.3999023438</ele>
        <time>2015-03-23T12:57:58.000Z</time>
      </trkpt>
      <trkpt lat="45.14144" lon="6.35147">
        <ele>2571.8000488281</ele>
        <time>2015-03-23T12:58:00.000Z</time>
      </trkpt>
      <trkpt lat="45.14144" lon="6.3515">
        <ele>2572.1999511719</ele>
        <time>2015-03-23T12:58:02.000Z</time>
      </trkpt>
      <trkpt lat="45.14144" lon="6.35152">
        <ele>2572.3999023438</ele>
        <time>2015-03-23T12:58:05.000Z</time>
      </trkpt>
      <trkpt lat="45.14144" lon="6.35154">
        <ele>2572.8000488281</ele>
        <time>2015-03-23T12:58:07.000Z</time>
      </trkpt>
      <trkpt lat="45.14143" lon="6.35159">
        <ele>2573.6000976562</ele>
        <time>2015-03-23T12:58:13.000Z</time>
      </trkpt>
      <trkpt lat="45.14143" lon="6.35163">
        <ele>2574.8000488281</ele>
        <time>2015-03-23T12:58:18.000Z</time>
      </trkpt>
      <trkpt lat="45.14143" lon="6.35166">
        <ele>2575</ele>
        <time>2015-03-23T12:58:20.000Z</time>
      </trkpt>
      <trkpt lat="45.14143" lon="6.35168">
        <ele>2575.6000976562</ele>
        <time>2015-03-23T12:58:28.000Z</time>
      </trkpt>
      <trkpt lat="45.14143" lon="6.3517">
        <ele>2575.8000488281</ele>
        <time>2015-03-23T12:58:30.000Z</time>
      </trkpt>
      <trkpt lat="45.14143" lon="6.35176">
        <ele>2576</ele>
        <time>2015-03-23T12:58:35.000Z</time>
      </trkpt>
      <trkpt lat="45.14143" lon="6.3518">
        <ele>2577</ele>
        <time>2015-03-23T12:58:38.000Z</time>
      </trkpt>
      <trkpt lat="45.14143" lon="6.3519">
        <ele>2577.8000488281</ele>
        <time>2015-03-23T12:58:44.000Z</time>
      </trkpt>
      <trkpt lat="45.14144" lon="6.3519">
        <ele>2578</ele>
        <time>2015-03-23T12:58:45.000Z</time>
      </trkpt>
      <trkpt lat="45.14144" lon="6.35193">
        <ele>2578.8000488281</ele>
        <time>2015-03-23T12:58:49.000Z</time>
      </trkpt>
      <trkpt lat="45.14144" lon="6.35194">
        <ele>2579</ele>
        <time>2015-03-23T12:58:51.000Z</time>
      </trkpt>
      <trkpt lat="45.14144" lon="6.35197">
        <ele>2579.3999023438</ele>
        <time>2015-03-23T12:58:55.000Z</time>
      </trkpt>
      <trkpt lat="45.14144" lon="6.35201">
        <ele>2579.8000488281</ele>
        <time>2015-03-23T12:58:59.000Z</time>
      </trkpt>
      <trkpt lat="45.14144" lon="6.35202">
        <ele>2580.6000976562</ele>
        <time>2015-03-23T12:59:01.000Z</time>
      </trkpt>
      <trkpt lat="45.14145" lon="6.35207">
        <ele>2581</ele>
        <time>2015-03-23T12:59:05.000Z</time>
      </trkpt>
      <trkpt lat="45.14143" lon="6.35212">
        <ele>2581.8000488281</ele>
        <time>2015-03-23T12:59:09.000Z</time>
      </trkpt>
      <trkpt lat="45.14143" lon="6.35213">
        <ele>2581.8000488281</ele>
        <time>2015-03-23T12:59:10.000Z</time>
      </trkpt>
      <trkpt lat="45.14144" lon="6.35215">
        <ele>2582.8000488281</ele>
        <time>2015-03-23T12:59:17.000Z</time>
      </trkpt>
      <trkpt lat="45.14144" lon="6.35217">
        <ele>2582.8000488281</ele>
        <time>2015-03-23T12:59:18.000Z</time>
      </trkpt>
      <trkpt lat="45.14144" lon="6.35221">
        <ele>2583.6000976562</ele>
        <time>2015-03-23T12:59:22.000Z</time>
      </trkpt>
      <trkpt lat="45.14143" lon="6.35223">
        <ele>2584</ele>
        <time>2015-03-23T12:59:24.000Z</time>
      </trkpt>
      <trkpt lat="45.14143" lon="6.35227">
        <ele>2584.6000976562</ele>
        <time>2015-03-23T12:59:28.000Z</time>
      </trkpt>
      <trkpt lat="45.14143" lon="6.35231">
        <ele>2585.1999511719</ele>
        <time>2015-03-23T12:59:32.000Z</time>
      </trkpt>
      <trkpt lat="45.14143" lon="6.35232">
        <ele>2585.8000488281</ele>
        <time>2015-03-23T12:59:35.000Z</time>
      </trkpt>
      <trkpt lat="45.14143" lon="6.35233">
        <ele>2586.1999511719</ele>
        <time>2015-03-23T12:59:37.000Z</time>
      </trkpt>
      <trkpt lat="45.14144" lon="6.35235">
        <ele>2586.3999023438</ele>
        <time>2015-03-23T12:59:40.000Z</time>
      </trkpt>
      <trkpt lat="45.14143" lon="6.35242">
        <ele>2587.1999511719</ele>
        <time>2015-03-23T12:59:46.000Z</time>
      </trkpt>
      <trkpt lat="45.14143" lon="6.35242">
        <ele>2587.6000976562</ele>
        <time>2015-03-23T12:59:47.000Z</time>
      </trkpt>
      <trkpt lat="45.14143" lon="6.35247">
        <ele>2588.1999511719</ele>
        <time>2015-03-23T12:59:51.000Z</time>
      </trkpt>
      <trkpt lat="45.14143" lon="6.35248">
        <ele>2588.6000976562</ele>
        <time>2015-03-23T12:59:53.000Z</time>
      </trkpt>
      <trkpt lat="45.14142" lon="6.3525">
        <ele>2589</ele>
        <time>2015-03-23T12:59:57.000Z</time>
      </trkpt>
      <trkpt lat="45.14142" lon="6.35251">
        <ele>2589.6000976562</ele>
        <time>2015-03-23T13:00:02.000Z</time>
      </trkpt>
      <trkpt lat="45.14143" lon="6.3525">
        <ele>2589.8000488281</ele>
        <time>2015-03-23T13:00:04.000Z</time>
      </trkpt>
      <trkpt lat="45.14141" lon="6.35246">
        <ele>2590.8000488281</ele>
        <time>2015-03-23T13:00:09.000Z</time>
      </trkpt>
      <trkpt lat="45.14141" lon="6.35246">
        <ele>2590.8000488281</ele>
        <time>2015-03-23T13:00:10.000Z</time>
      </trkpt>
      <trkpt lat="45.1414" lon="6.35245">
        <ele>2591.8000488281</ele>
        <time>2015-03-23T13:00:15.000Z</time>
      </trkpt>
      <trkpt lat="45.1414" lon="6.35245">
        <ele>2592.1999511719</ele>
        <time>2015-03-23T13:00:16.000Z</time>
      </trkpt>
      <trkpt lat="45.14136" lon="6.3524">
        <ele>2593</ele>
        <time>2015-03-23T13:00:22.000Z</time>
      </trkpt>
      <trkpt lat="45.14131" lon="6.35236">
        <ele>2593.6000976562</ele>
        <time>2015-03-23T13:00:32.000Z</time>
      </trkpt>
      <trkpt lat="45.14129" lon="6.35236">
        <ele>2594</ele>
        <time>2015-03-23T13:00:36.000Z</time>
      </trkpt>
      <trkpt lat="45.14128" lon="6.35236">
        <ele>2594.1999511719</ele>
        <time>2015-03-23T13:00:37.000Z</time>
      </trkpt>
      <trkpt lat="45.14125" lon="6.35234">
        <ele>2595.1999511719</ele>
        <time>2015-03-23T13:00:42.000Z</time>
      </trkpt>
      <trkpt lat="45.14123" lon="6.3523">
        <ele>2596</ele>
        <time>2015-03-23T13:00:47.000Z</time>
      </trkpt>
      <trkpt lat="45.14122" lon="6.3523">
        <ele>2596.1999511719</ele>
        <time>2015-03-23T13:00:50.000Z</time>
      </trkpt>
      <trkpt lat="45.14123" lon="6.3523">
        <ele>2597</ele>
        <time>2015-03-23T13:00:56.000Z</time>
      </trkpt>
      <trkpt lat="45.14123" lon="6.3523">
        <ele>2597</ele>
        <time>2015-03-23T13:01:19.000Z</time>
      </trkpt>
      <trkpt lat="45.14121" lon="6.35232">
        <ele>2597</ele>
        <time>2015-03-23T13:01:35.000Z</time>
      </trkpt>
      <trkpt lat="45.14119" lon="6.35232">
        <ele>2597.3999023438</ele>
        <time>2015-03-23T13:01:37.000Z</time>
      </trkpt>
      <trkpt lat="45.14118" lon="6.35233">
        <ele>2597.8000488281</ele>
        <time>2015-03-23T13:01:40.000Z</time>
      </trkpt>
      <trkpt lat="45.14116" lon="6.35232">
        <ele>2598.3999023438</ele>
        <time>2015-03-23T13:01:43.000Z</time>
      </trkpt>
      <trkpt lat="45.14114" lon="6.35232">
        <ele>2599.1999511719</ele>
        <time>2015-03-23T13:01:46.000Z</time>
      </trkpt>
      <trkpt lat="45.14113" lon="6.35233">
        <ele>2599.6000976562</ele>
        <time>2015-03-23T13:01:47.000Z</time>
      </trkpt>
      <trkpt lat="45.14113" lon="6.35232">
        <ele>2600.6000976562</ele>
        <time>2015-03-23T13:01:51.000Z</time>
      </trkpt>
      <trkpt lat="45.14113" lon="6.35232">
        <ele>2600.6000976562</ele>
        <time>2015-03-23T13:01:54.000Z</time>
      </trkpt>
      <trkpt lat="45.14112" lon="6.35238">
        <ele>2601</ele>
        <time>2015-03-23T13:02:07.000Z</time>
      </trkpt>
      <trkpt lat="45.14112" lon="6.35238">
        <ele>2601.1999511719</ele>
        <time>2015-03-23T13:02:24.000Z</time>
      </trkpt>
      <trkpt lat="45.14109" lon="6.35239">
        <ele>2601.3999023438</ele>
        <time>2015-03-23T13:02:37.000Z</time>
      </trkpt>
      <trkpt lat="45.14108" lon="6.3524">
        <ele>2602</ele>
        <time>2015-03-23T13:02:38.000Z</time>
      </trkpt>
      <trkpt lat="45.14107" lon="6.35242">
        <ele>2603.1999511719</ele>
        <time>2015-03-23T13:02:42.000Z</time>
      </trkpt>
      <trkpt lat="45.14106" lon="6.35243">
        <ele>2603.6000976562</ele>
        <time>2015-03-23T13:02:45.000Z</time>
      </trkpt>
      <trkpt lat="45.14104" lon="6.35244">
        <ele>2604.3999023438</ele>
        <time>2015-03-23T13:02:48.000Z</time>
      </trkpt>
      <trkpt lat="45.14102" lon="6.35243">
        <ele>2605.6000976562</ele>
        <time>2015-03-23T13:02:53.000Z</time>
      </trkpt>
      <trkpt lat="45.141" lon="6.35248">
        <ele>2606.6000976562</ele>
        <time>2015-03-23T13:02:58.000Z</time>
      </trkpt>
      <trkpt lat="45.14099" lon="6.3525">
        <ele>2606.6000976562</ele>
        <time>2015-03-23T13:02:59.000Z</time>
      </trkpt>
      <trkpt lat="45.141" lon="6.35254">
        <ele>2607.8000488281</ele>
        <time>2015-03-23T13:03:03.000Z</time>
      </trkpt>
      <trkpt lat="45.141" lon="6.35257">
        <ele>2608.3999023438</ele>
        <time>2015-03-23T13:03:06.000Z</time>
      </trkpt>
      <trkpt lat="45.14104" lon="6.35261">
        <ele>2608.8000488281</ele>
        <time>2015-03-23T13:03:12.000Z</time>
      </trkpt>
      <trkpt lat="45.14105" lon="6.35262">
        <ele>2609</ele>
        <time>2015-03-23T13:03:13.000Z</time>
      </trkpt>
      <trkpt lat="45.14107" lon="6.35265">
        <ele>2610.1999511719</ele>
        <time>2015-03-23T13:03:19.000Z</time>
      </trkpt>
      <trkpt lat="45.14107" lon="6.35265">
        <ele>2610.3999023438</ele>
        <time>2015-03-23T13:03:20.000Z</time>
      </trkpt>
      <trkpt lat="45.14108" lon="6.35273">
        <ele>2611.1999511719</ele>
        <time>2015-03-23T13:03:26.000Z</time>
      </trkpt>
      <trkpt lat="45.14111" lon="6.35279">
        <ele>2611.8000488281</ele>
        <time>2015-03-23T13:03:32.000Z</time>
      </trkpt>
      <trkpt lat="45.14112" lon="6.35282">
        <ele>2612.1999511719</ele>
        <time>2015-03-23T13:03:35.000Z</time>
      </trkpt>
      <trkpt lat="45.14112" lon="6.35285">
        <ele>2612.8000488281</ele>
        <time>2015-03-23T13:03:40.000Z</time>
      </trkpt>
      <trkpt lat="45.14112" lon="6.35286">
        <ele>2613.3999023438</ele>
        <time>2015-03-23T13:03:45.000Z</time>
      </trkpt>
      <trkpt lat="45.14112" lon="6.35287">
        <ele>2613.8000488281</ele>
        <time>2015-03-23T13:03:47.000Z</time>
      </trkpt>
      <trkpt lat="45.14112" lon="6.35289">
        <ele>2614.6000976562</ele>
        <time>2015-03-23T13:03:50.000Z</time>
      </trkpt>
      <trkpt lat="45.14113" lon="6.3529">
        <ele>2614.8000488281</ele>
        <time>2015-03-23T13:03:53.000Z</time>
      </trkpt>
      <trkpt lat="45.14112" lon="6.35293">
        <ele>2615.3999023438</ele>
        <time>2015-03-23T13:03:59.000Z</time>
      </trkpt>
      <trkpt lat="45.14112" lon="6.35294">
        <ele>2615.6000976562</ele>
        <time>2015-03-23T13:04:01.000Z</time>
      </trkpt>
      <trkpt lat="45.14112" lon="6.35294">
        <ele>2616.3999023438</ele>
        <time>2015-03-23T13:04:12.000Z</time>
      </trkpt>
      <trkpt lat="45.14112" lon="6.35294">
        <ele>2616.6000976562</ele>
        <time>2015-03-23T13:04:19.000Z</time>
      </trkpt>
      <trkpt lat="45.14113" lon="6.35298">
        <ele>2616.8000488281</ele>
        <time>2015-03-23T13:04:21.000Z</time>
      </trkpt>
      <trkpt lat="45.14114" lon="6.35307">
        <ele>2617</ele>
        <time>2015-03-23T13:04:26.000Z</time>
      </trkpt>
      <trkpt lat="45.14114" lon="6.35308">
        <ele>2618</ele>
        <time>2015-03-23T13:04:29.000Z</time>
      </trkpt>
      <trkpt lat="45.14113" lon="6.35314">
        <ele>2618.6000976562</ele>
        <time>2015-03-23T13:04:32.000Z</time>
      </trkpt>
      <trkpt lat="45.14114" lon="6.35317">
        <ele>2619.1999511719</ele>
        <time>2015-03-23T13:04:34.000Z</time>
      </trkpt>
      <trkpt lat="45.14114" lon="6.35324">
        <ele>2620</ele>
        <time>2015-03-23T13:04:39.000Z</time>
      </trkpt>
      <trkpt lat="45.14115" lon="6.35325">
        <ele>2620.3999023438</ele>
        <time>2015-03-23T13:04:41.000Z</time>
      </trkpt>
      <trkpt lat="45.14115" lon="6.35333">
        <ele>2621</ele>
        <time>2015-03-23T13:04:46.000Z</time>
      </trkpt>
      <trkpt lat="45.14115" lon="6.35335">
        <ele>2621.3999023438</ele>
        <time>2015-03-23T13:04:49.000Z</time>
      </trkpt>
      <trkpt lat="45.14116" lon="6.35339">
        <ele>2622.1999511719</ele>
        <time>2015-03-23T13:04:53.000Z</time>
      </trkpt>
      <trkpt lat="45.14116" lon="6.35339">
        <ele>2622.6000976562</ele>
        <time>2015-03-23T13:04:56.000Z</time>
      </trkpt>
      <trkpt lat="45.14116" lon="6.35339">
        <ele>2623.8000488281</ele>
        <time>2015-03-23T13:05:01.000Z</time>
      </trkpt>
      <trkpt lat="45.14116" lon="6.35339">
        <ele>2624.8000488281</ele>
        <time>2015-03-23T13:05:07.000Z</time>
      </trkpt>
      <trkpt lat="45.14117" lon="6.3534">
        <ele>2626</ele>
        <time>2015-03-23T13:05:12.000Z</time>
      </trkpt>
      <trkpt lat="45.14119" lon="6.35347">
        <ele>2626.6000976562</ele>
        <time>2015-03-23T13:05:15.000Z</time>
      </trkpt>
      <trkpt lat="45.1412" lon="6.35355">
        <ele>2627</ele>
        <time>2015-03-23T13:05:18.000Z</time>
      </trkpt>
      <trkpt lat="45.14121" lon="6.35357">
        <ele>2627.1999511719</ele>
        <time>2015-03-23T13:05:20.000Z</time>
      </trkpt>
      <trkpt lat="45.14123" lon="6.35363">
        <ele>2628.1999511719</ele>
        <time>2015-03-23T13:05:24.000Z</time>
      </trkpt>
      <trkpt lat="45.14124" lon="6.35364">
        <ele>2628.8000488281</ele>
        <time>2015-03-23T13:05:26.000Z</time>
      </trkpt>
      <trkpt lat="45.14126" lon="6.35365">
        <ele>2629.1999511719</ele>
        <time>2015-03-23T13:05:29.000Z</time>
      </trkpt>
      <trkpt lat="45.14129" lon="6.35367">
        <ele>2629.8000488281</ele>
        <time>2015-03-23T13:05:33.000Z</time>
      </trkpt>
      <trkpt lat="45.14133" lon="6.3537">
        <ele>2630.3999023438</ele>
        <time>2015-03-23T13:05:36.000Z</time>
      </trkpt>
      <trkpt lat="45.14136" lon="6.35371">
        <ele>2631.1999511719</ele>
        <time>2015-03-23T13:05:40.000Z</time>
      </trkpt>
      <trkpt lat="45.1414" lon="6.35372">
        <ele>2631.8000488281</ele>
        <time>2015-03-23T13:05:44.000Z</time>
      </trkpt>
      <trkpt lat="45.14141" lon="6.35371">
        <ele>2632</ele>
        <time>2015-03-23T13:05:47.000Z</time>
      </trkpt>
      <trkpt lat="45.14144" lon="6.35372">
        <ele>2633</ele>
        <time>2015-03-23T13:05:51.000Z</time>
      </trkpt>
      <trkpt lat="45.14146" lon="6.35374">
        <ele>2633.8000488281</ele>
        <time>2015-03-23T13:05:55.000Z</time>
      </trkpt>
      <trkpt lat="45.14147" lon="6.35374">
        <ele>2634.1999511719</ele>
        <time>2015-03-23T13:05:57.000Z</time>
      </trkpt>
      <trkpt lat="45.1415" lon="6.35375">
        <ele>2635.3999023438</ele>
        <time>2015-03-23T13:06:02.000Z</time>
      </trkpt>
      <trkpt lat="45.14152" lon="6.35375">
        <ele>2635.6000976562</ele>
        <time>2015-03-23T13:06:04.000Z</time>
      </trkpt>
      <trkpt lat="45.14152" lon="6.35379">
        <ele>2636.6000976562</ele>
        <time>2015-03-23T13:06:10.000Z</time>
      </trkpt>
      <trkpt lat="45.14152" lon="6.35379">
        <ele>2636.6000976562</ele>
        <time>2015-03-23T13:06:11.000Z</time>
      </trkpt>
      <trkpt lat="45.14152" lon="6.35379">
        <ele>2637.6000976562</ele>
        <time>2015-03-23T13:06:15.000Z</time>
      </trkpt>
      <trkpt lat="45.14152" lon="6.35379">
        <ele>2638</ele>
        <time>2015-03-23T13:06:20.000Z</time>
      </trkpt>
      <trkpt lat="45.14146" lon="6.35379">
        <ele>2638.6000976562</ele>
        <time>2015-03-23T13:06:27.000Z</time>
      </trkpt>
      <trkpt lat="45.14146" lon="6.35379">
        <ele>2638.6000976562</ele>
        <time>2015-03-23T13:06:28.000Z</time>
      </trkpt>
      <trkpt lat="45.1414" lon="6.35385">
        <ele>2639.3999023438</ele>
        <time>2015-03-23T13:06:35.000Z</time>
      </trkpt>
      <trkpt lat="45.1414" lon="6.35385">
        <ele>2639.6000976562</ele>
        <time>2015-03-23T13:06:36.000Z</time>
      </trkpt>
      <trkpt lat="45.1414" lon="6.35385">
        <ele>2640.8000488281</ele>
        <time>2015-03-23T13:06:41.000Z</time>
      </trkpt>
      <trkpt lat="45.1414" lon="6.35385">
        <ele>2642</ele>
        <time>2015-03-23T13:06:44.000Z</time>
      </trkpt>
      <trkpt lat="45.1414" lon="6.35385">
        <ele>2642.1999511719</ele>
        <time>2015-03-23T13:06:45.000Z</time>
      </trkpt>
      <trkpt lat="45.14139" lon="6.35384">
        <ele>2642.1999511719</ele>
        <time>2015-03-23T13:07:01.000Z</time>
      </trkpt>
      <trkpt lat="45.14139" lon="6.35384">
        <ele>2642.3999023438</ele>
        <time>2015-03-23T13:07:18.000Z</time>
      </trkpt>
      <trkpt lat="45.14137" lon="6.3539">
        <ele>2643.1999511719</ele>
        <time>2015-03-23T13:07:27.000Z</time>
      </trkpt>
      <trkpt lat="45.14138" lon="6.3539">
        <ele>2644.1999511719</ele>
        <time>2015-03-23T13:07:33.000Z</time>
      </trkpt>
      <trkpt lat="45.14139" lon="6.35389">
        <ele>2644.8000488281</ele>
        <time>2015-03-23T13:07:36.000Z</time>
      </trkpt>
      <trkpt lat="45.1414" lon="6.35388">
        <ele>2645</ele>
        <time>2015-03-23T13:07:48.000Z</time>
      </trkpt>
      <trkpt lat="45.1414" lon="6.35388">
        <ele>2645.8000488281</ele>
        <time>2015-03-23T13:07:50.000Z</time>
      </trkpt>
      <trkpt lat="45.14145" lon="6.35388">
        <ele>2646.6000976562</ele>
        <time>2015-03-23T13:07:54.000Z</time>
      </trkpt>
      <trkpt lat="45.14148" lon="6.35389">
        <ele>2647</ele>
        <time>2015-03-23T13:08:00.000Z</time>
      </trkpt>
      <trkpt lat="45.14149" lon="6.3539">
        <ele>2647</ele>
        <time>2015-03-23T13:08:01.000Z</time>
      </trkpt>
      <trkpt lat="45.14154" lon="6.35391">
        <ele>2647.3999023438</ele>
        <time>2015-03-23T13:08:07.000Z</time>
      </trkpt>
      <trkpt lat="45.14157" lon="6.35394">
        <ele>2648</ele>
        <time>2015-03-23T13:08:12.000Z</time>
      </trkpt>
      <trkpt lat="45.14157" lon="6.35395">
        <ele>2649</ele>
        <time>2015-03-23T13:08:15.000Z</time>
      </trkpt>
      <trkpt lat="45.14157" lon="6.35395">
        <ele>2649</ele>
        <time>2015-03-23T13:08:16.000Z</time>
      </trkpt>
      <trkpt lat="45.14156" lon="6.35396">
        <ele>2649</ele>
        <time>2015-03-23T13:08:23.000Z</time>
      </trkpt>
      <trkpt lat="45.14156" lon="6.35396">
        <ele>2650.3999023438</ele>
        <time>2015-03-23T13:08:26.000Z</time>
      </trkpt>
      <trkpt lat="45.14151" lon="6.35399">
        <ele>2650.1999511719</ele>
        <time>2015-03-23T13:08:33.000Z</time>
      </trkpt>
      <trkpt lat="45.14148" lon="6.354">
        <ele>2651.3999023438</ele>
        <time>2015-03-23T13:08:39.000Z</time>
      </trkpt>
      <trkpt lat="45.14148" lon="6.354">
        <ele>2651.6000976562</ele>
        <time>2015-03-23T13:08:40.000Z</time>
      </trkpt>
      <trkpt lat="45.14148" lon="6.354">
        <ele>2652.8000488281</ele>
        <time>2015-03-23T13:08:45.000Z</time>
      </trkpt>
      <trkpt lat="45.14148" lon="6.354">
        <ele>2653.3999023438</ele>
        <time>2015-03-23T13:08:48.000Z</time>
      </trkpt>
      <trkpt lat="45.14148" lon="6.35404">
        <ele>2653.3999023438</ele>
        <time>2015-03-23T13:08:56.000Z</time>
      </trkpt>
      <trkpt lat="45.14148" lon="6.35404">
        <ele>2654</ele>
        <time>2015-03-23T13:08:58.000Z</time>
      </trkpt>
      <trkpt lat="45.14148" lon="6.35404">
        <ele>2655</ele>
        <time>2015-03-23T13:09:02.000Z</time>
      </trkpt>
      <trkpt lat="45.14148" lon="6.35407">
        <ele>2655.6000976562</ele>
        <time>2015-03-23T13:09:06.000Z</time>
      </trkpt>
      <trkpt lat="45.14151" lon="6.35413">
        <ele>2656.6000976562</ele>
        <time>2015-03-23T13:09:16.000Z</time>
      </trkpt>
      <trkpt lat="45.14152" lon="6.35414">
        <ele>2656.8000488281</ele>
        <time>2015-03-23T13:09:17.000Z</time>
      </trkpt>
      <trkpt lat="45.14153" lon="6.35416">
        <ele>2657.8000488281</ele>
        <time>2015-03-23T13:09:26.000Z</time>
      </trkpt>
      <trkpt lat="45.14153" lon="6.35416">
        <ele>2658.8000488281</ele>
        <time>2015-03-23T13:09:32.000Z</time>
      </trkpt>
      <trkpt lat="45.14153" lon="6.35416">
        <ele>2659</ele>
        <time>2015-03-23T13:09:36.000Z</time>
      </trkpt>
      <trkpt lat="45.14153" lon="6.35416">
        <ele>2660</ele>
        <time>2015-03-23T13:09:45.000Z</time>
      </trkpt>
      <trkpt lat="45.14153" lon="6.35416">
        <ele>2660.1999511719</ele>
        <time>2015-03-23T13:09:48.000Z</time>
      </trkpt>
      <trkpt lat="45.14153" lon="6.35416">
        <ele>2659.8000488281</ele>
        <time>2015-03-23T13:09:58.000Z</time>
      </trkpt>
      <trkpt lat="45.14153" lon="6.35417">
        <ele>2661</ele>
        <time>2015-03-23T13:10:03.000Z</time>
      </trkpt>
      <trkpt lat="45.14152" lon="6.35417">
        <ele>2661.6000976562</ele>
        <time>2015-03-23T13:10:06.000Z</time>
      </trkpt>
      <trkpt lat="45.1415" lon="6.35421">
        <ele>2662.1999511719</ele>
        <time>2015-03-23T13:10:11.000Z</time>
      </trkpt>
      <trkpt lat="45.14151" lon="6.35421">
        <ele>2662.6000976562</ele>
        <time>2015-03-23T13:10:16.000Z</time>
      </trkpt>
      <trkpt lat="45.14153" lon="6.35422">
        <ele>2663.1999511719</ele>
        <time>2015-03-23T13:10:19.000Z</time>
      </trkpt>
      <trkpt lat="45.14154" lon="6.35424">
        <ele>2663.3999023438</ele>
        <time>2015-03-23T13:10:24.000Z</time>
      </trkpt>
      <trkpt lat="45.14154" lon="6.35424">
        <ele>2664.3999023438</ele>
        <time>2015-03-23T13:10:28.000Z</time>
      </trkpt>
      <trkpt lat="45.14154" lon="6.35424">
        <ele>2664.3999023438</ele>
        <time>2015-03-23T13:10:34.000Z</time>
      </trkpt>
      <trkpt lat="45.1415" lon="6.35426">
        <ele>2664.8000488281</ele>
        <time>2015-03-23T13:10:44.000Z</time>
      </trkpt>
      <trkpt lat="45.1415" lon="6.35426">
        <ele>2665.3999023438</ele>
        <time>2015-03-23T13:10:50.000Z</time>
      </trkpt>
      <trkpt lat="45.1415" lon="6.35426">
        <ele>2665.1999511719</ele>
        <time>2015-03-23T13:10:54.000Z</time>
      </trkpt>
      <trkpt lat="45.14153" lon="6.35426">
        <ele>2666.3999023438</ele>
        <time>2015-03-23T13:10:59.000Z</time>
      </trkpt>
      <trkpt lat="45.14157" lon="6.35427">
        <ele>2666.6000976562</ele>
        <time>2015-03-23T13:11:01.000Z</time>
      </trkpt>
      <trkpt lat="45.14159" lon="6.35429">
        <ele>2667.3999023438</ele>
        <time>2015-03-23T13:11:07.000Z</time>
      </trkpt>
      <trkpt lat="45.14159" lon="6.35429">
        <ele>2668.1999511719</ele>
        <time>2015-03-23T13:11:09.000Z</time>
      </trkpt>
      <trkpt lat="45.14153" lon="6.35434">
        <ele>2668.3999023438</ele>
        <time>2015-03-23T13:11:18.000Z</time>
      </trkpt>
      <trkpt lat="45.14151" lon="6.35437">
        <ele>2669.3999023438</ele>
        <time>2015-03-23T13:11:28.000Z</time>
      </trkpt>
      <trkpt lat="45.14151" lon="6.35437">
        <ele>2669.6000976562</ele>
        <time>2015-03-23T13:11:29.000Z</time>
      </trkpt>
      <trkpt lat="45.14154" lon="6.35435">
        <ele>2670.1999511719</ele>
        <time>2015-03-23T13:11:36.000Z</time>
      </trkpt>
      <trkpt lat="45.14156" lon="6.35435">
        <ele>2670.8000488281</ele>
        <time>2015-03-23T13:11:45.000Z</time>
      </trkpt>
      <trkpt lat="45.14155" lon="6.35437">
        <ele>2671.3999023438</ele>
        <time>2015-03-23T13:11:54.000Z</time>
      </trkpt>
      <trkpt lat="45.14153" lon="6.35438">
        <ele>2672</ele>
        <time>2015-03-23T13:11:56.000Z</time>
      </trkpt>
      <trkpt lat="45.14154" lon="6.35438">
        <ele>2673</ele>
        <time>2015-03-23T13:12:06.000Z</time>
      </trkpt>
      <trkpt lat="45.1416" lon="6.3544">
        <ele>2673.3999023438</ele>
        <time>2015-03-23T13:12:14.000Z</time>
      </trkpt>
      <trkpt lat="45.14161" lon="6.3544">
        <ele>2674.3999023438</ele>
        <time>2015-03-23T13:12:16.000Z</time>
      </trkpt>
      <trkpt lat="45.14162" lon="6.35441">
        <ele>2675</ele>
        <time>2015-03-23T13:12:23.000Z</time>
      </trkpt>
      <trkpt lat="45.14162" lon="6.35441">
        <ele>2675.3999023438</ele>
        <time>2015-03-23T13:12:24.000Z</time>
      </trkpt>
      <trkpt lat="45.14162" lon="6.35441">
        <ele>2675</ele>
        <time>2015-03-23T13:12:35.000Z</time>
      </trkpt>
      <trkpt lat="45.14162" lon="6.35441">
        <ele>2676.3999023438</ele>
        <time>2015-03-23T13:12:44.000Z</time>
      </trkpt>
      <trkpt lat="45.14162" lon="6.35441">
        <ele>2676.6000976562</ele>
        <time>2015-03-23T13:12:46.000Z</time>
      </trkpt>
      <trkpt lat="45.14162" lon="6.35441">
        <ele>2677</ele>
        <time>2015-03-23T13:12:59.000Z</time>
      </trkpt>
      <trkpt lat="45.14162" lon="6.35441">
        <ele>2677</ele>
        <time>2015-03-23T13:13:15.000Z</time>
      </trkpt>
      <trkpt lat="45.14162" lon="6.35441">
        <ele>2676.6000976562</ele>
        <time>2015-03-23T13:13:28.000Z</time>
      </trkpt>
      <trkpt lat="45.14162" lon="6.35441">
        <ele>2677.1999511719</ele>
        <time>2015-03-23T13:13:40.000Z</time>
      </trkpt>
      <trkpt lat="45.14163" lon="6.35441">
        <ele>2677</ele>
        <time>2015-03-23T13:13:51.000Z</time>
      </trkpt>
      <trkpt lat="45.14164" lon="6.3544">
        <ele>2676.3999023438</ele>
        <time>2015-03-23T13:14:02.000Z</time>
      </trkpt>
      <trkpt lat="45.14155" lon="6.35442">
        <ele>2677.6000976562</ele>
        <time>2015-03-23T13:14:10.000Z</time>
      </trkpt>
      <trkpt lat="45.14141" lon="6.35445">
        <ele>2677</ele>
        <time>2015-03-23T13:14:20.000Z</time>
      </trkpt>
      <trkpt lat="45.14133" lon="6.35453">
        <ele>2676.8000488281</ele>
        <time>2015-03-23T13:14:43.000Z</time>
      </trkpt>
      <trkpt lat="45.14136" lon="6.35454">
        <ele>2677</ele>
        <time>2015-03-23T13:14:53.000Z</time>
      </trkpt>
      <trkpt lat="45.14136" lon="6.35454">
        <ele>2677</ele>
        <time>2015-03-23T13:15:07.000Z</time>
      </trkpt>
      <trkpt lat="45.14136" lon="6.35454">
        <ele>2677</ele>
        <time>2015-03-23T13:15:17.000Z</time>
      </trkpt>
      <trkpt lat="45.14136" lon="6.35454">
        <ele>2677</ele>
        <time>2015-03-23T13:15:28.000Z</time>
      </trkpt>
      <trkpt lat="45.14136" lon="6.35455">
        <ele>2677</ele>
        <time>2015-03-23T13:15:40.000Z</time>
      </trkpt>
      <trkpt lat="45.14136" lon="6.35455">
        <ele>2677</ele>
        <time>2015-03-23T13:15:52.000Z</time>
      </trkpt>
      <trkpt lat="45.14136" lon="6.35455">
        <ele>2677</ele>
        <time>2015-03-23T13:16:06.000Z</time>
      </trkpt>
      <trkpt lat="45.14137" lon="6.35454">
        <ele>2677</ele>
        <time>2015-03-23T13:16:19.000Z</time>
      </trkpt>
      <trkpt lat="45.14137" lon="6.35454">
        <ele>2677</ele>
        <time>2015-03-23T13:16:37.000Z</time>
      </trkpt>
      <trkpt lat="45.14137" lon="6.35454">
        <ele>2677</ele>
        <time>2015-03-23T13:16:50.000Z</time>
      </trkpt>
      <trkpt lat="45.14137" lon="6.35454">
        <ele>2676.8000488281</ele>
        <time>2015-03-23T13:17:09.000Z</time>
      </trkpt>
      <trkpt lat="45.14141" lon="6.35455">
        <ele>2677</ele>
        <time>2015-03-23T13:17:18.000Z</time>
      </trkpt>
      <trkpt lat="45.14147" lon="6.35456">
        <ele>2676.8000488281</ele>
        <time>2015-03-23T13:17:27.000Z</time>
      </trkpt>
      <trkpt lat="45.14147" lon="6.35456">
        <ele>2677</ele>
        <time>2015-03-23T13:17:40.000Z</time>
      </trkpt>
      <trkpt lat="45.14147" lon="6.35456">
        <ele>2677.1999511719</ele>
        <time>2015-03-23T13:17:55.000Z</time>
      </trkpt>
      <trkpt lat="45.14147" lon="6.35456">
        <ele>2677.1999511719</ele>
        <time>2015-03-23T13:18:08.000Z</time>
      </trkpt>
      <trkpt lat="45.14147" lon="6.35456">
        <ele>2677.6000976562</ele>
        <time>2015-03-23T13:18:15.000Z</time>
      </trkpt>
      <trkpt lat="45.14147" lon="6.35456">
        <ele>2677</ele>
        <time>2015-03-23T13:18:23.000Z</time>
      </trkpt>
      <trkpt lat="45.14147" lon="6.35456">
        <ele>2676.8000488281</ele>
        <time>2015-03-23T13:18:39.000Z</time>
      </trkpt>
      <trkpt lat="45.14147" lon="6.35454">
        <ele>2677.3999023438</ele>
        <time>2015-03-23T13:18:54.000Z</time>
      </trkpt>
      <trkpt lat="45.14149" lon="6.35454">
        <ele>2677.3999023438</ele>
        <time>2015-03-23T13:19:02.000Z</time>
      </trkpt>
      <trkpt lat="45.14149" lon="6.35454">
        <ele>2677.1999511719</ele>
        <time>2015-03-23T13:19:12.000Z</time>
      </trkpt>
      <trkpt lat="45.14149" lon="6.35454">
        <ele>2677.1999511719</ele>
        <time>2015-03-23T13:19:25.000Z</time>
      </trkpt>
      <trkpt lat="45.14149" lon="6.35452">
        <ele>2678</ele>
        <time>2015-03-23T13:19:35.000Z</time>
      </trkpt>
      <trkpt lat="45.14149" lon="6.35452">
        <ele>2676.6000976562</ele>
        <time>2015-03-23T13:19:41.000Z</time>
      </trkpt>
      <trkpt lat="45.14149" lon="6.35452">
        <ele>2677.3999023438</ele>
        <time>2015-03-23T13:20:01.000Z</time>
      </trkpt>
      <trkpt lat="45.14149" lon="6.35452">
        <ele>2677.1999511719</ele>
        <time>2015-03-23T13:20:12.000Z</time>
      </trkpt>
      <trkpt lat="45.14149" lon="6.35452">
        <ele>2677.6000976562</ele>
        <time>2015-03-23T13:20:27.000Z</time>
      </trkpt>
      <trkpt lat="45.14149" lon="6.35452">
        <ele>2677.3999023438</ele>
        <time>2015-03-23T13:20:41.000Z</time>
      </trkpt>
      <trkpt lat="45.14154" lon="6.35439">
        <ele>2677.3999023438</ele>
        <time>2015-03-23T13:20:52.000Z</time>
      </trkpt>
      <trkpt lat="45.14156" lon="6.35437">
        <ele>2677.3999023438</ele>
        <time>2015-03-23T13:20:54.000Z</time>
      </trkpt>
      <trkpt lat="45.14168" lon="6.35424">
        <ele>2677.6000976562</ele>
        <time>2015-03-23T13:21:08.000Z</time>
      </trkpt>
      <trkpt lat="45.14173" lon="6.35418">
        <ele>2677.3999023438</ele>
        <time>2015-03-23T13:21:21.000Z</time>
      </trkpt>
      <trkpt lat="45.1418" lon="6.35407">
        <ele>2677.3999023438</ele>
        <time>2015-03-23T13:21:33.000Z</time>
      </trkpt>
      <trkpt lat="45.14183" lon="6.35404">
        <ele>2677.3999023438</ele>
        <time>2015-03-23T13:21:44.000Z</time>
      </trkpt>
      <trkpt lat="45.1418" lon="6.3541">
        <ele>2677.6000976562</ele>
        <time>2015-03-23T13:21:55.000Z</time>
      </trkpt>
      <trkpt lat="45.1418" lon="6.3541">
        <ele>2677.3999023438</ele>
        <time>2015-03-23T13:22:10.000Z</time>
      </trkpt>
      <trkpt lat="45.14181" lon="6.35411">
        <ele>2677.3999023438</ele>
        <time>2015-03-23T13:22:20.000Z</time>
      </trkpt>
      <trkpt lat="45.14183" lon="6.35409">
        <ele>2677.1999511719</ele>
        <time>2015-03-23T13:22:34.000Z</time>
      </trkpt>
      <trkpt lat="45.14181" lon="6.35413">
        <ele>2677.8000488281</ele>
        <time>2015-03-23T13:22:43.000Z</time>
      </trkpt>
      <trkpt lat="45.14177" lon="6.35415">
        <ele>2677.8000488281</ele>
        <time>2015-03-23T13:22:59.000Z</time>
      </trkpt>
      <trkpt lat="45.14176" lon="6.35421">
        <ele>2677.6000976562</ele>
        <time>2015-03-23T13:23:14.000Z</time>
      </trkpt>
      <trkpt lat="45.14178" lon="6.35425">
        <ele>2677.3999023438</ele>
        <time>2015-03-23T13:23:29.000Z</time>
      </trkpt>
      <trkpt lat="45.14177" lon="6.35428">
        <ele>2677.3999023438</ele>
        <time>2015-03-23T13:23:44.000Z</time>
      </trkpt>
      <trkpt lat="45.14175" lon="6.35428">
        <ele>2677.3999023438</ele>
        <time>2015-03-23T13:24:00.000Z</time>
      </trkpt>
      <trkpt lat="45.14175" lon="6.35428">
        <ele>2677.3999023438</ele>
        <time>2015-03-23T13:24:21.000Z</time>
      </trkpt>
      <trkpt lat="45.14175" lon="6.35428">
        <ele>2677.1999511719</ele>
        <time>2015-03-23T13:24:31.000Z</time>
      </trkpt>
      <trkpt lat="45.14175" lon="6.35428">
        <ele>2678.8000488281</ele>
        <time>2015-03-23T13:24:38.000Z</time>
      </trkpt>
      <trkpt lat="45.14175" lon="6.35428">
        <ele>2679.6000976562</ele>
        <time>2015-03-23T13:24:40.000Z</time>
      </trkpt>
      <trkpt lat="45.14175" lon="6.35428">
        <ele>2679.8000488281</ele>
        <time>2015-03-23T13:24:41.000Z</time>
      </trkpt>
      <trkpt lat="45.14174" lon="6.35429">
        <ele>2680.8000488281</ele>
        <time>2015-03-23T13:24:48.000Z</time>
      </trkpt>
      <trkpt lat="45.14174" lon="6.35429">
        <ele>2681</ele>
        <time>2015-03-23T13:24:49.000Z</time>
      </trkpt>
      <trkpt lat="45.14174" lon="6.35429">
        <ele>2682.1999511719</ele>
        <time>2015-03-23T13:24:53.000Z</time>
      </trkpt>
      <trkpt lat="45.14174" lon="6.35429">
        <ele>2683.1999511719</ele>
        <time>2015-03-23T13:24:59.000Z</time>
      </trkpt>
      <trkpt lat="45.14174" lon="6.35429">
        <ele>2683.3999023438</ele>
        <time>2015-03-23T13:25:02.000Z</time>
      </trkpt>
      <trkpt lat="45.14174" lon="6.35429">
        <ele>2684.3999023438</ele>
        <time>2015-03-23T13:25:08.000Z</time>
      </trkpt>
      <trkpt lat="45.14174" lon="6.35429">
        <ele>2685.1999511719</ele>
        <time>2015-03-23T13:25:13.000Z</time>
      </trkpt>
      <trkpt lat="45.14174" lon="6.35429">
        <ele>2685.3999023438</ele>
        <time>2015-03-23T13:25:14.000Z</time>
      </trkpt>
      <trkpt lat="45.14174" lon="6.35429">
        <ele>2686.3999023438</ele>
        <time>2015-03-23T13:25:22.000Z</time>
      </trkpt>
      <trkpt lat="45.14174" lon="6.35429">
        <ele>2686.6000976562</ele>
        <time>2015-03-23T13:25:23.000Z</time>
      </trkpt>
      <trkpt lat="45.14174" lon="6.35429">
        <ele>2687.6000976562</ele>
        <time>2015-03-23T13:25:28.000Z</time>
      </trkpt>
      <trkpt lat="45.14173" lon="6.3543">
        <ele>2688.6000976562</ele>
        <time>2015-03-23T13:25:36.000Z</time>
      </trkpt>
      <trkpt lat="45.14173" lon="6.3543">
        <ele>2688.8000488281</ele>
        <time>2015-03-23T13:25:38.000Z</time>
      </trkpt>
      <trkpt lat="45.14173" lon="6.3543">
        <ele>2689.8000488281</ele>
        <time>2015-03-23T13:25:43.000Z</time>
      </trkpt>
      <trkpt lat="45.14173" lon="6.3543">
        <ele>2690</ele>
        <time>2015-03-23T13:25:45.000Z</time>
      </trkpt>
      <trkpt lat="45.14173" lon="6.3543">
        <ele>2690.1999511719</ele>
        <time>2015-03-23T13:25:46.000Z</time>
      </trkpt>
      <trkpt lat="45.14173" lon="6.3543">
        <ele>2690.8000488281</ele>
        <time>2015-03-23T13:25:51.000Z</time>
      </trkpt>
      <trkpt lat="45.14173" lon="6.3543">
        <ele>2691.1999511719</ele>
        <time>2015-03-23T13:25:54.000Z</time>
      </trkpt>
      <trkpt lat="45.14173" lon="6.3543">
        <ele>2691.8000488281</ele>
        <time>2015-03-23T13:25:57.000Z</time>
      </trkpt>
      <trkpt lat="45.14173" lon="6.3543">
        <ele>2693</ele>
        <time>2015-03-23T13:26:05.000Z</time>
      </trkpt>
      <trkpt lat="45.14173" lon="6.3543">
        <ele>2694.1999511719</ele>
        <time>2015-03-23T13:26:09.000Z</time>
      </trkpt>
      <trkpt lat="45.14171" lon="6.35432">
        <ele>2694.6000976562</ele>
        <time>2015-03-23T13:26:19.000Z</time>
      </trkpt>
      <trkpt lat="45.14168" lon="6.35434">
        <ele>2694.8000488281</ele>
        <time>2015-03-23T13:26:31.000Z</time>
      </trkpt>
      <trkpt lat="45.14168" lon="6.35434">
        <ele>2694.6000976562</ele>
        <time>2015-03-23T13:26:42.000Z</time>
      </trkpt>
      <trkpt lat="45.14166" lon="6.35442">
        <ele>2696.1999511719</ele>
        <time>2015-03-23T13:26:49.000Z</time>
      </trkpt>
      <trkpt lat="45.14167" lon="6.35444">
        <ele>2696.1999511719</ele>
        <time>2015-03-23T13:26:50.000Z</time>
      </trkpt>
      <trkpt lat="45.14169" lon="6.35451">
        <ele>2695.3999023438</ele>
        <time>2015-03-23T13:26:53.000Z</time>
      </trkpt>
      <trkpt lat="45.14172" lon="6.35455">
        <ele>2695.1999511719</ele>
        <time>2015-03-23T13:26:55.000Z</time>
      </trkpt>
      <trkpt lat="45.14174" lon="6.35456">
        <ele>2695.1999511719</ele>
        <time>2015-03-23T13:26:58.000Z</time>
      </trkpt>
      <trkpt lat="45.14177" lon="6.35457">
        <ele>2696.1999511719</ele>
        <time>2015-03-23T13:27:08.000Z</time>
      </trkpt>
      <trkpt lat="45.14174" lon="6.35458">
        <ele>2696.1999511719</ele>
        <time>2015-03-23T13:27:19.000Z</time>
      </trkpt>
      <trkpt lat="45.14174" lon="6.35458">
        <ele>2696.3999023438</ele>
        <time>2015-03-23T13:27:20.000Z</time>
      </trkpt>
      <trkpt lat="45.14169" lon="6.35466">
        <ele>2695.8000488281</ele>
        <time>2015-03-23T13:27:33.000Z</time>
      </trkpt>
      <trkpt lat="45.14169" lon="6.35466">
        <ele>2697</ele>
        <time>2015-03-23T13:27:41.000Z</time>
      </trkpt>
      <trkpt lat="45.14171" lon="6.3547">
        <ele>2696.3999023438</ele>
        <time>2015-03-23T13:27:52.000Z</time>
      </trkpt>
      <trkpt lat="45.14175" lon="6.35475">
        <ele>2697.3999023438</ele>
        <time>2015-03-23T13:27:59.000Z</time>
      </trkpt>
      <trkpt lat="45.14178" lon="6.35478">
        <ele>2698.6000976562</ele>
        <time>2015-03-23T13:28:04.000Z</time>
      </trkpt>
      <trkpt lat="45.14178" lon="6.35479">
        <ele>2698.6000976562</ele>
        <time>2015-03-23T13:28:05.000Z</time>
      </trkpt>
      <trkpt lat="45.1418" lon="6.35483">
        <ele>2699.8000488281</ele>
        <time>2015-03-23T13:28:09.000Z</time>
      </trkpt>
      <trkpt lat="45.14181" lon="6.35486">
        <ele>2701</ele>
        <time>2015-03-23T13:28:14.000Z</time>
      </trkpt>
      <trkpt lat="45.14181" lon="6.35486">
        <ele>2701</ele>
        <time>2015-03-23T13:28:16.000Z</time>
      </trkpt>
      <trkpt lat="45.14181" lon="6.35486">
        <ele>2702</ele>
        <time>2015-03-23T13:28:24.000Z</time>
      </trkpt>
      <trkpt lat="45.14181" lon="6.35486">
        <ele>2702.8000488281</ele>
        <time>2015-03-23T13:28:27.000Z</time>
      </trkpt>
      <trkpt lat="45.14181" lon="6.35486">
        <ele>2703.1999511719</ele>
        <time>2015-03-23T13:28:37.000Z</time>
      </trkpt>
      <trkpt lat="45.14181" lon="6.35486">
        <ele>2703.1999511719</ele>
        <time>2015-03-23T13:28:38.000Z</time>
      </trkpt>
      <trkpt lat="45.14181" lon="6.35486">
        <ele>2704.1999511719</ele>
        <time>2015-03-23T13:28:47.000Z</time>
      </trkpt>
      <trkpt lat="45.14181" lon="6.35486">
        <ele>2704.3999023438</ele>
        <time>2015-03-23T13:28:48.000Z</time>
      </trkpt>
      <trkpt lat="45.14181" lon="6.35486">
        <ele>2704.3999023438</ele>
        <time>2015-03-23T13:28:49.000Z</time>
      </trkpt>
      <trkpt lat="45.14181" lon="6.35488">
        <ele>2705.6000976562</ele>
        <time>2015-03-23T13:28:54.000Z</time>
      </trkpt>
      <trkpt lat="45.14181" lon="6.35488">
        <ele>2706.3999023438</ele>
        <time>2015-03-23T13:28:59.000Z</time>
      </trkpt>
      <trkpt lat="45.14181" lon="6.35488">
        <ele>2706.6000976562</ele>
        <time>2015-03-23T13:29:07.000Z</time>
      </trkpt>
      <trkpt lat="45.14181" lon="6.35488">
        <ele>2707.3999023438</ele>
        <time>2015-03-23T13:29:11.000Z</time>
      </trkpt>
      <trkpt lat="45.14181" lon="6.35488">
        <ele>2707.8000488281</ele>
        <time>2015-03-23T13:29:14.000Z</time>
      </trkpt>
      <trkpt lat="45.14181" lon="6.35488">
        <ele>2708.8000488281</ele>
        <time>2015-03-23T13:29:21.000Z</time>
      </trkpt>
      <trkpt lat="45.14181" lon="6.35489">
        <ele>2709.8000488281</ele>
        <time>2015-03-23T13:29:32.000Z</time>
      </trkpt>
      <trkpt lat="45.14181" lon="6.35489">
        <ele>2710</ele>
        <time>2015-03-23T13:29:33.000Z</time>
      </trkpt>
      <trkpt lat="45.14181" lon="6.35489">
        <ele>2711</ele>
        <time>2015-03-23T13:29:42.000Z</time>
      </trkpt>
      <trkpt lat="45.14181" lon="6.35489">
        <ele>2711</ele>
        <time>2015-03-23T13:29:43.000Z</time>
      </trkpt>
      <trkpt lat="45.14181" lon="6.35489">
        <ele>2712</ele>
        <time>2015-03-23T13:29:54.000Z</time>
      </trkpt>
      <trkpt lat="45.14181" lon="6.35489">
        <ele>2713.1999511719</ele>
        <time>2015-03-23T13:29:59.000Z</time>
      </trkpt>
      <trkpt lat="45.14181" lon="6.35489">
        <ele>2714.1999511719</ele>
        <time>2015-03-23T13:30:03.000Z</time>
      </trkpt>
      <trkpt lat="45.14181" lon="6.35489">
        <ele>2714.3999023438</ele>
        <time>2015-03-23T13:30:06.000Z</time>
      </trkpt>
      <trkpt lat="45.14182" lon="6.35489">
        <ele>2714.3999023438</ele>
        <time>2015-03-23T13:30:14.000Z</time>
      </trkpt>
      <trkpt lat="45.14183" lon="6.35491">
        <ele>2714.6000976562</ele>
        <time>2015-03-23T13:30:24.000Z</time>
      </trkpt>
      <trkpt lat="45.14189" lon="6.35497">
        <ele>2714.8000488281</ele>
        <time>2015-03-23T13:30:32.000Z</time>
      </trkpt>
      <trkpt lat="45.14194" lon="6.35503">
        <ele>2715.3999023438</ele>
        <time>2015-03-23T13:30:35.000Z</time>
      </trkpt>
      <trkpt lat="45.14198" lon="6.35507">
        <ele>2716.1999511719</ele>
        <time>2015-03-23T13:30:38.000Z</time>
      </trkpt>
      <trkpt lat="45.14199" lon="6.35508">
        <ele>2716.3999023438</ele>
        <time>2015-03-23T13:30:39.000Z</time>
      </trkpt>
      <trkpt lat="45.142" lon="6.35508">
        <ele>2716.6000976562</ele>
        <time>2015-03-23T13:30:40.000Z</time>
      </trkpt>
      <trkpt lat="45.14202" lon="6.35509">
        <ele>2716.6000976562</ele>
        <time>2015-03-23T13:30:41.000Z</time>
      </trkpt>
      <trkpt lat="45.14204" lon="6.35514">
        <ele>2717.1999511719</ele>
        <time>2015-03-23T13:30:46.000Z</time>
      </trkpt>
      <trkpt lat="45.14205" lon="6.35515">
        <ele>2717.6000976562</ele>
        <time>2015-03-23T13:30:48.000Z</time>
      </trkpt>
      <trkpt lat="45.14202" lon="6.35521">
        <ele>2718.1999511719</ele>
        <time>2015-03-23T13:30:58.000Z</time>
      </trkpt>
      <trkpt lat="45.14196" lon="6.35521">
        <ele>2718.3999023438</ele>
        <time>2015-03-23T13:31:05.000Z</time>
      </trkpt>
      <trkpt lat="45.14196" lon="6.35521">
        <ele>2718.8000488281</ele>
        <time>2015-03-23T13:31:12.000Z</time>
      </trkpt>
      <trkpt lat="45.14196" lon="6.35521">
        <ele>2719.8000488281</ele>
        <time>2015-03-23T13:31:16.000Z</time>
      </trkpt>
      <trkpt lat="45.14196" lon="6.35521">
        <ele>2720</ele>
        <time>2015-03-23T13:31:22.000Z</time>
      </trkpt>
      <trkpt lat="45.14196" lon="6.35521">
        <ele>2721</ele>
        <time>2015-03-23T13:31:26.000Z</time>
      </trkpt>
      <trkpt lat="45.14196" lon="6.35521">
        <ele>2721.6000976562</ele>
        <time>2015-03-23T13:31:32.000Z</time>
      </trkpt>
      <trkpt lat="45.14196" lon="6.35521">
        <ele>2722</ele>
        <time>2015-03-23T13:31:34.000Z</time>
      </trkpt>
      <trkpt lat="45.14196" lon="6.35521">
        <ele>2722.6000976562</ele>
        <time>2015-03-23T13:31:41.000Z</time>
      </trkpt>
      <trkpt lat="45.14196" lon="6.35522">
        <ele>2722.8000488281</ele>
        <time>2015-03-23T13:32:02.000Z</time>
      </trkpt>
      <trkpt lat="45.14197" lon="6.35522">
        <ele>2722.8000488281</ele>
        <time>2015-03-23T13:32:12.000Z</time>
      </trkpt>
      <trkpt lat="45.14204" lon="6.35533">
        <ele>2722.6000976562</ele>
        <time>2015-03-23T13:32:20.000Z</time>
      </trkpt>
      <trkpt lat="45.14209" lon="6.35543">
        <ele>2722.8000488281</ele>
        <time>2015-03-23T13:32:30.000Z</time>
      </trkpt>
      <trkpt lat="45.1421" lon="6.35545">
        <ele>2723.1999511719</ele>
        <time>2015-03-23T13:32:32.000Z</time>
      </trkpt>
      <trkpt lat="45.14214" lon="6.35549">
        <ele>2724.1999511719</ele>
        <time>2015-03-23T13:32:38.000Z</time>
      </trkpt>
      <trkpt lat="45.14213" lon="6.35549">
        <ele>2724.3999023438</ele>
        <time>2015-03-23T13:32:39.000Z</time>
      </trkpt>
      <trkpt lat="45.14214" lon="6.35551">
        <ele>2725.3999023438</ele>
        <time>2015-03-23T13:32:42.000Z</time>
      </trkpt>
      <trkpt lat="45.14214" lon="6.35552">
        <ele>2725.8000488281</ele>
        <time>2015-03-23T13:32:44.000Z</time>
      </trkpt>
      <trkpt lat="45.14212" lon="6.35555">
        <ele>2726.3999023438</ele>
        <time>2015-03-23T13:32:48.000Z</time>
      </trkpt>
      <trkpt lat="45.14215" lon="6.35561">
        <ele>2727.3999023438</ele>
        <time>2015-03-23T13:32:56.000Z</time>
      </trkpt>
      <trkpt lat="45.14216" lon="6.35561">
        <ele>2727.6000976562</ele>
        <time>2015-03-23T13:32:58.000Z</time>
      </trkpt>
      <trkpt lat="45.14216" lon="6.35561">
        <ele>2727.8000488281</ele>
        <time>2015-03-23T13:33:09.000Z</time>
      </trkpt>
      <trkpt lat="45.14216" lon="6.35561">
        <ele>2727.8000488281</ele>
        <time>2015-03-23T13:33:19.000Z</time>
      </trkpt>
      <trkpt lat="45.14216" lon="6.35561">
        <ele>2728.6000976562</ele>
        <time>2015-03-23T13:33:29.000Z</time>
      </trkpt>
      <trkpt lat="45.14216" lon="6.35561">
        <ele>2728.6000976562</ele>
        <time>2015-03-23T13:33:30.000Z</time>
      </trkpt>
      <trkpt lat="45.14216" lon="6.35561">
        <ele>2728.6000976562</ele>
        <time>2015-03-23T13:33:38.000Z</time>
      </trkpt>
      <trkpt lat="45.14215" lon="6.35562">
        <ele>2729.3999023438</ele>
        <time>2015-03-23T13:33:48.000Z</time>
      </trkpt>
      <trkpt lat="45.14215" lon="6.35562">
        <ele>2729.6000976562</ele>
        <time>2015-03-23T13:33:52.000Z</time>
      </trkpt>
      <trkpt lat="45.14215" lon="6.35564">
        <ele>2729.8000488281</ele>
        <time>2015-03-23T13:34:01.000Z</time>
      </trkpt>
      <trkpt lat="45.14214" lon="6.35569">
        <ele>2730.6000976562</ele>
        <time>2015-03-23T13:34:05.000Z</time>
      </trkpt>
      <trkpt lat="45.14216" lon="6.35571">
        <ele>2731.3999023438</ele>
        <time>2015-03-23T13:34:10.000Z</time>
      </trkpt>
      <trkpt lat="45.14216" lon="6.35571">
        <ele>2731.8000488281</ele>
        <time>2015-03-23T13:34:12.000Z</time>
      </trkpt>
      <trkpt lat="45.14216" lon="6.35571">
        <ele>2733</ele>
        <time>2015-03-23T13:34:17.000Z</time>
      </trkpt>
      <trkpt lat="45.14216" lon="6.35571">
        <ele>2733.1999511719</ele>
        <time>2015-03-23T13:34:20.000Z</time>
      </trkpt>
      <trkpt lat="45.14216" lon="6.35571">
        <ele>2734</ele>
        <time>2015-03-23T13:34:38.000Z</time>
      </trkpt>
      <trkpt lat="45.14216" lon="6.35571">
        <ele>2735.1999511719</ele>
        <time>2015-03-23T13:34:42.000Z</time>
      </trkpt>
      <trkpt lat="45.14216" lon="6.35571">
        <ele>2735.6000976562</ele>
        <time>2015-03-23T13:34:44.000Z</time>
      </trkpt>
      <trkpt lat="45.14216" lon="6.35571">
        <ele>2736.3999023438</ele>
        <time>2015-03-23T13:34:47.000Z</time>
      </trkpt>
      <trkpt lat="45.14214" lon="6.35571">
        <ele>2737</ele>
        <time>2015-03-23T13:34:53.000Z</time>
      </trkpt>
      <trkpt lat="45.14204" lon="6.35575">
        <ele>2737.1999511719</ele>
        <time>2015-03-23T13:34:58.000Z</time>
      </trkpt>
      <trkpt lat="45.1419" lon="6.35575">
        <ele>2737.3999023438</ele>
        <time>2015-03-23T13:35:03.000Z</time>
      </trkpt>
      <trkpt lat="45.14186" lon="6.35575">
        <ele>2737.6000976562</ele>
        <time>2015-03-23T13:35:04.000Z</time>
      </trkpt>
      <trkpt lat="45.14174" lon="6.35573">
        <ele>2738.6000976562</ele>
        <time>2015-03-23T13:35:09.000Z</time>
      </trkpt>
      <trkpt lat="45.14169" lon="6.35572">
        <ele>2738.6000976562</ele>
        <time>2015-03-23T13:35:11.000Z</time>
      </trkpt>
      <trkpt lat="45.14157" lon="6.35572">
        <ele>2739.1999511719</ele>
        <time>2015-03-23T13:35:18.000Z</time>
      </trkpt>
      <trkpt lat="45.14153" lon="6.35572">
        <ele>2739.8000488281</ele>
        <time>2015-03-23T13:35:20.000Z</time>
      </trkpt>
      <trkpt lat="45.14064" lon="6.35564">
        <ele>2743</ele>
        <time>2015-03-23T13:35:53.000Z</time>
      </trkpt>
      <trkpt lat="45.14072" lon="6.35566">
        <ele>2743.6000976562</ele>
        <time>2015-03-23T13:35:55.000Z</time>
      </trkpt>
      <trkpt lat="45.14086" lon="6.35571">
        <ele>2744.3999023438</ele>
        <time>2015-03-23T13:36:03.000Z</time>
      </trkpt>
      <trkpt lat="45.14088" lon="6.35571">
        <ele>2744.6000976562</ele>
        <time>2015-03-23T13:36:05.000Z</time>
      </trkpt>
      <trkpt lat="45.14088" lon="6.35571">
        <ele>2745.1999511719</ele>
        <time>2015-03-23T13:36:11.000Z</time>
      </trkpt>
      <trkpt lat="45.14088" lon="6.35571">
        <ele>2745.3999023438</ele>
        <time>2015-03-23T13:36:22.000Z</time>
      </trkpt>
      <trkpt lat="45.14088" lon="6.35571">
        <ele>2745.8000488281</ele>
        <time>2015-03-23T13:36:26.000Z</time>
      </trkpt>
      <trkpt lat="45.14088" lon="6.35571">
        <ele>2746.1999511719</ele>
        <time>2015-03-23T13:36:32.000Z</time>
      </trkpt>
      <trkpt lat="45.14093" lon="6.35571">
        <ele>2746.3999023438</ele>
        <time>2015-03-23T13:36:36.000Z</time>
      </trkpt>
      <trkpt lat="45.14098" lon="6.35571">
        <ele>2747</ele>
        <time>2015-03-23T13:36:38.000Z</time>
      </trkpt>
      <trkpt lat="45.14101" lon="6.35571">
        <ele>2747.1999511719</ele>
        <time>2015-03-23T13:36:39.000Z</time>
      </trkpt>
      <trkpt lat="45.14109" lon="6.3557">
        <ele>2748.1999511719</ele>
        <time>2015-03-23T13:36:43.000Z</time>
      </trkpt>
      <trkpt lat="45.14117" lon="6.35568">
        <ele>2748.8000488281</ele>
        <time>2015-03-23T13:36:47.000Z</time>
      </trkpt>
      <trkpt lat="45.14126" lon="6.35565">
        <ele>2749.1999511719</ele>
        <time>2015-03-23T13:36:52.000Z</time>
      </trkpt>
      <trkpt lat="45.14129" lon="6.35564">
        <ele>2749.6000976562</ele>
        <time>2015-03-23T13:36:54.000Z</time>
      </trkpt>
      <trkpt lat="45.14134" lon="6.35562">
        <ele>2750.3999023438</ele>
        <time>2015-03-23T13:37:00.000Z</time>
      </trkpt>
      <trkpt lat="45.14134" lon="6.35562">
        <ele>2750.8000488281</ele>
        <time>2015-03-23T13:37:02.000Z</time>
      </trkpt>
      <trkpt lat="45.14134" lon="6.35562">
        <ele>2751.3999023438</ele>
        <time>2015-03-23T13:37:06.000Z</time>
      </trkpt>
      <trkpt lat="45.14134" lon="6.35562">
        <ele>2752</ele>
        <time>2015-03-23T13:37:11.000Z</time>
      </trkpt>
      <trkpt lat="45.14134" lon="6.35562">
        <ele>2752.6000976562</ele>
        <time>2015-03-23T13:37:14.000Z</time>
      </trkpt>
      <trkpt lat="45.14134" lon="6.35562">
        <ele>2753.3999023438</ele>
        <time>2015-03-23T13:37:22.000Z</time>
      </trkpt>
      <trkpt lat="45.14134" lon="6.35562">
        <ele>2753.6000976562</ele>
        <time>2015-03-23T13:37:29.000Z</time>
      </trkpt>
      <trkpt lat="45.14134" lon="6.35562">
        <ele>2754</ele>
        <time>2015-03-23T13:37:32.000Z</time>
      </trkpt>
      <trkpt lat="45.14134" lon="6.35562">
        <ele>2754.8000488281</ele>
        <time>2015-03-23T13:37:35.000Z</time>
      </trkpt>
      <trkpt lat="45.14134" lon="6.35562">
        <ele>2755.3999023438</ele>
        <time>2015-03-23T13:37:42.000Z</time>
      </trkpt>
      <trkpt lat="45.14134" lon="6.35562">
        <ele>2755.8000488281</ele>
        <time>2015-03-23T13:37:47.000Z</time>
      </trkpt>
      <trkpt lat="45.14134" lon="6.35562">
        <ele>2756.3999023438</ele>
        <time>2015-03-23T13:37:55.000Z</time>
      </trkpt>
      <trkpt lat="45.14134" lon="6.35562">
        <ele>2757</ele>
        <time>2015-03-23T13:38:00.000Z</time>
      </trkpt>
      <trkpt lat="45.14133" lon="6.35565">
        <ele>2757.1999511719</ele>
        <time>2015-03-23T13:38:04.000Z</time>
      </trkpt>
      <trkpt lat="45.14131" lon="6.35577">
        <ele>2757.8000488281</ele>
        <time>2015-03-23T13:38:11.000Z</time>
      </trkpt>
      <trkpt lat="45.14131" lon="6.35578">
        <ele>2758</ele>
        <time>2015-03-23T13:38:12.000Z</time>
      </trkpt>
      <trkpt lat="45.14135" lon="6.35581">
        <ele>2759.1999511719</ele>
        <time>2015-03-23T13:38:17.000Z</time>
      </trkpt>
      <trkpt lat="45.14137" lon="6.35583">
        <ele>2759.3999023438</ele>
        <time>2015-03-23T13:38:19.000Z</time>
      </trkpt>
      <trkpt lat="45.14134" lon="6.3559">
        <ele>2760.3999023438</ele>
        <time>2015-03-23T13:38:28.000Z</time>
      </trkpt>
      <trkpt lat="45.14134" lon="6.35592">
        <ele>2761.3999023438</ele>
        <time>2015-03-23T13:38:34.000Z</time>
      </trkpt>
      <trkpt lat="45.14135" lon="6.35594">
        <ele>2761.1999511719</ele>
        <time>2015-03-23T13:38:36.000Z</time>
      </trkpt>
      <trkpt lat="45.14136" lon="6.35595">
        <ele>2762.3999023438</ele>
        <time>2015-03-23T13:38:43.000Z</time>
      </trkpt>
      <trkpt lat="45.14136" lon="6.35595">
        <ele>2762.8000488281</ele>
        <time>2015-03-23T13:38:46.000Z</time>
      </trkpt>
      <trkpt lat="45.14136" lon="6.35595">
        <ele>2763.1999511719</ele>
        <time>2015-03-23T13:38:55.000Z</time>
      </trkpt>
      <trkpt lat="45.14136" lon="6.35595">
        <ele>2763.6000976562</ele>
        <time>2015-03-23T13:38:57.000Z</time>
      </trkpt>
      <trkpt lat="45.14136" lon="6.35595">
        <ele>2764.1999511719</ele>
        <time>2015-03-23T13:39:02.000Z</time>
      </trkpt>
      <trkpt lat="45.14136" lon="6.35596">
        <ele>2764.3999023438</ele>
        <time>2015-03-23T13:39:04.000Z</time>
      </trkpt>
      <trkpt lat="45.14137" lon="6.35597">
        <ele>2764.8000488281</ele>
        <time>2015-03-23T13:39:06.000Z</time>
      </trkpt>
      <trkpt lat="45.14139" lon="6.35602">
        <ele>2765.8000488281</ele>
        <time>2015-03-23T13:39:11.000Z</time>
      </trkpt>
      <trkpt lat="45.14138" lon="6.35605">
        <ele>2766</ele>
        <time>2015-03-23T13:39:13.000Z</time>
      </trkpt>
      <trkpt lat="45.14135" lon="6.35612">
        <ele>2766.3999023438</ele>
        <time>2015-03-23T13:39:17.000Z</time>
      </trkpt>
      <trkpt lat="45.14116" lon="6.35632">
        <ele>2767</ele>
        <time>2015-03-23T13:39:27.000Z</time>
      </trkpt>
      <trkpt lat="45.14095" lon="6.35645">
        <ele>2767.6000976562</ele>
        <time>2015-03-23T13:39:31.000Z</time>
      </trkpt>
      <trkpt lat="45.14075" lon="6.35656">
        <ele>2768</ele>
        <time>2015-03-23T13:39:35.000Z</time>
      </trkpt>
      <trkpt lat="45.14061" lon="6.35661">
        <ele>2768.6000976562</ele>
        <time>2015-03-23T13:39:38.000Z</time>
      </trkpt>
      <trkpt lat="45.14045" lon="6.35669">
        <ele>2768.6000976562</ele>
        <time>2015-03-23T13:39:41.000Z</time>
      </trkpt>
      <trkpt lat="45.14033" lon="6.35678">
        <ele>2768.8000488281</ele>
        <time>2015-03-23T13:39:44.000Z</time>
      </trkpt>
      <trkpt lat="45.14025" lon="6.35683">
        <ele>2769</ele>
        <time>2015-03-23T13:39:46.000Z</time>
      </trkpt>
      <trkpt lat="45.14007" lon="6.35696">
        <ele>2769.1999511719</ele>
        <time>2015-03-23T13:39:50.000Z</time>
      </trkpt>
      <trkpt lat="45.13979" lon="6.35714">
        <ele>2770</ele>
        <time>2015-03-23T13:39:56.000Z</time>
      </trkpt>
      <trkpt lat="45.13976" lon="6.35717">
        <ele>2770.3999023438</ele>
        <time>2015-03-23T13:39:57.000Z</time>
      </trkpt>
      <trkpt lat="45.13967" lon="6.35725">
        <ele>2771.1999511719</ele>
        <time>2015-03-23T13:40:00.000Z</time>
      </trkpt>
      <trkpt lat="45.13962" lon="6.3573">
        <ele>2771.1999511719</ele>
        <time>2015-03-23T13:40:01.000Z</time>
      </trkpt>
      <trkpt lat="45.13957" lon="6.35735">
        <ele>2771.3999023438</ele>
        <time>2015-03-23T13:40:02.000Z</time>
      </trkpt>
      <trkpt lat="45.13928" lon="6.35759">
        <ele>2772</ele>
        <time>2015-03-23T13:40:09.000Z</time>
      </trkpt>
      <trkpt lat="45.13916" lon="6.35771">
        <ele>2772.1999511719</ele>
        <time>2015-03-23T13:40:14.000Z</time>
      </trkpt>
      <trkpt lat="45.13916" lon="6.35772">
        <ele>2772.3999023438</ele>
        <time>2015-03-23T13:40:15.000Z</time>
      </trkpt>
      <trkpt lat="45.13924" lon="6.35774">
        <ele>2773.1999511719</ele>
        <time>2015-03-23T13:40:19.000Z</time>
      </trkpt>
      <trkpt lat="45.13931" lon="6.35776">
        <ele>2773.3999023438</ele>
        <time>2015-03-23T13:40:21.000Z</time>
      </trkpt>
      <trkpt lat="45.13956" lon="6.35763">
        <ele>2773.1999511719</ele>
        <time>2015-03-23T13:40:29.000Z</time>
      </trkpt>
      <trkpt lat="45.13971" lon="6.35757">
        <ele>2774</ele>
        <time>2015-03-23T13:40:36.000Z</time>
      </trkpt>
      <trkpt lat="45.13979" lon="6.3576">
        <ele>2774.3999023438</ele>
        <time>2015-03-23T13:40:38.000Z</time>
      </trkpt>
      <trkpt lat="45.13979" lon="6.3576">
        <ele>2775.3999023438</ele>
        <time>2015-03-23T13:40:42.000Z</time>
      </trkpt>
      <trkpt lat="45.13979" lon="6.3576">
        <ele>2775.3999023438</ele>
        <time>2015-03-23T13:40:43.000Z</time>
      </trkpt>
      <trkpt lat="45.13979" lon="6.3576">
        <ele>2776.3999023438</ele>
        <time>2015-03-23T13:40:47.000Z</time>
      </trkpt>
      <trkpt lat="45.13979" lon="6.3576">
        <ele>2777</ele>
        <time>2015-03-23T13:40:56.000Z</time>
      </trkpt>
      <trkpt lat="45.13979" lon="6.3576">
        <ele>2777.6000976562</ele>
        <time>2015-03-23T13:40:59.000Z</time>
      </trkpt>
      <trkpt lat="45.13979" lon="6.3576">
        <ele>2778.1999511719</ele>
        <time>2015-03-23T13:41:04.000Z</time>
      </trkpt>
      <trkpt lat="45.13979" lon="6.3576">
        <ele>2778.6000976562</ele>
        <time>2015-03-23T13:41:13.000Z</time>
      </trkpt>
      <trkpt lat="45.14015" lon="6.35775">
        <ele>2778.8000488281</ele>
        <time>2015-03-23T13:41:18.000Z</time>
      </trkpt>
      <trkpt lat="45.14015" lon="6.35775">
        <ele>2779.6000976562</ele>
        <time>2015-03-23T13:41:24.000Z</time>
      </trkpt>
      <trkpt lat="45.14015" lon="6.35775">
        <ele>2780</ele>
        <time>2015-03-23T13:41:25.000Z</time>
      </trkpt>
      <trkpt lat="45.14015" lon="6.35775">
        <ele>2780.8000488281</ele>
        <time>2015-03-23T13:41:28.000Z</time>
      </trkpt>
      <trkpt lat="45.14015" lon="6.35775">
        <ele>2781.8000488281</ele>
        <time>2015-03-23T13:41:31.000Z</time>
      </trkpt>
      <trkpt lat="45.14015" lon="6.35775">
        <ele>2782</ele>
        <time>2015-03-23T13:41:34.000Z</time>
      </trkpt>
      <trkpt lat="45.14015" lon="6.35775">
        <ele>2782.1999511719</ele>
        <time>2015-03-23T13:41:41.000Z</time>
      </trkpt>
      <trkpt lat="45.14015" lon="6.35775">
        <ele>2782.8000488281</ele>
        <time>2015-03-23T13:41:45.000Z</time>
      </trkpt>
      <trkpt lat="45.14015" lon="6.35775">
        <ele>2783.1999511719</ele>
        <time>2015-03-23T13:41:53.000Z</time>
      </trkpt>
      <trkpt lat="45.14034" lon="6.35783">
        <ele>2784</ele>
        <time>2015-03-23T13:41:58.000Z</time>
      </trkpt>
      <trkpt lat="45.14034" lon="6.35783">
        <ele>2785.1999511719</ele>
        <time>2015-03-23T13:42:01.000Z</time>
      </trkpt>
      <trkpt lat="45.14034" lon="6.35783">
        <ele>2785.3999023438</ele>
        <time>2015-03-23T13:42:02.000Z</time>
      </trkpt>
      <trkpt lat="45.14034" lon="6.35783">
        <ele>2785.6000976562</ele>
        <time>2015-03-23T13:42:10.000Z</time>
      </trkpt>
      <trkpt lat="45.14034" lon="6.35783">
        <ele>2786.3999023438</ele>
        <time>2015-03-23T13:42:13.000Z</time>
      </trkpt>
      <trkpt lat="45.14034" lon="6.35783">
        <ele>2786.6000976562</ele>
        <time>2015-03-23T13:42:22.000Z</time>
      </trkpt>
      <trkpt lat="45.14034" lon="6.35783">
        <ele>2787.3999023438</ele>
        <time>2015-03-23T13:42:27.000Z</time>
      </trkpt>
      <trkpt lat="45.14034" lon="6.35783">
        <ele>2788</ele>
        <time>2015-03-23T13:42:29.000Z</time>
      </trkpt>
      <trkpt lat="45.14034" lon="6.35783">
        <ele>2788.3999023438</ele>
        <time>2015-03-23T13:42:34.000Z</time>
      </trkpt>
      <trkpt lat="45.14042" lon="6.35786">
        <ele>2789</ele>
        <time>2015-03-23T13:42:39.000Z</time>
      </trkpt>
      <trkpt lat="45.14042" lon="6.35786">
        <ele>2789.6000976562</ele>
        <time>2015-03-23T13:42:41.000Z</time>
      </trkpt>
      <trkpt lat="45.14042" lon="6.35786">
        <ele>2790</ele>
        <time>2015-03-23T13:42:46.000Z</time>
      </trkpt>
      <trkpt lat="45.14042" lon="6.35786">
        <ele>2791</ele>
        <time>2015-03-23T13:42:53.000Z</time>
      </trkpt>
      <trkpt lat="45.14042" lon="6.35786">
        <ele>2791</ele>
        <time>2015-03-23T13:42:54.000Z</time>
      </trkpt>
      <trkpt lat="45.14042" lon="6.35786">
        <ele>2791.1999511719</ele>
        <time>2015-03-23T13:43:07.000Z</time>
      </trkpt>
      <trkpt lat="45.14042" lon="6.35786">
        <ele>2792.1999511719</ele>
        <time>2015-03-23T13:43:12.000Z</time>
      </trkpt>
      <trkpt lat="45.14042" lon="6.35786">
        <ele>2792.6000976562</ele>
        <time>2015-03-23T13:43:16.000Z</time>
      </trkpt>
      <trkpt lat="45.14048" lon="6.35786">
        <ele>2793.1999511719</ele>
        <time>2015-03-23T13:43:22.000Z</time>
      </trkpt>
      <trkpt lat="45.14048" lon="6.35786">
        <ele>2793.1999511719</ele>
        <time>2015-03-23T13:43:26.000Z</time>
      </trkpt>
      <trkpt lat="45.14048" lon="6.35786">
        <ele>2794.1999511719</ele>
        <time>2015-03-23T13:43:33.000Z</time>
      </trkpt>
      <trkpt lat="45.14048" lon="6.35786">
        <ele>2794.3999023438</ele>
        <time>2015-03-23T13:43:38.000Z</time>
      </trkpt>
      <trkpt lat="45.14048" lon="6.35786">
        <ele>2795.3999023438</ele>
        <time>2015-03-23T13:43:44.000Z</time>
      </trkpt>
      <trkpt lat="45.14048" lon="6.35786">
        <ele>2795.6000976562</ele>
        <time>2015-03-23T13:43:48.000Z</time>
      </trkpt>
      <trkpt lat="45.14048" lon="6.35786">
        <ele>2796.3999023438</ele>
        <time>2015-03-23T13:43:53.000Z</time>
      </trkpt>
      <trkpt lat="45.14068" lon="6.35762">
        <ele>2796.1999511719</ele>
        <time>2015-03-23T13:43:58.000Z</time>
      </trkpt>
      <trkpt lat="45.14068" lon="6.35762">
        <ele>2797</ele>
        <time>2015-03-23T13:44:05.000Z</time>
      </trkpt>
      <trkpt lat="45.14068" lon="6.35762">
        <ele>2797.6000976562</ele>
        <time>2015-03-23T13:44:07.000Z</time>
      </trkpt>
      <trkpt lat="45.14068" lon="6.35762">
        <ele>2797.8000488281</ele>
        <time>2015-03-23T13:44:16.000Z</time>
      </trkpt>
      <trkpt lat="45.14068" lon="6.35762">
        <ele>2798.6000976562</ele>
        <time>2015-03-23T13:44:21.000Z</time>
      </trkpt>
      <trkpt lat="45.14068" lon="6.35762">
        <ele>2798.3999023438</ele>
        <time>2015-03-23T13:44:31.000Z</time>
      </trkpt>
      <trkpt lat="45.14086" lon="6.35743">
        <ele>2799.6000976562</ele>
        <time>2015-03-23T13:44:40.000Z</time>
      </trkpt>
      <trkpt lat="45.14086" lon="6.35743">
        <ele>2800</ele>
        <time>2015-03-23T13:44:41.000Z</time>
      </trkpt>
      <trkpt lat="45.14086" lon="6.35743">
        <ele>2800.8000488281</ele>
        <time>2015-03-23T13:44:45.000Z</time>
      </trkpt>
      <trkpt lat="45.14086" lon="6.35743">
        <ele>2801</ele>
        <time>2015-03-23T13:44:52.000Z</time>
      </trkpt>
      <trkpt lat="45.14086" lon="6.35743">
        <ele>2801.8000488281</ele>
        <time>2015-03-23T13:45:00.000Z</time>
      </trkpt>
      <trkpt lat="45.14086" lon="6.35743">
        <ele>2801.8000488281</ele>
        <time>2015-03-23T13:45:04.000Z</time>
      </trkpt>
      <trkpt lat="45.14086" lon="6.35743">
        <ele>2802.8000488281</ele>
        <time>2015-03-23T13:45:12.000Z</time>
      </trkpt>
      <trkpt lat="45.14086" lon="6.35743">
        <ele>2803</ele>
        <time>2015-03-23T13:45:14.000Z</time>
      </trkpt>
      <trkpt lat="45.14109" lon="6.35721">
        <ele>2803.3999023438</ele>
        <time>2015-03-23T13:45:27.000Z</time>
      </trkpt>
      <trkpt lat="45.14109" lon="6.35721">
        <ele>2803.8000488281</ele>
        <time>2015-03-23T13:45:37.000Z</time>
      </trkpt>
      <trkpt lat="45.14109" lon="6.35721">
        <ele>2804</ele>
        <time>2015-03-23T13:45:38.000Z</time>
      </trkpt>
      <trkpt lat="45.14109" lon="6.35721">
        <ele>2805</ele>
        <time>2015-03-23T13:45:45.000Z</time>
      </trkpt>
      <trkpt lat="45.14109" lon="6.35721">
        <ele>2805</ele>
        <time>2015-03-23T13:45:46.000Z</time>
      </trkpt>
      <trkpt lat="45.14109" lon="6.35721">
        <ele>2806.1999511719</ele>
        <time>2015-03-23T13:45:56.000Z</time>
      </trkpt>
      <trkpt lat="45.14114" lon="6.35715">
        <ele>2807.1999511719</ele>
        <time>2015-03-23T13:46:04.000Z</time>
      </trkpt>
      <trkpt lat="45.14114" lon="6.35715">
        <ele>2807.3999023438</ele>
        <time>2015-03-23T13:46:06.000Z</time>
      </trkpt>
      <trkpt lat="45.14114" lon="6.35715">
        <ele>2808.1999511719</ele>
        <time>2015-03-23T13:46:13.000Z</time>
      </trkpt>
      <trkpt lat="45.14114" lon="6.35715">
        <ele>2809</ele>
        <time>2015-03-23T13:46:18.000Z</time>
      </trkpt>
      <trkpt lat="45.14114" lon="6.35715">
        <ele>2809.3999023438</ele>
        <time>2015-03-23T13:46:20.000Z</time>
      </trkpt>
      <trkpt lat="45.14114" lon="6.35715">
        <ele>2810.1999511719</ele>
        <time>2015-03-23T13:46:29.000Z</time>
      </trkpt>
      <trkpt lat="45.14119" lon="6.35709">
        <ele>2810.3999023438</ele>
        <time>2015-03-23T13:46:39.000Z</time>
      </trkpt>
      <trkpt lat="45.14119" lon="6.35709">
        <ele>2810.6000976562</ele>
        <time>2015-03-23T13:46:40.000Z</time>
      </trkpt>
      <trkpt lat="45.14119" lon="6.35709">
        <ele>2811.6000976562</ele>
        <time>2015-03-23T13:46:45.000Z</time>
      </trkpt>
      <trkpt lat="45.14119" lon="6.35709">
        <ele>2812</ele>
        <time>2015-03-23T13:46:49.000Z</time>
      </trkpt>
      <trkpt lat="45.14119" lon="6.35709">
        <ele>2812.8000488281</ele>
        <time>2015-03-23T13:46:55.000Z</time>
      </trkpt>
      <trkpt lat="45.14119" lon="6.35709">
        <ele>2812.8000488281</ele>
        <time>2015-03-23T13:47:02.000Z</time>
      </trkpt>
      <trkpt lat="45.14119" lon="6.35709">
        <ele>2813.8000488281</ele>
        <time>2015-03-23T13:47:07.000Z</time>
      </trkpt>
      <trkpt lat="45.14119" lon="6.35709">
        <ele>2815</ele>
        <time>2015-03-23T13:47:12.000Z</time>
      </trkpt>
      <trkpt lat="45.14127" lon="6.357">
        <ele>2815.1999511719</ele>
        <time>2015-03-23T13:47:27.000Z</time>
      </trkpt>
      <trkpt lat="45.14127" lon="6.357">
        <ele>2816</ele>
        <time>2015-03-23T13:47:34.000Z</time>
      </trkpt>
      <trkpt lat="45.14127" lon="6.357">
        <ele>2816</ele>
        <time>2015-03-23T13:47:35.000Z</time>
      </trkpt>
      <trkpt lat="45.14127" lon="6.357">
        <ele>2817.1999511719</ele>
        <time>2015-03-23T13:47:40.000Z</time>
      </trkpt>
      <trkpt lat="45.14127" lon="6.357">
        <ele>2818.3999023438</ele>
        <time>2015-03-23T13:47:45.000Z</time>
      </trkpt>
      <trkpt lat="45.14127" lon="6.357">
        <ele>2819.1999511719</ele>
        <time>2015-03-23T13:47:54.000Z</time>
      </trkpt>
      <trkpt lat="45.1413" lon="6.35696">
        <ele>2819.3999023438</ele>
        <time>2015-03-23T13:48:07.000Z</time>
      </trkpt>
      <trkpt lat="45.1413" lon="6.35696">
        <ele>2820.3999023438</ele>
        <time>2015-03-23T13:48:13.000Z</time>
      </trkpt>
      <trkpt lat="45.1413" lon="6.35696">
        <ele>2821.1999511719</ele>
        <time>2015-03-23T13:48:19.000Z</time>
      </trkpt>
      <trkpt lat="45.1413" lon="6.35696">
        <ele>2821.6000976562</ele>
        <time>2015-03-23T13:48:21.000Z</time>
      </trkpt>
      <trkpt lat="45.1413" lon="6.35696">
        <ele>2822</ele>
        <time>2015-03-23T13:48:28.000Z</time>
      </trkpt>
      <trkpt lat="45.1413" lon="6.35696">
        <ele>2822.6000976562</ele>
        <time>2015-03-23T13:48:32.000Z</time>
      </trkpt>
      <trkpt lat="45.14135" lon="6.35692">
        <ele>2822.3999023438</ele>
        <time>2015-03-23T13:48:38.000Z</time>
      </trkpt>
      <trkpt lat="45.14135" lon="6.35692">
        <ele>2823.3999023438</ele>
        <time>2015-03-23T13:48:44.000Z</time>
      </trkpt>
      <trkpt lat="45.14135" lon="6.35692">
        <ele>2823.6000976562</ele>
        <time>2015-03-23T13:48:45.000Z</time>
      </trkpt>
      <trkpt lat="45.14135" lon="6.35692">
        <ele>2824</ele>
        <time>2015-03-23T13:48:48.000Z</time>
      </trkpt>
      <trkpt lat="45.14135" lon="6.35692">
        <ele>2823.8000488281</ele>
        <time>2015-03-23T13:48:55.000Z</time>
      </trkpt>
      <trkpt lat="45.14135" lon="6.35692">
        <ele>2824.3999023438</ele>
        <time>2015-03-23T13:49:00.000Z</time>
      </trkpt>
      <trkpt lat="45.14135" lon="6.35692">
        <ele>2824.6000976562</ele>
        <time>2015-03-23T13:49:02.000Z</time>
      </trkpt>
      <trkpt lat="45.14135" lon="6.35692">
        <ele>2825.6000976562</ele>
        <time>2015-03-23T13:49:06.000Z</time>
      </trkpt>
      <trkpt lat="45.14135" lon="6.35692">
        <ele>2825.8000488281</ele>
        <time>2015-03-23T13:49:07.000Z</time>
      </trkpt>
      <trkpt lat="45.14135" lon="6.35692">
        <ele>2826.8000488281</ele>
        <time>2015-03-23T13:49:14.000Z</time>
      </trkpt>
      <trkpt lat="45.14135" lon="6.35692">
        <ele>2827.1999511719</ele>
        <time>2015-03-23T13:49:17.000Z</time>
      </trkpt>
      <trkpt lat="45.14144" lon="6.35694">
        <ele>2828</ele>
        <time>2015-03-23T13:49:23.000Z</time>
      </trkpt>
      <trkpt lat="45.14144" lon="6.35694">
        <ele>2829.1999511719</ele>
        <time>2015-03-23T13:49:28.000Z</time>
      </trkpt>
      <trkpt lat="45.14144" lon="6.35694">
        <ele>2829.6000976562</ele>
        <time>2015-03-23T13:49:31.000Z</time>
      </trkpt>
      <trkpt lat="45.14144" lon="6.35694">
        <ele>2830.1999511719</ele>
        <time>2015-03-23T13:49:36.000Z</time>
      </trkpt>
      <trkpt lat="45.14144" lon="6.35694">
        <ele>2830.3999023438</ele>
        <time>2015-03-23T13:49:37.000Z</time>
      </trkpt>
      <trkpt lat="45.14144" lon="6.35694">
        <ele>2831</ele>
        <time>2015-03-23T13:49:44.000Z</time>
      </trkpt>
      <trkpt lat="45.14144" lon="6.35694">
        <ele>2831.3999023438</ele>
        <time>2015-03-23T13:49:49.000Z</time>
      </trkpt>
      <trkpt lat="45.14144" lon="6.35694">
        <ele>2831.6000976562</ele>
        <time>2015-03-23T13:49:52.000Z</time>
      </trkpt>
      <trkpt lat="45.14148" lon="6.35693">
        <ele>2832.1999511719</ele>
        <time>2015-03-23T13:49:59.000Z</time>
      </trkpt>
      <trkpt lat="45.14148" lon="6.35693">
        <ele>2832.3999023438</ele>
        <time>2015-03-23T13:50:04.000Z</time>
      </trkpt>
      <trkpt lat="45.14148" lon="6.35693">
        <ele>2832.6000976562</ele>
        <time>2015-03-23T13:50:07.000Z</time>
      </trkpt>
      <trkpt lat="45.14148" lon="6.35693">
        <ele>2833.3999023438</ele>
        <time>2015-03-23T13:50:15.000Z</time>
      </trkpt>
      <trkpt lat="45.14148" lon="6.35693">
        <ele>2833.3999023438</ele>
        <time>2015-03-23T13:50:16.000Z</time>
      </trkpt>
      <trkpt lat="45.14148" lon="6.35693">
        <ele>2834.1999511719</ele>
        <time>2015-03-23T13:50:24.000Z</time>
      </trkpt>
      <trkpt lat="45.14148" lon="6.35693">
        <ele>2834.8000488281</ele>
        <time>2015-03-23T13:50:27.000Z</time>
      </trkpt>
      <trkpt lat="45.14148" lon="6.35693">
        <ele>2835.3999023438</ele>
        <time>2015-03-23T13:50:33.000Z</time>
      </trkpt>
      <trkpt lat="45.14149" lon="6.35692">
        <ele>2835.8000488281</ele>
        <time>2015-03-23T13:50:38.000Z</time>
      </trkpt>
      <trkpt lat="45.14149" lon="6.35692">
        <ele>2836.1999511719</ele>
        <time>2015-03-23T13:50:39.000Z</time>
      </trkpt>
      <trkpt lat="45.14149" lon="6.35692">
        <ele>2836.6000976562</ele>
        <time>2015-03-23T13:50:41.000Z</time>
      </trkpt>
      <trkpt lat="45.14149" lon="6.35692">
        <ele>2837.1999511719</ele>
        <time>2015-03-23T13:50:48.000Z</time>
      </trkpt>
      <trkpt lat="45.14149" lon="6.35692">
        <ele>2837.3999023438</ele>
        <time>2015-03-23T13:50:49.000Z</time>
      </trkpt>
      <trkpt lat="45.14149" lon="6.35692">
        <ele>2838.3999023438</ele>
        <time>2015-03-23T13:50:54.000Z</time>
      </trkpt>
      <trkpt lat="45.14149" lon="6.35692">
        <ele>2838.8000488281</ele>
        <time>2015-03-23T13:50:58.000Z</time>
      </trkpt>
      <trkpt lat="45.14149" lon="6.35692">
        <ele>2838.8000488281</ele>
        <time>2015-03-23T13:51:05.000Z</time>
      </trkpt>
      <trkpt lat="45.14149" lon="6.35692">
        <ele>2839.3999023438</ele>
        <time>2015-03-23T13:51:12.000Z</time>
      </trkpt>
      <trkpt lat="45.14149" lon="6.35692">
        <ele>2839.3999023438</ele>
        <time>2015-03-23T13:51:16.000Z</time>
      </trkpt>
      <trkpt lat="45.14153" lon="6.35691">
        <ele>2839.6000976562</ele>
        <time>2015-03-23T13:51:22.000Z</time>
      </trkpt>
      <trkpt lat="45.14153" lon="6.35691">
        <ele>2840.1999511719</ele>
        <time>2015-03-23T13:51:29.000Z</time>
      </trkpt>
      <trkpt lat="45.14153" lon="6.35691">
        <ele>2840.6000976562</ele>
        <time>2015-03-23T13:51:31.000Z</time>
      </trkpt>
      <trkpt lat="45.14153" lon="6.35691">
        <ele>2841.3999023438</ele>
        <time>2015-03-23T13:51:37.000Z</time>
      </trkpt>
      <trkpt lat="45.14153" lon="6.35691">
        <ele>2841.8000488281</ele>
        <time>2015-03-23T13:51:38.000Z</time>
      </trkpt>
      <trkpt lat="45.14153" lon="6.35691">
        <ele>2842.8000488281</ele>
        <time>2015-03-23T13:51:44.000Z</time>
      </trkpt>
      <trkpt lat="45.14153" lon="6.35691">
        <ele>2843</ele>
        <time>2015-03-23T13:51:46.000Z</time>
      </trkpt>
      <trkpt lat="45.14153" lon="6.35691">
        <ele>2844</ele>
        <time>2015-03-23T13:51:53.000Z</time>
      </trkpt>
      <trkpt lat="45.14153" lon="6.35691">
        <ele>2844.3999023438</ele>
        <time>2015-03-23T13:51:55.000Z</time>
      </trkpt>
      <trkpt lat="45.14154" lon="6.3569">
        <ele>2844.8000488281</ele>
        <time>2015-03-23T13:52:06.000Z</time>
      </trkpt>
      <trkpt lat="45.14154" lon="6.3569">
        <ele>2845.1999511719</ele>
        <time>2015-03-23T13:52:12.000Z</time>
      </trkpt>
      <trkpt lat="45.14154" lon="6.3569">
        <ele>2845.3999023438</ele>
        <time>2015-03-23T13:52:13.000Z</time>
      </trkpt>
      <trkpt lat="45.14154" lon="6.3569">
        <ele>2845.8000488281</ele>
        <time>2015-03-23T13:52:18.000Z</time>
      </trkpt>
      <trkpt lat="45.14154" lon="6.3569">
        <ele>2846.3999023438</ele>
        <time>2015-03-23T13:52:25.000Z</time>
      </trkpt>
      <trkpt lat="45.14154" lon="6.3569">
        <ele>2846.6000976562</ele>
        <time>2015-03-23T13:52:29.000Z</time>
      </trkpt>
      <trkpt lat="45.14154" lon="6.3569">
        <ele>2847.6000976562</ele>
        <time>2015-03-23T13:52:36.000Z</time>
      </trkpt>
      <trkpt lat="45.14157" lon="6.3569">
        <ele>2848</ele>
        <time>2015-03-23T13:52:40.000Z</time>
      </trkpt>
      <trkpt lat="45.14157" lon="6.3569">
        <ele>2847.8000488281</ele>
        <time>2015-03-23T13:52:53.000Z</time>
      </trkpt>
      <trkpt lat="45.14157" lon="6.3569">
        <ele>2848.6000976562</ele>
        <time>2015-03-23T13:52:58.000Z</time>
      </trkpt>
      <trkpt lat="45.14157" lon="6.3569">
        <ele>2848.8000488281</ele>
        <time>2015-03-23T13:53:03.000Z</time>
      </trkpt>
      <trkpt lat="45.14157" lon="6.3569">
        <ele>2849.8000488281</ele>
        <time>2015-03-23T13:53:13.000Z</time>
      </trkpt>
      <trkpt lat="45.14157" lon="6.3569">
        <ele>2850</ele>
        <time>2015-03-23T13:53:14.000Z</time>
      </trkpt>
      <trkpt lat="45.14158" lon="6.35691">
        <ele>2851</ele>
        <time>2015-03-23T13:53:24.000Z</time>
      </trkpt>
      <trkpt lat="45.14158" lon="6.35691">
        <ele>2851.6000976562</ele>
        <time>2015-03-23T13:53:28.000Z</time>
      </trkpt>
      <trkpt lat="45.14161" lon="6.35696">
        <ele>2852</ele>
        <time>2015-03-23T13:53:31.000Z</time>
      </trkpt>
      <trkpt lat="45.14166" lon="6.35699">
        <ele>2852.3999023438</ele>
        <time>2015-03-23T13:53:34.000Z</time>
      </trkpt>
      <trkpt lat="45.14167" lon="6.357">
        <ele>2853</ele>
        <time>2015-03-23T13:53:38.000Z</time>
      </trkpt>
      <trkpt lat="45.14167" lon="6.357">
        <ele>2853.1999511719</ele>
        <time>2015-03-23T13:53:39.000Z</time>
      </trkpt>
      <trkpt lat="45.14167" lon="6.357">
        <ele>2854.1999511719</ele>
        <time>2015-03-23T13:53:47.000Z</time>
      </trkpt>
      <trkpt lat="45.14167" lon="6.357">
        <ele>2854.3999023438</ele>
        <time>2015-03-23T13:53:48.000Z</time>
      </trkpt>
      <trkpt lat="45.14167" lon="6.357">
        <ele>2855.6000976562</ele>
        <time>2015-03-23T13:53:55.000Z</time>
      </trkpt>
      <trkpt lat="45.14169" lon="6.35698">
        <ele>2855.6000976562</ele>
        <time>2015-03-23T13:53:59.000Z</time>
      </trkpt>
      <trkpt lat="45.14171" lon="6.35697">
        <ele>2856.1999511719</ele>
        <time>2015-03-23T13:54:09.000Z</time>
      </trkpt>
      <trkpt lat="45.14173" lon="6.35702">
        <ele>2856.3999023438</ele>
        <time>2015-03-23T13:54:21.000Z</time>
      </trkpt>
      <trkpt lat="45.14174" lon="6.35704">
        <ele>2856.1999511719</ele>
        <time>2015-03-23T13:54:33.000Z</time>
      </trkpt>
      <trkpt lat="45.14174" lon="6.35704">
        <ele>2856.6000976562</ele>
        <time>2015-03-23T13:54:41.000Z</time>
      </trkpt>
      <trkpt lat="45.14174" lon="6.35704">
        <ele>2856.8000488281</ele>
        <time>2015-03-23T13:54:45.000Z</time>
      </trkpt>
      <trkpt lat="45.14174" lon="6.35704">
        <ele>2857.6000976562</ele>
        <time>2015-03-23T13:54:48.000Z</time>
      </trkpt>
      <trkpt lat="45.1418" lon="6.35704">
        <ele>2858.6000976562</ele>
        <time>2015-03-23T13:54:54.000Z</time>
      </trkpt>
      <trkpt lat="45.14181" lon="6.35704">
        <ele>2859</ele>
        <time>2015-03-23T13:54:55.000Z</time>
      </trkpt>
      <trkpt lat="45.14186" lon="6.35704">
        <ele>2860</ele>
        <time>2015-03-23T13:54:59.000Z</time>
      </trkpt>
      <trkpt lat="45.14192" lon="6.35706">
        <ele>2860.6000976562</ele>
        <time>2015-03-23T13:55:04.000Z</time>
      </trkpt>
      <trkpt lat="45.14192" lon="6.35706">
        <ele>2861.1999511719</ele>
        <time>2015-03-23T13:55:06.000Z</time>
      </trkpt>
      <trkpt lat="45.14194" lon="6.35706">
        <ele>2862.1999511719</ele>
        <time>2015-03-23T13:55:12.000Z</time>
      </trkpt>
      <trkpt lat="45.14194" lon="6.35706">
        <ele>2862.3999023438</ele>
        <time>2015-03-23T13:55:14.000Z</time>
      </trkpt>
      <trkpt lat="45.14194" lon="6.35706">
        <ele>2863.3999023438</ele>
        <time>2015-03-23T13:55:21.000Z</time>
      </trkpt>
      <trkpt lat="45.14194" lon="6.35706">
        <ele>2864.1999511719</ele>
        <time>2015-03-23T13:55:26.000Z</time>
      </trkpt>
      <trkpt lat="45.14194" lon="6.35706">
        <ele>2864.3999023438</ele>
        <time>2015-03-23T13:55:28.000Z</time>
      </trkpt>
      <trkpt lat="45.14194" lon="6.35706">
        <ele>2865.6000976562</ele>
        <time>2015-03-23T13:55:33.000Z</time>
      </trkpt>
      <trkpt lat="45.14194" lon="6.35706">
        <ele>2866</ele>
        <time>2015-03-23T13:55:35.000Z</time>
      </trkpt>
      <trkpt lat="45.14194" lon="6.35706">
        <ele>2866.8000488281</ele>
        <time>2015-03-23T13:55:40.000Z</time>
      </trkpt>
      <trkpt lat="45.14194" lon="6.35706">
        <ele>2867.8000488281</ele>
        <time>2015-03-23T13:55:44.000Z</time>
      </trkpt>
      <trkpt lat="45.14194" lon="6.35706">
        <ele>2868</ele>
        <time>2015-03-23T13:55:46.000Z</time>
      </trkpt>
      <trkpt lat="45.14196" lon="6.35706">
        <ele>2868.1999511719</ele>
        <time>2015-03-23T13:55:52.000Z</time>
      </trkpt>
      <trkpt lat="45.14196" lon="6.35706">
        <ele>2868.8000488281</ele>
        <time>2015-03-23T13:55:55.000Z</time>
      </trkpt>
      <trkpt lat="45.14196" lon="6.35706">
        <ele>2869</ele>
        <time>2015-03-23T13:55:56.000Z</time>
      </trkpt>
      <trkpt lat="45.14196" lon="6.35708">
        <ele>2869.3999023438</ele>
        <time>2015-03-23T13:56:06.000Z</time>
      </trkpt>
      <trkpt lat="45.14196" lon="6.35708">
        <ele>2870.1999511719</ele>
        <time>2015-03-23T13:56:13.000Z</time>
      </trkpt>
      <trkpt lat="45.14196" lon="6.35708">
        <ele>2871.1999511719</ele>
        <time>2015-03-23T13:56:19.000Z</time>
      </trkpt>
      <trkpt lat="45.14196" lon="6.35708">
        <ele>2871.3999023438</ele>
        <time>2015-03-23T13:56:20.000Z</time>
      </trkpt>
      <trkpt lat="45.14196" lon="6.3571">
        <ele>2871.3999023438</ele>
        <time>2015-03-23T13:56:30.000Z</time>
      </trkpt>
      <trkpt lat="45.14196" lon="6.3571">
        <ele>2872.3999023438</ele>
        <time>2015-03-23T13:56:36.000Z</time>
      </trkpt>
      <trkpt lat="45.14196" lon="6.3571">
        <ele>2872.3999023438</ele>
        <time>2015-03-23T13:56:41.000Z</time>
      </trkpt>
      <trkpt lat="45.142" lon="6.35708">
        <ele>2872.8000488281</ele>
        <time>2015-03-23T13:56:50.000Z</time>
      </trkpt>
      <trkpt lat="45.14196" lon="6.35706">
        <ele>2872</ele>
        <time>2015-03-23T13:56:58.000Z</time>
      </trkpt>
      <trkpt lat="45.14194" lon="6.35704">
        <ele>2873.3999023438</ele>
        <time>2015-03-23T13:57:07.000Z</time>
      </trkpt>
      <trkpt lat="45.14194" lon="6.35704">
        <ele>2873.6000976562</ele>
        <time>2015-03-23T13:57:09.000Z</time>
      </trkpt>
      <trkpt lat="45.14195" lon="6.35707">
        <ele>2874.3999023438</ele>
        <time>2015-03-23T13:57:17.000Z</time>
      </trkpt>
      <trkpt lat="45.14195" lon="6.35707">
        <ele>2875</ele>
        <time>2015-03-23T13:57:20.000Z</time>
      </trkpt>
      <trkpt lat="45.14195" lon="6.35706">
        <ele>2875.6000976562</ele>
        <time>2015-03-23T13:57:24.000Z</time>
      </trkpt>
      <trkpt lat="45.14195" lon="6.35706">
        <ele>2876</ele>
        <time>2015-03-23T13:57:31.000Z</time>
      </trkpt>
      <trkpt lat="45.14195" lon="6.35706">
        <ele>2876.6000976562</ele>
        <time>2015-03-23T13:57:36.000Z</time>
      </trkpt>
      <trkpt lat="45.14198" lon="6.35709">
        <ele>2877.8000488281</ele>
        <time>2015-03-23T13:57:40.000Z</time>
      </trkpt>
      <trkpt lat="45.14199" lon="6.3571">
        <ele>2878</ele>
        <time>2015-03-23T13:57:41.000Z</time>
      </trkpt>
      <trkpt lat="45.14204" lon="6.35719">
        <ele>2878.3999023438</ele>
        <time>2015-03-23T13:57:51.000Z</time>
      </trkpt>
      <trkpt lat="45.14204" lon="6.3572">
        <ele>2879</ele>
        <time>2015-03-23T13:57:53.000Z</time>
      </trkpt>
      <trkpt lat="45.14204" lon="6.3572">
        <ele>2880</ele>
        <time>2015-03-23T13:58:02.000Z</time>
      </trkpt>
      <trkpt lat="45.14204" lon="6.3572">
        <ele>2880.1999511719</ele>
        <time>2015-03-23T13:58:03.000Z</time>
      </trkpt>
      <trkpt lat="45.14204" lon="6.3572">
        <ele>2881.1999511719</ele>
        <time>2015-03-23T13:58:06.000Z</time>
      </trkpt>
      <trkpt lat="45.14204" lon="6.3572">
        <ele>2882.1999511719</ele>
        <time>2015-03-23T13:58:09.000Z</time>
      </trkpt>
      <trkpt lat="45.14204" lon="6.3572">
        <ele>2882.6000976562</ele>
        <time>2015-03-23T13:58:13.000Z</time>
      </trkpt>
      <trkpt lat="45.14204" lon="6.3572">
        <ele>2882.6000976562</ele>
        <time>2015-03-23T13:58:24.000Z</time>
      </trkpt>
      <trkpt lat="45.14205" lon="6.35719">
        <ele>2883</ele>
        <time>2015-03-23T13:58:32.000Z</time>
      </trkpt>
      <trkpt lat="45.14206" lon="6.35719">
        <ele>2883.1999511719</ele>
        <time>2015-03-23T13:58:41.000Z</time>
      </trkpt>
      <trkpt lat="45.14208" lon="6.35721">
        <ele>2883.3999023438</ele>
        <time>2015-03-23T13:58:42.000Z</time>
      </trkpt>
      <trkpt lat="45.14208" lon="6.35719">
        <ele>2884.1999511719</ele>
        <time>2015-03-23T13:58:48.000Z</time>
      </trkpt>
      <trkpt lat="45.14208" lon="6.35719">
        <ele>2884.3999023438</ele>
        <time>2015-03-23T13:58:51.000Z</time>
      </trkpt>
      <trkpt lat="45.14208" lon="6.35719">
        <ele>2885.1999511719</ele>
        <time>2015-03-23T13:59:00.000Z</time>
      </trkpt>
      <trkpt lat="45.14208" lon="6.35719">
        <ele>2885.6000976562</ele>
        <time>2015-03-23T13:59:02.000Z</time>
      </trkpt>
      <trkpt lat="45.14208" lon="6.35719">
        <ele>2887</ele>
        <time>2015-03-23T13:59:10.000Z</time>
      </trkpt>
      <trkpt lat="45.14208" lon="6.35719">
        <ele>2887.3999023438</ele>
        <time>2015-03-23T13:59:12.000Z</time>
      </trkpt>
      <trkpt lat="45.14208" lon="6.35719">
        <ele>2888</ele>
        <time>2015-03-23T13:59:14.000Z</time>
      </trkpt>
      <trkpt lat="45.14208" lon="6.35719">
        <ele>2889</ele>
        <time>2015-03-23T13:59:24.000Z</time>
      </trkpt>
      <trkpt lat="45.14208" lon="6.35719">
        <ele>2889.1999511719</ele>
        <time>2015-03-23T13:59:25.000Z</time>
      </trkpt>
      <trkpt lat="45.1421" lon="6.3572">
        <ele>2890</ele>
        <time>2015-03-23T13:59:35.000Z</time>
      </trkpt>
      <trkpt lat="45.1421" lon="6.3572">
        <ele>2890</ele>
        <time>2015-03-23T13:59:48.000Z</time>
      </trkpt>
      <trkpt lat="45.1421" lon="6.3572">
        <ele>2890</ele>
        <time>2015-03-23T13:59:49.000Z</time>
      </trkpt>
      <trkpt lat="45.1421" lon="6.3572">
        <ele>2890.8000488281</ele>
        <time>2015-03-23T13:59:58.000Z</time>
      </trkpt>
      <trkpt lat="45.1421" lon="6.3572">
        <ele>2891</ele>
        <time>2015-03-23T14:00:02.000Z</time>
      </trkpt>
      <trkpt lat="45.1421" lon="6.3572">
        <ele>2892</ele>
        <time>2015-03-23T14:00:09.000Z</time>
      </trkpt>
      <trkpt lat="45.1421" lon="6.3572">
        <ele>2892.1999511719</ele>
        <time>2015-03-23T14:00:10.000Z</time>
      </trkpt>
      <trkpt lat="45.1421" lon="6.3572">
        <ele>2893.1999511719</ele>
        <time>2015-03-23T14:00:18.000Z</time>
      </trkpt>
      <trkpt lat="45.1421" lon="6.35721">
        <ele>2893.8000488281</ele>
        <time>2015-03-23T14:00:20.000Z</time>
      </trkpt>
      <trkpt lat="45.1421" lon="6.35721">
        <ele>2894.3999023438</ele>
        <time>2015-03-23T14:00:24.000Z</time>
      </trkpt>
      <trkpt lat="45.1421" lon="6.35721">
        <ele>2895</ele>
        <time>2015-03-23T14:00:29.000Z</time>
      </trkpt>
      <trkpt lat="45.1421" lon="6.35721">
        <ele>2893.1999511719</ele>
        <time>2015-03-23T14:00:35.000Z</time>
      </trkpt>
      <trkpt lat="45.1421" lon="6.35721">
        <ele>2891.6000976562</ele>
        <time>2015-03-23T14:00:37.000Z</time>
      </trkpt>
      <trkpt lat="45.1421" lon="6.35721">
        <ele>2892.6000976562</ele>
        <time>2015-03-23T14:00:41.000Z</time>
      </trkpt>
      <trkpt lat="45.1421" lon="6.35721">
        <ele>2893.6000976562</ele>
        <time>2015-03-23T14:00:42.000Z</time>
      </trkpt>
      <trkpt lat="45.1421" lon="6.35721">
        <ele>2894.6000976562</ele>
        <time>2015-03-23T14:00:43.000Z</time>
      </trkpt>
      <trkpt lat="45.1421" lon="6.35721">
        <ele>2896.8000488281</ele>
        <time>2015-03-23T14:00:44.000Z</time>
      </trkpt>
      <trkpt lat="45.1421" lon="6.35721">
        <ele>2895.8000488281</ele>
        <time>2015-03-23T14:00:50.000Z</time>
      </trkpt>
      <trkpt lat="45.1421" lon="6.35721">
        <ele>2895</ele>
        <time>2015-03-23T14:00:58.000Z</time>
      </trkpt>
      <trkpt lat="45.14211" lon="6.35719">
        <ele>2895.3999023438</ele>
        <time>2015-03-23T14:01:08.000Z</time>
      </trkpt>
      <trkpt lat="45.14211" lon="6.35719">
        <ele>2895.3999023438</ele>
        <time>2015-03-23T14:01:22.000Z</time>
      </trkpt>
      <trkpt lat="45.14211" lon="6.35717">
        <ele>2895</ele>
        <time>2015-03-23T14:01:35.000Z</time>
      </trkpt>
      <trkpt lat="45.14211" lon="6.35717">
        <ele>2894.6000976562</ele>
        <time>2015-03-23T14:01:36.000Z</time>
      </trkpt>
      <trkpt lat="45.14209" lon="6.35715">
        <ele>2895</ele>
        <time>2015-03-23T14:01:45.000Z</time>
      </trkpt>
      <trkpt lat="45.1421" lon="6.35715">
        <ele>2893.6000976562</ele>
        <time>2015-03-23T14:01:48.000Z</time>
      </trkpt>
      <trkpt lat="45.14212" lon="6.35715">
        <ele>2894.6000976562</ele>
        <time>2015-03-23T14:01:53.000Z</time>
      </trkpt>
      <trkpt lat="45.14212" lon="6.35715">
        <ele>2895.1999511719</ele>
        <time>2015-03-23T14:01:55.000Z</time>
      </trkpt>
      <trkpt lat="45.14212" lon="6.35715">
        <ele>2896.1999511719</ele>
        <time>2015-03-23T14:01:56.000Z</time>
      </trkpt>
      <trkpt lat="45.14212" lon="6.35715">
        <ele>2896.6000976562</ele>
        <time>2015-03-23T14:02:06.000Z</time>
      </trkpt>
      <trkpt lat="45.14212" lon="6.35715">
        <ele>2897.3999023438</ele>
        <time>2015-03-23T14:02:13.000Z</time>
      </trkpt>
      <trkpt lat="45.14212" lon="6.35715">
        <ele>2898.1999511719</ele>
        <time>2015-03-23T14:02:19.000Z</time>
      </trkpt>
      <trkpt lat="45.14212" lon="6.35715">
        <ele>2898.8000488281</ele>
        <time>2015-03-23T14:02:20.000Z</time>
      </trkpt>
      <trkpt lat="45.14215" lon="6.35718">
        <ele>2899.1999511719</ele>
        <time>2015-03-23T14:02:34.000Z</time>
      </trkpt>
      <trkpt lat="45.14215" lon="6.35718">
        <ele>2899.1999511719</ele>
        <time>2015-03-23T14:02:50.000Z</time>
      </trkpt>
      <trkpt lat="45.14215" lon="6.35718">
        <ele>2899.1999511719</ele>
        <time>2015-03-23T14:02:56.000Z</time>
      </trkpt>
      <trkpt lat="45.14215" lon="6.35718">
        <ele>2899.1999511719</ele>
        <time>2015-03-23T14:03:07.000Z</time>
      </trkpt>
      <trkpt lat="45.14215" lon="6.35721">
        <ele>2899.6000976562</ele>
        <time>2015-03-23T14:03:19.000Z</time>
      </trkpt>
      <trkpt lat="45.14215" lon="6.35721">
        <ele>2900</ele>
        <time>2015-03-23T14:03:20.000Z</time>
      </trkpt>
      <trkpt lat="45.14215" lon="6.35721">
        <ele>2901</ele>
        <time>2015-03-23T14:03:25.000Z</time>
      </trkpt>
      <trkpt lat="45.14215" lon="6.35721">
        <ele>2902</ele>
        <time>2015-03-23T14:03:29.000Z</time>
      </trkpt>
      <trkpt lat="45.14215" lon="6.35721">
        <ele>2902.1999511719</ele>
        <time>2015-03-23T14:03:30.000Z</time>
      </trkpt>
      <trkpt lat="45.14215" lon="6.35721">
        <ele>2903</ele>
        <time>2015-03-23T14:03:36.000Z</time>
      </trkpt>
      <trkpt lat="45.14215" lon="6.35721">
        <ele>2904</ele>
        <time>2015-03-23T14:03:42.000Z</time>
      </trkpt>
      <trkpt lat="45.14215" lon="6.35721">
        <ele>2904.1999511719</ele>
        <time>2015-03-23T14:03:49.000Z</time>
      </trkpt>
      <trkpt lat="45.14214" lon="6.35722">
        <ele>2904.6000976562</ele>
        <time>2015-03-23T14:03:55.000Z</time>
      </trkpt>
      <trkpt lat="45.14214" lon="6.35722">
        <ele>2905.1999511719</ele>
        <time>2015-03-23T14:03:58.000Z</time>
      </trkpt>
      <trkpt lat="45.14214" lon="6.35722">
        <ele>2905.6000976562</ele>
        <time>2015-03-23T14:04:06.000Z</time>
      </trkpt>
      <trkpt lat="45.14204" lon="6.35714">
        <ele>2906</ele>
        <time>2015-03-23T14:04:21.000Z</time>
      </trkpt>
      <trkpt lat="45.14202" lon="6.35715">
        <ele>2906.1999511719</ele>
        <time>2015-03-23T14:04:27.000Z</time>
      </trkpt>
      <trkpt lat="45.14202" lon="6.35717">
        <ele>2906.3999023438</ele>
        <time>2015-03-23T14:04:31.000Z</time>
      </trkpt>
      <trkpt lat="45.14197" lon="6.35713">
        <ele>2907.3999023438</ele>
        <time>2015-03-23T14:04:37.000Z</time>
      </trkpt>
      <trkpt lat="45.14199" lon="6.35715">
        <ele>2907.6000976562</ele>
        <time>2015-03-23T14:04:43.000Z</time>
      </trkpt>
      <trkpt lat="45.14201" lon="6.35718">
        <ele>2908.6000976562</ele>
        <time>2015-03-23T14:04:51.000Z</time>
      </trkpt>
      <trkpt lat="45.14201" lon="6.35718">
        <ele>2909</ele>
        <time>2015-03-23T14:04:57.000Z</time>
      </trkpt>
      <trkpt lat="45.14201" lon="6.35718">
        <ele>2909.6000976562</ele>
        <time>2015-03-23T14:05:06.000Z</time>
      </trkpt>
      <trkpt lat="45.14201" lon="6.35719">
        <ele>2909.6000976562</ele>
        <time>2015-03-23T14:05:07.000Z</time>
      </trkpt>
      <trkpt lat="45.14207" lon="6.35726">
        <ele>2910.8000488281</ele>
        <time>2015-03-23T14:05:14.000Z</time>
      </trkpt>
      <trkpt lat="45.14209" lon="6.35729">
        <ele>2911.8000488281</ele>
        <time>2015-03-23T14:05:21.000Z</time>
      </trkpt>
      <trkpt lat="45.14209" lon="6.35729">
        <ele>2912.3999023438</ele>
        <time>2015-03-23T14:05:28.000Z</time>
      </trkpt>
      <trkpt lat="45.14209" lon="6.35729">
        <ele>2912.8000488281</ele>
        <time>2015-03-23T14:05:34.000Z</time>
      </trkpt>
      <trkpt lat="45.1421" lon="6.3573">
        <ele>2913</ele>
        <time>2015-03-23T14:05:38.000Z</time>
      </trkpt>
      <trkpt lat="45.1421" lon="6.35731">
        <ele>2913.8000488281</ele>
        <time>2015-03-23T14:05:48.000Z</time>
      </trkpt>
      <trkpt lat="45.1421" lon="6.35731">
        <ele>2914</ele>
        <time>2015-03-23T14:05:50.000Z</time>
      </trkpt>
      <trkpt lat="45.1421" lon="6.35731">
        <ele>2915</ele>
        <time>2015-03-23T14:05:58.000Z</time>
      </trkpt>
      <trkpt lat="45.1421" lon="6.35731">
        <ele>2915</ele>
        <time>2015-03-23T14:05:59.000Z</time>
      </trkpt>
      <trkpt lat="45.1421" lon="6.35731">
        <ele>2916</ele>
        <time>2015-03-23T14:06:07.000Z</time>
      </trkpt>
      <trkpt lat="45.1421" lon="6.35731">
        <ele>2916</ele>
        <time>2015-03-23T14:06:12.000Z</time>
      </trkpt>
      <trkpt lat="45.14211" lon="6.35732">
        <ele>2916.8000488281</ele>
        <time>2015-03-23T14:06:24.000Z</time>
      </trkpt>
      <trkpt lat="45.14212" lon="6.35734">
        <ele>2917</ele>
        <time>2015-03-23T14:06:25.000Z</time>
      </trkpt>
      <trkpt lat="45.14212" lon="6.35734">
        <ele>2917.8000488281</ele>
        <time>2015-03-23T14:06:32.000Z</time>
      </trkpt>
      <trkpt lat="45.14212" lon="6.35734">
        <ele>2918.1999511719</ele>
        <time>2015-03-23T14:06:33.000Z</time>
      </trkpt>
      <trkpt lat="45.14212" lon="6.35734">
        <ele>2919.1999511719</ele>
        <time>2015-03-23T14:06:47.000Z</time>
      </trkpt>
      <trkpt lat="45.14212" lon="6.35734">
        <ele>2920.1999511719</ele>
        <time>2015-03-23T14:06:57.000Z</time>
      </trkpt>
      <trkpt lat="45.14212" lon="6.35734">
        <ele>2920.6000976562</ele>
        <time>2015-03-23T14:07:00.000Z</time>
      </trkpt>
      <trkpt lat="45.14215" lon="6.3574">
        <ele>2920.6000976562</ele>
        <time>2015-03-23T14:07:14.000Z</time>
      </trkpt>
      <trkpt lat="45.14215" lon="6.3574">
        <ele>2921.3999023438</ele>
        <time>2015-03-23T14:07:19.000Z</time>
      </trkpt>
      <trkpt lat="45.14215" lon="6.3574">
        <ele>2922.3999023438</ele>
        <time>2015-03-23T14:07:25.000Z</time>
      </trkpt>
      <trkpt lat="45.14215" lon="6.3574">
        <ele>2922.6000976562</ele>
        <time>2015-03-23T14:07:26.000Z</time>
      </trkpt>
      <trkpt lat="45.14215" lon="6.3574">
        <ele>2923</ele>
        <time>2015-03-23T14:07:39.000Z</time>
      </trkpt>
      <trkpt lat="45.14255" lon="6.35774">
        <ele>2923</ele>
        <time>2015-03-23T14:07:56.000Z</time>
      </trkpt>
      <trkpt lat="45.14255" lon="6.35774">
        <ele>2923.6000976562</ele>
        <time>2015-03-23T14:08:01.000Z</time>
      </trkpt>
      <trkpt lat="45.14255" lon="6.35774">
        <ele>2924.1999511719</ele>
        <time>2015-03-23T14:08:07.000Z</time>
      </trkpt>
      <trkpt lat="45.14255" lon="6.35774">
        <ele>2924.1999511719</ele>
        <time>2015-03-23T14:08:28.000Z</time>
      </trkpt>
      <trkpt lat="45.14263" lon="6.3578">
        <ele>2924</ele>
        <time>2015-03-23T14:08:51.000Z</time>
      </trkpt>
      <trkpt lat="45.14263" lon="6.3578">
        <ele>2924.6000976562</ele>
        <time>2015-03-23T14:08:56.000Z</time>
      </trkpt>
      <trkpt lat="45.14263" lon="6.3578">
        <ele>2925.1999511719</ele>
        <time>2015-03-23T14:08:59.000Z</time>
      </trkpt>
      <trkpt lat="45.14263" lon="6.35782">
        <ele>2925.6000976562</ele>
        <time>2015-03-23T14:09:05.000Z</time>
      </trkpt>
      <trkpt lat="45.14263" lon="6.35782">
        <ele>2926.3999023438</ele>
        <time>2015-03-23T14:09:10.000Z</time>
      </trkpt>
      <trkpt lat="45.14263" lon="6.35782">
        <ele>2926.8000488281</ele>
        <time>2015-03-23T14:09:17.000Z</time>
      </trkpt>
      <trkpt lat="45.14263" lon="6.35782">
        <ele>2926.6000976562</ele>
        <time>2015-03-23T14:09:19.000Z</time>
      </trkpt>
      <trkpt lat="45.14263" lon="6.35782">
        <ele>2927.3999023438</ele>
        <time>2015-03-23T14:09:32.000Z</time>
      </trkpt>
      <trkpt lat="45.14263" lon="6.35782">
        <ele>2927.8000488281</ele>
        <time>2015-03-23T14:09:39.000Z</time>
      </trkpt>
      <trkpt lat="45.14263" lon="6.35784">
        <ele>2927.6000976562</ele>
        <time>2015-03-23T14:09:43.000Z</time>
      </trkpt>
      <trkpt lat="45.14263" lon="6.35785">
        <ele>2928.1999511719</ele>
        <time>2015-03-23T14:09:54.000Z</time>
      </trkpt>
      <trkpt lat="45.14263" lon="6.35785">
        <ele>2928.8000488281</ele>
        <time>2015-03-23T14:10:09.000Z</time>
      </trkpt>
      <trkpt lat="45.14263" lon="6.35785">
        <ele>2928.8000488281</ele>
        <time>2015-03-23T14:10:12.000Z</time>
      </trkpt>
      <trkpt lat="45.14263" lon="6.35785">
        <ele>2929</ele>
        <time>2015-03-23T14:10:24.000Z</time>
      </trkpt>
      <trkpt lat="45.14265" lon="6.35788">
        <ele>2928.8000488281</ele>
        <time>2015-03-23T14:10:34.000Z</time>
      </trkpt>
      <trkpt lat="45.14266" lon="6.3579">
        <ele>2928.8000488281</ele>
        <time>2015-03-23T14:10:43.000Z</time>
      </trkpt>
      <trkpt lat="45.14264" lon="6.35793">
        <ele>2929.6000976562</ele>
        <time>2015-03-23T14:10:50.000Z</time>
      </trkpt>
      <trkpt lat="45.14265" lon="6.35794">
        <ele>2929.8000488281</ele>
        <time>2015-03-23T14:10:57.000Z</time>
      </trkpt>
      <trkpt lat="45.14265" lon="6.35794">
        <ele>2930.1999511719</ele>
        <time>2015-03-23T14:10:59.000Z</time>
      </trkpt>
      <trkpt lat="45.14265" lon="6.35794">
        <ele>2931.3999023438</ele>
        <time>2015-03-23T14:11:08.000Z</time>
      </trkpt>
      <trkpt lat="45.14265" lon="6.35794">
        <ele>2930.1999511719</ele>
        <time>2015-03-23T14:11:11.000Z</time>
      </trkpt>
      <trkpt lat="45.14265" lon="6.35794">
        <ele>2930</ele>
        <time>2015-03-23T14:11:12.000Z</time>
      </trkpt>
      <trkpt lat="45.14265" lon="6.35795">
        <ele>2931</ele>
        <time>2015-03-23T14:11:20.000Z</time>
      </trkpt>
      <trkpt lat="45.14265" lon="6.35795">
        <ele>2931.3999023438</ele>
        <time>2015-03-23T14:11:23.000Z</time>
      </trkpt>
      <trkpt lat="45.14265" lon="6.35795">
        <ele>2931.3999023438</ele>
        <time>2015-03-23T14:11:25.000Z</time>
      </trkpt>
      <trkpt lat="45.14265" lon="6.35795">
        <ele>2931.3999023438</ele>
        <time>2015-03-23T14:11:30.000Z</time>
      </trkpt>
      <trkpt lat="45.14265" lon="6.35796">
        <ele>2932.3999023438</ele>
        <time>2015-03-23T14:11:37.000Z</time>
      </trkpt>
      <trkpt lat="45.14264" lon="6.35797">
        <ele>2933.3999023438</ele>
        <time>2015-03-23T14:11:45.000Z</time>
      </trkpt>
      <trkpt lat="45.14264" lon="6.35797">
        <ele>2933.6000976562</ele>
        <time>2015-03-23T14:11:57.000Z</time>
      </trkpt>
      <trkpt lat="45.14262" lon="6.35797">
        <ele>2933.1999511719</ele>
        <time>2015-03-23T14:12:09.000Z</time>
      </trkpt>
      <trkpt lat="45.14252" lon="6.3579">
        <ele>2934.1999511719</ele>
        <time>2015-03-23T14:12:24.000Z</time>
      </trkpt>
      <trkpt lat="45.1425" lon="6.35789">
        <ele>2934</ele>
        <time>2015-03-23T14:12:26.000Z</time>
      </trkpt>
      <trkpt lat="45.14242" lon="6.35785">
        <ele>2933.6000976562</ele>
        <time>2015-03-23T14:12:32.000Z</time>
      </trkpt>
      <trkpt lat="45.14245" lon="6.35786">
        <ele>2933.6000976562</ele>
        <time>2015-03-23T14:12:41.000Z</time>
      </trkpt>
      <trkpt lat="45.14245" lon="6.35786">
        <ele>2934.1999511719</ele>
        <time>2015-03-23T14:12:55.000Z</time>
      </trkpt>
      <trkpt lat="45.14245" lon="6.35786">
        <ele>2934.6000976562</ele>
        <time>2015-03-23T14:12:57.000Z</time>
      </trkpt>
      <trkpt lat="45.14245" lon="6.35786">
        <ele>2934.3999023438</ele>
        <time>2015-03-23T14:13:05.000Z</time>
      </trkpt>
      <trkpt lat="45.14245" lon="6.35786">
        <ele>2935.6000976562</ele>
        <time>2015-03-23T14:13:09.000Z</time>
      </trkpt>
      <trkpt lat="45.14245" lon="6.35786">
        <ele>2936</ele>
        <time>2015-03-23T14:13:14.000Z</time>
      </trkpt>
      <trkpt lat="45.14251" lon="6.35792">
        <ele>2937</ele>
        <time>2015-03-23T14:13:20.000Z</time>
      </trkpt>
      <trkpt lat="45.14253" lon="6.35794">
        <ele>2937.8000488281</ele>
        <time>2015-03-23T14:13:24.000Z</time>
      </trkpt>
      <trkpt lat="45.14255" lon="6.35795">
        <ele>2938</ele>
        <time>2015-03-23T14:13:30.000Z</time>
      </trkpt>
      <trkpt lat="45.14255" lon="6.35795">
        <ele>2938.3999023438</ele>
        <time>2015-03-23T14:13:31.000Z</time>
      </trkpt>
      <trkpt lat="45.14255" lon="6.35795">
        <ele>2939</ele>
        <time>2015-03-23T14:13:36.000Z</time>
      </trkpt>
      <trkpt lat="45.14255" lon="6.35795">
        <ele>2939.8000488281</ele>
        <time>2015-03-23T14:13:43.000Z</time>
      </trkpt>
      <trkpt lat="45.14255" lon="6.35795">
        <ele>2940.1999511719</ele>
        <time>2015-03-23T14:13:53.000Z</time>
      </trkpt>
      <trkpt lat="45.14255" lon="6.35795">
        <ele>2940.6000976562</ele>
        <time>2015-03-23T14:13:55.000Z</time>
      </trkpt>
      <trkpt lat="45.14255" lon="6.35795">
        <ele>2941.6000976562</ele>
        <time>2015-03-23T14:14:03.000Z</time>
      </trkpt>
      <trkpt lat="45.14256" lon="6.35798">
        <ele>2942.6000976562</ele>
        <time>2015-03-23T14:14:07.000Z</time>
      </trkpt>
      <trkpt lat="45.14256" lon="6.35798">
        <ele>2942.8000488281</ele>
        <time>2015-03-23T14:14:10.000Z</time>
      </trkpt>
      <trkpt lat="45.14256" lon="6.35798">
        <ele>2943.6000976562</ele>
        <time>2015-03-23T14:14:20.000Z</time>
      </trkpt>
      <trkpt lat="45.14255" lon="6.358">
        <ele>2943.8000488281</ele>
        <time>2015-03-23T14:14:25.000Z</time>
      </trkpt>
      <trkpt lat="45.14255" lon="6.35801">
        <ele>2944.6000976562</ele>
        <time>2015-03-23T14:14:34.000Z</time>
      </trkpt>
      <trkpt lat="45.14255" lon="6.35801">
        <ele>2944.8000488281</ele>
        <time>2015-03-23T14:14:39.000Z</time>
      </trkpt>
      <trkpt lat="45.14255" lon="6.35801">
        <ele>2945.6000976562</ele>
        <time>2015-03-23T14:14:48.000Z</time>
      </trkpt>
      <trkpt lat="45.14255" lon="6.35801">
        <ele>2945.8000488281</ele>
        <time>2015-03-23T14:14:49.000Z</time>
      </trkpt>
      <trkpt lat="45.14255" lon="6.35801">
        <ele>2946.6000976562</ele>
        <time>2015-03-23T14:15:03.000Z</time>
      </trkpt>
      <trkpt lat="45.14257" lon="6.35801">
        <ele>2946.6000976562</ele>
        <time>2015-03-23T14:15:16.000Z</time>
      </trkpt>
      <trkpt lat="45.14259" lon="6.35804">
        <ele>2947</ele>
        <time>2015-03-23T14:15:21.000Z</time>
      </trkpt>
      <trkpt lat="45.14259" lon="6.35804">
        <ele>2948.1999511719</ele>
        <time>2015-03-23T14:15:26.000Z</time>
      </trkpt>
      <trkpt lat="45.14259" lon="6.35804">
        <ele>2948.6000976562</ele>
        <time>2015-03-23T14:15:46.000Z</time>
      </trkpt>
      <trkpt lat="45.14259" lon="6.35806">
        <ele>2949.1999511719</ele>
        <time>2015-03-23T14:15:49.000Z</time>
      </trkpt>
      <trkpt lat="45.1426" lon="6.3581">
        <ele>2950</ele>
        <time>2015-03-23T14:15:54.000Z</time>
      </trkpt>
      <trkpt lat="45.1426" lon="6.35811">
        <ele>2950.3999023438</ele>
        <time>2015-03-23T14:15:55.000Z</time>
      </trkpt>
      <trkpt lat="45.1426" lon="6.35811">
        <ele>2951.6000976562</ele>
        <time>2015-03-23T14:16:01.000Z</time>
      </trkpt>
      <trkpt lat="45.1426" lon="6.35811">
        <ele>2952</ele>
        <time>2015-03-23T14:16:05.000Z</time>
      </trkpt>
      <trkpt lat="45.1426" lon="6.35811">
        <ele>2952</ele>
        <time>2015-03-23T14:16:16.000Z</time>
      </trkpt>
      <trkpt lat="45.1426" lon="6.35811">
        <ele>2952.6000976562</ele>
        <time>2015-03-23T14:16:26.000Z</time>
      </trkpt>
      <trkpt lat="45.1426" lon="6.35811">
        <ele>2953.6000976562</ele>
        <time>2015-03-23T14:16:29.000Z</time>
      </trkpt>
      <trkpt lat="45.1426" lon="6.35811">
        <ele>2954</ele>
        <time>2015-03-23T14:16:39.000Z</time>
      </trkpt>
      <trkpt lat="45.1426" lon="6.35811">
        <ele>2954.6000976562</ele>
        <time>2015-03-23T14:16:42.000Z</time>
      </trkpt>
      <trkpt lat="45.1426" lon="6.35811">
        <ele>2955</ele>
        <time>2015-03-23T14:16:58.000Z</time>
      </trkpt>
      <trkpt lat="45.1426" lon="6.35812">
        <ele>2955</ele>
        <time>2015-03-23T14:17:16.000Z</time>
      </trkpt>
      <trkpt lat="45.1426" lon="6.35812">
        <ele>2955.6000976562</ele>
        <time>2015-03-23T14:17:20.000Z</time>
      </trkpt>
      <trkpt lat="45.1426" lon="6.35812">
        <ele>2955.3999023438</ele>
        <time>2015-03-23T14:17:31.000Z</time>
      </trkpt>
      <trkpt lat="45.1426" lon="6.35813">
        <ele>2955.6000976562</ele>
        <time>2015-03-23T14:17:43.000Z</time>
      </trkpt>
      <trkpt lat="45.14259" lon="6.35815">
        <ele>2955.3999023438</ele>
        <time>2015-03-23T14:17:50.000Z</time>
      </trkpt>
      <trkpt lat="45.14259" lon="6.35815">
        <ele>2956.6000976562</ele>
        <time>2015-03-23T14:17:59.000Z</time>
      </trkpt>
      <trkpt lat="45.14259" lon="6.35815">
        <ele>2956.8000488281</ele>
        <time>2015-03-23T14:18:05.000Z</time>
      </trkpt>
      <trkpt lat="45.14259" lon="6.35815">
        <ele>2956.6000976562</ele>
        <time>2015-03-23T14:18:21.000Z</time>
      </trkpt>
      <trkpt lat="45.14259" lon="6.35815">
        <ele>2958</ele>
        <time>2015-03-23T14:18:25.000Z</time>
      </trkpt>
      <trkpt lat="45.14258" lon="6.35816">
        <ele>2957.8000488281</ele>
        <time>2015-03-23T14:18:33.000Z</time>
      </trkpt>
      <trkpt lat="45.14258" lon="6.35816">
        <ele>2958.1999511719</ele>
        <time>2015-03-23T14:18:55.000Z</time>
      </trkpt>
      <trkpt lat="45.14256" lon="6.35817">
        <ele>2958.6000976562</ele>
        <time>2015-03-23T14:19:07.000Z</time>
      </trkpt>
      <trkpt lat="45.14256" lon="6.35817">
        <ele>2958.3999023438</ele>
        <time>2015-03-23T14:19:21.000Z</time>
      </trkpt>
      <trkpt lat="45.14256" lon="6.35817">
        <ele>2958.6000976562</ele>
        <time>2015-03-23T14:19:40.000Z</time>
      </trkpt>
      <trkpt lat="45.14255" lon="6.35817">
        <ele>2958.6000976562</ele>
        <time>2015-03-23T14:20:03.000Z</time>
      </trkpt>
      <trkpt lat="45.14255" lon="6.35817">
        <ele>2958.6000976562</ele>
        <time>2015-03-23T14:20:16.000Z</time>
      </trkpt>
      <trkpt lat="45.14255" lon="6.35817">
        <ele>2959</ele>
        <time>2015-03-23T14:20:18.000Z</time>
      </trkpt>
      <trkpt lat="45.14255" lon="6.35816">
        <ele>2959.1999511719</ele>
        <time>2015-03-23T14:20:36.000Z</time>
      </trkpt>
      <trkpt lat="45.14255" lon="6.35816">
        <ele>2959.1999511719</ele>
        <time>2015-03-23T14:20:41.000Z</time>
      </trkpt>
      <trkpt lat="45.14255" lon="6.35816">
        <ele>2959.1999511719</ele>
        <time>2015-03-23T14:21:00.000Z</time>
      </trkpt>
      <trkpt lat="45.14255" lon="6.35816">
        <ele>2959.1999511719</ele>
        <time>2015-03-23T14:21:26.000Z</time>
      </trkpt>
      <trkpt lat="45.14254" lon="6.35816">
        <ele>2959.3999023438</ele>
        <time>2015-03-23T14:21:51.000Z</time>
      </trkpt>
      <trkpt lat="45.14254" lon="6.35816">
        <ele>2959.3999023438</ele>
        <time>2015-03-23T14:22:10.000Z</time>
      </trkpt>
      <trkpt lat="45.14255" lon="6.35818">
        <ele>2959.8000488281</ele>
        <time>2015-03-23T14:22:20.000Z</time>
      </trkpt>
      <trkpt lat="45.14255" lon="6.35818">
        <ele>2960.1999511719</ele>
        <time>2015-03-23T14:22:25.000Z</time>
      </trkpt>
      <trkpt lat="45.14255" lon="6.35818">
        <ele>2960.6000976562</ele>
        <time>2015-03-23T14:22:32.000Z</time>
      </trkpt>
      <trkpt lat="45.14255" lon="6.35818">
        <ele>2960.3999023438</ele>
        <time>2015-03-23T14:22:44.000Z</time>
      </trkpt>
      <trkpt lat="45.14255" lon="6.35818">
        <ele>2961.1999511719</ele>
        <time>2015-03-23T14:22:47.000Z</time>
      </trkpt>
      <trkpt lat="45.14256" lon="6.35819">
        <ele>2961.6000976562</ele>
        <time>2015-03-23T14:23:05.000Z</time>
      </trkpt>
      <trkpt lat="45.14256" lon="6.35819">
        <ele>2961.6000976562</ele>
        <time>2015-03-23T14:23:17.000Z</time>
      </trkpt>
      <trkpt lat="45.14256" lon="6.35819">
        <ele>2961.6000976562</ele>
        <time>2015-03-23T14:23:24.000Z</time>
      </trkpt>
      <trkpt lat="45.14256" lon="6.35819">
        <ele>2962.1999511719</ele>
        <time>2015-03-23T14:23:33.000Z</time>
      </trkpt>
      <trkpt lat="45.14256" lon="6.35819">
        <ele>2963</ele>
        <time>2015-03-23T14:23:35.000Z</time>
      </trkpt>
      <trkpt lat="45.14256" lon="6.35819">
        <ele>2963.3999023438</ele>
        <time>2015-03-23T14:23:36.000Z</time>
      </trkpt>
      <trkpt lat="45.14257" lon="6.35817">
        <ele>2962.6000976562</ele>
        <time>2015-03-23T14:23:47.000Z</time>
      </trkpt>
      <trkpt lat="45.14258" lon="6.35818">
        <ele>2962.6000976562</ele>
        <time>2015-03-23T14:23:58.000Z</time>
      </trkpt>
      <trkpt lat="45.14258" lon="6.35818">
        <ele>2962.3999023438</ele>
        <time>2015-03-23T14:24:11.000Z</time>
      </trkpt>
      <trkpt lat="45.14258" lon="6.35815">
        <ele>2962.3999023438</ele>
        <time>2015-03-23T14:24:19.000Z</time>
      </trkpt>
      <trkpt lat="45.14258" lon="6.35815">
        <ele>2962</ele>
        <time>2015-03-23T14:24:23.000Z</time>
      </trkpt>
      <trkpt lat="45.14258" lon="6.35818">
        <ele>2962.8000488281</ele>
        <time>2015-03-23T14:24:34.000Z</time>
      </trkpt>
      <trkpt lat="45.14258" lon="6.35818">
        <ele>2963.3999023438</ele>
        <time>2015-03-23T14:24:37.000Z</time>
      </trkpt>
      <trkpt lat="45.14259" lon="6.35822">
        <ele>2964.6000976562</ele>
        <time>2015-03-23T14:24:40.000Z</time>
      </trkpt>
      <trkpt lat="45.14259" lon="6.35822">
        <ele>2964.6000976562</ele>
        <time>2015-03-23T14:24:41.000Z</time>
      </trkpt>
      <trkpt lat="45.1426" lon="6.35823">
        <ele>2965.8000488281</ele>
        <time>2015-03-23T14:24:46.000Z</time>
      </trkpt>
      <trkpt lat="45.1426" lon="6.35823">
        <ele>2966.6000976562</ele>
        <time>2015-03-23T14:24:50.000Z</time>
      </trkpt>
      <trkpt lat="45.14261" lon="6.35827">
        <ele>2966.8000488281</ele>
        <time>2015-03-23T14:24:57.000Z</time>
      </trkpt>
      <trkpt lat="45.14261" lon="6.35827">
        <ele>2967.8000488281</ele>
        <time>2015-03-23T14:25:00.000Z</time>
      </trkpt>
      <trkpt lat="45.14261" lon="6.35827">
        <ele>2968</ele>
        <time>2015-03-23T14:25:03.000Z</time>
      </trkpt>
      <trkpt lat="45.14261" lon="6.35827">
        <ele>2968.6000976562</ele>
        <time>2015-03-23T14:25:18.000Z</time>
      </trkpt>
      <trkpt lat="45.14261" lon="6.35827">
        <ele>2969</ele>
        <time>2015-03-23T14:25:30.000Z</time>
      </trkpt>
      <trkpt lat="45.14261" lon="6.35827">
        <ele>2970.3999023438</ele>
        <time>2015-03-23T14:25:33.000Z</time>
      </trkpt>
      <trkpt lat="45.14261" lon="6.35827">
        <ele>2969.3999023438</ele>
        <time>2015-03-23T14:25:42.000Z</time>
      </trkpt>
      <trkpt lat="45.14261" lon="6.35827">
        <ele>2969.6000976562</ele>
        <time>2015-03-23T14:25:49.000Z</time>
      </trkpt>
      <trkpt lat="45.14261" lon="6.35829">
        <ele>2969.3999023438</ele>
        <time>2015-03-23T14:25:55.000Z</time>
      </trkpt>
      <trkpt lat="45.14261" lon="6.35829">
        <ele>2969.1999511719</ele>
        <time>2015-03-23T14:25:57.000Z</time>
      </trkpt>
      <trkpt lat="45.14261" lon="6.35829">
        <ele>2970.3999023438</ele>
        <time>2015-03-23T14:26:02.000Z</time>
      </trkpt>
      <trkpt lat="45.14261" lon="6.35829">
        <ele>2970.6000976562</ele>
        <time>2015-03-23T14:26:04.000Z</time>
      </trkpt>
      <trkpt lat="45.14261" lon="6.35829">
        <ele>2970.6000976562</ele>
        <time>2015-03-23T14:26:13.000Z</time>
      </trkpt>
      <trkpt lat="45.14261" lon="6.35829">
        <ele>2970.8000488281</ele>
        <time>2015-03-23T14:26:20.000Z</time>
      </trkpt>
      <trkpt lat="45.14261" lon="6.35829">
        <ele>2971.1999511719</ele>
        <time>2015-03-23T14:26:32.000Z</time>
      </trkpt>
      <trkpt lat="45.14261" lon="6.35829">
        <ele>2970.6000976562</ele>
        <time>2015-03-23T14:26:45.000Z</time>
      </trkpt>
      <trkpt lat="45.14261" lon="6.35829">
        <ele>2971.6000976562</ele>
        <time>2015-03-23T14:26:47.000Z</time>
      </trkpt>
      <trkpt lat="45.14261" lon="6.35829">
        <ele>2970.6000976562</ele>
        <time>2015-03-23T14:26:55.000Z</time>
      </trkpt>
      <trkpt lat="45.14261" lon="6.35829">
        <ele>2971.6000976562</ele>
        <time>2015-03-23T14:27:03.000Z</time>
      </trkpt>
      <trkpt lat="45.14261" lon="6.35829">
        <ele>2971.6000976562</ele>
        <time>2015-03-23T14:27:04.000Z</time>
      </trkpt>
      <trkpt lat="45.14261" lon="6.35829">
        <ele>2972.1999511719</ele>
        <time>2015-03-23T14:27:14.000Z</time>
      </trkpt>
      <trkpt lat="45.14261" lon="6.35829">
        <ele>2972</ele>
        <time>2015-03-23T14:27:20.000Z</time>
      </trkpt>
      <trkpt lat="45.14261" lon="6.3583">
        <ele>2972.3999023438</ele>
        <time>2015-03-23T14:27:27.000Z</time>
      </trkpt>
      <trkpt lat="45.14261" lon="6.3583">
        <ele>2972.6000976562</ele>
        <time>2015-03-23T14:27:29.000Z</time>
      </trkpt>
      <trkpt lat="45.14261" lon="6.3583">
        <ele>2973.1999511719</ele>
        <time>2015-03-23T14:27:35.000Z</time>
      </trkpt>
      <trkpt lat="45.14261" lon="6.35831">
        <ele>2973.8000488281</ele>
        <time>2015-03-23T14:27:40.000Z</time>
      </trkpt>
      <trkpt lat="45.14261" lon="6.35831">
        <ele>2973.3999023438</ele>
        <time>2015-03-23T14:27:43.000Z</time>
      </trkpt>
      <trkpt lat="45.14261" lon="6.35831">
        <ele>2974.1999511719</ele>
        <time>2015-03-23T14:27:52.000Z</time>
      </trkpt>
      <trkpt lat="45.14261" lon="6.35831">
        <ele>2974.8000488281</ele>
        <time>2015-03-23T14:27:58.000Z</time>
      </trkpt>
      <trkpt lat="45.14261" lon="6.35831">
        <ele>2975.6000976562</ele>
        <time>2015-03-23T14:28:01.000Z</time>
      </trkpt>
      <trkpt lat="45.14261" lon="6.35831">
        <ele>2975.8000488281</ele>
        <time>2015-03-23T14:28:05.000Z</time>
      </trkpt>
      <trkpt lat="45.14261" lon="6.35832">
        <ele>2976</ele>
        <time>2015-03-23T14:28:10.000Z</time>
      </trkpt>
      <trkpt lat="45.14261" lon="6.35833">
        <ele>2977</ele>
        <time>2015-03-23T14:28:15.000Z</time>
      </trkpt>
      <trkpt lat="45.14261" lon="6.35833">
        <ele>2977</ele>
        <time>2015-03-23T14:28:18.000Z</time>
      </trkpt>
      <trkpt lat="45.14261" lon="6.35834">
        <ele>2976.8000488281</ele>
        <time>2015-03-23T14:28:30.000Z</time>
      </trkpt>
      <trkpt lat="45.14261" lon="6.35834">
        <ele>2976.1999511719</ele>
        <time>2015-03-23T14:28:42.000Z</time>
      </trkpt>
      <trkpt lat="45.14261" lon="6.35834">
        <ele>2976.3999023438</ele>
        <time>2015-03-23T14:28:53.000Z</time>
      </trkpt>
      <trkpt lat="45.1426" lon="6.35834">
        <ele>2977.1999511719</ele>
        <time>2015-03-23T14:29:04.000Z</time>
      </trkpt>
      <trkpt lat="45.14261" lon="6.35835">
        <ele>2977</ele>
        <time>2015-03-23T14:29:12.000Z</time>
      </trkpt>
      <trkpt lat="45.14261" lon="6.35835">
        <ele>2977.8000488281</ele>
        <time>2015-03-23T14:29:21.000Z</time>
      </trkpt>
      <trkpt lat="45.14261" lon="6.35835">
        <ele>2978</ele>
        <time>2015-03-23T14:29:24.000Z</time>
      </trkpt>
      <trkpt lat="45.14261" lon="6.35835">
        <ele>2979</ele>
        <time>2015-03-23T14:29:27.000Z</time>
      </trkpt>
      <trkpt lat="45.14261" lon="6.35836">
        <ele>2979.8000488281</ele>
        <time>2015-03-23T14:29:33.000Z</time>
      </trkpt>
      <trkpt lat="45.14261" lon="6.35836">
        <ele>2980</ele>
        <time>2015-03-23T14:29:36.000Z</time>
      </trkpt>
      <trkpt lat="45.14261" lon="6.35836">
        <ele>2980</ele>
        <time>2015-03-23T14:29:48.000Z</time>
      </trkpt>
      <trkpt lat="45.14262" lon="6.35839">
        <ele>2980.8000488281</ele>
        <time>2015-03-23T14:29:54.000Z</time>
      </trkpt>
      <trkpt lat="45.14262" lon="6.35841">
        <ele>2980.8000488281</ele>
        <time>2015-03-23T14:30:07.000Z</time>
      </trkpt>
      <trkpt lat="45.14264" lon="6.35844">
        <ele>2981</ele>
        <time>2015-03-23T14:30:11.000Z</time>
      </trkpt>
      <trkpt lat="45.14264" lon="6.35844">
        <ele>2982.1999511719</ele>
        <time>2015-03-23T14:30:15.000Z</time>
      </trkpt>
      <trkpt lat="45.14264" lon="6.35844">
        <ele>2982.3999023438</ele>
        <time>2015-03-23T14:30:16.000Z</time>
      </trkpt>
      <trkpt lat="45.14264" lon="6.35844">
        <ele>2982.1999511719</ele>
        <time>2015-03-23T14:30:24.000Z</time>
      </trkpt>
      <trkpt lat="45.14264" lon="6.35844">
        <ele>2984</ele>
        <time>2015-03-23T14:30:28.000Z</time>
      </trkpt>
      <trkpt lat="45.14265" lon="6.35845">
        <ele>2985</ele>
        <time>2015-03-23T14:30:31.000Z</time>
      </trkpt>
      <trkpt lat="45.14266" lon="6.35845">
        <ele>2985</ele>
        <time>2015-03-23T14:30:44.000Z</time>
      </trkpt>
      <trkpt lat="45.14266" lon="6.35846">
        <ele>2985.3999023438</ele>
        <time>2015-03-23T14:30:52.000Z</time>
      </trkpt>
      <trkpt lat="45.14267" lon="6.35846">
        <ele>2986.1999511719</ele>
        <time>2015-03-23T14:30:55.000Z</time>
      </trkpt>
      <trkpt lat="45.14267" lon="6.35848">
        <ele>2987</ele>
        <time>2015-03-23T14:31:00.000Z</time>
      </trkpt>
      <trkpt lat="45.14267" lon="6.35848">
        <ele>2987.1999511719</ele>
        <time>2015-03-23T14:31:01.000Z</time>
      </trkpt>
      <trkpt lat="45.14267" lon="6.35848">
        <ele>2988</ele>
        <time>2015-03-23T14:31:15.000Z</time>
      </trkpt>
      <trkpt lat="45.14267" lon="6.35848">
        <ele>2988.3999023438</ele>
        <time>2015-03-23T14:31:22.000Z</time>
      </trkpt>
      <trkpt lat="45.14267" lon="6.35848">
        <ele>2988.6000976562</ele>
        <time>2015-03-23T14:31:23.000Z</time>
      </trkpt>
      <trkpt lat="45.14268" lon="6.3585">
        <ele>2989.6000976562</ele>
        <time>2015-03-23T14:31:30.000Z</time>
      </trkpt>
      <trkpt lat="45.14268" lon="6.3585">
        <ele>2989.6000976562</ele>
        <time>2015-03-23T14:31:32.000Z</time>
      </trkpt>
      <trkpt lat="45.14268" lon="6.35851">
        <ele>2990.6000976562</ele>
        <time>2015-03-23T14:31:36.000Z</time>
      </trkpt>
      <trkpt lat="45.14268" lon="6.35851">
        <ele>2991.1999511719</ele>
        <time>2015-03-23T14:31:40.000Z</time>
      </trkpt>
      <trkpt lat="45.14268" lon="6.35851">
        <ele>2991.6000976562</ele>
        <time>2015-03-23T14:31:42.000Z</time>
      </trkpt>
      <trkpt lat="45.14268" lon="6.35851">
        <ele>2992.3999023438</ele>
        <time>2015-03-23T14:31:53.000Z</time>
      </trkpt>
      <trkpt lat="45.14268" lon="6.35851">
        <ele>2992.6000976562</ele>
        <time>2015-03-23T14:31:55.000Z</time>
      </trkpt>
      <trkpt lat="45.14268" lon="6.35852">
        <ele>2993.3999023438</ele>
        <time>2015-03-23T14:32:03.000Z</time>
      </trkpt>
      <trkpt lat="45.14268" lon="6.35852">
        <ele>2993.6000976562</ele>
        <time>2015-03-23T14:32:04.000Z</time>
      </trkpt>
      <trkpt lat="45.14269" lon="6.35855">
        <ele>2994.6000976562</ele>
        <time>2015-03-23T14:32:11.000Z</time>
      </trkpt>
      <trkpt lat="45.14269" lon="6.35855">
        <ele>2995</ele>
        <time>2015-03-23T14:32:12.000Z</time>
      </trkpt>
      <trkpt lat="45.14271" lon="6.35857">
        <ele>2996</ele>
        <time>2015-03-23T14:32:15.000Z</time>
      </trkpt>
      <trkpt lat="45.14272" lon="6.35859">
        <ele>2996.3999023438</ele>
        <time>2015-03-23T14:32:19.000Z</time>
      </trkpt>
      <trkpt lat="45.14272" lon="6.35861">
        <ele>2997</ele>
        <time>2015-03-23T14:32:23.000Z</time>
      </trkpt>
      <trkpt lat="45.14272" lon="6.35861">
        <ele>2997.6000976562</ele>
        <time>2015-03-23T14:32:29.000Z</time>
      </trkpt>
      <trkpt lat="45.14272" lon="6.35861">
        <ele>2998.1999511719</ele>
        <time>2015-03-23T14:32:31.000Z</time>
      </trkpt>
      <trkpt lat="45.14272" lon="6.35861">
        <ele>2998.6000976562</ele>
        <time>2015-03-23T14:32:43.000Z</time>
      </trkpt>
      <trkpt lat="45.14272" lon="6.35861">
        <ele>2999</ele>
        <time>2015-03-23T14:32:57.000Z</time>
      </trkpt>
      <trkpt lat="45.14272" lon="6.35861">
        <ele>2999.1999511719</ele>
        <time>2015-03-23T14:32:58.000Z</time>
      </trkpt>
      <trkpt lat="45.14274" lon="6.35861">
        <ele>3000</ele>
        <time>2015-03-23T14:33:07.000Z</time>
      </trkpt>
      <trkpt lat="45.14274" lon="6.35861">
        <ele>3000.3999023438</ele>
        <time>2015-03-23T14:33:09.000Z</time>
      </trkpt>
      <trkpt lat="45.14274" lon="6.35861">
        <ele>3001.6000976562</ele>
        <time>2015-03-23T14:33:13.000Z</time>
      </trkpt>
      <trkpt lat="45.14274" lon="6.35861">
        <ele>3002.1999511719</ele>
        <time>2015-03-23T14:33:18.000Z</time>
      </trkpt>
      <trkpt lat="45.14274" lon="6.35861">
        <ele>3002.6000976562</ele>
        <time>2015-03-23T14:33:20.000Z</time>
      </trkpt>
      <trkpt lat="45.14274" lon="6.35861">
        <ele>3003.6000976562</ele>
        <time>2015-03-23T14:33:26.000Z</time>
      </trkpt>
      <trkpt lat="45.14274" lon="6.35861">
        <ele>3004</ele>
        <time>2015-03-23T14:33:29.000Z</time>
      </trkpt>
      <trkpt lat="45.14274" lon="6.35861">
        <ele>3004.6000976562</ele>
        <time>2015-03-23T14:33:34.000Z</time>
      </trkpt>
      <trkpt lat="45.14274" lon="6.35861">
        <ele>3004.6000976562</ele>
        <time>2015-03-23T14:33:41.000Z</time>
      </trkpt>
      <trkpt lat="45.14275" lon="6.35862">
        <ele>3005.8000488281</ele>
        <time>2015-03-23T14:33:48.000Z</time>
      </trkpt>
      <trkpt lat="45.14275" lon="6.35864">
        <ele>3005.8000488281</ele>
        <time>2015-03-23T14:33:58.000Z</time>
      </trkpt>
      <trkpt lat="45.14275" lon="6.35864">
        <ele>3006.8000488281</ele>
        <time>2015-03-23T14:34:02.000Z</time>
      </trkpt>
      <trkpt lat="45.14276" lon="6.35865">
        <ele>3007.8000488281</ele>
        <time>2015-03-23T14:34:08.000Z</time>
      </trkpt>
      <trkpt lat="45.14277" lon="6.35867">
        <ele>3008.1999511719</ele>
        <time>2015-03-23T14:34:10.000Z</time>
      </trkpt>
      <trkpt lat="45.14277" lon="6.35867">
        <ele>3009</ele>
        <time>2015-03-23T14:34:20.000Z</time>
      </trkpt>
      <trkpt lat="45.14277" lon="6.35867">
        <ele>3009.8000488281</ele>
        <time>2015-03-23T14:34:35.000Z</time>
      </trkpt>
      <trkpt lat="45.14277" lon="6.3587">
        <ele>3010.1999511719</ele>
        <time>2015-03-23T14:34:39.000Z</time>
      </trkpt>
      <trkpt lat="45.14277" lon="6.3587">
        <ele>3010.8000488281</ele>
        <time>2015-03-23T14:34:43.000Z</time>
      </trkpt>
      <trkpt lat="45.14277" lon="6.3587">
        <ele>3011.3999023438</ele>
        <time>2015-03-23T14:34:45.000Z</time>
      </trkpt>
      <trkpt lat="45.14278" lon="6.35871">
        <ele>3011.6000976562</ele>
        <time>2015-03-23T14:34:52.000Z</time>
      </trkpt>
      <trkpt lat="45.14278" lon="6.35871">
        <ele>3012.6000976562</ele>
        <time>2015-03-23T14:34:55.000Z</time>
      </trkpt>
      <trkpt lat="45.14278" lon="6.35873">
        <ele>3012.8000488281</ele>
        <time>2015-03-23T14:35:02.000Z</time>
      </trkpt>
      <trkpt lat="45.14278" lon="6.35873">
        <ele>3013.6000976562</ele>
        <time>2015-03-23T14:35:07.000Z</time>
      </trkpt>
      <trkpt lat="45.14278" lon="6.35875">
        <ele>3014.3999023438</ele>
        <time>2015-03-23T14:35:18.000Z</time>
      </trkpt>
      <trkpt lat="45.14278" lon="6.35875">
        <ele>3014.6000976562</ele>
        <time>2015-03-23T14:35:20.000Z</time>
      </trkpt>
      <trkpt lat="45.14278" lon="6.35875">
        <ele>3015.1999511719</ele>
        <time>2015-03-23T14:35:31.000Z</time>
      </trkpt>
      <trkpt lat="45.14279" lon="6.35877">
        <ele>3015.1999511719</ele>
        <time>2015-03-23T14:35:39.000Z</time>
      </trkpt>
      <trkpt lat="45.14279" lon="6.35877">
        <ele>3015.8000488281</ele>
        <time>2015-03-23T14:35:42.000Z</time>
      </trkpt>
      <trkpt lat="45.14279" lon="6.35877">
        <ele>3016</ele>
        <time>2015-03-23T14:35:56.000Z</time>
      </trkpt>
      <trkpt lat="45.14279" lon="6.35877">
        <ele>3016.1999511719</ele>
        <time>2015-03-23T14:36:09.000Z</time>
      </trkpt>
      <trkpt lat="45.14279" lon="6.35877">
        <ele>3016.8000488281</ele>
        <time>2015-03-23T14:36:14.000Z</time>
      </trkpt>
      <trkpt lat="45.14279" lon="6.35877">
        <ele>3017</ele>
        <time>2015-03-23T14:36:26.000Z</time>
      </trkpt>
      <trkpt lat="45.14279" lon="6.35877">
        <ele>3017</ele>
        <time>2015-03-23T14:36:40.000Z</time>
      </trkpt>
      <trkpt lat="45.14279" lon="6.35879">
        <ele>3017.1999511719</ele>
        <time>2015-03-23T14:36:52.000Z</time>
      </trkpt>
      <trkpt lat="45.14279" lon="6.35879">
        <ele>3017.1999511719</ele>
        <time>2015-03-23T14:37:10.000Z</time>
      </trkpt>
      <trkpt lat="45.14278" lon="6.35881">
        <ele>3017.1999511719</ele>
        <time>2015-03-23T14:37:25.000Z</time>
      </trkpt>
      <trkpt lat="45.14278" lon="6.35881">
        <ele>3017.1999511719</ele>
        <time>2015-03-23T14:37:43.000Z</time>
      </trkpt>
      <trkpt lat="45.14278" lon="6.35881">
        <ele>3017</ele>
        <time>2015-03-23T14:38:01.000Z</time>
      </trkpt>
      <trkpt lat="45.14279" lon="6.35884">
        <ele>3017.3999023438</ele>
        <time>2015-03-23T14:38:14.000Z</time>
      </trkpt>
      <trkpt lat="45.14279" lon="6.35883">
        <ele>3017.1999511719</ele>
        <time>2015-03-23T14:38:28.000Z</time>
      </trkpt>
      <trkpt lat="45.14279" lon="6.35883">
        <ele>3017</ele>
        <time>2015-03-23T14:38:39.000Z</time>
      </trkpt>
      <trkpt lat="45.14279" lon="6.35883">
        <ele>3018</ele>
        <time>2015-03-23T14:38:50.000Z</time>
      </trkpt>
      <trkpt lat="45.14278" lon="6.35882">
        <ele>3018.3999023438</ele>
        <time>2015-03-23T14:38:52.000Z</time>
      </trkpt>
      <trkpt lat="45.14278" lon="6.35882">
        <ele>3018.3999023438</ele>
        <time>2015-03-23T14:39:03.000Z</time>
      </trkpt>
      <trkpt lat="45.14279" lon="6.35884">
        <ele>3018</ele>
        <time>2015-03-23T14:39:09.000Z</time>
      </trkpt>
      <trkpt lat="45.14279" lon="6.35885">
        <ele>3019.6000976562</ele>
        <time>2015-03-23T14:39:15.000Z</time>
      </trkpt>
      <trkpt lat="45.14279" lon="6.35886">
        <ele>3020</ele>
        <time>2015-03-23T14:39:16.000Z</time>
      </trkpt>
      <trkpt lat="45.14279" lon="6.35886">
        <ele>3020</ele>
        <time>2015-03-23T14:39:28.000Z</time>
      </trkpt>
      <trkpt lat="45.14279" lon="6.35886">
        <ele>3020.3999023438</ele>
        <time>2015-03-23T14:39:37.000Z</time>
      </trkpt>
      <trkpt lat="45.14279" lon="6.35886">
        <ele>3020.6000976562</ele>
        <time>2015-03-23T14:39:40.000Z</time>
      </trkpt>
      <trkpt lat="45.14279" lon="6.35886">
        <ele>3021</ele>
        <time>2015-03-23T14:39:51.000Z</time>
      </trkpt>
      <trkpt lat="45.14279" lon="6.35886">
        <ele>3020</ele>
        <time>2015-03-23T14:40:01.000Z</time>
      </trkpt>
      <trkpt lat="45.14279" lon="6.35886">
        <ele>3021</ele>
        <time>2015-03-23T14:40:07.000Z</time>
      </trkpt>
      <trkpt lat="45.14279" lon="6.35886">
        <ele>3021.6000976562</ele>
        <time>2015-03-23T14:40:09.000Z</time>
      </trkpt>
      <trkpt lat="45.1428" lon="6.35886">
        <ele>3021.8000488281</ele>
        <time>2015-03-23T14:40:10.000Z</time>
      </trkpt>
      <trkpt lat="45.14279" lon="6.35886">
        <ele>3021</ele>
        <time>2015-03-23T14:40:18.000Z</time>
      </trkpt>
      <trkpt lat="45.14279" lon="6.35886">
        <ele>3021.8000488281</ele>
        <time>2015-03-23T14:40:32.000Z</time>
      </trkpt>
      <trkpt lat="45.14279" lon="6.35886">
        <ele>3021.8000488281</ele>
        <time>2015-03-23T14:40:42.000Z</time>
      </trkpt>
      <trkpt lat="45.14279" lon="6.35886">
        <ele>3021.6000976562</ele>
        <time>2015-03-23T14:40:51.000Z</time>
      </trkpt>
      <trkpt lat="45.14279" lon="6.35886">
        <ele>3021.1999511719</ele>
        <time>2015-03-23T14:41:00.000Z</time>
      </trkpt>
      <trkpt lat="45.14279" lon="6.35886">
        <ele>3021.1999511719</ele>
        <time>2015-03-23T14:41:16.000Z</time>
      </trkpt>
      <trkpt lat="45.14279" lon="6.35886">
        <ele>3021</ele>
        <time>2015-03-23T14:41:29.000Z</time>
      </trkpt>
      <trkpt lat="45.14279" lon="6.35886">
        <ele>3022.3999023438</ele>
        <time>2015-03-23T14:41:39.000Z</time>
      </trkpt>
      <trkpt lat="45.14279" lon="6.35886">
        <ele>3021.8000488281</ele>
        <time>2015-03-23T14:41:49.000Z</time>
      </trkpt>
      <trkpt lat="45.14279" lon="6.35889">
        <ele>3023.8000488281</ele>
        <time>2015-03-23T14:41:57.000Z</time>
      </trkpt>
      <trkpt lat="45.14279" lon="6.35889">
        <ele>3023</ele>
        <time>2015-03-23T14:41:59.000Z</time>
      </trkpt>
      <trkpt lat="45.14279" lon="6.35889">
        <ele>3022.1999511719</ele>
        <time>2015-03-23T14:42:00.000Z</time>
      </trkpt>
      <trkpt lat="45.14279" lon="6.35888">
        <ele>3023.6000976562</ele>
        <time>2015-03-23T14:42:07.000Z</time>
      </trkpt>
      <trkpt lat="45.14279" lon="6.35888">
        <ele>3022.6000976562</ele>
        <time>2015-03-23T14:42:19.000Z</time>
      </trkpt>
      <trkpt lat="45.14279" lon="6.35888">
        <ele>3023.1999511719</ele>
        <time>2015-03-23T14:42:27.000Z</time>
      </trkpt>
      <trkpt lat="45.14279" lon="6.35888">
        <ele>3023.8000488281</ele>
        <time>2015-03-23T14:42:28.000Z</time>
      </trkpt>
      <trkpt lat="45.14279" lon="6.35888">
        <ele>3023.3999023438</ele>
        <time>2015-03-23T14:42:34.000Z</time>
      </trkpt>
      <trkpt lat="45.14279" lon="6.35889">
        <ele>3024.6000976562</ele>
        <time>2015-03-23T14:42:44.000Z</time>
      </trkpt>
      <trkpt lat="45.14279" lon="6.35889">
        <ele>3025</ele>
        <time>2015-03-23T14:42:47.000Z</time>
      </trkpt>
      <trkpt lat="45.14279" lon="6.35889">
        <ele>3026</ele>
        <time>2015-03-23T14:42:50.000Z</time>
      </trkpt>
      <trkpt lat="45.14279" lon="6.35889">
        <ele>3026.6000976562</ele>
        <time>2015-03-23T14:42:53.000Z</time>
      </trkpt>
      <trkpt lat="45.14279" lon="6.35889">
        <ele>3027</ele>
        <time>2015-03-23T14:42:56.000Z</time>
      </trkpt>
      <trkpt lat="45.14279" lon="6.35889">
        <ele>3028.1999511719</ele>
        <time>2015-03-23T14:43:00.000Z</time>
      </trkpt>
      <trkpt lat="45.14278" lon="6.35891">
        <ele>3028.3999023438</ele>
        <time>2015-03-23T14:43:03.000Z</time>
      </trkpt>
      <trkpt lat="45.14278" lon="6.35891">
        <ele>3029.3999023438</ele>
        <time>2015-03-23T14:43:09.000Z</time>
      </trkpt>
      <trkpt lat="45.14278" lon="6.35891">
        <ele>3030</ele>
        <time>2015-03-23T14:43:15.000Z</time>
      </trkpt>
      <trkpt lat="45.14278" lon="6.35891">
        <ele>3030.3999023438</ele>
        <time>2015-03-23T14:43:18.000Z</time>
      </trkpt>
      <trkpt lat="45.14279" lon="6.35895">
        <ele>3030.6000976562</ele>
        <time>2015-03-23T14:43:22.000Z</time>
      </trkpt>
      <trkpt lat="45.14279" lon="6.35895">
        <ele>3031.3999023438</ele>
        <time>2015-03-23T14:43:25.000Z</time>
      </trkpt>
      <trkpt lat="45.14279" lon="6.35895">
        <ele>3032.3999023438</ele>
        <time>2015-03-23T14:43:31.000Z</time>
      </trkpt>
      <trkpt lat="45.14278" lon="6.35896">
        <ele>3032.6000976562</ele>
        <time>2015-03-23T14:43:32.000Z</time>
      </trkpt>
      <trkpt lat="45.14278" lon="6.35896">
        <ele>3033.6000976562</ele>
        <time>2015-03-23T14:43:36.000Z</time>
      </trkpt>
      <trkpt lat="45.14278" lon="6.35896">
        <ele>3034.1999511719</ele>
        <time>2015-03-23T14:43:43.000Z</time>
      </trkpt>
      <trkpt lat="45.14278" lon="6.35898">
        <ele>3034.8000488281</ele>
        <time>2015-03-23T14:43:49.000Z</time>
      </trkpt>
      <trkpt lat="45.14278" lon="6.35898">
        <ele>3035.8000488281</ele>
        <time>2015-03-23T14:43:51.000Z</time>
      </trkpt>
      <trkpt lat="45.14278" lon="6.35898">
        <ele>3036</ele>
        <time>2015-03-23T14:43:52.000Z</time>
      </trkpt>
      <trkpt lat="45.14277" lon="6.35901">
        <ele>3036.8000488281</ele>
        <time>2015-03-23T14:43:58.000Z</time>
      </trkpt>
      <trkpt lat="45.14277" lon="6.35901">
        <ele>3037.1999511719</ele>
        <time>2015-03-23T14:43:59.000Z</time>
      </trkpt>
      <trkpt lat="45.14278" lon="6.35902">
        <ele>3038.1999511719</ele>
        <time>2015-03-23T14:44:03.000Z</time>
      </trkpt>
      <trkpt lat="45.14278" lon="6.35902">
        <ele>3038.6000976562</ele>
        <time>2015-03-23T14:44:05.000Z</time>
      </trkpt>
      <trkpt lat="45.14278" lon="6.35903">
        <ele>3039.3999023438</ele>
        <time>2015-03-23T14:44:08.000Z</time>
      </trkpt>
      <trkpt lat="45.14278" lon="6.35903">
        <ele>3040.1999511719</ele>
        <time>2015-03-23T14:44:11.000Z</time>
      </trkpt>
      <trkpt lat="45.14278" lon="6.35903">
        <ele>3040.3999023438</ele>
        <time>2015-03-23T14:44:13.000Z</time>
      </trkpt>
      <trkpt lat="45.14278" lon="6.35903">
        <ele>3041.8000488281</ele>
        <time>2015-03-23T14:44:26.000Z</time>
      </trkpt>
      <trkpt lat="45.14277" lon="6.35904">
        <ele>3042.1999511719</ele>
        <time>2015-03-23T14:44:35.000Z</time>
      </trkpt>
      <trkpt lat="45.14277" lon="6.35905">
        <ele>3042.8000488281</ele>
        <time>2015-03-23T14:44:38.000Z</time>
      </trkpt>
      <trkpt lat="45.14277" lon="6.35905">
        <ele>3043.6000976562</ele>
        <time>2015-03-23T14:44:42.000Z</time>
      </trkpt>
      <trkpt lat="45.14277" lon="6.35908">
        <ele>3044</ele>
        <time>2015-03-23T14:44:44.000Z</time>
      </trkpt>
      <trkpt lat="45.14275" lon="6.35911">
        <ele>3044.6000976562</ele>
        <time>2015-03-23T14:44:47.000Z</time>
      </trkpt>
      <trkpt lat="45.14275" lon="6.35911">
        <ele>3045</ele>
        <time>2015-03-23T14:44:48.000Z</time>
      </trkpt>
      <trkpt lat="45.14275" lon="6.35911">
        <ele>3044.8000488281</ele>
        <time>2015-03-23T14:45:01.000Z</time>
      </trkpt>
      <trkpt lat="45.14274" lon="6.35912">
        <ele>3045.1999511719</ele>
        <time>2015-03-23T14:45:10.000Z</time>
      </trkpt>
      <trkpt lat="45.14272" lon="6.35913">
        <ele>3046</ele>
        <time>2015-03-23T14:45:16.000Z</time>
      </trkpt>
      <trkpt lat="45.14272" lon="6.35913">
        <ele>3046.1999511719</ele>
        <time>2015-03-23T14:45:17.000Z</time>
      </trkpt>
      <trkpt lat="45.1427" lon="6.35913">
        <ele>3047.3999023438</ele>
        <time>2015-03-23T14:45:22.000Z</time>
      </trkpt>
      <trkpt lat="45.1427" lon="6.35913">
        <ele>3047.3999023438</ele>
        <time>2015-03-23T14:45:23.000Z</time>
      </trkpt>
      <trkpt lat="45.1427" lon="6.35914">
        <ele>3047.1999511719</ele>
        <time>2015-03-23T14:45:31.000Z</time>
      </trkpt>
      <trkpt lat="45.1427" lon="6.35914">
        <ele>3047.3999023438</ele>
        <time>2015-03-23T14:45:43.000Z</time>
      </trkpt>
      <trkpt lat="45.1427" lon="6.35914">
        <ele>3047.3999023438</ele>
        <time>2015-03-23T14:45:59.000Z</time>
      </trkpt>
      <trkpt lat="45.14267" lon="6.35913">
        <ele>3047.3999023438</ele>
        <time>2015-03-23T14:46:12.000Z</time>
      </trkpt>
      <trkpt lat="45.14265" lon="6.35913">
        <ele>3047.1999511719</ele>
        <time>2015-03-23T14:46:17.000Z</time>
      </trkpt>
      <trkpt lat="45.14264" lon="6.35913">
        <ele>3047.3999023438</ele>
        <time>2015-03-23T14:46:22.000Z</time>
      </trkpt>
      <trkpt lat="45.14261" lon="6.35914">
        <ele>3047.6000976562</ele>
        <time>2015-03-23T14:46:28.000Z</time>
      </trkpt>
      <trkpt lat="45.14261" lon="6.35914">
        <ele>3047.6000976562</ele>
        <time>2015-03-23T14:46:29.000Z</time>
      </trkpt>
      <trkpt lat="45.14259" lon="6.35914">
        <ele>3048.3999023438</ele>
        <time>2015-03-23T14:46:33.000Z</time>
      </trkpt>
      <trkpt lat="45.14258" lon="6.35914">
        <ele>3048.6000976562</ele>
        <time>2015-03-23T14:46:34.000Z</time>
      </trkpt>
      <trkpt lat="45.14255" lon="6.35912">
        <ele>3049</ele>
        <time>2015-03-23T14:46:40.000Z</time>
      </trkpt>
      <trkpt lat="45.14253" lon="6.35912">
        <ele>3049.6000976562</ele>
        <time>2015-03-23T14:46:44.000Z</time>
      </trkpt>
      <trkpt lat="45.14251" lon="6.35912">
        <ele>3050.3999023438</ele>
        <time>2015-03-23T14:46:47.000Z</time>
      </trkpt>
      <trkpt lat="45.14251" lon="6.35912">
        <ele>3050.6000976562</ele>
        <time>2015-03-23T14:46:48.000Z</time>
      </trkpt>
      <trkpt lat="45.1425" lon="6.35914">
        <ele>3051.3999023438</ele>
        <time>2015-03-23T14:46:54.000Z</time>
      </trkpt>
      <trkpt lat="45.14249" lon="6.35915">
        <ele>3051.6000976562</ele>
        <time>2015-03-23T14:46:57.000Z</time>
      </trkpt>
      <trkpt lat="45.14249" lon="6.35916">
        <ele>3051.8000488281</ele>
        <time>2015-03-23T14:46:59.000Z</time>
      </trkpt>
      <trkpt lat="45.14246" lon="6.35918">
        <ele>3052.8000488281</ele>
        <time>2015-03-23T14:47:03.000Z</time>
      </trkpt>
      <trkpt lat="45.14246" lon="6.35918">
        <ele>3053</ele>
        <time>2015-03-23T14:47:04.000Z</time>
      </trkpt>
      <trkpt lat="45.14245" lon="6.35918">
        <ele>3053.8000488281</ele>
        <time>2015-03-23T14:47:10.000Z</time>
      </trkpt>
      <trkpt lat="45.14245" lon="6.35918">
        <ele>3054</ele>
        <time>2015-03-23T14:47:12.000Z</time>
      </trkpt>
      <trkpt lat="45.14245" lon="6.35918">
        <ele>3054.1999511719</ele>
        <time>2015-03-23T14:47:31.000Z</time>
      </trkpt>
      <trkpt lat="45.14245" lon="6.35918">
        <ele>3054.6000976562</ele>
        <time>2015-03-23T14:47:37.000Z</time>
      </trkpt>
      <trkpt lat="45.14243" lon="6.35917">
        <ele>3054.8000488281</ele>
        <time>2015-03-23T14:47:41.000Z</time>
      </trkpt>
      <trkpt lat="45.14242" lon="6.35917">
        <ele>3055.1999511719</ele>
        <time>2015-03-23T14:47:44.000Z</time>
      </trkpt>
      <trkpt lat="45.1424" lon="6.35916">
        <ele>3055.6000976562</ele>
        <time>2015-03-23T14:47:50.000Z</time>
      </trkpt>
      <trkpt lat="45.1424" lon="6.35916">
        <ele>3056</ele>
        <time>2015-03-23T14:47:51.000Z</time>
      </trkpt>
      <trkpt lat="45.14239" lon="6.35916">
        <ele>3056.8000488281</ele>
        <time>2015-03-23T14:47:56.000Z</time>
      </trkpt>
      <trkpt lat="45.14239" lon="6.35916">
        <ele>3057</ele>
        <time>2015-03-23T14:47:57.000Z</time>
      </trkpt>
      <trkpt lat="45.14239" lon="6.35916">
        <ele>3056.8000488281</ele>
        <time>2015-03-23T14:48:12.000Z</time>
      </trkpt>
      <trkpt lat="45.14236" lon="6.35915">
        <ele>3056.6000976562</ele>
        <time>2015-03-23T14:48:17.000Z</time>
      </trkpt>
      <trkpt lat="45.14234" lon="6.35915">
        <ele>3058.1999511719</ele>
        <time>2015-03-23T14:48:21.000Z</time>
      </trkpt>
      <trkpt lat="45.14234" lon="6.35914">
        <ele>3058.3999023438</ele>
        <time>2015-03-23T14:48:23.000Z</time>
      </trkpt>
      <trkpt lat="45.14233" lon="6.35914">
        <ele>3058.6000976562</ele>
        <time>2015-03-23T14:48:31.000Z</time>
      </trkpt>
      <trkpt lat="45.14232" lon="6.35913">
        <ele>3059.1999511719</ele>
        <time>2015-03-23T14:48:38.000Z</time>
      </trkpt>
      <trkpt lat="45.14231" lon="6.35913">
        <ele>3059</ele>
        <time>2015-03-23T14:48:50.000Z</time>
      </trkpt>
      <trkpt lat="45.14231" lon="6.35913">
        <ele>3059.1999511719</ele>
        <time>2015-03-23T14:48:51.000Z</time>
      </trkpt>
      <trkpt lat="45.1423" lon="6.35912">
        <ele>3059.8000488281</ele>
        <time>2015-03-23T14:48:59.000Z</time>
      </trkpt>
      <trkpt lat="45.14229" lon="6.35912">
        <ele>3060.1999511719</ele>
        <time>2015-03-23T14:49:03.000Z</time>
      </trkpt>
      <trkpt lat="45.14229" lon="6.35912">
        <ele>3060.6000976562</ele>
        <time>2015-03-23T14:49:06.000Z</time>
      </trkpt>
      <trkpt lat="45.14226" lon="6.3591">
        <ele>3060.6000976562</ele>
        <time>2015-03-23T14:49:14.000Z</time>
      </trkpt>
      <trkpt lat="45.14225" lon="6.35909">
        <ele>3061.1999511719</ele>
        <time>2015-03-23T14:49:18.000Z</time>
      </trkpt>
      <trkpt lat="45.14225" lon="6.35909">
        <ele>3061.6000976562</ele>
        <time>2015-03-23T14:49:22.000Z</time>
      </trkpt>
      <trkpt lat="45.14225" lon="6.35909">
        <ele>3061.8000488281</ele>
        <time>2015-03-23T14:49:31.000Z</time>
      </trkpt>
      <trkpt lat="45.14225" lon="6.35909">
        <ele>3061.8000488281</ele>
        <time>2015-03-23T14:49:45.000Z</time>
      </trkpt>
      <trkpt lat="45.14225" lon="6.35909">
        <ele>3061.8000488281</ele>
        <time>2015-03-23T14:49:59.000Z</time>
      </trkpt>
      <trkpt lat="45.14225" lon="6.35909">
        <ele>3061.1999511719</ele>
        <time>2015-03-23T14:50:07.000Z</time>
      </trkpt>
      <trkpt lat="45.14225" lon="6.35909">
        <ele>3061.3999023438</ele>
        <time>2015-03-23T14:50:18.000Z</time>
      </trkpt>
      <trkpt lat="45.14225" lon="6.35909">
        <ele>3061.3999023438</ele>
        <time>2015-03-23T14:50:31.000Z</time>
      </trkpt>
      <trkpt lat="45.14225" lon="6.35909">
        <ele>3061.6000976562</ele>
        <time>2015-03-23T14:50:41.000Z</time>
      </trkpt>
      <trkpt lat="45.14225" lon="6.35909">
        <ele>3061.8000488281</ele>
        <time>2015-03-23T14:50:43.000Z</time>
      </trkpt>
      <trkpt lat="45.14225" lon="6.35909">
        <ele>3061.3999023438</ele>
        <time>2015-03-23T14:50:58.000Z</time>
      </trkpt>
      <trkpt lat="45.14225" lon="6.35909">
        <ele>3061.8000488281</ele>
        <time>2015-03-23T14:51:11.000Z</time>
      </trkpt>
      <trkpt lat="45.14225" lon="6.35909">
        <ele>3061.6000976562</ele>
        <time>2015-03-23T14:51:29.000Z</time>
      </trkpt>
      <trkpt lat="45.14225" lon="6.35909">
        <ele>3061.6000976562</ele>
        <time>2015-03-23T14:51:46.000Z</time>
      </trkpt>
      <trkpt lat="45.14225" lon="6.35909">
        <ele>3062</ele>
        <time>2015-03-23T14:51:57.000Z</time>
      </trkpt>
      <trkpt lat="45.14225" lon="6.35909">
        <ele>3061.3999023438</ele>
        <time>2015-03-23T14:52:10.000Z</time>
      </trkpt>
      <trkpt lat="45.14225" lon="6.35909">
        <ele>3061.8000488281</ele>
        <time>2015-03-23T14:52:22.000Z</time>
      </trkpt>
      <trkpt lat="45.14225" lon="6.35911">
        <ele>3061.1999511719</ele>
        <time>2015-03-23T14:52:29.000Z</time>
      </trkpt>
      <trkpt lat="45.14226" lon="6.35911">
        <ele>3061.1999511719</ele>
        <time>2015-03-23T14:52:37.000Z</time>
      </trkpt>
      <trkpt lat="45.14226" lon="6.35911">
        <ele>3061</ele>
        <time>2015-03-23T14:52:48.000Z</time>
      </trkpt>
      <trkpt lat="45.14226" lon="6.35911">
        <ele>3061.1999511719</ele>
        <time>2015-03-23T14:53:01.000Z</time>
      </trkpt>
      <trkpt lat="45.14226" lon="6.35911">
        <ele>3060.1999511719</ele>
        <time>2015-03-23T14:53:16.000Z</time>
      </trkpt>
      <trkpt lat="45.14226" lon="6.35911">
        <ele>3061.1999511719</ele>
        <time>2015-03-23T14:53:23.000Z</time>
      </trkpt>
      <trkpt lat="45.14226" lon="6.35911">
        <ele>3061.3999023438</ele>
        <time>2015-03-23T14:53:27.000Z</time>
      </trkpt>
      <trkpt lat="45.14226" lon="6.35911">
        <ele>3061.1999511719</ele>
        <time>2015-03-23T14:53:34.000Z</time>
      </trkpt>
      <trkpt lat="45.14226" lon="6.35911">
        <ele>3060.8000488281</ele>
        <time>2015-03-23T14:53:44.000Z</time>
      </trkpt>
      <trkpt lat="45.14226" lon="6.35911">
        <ele>3060.8000488281</ele>
        <time>2015-03-23T14:54:04.000Z</time>
      </trkpt>
      <trkpt lat="45.14226" lon="6.35911">
        <ele>3061</ele>
        <time>2015-03-23T14:54:25.000Z</time>
      </trkpt>
      <trkpt lat="45.14226" lon="6.35911">
        <ele>3060.3999023438</ele>
        <time>2015-03-23T14:54:46.000Z</time>
      </trkpt>
      <trkpt lat="45.14226" lon="6.35911">
        <ele>3060</ele>
        <time>2015-03-23T14:54:49.000Z</time>
      </trkpt>
      <trkpt lat="45.14226" lon="6.35911">
        <ele>3060.6000976562</ele>
        <time>2015-03-23T14:55:02.000Z</time>
      </trkpt>
      <trkpt lat="45.14227" lon="6.35911">
        <ele>3061</ele>
        <time>2015-03-23T14:55:15.000Z</time>
      </trkpt>
      <trkpt lat="45.14227" lon="6.35911">
        <ele>3061</ele>
        <time>2015-03-23T14:55:16.000Z</time>
      </trkpt>
      <trkpt lat="45.14226" lon="6.35911">
        <ele>3061.1999511719</ele>
        <time>2015-03-23T14:55:26.000Z</time>
      </trkpt>
      <trkpt lat="45.14226" lon="6.35911">
        <ele>3061.1999511719</ele>
        <time>2015-03-23T14:55:38.000Z</time>
      </trkpt>
      <trkpt lat="45.14226" lon="6.35911">
        <ele>3061.1999511719</ele>
        <time>2015-03-23T14:55:50.000Z</time>
      </trkpt>
      <trkpt lat="45.14226" lon="6.35911">
        <ele>3061.1999511719</ele>
        <time>2015-03-23T14:56:04.000Z</time>
      </trkpt>
      <trkpt lat="45.14226" lon="6.35911">
        <ele>3061.6000976562</ele>
        <time>2015-03-23T14:56:15.000Z</time>
      </trkpt>
      <trkpt lat="45.14226" lon="6.35911">
        <ele>3061.3999023438</ele>
        <time>2015-03-23T14:56:28.000Z</time>
      </trkpt>
      <trkpt lat="45.14226" lon="6.35911">
        <ele>3061.3999023438</ele>
        <time>2015-03-23T14:56:43.000Z</time>
      </trkpt>
      <trkpt lat="45.14227" lon="6.35912">
        <ele>3061.6000976562</ele>
        <time>2015-03-23T14:56:59.000Z</time>
      </trkpt>
      <trkpt lat="45.14227" lon="6.35912">
        <ele>3061.6000976562</ele>
        <time>2015-03-23T14:57:12.000Z</time>
      </trkpt>
      <trkpt lat="45.14227" lon="6.35912">
        <ele>3062.1999511719</ele>
        <time>2015-03-23T14:57:24.000Z</time>
      </trkpt>
      <trkpt lat="45.14227" lon="6.35912">
        <ele>3062.1999511719</ele>
        <time>2015-03-23T14:57:25.000Z</time>
      </trkpt>
      <trkpt lat="45.14227" lon="6.35912">
        <ele>3061.3999023438</ele>
        <time>2015-03-23T14:57:41.000Z</time>
      </trkpt>
      <trkpt lat="45.14227" lon="6.35912">
        <ele>3061.3999023438</ele>
        <time>2015-03-23T14:58:03.000Z</time>
      </trkpt>
      <trkpt lat="45.14227" lon="6.35912">
        <ele>3061.3999023438</ele>
        <time>2015-03-23T14:58:21.000Z</time>
      </trkpt>
      <trkpt lat="45.14227" lon="6.35912">
        <ele>3061.6000976562</ele>
        <time>2015-03-23T14:58:39.000Z</time>
      </trkpt>
      <trkpt lat="45.14227" lon="6.35912">
        <ele>3062.1999511719</ele>
        <time>2015-03-23T14:58:54.000Z</time>
      </trkpt>
      <trkpt lat="45.14227" lon="6.35912">
        <ele>3062.1999511719</ele>
        <time>2015-03-23T14:58:57.000Z</time>
      </trkpt>
      <trkpt lat="45.14226" lon="6.35912">
        <ele>3062</ele>
        <time>2015-03-23T14:59:04.000Z</time>
      </trkpt>
      <trkpt lat="45.14226" lon="6.35912">
        <ele>3061.8000488281</ele>
        <time>2015-03-23T14:59:20.000Z</time>
      </trkpt>
      <trkpt lat="45.14226" lon="6.35912">
        <ele>3061.6000976562</ele>
        <time>2015-03-23T14:59:37.000Z</time>
      </trkpt>
      <trkpt lat="45.14226" lon="6.35912">
        <ele>3061.8000488281</ele>
        <time>2015-03-23T14:59:53.000Z</time>
      </trkpt>
      <trkpt lat="45.14226" lon="6.35912">
        <ele>3061.6000976562</ele>
        <time>2015-03-23T15:00:08.000Z</time>
      </trkpt>
      <trkpt lat="45.14226" lon="6.35912">
        <ele>3062</ele>
        <time>2015-03-23T15:00:23.000Z</time>
      </trkpt>
      <trkpt lat="45.14226" lon="6.35912">
        <ele>3062</ele>
        <time>2015-03-23T15:00:45.000Z</time>
      </trkpt>
      <trkpt lat="45.14226" lon="6.35912">
        <ele>3061.8000488281</ele>
        <time>2015-03-23T15:01:03.000Z</time>
      </trkpt>
      <trkpt lat="45.14226" lon="6.35912">
        <ele>3062</ele>
        <time>2015-03-23T15:01:17.000Z</time>
      </trkpt>
      <trkpt lat="45.14226" lon="6.35912">
        <ele>3061.8000488281</ele>
        <time>2015-03-23T15:01:32.000Z</time>
      </trkpt>
      <trkpt lat="45.14226" lon="6.35911">
        <ele>3061.6000976562</ele>
        <time>2015-03-23T15:01:46.000Z</time>
      </trkpt>
      <trkpt lat="45.14226" lon="6.35911">
        <ele>3062.3999023438</ele>
        <time>2015-03-23T15:02:00.000Z</time>
      </trkpt>
      <trkpt lat="45.14226" lon="6.35912">
        <ele>3062.3999023438</ele>
        <time>2015-03-23T15:02:12.000Z</time>
      </trkpt>
      <trkpt lat="45.14226" lon="6.35912">
        <ele>3062</ele>
        <time>2015-03-23T15:02:22.000Z</time>
      </trkpt>
      <trkpt lat="45.14225" lon="6.35911">
        <ele>3062.1999511719</ele>
        <time>2015-03-23T15:02:29.000Z</time>
      </trkpt>
      <trkpt lat="45.14225" lon="6.35911">
        <ele>3062.3999023438</ele>
        <time>2015-03-23T15:02:44.000Z</time>
      </trkpt>
      <trkpt lat="45.14225" lon="6.35911">
        <ele>3062.3999023438</ele>
        <time>2015-03-23T15:02:56.000Z</time>
      </trkpt>
      <trkpt lat="45.14227" lon="6.35911">
        <ele>3062.1999511719</ele>
        <time>2015-03-23T15:03:03.000Z</time>
      </trkpt>
      <trkpt lat="45.14227" lon="6.35911">
        <ele>3062.1999511719</ele>
        <time>2015-03-23T15:03:05.000Z</time>
      </trkpt>
      <trkpt lat="45.14227" lon="6.35911">
        <ele>3062.1999511719</ele>
        <time>2015-03-23T15:03:11.000Z</time>
      </trkpt>
      <trkpt lat="45.14227" lon="6.35911">
        <ele>3062</ele>
        <time>2015-03-23T15:03:27.000Z</time>
      </trkpt>
      <trkpt lat="45.14227" lon="6.35911">
        <ele>3062.1999511719</ele>
        <time>2015-03-23T15:03:41.000Z</time>
      </trkpt>
      <trkpt lat="45.14227" lon="6.35911">
        <ele>3062</ele>
        <time>2015-03-23T15:03:53.000Z</time>
      </trkpt>
      <trkpt lat="45.14227" lon="6.35911">
        <ele>3062.1999511719</ele>
        <time>2015-03-23T15:04:08.000Z</time>
      </trkpt>
      <trkpt lat="45.14227" lon="6.35911">
        <ele>3062.1999511719</ele>
        <time>2015-03-23T15:04:20.000Z</time>
      </trkpt>
      <trkpt lat="45.14227" lon="6.35911">
        <ele>3062.3999023438</ele>
        <time>2015-03-23T15:04:29.000Z</time>
      </trkpt>
      <trkpt lat="45.14227" lon="6.35911">
        <ele>3062</ele>
        <time>2015-03-23T15:04:42.000Z</time>
      </trkpt>
      <trkpt lat="45.14227" lon="6.35911">
        <ele>3062</ele>
        <time>2015-03-23T15:04:50.000Z</time>
      </trkpt>
      <trkpt lat="45.14227" lon="6.35911">
        <ele>3062.3999023438</ele>
        <time>2015-03-23T15:05:03.000Z</time>
      </trkpt>
      <trkpt lat="45.14227" lon="6.35911">
        <ele>3062.3999023438</ele>
        <time>2015-03-23T15:05:16.000Z</time>
      </trkpt>
      <trkpt lat="45.14227" lon="6.35911">
        <ele>3062</ele>
        <time>2015-03-23T15:05:28.000Z</time>
      </trkpt>
      <trkpt lat="45.14227" lon="6.35911">
        <ele>3062.6000976562</ele>
        <time>2015-03-23T15:05:38.000Z</time>
      </trkpt>
      <trkpt lat="45.14227" lon="6.35911">
        <ele>3062.3999023438</ele>
        <time>2015-03-23T15:05:54.000Z</time>
      </trkpt>
      <trkpt lat="45.14227" lon="6.35911">
        <ele>3062.6000976562</ele>
        <time>2015-03-23T15:06:06.000Z</time>
      </trkpt>
      <trkpt lat="45.14227" lon="6.35911">
        <ele>3062.3999023438</ele>
        <time>2015-03-23T15:06:20.000Z</time>
      </trkpt>
      <trkpt lat="45.14227" lon="6.35911">
        <ele>3062.3999023438</ele>
        <time>2015-03-23T15:06:36.000Z</time>
      </trkpt>
      <trkpt lat="45.14227" lon="6.35911">
        <ele>3062.3999023438</ele>
        <time>2015-03-23T15:06:51.000Z</time>
      </trkpt>
      <trkpt lat="45.14227" lon="6.35911">
        <ele>3062.6000976562</ele>
        <time>2015-03-23T15:07:07.000Z</time>
      </trkpt>
      <trkpt lat="45.14227" lon="6.35911">
        <ele>3062.3999023438</ele>
        <time>2015-03-23T15:07:27.000Z</time>
      </trkpt>
      <trkpt lat="45.14227" lon="6.35911">
        <ele>3062.1999511719</ele>
        <time>2015-03-23T15:07:41.000Z</time>
      </trkpt>
      <trkpt lat="45.14227" lon="6.35911">
        <ele>3062.1999511719</ele>
        <time>2015-03-23T15:07:55.000Z</time>
      </trkpt>
      <trkpt lat="45.14227" lon="6.35911">
        <ele>3062.3999023438</ele>
        <time>2015-03-23T15:08:09.000Z</time>
      </trkpt>
      <trkpt lat="45.14227" lon="6.35911">
        <ele>3062.3999023438</ele>
        <time>2015-03-23T15:08:17.000Z</time>
      </trkpt>
      <trkpt lat="45.14227" lon="6.35911">
        <ele>3061.6000976562</ele>
        <time>2015-03-23T15:08:31.000Z</time>
      </trkpt>
      <trkpt lat="45.14228" lon="6.35912">
        <ele>3062</ele>
        <time>2015-03-23T15:08:40.000Z</time>
      </trkpt>
      <trkpt lat="45.14228" lon="6.35912">
        <ele>3062</ele>
        <time>2015-03-23T15:08:56.000Z</time>
      </trkpt>
      <trkpt lat="45.14228" lon="6.35912">
        <ele>3062</ele>
        <time>2015-03-23T15:09:11.000Z</time>
      </trkpt>
      <trkpt lat="45.14228" lon="6.35913">
        <ele>3062</ele>
        <time>2015-03-23T15:09:24.000Z</time>
      </trkpt>
      <trkpt lat="45.14229" lon="6.35913">
        <ele>3061.8000488281</ele>
        <time>2015-03-23T15:09:32.000Z</time>
      </trkpt>
      <trkpt lat="45.14229" lon="6.35913">
        <ele>3061.3999023438</ele>
        <time>2015-03-23T15:09:45.000Z</time>
      </trkpt>
      <trkpt lat="45.14229" lon="6.35913">
        <ele>3061.1999511719</ele>
        <time>2015-03-23T15:10:02.000Z</time>
      </trkpt>
      <trkpt lat="45.14229" lon="6.35914">
        <ele>3061.1999511719</ele>
        <time>2015-03-23T15:10:20.000Z</time>
      </trkpt>
      <trkpt lat="45.14229" lon="6.35914">
        <ele>3061.6000976562</ele>
        <time>2015-03-23T15:10:29.000Z</time>
      </trkpt>
      <trkpt lat="45.14229" lon="6.35914">
        <ele>3061.3999023438</ele>
        <time>2015-03-23T15:10:46.000Z</time>
      </trkpt>
      <trkpt lat="45.14229" lon="6.35914">
        <ele>3061.6000976562</ele>
        <time>2015-03-23T15:10:59.000Z</time>
      </trkpt>
      <trkpt lat="45.14229" lon="6.35914">
        <ele>3061.6000976562</ele>
        <time>2015-03-23T15:11:15.000Z</time>
      </trkpt>
      <trkpt lat="45.14229" lon="6.35914">
        <ele>3061.6000976562</ele>
        <time>2015-03-23T15:11:33.000Z</time>
      </trkpt>
      <trkpt lat="45.14229" lon="6.35914">
        <ele>3061.1999511719</ele>
        <time>2015-03-23T15:11:44.000Z</time>
      </trkpt>
      <trkpt lat="45.14231" lon="6.35914">
        <ele>3061.1999511719</ele>
        <time>2015-03-23T15:11:45.000Z</time>
      </trkpt>
      <trkpt lat="45.14233" lon="6.35915">
        <ele>3061</ele>
        <time>2015-03-23T15:11:46.000Z</time>
      </trkpt>
      <trkpt lat="45.14238" lon="6.35916">
        <ele>3060.6000976562</ele>
        <time>2015-03-23T15:11:49.000Z</time>
      </trkpt>
      <trkpt lat="45.14241" lon="6.35919">
        <ele>3060</ele>
        <time>2015-03-23T15:11:52.000Z</time>
      </trkpt>
      <trkpt lat="45.14246" lon="6.35919">
        <ele>3059.3999023438</ele>
        <time>2015-03-23T15:11:54.000Z</time>
      </trkpt>
      <trkpt lat="45.14248" lon="6.3592">
        <ele>3058.6000976562</ele>
        <time>2015-03-23T15:11:56.000Z</time>
      </trkpt>
      <trkpt lat="45.14251" lon="6.35919">
        <ele>3057.6000976562</ele>
        <time>2015-03-23T15:11:58.000Z</time>
      </trkpt>
      <trkpt lat="45.14257" lon="6.35916">
        <ele>3056.1999511719</ele>
        <time>2015-03-23T15:12:01.000Z</time>
      </trkpt>
      <trkpt lat="45.1426" lon="6.35914">
        <ele>3055</ele>
        <time>2015-03-23T15:12:03.000Z</time>
      </trkpt>
      <trkpt lat="45.14261" lon="6.35913">
        <ele>3053.8000488281</ele>
        <time>2015-03-23T15:12:04.000Z</time>
      </trkpt>
      <trkpt lat="45.14264" lon="6.35912">
        <ele>3052.3999023438</ele>
        <time>2015-03-23T15:12:07.000Z</time>
      </trkpt>
      <trkpt lat="45.14264" lon="6.35912">
        <ele>3052</ele>
        <time>2015-03-23T15:12:09.000Z</time>
      </trkpt>
      <trkpt lat="45.14264" lon="6.35912">
        <ele>3051.3999023438</ele>
        <time>2015-03-23T15:12:11.000Z</time>
      </trkpt>
      <trkpt lat="45.14261" lon="6.35914">
        <ele>3051</ele>
        <time>2015-03-23T15:12:20.000Z</time>
      </trkpt>
      <trkpt lat="45.1426" lon="6.35913">
        <ele>3050.8000488281</ele>
        <time>2015-03-23T15:12:32.000Z</time>
      </trkpt>
      <trkpt lat="45.1426" lon="6.35913">
        <ele>3050.8000488281</ele>
        <time>2015-03-23T15:12:50.000Z</time>
      </trkpt>
      <trkpt lat="45.14264" lon="6.35913">
        <ele>3050.3999023438</ele>
        <time>2015-03-23T15:13:02.000Z</time>
      </trkpt>
      <trkpt lat="45.14264" lon="6.35913">
        <ele>3050.3999023438</ele>
        <time>2015-03-23T15:13:03.000Z</time>
      </trkpt>
      <trkpt lat="45.14264" lon="6.35913">
        <ele>3050</ele>
        <time>2015-03-23T15:13:10.000Z</time>
      </trkpt>
      <trkpt lat="45.14264" lon="6.35913">
        <ele>3049.8000488281</ele>
        <time>2015-03-23T15:13:28.000Z</time>
      </trkpt>
      <trkpt lat="45.14264" lon="6.35913">
        <ele>3049.6000976562</ele>
        <time>2015-03-23T15:13:52.000Z</time>
      </trkpt>
      <trkpt lat="45.14264" lon="6.35913">
        <ele>3049.6000976562</ele>
        <time>2015-03-23T15:14:18.000Z</time>
      </trkpt>
      <trkpt lat="45.14264" lon="6.35913">
        <ele>3049.6000976562</ele>
        <time>2015-03-23T15:14:37.000Z</time>
      </trkpt>
      <trkpt lat="45.14264" lon="6.35913">
        <ele>3049.1999511719</ele>
        <time>2015-03-23T15:14:42.000Z</time>
      </trkpt>
      <trkpt lat="45.14264" lon="6.35913">
        <ele>3049.6000976562</ele>
        <time>2015-03-23T15:14:51.000Z</time>
      </trkpt>
      <trkpt lat="45.14264" lon="6.35913">
        <ele>3050.3999023438</ele>
        <time>2015-03-23T15:14:54.000Z</time>
      </trkpt>
      <trkpt lat="45.14264" lon="6.35913">
        <ele>3049.8000488281</ele>
        <time>2015-03-23T15:15:03.000Z</time>
      </trkpt>
      <trkpt lat="45.14264" lon="6.35913">
        <ele>3049.1999511719</ele>
        <time>2015-03-23T15:15:08.000Z</time>
      </trkpt>
      <trkpt lat="45.14264" lon="6.35913">
        <ele>3050.1999511719</ele>
        <time>2015-03-23T15:15:15.000Z</time>
      </trkpt>
      <trkpt lat="45.14264" lon="6.35913">
        <ele>3049.1999511719</ele>
        <time>2015-03-23T15:15:21.000Z</time>
      </trkpt>
      <trkpt lat="45.14263" lon="6.35912">
        <ele>3050.1999511719</ele>
        <time>2015-03-23T15:15:26.000Z</time>
      </trkpt>
      <trkpt lat="45.14263" lon="6.35912">
        <ele>3050.3999023438</ele>
        <time>2015-03-23T15:15:27.000Z</time>
      </trkpt>
      <trkpt lat="45.1426" lon="6.35911">
        <ele>3050.6000976562</ele>
        <time>2015-03-23T15:15:32.000Z</time>
      </trkpt>
      <trkpt lat="45.14258" lon="6.35911">
        <ele>3051.3999023438</ele>
        <time>2015-03-23T15:15:35.000Z</time>
      </trkpt>
      <trkpt lat="45.14257" lon="6.3591">
        <ele>3052</ele>
        <time>2015-03-23T15:15:37.000Z</time>
      </trkpt>
      <trkpt lat="45.14255" lon="6.3591">
        <ele>3052.3999023438</ele>
        <time>2015-03-23T15:15:42.000Z</time>
      </trkpt>
      <trkpt lat="45.14255" lon="6.3591">
        <ele>3052.6000976562</ele>
        <time>2015-03-23T15:15:44.000Z</time>
      </trkpt>
      <trkpt lat="45.14255" lon="6.3591">
        <ele>3052.3999023438</ele>
        <time>2015-03-23T15:15:48.000Z</time>
      </trkpt>
      <trkpt lat="45.14254" lon="6.35912">
        <ele>3053</ele>
        <time>2015-03-23T15:15:54.000Z</time>
      </trkpt>
      <trkpt lat="45.14254" lon="6.35913">
        <ele>3053</ele>
        <time>2015-03-23T15:15:59.000Z</time>
      </trkpt>
      <trkpt lat="45.14253" lon="6.35913">
        <ele>3053.6000976562</ele>
        <time>2015-03-23T15:16:02.000Z</time>
      </trkpt>
      <trkpt lat="45.14252" lon="6.35915">
        <ele>3054.1999511719</ele>
        <time>2015-03-23T15:16:05.000Z</time>
      </trkpt>
      <trkpt lat="45.14252" lon="6.35915">
        <ele>3054.6000976562</ele>
        <time>2015-03-23T15:16:07.000Z</time>
      </trkpt>
      <trkpt lat="45.14251" lon="6.35916">
        <ele>3054.6000976562</ele>
        <time>2015-03-23T15:16:13.000Z</time>
      </trkpt>
      <trkpt lat="45.14249" lon="6.35916">
        <ele>3055</ele>
        <time>2015-03-23T15:16:18.000Z</time>
      </trkpt>
      <trkpt lat="45.14248" lon="6.35916">
        <ele>3055.8000488281</ele>
        <time>2015-03-23T15:16:21.000Z</time>
      </trkpt>
      <trkpt lat="45.14248" lon="6.35916">
        <ele>3056.1999511719</ele>
        <time>2015-03-23T15:16:24.000Z</time>
      </trkpt>
      <trkpt lat="45.14246" lon="6.35915">
        <ele>3056.8000488281</ele>
        <time>2015-03-23T15:16:28.000Z</time>
      </trkpt>
      <trkpt lat="45.14246" lon="6.35915">
        <ele>3057.1999511719</ele>
        <time>2015-03-23T15:16:29.000Z</time>
      </trkpt>
      <trkpt lat="45.14245" lon="6.35916">
        <ele>3057.8000488281</ele>
        <time>2015-03-23T15:16:35.000Z</time>
      </trkpt>
      <trkpt lat="45.14241" lon="6.35918">
        <ele>3057.8000488281</ele>
        <time>2015-03-23T15:16:41.000Z</time>
      </trkpt>
      <trkpt lat="45.14238" lon="6.35918">
        <ele>3058</ele>
        <time>2015-03-23T15:16:45.000Z</time>
      </trkpt>
      <trkpt lat="45.14237" lon="6.35919">
        <ele>3058</ele>
        <time>2015-03-23T15:16:51.000Z</time>
      </trkpt>
      <trkpt lat="45.14236" lon="6.35919">
        <ele>3058.3999023438</ele>
        <time>2015-03-23T15:16:56.000Z</time>
      </trkpt>
      <trkpt lat="45.14236" lon="6.35919">
        <ele>3058.3999023438</ele>
        <time>2015-03-23T15:16:57.000Z</time>
      </trkpt>
      <trkpt lat="45.14236" lon="6.35919">
        <ele>3059</ele>
        <time>2015-03-23T15:17:10.000Z</time>
      </trkpt>
      <trkpt lat="45.14235" lon="6.35919">
        <ele>3059.6000976562</ele>
        <time>2015-03-23T15:17:14.000Z</time>
      </trkpt>
      <trkpt lat="45.14235" lon="6.35919">
        <ele>3060.1999511719</ele>
        <time>2015-03-23T15:17:19.000Z</time>
      </trkpt>
      <trkpt lat="45.14231" lon="6.35919">
        <ele>3060.3999023438</ele>
        <time>2015-03-23T15:17:26.000Z</time>
      </trkpt>
      <trkpt lat="45.14231" lon="6.35919">
        <ele>3060.6000976562</ele>
        <time>2015-03-23T15:17:28.000Z</time>
      </trkpt>
      <trkpt lat="45.14229" lon="6.35918">
        <ele>3061</ele>
        <time>2015-03-23T15:17:32.000Z</time>
      </trkpt>
      <trkpt lat="45.14227" lon="6.35916">
        <ele>3061.1999511719</ele>
        <time>2015-03-23T15:17:36.000Z</time>
      </trkpt>
      <trkpt lat="45.14226" lon="6.35915">
        <ele>3061.8000488281</ele>
        <time>2015-03-23T15:17:38.000Z</time>
      </trkpt>
      <trkpt lat="45.14226" lon="6.35914">
        <ele>3062.1999511719</ele>
        <time>2015-03-23T15:17:42.000Z</time>
      </trkpt>
      <trkpt lat="45.14226" lon="6.35914">
        <ele>3062.8000488281</ele>
        <time>2015-03-23T15:17:50.000Z</time>
      </trkpt>
      <trkpt lat="45.14226" lon="6.35914">
        <ele>3063</ele>
        <time>2015-03-23T15:17:52.000Z</time>
      </trkpt>
      <trkpt lat="45.14226" lon="6.35914">
        <ele>3062.8000488281</ele>
        <time>2015-03-23T15:17:59.000Z</time>
      </trkpt>
      <trkpt lat="45.14226" lon="6.35915">
        <ele>3062.3999023438</ele>
        <time>2015-03-23T15:18:05.000Z</time>
      </trkpt>
      <trkpt lat="45.14226" lon="6.35915">
        <ele>3062.8000488281</ele>
        <time>2015-03-23T15:18:14.000Z</time>
      </trkpt>
      <trkpt lat="45.14226" lon="6.35915">
        <ele>3063</ele>
        <time>2015-03-23T15:18:31.000Z</time>
      </trkpt>
      <trkpt lat="45.14226" lon="6.35915">
        <ele>3062.8000488281</ele>
        <time>2015-03-23T15:18:45.000Z</time>
      </trkpt>
      <trkpt lat="45.14226" lon="6.35915">
        <ele>3063.1999511719</ele>
        <time>2015-03-23T15:19:01.000Z</time>
      </trkpt>
      <trkpt lat="45.14226" lon="6.35915">
        <ele>3063</ele>
        <time>2015-03-23T15:19:18.000Z</time>
      </trkpt>
      <trkpt lat="45.14227" lon="6.35916">
        <ele>3062.8000488281</ele>
        <time>2015-03-23T15:19:34.000Z</time>
      </trkpt>
      <trkpt lat="45.14227" lon="6.35918">
        <ele>3062.6000976562</ele>
        <time>2015-03-23T15:19:35.000Z</time>
      </trkpt>
      <trkpt lat="45.14223" lon="6.35918">
        <ele>3062.3999023438</ele>
        <time>2015-03-23T15:19:38.000Z</time>
      </trkpt>
      <trkpt lat="45.14221" lon="6.35917">
        <ele>3061.3999023438</ele>
        <time>2015-03-23T15:19:41.000Z</time>
      </trkpt>
      <trkpt lat="45.14219" lon="6.35921">
        <ele>3061.1999511719</ele>
        <time>2015-03-23T15:19:42.000Z</time>
      </trkpt>
      <trkpt lat="45.14217" lon="6.35923">
        <ele>3061.1999511719</ele>
        <time>2015-03-23T15:19:43.000Z</time>
      </trkpt>
      <trkpt lat="45.14216" lon="6.35924">
        <ele>3060.3999023438</ele>
        <time>2015-03-23T15:19:46.000Z</time>
      </trkpt>
      <trkpt lat="45.14216" lon="6.35923">
        <ele>3059.6000976562</ele>
        <time>2015-03-23T15:19:47.000Z</time>
      </trkpt>
      <trkpt lat="45.14215" lon="6.35923">
        <ele>3058.8000488281</ele>
        <time>2015-03-23T15:19:48.000Z</time>
      </trkpt>
      <trkpt lat="45.14215" lon="6.35921">
        <ele>3057.8000488281</ele>
        <time>2015-03-23T15:19:50.000Z</time>
      </trkpt>
      <trkpt lat="45.14214" lon="6.35917">
        <ele>3057</ele>
        <time>2015-03-23T15:19:55.000Z</time>
      </trkpt>
      <trkpt lat="45.14214" lon="6.35917">
        <ele>3056.6000976562</ele>
        <time>2015-03-23T15:19:58.000Z</time>
      </trkpt>
      <trkpt lat="45.14213" lon="6.35913">
        <ele>3056.3999023438</ele>
        <time>2015-03-23T15:20:00.000Z</time>
      </trkpt>
      <trkpt lat="45.14213" lon="6.35909">
        <ele>3056.1999511719</ele>
        <time>2015-03-23T15:20:01.000Z</time>
      </trkpt>
      <trkpt lat="45.14212" lon="6.35905">
        <ele>3055.1999511719</ele>
        <time>2015-03-23T15:20:03.000Z</time>
      </trkpt>
      <trkpt lat="45.14208" lon="6.35903">
        <ele>3054.6000976562</ele>
        <time>2015-03-23T15:20:05.000Z</time>
      </trkpt>
      <trkpt lat="45.14207" lon="6.35903">
        <ele>3054</ele>
        <time>2015-03-23T15:20:06.000Z</time>
      </trkpt>
      <trkpt lat="45.14206" lon="6.35903">
        <ele>3053.6000976562</ele>
        <time>2015-03-23T15:20:07.000Z</time>
      </trkpt>
      <trkpt lat="45.14205" lon="6.35903">
        <ele>3052.6000976562</ele>
        <time>2015-03-23T15:20:09.000Z</time>
      </trkpt>
      <trkpt lat="45.14204" lon="6.35904">
        <ele>3051.3999023438</ele>
        <time>2015-03-23T15:20:10.000Z</time>
      </trkpt>
      <trkpt lat="45.14204" lon="6.35904">
        <ele>3050.3999023438</ele>
        <time>2015-03-23T15:20:11.000Z</time>
      </trkpt>
      <trkpt lat="45.14202" lon="6.35903">
        <ele>3049</ele>
        <time>2015-03-23T15:20:13.000Z</time>
      </trkpt>
      <trkpt lat="45.14199" lon="6.35907">
        <ele>3048.3999023438</ele>
        <time>2015-03-23T15:20:14.000Z</time>
      </trkpt>
      <trkpt lat="45.14197" lon="6.35908">
        <ele>3048</ele>
        <time>2015-03-23T15:20:15.000Z</time>
      </trkpt>
      <trkpt lat="45.14197" lon="6.35908">
        <ele>3047.6000976562</ele>
        <time>2015-03-23T15:20:16.000Z</time>
      </trkpt>
      <trkpt lat="45.14197" lon="6.35908">
        <ele>3046.1999511719</ele>
        <time>2015-03-23T15:20:18.000Z</time>
      </trkpt>
      <trkpt lat="45.14197" lon="6.35908">
        <ele>3044.8000488281</ele>
        <time>2015-03-23T15:20:19.000Z</time>
      </trkpt>
      <trkpt lat="45.14197" lon="6.35908">
        <ele>3043.3999023438</ele>
        <time>2015-03-23T15:20:20.000Z</time>
      </trkpt>
      <trkpt lat="45.14194" lon="6.35908">
        <ele>3042</ele>
        <time>2015-03-23T15:20:22.000Z</time>
      </trkpt>
      <trkpt lat="45.1419" lon="6.35906">
        <ele>3041.3999023438</ele>
        <time>2015-03-23T15:20:23.000Z</time>
      </trkpt>
      <trkpt lat="45.14186" lon="6.35908">
        <ele>3041</ele>
        <time>2015-03-23T15:20:24.000Z</time>
      </trkpt>
      <trkpt lat="45.14183" lon="6.35909">
        <ele>3040.6000976562</ele>
        <time>2015-03-23T15:20:25.000Z</time>
      </trkpt>
      <trkpt lat="45.14179" lon="6.35906">
        <ele>3040.3999023438</ele>
        <time>2015-03-23T15:20:26.000Z</time>
      </trkpt>
      <trkpt lat="45.14173" lon="6.35904">
        <ele>3039</ele>
        <time>2015-03-23T15:20:28.000Z</time>
      </trkpt>
      <trkpt lat="45.14171" lon="6.35905">
        <ele>3037.3999023438</ele>
        <time>2015-03-23T15:20:29.000Z</time>
      </trkpt>
      <trkpt lat="45.14169" lon="6.35902">
        <ele>3035</ele>
        <time>2015-03-23T15:20:30.000Z</time>
      </trkpt>
      <trkpt lat="45.14164" lon="6.359">
        <ele>3033.1999511719</ele>
        <time>2015-03-23T15:20:31.000Z</time>
      </trkpt>
      <trkpt lat="45.1416" lon="6.359">
        <ele>3030.6000976562</ele>
        <time>2015-03-23T15:20:32.000Z</time>
      </trkpt>
      <trkpt lat="45.14155" lon="6.35901">
        <ele>3028.3999023438</ele>
        <time>2015-03-23T15:20:33.000Z</time>
      </trkpt>
      <trkpt lat="45.14151" lon="6.35902">
        <ele>3026.8000488281</ele>
        <time>2015-03-23T15:20:34.000Z</time>
      </trkpt>
      <trkpt lat="45.14147" lon="6.35903">
        <ele>3025</ele>
        <time>2015-03-23T15:20:35.000Z</time>
      </trkpt>
      <trkpt lat="45.14144" lon="6.35906">
        <ele>3022.3999023438</ele>
        <time>2015-03-23T15:20:36.000Z</time>
      </trkpt>
      <trkpt lat="45.14141" lon="6.35908">
        <ele>3020</ele>
        <time>2015-03-23T15:20:37.000Z</time>
      </trkpt>
      <trkpt lat="45.1414" lon="6.3591">
        <ele>3018.1999511719</ele>
        <time>2015-03-23T15:20:38.000Z</time>
      </trkpt>
      <trkpt lat="45.14138" lon="6.35916">
        <ele>3016</ele>
        <time>2015-03-23T15:20:39.000Z</time>
      </trkpt>
      <trkpt lat="45.14136" lon="6.3592">
        <ele>3013.3999023438</ele>
        <time>2015-03-23T15:20:40.000Z</time>
      </trkpt>
      <trkpt lat="45.14134" lon="6.35925">
        <ele>3011</ele>
        <time>2015-03-23T15:20:41.000Z</time>
      </trkpt>
      <trkpt lat="45.14136" lon="6.3593">
        <ele>3009.3999023438</ele>
        <time>2015-03-23T15:20:42.000Z</time>
      </trkpt>
      <trkpt lat="45.14137" lon="6.35934">
        <ele>3007.8000488281</ele>
        <time>2015-03-23T15:20:43.000Z</time>
      </trkpt>
      <trkpt lat="45.14136" lon="6.35936">
        <ele>3005.6000976562</ele>
        <time>2015-03-23T15:20:44.000Z</time>
      </trkpt>
      <trkpt lat="45.14136" lon="6.35935">
        <ele>3003.1999511719</ele>
        <time>2015-03-23T15:20:45.000Z</time>
      </trkpt>
      <trkpt lat="45.14135" lon="6.35933">
        <ele>3001.1999511719</ele>
        <time>2015-03-23T15:20:46.000Z</time>
      </trkpt>
      <trkpt lat="45.14134" lon="6.35929">
        <ele>2999.3999023438</ele>
        <time>2015-03-23T15:20:47.000Z</time>
      </trkpt>
      <trkpt lat="45.14133" lon="6.35925">
        <ele>2998</ele>
        <time>2015-03-23T15:20:48.000Z</time>
      </trkpt>
      <trkpt lat="45.14131" lon="6.35917">
        <ele>2996.8000488281</ele>
        <time>2015-03-23T15:20:50.000Z</time>
      </trkpt>
      <trkpt lat="45.14129" lon="6.35912">
        <ele>2995.8000488281</ele>
        <time>2015-03-23T15:20:52.000Z</time>
      </trkpt>
      <trkpt lat="45.14125" lon="6.35911">
        <ele>2994</ele>
        <time>2015-03-23T15:20:54.000Z</time>
      </trkpt>
      <trkpt lat="45.14122" lon="6.35909">
        <ele>2992.6000976562</ele>
        <time>2015-03-23T15:20:55.000Z</time>
      </trkpt>
      <trkpt lat="45.14119" lon="6.35905">
        <ele>2990.3999023438</ele>
        <time>2015-03-23T15:20:56.000Z</time>
      </trkpt>
      <trkpt lat="45.14115" lon="6.35901">
        <ele>2988.3999023438</ele>
        <time>2015-03-23T15:20:57.000Z</time>
      </trkpt>
      <trkpt lat="45.14111" lon="6.359">
        <ele>2986.8000488281</ele>
        <time>2015-03-23T15:20:58.000Z</time>
      </trkpt>
      <trkpt lat="45.14106" lon="6.35898">
        <ele>2985.6000976562</ele>
        <time>2015-03-23T15:20:59.000Z</time>
      </trkpt>
      <trkpt lat="45.14101" lon="6.35895">
        <ele>2984.1999511719</ele>
        <time>2015-03-23T15:21:00.000Z</time>
      </trkpt>
      <trkpt lat="45.14098" lon="6.35891">
        <ele>2982.1999511719</ele>
        <time>2015-03-23T15:21:01.000Z</time>
      </trkpt>
      <trkpt lat="45.14095" lon="6.35886">
        <ele>2979.8000488281</ele>
        <time>2015-03-23T15:21:02.000Z</time>
      </trkpt>
      <trkpt lat="45.14091" lon="6.35883">
        <ele>2977.6000976562</ele>
        <time>2015-03-23T15:21:03.000Z</time>
      </trkpt>
      <trkpt lat="45.14086" lon="6.35883">
        <ele>2976.1999511719</ele>
        <time>2015-03-23T15:21:04.000Z</time>
      </trkpt>
      <trkpt lat="45.14082" lon="6.35882">
        <ele>2975.1999511719</ele>
        <time>2015-03-23T15:21:05.000Z</time>
      </trkpt>
      <trkpt lat="45.14078" lon="6.35879">
        <ele>2973.6000976562</ele>
        <time>2015-03-23T15:21:06.000Z</time>
      </trkpt>
      <trkpt lat="45.14074" lon="6.35877">
        <ele>2971.3999023438</ele>
        <time>2015-03-23T15:21:07.000Z</time>
      </trkpt>
      <trkpt lat="45.14074" lon="6.35874">
        <ele>2968.6000976562</ele>
        <time>2015-03-23T15:21:08.000Z</time>
      </trkpt>
      <trkpt lat="45.14073" lon="6.35872">
        <ele>2966.3999023438</ele>
        <time>2015-03-23T15:21:09.000Z</time>
      </trkpt>
      <trkpt lat="45.14075" lon="6.35874">
        <ele>2964.6000976562</ele>
        <time>2015-03-23T15:21:10.000Z</time>
      </trkpt>
      <trkpt lat="45.14075" lon="6.35874">
        <ele>2963.1999511719</ele>
        <time>2015-03-23T15:21:11.000Z</time>
      </trkpt>
      <trkpt lat="45.14074" lon="6.35871">
        <ele>2962</ele>
        <time>2015-03-23T15:21:12.000Z</time>
      </trkpt>
      <trkpt lat="45.1407" lon="6.3586">
        <ele>2960.8000488281</ele>
        <time>2015-03-23T15:21:14.000Z</time>
      </trkpt>
      <trkpt lat="45.1407" lon="6.35855">
        <ele>2959.6000976562</ele>
        <time>2015-03-23T15:21:16.000Z</time>
      </trkpt>
      <trkpt lat="45.14071" lon="6.35855">
        <ele>2958.6000976562</ele>
        <time>2015-03-23T15:21:17.000Z</time>
      </trkpt>
      <trkpt lat="45.14071" lon="6.35855">
        <ele>2956</ele>
        <time>2015-03-23T15:21:18.000Z</time>
      </trkpt>
      <trkpt lat="45.14071" lon="6.35855">
        <ele>2954.3999023438</ele>
        <time>2015-03-23T15:21:20.000Z</time>
      </trkpt>
      <trkpt lat="45.14071" lon="6.35855">
        <ele>2953.3999023438</ele>
        <time>2015-03-23T15:21:23.000Z</time>
      </trkpt>
      <trkpt lat="45.1407" lon="6.35854">
        <ele>2953</ele>
        <time>2015-03-23T15:21:24.000Z</time>
      </trkpt>
      <trkpt lat="45.14068" lon="6.35848">
        <ele>2952.8000488281</ele>
        <time>2015-03-23T15:21:25.000Z</time>
      </trkpt>
      <trkpt lat="45.14066" lon="6.35834">
        <ele>2952.1999511719</ele>
        <time>2015-03-23T15:21:27.000Z</time>
      </trkpt>
      <trkpt lat="45.14066" lon="6.35828">
        <ele>2951.8000488281</ele>
        <time>2015-03-23T15:21:28.000Z</time>
      </trkpt>
      <trkpt lat="45.14066" lon="6.35824">
        <ele>2951</ele>
        <time>2015-03-23T15:21:29.000Z</time>
      </trkpt>
      <trkpt lat="45.14067" lon="6.35818">
        <ele>2949</ele>
        <time>2015-03-23T15:21:31.000Z</time>
      </trkpt>
      <trkpt lat="45.14067" lon="6.35816">
        <ele>2948.1999511719</ele>
        <time>2015-03-23T15:21:32.000Z</time>
      </trkpt>
      <trkpt lat="45.14067" lon="6.35815">
        <ele>2947.6000976562</ele>
        <time>2015-03-23T15:21:33.000Z</time>
      </trkpt>
      <trkpt lat="45.14068" lon="6.35814">
        <ele>2946.6000976562</ele>
        <time>2015-03-23T15:21:37.000Z</time>
      </trkpt>
      <trkpt lat="45.14068" lon="6.35814">
        <ele>2946.3999023438</ele>
        <time>2015-03-23T15:21:38.000Z</time>
      </trkpt>
      <trkpt lat="45.14066" lon="6.35813">
        <ele>2946</ele>
        <time>2015-03-23T15:21:45.000Z</time>
      </trkpt>
      <trkpt lat="45.14064" lon="6.35815">
        <ele>2945.8000488281</ele>
        <time>2015-03-23T15:21:46.000Z</time>
      </trkpt>
      <trkpt lat="45.14059" lon="6.35814">
        <ele>2945.3999023438</ele>
        <time>2015-03-23T15:21:48.000Z</time>
      </trkpt>
      <trkpt lat="45.14058" lon="6.35814">
        <ele>2945.1999511719</ele>
        <time>2015-03-23T15:21:49.000Z</time>
      </trkpt>
      <trkpt lat="45.14058" lon="6.35814">
        <ele>2944.3999023438</ele>
        <time>2015-03-23T15:21:51.000Z</time>
      </trkpt>
      <trkpt lat="45.14057" lon="6.35813">
        <ele>2943.1999511719</ele>
        <time>2015-03-23T15:21:54.000Z</time>
      </trkpt>
      <trkpt lat="45.14054" lon="6.3581">
        <ele>2942.6000976562</ele>
        <time>2015-03-23T15:22:00.000Z</time>
      </trkpt>
      <trkpt lat="45.14054" lon="6.35809">
        <ele>2942.3999023438</ele>
        <time>2015-03-23T15:22:04.000Z</time>
      </trkpt>
      <trkpt lat="45.14053" lon="6.35809">
        <ele>2941.8000488281</ele>
        <time>2015-03-23T15:22:06.000Z</time>
      </trkpt>
      <trkpt lat="45.14054" lon="6.35808">
        <ele>2941.6000976562</ele>
        <time>2015-03-23T15:22:11.000Z</time>
      </trkpt>
      <trkpt lat="45.14056" lon="6.35808">
        <ele>2941.1999511719</ele>
        <time>2015-03-23T15:22:16.000Z</time>
      </trkpt>
      <trkpt lat="45.14062" lon="6.35807">
        <ele>2940.8000488281</ele>
        <time>2015-03-23T15:22:18.000Z</time>
      </trkpt>
      <trkpt lat="45.14078" lon="6.35801">
        <ele>2940.1999511719</ele>
        <time>2015-03-23T15:22:22.000Z</time>
      </trkpt>
      <trkpt lat="45.1408" lon="6.358">
        <ele>2939.3999023438</ele>
        <time>2015-03-23T15:22:24.000Z</time>
      </trkpt>
      <trkpt lat="45.1408" lon="6.358">
        <ele>2939</ele>
        <time>2015-03-23T15:22:25.000Z</time>
      </trkpt>
      <trkpt lat="45.14081" lon="6.35799">
        <ele>2938.3999023438</ele>
        <time>2015-03-23T15:22:26.000Z</time>
      </trkpt>
      <trkpt lat="45.1408" lon="6.358">
        <ele>2937.8000488281</ele>
        <time>2015-03-23T15:22:27.000Z</time>
      </trkpt>
      <trkpt lat="45.1408" lon="6.358">
        <ele>2937.3999023438</ele>
        <time>2015-03-23T15:22:28.000Z</time>
      </trkpt>
      <trkpt lat="45.14079" lon="6.358">
        <ele>2937.1999511719</ele>
        <time>2015-03-23T15:22:29.000Z</time>
      </trkpt>
      <trkpt lat="45.14081" lon="6.35795">
        <ele>2935.6000976562</ele>
        <time>2015-03-23T15:22:31.000Z</time>
      </trkpt>
      <trkpt lat="45.14082" lon="6.3579">
        <ele>2934</ele>
        <time>2015-03-23T15:22:32.000Z</time>
      </trkpt>
      <trkpt lat="45.14083" lon="6.35787">
        <ele>2932.6000976562</ele>
        <time>2015-03-23T15:22:33.000Z</time>
      </trkpt>
      <trkpt lat="45.14083" lon="6.35784">
        <ele>2931.6000976562</ele>
        <time>2015-03-23T15:22:34.000Z</time>
      </trkpt>
      <trkpt lat="45.14082" lon="6.35784">
        <ele>2931</ele>
        <time>2015-03-23T15:22:35.000Z</time>
      </trkpt>
      <trkpt lat="45.14078" lon="6.35781">
        <ele>2929.1999511719</ele>
        <time>2015-03-23T15:22:38.000Z</time>
      </trkpt>
      <trkpt lat="45.14078" lon="6.35779">
        <ele>2927.6000976562</ele>
        <time>2015-03-23T15:22:39.000Z</time>
      </trkpt>
      <trkpt lat="45.14078" lon="6.3578">
        <ele>2925.6000976562</ele>
        <time>2015-03-23T15:22:40.000Z</time>
      </trkpt>
      <trkpt lat="45.14076" lon="6.35782">
        <ele>2923.6000976562</ele>
        <time>2015-03-23T15:22:41.000Z</time>
      </trkpt>
      <trkpt lat="45.14074" lon="6.35782">
        <ele>2922.3999023438</ele>
        <time>2015-03-23T15:22:42.000Z</time>
      </trkpt>
      <trkpt lat="45.14069" lon="6.35774">
        <ele>2920.1999511719</ele>
        <time>2015-03-23T15:22:44.000Z</time>
      </trkpt>
      <trkpt lat="45.14065" lon="6.35771">
        <ele>2918.1999511719</ele>
        <time>2015-03-23T15:22:45.000Z</time>
      </trkpt>
      <trkpt lat="45.1406" lon="6.3577">
        <ele>2916.1999511719</ele>
        <time>2015-03-23T15:22:46.000Z</time>
      </trkpt>
      <trkpt lat="45.14057" lon="6.35769">
        <ele>2914.6000976562</ele>
        <time>2015-03-23T15:22:47.000Z</time>
      </trkpt>
      <trkpt lat="45.14054" lon="6.35767">
        <ele>2913.1999511719</ele>
        <time>2015-03-23T15:22:48.000Z</time>
      </trkpt>
      <trkpt lat="45.14055" lon="6.35762">
        <ele>2911.3999023438</ele>
        <time>2015-03-23T15:22:49.000Z</time>
      </trkpt>
      <trkpt lat="45.14056" lon="6.35758">
        <ele>2909</ele>
        <time>2015-03-23T15:22:50.000Z</time>
      </trkpt>
      <trkpt lat="45.14053" lon="6.35756">
        <ele>2906.6000976562</ele>
        <time>2015-03-23T15:22:51.000Z</time>
      </trkpt>
      <trkpt lat="45.14051" lon="6.35755">
        <ele>2904.8000488281</ele>
        <time>2015-03-23T15:22:52.000Z</time>
      </trkpt>
      <trkpt lat="45.1405" lon="6.35753">
        <ele>2903.8000488281</ele>
        <time>2015-03-23T15:22:53.000Z</time>
      </trkpt>
      <trkpt lat="45.14048" lon="6.35751">
        <ele>2901.6000976562</ele>
        <time>2015-03-23T15:22:54.000Z</time>
      </trkpt>
      <trkpt lat="45.14047" lon="6.35749">
        <ele>2899.6000976562</ele>
        <time>2015-03-23T15:22:55.000Z</time>
      </trkpt>
      <trkpt lat="45.14047" lon="6.35745">
        <ele>2897.8000488281</ele>
        <time>2015-03-23T15:22:56.000Z</time>
      </trkpt>
      <trkpt lat="45.14047" lon="6.3574">
        <ele>2896.6000976562</ele>
        <time>2015-03-23T15:22:57.000Z</time>
      </trkpt>
      <trkpt lat="45.14048" lon="6.35737">
        <ele>2895.3999023438</ele>
        <time>2015-03-23T15:22:58.000Z</time>
      </trkpt>
      <trkpt lat="45.14049" lon="6.35734">
        <ele>2894.1999511719</ele>
        <time>2015-03-23T15:22:59.000Z</time>
      </trkpt>
      <trkpt lat="45.14047" lon="6.35732">
        <ele>2892.6000976562</ele>
        <time>2015-03-23T15:23:01.000Z</time>
      </trkpt>
      <trkpt lat="45.14045" lon="6.35732">
        <ele>2892.3999023438</ele>
        <time>2015-03-23T15:23:02.000Z</time>
      </trkpt>
      <trkpt lat="45.14043" lon="6.3573">
        <ele>2891</ele>
        <time>2015-03-23T15:23:04.000Z</time>
      </trkpt>
      <trkpt lat="45.14042" lon="6.35729">
        <ele>2889.6000976562</ele>
        <time>2015-03-23T15:23:05.000Z</time>
      </trkpt>
      <trkpt lat="45.14042" lon="6.35726">
        <ele>2888</ele>
        <time>2015-03-23T15:23:06.000Z</time>
      </trkpt>
      <trkpt lat="45.14044" lon="6.35718">
        <ele>2886.3999023438</ele>
        <time>2015-03-23T15:23:07.000Z</time>
      </trkpt>
      <trkpt lat="45.14045" lon="6.35712">
        <ele>2885.1999511719</ele>
        <time>2015-03-23T15:23:08.000Z</time>
      </trkpt>
      <trkpt lat="45.14046" lon="6.35708">
        <ele>2884</ele>
        <time>2015-03-23T15:23:09.000Z</time>
      </trkpt>
      <trkpt lat="45.14048" lon="6.35703">
        <ele>2883</ele>
        <time>2015-03-23T15:23:10.000Z</time>
      </trkpt>
      <trkpt lat="45.14049" lon="6.357">
        <ele>2882</ele>
        <time>2015-03-23T15:23:11.000Z</time>
      </trkpt>
      <trkpt lat="45.14049" lon="6.35699">
        <ele>2881.3999023438</ele>
        <time>2015-03-23T15:23:12.000Z</time>
      </trkpt>
      <trkpt lat="45.14049" lon="6.35698">
        <ele>2880.3999023438</ele>
        <time>2015-03-23T15:23:16.000Z</time>
      </trkpt>
      <trkpt lat="45.14049" lon="6.35698">
        <ele>2880</ele>
        <time>2015-03-23T15:23:18.000Z</time>
      </trkpt>
      <trkpt lat="45.14047" lon="6.35693">
        <ele>2879.8000488281</ele>
        <time>2015-03-23T15:23:27.000Z</time>
      </trkpt>
      <trkpt lat="45.14044" lon="6.35697">
        <ele>2879.8000488281</ele>
        <time>2015-03-23T15:23:28.000Z</time>
      </trkpt>
      <trkpt lat="45.14036" lon="6.35708">
        <ele>2879</ele>
        <time>2015-03-23T15:23:32.000Z</time>
      </trkpt>
      <trkpt lat="45.14032" lon="6.35713">
        <ele>2877.3999023438</ele>
        <time>2015-03-23T15:23:34.000Z</time>
      </trkpt>
      <trkpt lat="45.1403" lon="6.35714">
        <ele>2875.8000488281</ele>
        <time>2015-03-23T15:23:36.000Z</time>
      </trkpt>
      <trkpt lat="45.14028" lon="6.35713">
        <ele>2875</ele>
        <time>2015-03-23T15:23:37.000Z</time>
      </trkpt>
      <trkpt lat="45.14028" lon="6.35712">
        <ele>2874</ele>
        <time>2015-03-23T15:23:38.000Z</time>
      </trkpt>
      <trkpt lat="45.14027" lon="6.35709">
        <ele>2872.1999511719</ele>
        <time>2015-03-23T15:23:40.000Z</time>
      </trkpt>
      <trkpt lat="45.14025" lon="6.3571">
        <ele>2871.3999023438</ele>
        <time>2015-03-23T15:23:41.000Z</time>
      </trkpt>
      <trkpt lat="45.14022" lon="6.3571">
        <ele>2870</ele>
        <time>2015-03-23T15:23:42.000Z</time>
      </trkpt>
      <trkpt lat="45.1402" lon="6.35709">
        <ele>2868.8000488281</ele>
        <time>2015-03-23T15:23:43.000Z</time>
      </trkpt>
      <trkpt lat="45.14019" lon="6.35709">
        <ele>2866.8000488281</ele>
        <time>2015-03-23T15:23:44.000Z</time>
      </trkpt>
      <trkpt lat="45.1402" lon="6.357">
        <ele>2864.6000976562</ele>
        <time>2015-03-23T15:23:45.000Z</time>
      </trkpt>
      <trkpt lat="45.14018" lon="6.35696">
        <ele>2863</ele>
        <time>2015-03-23T15:23:46.000Z</time>
      </trkpt>
      <trkpt lat="45.14016" lon="6.35693">
        <ele>2862</ele>
        <time>2015-03-23T15:23:47.000Z</time>
      </trkpt>
      <trkpt lat="45.14013" lon="6.35691">
        <ele>2861.1999511719</ele>
        <time>2015-03-23T15:23:48.000Z</time>
      </trkpt>
      <trkpt lat="45.14011" lon="6.35692">
        <ele>2860.1999511719</ele>
        <time>2015-03-23T15:23:49.000Z</time>
      </trkpt>
      <trkpt lat="45.14007" lon="6.35691">
        <ele>2858.8000488281</ele>
        <time>2015-03-23T15:23:50.000Z</time>
      </trkpt>
      <trkpt lat="45.14005" lon="6.3569">
        <ele>2856.8000488281</ele>
        <time>2015-03-23T15:23:51.000Z</time>
      </trkpt>
      <trkpt lat="45.14004" lon="6.35685">
        <ele>2855</ele>
        <time>2015-03-23T15:23:52.000Z</time>
      </trkpt>
      <trkpt lat="45.14005" lon="6.35681">
        <ele>2853.1999511719</ele>
        <time>2015-03-23T15:23:53.000Z</time>
      </trkpt>
      <trkpt lat="45.14004" lon="6.3568">
        <ele>2851.6000976562</ele>
        <time>2015-03-23T15:23:54.000Z</time>
      </trkpt>
      <trkpt lat="45.14001" lon="6.3568">
        <ele>2850.3999023438</ele>
        <time>2015-03-23T15:23:55.000Z</time>
      </trkpt>
      <trkpt lat="45.13996" lon="6.35683">
        <ele>2848.6000976562</ele>
        <time>2015-03-23T15:23:57.000Z</time>
      </trkpt>
      <trkpt lat="45.13993" lon="6.35682">
        <ele>2847</ele>
        <time>2015-03-23T15:23:58.000Z</time>
      </trkpt>
      <trkpt lat="45.13991" lon="6.35682">
        <ele>2845.1999511719</ele>
        <time>2015-03-23T15:23:59.000Z</time>
      </trkpt>
      <trkpt lat="45.13989" lon="6.35681">
        <ele>2843.6000976562</ele>
        <time>2015-03-23T15:24:00.000Z</time>
      </trkpt>
      <trkpt lat="45.13992" lon="6.35675">
        <ele>2842</ele>
        <time>2015-03-23T15:24:01.000Z</time>
      </trkpt>
      <trkpt lat="45.13995" lon="6.35669">
        <ele>2840.3999023438</ele>
        <time>2015-03-23T15:24:02.000Z</time>
      </trkpt>
      <trkpt lat="45.13998" lon="6.35663">
        <ele>2839.1999511719</ele>
        <time>2015-03-23T15:24:03.000Z</time>
      </trkpt>
      <trkpt lat="45.14002" lon="6.35657">
        <ele>2837.8000488281</ele>
        <time>2015-03-23T15:24:05.000Z</time>
      </trkpt>
      <trkpt lat="45.14003" lon="6.35655">
        <ele>2836.6000976562</ele>
        <time>2015-03-23T15:24:06.000Z</time>
      </trkpt>
      <trkpt lat="45.14004" lon="6.35653">
        <ele>2836</ele>
        <time>2015-03-23T15:24:07.000Z</time>
      </trkpt>
      <trkpt lat="45.14004" lon="6.35652">
        <ele>2835.3999023438</ele>
        <time>2015-03-23T15:24:08.000Z</time>
      </trkpt>
      <trkpt lat="45.14006" lon="6.35648">
        <ele>2834.6000976562</ele>
        <time>2015-03-23T15:24:12.000Z</time>
      </trkpt>
      <trkpt lat="45.14008" lon="6.3564">
        <ele>2834.3999023438</ele>
        <time>2015-03-23T15:24:14.000Z</time>
      </trkpt>
      <trkpt lat="45.14007" lon="6.35634">
        <ele>2833.6000976562</ele>
        <time>2015-03-23T15:24:15.000Z</time>
      </trkpt>
      <trkpt lat="45.14004" lon="6.3563">
        <ele>2832.3999023438</ele>
        <time>2015-03-23T15:24:16.000Z</time>
      </trkpt>
      <trkpt lat="45.14001" lon="6.35628">
        <ele>2831.3999023438</ele>
        <time>2015-03-23T15:24:17.000Z</time>
      </trkpt>
      <trkpt lat="45.13998" lon="6.35627">
        <ele>2830.6000976562</ele>
        <time>2015-03-23T15:24:18.000Z</time>
      </trkpt>
      <trkpt lat="45.13996" lon="6.35623">
        <ele>2829.3999023438</ele>
        <time>2015-03-23T15:24:19.000Z</time>
      </trkpt>
      <trkpt lat="45.13996" lon="6.35619">
        <ele>2827.8000488281</ele>
        <time>2015-03-23T15:24:20.000Z</time>
      </trkpt>
      <trkpt lat="45.13997" lon="6.35611">
        <ele>2825.8000488281</ele>
        <time>2015-03-23T15:24:21.000Z</time>
      </trkpt>
      <trkpt lat="45.13996" lon="6.35605">
        <ele>2824</ele>
        <time>2015-03-23T15:24:22.000Z</time>
      </trkpt>
      <trkpt lat="45.13993" lon="6.35603">
        <ele>2822.3999023438</ele>
        <time>2015-03-23T15:24:23.000Z</time>
      </trkpt>
      <trkpt lat="45.13991" lon="6.35601">
        <ele>2821.3999023438</ele>
        <time>2015-03-23T15:24:24.000Z</time>
      </trkpt>
      <trkpt lat="45.13988" lon="6.356">
        <ele>2820.3999023438</ele>
        <time>2015-03-23T15:24:25.000Z</time>
      </trkpt>
      <trkpt lat="45.13985" lon="6.35598">
        <ele>2818.8000488281</ele>
        <time>2015-03-23T15:24:26.000Z</time>
      </trkpt>
      <trkpt lat="45.13984" lon="6.35596">
        <ele>2816.6000976562</ele>
        <time>2015-03-23T15:24:27.000Z</time>
      </trkpt>
      <trkpt lat="45.13983" lon="6.35594">
        <ele>2814.3999023438</ele>
        <time>2015-03-23T15:24:28.000Z</time>
      </trkpt>
      <trkpt lat="45.13983" lon="6.35589">
        <ele>2812.3999023438</ele>
        <time>2015-03-23T15:24:29.000Z</time>
      </trkpt>
      <trkpt lat="45.13985" lon="6.35584">
        <ele>2810</ele>
        <time>2015-03-23T15:24:30.000Z</time>
      </trkpt>
      <trkpt lat="45.13985" lon="6.35582">
        <ele>2809.3999023438</ele>
        <time>2015-03-23T15:24:31.000Z</time>
      </trkpt>
      <trkpt lat="45.13982" lon="6.35581">
        <ele>2808.8000488281</ele>
        <time>2015-03-23T15:24:32.000Z</time>
      </trkpt>
      <trkpt lat="45.1398" lon="6.35581">
        <ele>2807.6000976562</ele>
        <time>2015-03-23T15:24:33.000Z</time>
      </trkpt>
      <trkpt lat="45.13977" lon="6.35582">
        <ele>2806.1999511719</ele>
        <time>2015-03-23T15:24:34.000Z</time>
      </trkpt>
      <trkpt lat="45.13975" lon="6.35583">
        <ele>2804.6000976562</ele>
        <time>2015-03-23T15:24:35.000Z</time>
      </trkpt>
      <trkpt lat="45.13972" lon="6.35583">
        <ele>2802.8000488281</ele>
        <time>2015-03-23T15:24:36.000Z</time>
      </trkpt>
      <trkpt lat="45.1397" lon="6.35582">
        <ele>2801.3999023438</ele>
        <time>2015-03-23T15:24:37.000Z</time>
      </trkpt>
      <trkpt lat="45.13971" lon="6.35574">
        <ele>2800.1999511719</ele>
        <time>2015-03-23T15:24:38.000Z</time>
      </trkpt>
      <trkpt lat="45.1397" lon="6.3557">
        <ele>2799</ele>
        <time>2015-03-23T15:24:39.000Z</time>
      </trkpt>
      <trkpt lat="45.13964" lon="6.35566">
        <ele>2797.6000976562</ele>
        <time>2015-03-23T15:24:41.000Z</time>
      </trkpt>
      <trkpt lat="45.1396" lon="6.35562">
        <ele>2795.8000488281</ele>
        <time>2015-03-23T15:24:43.000Z</time>
      </trkpt>
      <trkpt lat="45.13958" lon="6.3556">
        <ele>2793.6000976562</ele>
        <time>2015-03-23T15:24:44.000Z</time>
      </trkpt>
      <trkpt lat="45.13958" lon="6.35557">
        <ele>2791.6000976562</ele>
        <time>2015-03-23T15:24:45.000Z</time>
      </trkpt>
      <trkpt lat="45.13959" lon="6.35555">
        <ele>2790</ele>
        <time>2015-03-23T15:24:46.000Z</time>
      </trkpt>
      <trkpt lat="45.13958" lon="6.35549">
        <ele>2788.6000976562</ele>
        <time>2015-03-23T15:24:48.000Z</time>
      </trkpt>
      <trkpt lat="45.13958" lon="6.35547">
        <ele>2787</ele>
        <time>2015-03-23T15:24:50.000Z</time>
      </trkpt>
      <trkpt lat="45.13958" lon="6.35546">
        <ele>2786.3999023438</ele>
        <time>2015-03-23T15:24:51.000Z</time>
      </trkpt>
      <trkpt lat="45.13961" lon="6.35539">
        <ele>2786.1999511719</ele>
        <time>2015-03-23T15:24:52.000Z</time>
      </trkpt>
      <trkpt lat="45.13961" lon="6.35533">
        <ele>2786</ele>
        <time>2015-03-23T15:24:53.000Z</time>
      </trkpt>
      <trkpt lat="45.13959" lon="6.35529">
        <ele>2785.8000488281</ele>
        <time>2015-03-23T15:24:54.000Z</time>
      </trkpt>
      <trkpt lat="45.1395" lon="6.35528">
        <ele>2785</ele>
        <time>2015-03-23T15:24:56.000Z</time>
      </trkpt>
      <trkpt lat="45.13945" lon="6.35528">
        <ele>2783.3999023438</ele>
        <time>2015-03-23T15:24:57.000Z</time>
      </trkpt>
      <trkpt lat="45.13942" lon="6.35524">
        <ele>2781.3999023438</ele>
        <time>2015-03-23T15:24:58.000Z</time>
      </trkpt>
      <trkpt lat="45.13941" lon="6.35519">
        <ele>2779.3999023438</ele>
        <time>2015-03-23T15:24:59.000Z</time>
      </trkpt>
      <trkpt lat="45.13942" lon="6.35512">
        <ele>2778</ele>
        <time>2015-03-23T15:25:00.000Z</time>
      </trkpt>
      <trkpt lat="45.13942" lon="6.35504">
        <ele>2777</ele>
        <time>2015-03-23T15:25:01.000Z</time>
      </trkpt>
      <trkpt lat="45.13944" lon="6.35493">
        <ele>2776</ele>
        <time>2015-03-23T15:25:02.000Z</time>
      </trkpt>
      <trkpt lat="45.13945" lon="6.35485">
        <ele>2775</ele>
        <time>2015-03-23T15:25:03.000Z</time>
      </trkpt>
      <trkpt lat="45.13944" lon="6.3548">
        <ele>2773.6000976562</ele>
        <time>2015-03-23T15:25:04.000Z</time>
      </trkpt>
      <trkpt lat="45.13941" lon="6.35477">
        <ele>2772.1999511719</ele>
        <time>2015-03-23T15:25:05.000Z</time>
      </trkpt>
      <trkpt lat="45.13938" lon="6.35477">
        <ele>2770.3999023438</ele>
        <time>2015-03-23T15:25:06.000Z</time>
      </trkpt>
      <trkpt lat="45.13934" lon="6.35476">
        <ele>2768.3999023438</ele>
        <time>2015-03-23T15:25:07.000Z</time>
      </trkpt>
      <trkpt lat="45.13932" lon="6.35475">
        <ele>2766</ele>
        <time>2015-03-23T15:25:08.000Z</time>
      </trkpt>
      <trkpt lat="45.13929" lon="6.35472">
        <ele>2764</ele>
        <time>2015-03-23T15:25:09.000Z</time>
      </trkpt>
      <trkpt lat="45.13927" lon="6.35468">
        <ele>2762.1999511719</ele>
        <time>2015-03-23T15:25:10.000Z</time>
      </trkpt>
      <trkpt lat="45.13927" lon="6.35464">
        <ele>2761</ele>
        <time>2015-03-23T15:25:11.000Z</time>
      </trkpt>
      <trkpt lat="45.13927" lon="6.3546">
        <ele>2760.1999511719</ele>
        <time>2015-03-23T15:25:12.000Z</time>
      </trkpt>
      <trkpt lat="45.13926" lon="6.35456">
        <ele>2759.6000976562</ele>
        <time>2015-03-23T15:25:13.000Z</time>
      </trkpt>
      <trkpt lat="45.13923" lon="6.35448">
        <ele>2758.3999023438</ele>
        <time>2015-03-23T15:25:16.000Z</time>
      </trkpt>
      <trkpt lat="45.13925" lon="6.35449">
        <ele>2757.3999023438</ele>
        <time>2015-03-23T15:25:18.000Z</time>
      </trkpt>
      <trkpt lat="45.13926" lon="6.35449">
        <ele>2757</ele>
        <time>2015-03-23T15:25:19.000Z</time>
      </trkpt>
      <trkpt lat="45.13927" lon="6.35445">
        <ele>2756.6000976562</ele>
        <time>2015-03-23T15:25:23.000Z</time>
      </trkpt>
      <trkpt lat="45.13921" lon="6.35447">
        <ele>2756</ele>
        <time>2015-03-23T15:25:26.000Z</time>
      </trkpt>
      <trkpt lat="45.13919" lon="6.3545">
        <ele>2755.1999511719</ele>
        <time>2015-03-23T15:25:27.000Z</time>
      </trkpt>
      <trkpt lat="45.13917" lon="6.35452">
        <ele>2754.6000976562</ele>
        <time>2015-03-23T15:25:28.000Z</time>
      </trkpt>
      <trkpt lat="45.13914" lon="6.35454">
        <ele>2753.6000976562</ele>
        <time>2015-03-23T15:25:30.000Z</time>
      </trkpt>
      <trkpt lat="45.13912" lon="6.35451">
        <ele>2753</ele>
        <time>2015-03-23T15:25:31.000Z</time>
      </trkpt>
      <trkpt lat="45.139" lon="6.3544">
        <ele>2751.6000976562</ele>
        <time>2015-03-23T15:25:33.000Z</time>
      </trkpt>
      <trkpt lat="45.13893" lon="6.35435">
        <ele>2751</ele>
        <time>2015-03-23T15:25:34.000Z</time>
      </trkpt>
      <trkpt lat="45.13888" lon="6.35432">
        <ele>2750.6000976562</ele>
        <time>2015-03-23T15:25:35.000Z</time>
      </trkpt>
      <trkpt lat="45.13883" lon="6.35428">
        <ele>2749.3999023438</ele>
        <time>2015-03-23T15:25:36.000Z</time>
      </trkpt>
      <trkpt lat="45.13879" lon="6.35424">
        <ele>2747.1999511719</ele>
        <time>2015-03-23T15:25:37.000Z</time>
      </trkpt>
      <trkpt lat="45.13878" lon="6.35417">
        <ele>2744.8000488281</ele>
        <time>2015-03-23T15:25:38.000Z</time>
      </trkpt>
      <trkpt lat="45.13876" lon="6.3541">
        <ele>2743</ele>
        <time>2015-03-23T15:25:39.000Z</time>
      </trkpt>
      <trkpt lat="45.13874" lon="6.35403">
        <ele>2741.6000976562</ele>
        <time>2015-03-23T15:25:40.000Z</time>
      </trkpt>
      <trkpt lat="45.13876" lon="6.35395">
        <ele>2740.3999023438</ele>
        <time>2015-03-23T15:25:41.000Z</time>
      </trkpt>
      <trkpt lat="45.13879" lon="6.35385">
        <ele>2738</ele>
        <time>2015-03-23T15:25:42.000Z</time>
      </trkpt>
      <trkpt lat="45.1388" lon="6.35363">
        <ele>2736.6000976562</ele>
        <time>2015-03-23T15:25:44.000Z</time>
      </trkpt>
      <trkpt lat="45.1388" lon="6.35352">
        <ele>2735.1999511719</ele>
        <time>2015-03-23T15:25:45.000Z</time>
      </trkpt>
      <trkpt lat="45.13879" lon="6.35344">
        <ele>2733.6000976562</ele>
        <time>2015-03-23T15:25:46.000Z</time>
      </trkpt>
      <trkpt lat="45.1388" lon="6.3534">
        <ele>2731.6000976562</ele>
        <time>2015-03-23T15:25:47.000Z</time>
      </trkpt>
      <trkpt lat="45.13883" lon="6.35338">
        <ele>2730</ele>
        <time>2015-03-23T15:25:48.000Z</time>
      </trkpt>
      <trkpt lat="45.13886" lon="6.35336">
        <ele>2728.8000488281</ele>
        <time>2015-03-23T15:25:49.000Z</time>
      </trkpt>
      <trkpt lat="45.13889" lon="6.35335">
        <ele>2727.6000976562</ele>
        <time>2015-03-23T15:25:50.000Z</time>
      </trkpt>
      <trkpt lat="45.13893" lon="6.35334">
        <ele>2726.1999511719</ele>
        <time>2015-03-23T15:25:52.000Z</time>
      </trkpt>
      <trkpt lat="45.13895" lon="6.35334">
        <ele>2725.8000488281</ele>
        <time>2015-03-23T15:25:53.000Z</time>
      </trkpt>
      <trkpt lat="45.13906" lon="6.35344">
        <ele>2725.1999511719</ele>
        <time>2015-03-23T15:25:59.000Z</time>
      </trkpt>
      <trkpt lat="45.1391" lon="6.3535">
        <ele>2725.1999511719</ele>
        <time>2015-03-23T15:26:00.000Z</time>
      </trkpt>
      <trkpt lat="45.13913" lon="6.35351">
        <ele>2725.1999511719</ele>
        <time>2015-03-23T15:26:01.000Z</time>
      </trkpt>
      <trkpt lat="45.13922" lon="6.35355">
        <ele>2724.1999511719</ele>
        <time>2015-03-23T15:26:04.000Z</time>
      </trkpt>
      <trkpt lat="45.13925" lon="6.35353">
        <ele>2723.6000976562</ele>
        <time>2015-03-23T15:26:05.000Z</time>
      </trkpt>
      <trkpt lat="45.13929" lon="6.35353">
        <ele>2722</ele>
        <time>2015-03-23T15:26:06.000Z</time>
      </trkpt>
      <trkpt lat="45.13932" lon="6.3535">
        <ele>2720.6000976562</ele>
        <time>2015-03-23T15:26:07.000Z</time>
      </trkpt>
      <trkpt lat="45.13934" lon="6.35346">
        <ele>2719.1999511719</ele>
        <time>2015-03-23T15:26:08.000Z</time>
      </trkpt>
      <trkpt lat="45.13935" lon="6.35341">
        <ele>2717.8000488281</ele>
        <time>2015-03-23T15:26:09.000Z</time>
      </trkpt>
      <trkpt lat="45.13938" lon="6.35338">
        <ele>2716.3999023438</ele>
        <time>2015-03-23T15:26:10.000Z</time>
      </trkpt>
      <trkpt lat="45.13939" lon="6.35333">
        <ele>2714.3999023438</ele>
        <time>2015-03-23T15:26:11.000Z</time>
      </trkpt>
      <trkpt lat="45.1394" lon="6.35328">
        <ele>2712.8000488281</ele>
        <time>2015-03-23T15:26:12.000Z</time>
      </trkpt>
      <trkpt lat="45.1394" lon="6.35322">
        <ele>2711.3999023438</ele>
        <time>2015-03-23T15:26:13.000Z</time>
      </trkpt>
      <trkpt lat="45.13941" lon="6.35318">
        <ele>2709.8000488281</ele>
        <time>2015-03-23T15:26:14.000Z</time>
      </trkpt>
      <trkpt lat="45.13941" lon="6.35314">
        <ele>2708</ele>
        <time>2015-03-23T15:26:15.000Z</time>
      </trkpt>
      <trkpt lat="45.13941" lon="6.35311">
        <ele>2706.3999023438</ele>
        <time>2015-03-23T15:26:16.000Z</time>
      </trkpt>
      <trkpt lat="45.13942" lon="6.35308">
        <ele>2705</ele>
        <time>2015-03-23T15:26:17.000Z</time>
      </trkpt>
      <trkpt lat="45.13943" lon="6.35306">
        <ele>2703.8000488281</ele>
        <time>2015-03-23T15:26:18.000Z</time>
      </trkpt>
      <trkpt lat="45.13945" lon="6.35305">
        <ele>2702.8000488281</ele>
        <time>2015-03-23T15:26:19.000Z</time>
      </trkpt>
      <trkpt lat="45.13948" lon="6.35301">
        <ele>2701.6000976562</ele>
        <time>2015-03-23T15:26:20.000Z</time>
      </trkpt>
      <trkpt lat="45.1395" lon="6.35297">
        <ele>2700.8000488281</ele>
        <time>2015-03-23T15:26:21.000Z</time>
      </trkpt>
      <trkpt lat="45.13949" lon="6.35292">
        <ele>2700</ele>
        <time>2015-03-23T15:26:22.000Z</time>
      </trkpt>
      <trkpt lat="45.1395" lon="6.35284">
        <ele>2698.3999023438</ele>
        <time>2015-03-23T15:26:24.000Z</time>
      </trkpt>
      <trkpt lat="45.13951" lon="6.3528">
        <ele>2697.1999511719</ele>
        <time>2015-03-23T15:26:25.000Z</time>
      </trkpt>
      <trkpt lat="45.13949" lon="6.35278">
        <ele>2696</ele>
        <time>2015-03-23T15:26:26.000Z</time>
      </trkpt>
      <trkpt lat="45.13948" lon="6.35275">
        <ele>2694.8000488281</ele>
        <time>2015-03-23T15:26:27.000Z</time>
      </trkpt>
      <trkpt lat="45.13951" lon="6.35276">
        <ele>2693.8000488281</ele>
        <time>2015-03-23T15:26:28.000Z</time>
      </trkpt>
      <trkpt lat="45.13955" lon="6.35276">
        <ele>2690.8000488281</ele>
        <time>2015-03-23T15:26:30.000Z</time>
      </trkpt>
      <trkpt lat="45.13961" lon="6.35271">
        <ele>2689.1999511719</ele>
        <time>2015-03-23T15:26:32.000Z</time>
      </trkpt>
      <trkpt lat="45.13964" lon="6.35266">
        <ele>2688.8000488281</ele>
        <time>2015-03-23T15:26:33.000Z</time>
      </trkpt>
      <trkpt lat="45.13968" lon="6.35261">
        <ele>2688</ele>
        <time>2015-03-23T15:26:34.000Z</time>
      </trkpt>
      <trkpt lat="45.13971" lon="6.35257">
        <ele>2686.3999023438</ele>
        <time>2015-03-23T15:26:35.000Z</time>
      </trkpt>
      <trkpt lat="45.13975" lon="6.35252">
        <ele>2684.1999511719</ele>
        <time>2015-03-23T15:26:36.000Z</time>
      </trkpt>
      <trkpt lat="45.13977" lon="6.3525">
        <ele>2682.3999023438</ele>
        <time>2015-03-23T15:26:37.000Z</time>
      </trkpt>
      <trkpt lat="45.1398" lon="6.35248">
        <ele>2681.1999511719</ele>
        <time>2015-03-23T15:26:38.000Z</time>
      </trkpt>
      <trkpt lat="45.13984" lon="6.35242">
        <ele>2680.3999023438</ele>
        <time>2015-03-23T15:26:39.000Z</time>
      </trkpt>
      <trkpt lat="45.13986" lon="6.35237">
        <ele>2679.6000976562</ele>
        <time>2015-03-23T15:26:40.000Z</time>
      </trkpt>
      <trkpt lat="45.13992" lon="6.35233">
        <ele>2677.8000488281</ele>
        <time>2015-03-23T15:26:42.000Z</time>
      </trkpt>
      <trkpt lat="45.13996" lon="6.35232">
        <ele>2676.6000976562</ele>
        <time>2015-03-23T15:26:43.000Z</time>
      </trkpt>
      <trkpt lat="45.13999" lon="6.35228">
        <ele>2675.6000976562</ele>
        <time>2015-03-23T15:26:44.000Z</time>
      </trkpt>
      <trkpt lat="45.14006" lon="6.35217">
        <ele>2673.6000976562</ele>
        <time>2015-03-23T15:26:46.000Z</time>
      </trkpt>
      <trkpt lat="45.1401" lon="6.35213">
        <ele>2672.3999023438</ele>
        <time>2015-03-23T15:26:47.000Z</time>
      </trkpt>
      <trkpt lat="45.14013" lon="6.35206">
        <ele>2671</ele>
        <time>2015-03-23T15:26:48.000Z</time>
      </trkpt>
      <trkpt lat="45.14017" lon="6.35202">
        <ele>2669.6000976562</ele>
        <time>2015-03-23T15:26:49.000Z</time>
      </trkpt>
      <trkpt lat="45.14019" lon="6.35195">
        <ele>2668.3999023438</ele>
        <time>2015-03-23T15:26:50.000Z</time>
      </trkpt>
      <trkpt lat="45.14023" lon="6.3519">
        <ele>2667</ele>
        <time>2015-03-23T15:26:51.000Z</time>
      </trkpt>
      <trkpt lat="45.14028" lon="6.35184">
        <ele>2665.1999511719</ele>
        <time>2015-03-23T15:26:52.000Z</time>
      </trkpt>
      <trkpt lat="45.14031" lon="6.3518">
        <ele>2663.3999023438</ele>
        <time>2015-03-23T15:26:53.000Z</time>
      </trkpt>
      <trkpt lat="45.14029" lon="6.35182">
        <ele>2660.6000976562</ele>
        <time>2015-03-23T15:26:54.000Z</time>
      </trkpt>
      <trkpt lat="45.14029" lon="6.35185">
        <ele>2659.1999511719</ele>
        <time>2015-03-23T15:26:55.000Z</time>
      </trkpt>
      <trkpt lat="45.14028" lon="6.35188">
        <ele>2657.6000976562</ele>
        <time>2015-03-23T15:26:56.000Z</time>
      </trkpt>
      <trkpt lat="45.14027" lon="6.3519">
        <ele>2656.1999511719</ele>
        <time>2015-03-23T15:26:57.000Z</time>
      </trkpt>
      <trkpt lat="45.14027" lon="6.35191">
        <ele>2655</ele>
        <time>2015-03-23T15:26:58.000Z</time>
      </trkpt>
      <trkpt lat="45.14027" lon="6.35193">
        <ele>2654</ele>
        <time>2015-03-23T15:27:00.000Z</time>
      </trkpt>
      <trkpt lat="45.14031" lon="6.3519">
        <ele>2653.6000976562</ele>
        <time>2015-03-23T15:27:04.000Z</time>
      </trkpt>
      <trkpt lat="45.1404" lon="6.3518">
        <ele>2653</ele>
        <time>2015-03-23T15:27:08.000Z</time>
      </trkpt>
      <trkpt lat="45.14042" lon="6.3518">
        <ele>2652.3999023438</ele>
        <time>2015-03-23T15:27:10.000Z</time>
      </trkpt>
      <trkpt lat="45.14043" lon="6.3518">
        <ele>2651.6000976562</ele>
        <time>2015-03-23T15:27:12.000Z</time>
      </trkpt>
      <trkpt lat="45.14042" lon="6.35181">
        <ele>2651.1999511719</ele>
        <time>2015-03-23T15:27:13.000Z</time>
      </trkpt>
      <trkpt lat="45.14039" lon="6.35183">
        <ele>2650.8000488281</ele>
        <time>2015-03-23T15:27:21.000Z</time>
      </trkpt>
      <trkpt lat="45.14039" lon="6.35183">
        <ele>2650.3999023438</ele>
        <time>2015-03-23T15:27:27.000Z</time>
      </trkpt>
      <trkpt lat="45.14039" lon="6.35183">
        <ele>2650.3999023438</ele>
        <time>2015-03-23T15:27:36.000Z</time>
      </trkpt>
      <trkpt lat="45.14034" lon="6.35188">
        <ele>2650.8000488281</ele>
        <time>2015-03-23T15:27:45.000Z</time>
      </trkpt>
      <trkpt lat="45.14034" lon="6.35188">
        <ele>2650.1999511719</ele>
        <time>2015-03-23T15:28:02.000Z</time>
      </trkpt>
      <trkpt lat="45.14029" lon="6.35211">
        <ele>2650.8000488281</ele>
        <time>2015-03-23T15:28:11.000Z</time>
      </trkpt>
      <trkpt lat="45.14025" lon="6.35225">
        <ele>2650.6000976562</ele>
        <time>2015-03-23T15:28:15.000Z</time>
      </trkpt>
      <trkpt lat="45.14025" lon="6.35225">
        <ele>2650.1999511719</ele>
        <time>2015-03-23T15:28:25.000Z</time>
      </trkpt>
      <trkpt lat="45.14025" lon="6.35225">
        <ele>2650</ele>
        <time>2015-03-23T15:28:30.000Z</time>
      </trkpt>
      <trkpt lat="45.14025" lon="6.35225">
        <ele>2650.1999511719</ele>
        <time>2015-03-23T15:28:35.000Z</time>
      </trkpt>
      <trkpt lat="45.14025" lon="6.35225">
        <ele>2650.3999023438</ele>
        <time>2015-03-23T15:28:50.000Z</time>
      </trkpt>
      <trkpt lat="45.14025" lon="6.35226">
        <ele>2650.1999511719</ele>
        <time>2015-03-23T15:29:05.000Z</time>
      </trkpt>
      <trkpt lat="45.14025" lon="6.35226">
        <ele>2650.1999511719</ele>
        <time>2015-03-23T15:29:16.000Z</time>
      </trkpt>
      <trkpt lat="45.14025" lon="6.35226">
        <ele>2650</ele>
        <time>2015-03-23T15:29:24.000Z</time>
      </trkpt>
      <trkpt lat="45.14025" lon="6.35227">
        <ele>2650</ele>
        <time>2015-03-23T15:29:40.000Z</time>
      </trkpt>
      <trkpt lat="45.14024" lon="6.35229">
        <ele>2650.1999511719</ele>
        <time>2015-03-23T15:29:50.000Z</time>
      </trkpt>
      <trkpt lat="45.14025" lon="6.3523">
        <ele>2650</ele>
        <time>2015-03-23T15:29:58.000Z</time>
      </trkpt>
      <trkpt lat="45.14025" lon="6.3523">
        <ele>2649.3999023438</ele>
        <time>2015-03-23T15:30:03.000Z</time>
      </trkpt>
      <trkpt lat="45.14025" lon="6.3523">
        <ele>2649.8000488281</ele>
        <time>2015-03-23T15:30:12.000Z</time>
      </trkpt>
      <trkpt lat="45.14025" lon="6.3523">
        <ele>2649.6000976562</ele>
        <time>2015-03-23T15:30:26.000Z</time>
      </trkpt>
      <trkpt lat="45.14025" lon="6.3523">
        <ele>2649</ele>
        <time>2015-03-23T15:30:34.000Z</time>
      </trkpt>
      <trkpt lat="45.14025" lon="6.3523">
        <ele>2649.1999511719</ele>
        <time>2015-03-23T15:30:38.000Z</time>
      </trkpt>
      <trkpt lat="45.14024" lon="6.35234">
        <ele>2650.1999511719</ele>
        <time>2015-03-23T15:30:44.000Z</time>
      </trkpt>
      <trkpt lat="45.14024" lon="6.3524">
        <ele>2650.1999511719</ele>
        <time>2015-03-23T15:30:50.000Z</time>
      </trkpt>
      <trkpt lat="45.14021" lon="6.35245">
        <ele>2650.6000976562</ele>
        <time>2015-03-23T15:30:54.000Z</time>
      </trkpt>
      <trkpt lat="45.14021" lon="6.35246">
        <ele>2650.8000488281</ele>
        <time>2015-03-23T15:30:55.000Z</time>
      </trkpt>
      <trkpt lat="45.1402" lon="6.35249">
        <ele>2651.8000488281</ele>
        <time>2015-03-23T15:30:59.000Z</time>
      </trkpt>
      <trkpt lat="45.14019" lon="6.3525">
        <ele>2652.1999511719</ele>
        <time>2015-03-23T15:31:00.000Z</time>
      </trkpt>
      <trkpt lat="45.14019" lon="6.35252">
        <ele>2652.1999511719</ele>
        <time>2015-03-23T15:31:09.000Z</time>
      </trkpt>
      <trkpt lat="45.14019" lon="6.35252">
        <ele>2652.6000976562</ele>
        <time>2015-03-23T15:31:27.000Z</time>
      </trkpt>
      <trkpt lat="45.14016" lon="6.35256">
        <ele>2652.8000488281</ele>
        <time>2015-03-23T15:31:33.000Z</time>
      </trkpt>
      <trkpt lat="45.14016" lon="6.35258">
        <ele>2652.8000488281</ele>
        <time>2015-03-23T15:31:34.000Z</time>
      </trkpt>
      <trkpt lat="45.14016" lon="6.35258">
        <ele>2653.8000488281</ele>
        <time>2015-03-23T15:31:38.000Z</time>
      </trkpt>
      <trkpt lat="45.14014" lon="6.35259">
        <ele>2654</ele>
        <time>2015-03-23T15:31:39.000Z</time>
      </trkpt>
      <trkpt lat="45.14013" lon="6.35265">
        <ele>2655</ele>
        <time>2015-03-23T15:31:42.000Z</time>
      </trkpt>
      <trkpt lat="45.14013" lon="6.35265">
        <ele>2655.3999023438</ele>
        <time>2015-03-23T15:31:44.000Z</time>
      </trkpt>
      <trkpt lat="45.14014" lon="6.35264">
        <ele>2656</ele>
        <time>2015-03-23T15:31:46.000Z</time>
      </trkpt>
      <trkpt lat="45.14013" lon="6.35265">
        <ele>2656.6000976562</ele>
        <time>2015-03-23T15:31:49.000Z</time>
      </trkpt>
      <trkpt lat="45.14013" lon="6.35266">
        <ele>2657.1999511719</ele>
        <time>2015-03-23T15:31:51.000Z</time>
      </trkpt>
      <trkpt lat="45.14013" lon="6.35263">
        <ele>2657.8000488281</ele>
        <time>2015-03-23T15:31:54.000Z</time>
      </trkpt>
      <trkpt lat="45.14012" lon="6.35262">
        <ele>2658.1999511719</ele>
        <time>2015-03-23T15:31:56.000Z</time>
      </trkpt>
      <trkpt lat="45.14012" lon="6.35263">
        <ele>2658.8000488281</ele>
        <time>2015-03-23T15:31:59.000Z</time>
      </trkpt>
      <trkpt lat="45.1401" lon="6.35271">
        <ele>2659.3999023438</ele>
        <time>2015-03-23T15:32:04.000Z</time>
      </trkpt>
      <trkpt lat="45.14011" lon="6.35269">
        <ele>2660.6000976562</ele>
        <time>2015-03-23T15:32:06.000Z</time>
      </trkpt>
      <trkpt lat="45.14011" lon="6.35267">
        <ele>2661.1999511719</ele>
        <time>2015-03-23T15:32:10.000Z</time>
      </trkpt>
      <trkpt lat="45.14011" lon="6.35267">
        <ele>2661.1999511719</ele>
        <time>2015-03-23T15:32:15.000Z</time>
      </trkpt>
      <trkpt lat="45.14011" lon="6.35267">
        <ele>2660</ele>
        <time>2015-03-23T15:32:25.000Z</time>
      </trkpt>
      <trkpt lat="45.14011" lon="6.35267">
        <ele>2661.8000488281</ele>
        <time>2015-03-23T15:32:32.000Z</time>
      </trkpt>
      <trkpt lat="45.14012" lon="6.3527">
        <ele>2662.3999023438</ele>
        <time>2015-03-23T15:32:38.000Z</time>
      </trkpt>
      <trkpt lat="45.14012" lon="6.3527">
        <ele>2661.6000976562</ele>
        <time>2015-03-23T15:32:51.000Z</time>
      </trkpt>
      <trkpt lat="45.14011" lon="6.3527">
        <ele>2662.3999023438</ele>
        <time>2015-03-23T15:33:03.000Z</time>
      </trkpt>
      <trkpt lat="45.14004" lon="6.35279">
        <ele>2662.6000976562</ele>
        <time>2015-03-23T15:33:08.000Z</time>
      </trkpt>
      <trkpt lat="45.14001" lon="6.35283">
        <ele>2662.8000488281</ele>
        <time>2015-03-23T15:33:12.000Z</time>
      </trkpt>
      <trkpt lat="45.14" lon="6.35284">
        <ele>2663</ele>
        <time>2015-03-23T15:33:13.000Z</time>
      </trkpt>
      <trkpt lat="45.13999" lon="6.35286">
        <ele>2663.8000488281</ele>
        <time>2015-03-23T15:33:16.000Z</time>
      </trkpt>
      <trkpt lat="45.13999" lon="6.35286">
        <ele>2664.6000976562</ele>
        <time>2015-03-23T15:33:18.000Z</time>
      </trkpt>
      <trkpt lat="45.13997" lon="6.35289">
        <ele>2665</ele>
        <time>2015-03-23T15:33:20.000Z</time>
      </trkpt>
      <trkpt lat="45.13997" lon="6.35292">
        <ele>2665.6000976562</ele>
        <time>2015-03-23T15:33:23.000Z</time>
      </trkpt>
      <trkpt lat="45.13995" lon="6.35296">
        <ele>2666.3999023438</ele>
        <time>2015-03-23T15:33:26.000Z</time>
      </trkpt>
      <trkpt lat="45.13993" lon="6.35297">
        <ele>2666.6000976562</ele>
        <time>2015-03-23T15:33:27.000Z</time>
      </trkpt>
      <trkpt lat="45.13989" lon="6.353">
        <ele>2667.1999511719</ele>
        <time>2015-03-23T15:33:32.000Z</time>
      </trkpt>
      <trkpt lat="45.13989" lon="6.353">
        <ele>2667.3999023438</ele>
        <time>2015-03-23T15:33:33.000Z</time>
      </trkpt>
      <trkpt lat="45.13987" lon="6.35302">
        <ele>2668.8000488281</ele>
        <time>2015-03-23T15:33:37.000Z</time>
      </trkpt>
      <trkpt lat="45.13987" lon="6.35299">
        <ele>2669.8000488281</ele>
        <time>2015-03-23T15:33:43.000Z</time>
      </trkpt>
      <trkpt lat="45.13986" lon="6.35297">
        <ele>2670.8000488281</ele>
        <time>2015-03-23T15:33:48.000Z</time>
      </trkpt>
      <trkpt lat="45.13987" lon="6.35294">
        <ele>2672</ele>
        <time>2015-03-23T15:33:54.000Z</time>
      </trkpt>
      <trkpt lat="45.13987" lon="6.35294">
        <ele>2672.6000976562</ele>
        <time>2015-03-23T15:34:06.000Z</time>
      </trkpt>
      <trkpt lat="45.13986" lon="6.35296">
        <ele>2672.3999023438</ele>
        <time>2015-03-23T15:34:19.000Z</time>
      </trkpt>
      <trkpt lat="45.13986" lon="6.35296">
        <ele>2672.3999023438</ele>
        <time>2015-03-23T15:34:32.000Z</time>
      </trkpt>
      <trkpt lat="45.13983" lon="6.35301">
        <ele>2672.6000976562</ele>
        <time>2015-03-23T15:34:39.000Z</time>
      </trkpt>
      <trkpt lat="45.13981" lon="6.353">
        <ele>2673</ele>
        <time>2015-03-23T15:34:43.000Z</time>
      </trkpt>
      <trkpt lat="45.13979" lon="6.35301">
        <ele>2673.8000488281</ele>
        <time>2015-03-23T15:34:45.000Z</time>
      </trkpt>
      <trkpt lat="45.13979" lon="6.353">
        <ele>2674.1999511719</ele>
        <time>2015-03-23T15:34:46.000Z</time>
      </trkpt>
      <trkpt lat="45.13978" lon="6.35295">
        <ele>2675</ele>
        <time>2015-03-23T15:34:51.000Z</time>
      </trkpt>
      <trkpt lat="45.13978" lon="6.35292">
        <ele>2675.1999511719</ele>
        <time>2015-03-23T15:34:52.000Z</time>
      </trkpt>
      <trkpt lat="45.13978" lon="6.3529">
        <ele>2675.3999023438</ele>
        <time>2015-03-23T15:34:53.000Z</time>
      </trkpt>
      <trkpt lat="45.1398" lon="6.35286">
        <ele>2676.3999023438</ele>
        <time>2015-03-23T15:34:56.000Z</time>
      </trkpt>
      <trkpt lat="45.13975" lon="6.35284">
        <ele>2677.1999511719</ele>
        <time>2015-03-23T15:35:03.000Z</time>
      </trkpt>
      <trkpt lat="45.13975" lon="6.35284">
        <ele>2677.3999023438</ele>
        <time>2015-03-23T15:35:04.000Z</time>
      </trkpt>
      <trkpt lat="45.13975" lon="6.35284">
        <ele>2678</ele>
        <time>2015-03-23T15:35:07.000Z</time>
      </trkpt>
      <trkpt lat="45.13974" lon="6.35285">
        <ele>2678.3999023438</ele>
        <time>2015-03-23T15:35:09.000Z</time>
      </trkpt>
      <trkpt lat="45.13972" lon="6.35287">
        <ele>2679.1999511719</ele>
        <time>2015-03-23T15:35:12.000Z</time>
      </trkpt>
      <trkpt lat="45.13969" lon="6.35289">
        <ele>2679.6000976562</ele>
        <time>2015-03-23T15:35:14.000Z</time>
      </trkpt>
      <trkpt lat="45.13969" lon="6.35289">
        <ele>2680.3999023438</ele>
        <time>2015-03-23T15:35:17.000Z</time>
      </trkpt>
      <trkpt lat="45.13969" lon="6.35289">
        <ele>2680.8000488281</ele>
        <time>2015-03-23T15:35:21.000Z</time>
      </trkpt>
      <trkpt lat="45.13969" lon="6.35289">
        <ele>2681.1999511719</ele>
        <time>2015-03-23T15:35:33.000Z</time>
      </trkpt>
      <trkpt lat="45.13966" lon="6.35293">
        <ele>2681.6000976562</ele>
        <time>2015-03-23T15:35:39.000Z</time>
      </trkpt>
      <trkpt lat="45.13966" lon="6.35293">
        <ele>2681.8000488281</ele>
        <time>2015-03-23T15:35:40.000Z</time>
      </trkpt>
      <trkpt lat="45.13964" lon="6.35294">
        <ele>2683</ele>
        <time>2015-03-23T15:35:43.000Z</time>
      </trkpt>
      <trkpt lat="45.13964" lon="6.35294">
        <ele>2683.3999023438</ele>
        <time>2015-03-23T15:35:45.000Z</time>
      </trkpt>
      <trkpt lat="45.13961" lon="6.35295">
        <ele>2684</ele>
        <time>2015-03-23T15:35:48.000Z</time>
      </trkpt>
      <trkpt lat="45.13961" lon="6.35295">
        <ele>2684.1999511719</ele>
        <time>2015-03-23T15:35:49.000Z</time>
      </trkpt>
      <trkpt lat="45.1396" lon="6.35297">
        <ele>2685.1999511719</ele>
        <time>2015-03-23T15:35:53.000Z</time>
      </trkpt>
      <trkpt lat="45.13958" lon="6.35298">
        <ele>2685.3999023438</ele>
        <time>2015-03-23T15:35:54.000Z</time>
      </trkpt>
      <trkpt lat="45.13958" lon="6.35298">
        <ele>2686.1999511719</ele>
        <time>2015-03-23T15:35:57.000Z</time>
      </trkpt>
      <trkpt lat="45.13958" lon="6.35298">
        <ele>2686.3999023438</ele>
        <time>2015-03-23T15:35:58.000Z</time>
      </trkpt>
      <trkpt lat="45.13955" lon="6.35303">
        <ele>2687.3999023438</ele>
        <time>2015-03-23T15:36:03.000Z</time>
      </trkpt>
      <trkpt lat="45.13954" lon="6.35307">
        <ele>2688.3999023438</ele>
        <time>2015-03-23T15:36:10.000Z</time>
      </trkpt>
      <trkpt lat="45.13954" lon="6.35307">
        <ele>2688.8000488281</ele>
        <time>2015-03-23T15:36:24.000Z</time>
      </trkpt>
      <trkpt lat="45.13954" lon="6.35307">
        <ele>2688.8000488281</ele>
        <time>2015-03-23T15:36:41.000Z</time>
      </trkpt>
      <trkpt lat="45.13948" lon="6.35316">
        <ele>2689</ele>
        <time>2015-03-23T15:36:49.000Z</time>
      </trkpt>
      <trkpt lat="45.13947" lon="6.35318">
        <ele>2689.6000976562</ele>
        <time>2015-03-23T15:36:51.000Z</time>
      </trkpt>
      <trkpt lat="45.13944" lon="6.35324">
        <ele>2690.6000976562</ele>
        <time>2015-03-23T15:36:56.000Z</time>
      </trkpt>
      <trkpt lat="45.13944" lon="6.35326">
        <ele>2690.8000488281</ele>
        <time>2015-03-23T15:36:57.000Z</time>
      </trkpt>
      <trkpt lat="45.13942" lon="6.35333">
        <ele>2692</ele>
        <time>2015-03-23T15:37:02.000Z</time>
      </trkpt>
      <trkpt lat="45.13942" lon="6.35333">
        <ele>2692.1999511719</ele>
        <time>2015-03-23T15:37:03.000Z</time>
      </trkpt>
      <trkpt lat="45.13942" lon="6.35333">
        <ele>2692.1999511719</ele>
        <time>2015-03-23T15:37:20.000Z</time>
      </trkpt>
      <trkpt lat="45.13942" lon="6.35333">
        <ele>2692.8000488281</ele>
        <time>2015-03-23T15:37:30.000Z</time>
      </trkpt>
      <trkpt lat="45.13942" lon="6.35333">
        <ele>2693</ele>
        <time>2015-03-23T15:37:31.000Z</time>
      </trkpt>
      <trkpt lat="45.13938" lon="6.35342">
        <ele>2694.1999511719</ele>
        <time>2015-03-23T15:37:38.000Z</time>
      </trkpt>
      <trkpt lat="45.13937" lon="6.35346">
        <ele>2694.8000488281</ele>
        <time>2015-03-23T15:37:42.000Z</time>
      </trkpt>
      <trkpt lat="45.13936" lon="6.35347">
        <ele>2695.1999511719</ele>
        <time>2015-03-23T15:37:44.000Z</time>
      </trkpt>
      <trkpt lat="45.13935" lon="6.35348">
        <ele>2696</ele>
        <time>2015-03-23T15:37:48.000Z</time>
      </trkpt>
      <trkpt lat="45.13935" lon="6.35348">
        <ele>2696.3999023438</ele>
        <time>2015-03-23T15:37:50.000Z</time>
      </trkpt>
      <trkpt lat="45.13932" lon="6.35353">
        <ele>2697</ele>
        <time>2015-03-23T15:37:54.000Z</time>
      </trkpt>
      <trkpt lat="45.13931" lon="6.35355">
        <ele>2697.3999023438</ele>
        <time>2015-03-23T15:37:58.000Z</time>
      </trkpt>
      <trkpt lat="45.13931" lon="6.35355">
        <ele>2698.3999023438</ele>
        <time>2015-03-23T15:38:05.000Z</time>
      </trkpt>
      <trkpt lat="45.13931" lon="6.35355">
        <ele>2698.3999023438</ele>
        <time>2015-03-23T15:38:06.000Z</time>
      </trkpt>
      <trkpt lat="45.13931" lon="6.35355">
        <ele>2698.1999511719</ele>
        <time>2015-03-23T15:38:24.000Z</time>
      </trkpt>
      <trkpt lat="45.13931" lon="6.35355">
        <ele>2698.1999511719</ele>
        <time>2015-03-23T15:38:44.000Z</time>
      </trkpt>
      <trkpt lat="45.13929" lon="6.35356">
        <ele>2698.1999511719</ele>
        <time>2015-03-23T15:38:54.000Z</time>
      </trkpt>
      <trkpt lat="45.13925" lon="6.35363">
        <ele>2699.8000488281</ele>
        <time>2015-03-23T15:39:00.000Z</time>
      </trkpt>
      <trkpt lat="45.13923" lon="6.35365">
        <ele>2700.8000488281</ele>
        <time>2015-03-23T15:39:06.000Z</time>
      </trkpt>
      <trkpt lat="45.13922" lon="6.35368">
        <ele>2701.8000488281</ele>
        <time>2015-03-23T15:39:11.000Z</time>
      </trkpt>
      <trkpt lat="45.13921" lon="6.35368">
        <ele>2702.1999511719</ele>
        <time>2015-03-23T15:39:12.000Z</time>
      </trkpt>
      <trkpt lat="45.13921" lon="6.35369">
        <ele>2703</ele>
        <time>2015-03-23T15:39:14.000Z</time>
      </trkpt>
      <trkpt lat="45.1392" lon="6.3537">
        <ele>2703.3999023438</ele>
        <time>2015-03-23T15:39:17.000Z</time>
      </trkpt>
      <trkpt lat="45.13918" lon="6.35371">
        <ele>2704</ele>
        <time>2015-03-23T15:39:19.000Z</time>
      </trkpt>
      <trkpt lat="45.13917" lon="6.35372">
        <ele>2704.3999023438</ele>
        <time>2015-03-23T15:39:22.000Z</time>
      </trkpt>
      <trkpt lat="45.13916" lon="6.35372">
        <ele>2705.1999511719</ele>
        <time>2015-03-23T15:39:25.000Z</time>
      </trkpt>
      <trkpt lat="45.13914" lon="6.35376">
        <ele>2705.6000976562</ele>
        <time>2015-03-23T15:39:28.000Z</time>
      </trkpt>
      <trkpt lat="45.13914" lon="6.35376">
        <ele>2706.3999023438</ele>
        <time>2015-03-23T15:39:33.000Z</time>
      </trkpt>
      <trkpt lat="45.13912" lon="6.35376">
        <ele>2707.1999511719</ele>
        <time>2015-03-23T15:39:41.000Z</time>
      </trkpt>
      <trkpt lat="45.13911" lon="6.35373">
        <ele>2707</ele>
        <time>2015-03-23T15:39:50.000Z</time>
      </trkpt>
      <trkpt lat="45.1391" lon="6.35375">
        <ele>2707.3999023438</ele>
        <time>2015-03-23T15:40:00.000Z</time>
      </trkpt>
      <trkpt lat="45.1391" lon="6.3538">
        <ele>2708.1999511719</ele>
        <time>2015-03-23T15:40:05.000Z</time>
      </trkpt>
      <trkpt lat="45.1391" lon="6.3538">
        <ele>2708.6000976562</ele>
        <time>2015-03-23T15:40:06.000Z</time>
      </trkpt>
      <trkpt lat="45.13909" lon="6.35382">
        <ele>2709.6000976562</ele>
        <time>2015-03-23T15:40:09.000Z</time>
      </trkpt>
      <trkpt lat="45.13908" lon="6.35383">
        <ele>2709.8000488281</ele>
        <time>2015-03-23T15:40:10.000Z</time>
      </trkpt>
      <trkpt lat="45.13908" lon="6.35384">
        <ele>2710.8000488281</ele>
        <time>2015-03-23T15:40:14.000Z</time>
      </trkpt>
      <trkpt lat="45.13908" lon="6.35384">
        <ele>2711</ele>
        <time>2015-03-23T15:40:15.000Z</time>
      </trkpt>
      <trkpt lat="45.13906" lon="6.35385">
        <ele>2711.6000976562</ele>
        <time>2015-03-23T15:40:19.000Z</time>
      </trkpt>
      <trkpt lat="45.13906" lon="6.35385">
        <ele>2711.8000488281</ele>
        <time>2015-03-23T15:40:20.000Z</time>
      </trkpt>
      <trkpt lat="45.13904" lon="6.35386">
        <ele>2713</ele>
        <time>2015-03-23T15:40:24.000Z</time>
      </trkpt>
      <trkpt lat="45.13904" lon="6.35385">
        <ele>2714</ele>
        <time>2015-03-23T15:40:34.000Z</time>
      </trkpt>
      <trkpt lat="45.13903" lon="6.35387">
        <ele>2714.1999511719</ele>
        <time>2015-03-23T15:40:39.000Z</time>
      </trkpt>
      <trkpt lat="45.13903" lon="6.35387">
        <ele>2714.3999023438</ele>
        <time>2015-03-23T15:40:40.000Z</time>
      </trkpt>
      <trkpt lat="45.13901" lon="6.35389">
        <ele>2715.3999023438</ele>
        <time>2015-03-23T15:40:44.000Z</time>
      </trkpt>
      <trkpt lat="45.13899" lon="6.35389">
        <ele>2716.3999023438</ele>
        <time>2015-03-23T15:40:48.000Z</time>
      </trkpt>
      <trkpt lat="45.13898" lon="6.3539">
        <ele>2716.8000488281</ele>
        <time>2015-03-23T15:40:50.000Z</time>
      </trkpt>
      <trkpt lat="45.13897" lon="6.35391">
        <ele>2717.6000976562</ele>
        <time>2015-03-23T15:40:55.000Z</time>
      </trkpt>
      <trkpt lat="45.13896" lon="6.3539">
        <ele>2718</ele>
        <time>2015-03-23T15:41:02.000Z</time>
      </trkpt>
      <trkpt lat="45.13896" lon="6.3539">
        <ele>2718.6000976562</ele>
        <time>2015-03-23T15:41:06.000Z</time>
      </trkpt>
      <trkpt lat="45.13896" lon="6.3539">
        <ele>2718</ele>
        <time>2015-03-23T15:41:15.000Z</time>
      </trkpt>
      <trkpt lat="45.13896" lon="6.3539">
        <ele>2718.3999023438</ele>
        <time>2015-03-23T15:41:26.000Z</time>
      </trkpt>
      <trkpt lat="45.13896" lon="6.3539">
        <ele>2717.6000976562</ele>
        <time>2015-03-23T15:41:30.000Z</time>
      </trkpt>
      <trkpt lat="45.13897" lon="6.3539">
        <ele>2718.6000976562</ele>
        <time>2015-03-23T15:41:38.000Z</time>
      </trkpt>
      <trkpt lat="45.13897" lon="6.3539">
        <ele>2718.6000976562</ele>
        <time>2015-03-23T15:41:39.000Z</time>
      </trkpt>
      <trkpt lat="45.13897" lon="6.3539">
        <ele>2718</ele>
        <time>2015-03-23T15:41:53.000Z</time>
      </trkpt>
      <trkpt lat="45.13897" lon="6.35391">
        <ele>2718.3999023438</ele>
        <time>2015-03-23T15:42:06.000Z</time>
      </trkpt>
      <trkpt lat="45.13897" lon="6.35391">
        <ele>2718.1999511719</ele>
        <time>2015-03-23T15:42:22.000Z</time>
      </trkpt>
      <trkpt lat="45.13897" lon="6.35391">
        <ele>2718</ele>
        <time>2015-03-23T15:42:39.000Z</time>
      </trkpt>
      <trkpt lat="45.13897" lon="6.35391">
        <ele>2718</ele>
        <time>2015-03-23T15:42:55.000Z</time>
      </trkpt>
      <trkpt lat="45.13897" lon="6.35391">
        <ele>2718</ele>
        <time>2015-03-23T15:43:05.000Z</time>
      </trkpt>
      <trkpt lat="45.13897" lon="6.35391">
        <ele>2717.8000488281</ele>
        <time>2015-03-23T15:43:08.000Z</time>
      </trkpt>
      <trkpt lat="45.13896" lon="6.35394">
        <ele>2718.1999511719</ele>
        <time>2015-03-23T15:43:16.000Z</time>
      </trkpt>
      <trkpt lat="45.13896" lon="6.35394">
        <ele>2718.3999023438</ele>
        <time>2015-03-23T15:43:28.000Z</time>
      </trkpt>
      <trkpt lat="45.13896" lon="6.35394">
        <ele>2718.6000976562</ele>
        <time>2015-03-23T15:43:45.000Z</time>
      </trkpt>
      <trkpt lat="45.13896" lon="6.35394">
        <ele>2718.1999511719</ele>
        <time>2015-03-23T15:43:59.000Z</time>
      </trkpt>
      <trkpt lat="45.13896" lon="6.35394">
        <ele>2719</ele>
        <time>2015-03-23T15:44:13.000Z</time>
      </trkpt>
      <trkpt lat="45.13896" lon="6.35394">
        <ele>2718.8000488281</ele>
        <time>2015-03-23T15:44:29.000Z</time>
      </trkpt>
      <trkpt lat="45.13896" lon="6.35394">
        <ele>2718.6000976562</ele>
        <time>2015-03-23T15:44:42.000Z</time>
      </trkpt>
      <trkpt lat="45.13896" lon="6.35394">
        <ele>2718.8000488281</ele>
        <time>2015-03-23T15:44:54.000Z</time>
      </trkpt>
      <trkpt lat="45.13896" lon="6.35394">
        <ele>2718.8000488281</ele>
        <time>2015-03-23T15:45:11.000Z</time>
      </trkpt>
      <trkpt lat="45.13897" lon="6.35395">
        <ele>2718.3999023438</ele>
        <time>2015-03-23T15:45:20.000Z</time>
      </trkpt>
      <trkpt lat="45.13901" lon="6.35395">
        <ele>2718.1999511719</ele>
        <time>2015-03-23T15:45:23.000Z</time>
      </trkpt>
      <trkpt lat="45.13908" lon="6.35394">
        <ele>2717.3999023438</ele>
        <time>2015-03-23T15:45:27.000Z</time>
      </trkpt>
      <trkpt lat="45.1392" lon="6.3539">
        <ele>2716</ele>
        <time>2015-03-23T15:45:30.000Z</time>
      </trkpt>
      <trkpt lat="45.13929" lon="6.35383">
        <ele>2714</ele>
        <time>2015-03-23T15:45:32.000Z</time>
      </trkpt>
      <trkpt lat="45.13933" lon="6.3538">
        <ele>2712.6000976562</ele>
        <time>2015-03-23T15:45:33.000Z</time>
      </trkpt>
      <trkpt lat="45.13936" lon="6.35374">
        <ele>2710.8000488281</ele>
        <time>2015-03-23T15:45:34.000Z</time>
      </trkpt>
      <trkpt lat="45.13937" lon="6.35368">
        <ele>2709.3999023438</ele>
        <time>2015-03-23T15:45:35.000Z</time>
      </trkpt>
      <trkpt lat="45.13937" lon="6.3536">
        <ele>2707.8000488281</ele>
        <time>2015-03-23T15:45:36.000Z</time>
      </trkpt>
      <trkpt lat="45.13935" lon="6.35355">
        <ele>2706</ele>
        <time>2015-03-23T15:45:37.000Z</time>
      </trkpt>
      <trkpt lat="45.13934" lon="6.35351">
        <ele>2703.6000976562</ele>
        <time>2015-03-23T15:45:38.000Z</time>
      </trkpt>
      <trkpt lat="45.13933" lon="6.35345">
        <ele>2701.1999511719</ele>
        <time>2015-03-23T15:45:39.000Z</time>
      </trkpt>
      <trkpt lat="45.13934" lon="6.35341">
        <ele>2699</ele>
        <time>2015-03-23T15:45:40.000Z</time>
      </trkpt>
      <trkpt lat="45.13937" lon="6.35337">
        <ele>2697.1999511719</ele>
        <time>2015-03-23T15:45:41.000Z</time>
      </trkpt>
      <trkpt lat="45.1394" lon="6.35333">
        <ele>2696</ele>
        <time>2015-03-23T15:45:42.000Z</time>
      </trkpt>
      <trkpt lat="45.13943" lon="6.35329">
        <ele>2694.6000976562</ele>
        <time>2015-03-23T15:45:43.000Z</time>
      </trkpt>
      <trkpt lat="45.13949" lon="6.35317">
        <ele>2692.3999023438</ele>
        <time>2015-03-23T15:45:45.000Z</time>
      </trkpt>
      <trkpt lat="45.13951" lon="6.35311">
        <ele>2690.1999511719</ele>
        <time>2015-03-23T15:45:46.000Z</time>
      </trkpt>
      <trkpt lat="45.13954" lon="6.35306">
        <ele>2688.3999023438</ele>
        <time>2015-03-23T15:45:47.000Z</time>
      </trkpt>
      <trkpt lat="45.13959" lon="6.35309">
        <ele>2687.1999511719</ele>
        <time>2015-03-23T15:45:48.000Z</time>
      </trkpt>
      <trkpt lat="45.13963" lon="6.35306">
        <ele>2686.1999511719</ele>
        <time>2015-03-23T15:45:49.000Z</time>
      </trkpt>
      <trkpt lat="45.13967" lon="6.35303">
        <ele>2684.8000488281</ele>
        <time>2015-03-23T15:45:50.000Z</time>
      </trkpt>
      <trkpt lat="45.1397" lon="6.35297">
        <ele>2683</ele>
        <time>2015-03-23T15:45:51.000Z</time>
      </trkpt>
      <trkpt lat="45.13974" lon="6.3529">
        <ele>2681.1999511719</ele>
        <time>2015-03-23T15:45:52.000Z</time>
      </trkpt>
      <trkpt lat="45.13978" lon="6.35285">
        <ele>2679.6000976562</ele>
        <time>2015-03-23T15:45:53.000Z</time>
      </trkpt>
      <trkpt lat="45.13984" lon="6.35277">
        <ele>2678</ele>
        <time>2015-03-23T15:45:55.000Z</time>
      </trkpt>
      <trkpt lat="45.13988" lon="6.35273">
        <ele>2677.1999511719</ele>
        <time>2015-03-23T15:45:56.000Z</time>
      </trkpt>
      <trkpt lat="45.13991" lon="6.35267">
        <ele>2676.1999511719</ele>
        <time>2015-03-23T15:45:57.000Z</time>
      </trkpt>
      <trkpt lat="45.13996" lon="6.35264">
        <ele>2674.8000488281</ele>
        <time>2015-03-23T15:45:58.000Z</time>
      </trkpt>
      <trkpt lat="45.14001" lon="6.35261">
        <ele>2673.3999023438</ele>
        <time>2015-03-23T15:45:59.000Z</time>
      </trkpt>
      <trkpt lat="45.14005" lon="6.35257">
        <ele>2672</ele>
        <time>2015-03-23T15:46:00.000Z</time>
      </trkpt>
      <trkpt lat="45.14008" lon="6.35251">
        <ele>2670.6000976562</ele>
        <time>2015-03-23T15:46:01.000Z</time>
      </trkpt>
      <trkpt lat="45.14013" lon="6.35247">
        <ele>2669</ele>
        <time>2015-03-23T15:46:02.000Z</time>
      </trkpt>
      <trkpt lat="45.14017" lon="6.35241">
        <ele>2667.1999511719</ele>
        <time>2015-03-23T15:46:03.000Z</time>
      </trkpt>
      <trkpt lat="45.14021" lon="6.35235">
        <ele>2665.1999511719</ele>
        <time>2015-03-23T15:46:04.000Z</time>
      </trkpt>
      <trkpt lat="45.14026" lon="6.35229">
        <ele>2663.3999023438</ele>
        <time>2015-03-23T15:46:05.000Z</time>
      </trkpt>
      <trkpt lat="45.14031" lon="6.35225">
        <ele>2661.6000976562</ele>
        <time>2015-03-23T15:46:06.000Z</time>
      </trkpt>
      <trkpt lat="45.14036" lon="6.3522">
        <ele>2657.3999023438</ele>
        <time>2015-03-23T15:46:07.000Z</time>
      </trkpt>
      <trkpt lat="45.14041" lon="6.35217">
        <ele>2655.1999511719</ele>
        <time>2015-03-23T15:46:08.000Z</time>
      </trkpt>
      <trkpt lat="45.14043" lon="6.35211">
        <ele>2653.1999511719</ele>
        <time>2015-03-23T15:46:09.000Z</time>
      </trkpt>
      <trkpt lat="45.14044" lon="6.35206">
        <ele>2651.1999511719</ele>
        <time>2015-03-23T15:46:10.000Z</time>
      </trkpt>
      <trkpt lat="45.14044" lon="6.35199">
        <ele>2649.6000976562</ele>
        <time>2015-03-23T15:46:11.000Z</time>
      </trkpt>
      <trkpt lat="45.14045" lon="6.35194">
        <ele>2648</ele>
        <time>2015-03-23T15:46:12.000Z</time>
      </trkpt>
      <trkpt lat="45.14045" lon="6.3519">
        <ele>2646.3999023438</ele>
        <time>2015-03-23T15:46:13.000Z</time>
      </trkpt>
      <trkpt lat="45.14047" lon="6.35188">
        <ele>2645.1999511719</ele>
        <time>2015-03-23T15:46:14.000Z</time>
      </trkpt>
      <trkpt lat="45.14051" lon="6.35186">
        <ele>2643.6000976562</ele>
        <time>2015-03-23T15:46:16.000Z</time>
      </trkpt>
      <trkpt lat="45.14057" lon="6.35184">
        <ele>2641.3999023438</ele>
        <time>2015-03-23T15:46:18.000Z</time>
      </trkpt>
      <trkpt lat="45.1406" lon="6.35181">
        <ele>2640.1999511719</ele>
        <time>2015-03-23T15:46:19.000Z</time>
      </trkpt>
      <trkpt lat="45.14064" lon="6.35182">
        <ele>2639.6000976562</ele>
        <time>2015-03-23T15:46:20.000Z</time>
      </trkpt>
      <trkpt lat="45.14066" lon="6.35178">
        <ele>2639</ele>
        <time>2015-03-23T15:46:21.000Z</time>
      </trkpt>
      <trkpt lat="45.1407" lon="6.3517">
        <ele>2637</ele>
        <time>2015-03-23T15:46:23.000Z</time>
      </trkpt>
      <trkpt lat="45.14071" lon="6.35166">
        <ele>2635.8000488281</ele>
        <time>2015-03-23T15:46:24.000Z</time>
      </trkpt>
      <trkpt lat="45.14072" lon="6.35162">
        <ele>2634.6000976562</ele>
        <time>2015-03-23T15:46:25.000Z</time>
      </trkpt>
      <trkpt lat="45.14073" lon="6.35161">
        <ele>2633.6000976562</ele>
        <time>2015-03-23T15:46:26.000Z</time>
      </trkpt>
      <trkpt lat="45.14075" lon="6.35159">
        <ele>2632</ele>
        <time>2015-03-23T15:46:28.000Z</time>
      </trkpt>
      <trkpt lat="45.14079" lon="6.35156">
        <ele>2630.8000488281</ele>
        <time>2015-03-23T15:46:30.000Z</time>
      </trkpt>
      <trkpt lat="45.14081" lon="6.35154">
        <ele>2629.1999511719</ele>
        <time>2015-03-23T15:46:31.000Z</time>
      </trkpt>
      <trkpt lat="45.14086" lon="6.35153">
        <ele>2627.6000976562</ele>
        <time>2015-03-23T15:46:33.000Z</time>
      </trkpt>
      <trkpt lat="45.14088" lon="6.3515">
        <ele>2627</ele>
        <time>2015-03-23T15:46:34.000Z</time>
      </trkpt>
      <trkpt lat="45.14092" lon="6.35147">
        <ele>2626.1999511719</ele>
        <time>2015-03-23T15:46:35.000Z</time>
      </trkpt>
      <trkpt lat="45.14095" lon="6.35143">
        <ele>2624.8000488281</ele>
        <time>2015-03-23T15:46:36.000Z</time>
      </trkpt>
      <trkpt lat="45.14097" lon="6.35138">
        <ele>2623.3999023438</ele>
        <time>2015-03-23T15:46:37.000Z</time>
      </trkpt>
      <trkpt lat="45.14099" lon="6.35136">
        <ele>2621.8000488281</ele>
        <time>2015-03-23T15:46:38.000Z</time>
      </trkpt>
      <trkpt lat="45.14103" lon="6.35134">
        <ele>2620.1999511719</ele>
        <time>2015-03-23T15:46:39.000Z</time>
      </trkpt>
      <trkpt lat="45.14106" lon="6.35131">
        <ele>2619</ele>
        <time>2015-03-23T15:46:40.000Z</time>
      </trkpt>
      <trkpt lat="45.14109" lon="6.35129">
        <ele>2618</ele>
        <time>2015-03-23T15:46:41.000Z</time>
      </trkpt>
      <trkpt lat="45.14112" lon="6.35124">
        <ele>2616.8000488281</ele>
        <time>2015-03-23T15:46:42.000Z</time>
      </trkpt>
      <trkpt lat="45.14115" lon="6.35121">
        <ele>2615.1999511719</ele>
        <time>2015-03-23T15:46:43.000Z</time>
      </trkpt>
      <trkpt lat="45.14117" lon="6.35117">
        <ele>2613.3999023438</ele>
        <time>2015-03-23T15:46:44.000Z</time>
      </trkpt>
      <trkpt lat="45.1412" lon="6.35114">
        <ele>2612</ele>
        <time>2015-03-23T15:46:45.000Z</time>
      </trkpt>
      <trkpt lat="45.14122" lon="6.35114">
        <ele>2610.8000488281</ele>
        <time>2015-03-23T15:46:46.000Z</time>
      </trkpt>
      <trkpt lat="45.14127" lon="6.35114">
        <ele>2609</ele>
        <time>2015-03-23T15:46:48.000Z</time>
      </trkpt>
      <trkpt lat="45.14129" lon="6.35115">
        <ele>2608.1999511719</ele>
        <time>2015-03-23T15:46:49.000Z</time>
      </trkpt>
      <trkpt lat="45.14132" lon="6.35114">
        <ele>2607.6000976562</ele>
        <time>2015-03-23T15:46:50.000Z</time>
      </trkpt>
      <trkpt lat="45.14134" lon="6.35115">
        <ele>2607.1999511719</ele>
        <time>2015-03-23T15:46:51.000Z</time>
      </trkpt>
      <trkpt lat="45.14141" lon="6.35123">
        <ele>2606</ele>
        <time>2015-03-23T15:46:53.000Z</time>
      </trkpt>
      <trkpt lat="45.14147" lon="6.3513">
        <ele>2603.6000976562</ele>
        <time>2015-03-23T15:46:55.000Z</time>
      </trkpt>
      <trkpt lat="45.14154" lon="6.35138">
        <ele>2602</ele>
        <time>2015-03-23T15:46:57.000Z</time>
      </trkpt>
      <trkpt lat="45.14157" lon="6.3514">
        <ele>2600.8000488281</ele>
        <time>2015-03-23T15:46:58.000Z</time>
      </trkpt>
      <trkpt lat="45.14163" lon="6.35147">
        <ele>2599.1999511719</ele>
        <time>2015-03-23T15:47:00.000Z</time>
      </trkpt>
      <trkpt lat="45.14167" lon="6.35151">
        <ele>2598.6000976562</ele>
        <time>2015-03-23T15:47:01.000Z</time>
      </trkpt>
      <trkpt lat="45.14176" lon="6.35164">
        <ele>2597.8000488281</ele>
        <time>2015-03-23T15:47:03.000Z</time>
      </trkpt>
      <trkpt lat="45.1418" lon="6.35165">
        <ele>2597.3999023438</ele>
        <time>2015-03-23T15:47:04.000Z</time>
      </trkpt>
      <trkpt lat="45.14189" lon="6.35168">
        <ele>2596.3999023438</ele>
        <time>2015-03-23T15:47:06.000Z</time>
      </trkpt>
      <trkpt lat="45.14198" lon="6.35165">
        <ele>2594.1999511719</ele>
        <time>2015-03-23T15:47:08.000Z</time>
      </trkpt>
      <trkpt lat="45.14202" lon="6.35161">
        <ele>2592.3999023438</ele>
        <time>2015-03-23T15:47:09.000Z</time>
      </trkpt>
      <trkpt lat="45.14205" lon="6.35158">
        <ele>2590.8000488281</ele>
        <time>2015-03-23T15:47:10.000Z</time>
      </trkpt>
      <trkpt lat="45.14207" lon="6.35151">
        <ele>2589.3999023438</ele>
        <time>2015-03-23T15:47:11.000Z</time>
      </trkpt>
      <trkpt lat="45.14206" lon="6.35146">
        <ele>2588</ele>
        <time>2015-03-23T15:47:12.000Z</time>
      </trkpt>
      <trkpt lat="45.14203" lon="6.35145">
        <ele>2585.8000488281</ele>
        <time>2015-03-23T15:47:13.000Z</time>
      </trkpt>
      <trkpt lat="45.14203" lon="6.35145">
        <ele>2583</ele>
        <time>2015-03-23T15:47:14.000Z</time>
      </trkpt>
      <trkpt lat="45.14204" lon="6.35147">
        <ele>2580.8000488281</ele>
        <time>2015-03-23T15:47:15.000Z</time>
      </trkpt>
      <trkpt lat="45.14204" lon="6.35148">
        <ele>2579.3999023438</ele>
        <time>2015-03-23T15:47:16.000Z</time>
      </trkpt>
      <trkpt lat="45.14204" lon="6.35148">
        <ele>2578.1999511719</ele>
        <time>2015-03-23T15:47:18.000Z</time>
      </trkpt>
      <trkpt lat="45.14205" lon="6.35147">
        <ele>2577.6000976562</ele>
        <time>2015-03-23T15:47:20.000Z</time>
      </trkpt>
      <trkpt lat="45.14207" lon="6.35142">
        <ele>2577.1999511719</ele>
        <time>2015-03-23T15:47:22.000Z</time>
      </trkpt>
      <trkpt lat="45.14215" lon="6.35133">
        <ele>2575.6000976562</ele>
        <time>2015-03-23T15:47:25.000Z</time>
      </trkpt>
      <trkpt lat="45.1422" lon="6.35127">
        <ele>2574.6000976562</ele>
        <time>2015-03-23T15:47:26.000Z</time>
      </trkpt>
      <trkpt lat="45.14223" lon="6.3512">
        <ele>2573.1999511719</ele>
        <time>2015-03-23T15:47:27.000Z</time>
      </trkpt>
      <trkpt lat="45.14225" lon="6.35113">
        <ele>2571.1999511719</ele>
        <time>2015-03-23T15:47:28.000Z</time>
      </trkpt>
      <trkpt lat="45.14227" lon="6.35107">
        <ele>2568.6000976562</ele>
        <time>2015-03-23T15:47:29.000Z</time>
      </trkpt>
      <trkpt lat="45.1423" lon="6.35101">
        <ele>2566.1999511719</ele>
        <time>2015-03-23T15:47:30.000Z</time>
      </trkpt>
      <trkpt lat="45.14233" lon="6.35096">
        <ele>2564.3999023438</ele>
        <time>2015-03-23T15:47:31.000Z</time>
      </trkpt>
      <trkpt lat="45.14237" lon="6.35091">
        <ele>2562.3999023438</ele>
        <time>2015-03-23T15:47:32.000Z</time>
      </trkpt>
      <trkpt lat="45.1424" lon="6.35088">
        <ele>2560.1999511719</ele>
        <time>2015-03-23T15:47:33.000Z</time>
      </trkpt>
      <trkpt lat="45.14244" lon="6.35086">
        <ele>2558</ele>
        <time>2015-03-23T15:47:34.000Z</time>
      </trkpt>
      <trkpt lat="45.14249" lon="6.35087">
        <ele>2556</ele>
        <time>2015-03-23T15:47:35.000Z</time>
      </trkpt>
      <trkpt lat="45.14254" lon="6.35085">
        <ele>2554.8000488281</ele>
        <time>2015-03-23T15:47:36.000Z</time>
      </trkpt>
      <trkpt lat="45.14259" lon="6.35082">
        <ele>2554.1999511719</ele>
        <time>2015-03-23T15:47:37.000Z</time>
      </trkpt>
      <trkpt lat="45.14266" lon="6.35077">
        <ele>2553.6000976562</ele>
        <time>2015-03-23T15:47:38.000Z</time>
      </trkpt>
      <trkpt lat="45.14272" lon="6.35072">
        <ele>2552.8000488281</ele>
        <time>2015-03-23T15:47:39.000Z</time>
      </trkpt>
      <trkpt lat="45.14278" lon="6.35065">
        <ele>2551.3999023438</ele>
        <time>2015-03-23T15:47:40.000Z</time>
      </trkpt>
      <trkpt lat="45.14284" lon="6.35062">
        <ele>2549.3999023438</ele>
        <time>2015-03-23T15:47:41.000Z</time>
      </trkpt>
      <trkpt lat="45.14289" lon="6.35056">
        <ele>2547.3999023438</ele>
        <time>2015-03-23T15:47:42.000Z</time>
      </trkpt>
      <trkpt lat="45.14295" lon="6.35051">
        <ele>2545.6000976562</ele>
        <time>2015-03-23T15:47:43.000Z</time>
      </trkpt>
      <trkpt lat="45.14298" lon="6.35044">
        <ele>2541</ele>
        <time>2015-03-23T15:47:44.000Z</time>
      </trkpt>
      <trkpt lat="45.14301" lon="6.35035">
        <ele>2538</ele>
        <time>2015-03-23T15:47:45.000Z</time>
      </trkpt>
      <trkpt lat="45.14306" lon="6.35029">
        <ele>2535.1999511719</ele>
        <time>2015-03-23T15:47:46.000Z</time>
      </trkpt>
      <trkpt lat="45.14312" lon="6.35025">
        <ele>2532.8000488281</ele>
        <time>2015-03-23T15:47:47.000Z</time>
      </trkpt>
      <trkpt lat="45.14319" lon="6.35024">
        <ele>2531.1999511719</ele>
        <time>2015-03-23T15:47:48.000Z</time>
      </trkpt>
      <trkpt lat="45.14327" lon="6.3502">
        <ele>2529.6000976562</ele>
        <time>2015-03-23T15:47:49.000Z</time>
      </trkpt>
      <trkpt lat="45.14334" lon="6.35017">
        <ele>2528</ele>
        <time>2015-03-23T15:47:50.000Z</time>
      </trkpt>
      <trkpt lat="45.14339" lon="6.35014">
        <ele>2526.1999511719</ele>
        <time>2015-03-23T15:47:51.000Z</time>
      </trkpt>
      <trkpt lat="45.14341" lon="6.35006">
        <ele>2524.1999511719</ele>
        <time>2015-03-23T15:47:52.000Z</time>
      </trkpt>
      <trkpt lat="45.14343" lon="6.34997">
        <ele>2522</ele>
        <time>2015-03-23T15:47:53.000Z</time>
      </trkpt>
      <trkpt lat="45.14347" lon="6.34987">
        <ele>2520</ele>
        <time>2015-03-23T15:47:54.000Z</time>
      </trkpt>
      <trkpt lat="45.14356" lon="6.34981">
        <ele>2518.1999511719</ele>
        <time>2015-03-23T15:47:55.000Z</time>
      </trkpt>
      <trkpt lat="45.14365" lon="6.34975">
        <ele>2516.8000488281</ele>
        <time>2015-03-23T15:47:56.000Z</time>
      </trkpt>
      <trkpt lat="45.14372" lon="6.34968">
        <ele>2515.1999511719</ele>
        <time>2015-03-23T15:47:57.000Z</time>
      </trkpt>
      <trkpt lat="45.1438" lon="6.34962">
        <ele>2512.8000488281</ele>
        <time>2015-03-23T15:47:58.000Z</time>
      </trkpt>
      <trkpt lat="45.14387" lon="6.34957">
        <ele>2510.1999511719</ele>
        <time>2015-03-23T15:47:59.000Z</time>
      </trkpt>
      <trkpt lat="45.14394" lon="6.34953">
        <ele>2508</ele>
        <time>2015-03-23T15:48:00.000Z</time>
      </trkpt>
      <trkpt lat="45.14401" lon="6.3495">
        <ele>2506.6000976562</ele>
        <time>2015-03-23T15:48:01.000Z</time>
      </trkpt>
      <trkpt lat="45.14411" lon="6.34952">
        <ele>2505.1999511719</ele>
        <time>2015-03-23T15:48:03.000Z</time>
      </trkpt>
      <trkpt lat="45.1442" lon="6.34953">
        <ele>2503.8000488281</ele>
        <time>2015-03-23T15:48:05.000Z</time>
      </trkpt>
      <trkpt lat="45.14425" lon="6.34951">
        <ele>2503.6000976562</ele>
        <time>2015-03-23T15:48:06.000Z</time>
      </trkpt>
      <trkpt lat="45.14437" lon="6.34944">
        <ele>2501.6000976562</ele>
        <time>2015-03-23T15:48:08.000Z</time>
      </trkpt>
      <trkpt lat="45.14444" lon="6.3494">
        <ele>2500.3999023438</ele>
        <time>2015-03-23T15:48:09.000Z</time>
      </trkpt>
      <trkpt lat="45.14451" lon="6.34937">
        <ele>2499</ele>
        <time>2015-03-23T15:48:10.000Z</time>
      </trkpt>
      <trkpt lat="45.1446" lon="6.34934">
        <ele>2497.6000976562</ele>
        <time>2015-03-23T15:48:11.000Z</time>
      </trkpt>
      <trkpt lat="45.14468" lon="6.3493">
        <ele>2496.1999511719</ele>
        <time>2015-03-23T15:48:12.000Z</time>
      </trkpt>
      <trkpt lat="45.14476" lon="6.34926">
        <ele>2494.3999023438</ele>
        <time>2015-03-23T15:48:13.000Z</time>
      </trkpt>
      <trkpt lat="45.14483" lon="6.34922">
        <ele>2492.6000976562</ele>
        <time>2015-03-23T15:48:14.000Z</time>
      </trkpt>
      <trkpt lat="45.14491" lon="6.34918">
        <ele>2490.8000488281</ele>
        <time>2015-03-23T15:48:15.000Z</time>
      </trkpt>
      <trkpt lat="45.14499" lon="6.34918">
        <ele>2489.3999023438</ele>
        <time>2015-03-23T15:48:16.000Z</time>
      </trkpt>
      <trkpt lat="45.14504" lon="6.34915">
        <ele>2488</ele>
        <time>2015-03-23T15:48:17.000Z</time>
      </trkpt>
      <trkpt lat="45.14508" lon="6.34911">
        <ele>2486.3999023438</ele>
        <time>2015-03-23T15:48:18.000Z</time>
      </trkpt>
      <trkpt lat="45.14513" lon="6.34906">
        <ele>2484.8000488281</ele>
        <time>2015-03-23T15:48:19.000Z</time>
      </trkpt>
      <trkpt lat="45.14517" lon="6.34898">
        <ele>2482.8000488281</ele>
        <time>2015-03-23T15:48:20.000Z</time>
      </trkpt>
      <trkpt lat="45.1452" lon="6.34891">
        <ele>2480.3999023438</ele>
        <time>2015-03-23T15:48:21.000Z</time>
      </trkpt>
      <trkpt lat="45.14523" lon="6.34887">
        <ele>2478</ele>
        <time>2015-03-23T15:48:22.000Z</time>
      </trkpt>
      <trkpt lat="45.14527" lon="6.34881">
        <ele>2475.6000976562</ele>
        <time>2015-03-23T15:48:23.000Z</time>
      </trkpt>
      <trkpt lat="45.1453" lon="6.34873">
        <ele>2473.8000488281</ele>
        <time>2015-03-23T15:48:24.000Z</time>
      </trkpt>
      <trkpt lat="45.14531" lon="6.34863">
        <ele>2472.1999511719</ele>
        <time>2015-03-23T15:48:25.000Z</time>
      </trkpt>
      <trkpt lat="45.1453" lon="6.34853">
        <ele>2470.6000976562</ele>
        <time>2015-03-23T15:48:26.000Z</time>
      </trkpt>
      <trkpt lat="45.1453" lon="6.34843">
        <ele>2468.3999023438</ele>
        <time>2015-03-23T15:48:27.000Z</time>
      </trkpt>
      <trkpt lat="45.14529" lon="6.34835">
        <ele>2465.8000488281</ele>
        <time>2015-03-23T15:48:28.000Z</time>
      </trkpt>
      <trkpt lat="45.14531" lon="6.34827">
        <ele>2463.1999511719</ele>
        <time>2015-03-23T15:48:29.000Z</time>
      </trkpt>
      <trkpt lat="45.14533" lon="6.34819">
        <ele>2460.8000488281</ele>
        <time>2015-03-23T15:48:30.000Z</time>
      </trkpt>
      <trkpt lat="45.14537" lon="6.34813">
        <ele>2458.6000976562</ele>
        <time>2015-03-23T15:48:31.000Z</time>
      </trkpt>
      <trkpt lat="45.14543" lon="6.34809">
        <ele>2456.1999511719</ele>
        <time>2015-03-23T15:48:32.000Z</time>
      </trkpt>
      <trkpt lat="45.14548" lon="6.34802">
        <ele>2455.1999511719</ele>
        <time>2015-03-23T15:48:33.000Z</time>
      </trkpt>
      <trkpt lat="45.14551" lon="6.34799">
        <ele>2453.8000488281</ele>
        <time>2015-03-23T15:48:34.000Z</time>
      </trkpt>
      <trkpt lat="45.14554" lon="6.34792">
        <ele>2452.1999511719</ele>
        <time>2015-03-23T15:48:35.000Z</time>
      </trkpt>
      <trkpt lat="45.1456" lon="6.34783">
        <ele>2450.6000976562</ele>
        <time>2015-03-23T15:48:36.000Z</time>
      </trkpt>
      <trkpt lat="45.14564" lon="6.34774">
        <ele>2448.6000976562</ele>
        <time>2015-03-23T15:48:37.000Z</time>
      </trkpt>
      <trkpt lat="45.1457" lon="6.34767">
        <ele>2446.6000976562</ele>
        <time>2015-03-23T15:48:38.000Z</time>
      </trkpt>
      <trkpt lat="45.14578" lon="6.34761">
        <ele>2444.6000976562</ele>
        <time>2015-03-23T15:48:39.000Z</time>
      </trkpt>
      <trkpt lat="45.14585" lon="6.34754">
        <ele>2442.8000488281</ele>
        <time>2015-03-23T15:48:40.000Z</time>
      </trkpt>
      <trkpt lat="45.14591" lon="6.34747">
        <ele>2441.1999511719</ele>
        <time>2015-03-23T15:48:41.000Z</time>
      </trkpt>
      <trkpt lat="45.14596" lon="6.34739">
        <ele>2439.3999023438</ele>
        <time>2015-03-23T15:48:42.000Z</time>
      </trkpt>
      <trkpt lat="45.14602" lon="6.3473">
        <ele>2437.1999511719</ele>
        <time>2015-03-23T15:48:43.000Z</time>
      </trkpt>
      <trkpt lat="45.14608" lon="6.3472">
        <ele>2434.8000488281</ele>
        <time>2015-03-23T15:48:44.000Z</time>
      </trkpt>
      <trkpt lat="45.14613" lon="6.34713">
        <ele>2432.3999023438</ele>
        <time>2015-03-23T15:48:45.000Z</time>
      </trkpt>
      <trkpt lat="45.14619" lon="6.34707">
        <ele>2430.3999023438</ele>
        <time>2015-03-23T15:48:46.000Z</time>
      </trkpt>
      <trkpt lat="45.14625" lon="6.347">
        <ele>2429</ele>
        <time>2015-03-23T15:48:47.000Z</time>
      </trkpt>
      <trkpt lat="45.14627" lon="6.34695">
        <ele>2427.6000976562</ele>
        <time>2015-03-23T15:48:48.000Z</time>
      </trkpt>
      <trkpt lat="45.14629" lon="6.34685">
        <ele>2425.8000488281</ele>
        <time>2015-03-23T15:48:49.000Z</time>
      </trkpt>
      <trkpt lat="45.14634" lon="6.34674">
        <ele>2423.6000976562</ele>
        <time>2015-03-23T15:48:50.000Z</time>
      </trkpt>
      <trkpt lat="45.14639" lon="6.34662">
        <ele>2421</ele>
        <time>2015-03-23T15:48:51.000Z</time>
      </trkpt>
      <trkpt lat="45.14645" lon="6.34652">
        <ele>2418.6000976562</ele>
        <time>2015-03-23T15:48:52.000Z</time>
      </trkpt>
      <trkpt lat="45.14654" lon="6.3464">
        <ele>2416.3999023438</ele>
        <time>2015-03-23T15:48:53.000Z</time>
      </trkpt>
      <trkpt lat="45.14661" lon="6.34631">
        <ele>2414.6000976562</ele>
        <time>2015-03-23T15:48:54.000Z</time>
      </trkpt>
      <trkpt lat="45.14671" lon="6.34622">
        <ele>2412.6000976562</ele>
        <time>2015-03-23T15:48:55.000Z</time>
      </trkpt>
      <trkpt lat="45.14681" lon="6.34613">
        <ele>2408.1999511719</ele>
        <time>2015-03-23T15:48:56.000Z</time>
      </trkpt>
      <trkpt lat="45.1469" lon="6.34605">
        <ele>2405.8000488281</ele>
        <time>2015-03-23T15:48:57.000Z</time>
      </trkpt>
      <trkpt lat="45.14698" lon="6.34597">
        <ele>2403.8000488281</ele>
        <time>2015-03-23T15:48:58.000Z</time>
      </trkpt>
      <trkpt lat="45.14705" lon="6.34592">
        <ele>2401.8000488281</ele>
        <time>2015-03-23T15:48:59.000Z</time>
      </trkpt>
      <trkpt lat="45.14712" lon="6.34586">
        <ele>2400.6000976562</ele>
        <time>2015-03-23T15:49:00.000Z</time>
      </trkpt>
      <trkpt lat="45.14727" lon="6.34577">
        <ele>2399.1999511719</ele>
        <time>2015-03-23T15:49:02.000Z</time>
      </trkpt>
      <trkpt lat="45.14739" lon="6.34566">
        <ele>2398</ele>
        <time>2015-03-23T15:49:04.000Z</time>
      </trkpt>
      <trkpt lat="45.14744" lon="6.3456">
        <ele>2397</ele>
        <time>2015-03-23T15:49:05.000Z</time>
      </trkpt>
      <trkpt lat="45.14749" lon="6.34553">
        <ele>2396</ele>
        <time>2015-03-23T15:49:06.000Z</time>
      </trkpt>
      <trkpt lat="45.14757" lon="6.34541">
        <ele>2394.8000488281</ele>
        <time>2015-03-23T15:49:08.000Z</time>
      </trkpt>
      <trkpt lat="45.14763" lon="6.34527">
        <ele>2394.1999511719</ele>
        <time>2015-03-23T15:49:10.000Z</time>
      </trkpt>
      <trkpt lat="45.1477" lon="6.34514">
        <ele>2393.6000976562</ele>
        <time>2015-03-23T15:49:12.000Z</time>
      </trkpt>
      <trkpt lat="45.14778" lon="6.345">
        <ele>2392.3999023438</ele>
        <time>2015-03-23T15:49:15.000Z</time>
      </trkpt>
      <trkpt lat="45.14786" lon="6.3449">
        <ele>2392</ele>
        <time>2015-03-23T15:49:19.000Z</time>
      </trkpt>
      <trkpt lat="45.1479" lon="6.3449">
        <ele>2391.1999511719</ele>
        <time>2015-03-23T15:49:22.000Z</time>
      </trkpt>
      <trkpt lat="45.14792" lon="6.34491">
        <ele>2391.1999511719</ele>
        <time>2015-03-23T15:49:24.000Z</time>
      </trkpt>
      <trkpt lat="45.14794" lon="6.34491">
        <ele>2391</ele>
        <time>2015-03-23T15:49:27.000Z</time>
      </trkpt>
      <trkpt lat="45.14795" lon="6.34481">
        <ele>2391.1999511719</ele>
        <time>2015-03-23T15:49:30.000Z</time>
      </trkpt>
      <trkpt lat="45.14802" lon="6.34463">
        <ele>2390.8000488281</ele>
        <time>2015-03-23T15:49:34.000Z</time>
      </trkpt>
      <trkpt lat="45.1481" lon="6.34459">
        <ele>2390.3999023438</ele>
        <time>2015-03-23T15:49:35.000Z</time>
      </trkpt>
      <trkpt lat="45.14819" lon="6.34454">
        <ele>2389.8000488281</ele>
        <time>2015-03-23T15:49:36.000Z</time>
      </trkpt>
      <trkpt lat="45.14823" lon="6.34451">
        <ele>2389</ele>
        <time>2015-03-23T15:49:37.000Z</time>
      </trkpt>
      <trkpt lat="45.14828" lon="6.34446">
        <ele>2388.1999511719</ele>
        <time>2015-03-23T15:49:38.000Z</time>
      </trkpt>
      <trkpt lat="45.14838" lon="6.34434">
        <ele>2386.3999023438</ele>
        <time>2015-03-23T15:49:40.000Z</time>
      </trkpt>
      <trkpt lat="45.14844" lon="6.34428">
        <ele>2385.6000976562</ele>
        <time>2015-03-23T15:49:41.000Z</time>
      </trkpt>
      <trkpt lat="45.1485" lon="6.34421">
        <ele>2385</ele>
        <time>2015-03-23T15:49:42.000Z</time>
      </trkpt>
      <trkpt lat="45.14856" lon="6.34415">
        <ele>2384.1999511719</ele>
        <time>2015-03-23T15:49:43.000Z</time>
      </trkpt>
      <trkpt lat="45.14861" lon="6.34409">
        <ele>2382.6000976562</ele>
        <time>2015-03-23T15:49:44.000Z</time>
      </trkpt>
      <trkpt lat="45.14867" lon="6.34403">
        <ele>2381.8000488281</ele>
        <time>2015-03-23T15:49:45.000Z</time>
      </trkpt>
      <trkpt lat="45.14872" lon="6.34397">
        <ele>2380.6000976562</ele>
        <time>2015-03-23T15:49:46.000Z</time>
      </trkpt>
      <trkpt lat="45.14876" lon="6.34388">
        <ele>2379.3999023438</ele>
        <time>2015-03-23T15:49:47.000Z</time>
      </trkpt>
      <trkpt lat="45.14883" lon="6.34381">
        <ele>2377.8000488281</ele>
        <time>2015-03-23T15:49:48.000Z</time>
      </trkpt>
      <trkpt lat="45.1489" lon="6.34374">
        <ele>2376.6000976562</ele>
        <time>2015-03-23T15:49:49.000Z</time>
      </trkpt>
      <trkpt lat="45.14897" lon="6.34366">
        <ele>2375.3999023438</ele>
        <time>2015-03-23T15:49:50.000Z</time>
      </trkpt>
      <trkpt lat="45.14905" lon="6.34358">
        <ele>2374.6000976562</ele>
        <time>2015-03-23T15:49:51.000Z</time>
      </trkpt>
      <trkpt lat="45.14913" lon="6.3435">
        <ele>2373.3999023438</ele>
        <time>2015-03-23T15:49:52.000Z</time>
      </trkpt>
      <trkpt lat="45.14921" lon="6.34341">
        <ele>2372</ele>
        <time>2015-03-23T15:49:53.000Z</time>
      </trkpt>
      <trkpt lat="45.1493" lon="6.34332">
        <ele>2370.1999511719</ele>
        <time>2015-03-23T15:49:54.000Z</time>
      </trkpt>
      <trkpt lat="45.1494" lon="6.34327">
        <ele>2368.3999023438</ele>
        <time>2015-03-23T15:49:55.000Z</time>
      </trkpt>
      <trkpt lat="45.14949" lon="6.34322">
        <ele>2366.6000976562</ele>
        <time>2015-03-23T15:49:56.000Z</time>
      </trkpt>
      <trkpt lat="45.14958" lon="6.34318">
        <ele>2365</ele>
        <time>2015-03-23T15:49:57.000Z</time>
      </trkpt>
      <trkpt lat="45.14968" lon="6.34313">
        <ele>2363</ele>
        <time>2015-03-23T15:49:58.000Z</time>
      </trkpt>
      <trkpt lat="45.14977" lon="6.34308">
        <ele>2360.8000488281</ele>
        <time>2015-03-23T15:49:59.000Z</time>
      </trkpt>
      <trkpt lat="45.14985" lon="6.34302">
        <ele>2359</ele>
        <time>2015-03-23T15:50:00.000Z</time>
      </trkpt>
      <trkpt lat="45.14991" lon="6.34295">
        <ele>2357.3999023438</ele>
        <time>2015-03-23T15:50:01.000Z</time>
      </trkpt>
      <trkpt lat="45.14996" lon="6.34287">
        <ele>2356</ele>
        <time>2015-03-23T15:50:02.000Z</time>
      </trkpt>
      <trkpt lat="45.15004" lon="6.34281">
        <ele>2354.8000488281</ele>
        <time>2015-03-23T15:50:03.000Z</time>
      </trkpt>
      <trkpt lat="45.15011" lon="6.34275">
        <ele>2354</ele>
        <time>2015-03-23T15:50:04.000Z</time>
      </trkpt>
      <trkpt lat="45.15018" lon="6.34269">
        <ele>2353.1999511719</ele>
        <time>2015-03-23T15:50:05.000Z</time>
      </trkpt>
      <trkpt lat="45.15024" lon="6.34266">
        <ele>2352.3999023438</ele>
        <time>2015-03-23T15:50:06.000Z</time>
      </trkpt>
      <trkpt lat="45.15029" lon="6.34263">
        <ele>2351.6000976562</ele>
        <time>2015-03-23T15:50:07.000Z</time>
      </trkpt>
      <trkpt lat="45.15033" lon="6.34261">
        <ele>2350.1999511719</ele>
        <time>2015-03-23T15:50:08.000Z</time>
      </trkpt>
      <trkpt lat="45.15043" lon="6.34254">
        <ele>2349.3999023438</ele>
        <time>2015-03-23T15:50:10.000Z</time>
      </trkpt>
      <trkpt lat="45.15054" lon="6.34246">
        <ele>2349</ele>
        <time>2015-03-23T15:50:12.000Z</time>
      </trkpt>
      <trkpt lat="45.15059" lon="6.34241">
        <ele>2348.6000976562</ele>
        <time>2015-03-23T15:50:13.000Z</time>
      </trkpt>
      <trkpt lat="45.15063" lon="6.34236">
        <ele>2348</ele>
        <time>2015-03-23T15:50:14.000Z</time>
      </trkpt>
      <trkpt lat="45.15068" lon="6.34232">
        <ele>2347.1999511719</ele>
        <time>2015-03-23T15:50:15.000Z</time>
      </trkpt>
      <trkpt lat="45.15071" lon="6.34225">
        <ele>2346.3999023438</ele>
        <time>2015-03-23T15:50:16.000Z</time>
      </trkpt>
      <trkpt lat="45.15078" lon="6.34213">
        <ele>2344.6000976562</ele>
        <time>2015-03-23T15:50:18.000Z</time>
      </trkpt>
      <trkpt lat="45.15082" lon="6.34208">
        <ele>2343.6000976562</ele>
        <time>2015-03-23T15:50:19.000Z</time>
      </trkpt>
      <trkpt lat="45.15094" lon="6.34205">
        <ele>2341.8000488281</ele>
        <time>2015-03-23T15:50:21.000Z</time>
      </trkpt>
      <trkpt lat="45.15113" lon="6.34201">
        <ele>2340.1999511719</ele>
        <time>2015-03-23T15:50:23.000Z</time>
      </trkpt>
      <trkpt lat="45.15122" lon="6.34199">
        <ele>2338.8000488281</ele>
        <time>2015-03-23T15:50:24.000Z</time>
      </trkpt>
      <trkpt lat="45.15131" lon="6.34197">
        <ele>2336.8000488281</ele>
        <time>2015-03-23T15:50:25.000Z</time>
      </trkpt>
      <trkpt lat="45.15139" lon="6.34192">
        <ele>2334.6000976562</ele>
        <time>2015-03-23T15:50:26.000Z</time>
      </trkpt>
      <trkpt lat="45.15146" lon="6.3419">
        <ele>2333</ele>
        <time>2015-03-23T15:50:27.000Z</time>
      </trkpt>
      <trkpt lat="45.15157" lon="6.34181">
        <ele>2331.6000976562</ele>
        <time>2015-03-23T15:50:29.000Z</time>
      </trkpt>
      <trkpt lat="45.15163" lon="6.34178">
        <ele>2331.1999511719</ele>
        <time>2015-03-23T15:50:30.000Z</time>
      </trkpt>
      <trkpt lat="45.15169" lon="6.34175">
        <ele>2331</ele>
        <time>2015-03-23T15:50:31.000Z</time>
      </trkpt>
      <trkpt lat="45.15175" lon="6.34174">
        <ele>2330.1999511719</ele>
        <time>2015-03-23T15:50:32.000Z</time>
      </trkpt>
      <trkpt lat="45.15193" lon="6.34172">
        <ele>2328.1999511719</ele>
        <time>2015-03-23T15:50:34.000Z</time>
      </trkpt>
      <trkpt lat="45.15202" lon="6.34171">
        <ele>2326.3999023438</ele>
        <time>2015-03-23T15:50:35.000Z</time>
      </trkpt>
      <trkpt lat="45.15212" lon="6.3417">
        <ele>2324</ele>
        <time>2015-03-23T15:50:36.000Z</time>
      </trkpt>
      <trkpt lat="45.15222" lon="6.34167">
        <ele>2321.8000488281</ele>
        <time>2015-03-23T15:50:37.000Z</time>
      </trkpt>
      <trkpt lat="45.15228" lon="6.34162">
        <ele>2320.3999023438</ele>
        <time>2015-03-23T15:50:38.000Z</time>
      </trkpt>
      <trkpt lat="45.15239" lon="6.34154">
        <ele>2319</ele>
        <time>2015-03-23T15:50:40.000Z</time>
      </trkpt>
      <trkpt lat="45.15249" lon="6.34146">
        <ele>2318.6000976562</ele>
        <time>2015-03-23T15:50:42.000Z</time>
      </trkpt>
      <trkpt lat="45.15259" lon="6.34136">
        <ele>2318.3999023438</ele>
        <time>2015-03-23T15:50:44.000Z</time>
      </trkpt>
      <trkpt lat="45.15268" lon="6.3413">
        <ele>2318</ele>
        <time>2015-03-23T15:50:46.000Z</time>
      </trkpt>
      <trkpt lat="45.15271" lon="6.34127">
        <ele>2317.6000976562</ele>
        <time>2015-03-23T15:50:47.000Z</time>
      </trkpt>
      <trkpt lat="45.15277" lon="6.3412">
        <ele>2316.8000488281</ele>
        <time>2015-03-23T15:50:50.000Z</time>
      </trkpt>
      <trkpt lat="45.15279" lon="6.34118">
        <ele>2316.6000976562</ele>
        <time>2015-03-23T15:50:51.000Z</time>
      </trkpt>
      <trkpt lat="45.15281" lon="6.34116">
        <ele>2316</ele>
        <time>2015-03-23T15:50:56.000Z</time>
      </trkpt>
      <trkpt lat="45.15281" lon="6.34117">
        <ele>2315.8000488281</ele>
        <time>2015-03-23T15:51:03.000Z</time>
      </trkpt>
      <trkpt lat="45.15275" lon="6.34118">
        <ele>2316</ele>
        <time>2015-03-23T15:51:13.000Z</time>
      </trkpt>
      <trkpt lat="45.15273" lon="6.34125">
        <ele>2316</ele>
        <time>2015-03-23T15:51:14.000Z</time>
      </trkpt>
      <trkpt lat="45.15276" lon="6.3412">
        <ele>2315.8000488281</ele>
        <time>2015-03-23T15:51:16.000Z</time>
      </trkpt>
      <trkpt lat="45.1528" lon="6.34114">
        <ele>2315.6000976562</ele>
        <time>2015-03-23T15:51:17.000Z</time>
      </trkpt>
      <trkpt lat="45.15287" lon="6.34109">
        <ele>2315</ele>
        <time>2015-03-23T15:51:18.000Z</time>
      </trkpt>
      <trkpt lat="45.15295" lon="6.34105">
        <ele>2314.1999511719</ele>
        <time>2015-03-23T15:51:19.000Z</time>
      </trkpt>
      <trkpt lat="45.15303" lon="6.34102">
        <ele>2312.1999511719</ele>
        <time>2015-03-23T15:51:20.000Z</time>
      </trkpt>
      <trkpt lat="45.15312" lon="6.341">
        <ele>2311</ele>
        <time>2015-03-23T15:51:21.000Z</time>
      </trkpt>
      <trkpt lat="45.15321" lon="6.34097">
        <ele>2309.6000976562</ele>
        <time>2015-03-23T15:51:22.000Z</time>
      </trkpt>
      <trkpt lat="45.1533" lon="6.34093">
        <ele>2308</ele>
        <time>2015-03-23T15:51:23.000Z</time>
      </trkpt>
      <trkpt lat="45.15338" lon="6.34088">
        <ele>2306.1999511719</ele>
        <time>2015-03-23T15:51:24.000Z</time>
      </trkpt>
      <trkpt lat="45.15347" lon="6.34082">
        <ele>2304.6000976562</ele>
        <time>2015-03-23T15:51:25.000Z</time>
      </trkpt>
      <trkpt lat="45.15356" lon="6.34077">
        <ele>2303.6000976562</ele>
        <time>2015-03-23T15:51:26.000Z</time>
      </trkpt>
      <trkpt lat="45.15364" lon="6.34075">
        <ele>2302.8000488281</ele>
        <time>2015-03-23T15:51:27.000Z</time>
      </trkpt>
      <trkpt lat="45.15371" lon="6.34074">
        <ele>2302.1999511719</ele>
        <time>2015-03-23T15:51:28.000Z</time>
      </trkpt>
      <trkpt lat="45.15382" lon="6.34071">
        <ele>2300.3999023438</ele>
        <time>2015-03-23T15:51:30.000Z</time>
      </trkpt>
      <trkpt lat="45.15388" lon="6.34071">
        <ele>2299.6000976562</ele>
        <time>2015-03-23T15:51:31.000Z</time>
      </trkpt>
      <trkpt lat="45.15394" lon="6.34072">
        <ele>2298.3999023438</ele>
        <time>2015-03-23T15:51:32.000Z</time>
      </trkpt>
      <trkpt lat="45.154" lon="6.34074">
        <ele>2297.1999511719</ele>
        <time>2015-03-23T15:51:33.000Z</time>
      </trkpt>
      <trkpt lat="45.15413" lon="6.34082">
        <ele>2295.6000976562</ele>
        <time>2015-03-23T15:51:35.000Z</time>
      </trkpt>
      <trkpt lat="45.15419" lon="6.34086">
        <ele>2294.1999511719</ele>
        <time>2015-03-23T15:51:36.000Z</time>
      </trkpt>
      <trkpt lat="45.15423" lon="6.34091">
        <ele>2292.3999023438</ele>
        <time>2015-03-23T15:51:37.000Z</time>
      </trkpt>
      <trkpt lat="45.15424" lon="6.34096">
        <ele>2291</ele>
        <time>2015-03-23T15:51:38.000Z</time>
      </trkpt>
      <trkpt lat="45.15424" lon="6.34102">
        <ele>2289.8000488281</ele>
        <time>2015-03-23T15:51:40.000Z</time>
      </trkpt>
      <trkpt lat="45.15423" lon="6.34104">
        <ele>2289.6000976562</ele>
        <time>2015-03-23T15:51:41.000Z</time>
      </trkpt>
      <trkpt lat="45.15422" lon="6.34106">
        <ele>2290</ele>
        <time>2015-03-23T15:51:53.000Z</time>
      </trkpt>
      <trkpt lat="45.15422" lon="6.34106">
        <ele>2290.3999023438</ele>
        <time>2015-03-23T15:52:02.000Z</time>
      </trkpt>
      <trkpt lat="45.15422" lon="6.34106">
        <ele>2290.3999023438</ele>
        <time>2015-03-23T15:52:04.000Z</time>
      </trkpt>
      <trkpt lat="45.15422" lon="6.34106">
        <ele>2289.6000976562</ele>
        <time>2015-03-23T15:52:12.000Z</time>
      </trkpt>
      <trkpt lat="45.15423" lon="6.34112">
        <ele>2289.6000976562</ele>
        <time>2015-03-23T15:52:14.000Z</time>
      </trkpt>
      <trkpt lat="45.15426" lon="6.34117">
        <ele>2289.6000976562</ele>
        <time>2015-03-23T15:52:15.000Z</time>
      </trkpt>
      <trkpt lat="45.15431" lon="6.34123">
        <ele>2289.3999023438</ele>
        <time>2015-03-23T15:52:16.000Z</time>
      </trkpt>
      <trkpt lat="45.15435" lon="6.34129">
        <ele>2288.8000488281</ele>
        <time>2015-03-23T15:52:17.000Z</time>
      </trkpt>
      <trkpt lat="45.1544" lon="6.34135">
        <ele>2287.8000488281</ele>
        <time>2015-03-23T15:52:18.000Z</time>
      </trkpt>
      <trkpt lat="45.15444" lon="6.3414">
        <ele>2286.6000976562</ele>
        <time>2015-03-23T15:52:19.000Z</time>
      </trkpt>
      <trkpt lat="45.15449" lon="6.34141">
        <ele>2285.3999023438</ele>
        <time>2015-03-23T15:52:20.000Z</time>
      </trkpt>
      <trkpt lat="45.15453" lon="6.34139">
        <ele>2284.1999511719</ele>
        <time>2015-03-23T15:52:21.000Z</time>
      </trkpt>
      <trkpt lat="45.15457" lon="6.34131">
        <ele>2283</ele>
        <time>2015-03-23T15:52:22.000Z</time>
      </trkpt>
      <trkpt lat="45.1546" lon="6.34123">
        <ele>2281.6000976562</ele>
        <time>2015-03-23T15:52:23.000Z</time>
      </trkpt>
      <trkpt lat="45.15465" lon="6.34114">
        <ele>2280.3999023438</ele>
        <time>2015-03-23T15:52:24.000Z</time>
      </trkpt>
      <trkpt lat="45.15469" lon="6.34107">
        <ele>2279</ele>
        <time>2015-03-23T15:52:25.000Z</time>
      </trkpt>
      <trkpt lat="45.15475" lon="6.34099">
        <ele>2277.6000976562</ele>
        <time>2015-03-23T15:52:26.000Z</time>
      </trkpt>
      <trkpt lat="45.15478" lon="6.34088">
        <ele>2276.1999511719</ele>
        <time>2015-03-23T15:52:27.000Z</time>
      </trkpt>
      <trkpt lat="45.15483" lon="6.34077">
        <ele>2274.8000488281</ele>
        <time>2015-03-23T15:52:28.000Z</time>
      </trkpt>
      <trkpt lat="45.15488" lon="6.3407">
        <ele>2273.3999023438</ele>
        <time>2015-03-23T15:52:29.000Z</time>
      </trkpt>
      <trkpt lat="45.1549" lon="6.34065">
        <ele>2271.6000976562</ele>
        <time>2015-03-23T15:52:30.000Z</time>
      </trkpt>
      <trkpt lat="45.1549" lon="6.34064">
        <ele>2269.6000976562</ele>
        <time>2015-03-23T15:52:31.000Z</time>
      </trkpt>
      <trkpt lat="45.15488" lon="6.34064">
        <ele>2266.3999023438</ele>
        <time>2015-03-23T15:52:32.000Z</time>
      </trkpt>
      <trkpt lat="45.15488" lon="6.34056">
        <ele>2265.1999511719</ele>
        <time>2015-03-23T15:52:34.000Z</time>
      </trkpt>
      <trkpt lat="45.15488" lon="6.34053">
        <ele>2264.8000488281</ele>
        <time>2015-03-23T15:52:35.000Z</time>
      </trkpt>
      <trkpt lat="45.15494" lon="6.34046">
        <ele>2264.1999511719</ele>
        <time>2015-03-23T15:52:37.000Z</time>
      </trkpt>
      <trkpt lat="45.155" lon="6.34042">
        <ele>2263.3999023438</ele>
        <time>2015-03-23T15:52:38.000Z</time>
      </trkpt>
      <trkpt lat="45.15505" lon="6.34038">
        <ele>2262.6000976562</ele>
        <time>2015-03-23T15:52:39.000Z</time>
      </trkpt>
      <trkpt lat="45.15511" lon="6.34035">
        <ele>2261.8000488281</ele>
        <time>2015-03-23T15:52:40.000Z</time>
      </trkpt>
      <trkpt lat="45.15517" lon="6.34034">
        <ele>2261.1999511719</ele>
        <time>2015-03-23T15:52:41.000Z</time>
      </trkpt>
      <trkpt lat="45.15523" lon="6.34031">
        <ele>2260.6000976562</ele>
        <time>2015-03-23T15:52:42.000Z</time>
      </trkpt>
      <trkpt lat="45.15529" lon="6.34027">
        <ele>2260</ele>
        <time>2015-03-23T15:52:43.000Z</time>
      </trkpt>
      <trkpt lat="45.15539" lon="6.34022">
        <ele>2258.1999511719</ele>
        <time>2015-03-23T15:52:45.000Z</time>
      </trkpt>
      <trkpt lat="45.15542" lon="6.34019">
        <ele>2257</ele>
        <time>2015-03-23T15:52:46.000Z</time>
      </trkpt>
      <trkpt lat="45.15546" lon="6.34014">
        <ele>2256</ele>
        <time>2015-03-23T15:52:47.000Z</time>
      </trkpt>
      <trkpt lat="45.15548" lon="6.3401">
        <ele>2254.8000488281</ele>
        <time>2015-03-23T15:52:48.000Z</time>
      </trkpt>
      <trkpt lat="45.15548" lon="6.34003">
        <ele>2253.8000488281</ele>
        <time>2015-03-23T15:52:49.000Z</time>
      </trkpt>
      <trkpt lat="45.15548" lon="6.33995">
        <ele>2252.3999023438</ele>
        <time>2015-03-23T15:52:50.000Z</time>
      </trkpt>
      <trkpt lat="45.1555" lon="6.33988">
        <ele>2251</ele>
        <time>2015-03-23T15:52:51.000Z</time>
      </trkpt>
      <trkpt lat="45.15553" lon="6.33979">
        <ele>2250</ele>
        <time>2015-03-23T15:52:52.000Z</time>
      </trkpt>
      <trkpt lat="45.15556" lon="6.33972">
        <ele>2248.6000976562</ele>
        <time>2015-03-23T15:52:53.000Z</time>
      </trkpt>
      <trkpt lat="45.1556" lon="6.33962">
        <ele>2247.1999511719</ele>
        <time>2015-03-23T15:52:54.000Z</time>
      </trkpt>
      <trkpt lat="45.15563" lon="6.33952">
        <ele>2245.8000488281</ele>
        <time>2015-03-23T15:52:55.000Z</time>
      </trkpt>
      <trkpt lat="45.15566" lon="6.33941">
        <ele>2243.1999511719</ele>
        <time>2015-03-23T15:52:56.000Z</time>
      </trkpt>
      <trkpt lat="45.15571" lon="6.3393">
        <ele>2241.3999023438</ele>
        <time>2015-03-23T15:52:57.000Z</time>
      </trkpt>
      <trkpt lat="45.15574" lon="6.33919">
        <ele>2240</ele>
        <time>2015-03-23T15:52:58.000Z</time>
      </trkpt>
      <trkpt lat="45.15577" lon="6.33908">
        <ele>2238.6000976562</ele>
        <time>2015-03-23T15:52:59.000Z</time>
      </trkpt>
      <trkpt lat="45.15579" lon="6.339">
        <ele>2237.1999511719</ele>
        <time>2015-03-23T15:53:00.000Z</time>
      </trkpt>
      <trkpt lat="45.15582" lon="6.33893">
        <ele>2236</ele>
        <time>2015-03-23T15:53:01.000Z</time>
      </trkpt>
      <trkpt lat="45.15585" lon="6.33887">
        <ele>2234.8000488281</ele>
        <time>2015-03-23T15:53:02.000Z</time>
      </trkpt>
      <trkpt lat="45.15588" lon="6.33882">
        <ele>2233.6000976562</ele>
        <time>2015-03-23T15:53:03.000Z</time>
      </trkpt>
      <trkpt lat="45.15593" lon="6.33878">
        <ele>2232.1999511719</ele>
        <time>2015-03-23T15:53:04.000Z</time>
      </trkpt>
      <trkpt lat="45.15602" lon="6.33872">
        <ele>2230.3999023438</ele>
        <time>2015-03-23T15:53:06.000Z</time>
      </trkpt>
      <trkpt lat="45.15607" lon="6.3387">
        <ele>2229.3999023438</ele>
        <time>2015-03-23T15:53:07.000Z</time>
      </trkpt>
      <trkpt lat="45.15613" lon="6.33869">
        <ele>2228.1999511719</ele>
        <time>2015-03-23T15:53:08.000Z</time>
      </trkpt>
      <trkpt lat="45.1562" lon="6.33868">
        <ele>2227</ele>
        <time>2015-03-23T15:53:09.000Z</time>
      </trkpt>
      <trkpt lat="45.15627" lon="6.33865">
        <ele>2226</ele>
        <time>2015-03-23T15:53:10.000Z</time>
      </trkpt>
      <trkpt lat="45.15634" lon="6.33862">
        <ele>2225</ele>
        <time>2015-03-23T15:53:11.000Z</time>
      </trkpt>
      <trkpt lat="45.15642" lon="6.33857">
        <ele>2223.6000976562</ele>
        <time>2015-03-23T15:53:12.000Z</time>
      </trkpt>
      <trkpt lat="45.1565" lon="6.33852">
        <ele>2222</ele>
        <time>2015-03-23T15:53:13.000Z</time>
      </trkpt>
      <trkpt lat="45.15658" lon="6.33849">
        <ele>2220.3999023438</ele>
        <time>2015-03-23T15:53:14.000Z</time>
      </trkpt>
      <trkpt lat="45.15666" lon="6.33847">
        <ele>2218.3999023438</ele>
        <time>2015-03-23T15:53:15.000Z</time>
      </trkpt>
      <trkpt lat="45.15673" lon="6.33844">
        <ele>2216.6000976562</ele>
        <time>2015-03-23T15:53:16.000Z</time>
      </trkpt>
      <trkpt lat="45.15679" lon="6.33837">
        <ele>2214.8000488281</ele>
        <time>2015-03-23T15:53:17.000Z</time>
      </trkpt>
      <trkpt lat="45.15684" lon="6.33831">
        <ele>2213.3999023438</ele>
        <time>2015-03-23T15:53:18.000Z</time>
      </trkpt>
      <trkpt lat="45.15689" lon="6.33829">
        <ele>2212</ele>
        <time>2015-03-23T15:53:19.000Z</time>
      </trkpt>
      <trkpt lat="45.15692" lon="6.33826">
        <ele>2209</ele>
        <time>2015-03-23T15:53:20.000Z</time>
      </trkpt>
      <trkpt lat="45.15696" lon="6.33821">
        <ele>2207.8000488281</ele>
        <time>2015-03-23T15:53:21.000Z</time>
      </trkpt>
      <trkpt lat="45.15702" lon="6.33807">
        <ele>2206</ele>
        <time>2015-03-23T15:53:23.000Z</time>
      </trkpt>
      <trkpt lat="45.15705" lon="6.33802">
        <ele>2205</ele>
        <time>2015-03-23T15:53:24.000Z</time>
      </trkpt>
      <trkpt lat="45.15707" lon="6.33799">
        <ele>2203.6000976562</ele>
        <time>2015-03-23T15:53:25.000Z</time>
      </trkpt>
      <trkpt lat="45.15708" lon="6.33799">
        <ele>2202.3999023438</ele>
        <time>2015-03-23T15:53:26.000Z</time>
      </trkpt>
      <trkpt lat="45.15709" lon="6.33799">
        <ele>2201.6000976562</ele>
        <time>2015-03-23T15:53:27.000Z</time>
      </trkpt>
      <trkpt lat="45.15711" lon="6.33802">
        <ele>2201.1999511719</ele>
        <time>2015-03-23T15:53:28.000Z</time>
      </trkpt>
      <trkpt lat="45.15716" lon="6.33808">
        <ele>2200.6000976562</ele>
        <time>2015-03-23T15:53:30.000Z</time>
      </trkpt>
      <trkpt lat="45.15726" lon="6.33807">
        <ele>2199.6000976562</ele>
        <time>2015-03-23T15:53:32.000Z</time>
      </trkpt>
      <trkpt lat="45.15737" lon="6.338">
        <ele>2198.6000976562</ele>
        <time>2015-03-23T15:53:34.000Z</time>
      </trkpt>
      <trkpt lat="45.15746" lon="6.33792">
        <ele>2196.3999023438</ele>
        <time>2015-03-23T15:53:36.000Z</time>
      </trkpt>
      <trkpt lat="45.1575" lon="6.33786">
        <ele>2195.3999023438</ele>
        <time>2015-03-23T15:53:37.000Z</time>
      </trkpt>
      <trkpt lat="45.1576" lon="6.33775">
        <ele>2194.1999511719</ele>
        <time>2015-03-23T15:53:39.000Z</time>
      </trkpt>
      <trkpt lat="45.15764" lon="6.33768">
        <ele>2193.6000976562</ele>
        <time>2015-03-23T15:53:40.000Z</time>
      </trkpt>
      <trkpt lat="45.15769" lon="6.33761">
        <ele>2192.8000488281</ele>
        <time>2015-03-23T15:53:41.000Z</time>
      </trkpt>
      <trkpt lat="45.15775" lon="6.33748">
        <ele>2191</ele>
        <time>2015-03-23T15:53:43.000Z</time>
      </trkpt>
      <trkpt lat="45.15778" lon="6.33742">
        <ele>2189.1999511719</ele>
        <time>2015-03-23T15:53:44.000Z</time>
      </trkpt>
      <trkpt lat="45.1578" lon="6.33738">
        <ele>2188.1999511719</ele>
        <time>2015-03-23T15:53:45.000Z</time>
      </trkpt>
      <trkpt lat="45.15782" lon="6.33737">
        <ele>2187.3999023438</ele>
        <time>2015-03-23T15:53:46.000Z</time>
      </trkpt>
      <trkpt lat="45.15782" lon="6.33735">
        <ele>2185.3999023438</ele>
        <time>2015-03-23T15:53:48.000Z</time>
      </trkpt>
      <trkpt lat="45.1578" lon="6.33731">
        <ele>2184.3999023438</ele>
        <time>2015-03-23T15:53:49.000Z</time>
      </trkpt>
      <trkpt lat="45.15781" lon="6.33729">
        <ele>2183.6000976562</ele>
        <time>2015-03-23T15:53:50.000Z</time>
      </trkpt>
      <trkpt lat="45.15781" lon="6.33726">
        <ele>2182.8000488281</ele>
        <time>2015-03-23T15:53:51.000Z</time>
      </trkpt>
      <trkpt lat="45.15782" lon="6.33721">
        <ele>2182</ele>
        <time>2015-03-23T15:53:52.000Z</time>
      </trkpt>
      <trkpt lat="45.15786" lon="6.33709">
        <ele>2180.3999023438</ele>
        <time>2015-03-23T15:53:54.000Z</time>
      </trkpt>
      <trkpt lat="45.1579" lon="6.33704">
        <ele>2178.3999023438</ele>
        <time>2015-03-23T15:53:56.000Z</time>
      </trkpt>
      <trkpt lat="45.1579" lon="6.33703">
        <ele>2176.8000488281</ele>
        <time>2015-03-23T15:53:57.000Z</time>
      </trkpt>
      <trkpt lat="45.1579" lon="6.33703">
        <ele>2175.3999023438</ele>
        <time>2015-03-23T15:53:58.000Z</time>
      </trkpt>
      <trkpt lat="45.15789" lon="6.33704">
        <ele>2174</ele>
        <time>2015-03-23T15:53:59.000Z</time>
      </trkpt>
      <trkpt lat="45.15786" lon="6.33708">
        <ele>2173</ele>
        <time>2015-03-23T15:54:01.000Z</time>
      </trkpt>
      <trkpt lat="45.15784" lon="6.33709">
        <ele>2172.6000976562</ele>
        <time>2015-03-23T15:54:02.000Z</time>
      </trkpt>
      <trkpt lat="45.15783" lon="6.33703">
        <ele>2172.3999023438</ele>
        <time>2015-03-23T15:54:04.000Z</time>
      </trkpt>
      <trkpt lat="45.15785" lon="6.33699">
        <ele>2172.3999023438</ele>
        <time>2015-03-23T15:54:05.000Z</time>
      </trkpt>
      <trkpt lat="45.15784" lon="6.33693">
        <ele>2171.6000976562</ele>
        <time>2015-03-23T15:54:07.000Z</time>
      </trkpt>
      <trkpt lat="45.15783" lon="6.33689">
        <ele>2170</ele>
        <time>2015-03-23T15:54:08.000Z</time>
      </trkpt>
      <trkpt lat="45.15782" lon="6.33678">
        <ele>2168</ele>
        <time>2015-03-23T15:54:10.000Z</time>
      </trkpt>
      <trkpt lat="45.15784" lon="6.33665">
        <ele>2166.1999511719</ele>
        <time>2015-03-23T15:54:12.000Z</time>
      </trkpt>
      <trkpt lat="45.15786" lon="6.33661">
        <ele>2165.3999023438</ele>
        <time>2015-03-23T15:54:13.000Z</time>
      </trkpt>
      <trkpt lat="45.15787" lon="6.33658">
        <ele>2164.3999023438</ele>
        <time>2015-03-23T15:54:14.000Z</time>
      </trkpt>
      <trkpt lat="45.15787" lon="6.33655">
        <ele>2163.1999511719</ele>
        <time>2015-03-23T15:54:15.000Z</time>
      </trkpt>
      <trkpt lat="45.15788" lon="6.33654">
        <ele>2162</ele>
        <time>2015-03-23T15:54:16.000Z</time>
      </trkpt>
      <trkpt lat="45.15788" lon="6.33653">
        <ele>2161.1999511719</ele>
        <time>2015-03-23T15:54:17.000Z</time>
      </trkpt>
      <trkpt lat="45.15787" lon="6.33653">
        <ele>2160.8000488281</ele>
        <time>2015-03-23T15:54:18.000Z</time>
      </trkpt>
      <trkpt lat="45.15784" lon="6.33662">
        <ele>2160</ele>
        <time>2015-03-23T15:54:23.000Z</time>
      </trkpt>
      <trkpt lat="45.15783" lon="6.3367">
        <ele>2160.1999511719</ele>
        <time>2015-03-23T15:54:34.000Z</time>
      </trkpt>
      <trkpt lat="45.15782" lon="6.33672">
        <ele>2160.3999023438</ele>
        <time>2015-03-23T15:54:39.000Z</time>
      </trkpt>
      <trkpt lat="45.15783" lon="6.33672">
        <ele>2160</ele>
        <time>2015-03-23T15:54:44.000Z</time>
      </trkpt>
      <trkpt lat="45.15783" lon="6.33672">
        <ele>2159.8000488281</ele>
        <time>2015-03-23T15:54:45.000Z</time>
      </trkpt>
      <trkpt lat="45.15785" lon="6.33671">
        <ele>2159</ele>
        <time>2015-03-23T15:54:49.000Z</time>
      </trkpt>
      <trkpt lat="45.15785" lon="6.33672">
        <ele>2159</ele>
        <time>2015-03-23T15:54:50.000Z</time>
      </trkpt>
      <trkpt lat="45.15786" lon="6.33672">
        <ele>2158.6000976562</ele>
        <time>2015-03-23T15:54:54.000Z</time>
      </trkpt>
      <trkpt lat="45.15787" lon="6.33669">
        <ele>2158.3999023438</ele>
        <time>2015-03-23T15:54:55.000Z</time>
      </trkpt>
      <trkpt lat="45.1579" lon="6.33657">
        <ele>2157.6000976562</ele>
        <time>2015-03-23T15:54:57.000Z</time>
      </trkpt>
      <trkpt lat="45.15794" lon="6.33641">
        <ele>2156.3999023438</ele>
        <time>2015-03-23T15:55:00.000Z</time>
      </trkpt>
      <trkpt lat="45.158" lon="6.33618">
        <ele>2155.1999511719</ele>
        <time>2015-03-23T15:55:04.000Z</time>
      </trkpt>
      <trkpt lat="45.15804" lon="6.33603">
        <ele>2154.6000976562</ele>
        <time>2015-03-23T15:55:06.000Z</time>
      </trkpt>
      <trkpt lat="45.15807" lon="6.33592">
        <ele>2153.8000488281</ele>
        <time>2015-03-23T15:55:08.000Z</time>
      </trkpt>
      <trkpt lat="45.1581" lon="6.33584">
        <ele>2153</ele>
        <time>2015-03-23T15:55:10.000Z</time>
      </trkpt>
      <trkpt lat="45.15812" lon="6.33579">
        <ele>2152.6000976562</ele>
        <time>2015-03-23T15:55:11.000Z</time>
      </trkpt>
      <trkpt lat="45.15817" lon="6.33565">
        <ele>2151.6000976562</ele>
        <time>2015-03-23T15:55:15.000Z</time>
      </trkpt>
      <trkpt lat="45.15819" lon="6.33561">
        <ele>2151.1999511719</ele>
        <time>2015-03-23T15:55:17.000Z</time>
      </trkpt>
      <trkpt lat="45.15824" lon="6.33555">
        <ele>2150.6000976562</ele>
        <time>2015-03-23T15:55:23.000Z</time>
      </trkpt>
      <trkpt lat="45.15825" lon="6.33555">
        <ele>2150.6000976562</ele>
        <time>2015-03-23T15:55:24.000Z</time>
      </trkpt>
      <trkpt lat="45.15833" lon="6.33557">
        <ele>2150.6000976562</ele>
        <time>2015-03-23T15:55:28.000Z</time>
      </trkpt>
      <trkpt lat="45.15835" lon="6.33557">
        <ele>2150.6000976562</ele>
        <time>2015-03-23T15:55:29.000Z</time>
      </trkpt>
      <trkpt lat="45.15838" lon="6.33557">
        <ele>2150.6000976562</ele>
        <time>2015-03-23T15:55:30.000Z</time>
      </trkpt>
      <trkpt lat="45.15842" lon="6.33556">
        <ele>2150.3999023438</ele>
        <time>2015-03-23T15:55:31.000Z</time>
      </trkpt>
      <trkpt lat="45.15847" lon="6.33553">
        <ele>2150</ele>
        <time>2015-03-23T15:55:32.000Z</time>
      </trkpt>
      <trkpt lat="45.15857" lon="6.33548">
        <ele>2149.1999511719</ele>
        <time>2015-03-23T15:55:34.000Z</time>
      </trkpt>
      <trkpt lat="45.15872" lon="6.3354">
        <ele>2148</ele>
        <time>2015-03-23T15:55:37.000Z</time>
      </trkpt>
      <trkpt lat="45.15881" lon="6.33536">
        <ele>2147.3999023438</ele>
        <time>2015-03-23T15:55:39.000Z</time>
      </trkpt>
      <trkpt lat="45.15893" lon="6.33532">
        <ele>2146.3999023438</ele>
        <time>2015-03-23T15:55:41.000Z</time>
      </trkpt>
      <trkpt lat="45.15901" lon="6.33531">
        <ele>2146</ele>
        <time>2015-03-23T15:55:42.000Z</time>
      </trkpt>
      <trkpt lat="45.15909" lon="6.33531">
        <ele>2145.6000976562</ele>
        <time>2015-03-23T15:55:43.000Z</time>
      </trkpt>
      <trkpt lat="45.15917" lon="6.33529">
        <ele>2145</ele>
        <time>2015-03-23T15:55:44.000Z</time>
      </trkpt>
      <trkpt lat="45.15933" lon="6.33526">
        <ele>2143.8000488281</ele>
        <time>2015-03-23T15:55:46.000Z</time>
      </trkpt>
      <trkpt lat="45.15948" lon="6.33519">
        <ele>2142</ele>
        <time>2015-03-23T15:55:48.000Z</time>
      </trkpt>
      <trkpt lat="45.15954" lon="6.33514">
        <ele>2141</ele>
        <time>2015-03-23T15:55:49.000Z</time>
      </trkpt>
      <trkpt lat="45.15961" lon="6.33508">
        <ele>2139.8000488281</ele>
        <time>2015-03-23T15:55:50.000Z</time>
      </trkpt>
      <trkpt lat="45.15967" lon="6.33502">
        <ele>2138.8000488281</ele>
        <time>2015-03-23T15:55:51.000Z</time>
      </trkpt>
      <trkpt lat="45.15973" lon="6.33499">
        <ele>2137.8000488281</ele>
        <time>2015-03-23T15:55:52.000Z</time>
      </trkpt>
      <trkpt lat="45.15978" lon="6.33497">
        <ele>2137.1999511719</ele>
        <time>2015-03-23T15:55:53.000Z</time>
      </trkpt>
      <trkpt lat="45.15985" lon="6.33496">
        <ele>2136</ele>
        <time>2015-03-23T15:55:55.000Z</time>
      </trkpt>
      <trkpt lat="45.1599" lon="6.33497">
        <ele>2135.1999511719</ele>
        <time>2015-03-23T15:55:57.000Z</time>
      </trkpt>
      <trkpt lat="45.15993" lon="6.33497">
        <ele>2134.8000488281</ele>
        <time>2015-03-23T15:55:58.000Z</time>
      </trkpt>
      <trkpt lat="45.16" lon="6.33503">
        <ele>2134.6000976562</ele>
        <time>2015-03-23T15:56:03.000Z</time>
      </trkpt>
      <trkpt lat="45.16011" lon="6.33519">
        <ele>2135</ele>
        <time>2015-03-23T15:56:10.000Z</time>
      </trkpt>
      <trkpt lat="45.16022" lon="6.33534">
        <ele>2134.8000488281</ele>
        <time>2015-03-23T15:56:13.000Z</time>
      </trkpt>
      <trkpt lat="45.16026" lon="6.33536">
        <ele>2134.6000976562</ele>
        <time>2015-03-23T15:56:14.000Z</time>
      </trkpt>
      <trkpt lat="45.16032" lon="6.33534">
        <ele>2134.1999511719</ele>
        <time>2015-03-23T15:56:16.000Z</time>
      </trkpt>
      <trkpt lat="45.16034" lon="6.33532">
        <ele>2133.8000488281</ele>
        <time>2015-03-23T15:56:17.000Z</time>
      </trkpt>
      <trkpt lat="45.1604" lon="6.33528">
        <ele>2132.6000976562</ele>
        <time>2015-03-23T15:56:20.000Z</time>
      </trkpt>
      <trkpt lat="45.1604" lon="6.33528">
        <ele>2132.3999023438</ele>
        <time>2015-03-23T15:56:21.000Z</time>
      </trkpt>
      <trkpt lat="45.16043" lon="6.33523">
        <ele>2134</ele>
        <time>2015-03-23T15:56:26.000Z</time>
      </trkpt>
      <trkpt lat="45.16043" lon="6.33522">
        <ele>2134</ele>
        <time>2015-03-23T15:56:27.000Z</time>
      </trkpt>
      <trkpt lat="45.16045" lon="6.33523">
        <ele>2135</ele>
        <time>2015-03-23T15:56:34.000Z</time>
      </trkpt>
      <trkpt lat="45.16049" lon="6.33526">
        <ele>2135.6000976562</ele>
        <time>2015-03-23T15:56:40.000Z</time>
      </trkpt>
      <trkpt lat="45.1605" lon="6.33528">
        <ele>2136</ele>
        <time>2015-03-23T15:56:41.000Z</time>
      </trkpt>
      <trkpt lat="45.16053" lon="6.33531">
        <ele>2136</ele>
        <time>2015-03-23T15:56:44.000Z</time>
      </trkpt>
      <trkpt lat="45.16052" lon="6.33594">
        <ele>2136</ele>
        <time>2015-03-23T15:56:49.000Z</time>
      </trkpt>
      <trkpt lat="45.16032" lon="6.33662">
        <ele>2135.8000488281</ele>
        <time>2015-03-23T15:56:58.000Z</time>
      </trkpt>
      <trkpt lat="45.16037" lon="6.33687">
        <ele>2135</ele>
        <time>2015-03-23T15:57:03.000Z</time>
      </trkpt>
      <trkpt lat="45.1604" lon="6.33693">
        <ele>2134.8000488281</ele>
        <time>2015-03-23T15:57:04.000Z</time>
      </trkpt>
      <trkpt lat="45.16052" lon="6.33728">
        <ele>2133.6000976562</ele>
        <time>2015-03-23T15:57:08.000Z</time>
      </trkpt>
      <trkpt lat="45.16055" lon="6.33736">
        <ele>2133.1999511719</ele>
        <time>2015-03-23T15:57:09.000Z</time>
      </trkpt>
      <trkpt lat="45.16065" lon="6.33756">
        <ele>2132.1999511719</ele>
        <time>2015-03-23T15:57:12.000Z</time>
      </trkpt>
      <trkpt lat="45.16074" lon="6.33768">
        <ele>2131</ele>
        <time>2015-03-23T15:57:14.000Z</time>
      </trkpt>
      <trkpt lat="45.16078" lon="6.33775">
        <ele>2130.6000976562</ele>
        <time>2015-03-23T15:57:15.000Z</time>
      </trkpt>
      <trkpt lat="45.16082" lon="6.33781">
        <ele>2130</ele>
        <time>2015-03-23T15:57:16.000Z</time>
      </trkpt>
      <trkpt lat="45.16092" lon="6.33792">
        <ele>2129</ele>
        <time>2015-03-23T15:57:18.000Z</time>
      </trkpt>
      <trkpt lat="45.16103" lon="6.33803">
        <ele>2127.1999511719</ele>
        <time>2015-03-23T15:57:20.000Z</time>
      </trkpt>
      <trkpt lat="45.16108" lon="6.33811">
        <ele>2126.6000976562</ele>
        <time>2015-03-23T15:57:21.000Z</time>
      </trkpt>
      <trkpt lat="45.16113" lon="6.33818">
        <ele>2126</ele>
        <time>2015-03-23T15:57:22.000Z</time>
      </trkpt>
      <trkpt lat="45.16124" lon="6.33832">
        <ele>2124.8000488281</ele>
        <time>2015-03-23T15:57:24.000Z</time>
      </trkpt>
      <trkpt lat="45.16136" lon="6.33842">
        <ele>2122.8000488281</ele>
        <time>2015-03-23T15:57:26.000Z</time>
      </trkpt>
      <trkpt lat="45.16142" lon="6.33846">
        <ele>2122</ele>
        <time>2015-03-23T15:57:27.000Z</time>
      </trkpt>
      <trkpt lat="45.16148" lon="6.33848">
        <ele>2121.1999511719</ele>
        <time>2015-03-23T15:57:28.000Z</time>
      </trkpt>
      <trkpt lat="45.16156" lon="6.33844">
        <ele>2119.6000976562</ele>
        <time>2015-03-23T15:57:30.000Z</time>
      </trkpt>
      <trkpt lat="45.16161" lon="6.33841">
        <ele>2117.8000488281</ele>
        <time>2015-03-23T15:57:32.000Z</time>
      </trkpt>
      <trkpt lat="45.16166" lon="6.33837">
        <ele>2116.8000488281</ele>
        <time>2015-03-23T15:57:36.000Z</time>
      </trkpt>
      <trkpt lat="45.16166" lon="6.33837">
        <ele>2116.8000488281</ele>
        <time>2015-03-23T15:57:37.000Z</time>
      </trkpt>
      <trkpt lat="45.16163" lon="6.33834">
        <ele>2116.8000488281</ele>
        <time>2015-03-23T15:57:41.000Z</time>
      </trkpt>
      <trkpt lat="45.16162" lon="6.33834">
        <ele>2116.1999511719</ele>
        <time>2015-03-23T15:57:49.000Z</time>
      </trkpt>
      <trkpt lat="45.16161" lon="6.33836">
        <ele>2116.1999511719</ele>
        <time>2015-03-23T15:57:52.000Z</time>
      </trkpt>
      <trkpt lat="45.16162" lon="6.33843">
        <ele>2116.1999511719</ele>
        <time>2015-03-23T15:57:54.000Z</time>
      </trkpt>
      <trkpt lat="45.16155" lon="6.33848">
        <ele>2115.8000488281</ele>
        <time>2015-03-23T15:57:56.000Z</time>
      </trkpt>
      <trkpt lat="45.16153" lon="6.33855">
        <ele>2114.1999511719</ele>
        <time>2015-03-23T15:57:58.000Z</time>
      </trkpt>
      <trkpt lat="45.16157" lon="6.3385">
        <ele>2113.3999023438</ele>
        <time>2015-03-23T15:58:00.000Z</time>
      </trkpt>
      <trkpt lat="45.1616" lon="6.33849">
        <ele>2113</ele>
        <time>2015-03-23T15:58:01.000Z</time>
      </trkpt>
      <trkpt lat="45.16163" lon="6.33851">
        <ele>2111.3999023438</ele>
        <time>2015-03-23T15:58:03.000Z</time>
      </trkpt>
      <trkpt lat="45.16166" lon="6.33852">
        <ele>2110</ele>
        <time>2015-03-23T15:58:04.000Z</time>
      </trkpt>
      <trkpt lat="45.16169" lon="6.3385">
        <ele>2108.1999511719</ele>
        <time>2015-03-23T15:58:05.000Z</time>
      </trkpt>
      <trkpt lat="45.16172" lon="6.33849">
        <ele>2107</ele>
        <time>2015-03-23T15:58:06.000Z</time>
      </trkpt>
      <trkpt lat="45.16176" lon="6.33846">
        <ele>2104</ele>
        <time>2015-03-23T15:58:08.000Z</time>
      </trkpt>
      <trkpt lat="45.16178" lon="6.33846">
        <ele>2102.1999511719</ele>
        <time>2015-03-23T15:58:09.000Z</time>
      </trkpt>
      <trkpt lat="45.16179" lon="6.33844">
        <ele>2100.8000488281</ele>
        <time>2015-03-23T15:58:10.000Z</time>
      </trkpt>
      <trkpt lat="45.16181" lon="6.33843">
        <ele>2099.3999023438</ele>
        <time>2015-03-23T15:58:11.000Z</time>
      </trkpt>
      <trkpt lat="45.16181" lon="6.33843">
        <ele>2098.1999511719</ele>
        <time>2015-03-23T15:58:12.000Z</time>
      </trkpt>
      <trkpt lat="45.16182" lon="6.33843">
        <ele>2097</ele>
        <time>2015-03-23T15:58:13.000Z</time>
      </trkpt>
      <trkpt lat="45.1618" lon="6.33846">
        <ele>2095.3999023438</ele>
        <time>2015-03-23T15:58:15.000Z</time>
      </trkpt>
      <trkpt lat="45.16179" lon="6.33849">
        <ele>2095</ele>
        <time>2015-03-23T15:58:16.000Z</time>
      </trkpt>
      <trkpt lat="45.16178" lon="6.33854">
        <ele>2094.3999023438</ele>
        <time>2015-03-23T15:58:18.000Z</time>
      </trkpt>
      <trkpt lat="45.16176" lon="6.33867">
        <ele>2093.8000488281</ele>
        <time>2015-03-23T15:58:21.000Z</time>
      </trkpt>
      <trkpt lat="45.16175" lon="6.33878">
        <ele>2093.1999511719</ele>
        <time>2015-03-23T15:58:23.000Z</time>
      </trkpt>
      <trkpt lat="45.16178" lon="6.33897">
        <ele>2092.3999023438</ele>
        <time>2015-03-23T15:58:27.000Z</time>
      </trkpt>
      <trkpt lat="45.16179" lon="6.33898">
        <ele>2092.1999511719</ele>
        <time>2015-03-23T15:58:28.000Z</time>
      </trkpt>
      <trkpt lat="45.16181" lon="6.33898">
        <ele>2092.1999511719</ele>
        <time>2015-03-23T15:58:29.000Z</time>
      </trkpt>
      <trkpt lat="45.16184" lon="6.33896">
        <ele>2092</ele>
        <time>2015-03-23T15:58:30.000Z</time>
      </trkpt>
      <trkpt lat="45.1619" lon="6.33881">
        <ele>2090.8000488281</ele>
        <time>2015-03-23T15:58:32.000Z</time>
      </trkpt>
      <trkpt lat="45.16193" lon="6.33875">
        <ele>2090.3999023438</ele>
        <time>2015-03-23T15:58:33.000Z</time>
      </trkpt>
      <trkpt lat="45.16196" lon="6.33867">
        <ele>2089.8000488281</ele>
        <time>2015-03-23T15:58:34.000Z</time>
      </trkpt>
      <trkpt lat="45.162" lon="6.33858">
        <ele>2089</ele>
        <time>2015-03-23T15:58:35.000Z</time>
      </trkpt>
      <trkpt lat="45.16204" lon="6.33848">
        <ele>2088</ele>
        <time>2015-03-23T15:58:36.000Z</time>
      </trkpt>
      <trkpt lat="45.16208" lon="6.33838">
        <ele>2086.8000488281</ele>
        <time>2015-03-23T15:58:37.000Z</time>
      </trkpt>
      <trkpt lat="45.16219" lon="6.33823">
        <ele>2085.3999023438</ele>
        <time>2015-03-23T15:58:39.000Z</time>
      </trkpt>
      <trkpt lat="45.16232" lon="6.33819">
        <ele>2083.8000488281</ele>
        <time>2015-03-23T15:58:41.000Z</time>
      </trkpt>
      <trkpt lat="45.16237" lon="6.33818">
        <ele>2082.6000976562</ele>
        <time>2015-03-23T15:58:42.000Z</time>
      </trkpt>
      <trkpt lat="45.16242" lon="6.33817">
        <ele>2081.1999511719</ele>
        <time>2015-03-23T15:58:43.000Z</time>
      </trkpt>
      <trkpt lat="45.16247" lon="6.33817">
        <ele>2080</ele>
        <time>2015-03-23T15:58:44.000Z</time>
      </trkpt>
      <trkpt lat="45.16259" lon="6.33821">
        <ele>2078.6000976562</ele>
        <time>2015-03-23T15:58:46.000Z</time>
      </trkpt>
      <trkpt lat="45.1627" lon="6.33822">
        <ele>2076.8000488281</ele>
        <time>2015-03-23T15:58:48.000Z</time>
      </trkpt>
      <trkpt lat="45.16283" lon="6.33824">
        <ele>2075</ele>
        <time>2015-03-23T15:58:50.000Z</time>
      </trkpt>
      <trkpt lat="45.16297" lon="6.33824">
        <ele>2073</ele>
        <time>2015-03-23T15:58:52.000Z</time>
      </trkpt>
      <trkpt lat="45.16305" lon="6.3382">
        <ele>2071.8000488281</ele>
        <time>2015-03-23T15:58:53.000Z</time>
      </trkpt>
      <trkpt lat="45.16311" lon="6.33814">
        <ele>2070.3999023438</ele>
        <time>2015-03-23T15:58:54.000Z</time>
      </trkpt>
      <trkpt lat="45.16319" lon="6.33807">
        <ele>2069.1999511719</ele>
        <time>2015-03-23T15:58:55.000Z</time>
      </trkpt>
      <trkpt lat="45.16327" lon="6.33799">
        <ele>2067</ele>
        <time>2015-03-23T15:58:56.000Z</time>
      </trkpt>
      <trkpt lat="45.16342" lon="6.33784">
        <ele>2065</ele>
        <time>2015-03-23T15:58:58.000Z</time>
      </trkpt>
      <trkpt lat="45.1635" lon="6.33777">
        <ele>2063.8000488281</ele>
        <time>2015-03-23T15:58:59.000Z</time>
      </trkpt>
      <trkpt lat="45.16358" lon="6.3377">
        <ele>2062.1999511719</ele>
        <time>2015-03-23T15:59:00.000Z</time>
      </trkpt>
      <trkpt lat="45.16365" lon="6.33761">
        <ele>2060.8000488281</ele>
        <time>2015-03-23T15:59:01.000Z</time>
      </trkpt>
      <trkpt lat="45.16373" lon="6.33753">
        <ele>2059.3999023438</ele>
        <time>2015-03-23T15:59:02.000Z</time>
      </trkpt>
      <trkpt lat="45.16381" lon="6.33744">
        <ele>2058.3999023438</ele>
        <time>2015-03-23T15:59:03.000Z</time>
      </trkpt>
      <trkpt lat="45.16399" lon="6.33727">
        <ele>2057</ele>
        <time>2015-03-23T15:59:05.000Z</time>
      </trkpt>
      <trkpt lat="45.16416" lon="6.3371">
        <ele>2055</ele>
        <time>2015-03-23T15:59:07.000Z</time>
      </trkpt>
      <trkpt lat="45.16424" lon="6.33702">
        <ele>2053.6000976562</ele>
        <time>2015-03-23T15:59:08.000Z</time>
      </trkpt>
      <trkpt lat="45.16431" lon="6.33693">
        <ele>2052.1999511719</ele>
        <time>2015-03-23T15:59:09.000Z</time>
      </trkpt>
      <trkpt lat="45.16437" lon="6.33686">
        <ele>2051</ele>
        <time>2015-03-23T15:59:10.000Z</time>
      </trkpt>
      <trkpt lat="45.16443" lon="6.33679">
        <ele>2050</ele>
        <time>2015-03-23T15:59:11.000Z</time>
      </trkpt>
      <trkpt lat="45.16448" lon="6.33674">
        <ele>2048.8000488281</ele>
        <time>2015-03-23T15:59:12.000Z</time>
      </trkpt>
      <trkpt lat="45.16452" lon="6.3367">
        <ele>2048</ele>
        <time>2015-03-23T15:59:13.000Z</time>
      </trkpt>
      <trkpt lat="45.16454" lon="6.33667">
        <ele>2047.1999511719</ele>
        <time>2015-03-23T15:59:14.000Z</time>
      </trkpt>
      <trkpt lat="45.1646" lon="6.3366">
        <ele>2046.1999511719</ele>
        <time>2015-03-23T15:59:17.000Z</time>
      </trkpt>
      <trkpt lat="45.16462" lon="6.33659">
        <ele>2046.1999511719</ele>
        <time>2015-03-23T15:59:18.000Z</time>
      </trkpt>
      <trkpt lat="45.1648" lon="6.33669">
        <ele>2047</ele>
        <time>2015-03-23T15:59:24.000Z</time>
      </trkpt>
      <trkpt lat="45.16488" lon="6.33673">
        <ele>2047.4000244141</ele>
        <time>2015-03-23T15:59:28.000Z</time>
      </trkpt>
      <trkpt lat="45.16494" lon="6.33676">
        <ele>2048.8000488281</ele>
        <time>2015-03-23T15:59:31.000Z</time>
      </trkpt>
      <trkpt lat="45.16497" lon="6.3368">
        <ele>2049.8000488281</ele>
        <time>2015-03-23T15:59:36.000Z</time>
      </trkpt>
      <trkpt lat="45.16497" lon="6.33685">
        <ele>2049.6000976562</ele>
        <time>2015-03-23T15:59:43.000Z</time>
      </trkpt>
      <trkpt lat="45.16497" lon="6.33686">
        <ele>2049.8000488281</ele>
        <time>2015-03-23T15:59:44.000Z</time>
      </trkpt>
      <trkpt lat="45.16497" lon="6.33687">
        <ele>2050</ele>
        <time>2015-03-23T15:59:45.000Z</time>
      </trkpt>
      <trkpt lat="45.16499" lon="6.33692">
        <ele>2050</ele>
        <time>2015-03-23T15:59:48.000Z</time>
      </trkpt>
      <trkpt lat="45.16503" lon="6.337">
        <ele>2049.8000488281</ele>
        <time>2015-03-23T15:59:51.000Z</time>
      </trkpt>
      <trkpt lat="45.16507" lon="6.33708">
        <ele>2049</ele>
        <time>2015-03-23T15:59:54.000Z</time>
      </trkpt>
      <trkpt lat="45.16509" lon="6.33709">
        <ele>2048.8000488281</ele>
        <time>2015-03-23T15:59:55.000Z</time>
      </trkpt>
      <trkpt lat="45.16519" lon="6.33722">
        <ele>2048.3999023438</ele>
        <time>2015-03-23T16:00:01.000Z</time>
      </trkpt>
      <trkpt lat="45.16532" lon="6.33735">
        <ele>2047.8000488281</ele>
        <time>2015-03-23T16:00:06.000Z</time>
      </trkpt>
      <trkpt lat="45.16535" lon="6.33737">
        <ele>2047.8000488281</ele>
        <time>2015-03-23T16:00:07.000Z</time>
      </trkpt>
      <trkpt lat="45.16557" lon="6.33751">
        <ele>2046.5999755859</ele>
        <time>2015-03-23T16:00:12.000Z</time>
      </trkpt>
      <trkpt lat="45.16579" lon="6.33762">
        <ele>2045.1999511719</ele>
        <time>2015-03-23T16:00:16.000Z</time>
      </trkpt>
      <trkpt lat="45.16597" lon="6.33771">
        <ele>2044.1999511719</ele>
        <time>2015-03-23T16:00:19.000Z</time>
      </trkpt>
      <trkpt lat="45.16611" lon="6.33778">
        <ele>2043.5999755859</ele>
        <time>2015-03-23T16:00:21.000Z</time>
      </trkpt>
      <trkpt lat="45.16626" lon="6.33783">
        <ele>2042.8000488281</ele>
        <time>2015-03-23T16:00:23.000Z</time>
      </trkpt>
      <trkpt lat="45.16634" lon="6.33785">
        <ele>2042.4000244141</ele>
        <time>2015-03-23T16:00:24.000Z</time>
      </trkpt>
      <trkpt lat="45.16642" lon="6.33788">
        <ele>2041.8000488281</ele>
        <time>2015-03-23T16:00:25.000Z</time>
      </trkpt>
      <trkpt lat="45.16659" lon="6.33794">
        <ele>2040.1999511719</ele>
        <time>2015-03-23T16:00:27.000Z</time>
      </trkpt>
      <trkpt lat="45.16673" lon="6.33802">
        <ele>2038.5999755859</ele>
        <time>2015-03-23T16:00:29.000Z</time>
      </trkpt>
      <trkpt lat="45.16685" lon="6.3381">
        <ele>2037</ele>
        <time>2015-03-23T16:00:31.000Z</time>
      </trkpt>
      <trkpt lat="45.16691" lon="6.3381">
        <ele>2035.4000244141</ele>
        <time>2015-03-23T16:00:32.000Z</time>
      </trkpt>
      <trkpt lat="45.16698" lon="6.3381">
        <ele>2034.5999755859</ele>
        <time>2015-03-23T16:00:33.000Z</time>
      </trkpt>
      <trkpt lat="45.16706" lon="6.33809">
        <ele>2033.8000488281</ele>
        <time>2015-03-23T16:00:34.000Z</time>
      </trkpt>
      <trkpt lat="45.16714" lon="6.33808">
        <ele>2032.5999755859</ele>
        <time>2015-03-23T16:00:35.000Z</time>
      </trkpt>
      <trkpt lat="45.16723" lon="6.33806">
        <ele>2031.1999511719</ele>
        <time>2015-03-23T16:00:36.000Z</time>
      </trkpt>
      <trkpt lat="45.16731" lon="6.33804">
        <ele>2030.1999511719</ele>
        <time>2015-03-23T16:00:37.000Z</time>
      </trkpt>
      <trkpt lat="45.16747" lon="6.33799">
        <ele>2028.4000244141</ele>
        <time>2015-03-23T16:00:39.000Z</time>
      </trkpt>
      <trkpt lat="45.16756" lon="6.33799">
        <ele>2027.4000244141</ele>
        <time>2015-03-23T16:00:40.000Z</time>
      </trkpt>
      <trkpt lat="45.16765" lon="6.33799">
        <ele>2026.1999511719</ele>
        <time>2015-03-23T16:00:41.000Z</time>
      </trkpt>
      <trkpt lat="45.16774" lon="6.338">
        <ele>2025</ele>
        <time>2015-03-23T16:00:42.000Z</time>
      </trkpt>
      <trkpt lat="45.16784" lon="6.33801">
        <ele>2023.8000488281</ele>
        <time>2015-03-23T16:00:43.000Z</time>
      </trkpt>
      <trkpt lat="45.16794" lon="6.33803">
        <ele>2022.4000244141</ele>
        <time>2015-03-23T16:00:44.000Z</time>
      </trkpt>
      <trkpt lat="45.16803" lon="6.33805">
        <ele>2021</ele>
        <time>2015-03-23T16:00:45.000Z</time>
      </trkpt>
      <trkpt lat="45.16813" lon="6.33806">
        <ele>2019.8000488281</ele>
        <time>2015-03-23T16:00:46.000Z</time>
      </trkpt>
      <trkpt lat="45.16824" lon="6.33805">
        <ele>2018.8000488281</ele>
        <time>2015-03-23T16:00:47.000Z</time>
      </trkpt>
      <trkpt lat="45.16835" lon="6.33803">
        <ele>2017.8000488281</ele>
        <time>2015-03-23T16:00:48.000Z</time>
      </trkpt>
      <trkpt lat="45.16845" lon="6.33801">
        <ele>2016.5999755859</ele>
        <time>2015-03-23T16:00:49.000Z</time>
      </trkpt>
      <trkpt lat="45.16856" lon="6.33798">
        <ele>2015.1999511719</ele>
        <time>2015-03-23T16:00:50.000Z</time>
      </trkpt>
      <trkpt lat="45.16867" lon="6.33796">
        <ele>2013.8000488281</ele>
        <time>2015-03-23T16:00:51.000Z</time>
      </trkpt>
      <trkpt lat="45.16877" lon="6.33794">
        <ele>2012.4000244141</ele>
        <time>2015-03-23T16:00:52.000Z</time>
      </trkpt>
      <trkpt lat="45.16889" lon="6.33794">
        <ele>2011.4000244141</ele>
        <time>2015-03-23T16:00:53.000Z</time>
      </trkpt>
      <trkpt lat="45.16909" lon="6.33792">
        <ele>2010.1999511719</ele>
        <time>2015-03-23T16:00:55.000Z</time>
      </trkpt>
      <trkpt lat="45.16929" lon="6.3379">
        <ele>2008.4000244141</ele>
        <time>2015-03-23T16:00:57.000Z</time>
      </trkpt>
      <trkpt lat="45.16939" lon="6.33791">
        <ele>2007.1999511719</ele>
        <time>2015-03-23T16:00:58.000Z</time>
      </trkpt>
      <trkpt lat="45.1695" lon="6.33793">
        <ele>2006</ele>
        <time>2015-03-23T16:00:59.000Z</time>
      </trkpt>
      <trkpt lat="45.1696" lon="6.33794">
        <ele>2004.8000488281</ele>
        <time>2015-03-23T16:01:00.000Z</time>
      </trkpt>
      <trkpt lat="45.16971" lon="6.33795">
        <ele>2003.8000488281</ele>
        <time>2015-03-23T16:01:01.000Z</time>
      </trkpt>
      <trkpt lat="45.16982" lon="6.33796">
        <ele>2002.5999755859</ele>
        <time>2015-03-23T16:01:02.000Z</time>
      </trkpt>
      <trkpt lat="45.16993" lon="6.33798">
        <ele>2001.4000244141</ele>
        <time>2015-03-23T16:01:03.000Z</time>
      </trkpt>
      <trkpt lat="45.17003" lon="6.338">
        <ele>2000.1999511719</ele>
        <time>2015-03-23T16:01:04.000Z</time>
      </trkpt>
      <trkpt lat="45.17013" lon="6.33802">
        <ele>1999</ele>
        <time>2015-03-23T16:01:05.000Z</time>
      </trkpt>
      <trkpt lat="45.17023" lon="6.33805">
        <ele>1997.8000488281</ele>
        <time>2015-03-23T16:01:06.000Z</time>
      </trkpt>
      <trkpt lat="45.17037" lon="6.33807">
        <ele>1996</ele>
        <time>2015-03-23T16:01:08.000Z</time>
      </trkpt>
      <trkpt lat="45.17043" lon="6.33808">
        <ele>1995.4000244141</ele>
        <time>2015-03-23T16:01:09.000Z</time>
      </trkpt>
      <trkpt lat="45.17049" lon="6.33808">
        <ele>1994.5999755859</ele>
        <time>2015-03-23T16:01:10.000Z</time>
      </trkpt>
      <trkpt lat="45.17055" lon="6.33807">
        <ele>1994</ele>
        <time>2015-03-23T16:01:11.000Z</time>
      </trkpt>
      <trkpt lat="45.17059" lon="6.33806">
        <ele>1993.5999755859</ele>
        <time>2015-03-23T16:01:12.000Z</time>
      </trkpt>
      <trkpt lat="45.17064" lon="6.33805">
        <ele>1993.1999511719</ele>
        <time>2015-03-23T16:01:13.000Z</time>
      </trkpt>
      <trkpt lat="45.17079" lon="6.33798">
        <ele>1992.5999755859</ele>
        <time>2015-03-23T16:01:18.000Z</time>
      </trkpt>
      <trkpt lat="45.17091" lon="6.33788">
        <ele>1993.5999755859</ele>
        <time>2015-03-23T16:01:23.000Z</time>
      </trkpt>
      <trkpt lat="45.171" lon="6.33781">
        <ele>1994.8000488281</ele>
        <time>2015-03-23T16:01:30.000Z</time>
      </trkpt>
      <trkpt lat="45.17107" lon="6.33777">
        <ele>1995.8000488281</ele>
        <time>2015-03-23T16:01:35.000Z</time>
      </trkpt>
      <trkpt lat="45.17112" lon="6.33777">
        <ele>1996</ele>
        <time>2015-03-23T16:01:37.000Z</time>
      </trkpt>
      <trkpt lat="45.17128" lon="6.33781">
        <ele>1995.1999511719</ele>
        <time>2015-03-23T16:01:44.000Z</time>
      </trkpt>
      <trkpt lat="45.17137" lon="6.33779">
        <ele>1994.8000488281</ele>
        <time>2015-03-23T16:01:47.000Z</time>
      </trkpt>
      <trkpt lat="45.17144" lon="6.33775">
        <ele>1994.8000488281</ele>
        <time>2015-03-23T16:01:49.000Z</time>
      </trkpt>
      <trkpt lat="45.17158" lon="6.33759">
        <ele>1994.1999511719</ele>
        <time>2015-03-23T16:01:55.000Z</time>
      </trkpt>
      <trkpt lat="45.17159" lon="6.33756">
        <ele>1994.1999511719</ele>
        <time>2015-03-23T16:01:57.000Z</time>
      </trkpt>
      <trkpt lat="45.17161" lon="6.33753">
        <ele>1994.4000244141</ele>
        <time>2015-03-23T16:02:00.000Z</time>
      </trkpt>
      <trkpt lat="45.17172" lon="6.33744">
        <ele>1994.1999511719</ele>
        <time>2015-03-23T16:02:05.000Z</time>
      </trkpt>
      <trkpt lat="45.17179" lon="6.3374">
        <ele>1993.5999755859</ele>
        <time>2015-03-23T16:02:07.000Z</time>
      </trkpt>
      <trkpt lat="45.17193" lon="6.33732">
        <ele>1992.5999755859</ele>
        <time>2015-03-23T16:02:11.000Z</time>
      </trkpt>
      <trkpt lat="45.17199" lon="6.33733">
        <ele>1992.4000244141</ele>
        <time>2015-03-23T16:02:12.000Z</time>
      </trkpt>
      <trkpt lat="45.17205" lon="6.33734">
        <ele>1992.1999511719</ele>
        <time>2015-03-23T16:02:13.000Z</time>
      </trkpt>
      <trkpt lat="45.17218" lon="6.33736">
        <ele>1991.8000488281</ele>
        <time>2015-03-23T16:02:15.000Z</time>
      </trkpt>
      <trkpt lat="45.17233" lon="6.33738">
        <ele>1991.4000244141</ele>
        <time>2015-03-23T16:02:17.000Z</time>
      </trkpt>
      <trkpt lat="45.17252" lon="6.33736">
        <ele>1990</ele>
        <time>2015-03-23T16:02:20.000Z</time>
      </trkpt>
      <trkpt lat="45.17257" lon="6.33734">
        <ele>1989.5999755859</ele>
        <time>2015-03-23T16:02:21.000Z</time>
      </trkpt>
      <trkpt lat="45.17267" lon="6.3373">
        <ele>1989</ele>
        <time>2015-03-23T16:02:23.000Z</time>
      </trkpt>
      <trkpt lat="45.17284" lon="6.33723">
        <ele>1987.5999755859</ele>
        <time>2015-03-23T16:02:27.000Z</time>
      </trkpt>
      <trkpt lat="45.17298" lon="6.33719">
        <ele>1987</ele>
        <time>2015-03-23T16:02:32.000Z</time>
      </trkpt>
      <trkpt lat="45.17311" lon="6.33714">
        <ele>1988</ele>
        <time>2015-03-23T16:02:38.000Z</time>
      </trkpt>
      <trkpt lat="45.17324" lon="6.33702">
        <ele>1988.1999511719</ele>
        <time>2015-03-23T16:02:44.000Z</time>
      </trkpt>
      <trkpt lat="45.17334" lon="6.33684">
        <ele>1988.5999755859</ele>
        <time>2015-03-23T16:02:51.000Z</time>
      </trkpt>
      <trkpt lat="45.17336" lon="6.33681">
        <ele>1988.8000488281</ele>
        <time>2015-03-23T16:02:52.000Z</time>
      </trkpt>
      <trkpt lat="45.17351" lon="6.33666">
        <ele>1989.1999511719</ele>
        <time>2015-03-23T16:02:59.000Z</time>
      </trkpt>
      <trkpt lat="45.17366" lon="6.33653">
        <ele>1988.8000488281</ele>
        <time>2015-03-23T16:03:03.000Z</time>
      </trkpt>
      <trkpt lat="45.17371" lon="6.33647">
        <ele>1988.4000244141</ele>
        <time>2015-03-23T16:03:04.000Z</time>
      </trkpt>
      <trkpt lat="45.17383" lon="6.33629">
        <ele>1987.5999755859</ele>
        <time>2015-03-23T16:03:06.000Z</time>
      </trkpt>
      <trkpt lat="45.17389" lon="6.33619">
        <ele>1987.1999511719</ele>
        <time>2015-03-23T16:03:07.000Z</time>
      </trkpt>
      <trkpt lat="45.17394" lon="6.33609">
        <ele>1986.5999755859</ele>
        <time>2015-03-23T16:03:08.000Z</time>
      </trkpt>
      <trkpt lat="45.1741" lon="6.33579">
        <ele>1985.4000244141</ele>
        <time>2015-03-23T16:03:11.000Z</time>
      </trkpt>
      <trkpt lat="45.17419" lon="6.3356">
        <ele>1984.4000244141</ele>
        <time>2015-03-23T16:03:13.000Z</time>
      </trkpt>
      <trkpt lat="45.17427" lon="6.33544">
        <ele>1982.8000488281</ele>
        <time>2015-03-23T16:03:15.000Z</time>
      </trkpt>
      <trkpt lat="45.17436" lon="6.33528">
        <ele>1981.5999755859</ele>
        <time>2015-03-23T16:03:17.000Z</time>
      </trkpt>
      <trkpt lat="45.17441" lon="6.33522">
        <ele>1981.4000244141</ele>
        <time>2015-03-23T16:03:18.000Z</time>
      </trkpt>
      <trkpt lat="45.17458" lon="6.33504">
        <ele>1980</ele>
        <time>2015-03-23T16:03:21.000Z</time>
      </trkpt>
      <trkpt lat="45.17468" lon="6.33493">
        <ele>1978.8000488281</ele>
        <time>2015-03-23T16:03:23.000Z</time>
      </trkpt>
      <trkpt lat="45.17478" lon="6.33484">
        <ele>1977.4000244141</ele>
        <time>2015-03-23T16:03:25.000Z</time>
      </trkpt>
      <trkpt lat="45.17487" lon="6.33476">
        <ele>1975.8000488281</ele>
        <time>2015-03-23T16:03:27.000Z</time>
      </trkpt>
      <trkpt lat="45.1749" lon="6.33472">
        <ele>1975</ele>
        <time>2015-03-23T16:03:28.000Z</time>
      </trkpt>
      <trkpt lat="45.17493" lon="6.33466">
        <ele>1974.4000244141</ele>
        <time>2015-03-23T16:03:29.000Z</time>
      </trkpt>
      <trkpt lat="45.17498" lon="6.33455">
        <ele>1973</ele>
        <time>2015-03-23T16:03:31.000Z</time>
      </trkpt>
      <trkpt lat="45.17501" lon="6.33449">
        <ele>1972.5999755859</ele>
        <time>2015-03-23T16:03:32.000Z</time>
      </trkpt>
      <trkpt lat="45.17508" lon="6.3344">
        <ele>1971.5999755859</ele>
        <time>2015-03-23T16:03:34.000Z</time>
      </trkpt>
      <trkpt lat="45.17514" lon="6.33433">
        <ele>1970.5999755859</ele>
        <time>2015-03-23T16:03:36.000Z</time>
      </trkpt>
      <trkpt lat="45.17518" lon="6.33425">
        <ele>1969.5999755859</ele>
        <time>2015-03-23T16:03:38.000Z</time>
      </trkpt>
      <trkpt lat="45.1752" lon="6.33421">
        <ele>1969.1999511719</ele>
        <time>2015-03-23T16:03:39.000Z</time>
      </trkpt>
      <trkpt lat="45.17524" lon="6.33417">
        <ele>1968.8000488281</ele>
        <time>2015-03-23T16:03:40.000Z</time>
      </trkpt>
      <trkpt lat="45.17528" lon="6.33416">
        <ele>1968</ele>
        <time>2015-03-23T16:03:41.000Z</time>
      </trkpt>
      <trkpt lat="45.17536" lon="6.33414">
        <ele>1966.4000244141</ele>
        <time>2015-03-23T16:03:43.000Z</time>
      </trkpt>
      <trkpt lat="45.17541" lon="6.3341">
        <ele>1965.5999755859</ele>
        <time>2015-03-23T16:03:44.000Z</time>
      </trkpt>
      <trkpt lat="45.17545" lon="6.33407">
        <ele>1964.4000244141</ele>
        <time>2015-03-23T16:03:45.000Z</time>
      </trkpt>
      <trkpt lat="45.17549" lon="6.33403">
        <ele>1963.8000488281</ele>
        <time>2015-03-23T16:03:46.000Z</time>
      </trkpt>
      <trkpt lat="45.17553" lon="6.33399">
        <ele>1963.1999511719</ele>
        <time>2015-03-23T16:03:47.000Z</time>
      </trkpt>
      <trkpt lat="45.17559" lon="6.33393">
        <ele>1961.1999511719</ele>
        <time>2015-03-23T16:03:49.000Z</time>
      </trkpt>
      <trkpt lat="45.17561" lon="6.33391">
        <ele>1960.4000244141</ele>
        <time>2015-03-23T16:03:50.000Z</time>
      </trkpt>
      <trkpt lat="45.17563" lon="6.33388">
        <ele>1959.5999755859</ele>
        <time>2015-03-23T16:03:51.000Z</time>
      </trkpt>
      <trkpt lat="45.17566" lon="6.33384">
        <ele>1958.4000244141</ele>
        <time>2015-03-23T16:03:53.000Z</time>
      </trkpt>
      <trkpt lat="45.17568" lon="6.33382">
        <ele>1957.8000488281</ele>
        <time>2015-03-23T16:03:55.000Z</time>
      </trkpt>
      <trkpt lat="45.17569" lon="6.3338">
        <ele>1957.4000244141</ele>
        <time>2015-03-23T16:03:57.000Z</time>
      </trkpt>
      <trkpt lat="45.17578" lon="6.33372">
        <ele>1956.4000244141</ele>
        <time>2015-03-23T16:04:01.000Z</time>
      </trkpt>
      <trkpt lat="45.17595" lon="6.33355">
        <ele>1955.4000244141</ele>
        <time>2015-03-23T16:04:06.000Z</time>
      </trkpt>
      <trkpt lat="45.176" lon="6.33351">
        <ele>1955</ele>
        <time>2015-03-23T16:04:07.000Z</time>
      </trkpt>
      <trkpt lat="45.17609" lon="6.33341">
        <ele>1953.8000488281</ele>
        <time>2015-03-23T16:04:09.000Z</time>
      </trkpt>
      <trkpt lat="45.17625" lon="6.33322">
        <ele>1952.5999755859</ele>
        <time>2015-03-23T16:04:13.000Z</time>
      </trkpt>
      <trkpt lat="45.17642" lon="6.33298">
        <ele>1951.1999511719</ele>
        <time>2015-03-23T16:04:16.000Z</time>
      </trkpt>
      <trkpt lat="45.17659" lon="6.33274">
        <ele>1949.8000488281</ele>
        <time>2015-03-23T16:04:19.000Z</time>
      </trkpt>
      <trkpt lat="45.17664" lon="6.33267">
        <ele>1949.4000244141</ele>
        <time>2015-03-23T16:04:20.000Z</time>
      </trkpt>
      <trkpt lat="45.17675" lon="6.33254">
        <ele>1948.4000244141</ele>
        <time>2015-03-23T16:04:22.000Z</time>
      </trkpt>
      <trkpt lat="45.17684" lon="6.33242">
        <ele>1946.8000488281</ele>
        <time>2015-03-23T16:04:24.000Z</time>
      </trkpt>
      <trkpt lat="45.17688" lon="6.33235">
        <ele>1946.1999511719</ele>
        <time>2015-03-23T16:04:25.000Z</time>
      </trkpt>
      <trkpt lat="45.17693" lon="6.33228">
        <ele>1945.8000488281</ele>
        <time>2015-03-23T16:04:26.000Z</time>
      </trkpt>
      <trkpt lat="45.17697" lon="6.3322">
        <ele>1945.1999511719</ele>
        <time>2015-03-23T16:04:27.000Z</time>
      </trkpt>
      <trkpt lat="45.17704" lon="6.33202">
        <ele>1944.1999511719</ele>
        <time>2015-03-23T16:04:29.000Z</time>
      </trkpt>
      <trkpt lat="45.17713" lon="6.33174">
        <ele>1943</ele>
        <time>2015-03-23T16:04:32.000Z</time>
      </trkpt>
      <trkpt lat="45.17721" lon="6.33156">
        <ele>1941.5999755859</ele>
        <time>2015-03-23T16:04:34.000Z</time>
      </trkpt>
      <trkpt lat="45.17726" lon="6.33148">
        <ele>1941.1999511719</ele>
        <time>2015-03-23T16:04:35.000Z</time>
      </trkpt>
      <trkpt lat="45.17735" lon="6.33132">
        <ele>1940</ele>
        <time>2015-03-23T16:04:37.000Z</time>
      </trkpt>
      <trkpt lat="45.17738" lon="6.33124">
        <ele>1939.1999511719</ele>
        <time>2015-03-23T16:04:38.000Z</time>
      </trkpt>
      <trkpt lat="45.17743" lon="6.33116">
        <ele>1938.4000244141</ele>
        <time>2015-03-23T16:04:39.000Z</time>
      </trkpt>
      <trkpt lat="45.17749" lon="6.33101">
        <ele>1936.5999755859</ele>
        <time>2015-03-23T16:04:41.000Z</time>
      </trkpt>
      <trkpt lat="45.17753" lon="6.33083">
        <ele>1935.5999755859</ele>
        <time>2015-03-23T16:04:43.000Z</time>
      </trkpt>
      <trkpt lat="45.17754" lon="6.33064">
        <ele>1934.4000244141</ele>
        <time>2015-03-23T16:04:45.000Z</time>
      </trkpt>
      <trkpt lat="45.17753" lon="6.33053">
        <ele>1933.8000488281</ele>
        <time>2015-03-23T16:04:46.000Z</time>
      </trkpt>
      <trkpt lat="45.17752" lon="6.33043">
        <ele>1933.1999511719</ele>
        <time>2015-03-23T16:04:47.000Z</time>
      </trkpt>
      <trkpt lat="45.17751" lon="6.33018">
        <ele>1932.1999511719</ele>
        <time>2015-03-23T16:04:49.000Z</time>
      </trkpt>
      <trkpt lat="45.17751" lon="6.32995">
        <ele>1931</ele>
        <time>2015-03-23T16:04:51.000Z</time>
      </trkpt>
      <trkpt lat="45.17752" lon="6.32984">
        <ele>1930.1999511719</ele>
        <time>2015-03-23T16:04:52.000Z</time>
      </trkpt>
      <trkpt lat="45.17752" lon="6.32974">
        <ele>1929.1999511719</ele>
        <time>2015-03-23T16:04:53.000Z</time>
      </trkpt>
      <trkpt lat="45.17751" lon="6.32963">
        <ele>1928</ele>
        <time>2015-03-23T16:04:54.000Z</time>
      </trkpt>
      <trkpt lat="45.17752" lon="6.32953">
        <ele>1927</ele>
        <time>2015-03-23T16:04:55.000Z</time>
      </trkpt>
      <trkpt lat="45.1775" lon="6.32932">
        <ele>1925.1999511719</ele>
        <time>2015-03-23T16:04:57.000Z</time>
      </trkpt>
      <trkpt lat="45.17749" lon="6.32921">
        <ele>1923.5999755859</ele>
        <time>2015-03-23T16:04:58.000Z</time>
      </trkpt>
      <trkpt lat="45.17747" lon="6.329">
        <ele>1922</ele>
        <time>2015-03-23T16:05:00.000Z</time>
      </trkpt>
      <trkpt lat="45.17746" lon="6.32881">
        <ele>1921</ele>
        <time>2015-03-23T16:05:02.000Z</time>
      </trkpt>
      <trkpt lat="45.17746" lon="6.32872">
        <ele>1920.4000244141</ele>
        <time>2015-03-23T16:05:03.000Z</time>
      </trkpt>
      <trkpt lat="45.17749" lon="6.32864">
        <ele>1919.5999755859</ele>
        <time>2015-03-23T16:05:04.000Z</time>
      </trkpt>
      <trkpt lat="45.17751" lon="6.32848">
        <ele>1917.8000488281</ele>
        <time>2015-03-23T16:05:06.000Z</time>
      </trkpt>
      <trkpt lat="45.17751" lon="6.32842">
        <ele>1916.4000244141</ele>
        <time>2015-03-23T16:05:08.000Z</time>
      </trkpt>
      <trkpt lat="45.17751" lon="6.32842">
        <ele>1915.5999755859</ele>
        <time>2015-03-23T16:05:09.000Z</time>
      </trkpt>
      <trkpt lat="45.17751" lon="6.32842">
        <ele>1914.8000488281</ele>
        <time>2015-03-23T16:05:10.000Z</time>
      </trkpt>
      <trkpt lat="45.1775" lon="6.32843">
        <ele>1913.5999755859</ele>
        <time>2015-03-23T16:05:12.000Z</time>
      </trkpt>
      <trkpt lat="45.17749" lon="6.32844">
        <ele>1912.8000488281</ele>
        <time>2015-03-23T16:05:15.000Z</time>
      </trkpt>
      <trkpt lat="45.17749" lon="6.32844">
        <ele>1912.4000244141</ele>
        <time>2015-03-23T16:05:17.000Z</time>
      </trkpt>
      <trkpt lat="45.17752" lon="6.32846">
        <ele>1912.1999511719</ele>
        <time>2015-03-23T16:05:18.000Z</time>
      </trkpt>
      <trkpt lat="45.17755" lon="6.32849">
        <ele>1912</ele>
        <time>2015-03-23T16:05:20.000Z</time>
      </trkpt>
      <trkpt lat="45.17756" lon="6.32855">
        <ele>1911.5999755859</ele>
        <time>2015-03-23T16:05:25.000Z</time>
      </trkpt>
      <trkpt lat="45.17756" lon="6.32855">
        <ele>1912</ele>
        <time>2015-03-23T16:05:38.000Z</time>
      </trkpt>
      <trkpt lat="45.17757" lon="6.32856">
        <ele>1912</ele>
        <time>2015-03-23T16:05:44.000Z</time>
      </trkpt>
      <trkpt lat="45.17758" lon="6.32857">
        <ele>1912</ele>
        <time>2015-03-23T16:05:49.000Z</time>
      </trkpt>
      <trkpt lat="45.17758" lon="6.32857">
        <ele>1912</ele>
        <time>2015-03-23T16:05:50.000Z</time>
      </trkpt>
      <trkpt lat="45.17761" lon="6.3286">
        <ele>1911.5999755859</ele>
        <time>2015-03-23T16:05:55.000Z</time>
      </trkpt>
      <trkpt lat="45.17762" lon="6.32861">
        <ele>1911.4000244141</ele>
        <time>2015-03-23T16:05:56.000Z</time>
      </trkpt>
      <trkpt lat="45.17763" lon="6.32862">
        <ele>1911.4000244141</ele>
        <time>2015-03-23T16:05:57.000Z</time>
      </trkpt>
      <trkpt lat="45.17772" lon="6.32869">
        <ele>1911.4000244141</ele>
        <time>2015-03-23T16:06:02.000Z</time>
      </trkpt>
      <trkpt lat="45.17788" lon="6.32874">
        <ele>1910.4000244141</ele>
        <time>2015-03-23T16:06:07.000Z</time>
      </trkpt>
      <trkpt lat="45.17792" lon="6.32875">
        <ele>1910.1999511719</ele>
        <time>2015-03-23T16:06:08.000Z</time>
      </trkpt>
      <trkpt lat="45.17799" lon="6.3288">
        <ele>1909</ele>
        <time>2015-03-23T16:06:10.000Z</time>
      </trkpt>
      <trkpt lat="45.17805" lon="6.32886">
        <ele>1908</ele>
        <time>2015-03-23T16:06:12.000Z</time>
      </trkpt>
      <trkpt lat="45.17813" lon="6.32903">
        <ele>1906.5999755859</ele>
        <time>2015-03-23T16:06:15.000Z</time>
      </trkpt>
      <trkpt lat="45.17816" lon="6.32908">
        <ele>1906.4000244141</ele>
        <time>2015-03-23T16:06:16.000Z</time>
      </trkpt>
      <trkpt lat="45.17824" lon="6.32917">
        <ele>1906</ele>
        <time>2015-03-23T16:06:18.000Z</time>
      </trkpt>
      <trkpt lat="45.17827" lon="6.32921">
        <ele>1905.5999755859</ele>
        <time>2015-03-23T16:06:19.000Z</time>
      </trkpt>
      <trkpt lat="45.17832" lon="6.32924">
        <ele>1905.1999511719</ele>
        <time>2015-03-23T16:06:20.000Z</time>
      </trkpt>
      <trkpt lat="45.17842" lon="6.32931">
        <ele>1904.1999511719</ele>
        <time>2015-03-23T16:06:22.000Z</time>
      </trkpt>
      <trkpt lat="45.17853" lon="6.32939">
        <ele>1903</ele>
        <time>2015-03-23T16:06:24.000Z</time>
      </trkpt>
      <trkpt lat="45.17873" lon="6.32958">
        <ele>1901.8000488281</ele>
        <time>2015-03-23T16:06:27.000Z</time>
      </trkpt>
      <trkpt lat="45.1788" lon="6.32964">
        <ele>1901.4000244141</ele>
        <time>2015-03-23T16:06:28.000Z</time>
      </trkpt>
      <trkpt lat="45.17894" lon="6.32975">
        <ele>1900.4000244141</ele>
        <time>2015-03-23T16:06:30.000Z</time>
      </trkpt>
      <trkpt lat="45.17902" lon="6.32978">
        <ele>1899.8000488281</ele>
        <time>2015-03-23T16:06:31.000Z</time>
      </trkpt>
      <trkpt lat="45.17909" lon="6.32979">
        <ele>1899</ele>
        <time>2015-03-23T16:06:32.000Z</time>
      </trkpt>
      <trkpt lat="45.17916" lon="6.32968">
        <ele>1896.8000488281</ele>
        <time>2015-03-23T16:06:34.000Z</time>
      </trkpt>
      <trkpt lat="45.1792" lon="6.32963">
        <ele>1895.5999755859</ele>
        <time>2015-03-23T16:06:35.000Z</time>
      </trkpt>
      <trkpt lat="45.17923" lon="6.32956">
        <ele>1894.4000244141</ele>
        <time>2015-03-23T16:06:36.000Z</time>
      </trkpt>
      <trkpt lat="45.17927" lon="6.32951">
        <ele>1893.1999511719</ele>
        <time>2015-03-23T16:06:37.000Z</time>
      </trkpt>
      <trkpt lat="45.1793" lon="6.32936">
        <ele>1891.1999511719</ele>
        <time>2015-03-23T16:06:39.000Z</time>
      </trkpt>
      <trkpt lat="45.17931" lon="6.32928">
        <ele>1890.1999511719</ele>
        <time>2015-03-23T16:06:40.000Z</time>
      </trkpt>
      <trkpt lat="45.17933" lon="6.32922">
        <ele>1889</ele>
        <time>2015-03-23T16:06:41.000Z</time>
      </trkpt>
      <trkpt lat="45.17936" lon="6.32914">
        <ele>1887.8000488281</ele>
        <time>2015-03-23T16:06:42.000Z</time>
      </trkpt>
      <trkpt lat="45.17938" lon="6.32908">
        <ele>1886.8000488281</ele>
        <time>2015-03-23T16:06:43.000Z</time>
      </trkpt>
      <trkpt lat="45.17941" lon="6.32892">
        <ele>1884.8000488281</ele>
        <time>2015-03-23T16:06:45.000Z</time>
      </trkpt>
      <trkpt lat="45.17944" lon="6.32886">
        <ele>1883.4000244141</ele>
        <time>2015-03-23T16:06:46.000Z</time>
      </trkpt>
      <trkpt lat="45.17946" lon="6.32879">
        <ele>1881.5999755859</ele>
        <time>2015-03-23T16:06:47.000Z</time>
      </trkpt>
      <trkpt lat="45.17948" lon="6.32872">
        <ele>1879.5999755859</ele>
        <time>2015-03-23T16:06:48.000Z</time>
      </trkpt>
      <trkpt lat="45.17951" lon="6.32868">
        <ele>1878.1999511719</ele>
        <time>2015-03-23T16:06:49.000Z</time>
      </trkpt>
      <trkpt lat="45.17955" lon="6.32863">
        <ele>1877</ele>
        <time>2015-03-23T16:06:50.000Z</time>
      </trkpt>
      <trkpt lat="45.17959" lon="6.32862">
        <ele>1875.5999755859</ele>
        <time>2015-03-23T16:06:51.000Z</time>
      </trkpt>
      <trkpt lat="45.17965" lon="6.32862">
        <ele>1874</ele>
        <time>2015-03-23T16:06:52.000Z</time>
      </trkpt>
      <trkpt lat="45.1797" lon="6.32863">
        <ele>1872.5999755859</ele>
        <time>2015-03-23T16:06:53.000Z</time>
      </trkpt>
      <trkpt lat="45.17976" lon="6.32864">
        <ele>1871.5999755859</ele>
        <time>2015-03-23T16:06:54.000Z</time>
      </trkpt>
      <trkpt lat="45.17982" lon="6.32866">
        <ele>1870.8000488281</ele>
        <time>2015-03-23T16:06:55.000Z</time>
      </trkpt>
      <trkpt lat="45.17988" lon="6.32867">
        <ele>1870</ele>
        <time>2015-03-23T16:06:56.000Z</time>
      </trkpt>
      <trkpt lat="45.17991" lon="6.32868">
        <ele>1869.4000244141</ele>
        <time>2015-03-23T16:06:57.000Z</time>
      </trkpt>
      <trkpt lat="45.17995" lon="6.3287">
        <ele>1868.4000244141</ele>
        <time>2015-03-23T16:06:58.000Z</time>
      </trkpt>
      <trkpt lat="45.17996" lon="6.32872">
        <ele>1866.4000244141</ele>
        <time>2015-03-23T16:07:00.000Z</time>
      </trkpt>
      <trkpt lat="45.17996" lon="6.32872">
        <ele>1865.1999511719</ele>
        <time>2015-03-23T16:07:01.000Z</time>
      </trkpt>
      <trkpt lat="45.17996" lon="6.32872">
        <ele>1864.1999511719</ele>
        <time>2015-03-23T16:07:02.000Z</time>
      </trkpt>
      <trkpt lat="45.17996" lon="6.32872">
        <ele>1862.8000488281</ele>
        <time>2015-03-23T16:07:04.000Z</time>
      </trkpt>
      <trkpt lat="45.17996" lon="6.32872">
        <ele>1862.5999755859</ele>
        <time>2015-03-23T16:07:05.000Z</time>
      </trkpt>
      <trkpt lat="45.17999" lon="6.32871">
        <ele>1862.1999511719</ele>
        <time>2015-03-23T16:07:07.000Z</time>
      </trkpt>
      <trkpt lat="45.18002" lon="6.32871">
        <ele>1862.1999511719</ele>
        <time>2015-03-23T16:07:08.000Z</time>
      </trkpt>
      <trkpt lat="45.18008" lon="6.32874">
        <ele>1861.5999755859</ele>
        <time>2015-03-23T16:07:10.000Z</time>
      </trkpt>
      <trkpt lat="45.18016" lon="6.32874">
        <ele>1861.4000244141</ele>
        <time>2015-03-23T16:07:12.000Z</time>
      </trkpt>
      <trkpt lat="45.18021" lon="6.32872">
        <ele>1861.1999511719</ele>
        <time>2015-03-23T16:07:13.000Z</time>
      </trkpt>
      <trkpt lat="45.18029" lon="6.32867">
        <ele>1860.5999755859</ele>
        <time>2015-03-23T16:07:15.000Z</time>
      </trkpt>
      <trkpt lat="45.18033" lon="6.32865">
        <ele>1860</ele>
        <time>2015-03-23T16:07:16.000Z</time>
      </trkpt>
      <trkpt lat="45.18036" lon="6.32862">
        <ele>1859.8000488281</ele>
        <time>2015-03-23T16:07:17.000Z</time>
      </trkpt>
      <trkpt lat="45.18038" lon="6.3286">
        <ele>1859.4000244141</ele>
        <time>2015-03-23T16:07:18.000Z</time>
      </trkpt>
      <trkpt lat="45.18046" lon="6.32853">
        <ele>1858.1999511719</ele>
        <time>2015-03-23T16:07:22.000Z</time>
      </trkpt>
      <trkpt lat="45.18046" lon="6.32854">
        <ele>1857.1999511719</ele>
        <time>2015-03-23T16:07:28.000Z</time>
      </trkpt>
      <trkpt lat="45.18046" lon="6.32854">
        <ele>1857.1999511719</ele>
        <time>2015-03-23T16:07:29.000Z</time>
      </trkpt>
      <trkpt lat="45.18046" lon="6.32853">
        <ele>1856.8000488281</ele>
        <time>2015-03-23T16:07:36.000Z</time>
      </trkpt>
      <trkpt lat="45.18049" lon="6.3285">
        <ele>1856.5999755859</ele>
        <time>2015-03-23T16:07:37.000Z</time>
      </trkpt>
      <trkpt lat="45.18059" lon="6.32838">
        <ele>1856.1999511719</ele>
        <time>2015-03-23T16:07:40.000Z</time>
      </trkpt>
      <trkpt lat="45.18061" lon="6.32832">
        <ele>1855.8000488281</ele>
        <time>2015-03-23T16:07:41.000Z</time>
      </trkpt>
      <trkpt lat="45.18069" lon="6.32818">
        <ele>1854.5999755859</ele>
        <time>2015-03-23T16:07:43.000Z</time>
      </trkpt>
      <trkpt lat="45.18069" lon="6.3281">
        <ele>1853.4000244141</ele>
        <time>2015-03-23T16:07:44.000Z</time>
      </trkpt>
      <trkpt lat="45.1807" lon="6.32801">
        <ele>1852.1999511719</ele>
        <time>2015-03-23T16:07:45.000Z</time>
      </trkpt>
      <trkpt lat="45.18074" lon="6.32793">
        <ele>1849.4000244141</ele>
        <time>2015-03-23T16:07:46.000Z</time>
      </trkpt>
      <trkpt lat="45.18075" lon="6.32784">
        <ele>1847.8000488281</ele>
        <time>2015-03-23T16:07:47.000Z</time>
      </trkpt>
      <trkpt lat="45.18074" lon="6.32775">
        <ele>1845.8000488281</ele>
        <time>2015-03-23T16:07:48.000Z</time>
      </trkpt>
      <trkpt lat="45.18075" lon="6.32765">
        <ele>1844</ele>
        <time>2015-03-23T16:07:49.000Z</time>
      </trkpt>
      <trkpt lat="45.18076" lon="6.32755">
        <ele>1842.1999511719</ele>
        <time>2015-03-23T16:07:50.000Z</time>
      </trkpt>
      <trkpt lat="45.18077" lon="6.32745">
        <ele>1840</ele>
        <time>2015-03-23T16:07:51.000Z</time>
      </trkpt>
      <trkpt lat="45.18079" lon="6.32733">
        <ele>1838.1999511719</ele>
        <time>2015-03-23T16:07:52.000Z</time>
      </trkpt>
      <trkpt lat="45.1808" lon="6.3272">
        <ele>1836.4000244141</ele>
        <time>2015-03-23T16:07:53.000Z</time>
      </trkpt>
      <trkpt lat="45.18081" lon="6.32708">
        <ele>1834.8000488281</ele>
        <time>2015-03-23T16:07:54.000Z</time>
      </trkpt>
      <trkpt lat="45.18082" lon="6.32697">
        <ele>1833</ele>
        <time>2015-03-23T16:07:55.000Z</time>
      </trkpt>
      <trkpt lat="45.18086" lon="6.32687">
        <ele>1831.5999755859</ele>
        <time>2015-03-23T16:07:56.000Z</time>
      </trkpt>
      <trkpt lat="45.18088" lon="6.32675">
        <ele>1830.1999511719</ele>
        <time>2015-03-23T16:07:57.000Z</time>
      </trkpt>
      <trkpt lat="45.1809" lon="6.32665">
        <ele>1829</ele>
        <time>2015-03-23T16:07:58.000Z</time>
      </trkpt>
      <trkpt lat="45.18092" lon="6.32656">
        <ele>1827.5999755859</ele>
        <time>2015-03-23T16:07:59.000Z</time>
      </trkpt>
      <trkpt lat="45.18093" lon="6.3265">
        <ele>1826.4000244141</ele>
        <time>2015-03-23T16:08:00.000Z</time>
      </trkpt>
      <trkpt lat="45.18092" lon="6.32649">
        <ele>1824.8000488281</ele>
        <time>2015-03-23T16:08:01.000Z</time>
      </trkpt>
      <trkpt lat="45.18092" lon="6.32648">
        <ele>1822.8000488281</ele>
        <time>2015-03-23T16:08:02.000Z</time>
      </trkpt>
      <trkpt lat="45.18092" lon="6.32646">
        <ele>1821</ele>
        <time>2015-03-23T16:08:03.000Z</time>
      </trkpt>
      <trkpt lat="45.18092" lon="6.32645">
        <ele>1819.1999511719</ele>
        <time>2015-03-23T16:08:04.000Z</time>
      </trkpt>
      <trkpt lat="45.18092" lon="6.32643">
        <ele>1818.1999511719</ele>
        <time>2015-03-23T16:08:05.000Z</time>
      </trkpt>
      <trkpt lat="45.18092" lon="6.32643">
        <ele>1816.8000488281</ele>
        <time>2015-03-23T16:08:07.000Z</time>
      </trkpt>
      <trkpt lat="45.18092" lon="6.32642">
        <ele>1815.1999511719</ele>
        <time>2015-03-23T16:08:10.000Z</time>
      </trkpt>
      <trkpt lat="45.18092" lon="6.32642">
        <ele>1814.8000488281</ele>
        <time>2015-03-23T16:08:12.000Z</time>
      </trkpt>
      <trkpt lat="45.18092" lon="6.3264">
        <ele>1814.1999511719</ele>
        <time>2015-03-23T16:08:20.000Z</time>
      </trkpt>
      <trkpt lat="45.1809" lon="6.32639">
        <ele>1814.1999511719</ele>
        <time>2015-03-23T16:08:23.000Z</time>
      </trkpt>
      <trkpt lat="45.1809" lon="6.32639">
        <ele>1814</ele>
        <time>2015-03-23T16:08:25.000Z</time>
      </trkpt>
      <trkpt lat="45.1809" lon="6.32639">
        <ele>1813.1999511719</ele>
        <time>2015-03-23T16:08:32.000Z</time>
      </trkpt>
      <trkpt lat="45.1809" lon="6.32639">
        <ele>1813</ele>
        <time>2015-03-23T16:08:34.000Z</time>
      </trkpt>
      <trkpt lat="45.18089" lon="6.32636">
        <ele>1812.4000244141</ele>
        <time>2015-03-23T16:08:44.000Z</time>
      </trkpt>
      <trkpt lat="45.18088" lon="6.32628">
        <ele>1812</ele>
        <time>2015-03-23T16:08:47.000Z</time>
      </trkpt>
      <trkpt lat="45.18088" lon="6.32626">
        <ele>1811.8000488281</ele>
        <time>2015-03-23T16:08:48.000Z</time>
      </trkpt>
      <trkpt lat="45.18087" lon="6.32621">
        <ele>1811.5999755859</ele>
        <time>2015-03-23T16:08:50.000Z</time>
      </trkpt>
      <trkpt lat="45.1808" lon="6.32609">
        <ele>1811</ele>
        <time>2015-03-23T16:08:56.000Z</time>
      </trkpt>
      <trkpt lat="45.18079" lon="6.32608">
        <ele>1811</ele>
        <time>2015-03-23T16:08:57.000Z</time>
      </trkpt>
      <trkpt lat="45.18079" lon="6.32607">
        <ele>1810.5999755859</ele>
        <time>2015-03-23T16:08:59.000Z</time>
      </trkpt>
      <trkpt lat="45.18077" lon="6.32603">
        <ele>1810.4000244141</ele>
        <time>2015-03-23T16:09:03.000Z</time>
      </trkpt>
      <trkpt lat="45.18074" lon="6.32589">
        <ele>1810.5999755859</ele>
        <time>2015-03-23T16:09:07.000Z</time>
      </trkpt>
      <trkpt lat="45.18071" lon="6.32574">
        <ele>1810.4000244141</ele>
        <time>2015-03-23T16:09:09.000Z</time>
      </trkpt>
      <trkpt lat="45.18067" lon="6.32555">
        <ele>1809.5999755859</ele>
        <time>2015-03-23T16:09:11.000Z</time>
      </trkpt>
      <trkpt lat="45.18062" lon="6.32535">
        <ele>1808.4000244141</ele>
        <time>2015-03-23T16:09:13.000Z</time>
      </trkpt>
      <trkpt lat="45.1806" lon="6.32526">
        <ele>1807.8000488281</ele>
        <time>2015-03-23T16:09:14.000Z</time>
      </trkpt>
      <trkpt lat="45.18058" lon="6.32517">
        <ele>1807.1999511719</ele>
        <time>2015-03-23T16:09:15.000Z</time>
      </trkpt>
      <trkpt lat="45.1806" lon="6.32499">
        <ele>1805</ele>
        <time>2015-03-23T16:09:17.000Z</time>
      </trkpt>
      <trkpt lat="45.18061" lon="6.32494">
        <ele>1803.1999511719</ele>
        <time>2015-03-23T16:09:18.000Z</time>
      </trkpt>
      <trkpt lat="45.18062" lon="6.3249">
        <ele>1802</ele>
        <time>2015-03-23T16:09:19.000Z</time>
      </trkpt>
      <trkpt lat="45.18062" lon="6.32483">
        <ele>1800</ele>
        <time>2015-03-23T16:09:21.000Z</time>
      </trkpt>
      <trkpt lat="45.18062" lon="6.32479">
        <ele>1797</ele>
        <time>2015-03-23T16:09:22.000Z</time>
      </trkpt>
      <trkpt lat="45.18062" lon="6.32475">
        <ele>1795.4000244141</ele>
        <time>2015-03-23T16:09:23.000Z</time>
      </trkpt>
      <trkpt lat="45.18066" lon="6.32469">
        <ele>1794</ele>
        <time>2015-03-23T16:09:24.000Z</time>
      </trkpt>
      <trkpt lat="45.18067" lon="6.32463">
        <ele>1792.8000488281</ele>
        <time>2015-03-23T16:09:25.000Z</time>
      </trkpt>
      <trkpt lat="45.18068" lon="6.32451">
        <ele>1791</ele>
        <time>2015-03-23T16:09:27.000Z</time>
      </trkpt>
      <trkpt lat="45.18071" lon="6.32444">
        <ele>1790</ele>
        <time>2015-03-23T16:09:28.000Z</time>
      </trkpt>
      <trkpt lat="45.1807" lon="6.32439">
        <ele>1788.5999755859</ele>
        <time>2015-03-23T16:09:29.000Z</time>
      </trkpt>
      <trkpt lat="45.18071" lon="6.32432">
        <ele>1787.1999511719</ele>
        <time>2015-03-23T16:09:30.000Z</time>
      </trkpt>
      <trkpt lat="45.18072" lon="6.32424">
        <ele>1785.8000488281</ele>
        <time>2015-03-23T16:09:31.000Z</time>
      </trkpt>
      <trkpt lat="45.18077" lon="6.32418">
        <ele>1784.1999511719</ele>
        <time>2015-03-23T16:09:32.000Z</time>
      </trkpt>
      <trkpt lat="45.18082" lon="6.32411">
        <ele>1782</ele>
        <time>2015-03-23T16:09:33.000Z</time>
      </trkpt>
      <trkpt lat="45.18086" lon="6.32405">
        <ele>1780.1999511719</ele>
        <time>2015-03-23T16:09:34.000Z</time>
      </trkpt>
      <trkpt lat="45.18086" lon="6.32399">
        <ele>1779</ele>
        <time>2015-03-23T16:09:35.000Z</time>
      </trkpt>
      <trkpt lat="45.18087" lon="6.32391">
        <ele>1778</ele>
        <time>2015-03-23T16:09:36.000Z</time>
      </trkpt>
      <trkpt lat="45.18088" lon="6.32383">
        <ele>1777</ele>
        <time>2015-03-23T16:09:37.000Z</time>
      </trkpt>
      <trkpt lat="45.18091" lon="6.32373">
        <ele>1775.1999511719</ele>
        <time>2015-03-23T16:09:38.000Z</time>
      </trkpt>
      <trkpt lat="45.18092" lon="6.32362">
        <ele>1773</ele>
        <time>2015-03-23T16:09:39.000Z</time>
      </trkpt>
      <trkpt lat="45.18094" lon="6.32351">
        <ele>1771.4000244141</ele>
        <time>2015-03-23T16:09:40.000Z</time>
      </trkpt>
      <trkpt lat="45.18096" lon="6.32339">
        <ele>1770.1999511719</ele>
        <time>2015-03-23T16:09:41.000Z</time>
      </trkpt>
      <trkpt lat="45.18099" lon="6.32327">
        <ele>1769</ele>
        <time>2015-03-23T16:09:42.000Z</time>
      </trkpt>
      <trkpt lat="45.18103" lon="6.32316">
        <ele>1767.5999755859</ele>
        <time>2015-03-23T16:09:43.000Z</time>
      </trkpt>
      <trkpt lat="45.18107" lon="6.32307">
        <ele>1766.1999511719</ele>
        <time>2015-03-23T16:09:44.000Z</time>
      </trkpt>
      <trkpt lat="45.18112" lon="6.32302">
        <ele>1764.8000488281</ele>
        <time>2015-03-23T16:09:45.000Z</time>
      </trkpt>
      <trkpt lat="45.18116" lon="6.32297">
        <ele>1762.5999755859</ele>
        <time>2015-03-23T16:09:46.000Z</time>
      </trkpt>
      <trkpt lat="45.18119" lon="6.32291">
        <ele>1761.5999755859</ele>
        <time>2015-03-23T16:09:47.000Z</time>
      </trkpt>
      <trkpt lat="45.18124" lon="6.32284">
        <ele>1760.4000244141</ele>
        <time>2015-03-23T16:09:48.000Z</time>
      </trkpt>
      <trkpt lat="45.18128" lon="6.32277">
        <ele>1759.1999511719</ele>
        <time>2015-03-23T16:09:49.000Z</time>
      </trkpt>
      <trkpt lat="45.18133" lon="6.3227">
        <ele>1758</ele>
        <time>2015-03-23T16:09:50.000Z</time>
      </trkpt>
      <trkpt lat="45.18144" lon="6.32257">
        <ele>1756.1999511719</ele>
        <time>2015-03-23T16:09:52.000Z</time>
      </trkpt>
      <trkpt lat="45.1815" lon="6.32251">
        <ele>1755.1999511719</ele>
        <time>2015-03-23T16:09:53.000Z</time>
      </trkpt>
      <trkpt lat="45.18157" lon="6.32245">
        <ele>1754.1999511719</ele>
        <time>2015-03-23T16:09:54.000Z</time>
      </trkpt>
      <trkpt lat="45.18163" lon="6.32239">
        <ele>1753.1999511719</ele>
        <time>2015-03-23T16:09:55.000Z</time>
      </trkpt>
      <trkpt lat="45.18166" lon="6.32233">
        <ele>1752.1999511719</ele>
        <time>2015-03-23T16:09:56.000Z</time>
      </trkpt>
      <trkpt lat="45.1817" lon="6.32226">
        <ele>1751.4000244141</ele>
        <time>2015-03-23T16:09:57.000Z</time>
      </trkpt>
      <trkpt lat="45.18173" lon="6.3222">
        <ele>1750</ele>
        <time>2015-03-23T16:09:58.000Z</time>
      </trkpt>
      <trkpt lat="45.18177" lon="6.32217">
        <ele>1748.4000244141</ele>
        <time>2015-03-23T16:09:59.000Z</time>
      </trkpt>
      <trkpt lat="45.18181" lon="6.32216">
        <ele>1746.8000488281</ele>
        <time>2015-03-23T16:10:00.000Z</time>
      </trkpt>
      <trkpt lat="45.18184" lon="6.32214">
        <ele>1745.4000244141</ele>
        <time>2015-03-23T16:10:01.000Z</time>
      </trkpt>
      <trkpt lat="45.18185" lon="6.32209">
        <ele>1744.1999511719</ele>
        <time>2015-03-23T16:10:02.000Z</time>
      </trkpt>
      <trkpt lat="45.18189" lon="6.32198">
        <ele>1742.4000244141</ele>
        <time>2015-03-23T16:10:04.000Z</time>
      </trkpt>
      <trkpt lat="45.18188" lon="6.32185">
        <ele>1740.8000488281</ele>
        <time>2015-03-23T16:10:06.000Z</time>
      </trkpt>
      <trkpt lat="45.1819" lon="6.32176">
        <ele>1739.8000488281</ele>
        <time>2015-03-23T16:10:07.000Z</time>
      </trkpt>
      <trkpt lat="45.18192" lon="6.32167">
        <ele>1738.8000488281</ele>
        <time>2015-03-23T16:10:08.000Z</time>
      </trkpt>
      <trkpt lat="45.18196" lon="6.3216">
        <ele>1737.4000244141</ele>
        <time>2015-03-23T16:10:09.000Z</time>
      </trkpt>
      <trkpt lat="45.182" lon="6.32158">
        <ele>1735</ele>
        <time>2015-03-23T16:10:10.000Z</time>
      </trkpt>
      <trkpt lat="45.18205" lon="6.32152">
        <ele>1733.1999511719</ele>
        <time>2015-03-23T16:10:12.000Z</time>
      </trkpt>
      <trkpt lat="45.1821" lon="6.32152">
        <ele>1732</ele>
        <time>2015-03-23T16:10:13.000Z</time>
      </trkpt>
      <trkpt lat="45.18215" lon="6.32152">
        <ele>1730.5999755859</ele>
        <time>2015-03-23T16:10:14.000Z</time>
      </trkpt>
      <trkpt lat="45.1822" lon="6.32147">
        <ele>1729.1999511719</ele>
        <time>2015-03-23T16:10:15.000Z</time>
      </trkpt>
      <trkpt lat="45.18225" lon="6.32142">
        <ele>1728.4000244141</ele>
        <time>2015-03-23T16:10:16.000Z</time>
      </trkpt>
      <trkpt lat="45.18228" lon="6.3214">
        <ele>1727.5999755859</ele>
        <time>2015-03-23T16:10:17.000Z</time>
      </trkpt>
      <trkpt lat="45.1823" lon="6.32138">
        <ele>1726.5999755859</ele>
        <time>2015-03-23T16:10:18.000Z</time>
      </trkpt>
      <trkpt lat="45.1823" lon="6.32139">
        <ele>1725.1999511719</ele>
        <time>2015-03-23T16:10:19.000Z</time>
      </trkpt>
      <trkpt lat="45.1823" lon="6.32139">
        <ele>1723.5999755859</ele>
        <time>2015-03-23T16:10:20.000Z</time>
      </trkpt>
      <trkpt lat="45.1823" lon="6.32139">
        <ele>1722.4000244141</ele>
        <time>2015-03-23T16:10:21.000Z</time>
      </trkpt>
      <trkpt lat="45.1823" lon="6.32139">
        <ele>1720.8000488281</ele>
        <time>2015-03-23T16:10:23.000Z</time>
      </trkpt>
      <trkpt lat="45.1823" lon="6.32139">
        <ele>1720.1999511719</ele>
        <time>2015-03-23T16:10:25.000Z</time>
      </trkpt>
      <trkpt lat="45.1823" lon="6.32139">
        <ele>1720.5999755859</ele>
        <time>2015-03-23T16:10:31.000Z</time>
      </trkpt>
      <trkpt lat="45.1823" lon="6.32139">
        <ele>1720.8000488281</ele>
        <time>2015-03-23T16:10:42.000Z</time>
      </trkpt>
      <trkpt lat="45.18229" lon="6.32134">
        <ele>1720.1999511719</ele>
        <time>2015-03-23T16:10:52.000Z</time>
      </trkpt>
      <trkpt lat="45.18232" lon="6.32123">
        <ele>1720</ele>
        <time>2015-03-23T16:10:54.000Z</time>
      </trkpt>
      <trkpt lat="45.18234" lon="6.32115">
        <ele>1719.8000488281</ele>
        <time>2015-03-23T16:10:55.000Z</time>
      </trkpt>
      <trkpt lat="45.18233" lon="6.3211">
        <ele>1719.4000244141</ele>
        <time>2015-03-23T16:10:56.000Z</time>
      </trkpt>
      <trkpt lat="45.18232" lon="6.32105">
        <ele>1719</ele>
        <time>2015-03-23T16:10:57.000Z</time>
      </trkpt>
      <trkpt lat="45.18233" lon="6.321">
        <ele>1717.8000488281</ele>
        <time>2015-03-23T16:10:58.000Z</time>
      </trkpt>
      <trkpt lat="45.18239" lon="6.32097">
        <ele>1715.8000488281</ele>
        <time>2015-03-23T16:11:00.000Z</time>
      </trkpt>
      <trkpt lat="45.18239" lon="6.3209">
        <ele>1714.8000488281</ele>
        <time>2015-03-23T16:11:01.000Z</time>
      </trkpt>
      <trkpt lat="45.18238" lon="6.32084">
        <ele>1714</ele>
        <time>2015-03-23T16:11:02.000Z</time>
      </trkpt>
      <trkpt lat="45.18236" lon="6.32078">
        <ele>1713.5999755859</ele>
        <time>2015-03-23T16:11:03.000Z</time>
      </trkpt>
      <trkpt lat="45.18234" lon="6.32071">
        <ele>1713</ele>
        <time>2015-03-23T16:11:04.000Z</time>
      </trkpt>
      <trkpt lat="45.18231" lon="6.32067">
        <ele>1712</ele>
        <time>2015-03-23T16:11:05.000Z</time>
      </trkpt>
      <trkpt lat="45.18231" lon="6.32062">
        <ele>1711.1999511719</ele>
        <time>2015-03-23T16:11:06.000Z</time>
      </trkpt>
      <trkpt lat="45.18233" lon="6.32057">
        <ele>1710.4000244141</ele>
        <time>2015-03-23T16:11:07.000Z</time>
      </trkpt>
      <trkpt lat="45.18232" lon="6.32046">
        <ele>1708.4000244141</ele>
        <time>2015-03-23T16:11:09.000Z</time>
      </trkpt>
      <trkpt lat="45.18226" lon="6.32033">
        <ele>1706.5999755859</ele>
        <time>2015-03-23T16:11:11.000Z</time>
      </trkpt>
      <trkpt lat="45.18225" lon="6.32024">
        <ele>1705.5999755859</ele>
        <time>2015-03-23T16:11:12.000Z</time>
      </trkpt>
      <trkpt lat="45.18227" lon="6.32016">
        <ele>1704.1999511719</ele>
        <time>2015-03-23T16:11:13.000Z</time>
      </trkpt>
      <trkpt lat="45.18231" lon="6.32009">
        <ele>1702.5999755859</ele>
        <time>2015-03-23T16:11:14.000Z</time>
      </trkpt>
      <trkpt lat="45.18234" lon="6.32003">
        <ele>1701.5999755859</ele>
        <time>2015-03-23T16:11:15.000Z</time>
      </trkpt>
      <trkpt lat="45.18237" lon="6.31999">
        <ele>1700.8000488281</ele>
        <time>2015-03-23T16:11:16.000Z</time>
      </trkpt>
      <trkpt lat="45.18238" lon="6.31998">
        <ele>1700</ele>
        <time>2015-03-23T16:11:17.000Z</time>
      </trkpt>
      <trkpt lat="45.18239" lon="6.31998">
        <ele>1699.1999511719</ele>
        <time>2015-03-23T16:11:18.000Z</time>
      </trkpt>
      <trkpt lat="45.18239" lon="6.31998">
        <ele>1698.1999511719</ele>
        <time>2015-03-23T16:11:19.000Z</time>
      </trkpt>
      <trkpt lat="45.18239" lon="6.31998">
        <ele>1696.8000488281</ele>
        <time>2015-03-23T16:11:21.000Z</time>
      </trkpt>
      <trkpt lat="45.18238" lon="6.31996">
        <ele>1695.8000488281</ele>
        <time>2015-03-23T16:11:24.000Z</time>
      </trkpt>
      <trkpt lat="45.18231" lon="6.31982">
        <ele>1695.8000488281</ele>
        <time>2015-03-23T16:11:26.000Z</time>
      </trkpt>
      <trkpt lat="45.18221" lon="6.31968">
        <ele>1695.1999511719</ele>
        <time>2015-03-23T16:11:28.000Z</time>
      </trkpt>
      <trkpt lat="45.18217" lon="6.31965">
        <ele>1694.8000488281</ele>
        <time>2015-03-23T16:11:29.000Z</time>
      </trkpt>
      <trkpt lat="45.18214" lon="6.31962">
        <ele>1694.1999511719</ele>
        <time>2015-03-23T16:11:30.000Z</time>
      </trkpt>
      <trkpt lat="45.18215" lon="6.31959">
        <ele>1693.5999755859</ele>
        <time>2015-03-23T16:11:31.000Z</time>
      </trkpt>
      <trkpt lat="45.18216" lon="6.31956">
        <ele>1691.5999755859</ele>
        <time>2015-03-23T16:11:33.000Z</time>
      </trkpt>
      <trkpt lat="45.18212" lon="6.31949">
        <ele>1689.8000488281</ele>
        <time>2015-03-23T16:11:35.000Z</time>
      </trkpt>
      <trkpt lat="45.1821" lon="6.31944">
        <ele>1689.1999511719</ele>
        <time>2015-03-23T16:11:36.000Z</time>
      </trkpt>
      <trkpt lat="45.18207" lon="6.31939">
        <ele>1688.8000488281</ele>
        <time>2015-03-23T16:11:37.000Z</time>
      </trkpt>
      <trkpt lat="45.18206" lon="6.31931">
        <ele>1687.4000244141</ele>
        <time>2015-03-23T16:11:39.000Z</time>
      </trkpt>
      <trkpt lat="45.18205" lon="6.31924">
        <ele>1686.5999755859</ele>
        <time>2015-03-23T16:11:40.000Z</time>
      </trkpt>
      <trkpt lat="45.18203" lon="6.3192">
        <ele>1685.5999755859</ele>
        <time>2015-03-23T16:11:41.000Z</time>
      </trkpt>
      <trkpt lat="45.18202" lon="6.31914">
        <ele>1684.8000488281</ele>
        <time>2015-03-23T16:11:42.000Z</time>
      </trkpt>
      <trkpt lat="45.18199" lon="6.31908">
        <ele>1683.8000488281</ele>
        <time>2015-03-23T16:11:43.000Z</time>
      </trkpt>
      <trkpt lat="45.18196" lon="6.319">
        <ele>1682.8000488281</ele>
        <time>2015-03-23T16:11:44.000Z</time>
      </trkpt>
      <trkpt lat="45.18196" lon="6.31892">
        <ele>1681.1999511719</ele>
        <time>2015-03-23T16:11:45.000Z</time>
      </trkpt>
      <trkpt lat="45.18197" lon="6.31885">
        <ele>1678.8000488281</ele>
        <time>2015-03-23T16:11:46.000Z</time>
      </trkpt>
      <trkpt lat="45.18195" lon="6.31873">
        <ele>1677</ele>
        <time>2015-03-23T16:11:48.000Z</time>
      </trkpt>
      <trkpt lat="45.18194" lon="6.31869">
        <ele>1676.1999511719</ele>
        <time>2015-03-23T16:11:49.000Z</time>
      </trkpt>
      <trkpt lat="45.18194" lon="6.31864">
        <ele>1675.4000244141</ele>
        <time>2015-03-23T16:11:50.000Z</time>
      </trkpt>
      <trkpt lat="45.18193" lon="6.31852">
        <ele>1674.1999511719</ele>
        <time>2015-03-23T16:11:52.000Z</time>
      </trkpt>
      <trkpt lat="45.18193" lon="6.31844">
        <ele>1673.5999755859</ele>
        <time>2015-03-23T16:11:53.000Z</time>
      </trkpt>
      <trkpt lat="45.18192" lon="6.31836">
        <ele>1673.1999511719</ele>
        <time>2015-03-23T16:11:54.000Z</time>
      </trkpt>
      <trkpt lat="45.18191" lon="6.31827">
        <ele>1672.8000488281</ele>
        <time>2015-03-23T16:11:55.000Z</time>
      </trkpt>
      <trkpt lat="45.18189" lon="6.31809">
        <ele>1671.5999755859</ele>
        <time>2015-03-23T16:11:57.000Z</time>
      </trkpt>
      <trkpt lat="45.18191" lon="6.31801">
        <ele>1671</ele>
        <time>2015-03-23T16:11:58.000Z</time>
      </trkpt>
      <trkpt lat="45.18191" lon="6.31793">
        <ele>1670.5999755859</ele>
        <time>2015-03-23T16:11:59.000Z</time>
      </trkpt>
      <trkpt lat="45.18192" lon="6.31785">
        <ele>1670</ele>
        <time>2015-03-23T16:12:00.000Z</time>
      </trkpt>
      <trkpt lat="45.18191" lon="6.31778">
        <ele>1669.4000244141</ele>
        <time>2015-03-23T16:12:01.000Z</time>
      </trkpt>
      <trkpt lat="45.1819" lon="6.31762">
        <ele>1668.1999511719</ele>
        <time>2015-03-23T16:12:03.000Z</time>
      </trkpt>
      <trkpt lat="45.1819" lon="6.31746">
        <ele>1667</ele>
        <time>2015-03-23T16:12:05.000Z</time>
      </trkpt>
      <trkpt lat="45.18191" lon="6.31736">
        <ele>1666</ele>
        <time>2015-03-23T16:12:07.000Z</time>
      </trkpt>
      <trkpt lat="45.18192" lon="6.31734">
        <ele>1664.4000244141</ele>
        <time>2015-03-23T16:12:09.000Z</time>
      </trkpt>
      <trkpt lat="45.18192" lon="6.31732">
        <ele>1663.5999755859</ele>
        <time>2015-03-23T16:12:10.000Z</time>
      </trkpt>
      <trkpt lat="45.18192" lon="6.3173">
        <ele>1662.4000244141</ele>
        <time>2015-03-23T16:12:11.000Z</time>
      </trkpt>
      <trkpt lat="45.18192" lon="6.31733">
        <ele>1661</ele>
        <time>2015-03-23T16:12:14.000Z</time>
      </trkpt>
      <trkpt lat="45.18193" lon="6.31738">
        <ele>1660</ele>
        <time>2015-03-23T16:12:19.000Z</time>
      </trkpt>
      <trkpt lat="45.18194" lon="6.31738">
        <ele>1659.8000488281</ele>
        <time>2015-03-23T16:12:26.000Z</time>
      </trkpt>
      <trkpt lat="45.18194" lon="6.31734">
        <ele>1660</ele>
        <time>2015-03-23T16:12:29.000Z</time>
      </trkpt>
      <trkpt lat="45.18195" lon="6.3173">
        <ele>1660</ele>
        <time>2015-03-23T16:12:31.000Z</time>
      </trkpt>
      <trkpt lat="45.18196" lon="6.31724">
        <ele>1660</ele>
        <time>2015-03-23T16:12:33.000Z</time>
      </trkpt>
      <trkpt lat="45.18198" lon="6.3171">
        <ele>1659.1999511719</ele>
        <time>2015-03-23T16:12:38.000Z</time>
      </trkpt>
      <trkpt lat="45.182" lon="6.31704">
        <ele>1658.8000488281</ele>
        <time>2015-03-23T16:12:40.000Z</time>
      </trkpt>
      <trkpt lat="45.18205" lon="6.31686">
        <ele>1658.5999755859</ele>
        <time>2015-03-23T16:12:44.000Z</time>
      </trkpt>
      <trkpt lat="45.18214" lon="6.31675">
        <ele>1658.1999511719</ele>
        <time>2015-03-23T16:12:47.000Z</time>
      </trkpt>
      <trkpt lat="45.18218" lon="6.31671">
        <ele>1657.8000488281</ele>
        <time>2015-03-23T16:12:48.000Z</time>
      </trkpt>
      <trkpt lat="45.18222" lon="6.31668">
        <ele>1657.5999755859</ele>
        <time>2015-03-23T16:12:49.000Z</time>
      </trkpt>
      <trkpt lat="45.18229" lon="6.31663">
        <ele>1656.5999755859</ele>
        <time>2015-03-23T16:12:52.000Z</time>
      </trkpt>
      <trkpt lat="45.1823" lon="6.31663">
        <ele>1656.4000244141</ele>
        <time>2015-03-23T16:12:53.000Z</time>
      </trkpt>
      <trkpt lat="45.1823" lon="6.31664">
        <ele>1655.5999755859</ele>
        <time>2015-03-23T16:12:59.000Z</time>
      </trkpt>
      <trkpt lat="45.18229" lon="6.31665">
        <ele>1655.4000244141</ele>
        <time>2015-03-23T16:13:04.000Z</time>
      </trkpt>
      <trkpt lat="45.18229" lon="6.31665">
        <ele>1655.5999755859</ele>
        <time>2015-03-23T16:13:09.000Z</time>
      </trkpt>
      <trkpt lat="45.18229" lon="6.31665">
        <ele>1656.1999511719</ele>
        <time>2015-03-23T16:13:14.000Z</time>
      </trkpt>
      <trkpt lat="45.18232" lon="6.31665">
        <ele>1655.5999755859</ele>
        <time>2015-03-23T16:13:23.000Z</time>
      </trkpt>
      <trkpt lat="45.18243" lon="6.31661">
        <ele>1654.8000488281</ele>
        <time>2015-03-23T16:13:27.000Z</time>
      </trkpt>
      <trkpt lat="45.18249" lon="6.31659">
        <ele>1654.5999755859</ele>
        <time>2015-03-23T16:13:28.000Z</time>
      </trkpt>
      <trkpt lat="45.18265" lon="6.31655">
        <ele>1653.8000488281</ele>
        <time>2015-03-23T16:13:31.000Z</time>
      </trkpt>
      <trkpt lat="45.1827" lon="6.31655">
        <ele>1653.5999755859</ele>
        <time>2015-03-23T16:13:32.000Z</time>
      </trkpt>
      <trkpt lat="45.18276" lon="6.31655">
        <ele>1653.4000244141</ele>
        <time>2015-03-23T16:13:33.000Z</time>
      </trkpt>
      <trkpt lat="45.1829" lon="6.31659">
        <ele>1652.4000244141</ele>
        <time>2015-03-23T16:13:36.000Z</time>
      </trkpt>
      <trkpt lat="45.18294" lon="6.31662">
        <ele>1652</ele>
        <time>2015-03-23T16:13:37.000Z</time>
      </trkpt>
      <trkpt lat="45.18299" lon="6.31666">
        <ele>1651.5999755859</ele>
        <time>2015-03-23T16:13:38.000Z</time>
      </trkpt>
      <trkpt lat="45.18305" lon="6.3167">
        <ele>1651</ele>
        <time>2015-03-23T16:13:39.000Z</time>
      </trkpt>
      <trkpt lat="45.18315" lon="6.31679">
        <ele>1650.1999511719</ele>
        <time>2015-03-23T16:13:41.000Z</time>
      </trkpt>
      <trkpt lat="45.18321" lon="6.31684">
        <ele>1649.5999755859</ele>
        <time>2015-03-23T16:13:42.000Z</time>
      </trkpt>
      <trkpt lat="45.18333" lon="6.31691">
        <ele>1648.5999755859</ele>
        <time>2015-03-23T16:13:44.000Z</time>
      </trkpt>
      <trkpt lat="45.18342" lon="6.31696">
        <ele>1647</ele>
        <time>2015-03-23T16:13:46.000Z</time>
      </trkpt>
      <trkpt lat="45.18347" lon="6.31698">
        <ele>1645.4000244141</ele>
        <time>2015-03-23T16:13:47.000Z</time>
      </trkpt>
      <trkpt lat="45.18357" lon="6.31702">
        <ele>1643.5999755859</ele>
        <time>2015-03-23T16:13:49.000Z</time>
      </trkpt>
      <trkpt lat="45.18366" lon="6.31706">
        <ele>1641.8000488281</ele>
        <time>2015-03-23T16:13:51.000Z</time>
      </trkpt>
      <trkpt lat="45.1837" lon="6.31709">
        <ele>1641</ele>
        <time>2015-03-23T16:13:52.000Z</time>
      </trkpt>
      <trkpt lat="45.18374" lon="6.31712">
        <ele>1640.1999511719</ele>
        <time>2015-03-23T16:13:53.000Z</time>
      </trkpt>
      <trkpt lat="45.1838" lon="6.31716">
        <ele>1639</ele>
        <time>2015-03-23T16:13:55.000Z</time>
      </trkpt>
      <trkpt lat="45.18387" lon="6.31722">
        <ele>1638.1999511719</ele>
        <time>2015-03-23T16:13:57.000Z</time>
      </trkpt>
      <trkpt lat="45.1839" lon="6.31726">
        <ele>1637.5999755859</ele>
        <time>2015-03-23T16:13:58.000Z</time>
      </trkpt>
      <trkpt lat="45.18404" lon="6.3174">
        <ele>1636.1999511719</ele>
        <time>2015-03-23T16:14:01.000Z</time>
      </trkpt>
      <trkpt lat="45.18409" lon="6.31745">
        <ele>1635.5999755859</ele>
        <time>2015-03-23T16:14:02.000Z</time>
      </trkpt>
      <trkpt lat="45.18419" lon="6.31754">
        <ele>1634.8000488281</ele>
        <time>2015-03-23T16:14:04.000Z</time>
      </trkpt>
      <trkpt lat="45.18429" lon="6.31761">
        <ele>1633.8000488281</ele>
        <time>2015-03-23T16:14:06.000Z</time>
      </trkpt>
      <trkpt lat="45.18438" lon="6.31765">
        <ele>1632.1999511719</ele>
        <time>2015-03-23T16:14:08.000Z</time>
      </trkpt>
      <trkpt lat="45.18446" lon="6.31766">
        <ele>1630.8000488281</ele>
        <time>2015-03-23T16:14:10.000Z</time>
      </trkpt>
      <trkpt lat="45.1845" lon="6.31766">
        <ele>1629</ele>
        <time>2015-03-23T16:14:11.000Z</time>
      </trkpt>
      <trkpt lat="45.18453" lon="6.31765">
        <ele>1628.1999511719</ele>
        <time>2015-03-23T16:14:12.000Z</time>
      </trkpt>
      <trkpt lat="45.18456" lon="6.31764">
        <ele>1627.8000488281</ele>
        <time>2015-03-23T16:14:13.000Z</time>
      </trkpt>
      <trkpt lat="45.18461" lon="6.3176">
        <ele>1626.8000488281</ele>
        <time>2015-03-23T16:14:16.000Z</time>
      </trkpt>
      <trkpt lat="45.18462" lon="6.31759">
        <ele>1626.4000244141</ele>
        <time>2015-03-23T16:14:17.000Z</time>
      </trkpt>
      <trkpt lat="45.18465" lon="6.31756">
        <ele>1625.5999755859</ele>
        <time>2015-03-23T16:14:21.000Z</time>
      </trkpt>
      <trkpt lat="45.18465" lon="6.31755">
        <ele>1625.4000244141</ele>
        <time>2015-03-23T16:14:26.000Z</time>
      </trkpt>
      <trkpt lat="45.18471" lon="6.31752">
        <ele>1625.4000244141</ele>
        <time>2015-03-23T16:14:32.000Z</time>
      </trkpt>
      <trkpt lat="45.18478" lon="6.31752">
        <ele>1625.1999511719</ele>
        <time>2015-03-23T16:14:41.000Z</time>
      </trkpt>
      <trkpt lat="45.18477" lon="6.31755">
        <ele>1624.1999511719</ele>
        <time>2015-03-23T16:14:47.000Z</time>
      </trkpt>
      <trkpt lat="45.18477" lon="6.31755">
        <ele>1622.1999511719</ele>
        <time>2015-03-23T16:14:48.000Z</time>
      </trkpt>
      <trkpt lat="45.18477" lon="6.31755">
        <ele>1619.5999755859</ele>
        <time>2015-03-23T16:14:49.000Z</time>
      </trkpt>
      <trkpt lat="45.18477" lon="6.31755">
        <ele>1617.5999755859</ele>
        <time>2015-03-23T16:14:50.000Z</time>
      </trkpt>
      <trkpt lat="45.18477" lon="6.31755">
        <ele>1616.1999511719</ele>
        <time>2015-03-23T16:14:52.000Z</time>
      </trkpt>
      <trkpt lat="45.18477" lon="6.31755">
        <ele>1617.4000244141</ele>
        <time>2015-03-23T16:14:57.000Z</time>
      </trkpt>
      <trkpt lat="45.18477" lon="6.31755">
        <ele>1620.8000488281</ele>
        <time>2015-03-23T16:14:59.000Z</time>
      </trkpt>
      <trkpt lat="45.18476" lon="6.31754">
        <ele>1621.4000244141</ele>
        <time>2015-03-23T16:15:00.000Z</time>
      </trkpt>
      <trkpt lat="45.18474" lon="6.31753">
        <ele>1622</ele>
        <time>2015-03-23T16:15:01.000Z</time>
      </trkpt>
      <trkpt lat="45.18472" lon="6.31751">
        <ele>1623.4000244141</ele>
        <time>2015-03-23T16:15:03.000Z</time>
      </trkpt>
      <trkpt lat="45.18471" lon="6.3175">
        <ele>1624.8000488281</ele>
        <time>2015-03-23T16:15:06.000Z</time>
      </trkpt>
      <trkpt lat="45.18471" lon="6.3175">
        <ele>1625</ele>
        <time>2015-03-23T16:15:07.000Z</time>
      </trkpt>
      <trkpt lat="45.18473" lon="6.31753">
        <ele>1625.1999511719</ele>
        <time>2015-03-23T16:15:09.000Z</time>
      </trkpt>
      <trkpt lat="45.18474" lon="6.31757">
        <ele>1625</ele>
        <time>2015-03-23T16:15:12.000Z</time>
      </trkpt>
      <trkpt lat="45.18478" lon="6.31763">
        <ele>1624.5999755859</ele>
        <time>2015-03-23T16:15:17.000Z</time>
      </trkpt>
      <trkpt lat="45.18478" lon="6.31763">
        <ele>1623.5999755859</ele>
        <time>2015-03-23T16:15:22.000Z</time>
      </trkpt>
      <trkpt lat="45.18478" lon="6.31763">
        <ele>1622.4000244141</ele>
        <time>2015-03-23T16:15:24.000Z</time>
      </trkpt>
      <trkpt lat="45.18478" lon="6.31763">
        <ele>1622</ele>
        <time>2015-03-23T16:15:26.000Z</time>
      </trkpt>
      <trkpt lat="45.18478" lon="6.31763">
        <ele>1623.4000244141</ele>
        <time>2015-03-23T16:15:33.000Z</time>
      </trkpt>
      <trkpt lat="45.18478" lon="6.31763">
        <ele>1623.8000488281</ele>
        <time>2015-03-23T16:15:34.000Z</time>
      </trkpt>
      <trkpt lat="45.18478" lon="6.31763">
        <ele>1624.8000488281</ele>
        <time>2015-03-23T16:15:35.000Z</time>
      </trkpt>
      <trkpt lat="45.18478" lon="6.31763">
        <ele>1626</ele>
        <time>2015-03-23T16:15:37.000Z</time>
      </trkpt>
      <trkpt lat="45.18478" lon="6.31763">
        <ele>1625</ele>
        <time>2015-03-23T16:15:40.000Z</time>
      </trkpt>
      <trkpt lat="45.18478" lon="6.31763">
        <ele>1623.5999755859</ele>
        <time>2015-03-23T16:15:41.000Z</time>
      </trkpt>
      <trkpt lat="45.18478" lon="6.31763">
        <ele>1622.1999511719</ele>
        <time>2015-03-23T16:15:42.000Z</time>
      </trkpt>
      <trkpt lat="45.18478" lon="6.31763">
        <ele>1620.5999755859</ele>
        <time>2015-03-23T16:15:44.000Z</time>
      </trkpt>
      <trkpt lat="45.18478" lon="6.31763">
        <ele>1620.1999511719</ele>
        <time>2015-03-23T16:15:46.000Z</time>
      </trkpt>
      <trkpt lat="45.18482" lon="6.31763">
        <ele>1622.1999511719</ele>
        <time>2015-03-23T16:15:48.000Z</time>
      </trkpt>
      <trkpt lat="45.18484" lon="6.31763">
        <ele>1624.1999511719</ele>
        <time>2015-03-23T16:15:49.000Z</time>
      </trkpt>
      <trkpt lat="45.18487" lon="6.31764">
        <ele>1626</ele>
        <time>2015-03-23T16:15:50.000Z</time>
      </trkpt>
      <trkpt lat="45.18489" lon="6.31765">
        <ele>1627.4000244141</ele>
        <time>2015-03-23T16:15:51.000Z</time>
      </trkpt>
      <trkpt lat="45.18492" lon="6.31766">
        <ele>1628.4000244141</ele>
        <time>2015-03-23T16:15:53.000Z</time>
      </trkpt>
      <trkpt lat="45.18493" lon="6.31767">
        <ele>1628.5999755859</ele>
        <time>2015-03-23T16:15:54.000Z</time>
      </trkpt>
      <trkpt lat="45.18499" lon="6.31769">
        <ele>1629</ele>
        <time>2015-03-23T16:15:59.000Z</time>
      </trkpt>
      <trkpt lat="45.18502" lon="6.31771">
        <ele>1629.5999755859</ele>
        <time>2015-03-23T16:16:02.000Z</time>
      </trkpt>
      <trkpt lat="45.18509" lon="6.31781">
        <ele>1630.5999755859</ele>
        <time>2015-03-23T16:16:08.000Z</time>
      </trkpt>
      <trkpt lat="45.1851" lon="6.31783">
        <ele>1630.5999755859</ele>
        <time>2015-03-23T16:16:09.000Z</time>
      </trkpt>
      <trkpt lat="45.18519" lon="6.318">
        <ele>1631.5999755859</ele>
        <time>2015-03-23T16:16:17.000Z</time>
      </trkpt>
      <trkpt lat="45.18524" lon="6.31804">
        <ele>1632.4000244141</ele>
        <time>2015-03-23T16:16:23.000Z</time>
      </trkpt>
      <trkpt lat="45.18529" lon="6.31811">
        <ele>1633</ele>
        <time>2015-03-23T16:16:27.000Z</time>
      </trkpt>
      <trkpt lat="45.18531" lon="6.31813">
        <ele>1633.5999755859</ele>
        <time>2015-03-23T16:16:29.000Z</time>
      </trkpt>
      <trkpt lat="45.18532" lon="6.31813">
        <ele>1634</ele>
        <time>2015-03-23T16:16:31.000Z</time>
      </trkpt>
      <trkpt lat="45.18532" lon="6.31813">
        <ele>1635.4000244141</ele>
        <time>2015-03-23T16:16:35.000Z</time>
      </trkpt>
      <trkpt lat="45.18532" lon="6.31813">
        <ele>1636.4000244141</ele>
        <time>2015-03-23T16:16:39.000Z</time>
      </trkpt>
      <trkpt lat="45.18532" lon="6.31813">
        <ele>1637.4000244141</ele>
        <time>2015-03-23T16:16:45.000Z</time>
      </trkpt>
      <trkpt lat="45.18531" lon="6.31813">
        <ele>1638</ele>
        <time>2015-03-23T16:16:50.000Z</time>
      </trkpt>
      <trkpt lat="45.18531" lon="6.31813">
        <ele>1638.4000244141</ele>
        <time>2015-03-23T16:16:53.000Z</time>
      </trkpt>
      <trkpt lat="45.18531" lon="6.31813">
        <ele>1639.5999755859</ele>
        <time>2015-03-23T16:17:01.000Z</time>
      </trkpt>
      <trkpt lat="45.18531" lon="6.31813">
        <ele>1639.8000488281</ele>
        <time>2015-03-23T16:17:03.000Z</time>
      </trkpt>
      <trkpt lat="45.18531" lon="6.31813">
        <ele>1640</ele>
        <time>2015-03-23T16:17:13.000Z</time>
      </trkpt>
      <trkpt lat="45.18531" lon="6.31813">
        <ele>1640.5999755859</ele>
        <time>2015-03-23T16:17:21.000Z</time>
      </trkpt>
      <trkpt lat="45.18531" lon="6.31812">
        <ele>1641.5999755859</ele>
        <time>2015-03-23T16:17:27.000Z</time>
      </trkpt>
      <trkpt lat="45.18531" lon="6.31812">
        <ele>1641.5999755859</ele>
        <time>2015-03-23T16:17:28.000Z</time>
      </trkpt>
      <trkpt lat="45.18531" lon="6.31812">
        <ele>1642.8000488281</ele>
        <time>2015-03-23T16:17:40.000Z</time>
      </trkpt>
      <trkpt lat="45.18531" lon="6.31812">
        <ele>1643.8000488281</ele>
        <time>2015-03-23T16:17:48.000Z</time>
      </trkpt>
      <trkpt lat="45.18531" lon="6.31812">
        <ele>1644</ele>
        <time>2015-03-23T16:17:50.000Z</time>
      </trkpt>
      <trkpt lat="45.18531" lon="6.3181">
        <ele>1644.8000488281</ele>
        <time>2015-03-23T16:17:59.000Z</time>
      </trkpt>
      <trkpt lat="45.18531" lon="6.3181">
        <ele>1644.8000488281</ele>
        <time>2015-03-23T16:18:00.000Z</time>
      </trkpt>
      <trkpt lat="45.18531" lon="6.3181">
        <ele>1645.5999755859</ele>
        <time>2015-03-23T16:18:08.000Z</time>
      </trkpt>
      <trkpt lat="45.18531" lon="6.3181">
        <ele>1646</ele>
        <time>2015-03-23T16:18:12.000Z</time>
      </trkpt>
      <trkpt lat="45.18531" lon="6.3181">
        <ele>1646.5999755859</ele>
        <time>2015-03-23T16:18:22.000Z</time>
      </trkpt>
      <trkpt lat="45.18531" lon="6.3181">
        <ele>1647</ele>
        <time>2015-03-23T16:18:27.000Z</time>
      </trkpt>
      <trkpt lat="45.18529" lon="6.31806">
        <ele>1647</ele>
        <time>2015-03-23T16:18:33.000Z</time>
      </trkpt>
      <trkpt lat="45.18528" lon="6.31801">
        <ele>1647</ele>
        <time>2015-03-23T16:18:36.000Z</time>
      </trkpt>
      <trkpt lat="45.18527" lon="6.31801">
        <ele>1647</ele>
        <time>2015-03-23T16:18:37.000Z</time>
      </trkpt>
      <trkpt lat="45.18525" lon="6.31799">
        <ele>1647</ele>
        <time>2015-03-23T16:18:39.000Z</time>
      </trkpt>
      <trkpt lat="45.18523" lon="6.31798">
        <ele>1647.1999511719</ele>
        <time>2015-03-23T16:18:44.000Z</time>
      </trkpt>
      <trkpt lat="45.1852" lon="6.31792">
        <ele>1647.4000244141</ele>
        <time>2015-03-23T16:18:50.000Z</time>
      </trkpt>
      <trkpt lat="45.18517" lon="6.3179">
        <ele>1647.5999755859</ele>
        <time>2015-03-23T16:18:55.000Z</time>
      </trkpt>
      <trkpt lat="45.18515" lon="6.31784">
        <ele>1647.8000488281</ele>
        <time>2015-03-23T16:19:00.000Z</time>
      </trkpt>
      <trkpt lat="45.18514" lon="6.31784">
        <ele>1648</ele>
        <time>2015-03-23T16:19:01.000Z</time>
      </trkpt>
      <trkpt lat="45.18512" lon="6.31779">
        <ele>1648.1999511719</ele>
        <time>2015-03-23T16:19:06.000Z</time>
      </trkpt>
      <trkpt lat="45.18512" lon="6.31774">
        <ele>1648.1999511719</ele>
        <time>2015-03-23T16:19:12.000Z</time>
      </trkpt>
      <trkpt lat="45.18511" lon="6.31775">
        <ele>1648.5999755859</ele>
        <time>2015-03-23T16:19:20.000Z</time>
      </trkpt>
      <trkpt lat="45.18508" lon="6.31773">
        <ele>1648.4000244141</ele>
        <time>2015-03-23T16:19:24.000Z</time>
      </trkpt>
      <trkpt lat="45.18507" lon="6.31771">
        <ele>1648.1999511719</ele>
        <time>2015-03-23T16:19:26.000Z</time>
      </trkpt>
      <trkpt lat="45.18506" lon="6.31771">
        <ele>1648.4000244141</ele>
        <time>2015-03-23T16:19:29.000Z</time>
      </trkpt>
      <trkpt lat="45.18503" lon="6.31765">
        <ele>1648.4000244141</ele>
        <time>2015-03-23T16:19:34.000Z</time>
      </trkpt>
      <trkpt lat="45.18501" lon="6.31764">
        <ele>1648.4000244141</ele>
        <time>2015-03-23T16:19:36.000Z</time>
      </trkpt>
      <trkpt lat="45.18499" lon="6.31763">
        <ele>1648.5999755859</ele>
        <time>2015-03-23T16:19:39.000Z</time>
      </trkpt>
      <trkpt lat="45.18495" lon="6.31758">
        <ele>1648.5999755859</ele>
        <time>2015-03-23T16:19:45.000Z</time>
      </trkpt>
      <trkpt lat="45.18491" lon="6.31758">
        <ele>1649</ele>
        <time>2015-03-23T16:19:49.000Z</time>
      </trkpt>
      <trkpt lat="45.18491" lon="6.31757">
        <ele>1649.1999511719</ele>
        <time>2015-03-23T16:19:50.000Z</time>
      </trkpt>
      <trkpt lat="45.18486" lon="6.31756">
        <ele>1649.4000244141</ele>
        <time>2015-03-23T16:19:56.000Z</time>
      </trkpt>
      <trkpt lat="45.18485" lon="6.31755">
        <ele>1649.5999755859</ele>
        <time>2015-03-23T16:20:01.000Z</time>
      </trkpt>
      <trkpt lat="45.18483" lon="6.31754">
        <ele>1649.1999511719</ele>
        <time>2015-03-23T16:20:05.000Z</time>
      </trkpt>
      <trkpt lat="45.18479" lon="6.31752">
        <ele>1649.1999511719</ele>
        <time>2015-03-23T16:20:10.000Z</time>
      </trkpt>
      <trkpt lat="45.18476" lon="6.31754">
        <ele>1649</ele>
        <time>2015-03-23T16:20:16.000Z</time>
      </trkpt>
      <trkpt lat="45.18476" lon="6.31754">
        <ele>1647</ele>
        <time>2015-03-23T16:20:18.000Z</time>
      </trkpt>
      <trkpt lat="45.18476" lon="6.31754">
        <ele>1646</ele>
        <time>2015-03-23T16:20:21.000Z</time>
      </trkpt>
      <trkpt lat="45.18476" lon="6.31754">
        <ele>1647.1999511719</ele>
        <time>2015-03-23T16:20:23.000Z</time>
      </trkpt>
      <trkpt lat="45.18476" lon="6.31754">
        <ele>1646.5999755859</ele>
        <time>2015-03-23T16:20:27.000Z</time>
      </trkpt>
      <trkpt lat="45.18476" lon="6.31754">
        <ele>1645.4000244141</ele>
        <time>2015-03-23T16:20:28.000Z</time>
      </trkpt>
      <trkpt lat="45.18476" lon="6.31754">
        <ele>1643.8000488281</ele>
        <time>2015-03-23T16:20:30.000Z</time>
      </trkpt>
      <trkpt lat="45.18476" lon="6.31754">
        <ele>1642.8000488281</ele>
        <time>2015-03-23T16:20:33.000Z</time>
      </trkpt>
      <trkpt lat="45.18475" lon="6.31753">
        <ele>1644.1999511719</ele>
        <time>2015-03-23T16:20:36.000Z</time>
      </trkpt>
      <trkpt lat="45.18475" lon="6.31753">
        <ele>1645.1999511719</ele>
        <time>2015-03-23T16:20:37.000Z</time>
      </trkpt>
      <trkpt lat="45.18475" lon="6.31753">
        <ele>1646.5999755859</ele>
        <time>2015-03-23T16:20:39.000Z</time>
      </trkpt>
      <trkpt lat="45.18475" lon="6.31753">
        <ele>1647</ele>
        <time>2015-03-23T16:20:46.000Z</time>
      </trkpt>
      <trkpt lat="45.18475" lon="6.31751">
        <ele>1646.1999511719</ele>
        <time>2015-03-23T16:20:55.000Z</time>
      </trkpt>
    </trkseg>
  </trk>
</gpx>